<?xml version="1.0" encoding="UTF-8" standalone="no" ?>
<gpx xmlns="http://www.topografix.com/GPX/1/1" xmlns:xsi="http://www.w3.org/2001/XMLSchema-instance" xsi:schemaLocation="http://www.topografix.com/GPX/1/1 http://www.topografix.com/GPX/1/1/gpx.xsd" version="1.1" creator="VisuGPX - https://www.visugpx.com">
  <metadata>
    <name>Canal du midi : Argens-Minervois à Carcassonne</name>
    <desc><![CDATA[le long du canal d'Argens en Minervois (8 km au nord de Lézignan) à Carcassonne]]></desc>
  </metadata>
  <trk>
    <name><![CDATA[170120_Argens-Carcassonne]]></name>
    <trkseg>
      <trkpt lat="43.24018" lon="2.76546">
        <ele>35.1</ele>
        <time>2017-01-20T13:09:41Z</time>
      </trkpt>
      <trkpt lat="43.24018" lon="2.76546">
        <ele>35.1</ele>
        <time>2017-01-20T13:09:42Z</time>
      </trkpt>
      <trkpt lat="43.24018" lon="2.76546">
        <ele>35.1</ele>
        <time>2017-01-20T13:09:43Z</time>
      </trkpt>
      <trkpt lat="43.24018" lon="2.76546">
        <ele>35.1</ele>
        <time>2017-01-20T13:09:44Z</time>
      </trkpt>
      <trkpt lat="43.24018" lon="2.76546">
        <ele>35.1</ele>
        <time>2017-01-20T13:09:45Z</time>
      </trkpt>
      <trkpt lat="43.24018" lon="2.76546">
        <ele>35.1</ele>
        <time>2017-01-20T13:09:46Z</time>
      </trkpt>
      <trkpt lat="43.24018" lon="2.76546">
        <ele>35.1</ele>
        <time>2017-01-20T13:09:47Z</time>
      </trkpt>
      <trkpt lat="43.24018" lon="2.76553">
        <ele>35.3</ele>
        <time>2017-01-20T13:09:48Z</time>
      </trkpt>
      <trkpt lat="43.24018" lon="2.76553">
        <ele>35.5</ele>
        <time>2017-01-20T13:09:49Z</time>
      </trkpt>
      <trkpt lat="43.24018" lon="2.76553">
        <ele>35.6</ele>
        <time>2017-01-20T13:09:50Z</time>
      </trkpt>
      <trkpt lat="43.24018" lon="2.76553">
        <ele>35.7</ele>
        <time>2017-01-20T13:09:51Z</time>
      </trkpt>
      <trkpt lat="43.24018" lon="2.76553">
        <ele>35.8</ele>
        <time>2017-01-20T13:09:52Z</time>
      </trkpt>
      <trkpt lat="43.24018" lon="2.76553">
        <ele>35.9</ele>
        <time>2017-01-20T13:09:53Z</time>
      </trkpt>
      <trkpt lat="43.24018" lon="2.76553">
        <ele>35.9</ele>
        <time>2017-01-20T13:09:54Z</time>
      </trkpt>
      <trkpt lat="43.24018" lon="2.76553">
        <ele>35.9</ele>
        <time>2017-01-20T13:09:55Z</time>
      </trkpt>
      <trkpt lat="43.24018" lon="2.76553">
        <ele>36</ele>
        <time>2017-01-20T13:09:56Z</time>
      </trkpt>
      <trkpt lat="43.24018" lon="2.76553">
        <ele>36</ele>
        <time>2017-01-20T13:09:57Z</time>
      </trkpt>
      <trkpt lat="43.24018" lon="2.76553">
        <ele>36</ele>
        <time>2017-01-20T13:09:58Z</time>
      </trkpt>
      <trkpt lat="43.24018" lon="2.76553">
        <ele>36</ele>
        <time>2017-01-20T13:09:59Z</time>
      </trkpt>
      <trkpt lat="43.24018" lon="2.76553">
        <ele>36</ele>
        <time>2017-01-20T13:10:00Z</time>
      </trkpt>
      <trkpt lat="43.24018" lon="2.76553">
        <ele>36</ele>
        <time>2017-01-20T13:10:01Z</time>
      </trkpt>
      <trkpt lat="43.24018" lon="2.76553">
        <ele>36</ele>
        <time>2017-01-20T13:10:02Z</time>
      </trkpt>
      <trkpt lat="43.24018" lon="2.76553">
        <ele>36</ele>
        <time>2017-01-20T13:10:03Z</time>
      </trkpt>
      <trkpt lat="43.24018" lon="2.76553">
        <ele>36</ele>
        <time>2017-01-20T13:10:04Z</time>
      </trkpt>
      <trkpt lat="43.24018" lon="2.76553">
        <ele>36</ele>
        <time>2017-01-20T13:10:05Z</time>
      </trkpt>
      <trkpt lat="43.24018" lon="2.76553">
        <ele>36</ele>
        <time>2017-01-20T13:10:06Z</time>
      </trkpt>
      <trkpt lat="43.24018" lon="2.76553">
        <ele>36</ele>
        <time>2017-01-20T13:10:07Z</time>
      </trkpt>
      <trkpt lat="43.24018" lon="2.76553">
        <ele>36</ele>
        <time>2017-01-20T13:10:08Z</time>
      </trkpt>
      <trkpt lat="43.24018" lon="2.76553">
        <ele>36</ele>
        <time>2017-01-20T13:10:09Z</time>
      </trkpt>
      <trkpt lat="43.24018" lon="2.76553">
        <ele>36</ele>
        <time>2017-01-20T13:10:10Z</time>
      </trkpt>
      <trkpt lat="43.24018" lon="2.76553">
        <ele>36</ele>
        <time>2017-01-20T13:10:11Z</time>
      </trkpt>
      <trkpt lat="43.24018" lon="2.76553">
        <ele>36</ele>
        <time>2017-01-20T13:10:12Z</time>
      </trkpt>
      <trkpt lat="43.24018" lon="2.76553">
        <ele>36</ele>
        <time>2017-01-20T13:10:13Z</time>
      </trkpt>
      <trkpt lat="43.24018" lon="2.76553">
        <ele>36</ele>
        <time>2017-01-20T13:10:14Z</time>
      </trkpt>
      <trkpt lat="43.24018" lon="2.76553">
        <ele>36</ele>
        <time>2017-01-20T13:10:15Z</time>
      </trkpt>
      <trkpt lat="43.24018" lon="2.76553">
        <ele>36</ele>
        <time>2017-01-20T13:10:16Z</time>
      </trkpt>
      <trkpt lat="43.24018" lon="2.76553">
        <ele>36</ele>
        <time>2017-01-20T13:10:17Z</time>
      </trkpt>
      <trkpt lat="43.24018" lon="2.76553">
        <ele>36</ele>
        <time>2017-01-20T13:10:18Z</time>
      </trkpt>
      <trkpt lat="43.2402" lon="2.76557">
        <ele>36.3</ele>
        <time>2017-01-20T13:10:19Z</time>
      </trkpt>
      <trkpt lat="43.24021" lon="2.76555">
        <ele>36.6</ele>
        <time>2017-01-20T13:10:20Z</time>
      </trkpt>
      <trkpt lat="43.24022" lon="2.76552">
        <ele>37.1</ele>
        <time>2017-01-20T13:10:23Z</time>
      </trkpt>
      <trkpt lat="43.24022" lon="2.76552">
        <ele>37.2</ele>
        <time>2017-01-20T13:10:24Z</time>
      </trkpt>
      <trkpt lat="43.24022" lon="2.76552">
        <ele>37.3</ele>
        <time>2017-01-20T13:10:25Z</time>
      </trkpt>
      <trkpt lat="43.24022" lon="2.76552">
        <ele>37.4</ele>
        <time>2017-01-20T13:10:26Z</time>
      </trkpt>
      <trkpt lat="43.24022" lon="2.76552">
        <ele>37.4</ele>
        <time>2017-01-20T13:10:27Z</time>
      </trkpt>
      <trkpt lat="43.24022" lon="2.76552">
        <ele>37.5</ele>
        <time>2017-01-20T13:10:28Z</time>
      </trkpt>
      <trkpt lat="43.24022" lon="2.76552">
        <ele>37.5</ele>
        <time>2017-01-20T13:10:29Z</time>
      </trkpt>
      <trkpt lat="43.24023" lon="2.76548">
        <ele>37.6</ele>
        <time>2017-01-20T13:10:30Z</time>
      </trkpt>
      <trkpt lat="43.24023" lon="2.76547">
        <ele>37.6</ele>
        <time>2017-01-20T13:10:31Z</time>
      </trkpt>
      <trkpt lat="43.24023" lon="2.76547">
        <ele>37.7</ele>
        <time>2017-01-20T13:10:32Z</time>
      </trkpt>
      <trkpt lat="43.24023" lon="2.76547">
        <ele>37.7</ele>
        <time>2017-01-20T13:10:33Z</time>
      </trkpt>
      <trkpt lat="43.24023" lon="2.76547">
        <ele>37.8</ele>
        <time>2017-01-20T13:10:34Z</time>
      </trkpt>
      <trkpt lat="43.24023" lon="2.76547">
        <ele>37.8</ele>
        <time>2017-01-20T13:10:35Z</time>
      </trkpt>
      <trkpt lat="43.24023" lon="2.76547">
        <ele>37.8</ele>
        <time>2017-01-20T13:10:36Z</time>
      </trkpt>
      <trkpt lat="43.24023" lon="2.76547">
        <ele>37.8</ele>
        <time>2017-01-20T13:10:37Z</time>
      </trkpt>
      <trkpt lat="43.24023" lon="2.76547">
        <ele>37.8</ele>
        <time>2017-01-20T13:10:38Z</time>
      </trkpt>
      <trkpt lat="43.24023" lon="2.76548">
        <ele>37.8</ele>
        <time>2017-01-20T13:10:39Z</time>
      </trkpt>
      <trkpt lat="43.24023" lon="2.76549">
        <ele>37.8</ele>
        <time>2017-01-20T13:10:40Z</time>
      </trkpt>
      <trkpt lat="43.24022" lon="2.76551">
        <ele>37.8</ele>
        <time>2017-01-20T13:10:42Z</time>
      </trkpt>
      <trkpt lat="43.24021" lon="2.76552">
        <ele>37.8</ele>
        <time>2017-01-20T13:10:43Z</time>
      </trkpt>
      <trkpt lat="43.24021" lon="2.76551">
        <ele>37.8</ele>
        <time>2017-01-20T13:10:44Z</time>
      </trkpt>
      <trkpt lat="43.2402" lon="2.76551">
        <ele>37.8</ele>
        <time>2017-01-20T13:10:46Z</time>
      </trkpt>
      <trkpt lat="43.2402" lon="2.76551">
        <ele>37.8</ele>
        <time>2017-01-20T13:10:47Z</time>
      </trkpt>
      <trkpt lat="43.2402" lon="2.76551">
        <ele>37.8</ele>
        <time>2017-01-20T13:10:48Z</time>
      </trkpt>
      <trkpt lat="43.2402" lon="2.76551">
        <ele>37.8</ele>
        <time>2017-01-20T13:10:49Z</time>
      </trkpt>
      <trkpt lat="43.2402" lon="2.76551">
        <ele>37.8</ele>
        <time>2017-01-20T13:10:50Z</time>
      </trkpt>
      <trkpt lat="43.2402" lon="2.76551">
        <ele>37.8</ele>
        <time>2017-01-20T13:10:51Z</time>
      </trkpt>
      <trkpt lat="43.24022" lon="2.7655">
        <ele>37.8</ele>
        <time>2017-01-20T13:10:52Z</time>
      </trkpt>
      <trkpt lat="43.24023" lon="2.76549">
        <ele>37.8</ele>
        <time>2017-01-20T13:10:53Z</time>
      </trkpt>
      <trkpt lat="43.24024" lon="2.76546">
        <ele>37.9</ele>
        <time>2017-01-20T13:10:54Z</time>
      </trkpt>
      <trkpt lat="43.2404" lon="2.76513">
        <ele>38</ele>
        <time>2017-01-20T13:11:02Z</time>
      </trkpt>
      <trkpt lat="43.24067" lon="2.76469">
        <ele>38.2</ele>
        <time>2017-01-20T13:11:18Z</time>
      </trkpt>
      <trkpt lat="43.24074" lon="2.76459">
        <ele>38.3</ele>
        <time>2017-01-20T13:11:23Z</time>
      </trkpt>
      <trkpt lat="43.24074" lon="2.76459">
        <ele>38.3</ele>
        <time>2017-01-20T13:11:24Z</time>
      </trkpt>
      <trkpt lat="43.24074" lon="2.76459">
        <ele>38.3</ele>
        <time>2017-01-20T13:11:25Z</time>
      </trkpt>
      <trkpt lat="43.24074" lon="2.76459">
        <ele>38.3</ele>
        <time>2017-01-20T13:11:26Z</time>
      </trkpt>
      <trkpt lat="43.24074" lon="2.76459">
        <ele>38.3</ele>
        <time>2017-01-20T13:11:27Z</time>
      </trkpt>
      <trkpt lat="43.24074" lon="2.76459">
        <ele>38.3</ele>
        <time>2017-01-20T13:11:28Z</time>
      </trkpt>
      <trkpt lat="43.24074" lon="2.76459">
        <ele>38.3</ele>
        <time>2017-01-20T13:11:29Z</time>
      </trkpt>
      <trkpt lat="43.24074" lon="2.76459">
        <ele>38.3</ele>
        <time>2017-01-20T13:11:30Z</time>
      </trkpt>
      <trkpt lat="43.24074" lon="2.76459">
        <ele>38.3</ele>
        <time>2017-01-20T13:11:31Z</time>
      </trkpt>
      <trkpt lat="43.24074" lon="2.76459">
        <ele>38.3</ele>
        <time>2017-01-20T13:11:32Z</time>
      </trkpt>
      <trkpt lat="43.24074" lon="2.76459">
        <ele>38.3</ele>
        <time>2017-01-20T13:11:33Z</time>
      </trkpt>
      <trkpt lat="43.24074" lon="2.76459">
        <ele>38.3</ele>
        <time>2017-01-20T13:11:34Z</time>
      </trkpt>
      <trkpt lat="43.24074" lon="2.76459">
        <ele>38.3</ele>
        <time>2017-01-20T13:11:35Z</time>
      </trkpt>
      <trkpt lat="43.24074" lon="2.76459">
        <ele>38.3</ele>
        <time>2017-01-20T13:11:36Z</time>
      </trkpt>
      <trkpt lat="43.24074" lon="2.76459">
        <ele>38.3</ele>
        <time>2017-01-20T13:11:37Z</time>
      </trkpt>
      <trkpt lat="43.24074" lon="2.76459">
        <ele>38.3</ele>
        <time>2017-01-20T13:11:38Z</time>
      </trkpt>
      <trkpt lat="43.24074" lon="2.76459">
        <ele>38.3</ele>
        <time>2017-01-20T13:11:39Z</time>
      </trkpt>
      <trkpt lat="43.24074" lon="2.76459">
        <ele>38.3</ele>
        <time>2017-01-20T13:11:40Z</time>
      </trkpt>
      <trkpt lat="43.24074" lon="2.76459">
        <ele>38.3</ele>
        <time>2017-01-20T13:11:41Z</time>
      </trkpt>
      <trkpt lat="43.24074" lon="2.76459">
        <ele>38.3</ele>
        <time>2017-01-20T13:11:42Z</time>
      </trkpt>
      <trkpt lat="43.24074" lon="2.76459">
        <ele>38.3</ele>
        <time>2017-01-20T13:11:43Z</time>
      </trkpt>
      <trkpt lat="43.24074" lon="2.76459">
        <ele>38.3</ele>
        <time>2017-01-20T13:11:44Z</time>
      </trkpt>
      <trkpt lat="43.24074" lon="2.76459">
        <ele>38.3</ele>
        <time>2017-01-20T13:11:45Z</time>
      </trkpt>
      <trkpt lat="43.24076" lon="2.76456">
        <ele>38.3</ele>
        <time>2017-01-20T13:11:46Z</time>
      </trkpt>
      <trkpt lat="43.24096" lon="2.76438">
        <ele>38.1</ele>
        <time>2017-01-20T13:11:54Z</time>
      </trkpt>
      <trkpt lat="43.24116" lon="2.76424">
        <ele>37.7</ele>
        <time>2017-01-20T13:12:00Z</time>
      </trkpt>
      <trkpt lat="43.24165" lon="2.76398">
        <ele>37.1</ele>
        <time>2017-01-20T13:12:19Z</time>
      </trkpt>
      <trkpt lat="43.24279" lon="2.76344">
        <ele>39.1</ele>
        <time>2017-01-20T13:12:56Z</time>
      </trkpt>
      <trkpt lat="43.24279" lon="2.76344">
        <ele>39.1</ele>
        <time>2017-01-20T13:12:57Z</time>
      </trkpt>
      <trkpt lat="43.24279" lon="2.76344">
        <ele>39.1</ele>
        <time>2017-01-20T13:12:58Z</time>
      </trkpt>
      <trkpt lat="43.24279" lon="2.76344">
        <ele>39.1</ele>
        <time>2017-01-20T13:12:59Z</time>
      </trkpt>
      <trkpt lat="43.24279" lon="2.76344">
        <ele>39.1</ele>
        <time>2017-01-20T13:13:00Z</time>
      </trkpt>
      <trkpt lat="43.24279" lon="2.76344">
        <ele>39.1</ele>
        <time>2017-01-20T13:13:01Z</time>
      </trkpt>
      <trkpt lat="43.24279" lon="2.76344">
        <ele>39.1</ele>
        <time>2017-01-20T13:13:02Z</time>
      </trkpt>
      <trkpt lat="43.24279" lon="2.76344">
        <ele>39.1</ele>
        <time>2017-01-20T13:13:03Z</time>
      </trkpt>
      <trkpt lat="43.24279" lon="2.76344">
        <ele>39.1</ele>
        <time>2017-01-20T13:13:04Z</time>
      </trkpt>
      <trkpt lat="43.24279" lon="2.76344">
        <ele>39.1</ele>
        <time>2017-01-20T13:13:05Z</time>
      </trkpt>
      <trkpt lat="43.24279" lon="2.76344">
        <ele>39.1</ele>
        <time>2017-01-20T13:13:06Z</time>
      </trkpt>
      <trkpt lat="43.24279" lon="2.76344">
        <ele>39.1</ele>
        <time>2017-01-20T13:13:07Z</time>
      </trkpt>
      <trkpt lat="43.24283" lon="2.76342">
        <ele>39.1</ele>
        <time>2017-01-20T13:13:08Z</time>
      </trkpt>
      <trkpt lat="43.24543" lon="2.76217">
        <ele>39.2</ele>
        <time>2017-01-20T13:14:31Z</time>
      </trkpt>
      <trkpt lat="43.24543" lon="2.76217">
        <ele>39.2</ele>
        <time>2017-01-20T13:14:32Z</time>
      </trkpt>
      <trkpt lat="43.24543" lon="2.76217">
        <ele>39.2</ele>
        <time>2017-01-20T13:14:33Z</time>
      </trkpt>
      <trkpt lat="43.24543" lon="2.76217">
        <ele>39.2</ele>
        <time>2017-01-20T13:14:34Z</time>
      </trkpt>
      <trkpt lat="43.24543" lon="2.76217">
        <ele>39.2</ele>
        <time>2017-01-20T13:14:35Z</time>
      </trkpt>
      <trkpt lat="43.24543" lon="2.76217">
        <ele>39.2</ele>
        <time>2017-01-20T13:14:36Z</time>
      </trkpt>
      <trkpt lat="43.24547" lon="2.76216">
        <ele>39.1</ele>
        <time>2017-01-20T13:14:37Z</time>
      </trkpt>
      <trkpt lat="43.24619" lon="2.76181">
        <ele>38.9</ele>
        <time>2017-01-20T13:14:55Z</time>
      </trkpt>
      <trkpt lat="43.24712" lon="2.7613">
        <ele>40.2</ele>
        <time>2017-01-20T13:15:16Z</time>
      </trkpt>
      <trkpt lat="43.24716" lon="2.76126">
        <ele>40.1</ele>
        <time>2017-01-20T13:15:17Z</time>
      </trkpt>
      <trkpt lat="43.24745" lon="2.76097">
        <ele>39.7</ele>
        <time>2017-01-20T13:15:24Z</time>
      </trkpt>
      <trkpt lat="43.24752" lon="2.76088">
        <ele>40.1</ele>
        <time>2017-01-20T13:15:28Z</time>
      </trkpt>
      <trkpt lat="43.24752" lon="2.76088">
        <ele>40</ele>
        <time>2017-01-20T13:15:29Z</time>
      </trkpt>
      <trkpt lat="43.24752" lon="2.76088">
        <ele>39.9</ele>
        <time>2017-01-20T13:15:30Z</time>
      </trkpt>
      <trkpt lat="43.24752" lon="2.76088">
        <ele>39.8</ele>
        <time>2017-01-20T13:15:31Z</time>
      </trkpt>
      <trkpt lat="43.24752" lon="2.76088">
        <ele>39.6</ele>
        <time>2017-01-20T13:15:32Z</time>
      </trkpt>
      <trkpt lat="43.24752" lon="2.76088">
        <ele>39.4</ele>
        <time>2017-01-20T13:15:33Z</time>
      </trkpt>
      <trkpt lat="43.24752" lon="2.76088">
        <ele>39.2</ele>
        <time>2017-01-20T13:15:34Z</time>
      </trkpt>
      <trkpt lat="43.24752" lon="2.76088">
        <ele>39.1</ele>
        <time>2017-01-20T13:15:35Z</time>
      </trkpt>
      <trkpt lat="43.24752" lon="2.76088">
        <ele>39</ele>
        <time>2017-01-20T13:15:36Z</time>
      </trkpt>
      <trkpt lat="43.24752" lon="2.76088">
        <ele>39</ele>
        <time>2017-01-20T13:15:37Z</time>
      </trkpt>
      <trkpt lat="43.24752" lon="2.76088">
        <ele>38.9</ele>
        <time>2017-01-20T13:15:38Z</time>
      </trkpt>
      <trkpt lat="43.24753" lon="2.76087">
        <ele>38.9</ele>
        <time>2017-01-20T13:15:39Z</time>
      </trkpt>
      <trkpt lat="43.24756" lon="2.76082">
        <ele>39.1</ele>
        <time>2017-01-20T13:15:41Z</time>
      </trkpt>
      <trkpt lat="43.24787" lon="2.76039">
        <ele>38.9</ele>
        <time>2017-01-20T13:16:01Z</time>
      </trkpt>
      <trkpt lat="43.24789" lon="2.76036">
        <ele>39.2</ele>
        <time>2017-01-20T13:16:03Z</time>
      </trkpt>
      <trkpt lat="43.24858" lon="2.75936">
        <ele>38.5</ele>
        <time>2017-01-20T13:16:28Z</time>
      </trkpt>
      <trkpt lat="43.24859" lon="2.75933">
        <ele>38.6</ele>
        <time>2017-01-20T13:16:29Z</time>
      </trkpt>
      <trkpt lat="43.24863" lon="2.75927">
        <ele>39.1</ele>
        <time>2017-01-20T13:16:32Z</time>
      </trkpt>
      <trkpt lat="43.24865" lon="2.75925">
        <ele>39.4</ele>
        <time>2017-01-20T13:16:33Z</time>
      </trkpt>
      <trkpt lat="43.24867" lon="2.75923">
        <ele>39.7</ele>
        <time>2017-01-20T13:16:34Z</time>
      </trkpt>
      <trkpt lat="43.24869" lon="2.75919">
        <ele>39.7</ele>
        <time>2017-01-20T13:16:35Z</time>
      </trkpt>
      <trkpt lat="43.24881" lon="2.75896">
        <ele>40</ele>
        <time>2017-01-20T13:16:41Z</time>
      </trkpt>
      <trkpt lat="43.24882" lon="2.75894">
        <ele>39</ele>
        <time>2017-01-20T13:16:45Z</time>
      </trkpt>
      <trkpt lat="43.24882" lon="2.75894">
        <ele>38.8</ele>
        <time>2017-01-20T13:16:46Z</time>
      </trkpt>
      <trkpt lat="43.24882" lon="2.75894">
        <ele>38.8</ele>
        <time>2017-01-20T13:16:47Z</time>
      </trkpt>
      <trkpt lat="43.24882" lon="2.75894">
        <ele>38.8</ele>
        <time>2017-01-20T13:16:48Z</time>
      </trkpt>
      <trkpt lat="43.24882" lon="2.75894">
        <ele>38.8</ele>
        <time>2017-01-20T13:16:49Z</time>
      </trkpt>
      <trkpt lat="43.24882" lon="2.75891">
        <ele>38.8</ele>
        <time>2017-01-20T13:16:50Z</time>
      </trkpt>
      <trkpt lat="43.24883" lon="2.75878">
        <ele>38.8</ele>
        <time>2017-01-20T13:16:54Z</time>
      </trkpt>
      <trkpt lat="43.24883" lon="2.75869">
        <ele>38.6</ele>
        <time>2017-01-20T13:16:56Z</time>
      </trkpt>
      <trkpt lat="43.2488" lon="2.75839">
        <ele>38.7</ele>
        <time>2017-01-20T13:17:03Z</time>
      </trkpt>
      <trkpt lat="43.2488" lon="2.75837">
        <ele>38.7</ele>
        <time>2017-01-20T13:17:05Z</time>
      </trkpt>
      <trkpt lat="43.2488" lon="2.75837">
        <ele>38.8</ele>
        <time>2017-01-20T13:17:06Z</time>
      </trkpt>
      <trkpt lat="43.2488" lon="2.75837">
        <ele>38.8</ele>
        <time>2017-01-20T13:17:07Z</time>
      </trkpt>
      <trkpt lat="43.2488" lon="2.75837">
        <ele>38.8</ele>
        <time>2017-01-20T13:17:08Z</time>
      </trkpt>
      <trkpt lat="43.2488" lon="2.75837">
        <ele>38.8</ele>
        <time>2017-01-20T13:17:09Z</time>
      </trkpt>
      <trkpt lat="43.2488" lon="2.75837">
        <ele>38.8</ele>
        <time>2017-01-20T13:17:10Z</time>
      </trkpt>
      <trkpt lat="43.2488" lon="2.75837">
        <ele>38.8</ele>
        <time>2017-01-20T13:17:11Z</time>
      </trkpt>
      <trkpt lat="43.2488" lon="2.75837">
        <ele>38.8</ele>
        <time>2017-01-20T13:17:12Z</time>
      </trkpt>
      <trkpt lat="43.2488" lon="2.75837">
        <ele>38.8</ele>
        <time>2017-01-20T13:17:13Z</time>
      </trkpt>
      <trkpt lat="43.2488" lon="2.75837">
        <ele>39.2</ele>
        <time>2017-01-20T13:17:14Z</time>
      </trkpt>
      <trkpt lat="43.2488" lon="2.75837">
        <ele>39.5</ele>
        <time>2017-01-20T13:17:15Z</time>
      </trkpt>
      <trkpt lat="43.2488" lon="2.75837">
        <ele>39.8</ele>
        <time>2017-01-20T13:17:16Z</time>
      </trkpt>
      <trkpt lat="43.24879" lon="2.75834">
        <ele>39.7</ele>
        <time>2017-01-20T13:17:17Z</time>
      </trkpt>
      <trkpt lat="43.24878" lon="2.75829">
        <ele>39.7</ele>
        <time>2017-01-20T13:17:21Z</time>
      </trkpt>
      <trkpt lat="43.24878" lon="2.75827">
        <ele>39.6</ele>
        <time>2017-01-20T13:17:22Z</time>
      </trkpt>
      <trkpt lat="43.24878" lon="2.75822">
        <ele>39.2</ele>
        <time>2017-01-20T13:17:25Z</time>
      </trkpt>
      <trkpt lat="43.24878" lon="2.75821">
        <ele>39.1</ele>
        <time>2017-01-20T13:17:26Z</time>
      </trkpt>
      <trkpt lat="43.24881" lon="2.75791">
        <ele>39.3</ele>
        <time>2017-01-20T13:17:43Z</time>
      </trkpt>
      <trkpt lat="43.24881" lon="2.75791">
        <ele>39.4</ele>
        <time>2017-01-20T13:17:44Z</time>
      </trkpt>
      <trkpt lat="43.24881" lon="2.75791">
        <ele>39.5</ele>
        <time>2017-01-20T13:17:45Z</time>
      </trkpt>
      <trkpt lat="43.24881" lon="2.75791">
        <ele>39.5</ele>
        <time>2017-01-20T13:17:46Z</time>
      </trkpt>
      <trkpt lat="43.24881" lon="2.75791">
        <ele>39.3</ele>
        <time>2017-01-20T13:17:47Z</time>
      </trkpt>
      <trkpt lat="43.24881" lon="2.75791">
        <ele>39.2</ele>
        <time>2017-01-20T13:17:48Z</time>
      </trkpt>
      <trkpt lat="43.24881" lon="2.75791">
        <ele>39.1</ele>
        <time>2017-01-20T13:17:49Z</time>
      </trkpt>
      <trkpt lat="43.24882" lon="2.75789">
        <ele>39.4</ele>
        <time>2017-01-20T13:17:50Z</time>
      </trkpt>
      <trkpt lat="43.24895" lon="2.75761">
        <ele>38.2</ele>
        <time>2017-01-20T13:18:07Z</time>
      </trkpt>
      <trkpt lat="43.24895" lon="2.7576">
        <ele>38.5</ele>
        <time>2017-01-20T13:18:09Z</time>
      </trkpt>
      <trkpt lat="43.24895" lon="2.7576">
        <ele>38.5</ele>
        <time>2017-01-20T13:18:10Z</time>
      </trkpt>
      <trkpt lat="43.24895" lon="2.7576">
        <ele>38.6</ele>
        <time>2017-01-20T13:18:11Z</time>
      </trkpt>
      <trkpt lat="43.24895" lon="2.7576">
        <ele>38.7</ele>
        <time>2017-01-20T13:18:12Z</time>
      </trkpt>
      <trkpt lat="43.24895" lon="2.7576">
        <ele>38.7</ele>
        <time>2017-01-20T13:18:13Z</time>
      </trkpt>
      <trkpt lat="43.24895" lon="2.7576">
        <ele>38.9</ele>
        <time>2017-01-20T13:18:14Z</time>
      </trkpt>
      <trkpt lat="43.24895" lon="2.7576">
        <ele>39.1</ele>
        <time>2017-01-20T13:18:15Z</time>
      </trkpt>
      <trkpt lat="43.24896" lon="2.75758">
        <ele>39.2</ele>
        <time>2017-01-20T13:18:16Z</time>
      </trkpt>
      <trkpt lat="43.24902" lon="2.75751">
        <ele>38.5</ele>
        <time>2017-01-20T13:18:21Z</time>
      </trkpt>
      <trkpt lat="43.24902" lon="2.75751">
        <ele>38.4</ele>
        <time>2017-01-20T13:18:22Z</time>
      </trkpt>
      <trkpt lat="43.24902" lon="2.75751">
        <ele>38.3</ele>
        <time>2017-01-20T13:18:23Z</time>
      </trkpt>
      <trkpt lat="43.24902" lon="2.75751">
        <ele>38.2</ele>
        <time>2017-01-20T13:18:24Z</time>
      </trkpt>
      <trkpt lat="43.24902" lon="2.75751">
        <ele>38.2</ele>
        <time>2017-01-20T13:18:25Z</time>
      </trkpt>
      <trkpt lat="43.24902" lon="2.75751">
        <ele>38.7</ele>
        <time>2017-01-20T13:18:26Z</time>
      </trkpt>
      <trkpt lat="43.24905" lon="2.75747">
        <ele>39.2</ele>
        <time>2017-01-20T13:18:27Z</time>
      </trkpt>
      <trkpt lat="43.24912" lon="2.75741">
        <ele>39.2</ele>
        <time>2017-01-20T13:18:30Z</time>
      </trkpt>
      <trkpt lat="43.24918" lon="2.75737">
        <ele>39.2</ele>
        <time>2017-01-20T13:18:32Z</time>
      </trkpt>
      <trkpt lat="43.24954" lon="2.75721">
        <ele>40.2</ele>
        <time>2017-01-20T13:18:43Z</time>
      </trkpt>
      <trkpt lat="43.2496" lon="2.75719">
        <ele>39.9</ele>
        <time>2017-01-20T13:18:46Z</time>
      </trkpt>
      <trkpt lat="43.24961" lon="2.75718">
        <ele>39.8</ele>
        <time>2017-01-20T13:18:47Z</time>
      </trkpt>
      <trkpt lat="43.24961" lon="2.75718">
        <ele>39.7</ele>
        <time>2017-01-20T13:18:51Z</time>
      </trkpt>
      <trkpt lat="43.24961" lon="2.75718">
        <ele>39.7</ele>
        <time>2017-01-20T13:18:52Z</time>
      </trkpt>
      <trkpt lat="43.24961" lon="2.75718">
        <ele>39.5</ele>
        <time>2017-01-20T13:18:53Z</time>
      </trkpt>
      <trkpt lat="43.24961" lon="2.75718">
        <ele>39.3</ele>
        <time>2017-01-20T13:18:54Z</time>
      </trkpt>
      <trkpt lat="43.24961" lon="2.75718">
        <ele>39.2</ele>
        <time>2017-01-20T13:18:55Z</time>
      </trkpt>
      <trkpt lat="43.24961" lon="2.75718">
        <ele>39.3</ele>
        <time>2017-01-20T13:18:56Z</time>
      </trkpt>
      <trkpt lat="43.24961" lon="2.75718">
        <ele>39.4</ele>
        <time>2017-01-20T13:18:57Z</time>
      </trkpt>
      <trkpt lat="43.24963" lon="2.75715">
        <ele>39.4</ele>
        <time>2017-01-20T13:18:58Z</time>
      </trkpt>
      <trkpt lat="43.24963" lon="2.75713">
        <ele>39.7</ele>
        <time>2017-01-20T13:18:59Z</time>
      </trkpt>
      <trkpt lat="43.24964" lon="2.75707">
        <ele>40</ele>
        <time>2017-01-20T13:19:01Z</time>
      </trkpt>
      <trkpt lat="43.24966" lon="2.75705">
        <ele>39.9</ele>
        <time>2017-01-20T13:19:02Z</time>
      </trkpt>
      <trkpt lat="43.25002" lon="2.7567">
        <ele>36.7</ele>
        <time>2017-01-20T13:19:16Z</time>
      </trkpt>
      <trkpt lat="43.25002" lon="2.7567">
        <ele>37.4</ele>
        <time>2017-01-20T13:19:17Z</time>
      </trkpt>
      <trkpt lat="43.25002" lon="2.7567">
        <ele>38</ele>
        <time>2017-01-20T13:19:18Z</time>
      </trkpt>
      <trkpt lat="43.25002" lon="2.7567">
        <ele>38.4</ele>
        <time>2017-01-20T13:19:19Z</time>
      </trkpt>
      <trkpt lat="43.25002" lon="2.7567">
        <ele>38.7</ele>
        <time>2017-01-20T13:19:20Z</time>
      </trkpt>
      <trkpt lat="43.25005" lon="2.75666">
        <ele>38.9</ele>
        <time>2017-01-20T13:19:21Z</time>
      </trkpt>
      <trkpt lat="43.25006" lon="2.75663">
        <ele>39.2</ele>
        <time>2017-01-20T13:19:23Z</time>
      </trkpt>
      <trkpt lat="43.25006" lon="2.75661">
        <ele>39.3</ele>
        <time>2017-01-20T13:19:24Z</time>
      </trkpt>
      <trkpt lat="43.25009" lon="2.75659">
        <ele>39.7</ele>
        <time>2017-01-20T13:19:26Z</time>
      </trkpt>
      <trkpt lat="43.25012" lon="2.7566">
        <ele>39.9</ele>
        <time>2017-01-20T13:19:27Z</time>
      </trkpt>
      <trkpt lat="43.25024" lon="2.75662">
        <ele>40.1</ele>
        <time>2017-01-20T13:19:33Z</time>
      </trkpt>
      <trkpt lat="43.25047" lon="2.75662">
        <ele>42.1</ele>
        <time>2017-01-20T13:19:42Z</time>
      </trkpt>
      <trkpt lat="43.2505" lon="2.75662">
        <ele>42.1</ele>
        <time>2017-01-20T13:19:43Z</time>
      </trkpt>
      <trkpt lat="43.25055" lon="2.75662">
        <ele>42.8</ele>
        <time>2017-01-20T13:19:45Z</time>
      </trkpt>
      <trkpt lat="43.25058" lon="2.75663">
        <ele>43</ele>
        <time>2017-01-20T13:19:46Z</time>
      </trkpt>
      <trkpt lat="43.25062" lon="2.75663">
        <ele>43.4</ele>
        <time>2017-01-20T13:19:48Z</time>
      </trkpt>
      <trkpt lat="43.25064" lon="2.75662">
        <ele>43.5</ele>
        <time>2017-01-20T13:19:49Z</time>
      </trkpt>
      <trkpt lat="43.25068" lon="2.75658">
        <ele>43.6</ele>
        <time>2017-01-20T13:19:51Z</time>
      </trkpt>
      <trkpt lat="43.2507" lon="2.75656">
        <ele>43.6</ele>
        <time>2017-01-20T13:19:52Z</time>
      </trkpt>
      <trkpt lat="43.25072" lon="2.75655">
        <ele>43.7</ele>
        <time>2017-01-20T13:19:53Z</time>
      </trkpt>
      <trkpt lat="43.25075" lon="2.75655">
        <ele>43.7</ele>
        <time>2017-01-20T13:19:54Z</time>
      </trkpt>
      <trkpt lat="43.25077" lon="2.75655">
        <ele>43.7</ele>
        <time>2017-01-20T13:19:55Z</time>
      </trkpt>
      <trkpt lat="43.25079" lon="2.75654">
        <ele>43.7</ele>
        <time>2017-01-20T13:19:57Z</time>
      </trkpt>
      <trkpt lat="43.2508" lon="2.75654">
        <ele>43.7</ele>
        <time>2017-01-20T13:19:58Z</time>
      </trkpt>
      <trkpt lat="43.2508" lon="2.75654">
        <ele>43.9</ele>
        <time>2017-01-20T13:19:59Z</time>
      </trkpt>
      <trkpt lat="43.2508" lon="2.75654">
        <ele>44.1</ele>
        <time>2017-01-20T13:20:00Z</time>
      </trkpt>
      <trkpt lat="43.2508" lon="2.75654">
        <ele>44.2</ele>
        <time>2017-01-20T13:20:01Z</time>
      </trkpt>
      <trkpt lat="43.2508" lon="2.75654">
        <ele>44.1</ele>
        <time>2017-01-20T13:20:02Z</time>
      </trkpt>
      <trkpt lat="43.2508" lon="2.75654">
        <ele>44</ele>
        <time>2017-01-20T13:20:03Z</time>
      </trkpt>
      <trkpt lat="43.2508" lon="2.75654">
        <ele>44</ele>
        <time>2017-01-20T13:20:04Z</time>
      </trkpt>
      <trkpt lat="43.2508" lon="2.75654">
        <ele>43.9</ele>
        <time>2017-01-20T13:20:05Z</time>
      </trkpt>
      <trkpt lat="43.2508" lon="2.75654">
        <ele>43.9</ele>
        <time>2017-01-20T13:20:06Z</time>
      </trkpt>
      <trkpt lat="43.2508" lon="2.75654">
        <ele>43.8</ele>
        <time>2017-01-20T13:20:07Z</time>
      </trkpt>
      <trkpt lat="43.2508" lon="2.75654">
        <ele>43.6</ele>
        <time>2017-01-20T13:20:08Z</time>
      </trkpt>
      <trkpt lat="43.2508" lon="2.75654">
        <ele>43.4</ele>
        <time>2017-01-20T13:20:09Z</time>
      </trkpt>
      <trkpt lat="43.2508" lon="2.75654">
        <ele>43.3</ele>
        <time>2017-01-20T13:20:10Z</time>
      </trkpt>
      <trkpt lat="43.25082" lon="2.75652">
        <ele>43.6</ele>
        <time>2017-01-20T13:20:11Z</time>
      </trkpt>
      <trkpt lat="43.25119" lon="2.75624">
        <ele>44.4</ele>
        <time>2017-01-20T13:20:27Z</time>
      </trkpt>
      <trkpt lat="43.2512" lon="2.75624">
        <ele>44.4</ele>
        <time>2017-01-20T13:20:28Z</time>
      </trkpt>
      <trkpt lat="43.2512" lon="2.75624">
        <ele>44.2</ele>
        <time>2017-01-20T13:20:29Z</time>
      </trkpt>
      <trkpt lat="43.2512" lon="2.75624">
        <ele>44.1</ele>
        <time>2017-01-20T13:20:30Z</time>
      </trkpt>
      <trkpt lat="43.2512" lon="2.75624">
        <ele>44</ele>
        <time>2017-01-20T13:20:31Z</time>
      </trkpt>
      <trkpt lat="43.2512" lon="2.75624">
        <ele>43.8</ele>
        <time>2017-01-20T13:20:32Z</time>
      </trkpt>
      <trkpt lat="43.2512" lon="2.75624">
        <ele>43.6</ele>
        <time>2017-01-20T13:20:33Z</time>
      </trkpt>
      <trkpt lat="43.2512" lon="2.75624">
        <ele>43.4</ele>
        <time>2017-01-20T13:20:34Z</time>
      </trkpt>
      <trkpt lat="43.2512" lon="2.75624">
        <ele>43.5</ele>
        <time>2017-01-20T13:20:35Z</time>
      </trkpt>
      <trkpt lat="43.2512" lon="2.75624">
        <ele>43.6</ele>
        <time>2017-01-20T13:20:36Z</time>
      </trkpt>
      <trkpt lat="43.2512" lon="2.75624">
        <ele>43.6</ele>
        <time>2017-01-20T13:20:37Z</time>
      </trkpt>
      <trkpt lat="43.2512" lon="2.75624">
        <ele>43.6</ele>
        <time>2017-01-20T13:20:38Z</time>
      </trkpt>
      <trkpt lat="43.2512" lon="2.75624">
        <ele>43.7</ele>
        <time>2017-01-20T13:20:39Z</time>
      </trkpt>
      <trkpt lat="43.2512" lon="2.75624">
        <ele>43.7</ele>
        <time>2017-01-20T13:20:40Z</time>
      </trkpt>
      <trkpt lat="43.2512" lon="2.75624">
        <ele>43.7</ele>
        <time>2017-01-20T13:20:41Z</time>
      </trkpt>
      <trkpt lat="43.2512" lon="2.75624">
        <ele>43.7</ele>
        <time>2017-01-20T13:20:42Z</time>
      </trkpt>
      <trkpt lat="43.2512" lon="2.75624">
        <ele>43.7</ele>
        <time>2017-01-20T13:20:43Z</time>
      </trkpt>
      <trkpt lat="43.2512" lon="2.75624">
        <ele>43.9</ele>
        <time>2017-01-20T13:20:44Z</time>
      </trkpt>
      <trkpt lat="43.2512" lon="2.75624">
        <ele>44.1</ele>
        <time>2017-01-20T13:20:45Z</time>
      </trkpt>
      <trkpt lat="43.2512" lon="2.75624">
        <ele>44.2</ele>
        <time>2017-01-20T13:20:46Z</time>
      </trkpt>
      <trkpt lat="43.2512" lon="2.75624">
        <ele>44.1</ele>
        <time>2017-01-20T13:20:47Z</time>
      </trkpt>
      <trkpt lat="43.25121" lon="2.75623">
        <ele>44</ele>
        <time>2017-01-20T13:20:48Z</time>
      </trkpt>
      <trkpt lat="43.25123" lon="2.75622">
        <ele>43.9</ele>
        <time>2017-01-20T13:20:50Z</time>
      </trkpt>
      <trkpt lat="43.25125" lon="2.75623">
        <ele>43.9</ele>
        <time>2017-01-20T13:20:51Z</time>
      </trkpt>
      <trkpt lat="43.25127" lon="2.75623">
        <ele>43.8</ele>
        <time>2017-01-20T13:20:52Z</time>
      </trkpt>
      <trkpt lat="43.25129" lon="2.75622">
        <ele>44</ele>
        <time>2017-01-20T13:20:53Z</time>
      </trkpt>
      <trkpt lat="43.25134" lon="2.7562">
        <ele>44.3</ele>
        <time>2017-01-20T13:20:55Z</time>
      </trkpt>
      <trkpt lat="43.25176" lon="2.75592">
        <ele>43.7</ele>
        <time>2017-01-20T13:21:08Z</time>
      </trkpt>
      <trkpt lat="43.2521" lon="2.75564">
        <ele>43.9</ele>
        <time>2017-01-20T13:21:34Z</time>
      </trkpt>
      <trkpt lat="43.2521" lon="2.75564">
        <ele>43.9</ele>
        <time>2017-01-20T13:21:35Z</time>
      </trkpt>
      <trkpt lat="43.2521" lon="2.75564">
        <ele>43.8</ele>
        <time>2017-01-20T13:21:36Z</time>
      </trkpt>
      <trkpt lat="43.2521" lon="2.75564">
        <ele>43.8</ele>
        <time>2017-01-20T13:21:37Z</time>
      </trkpt>
      <trkpt lat="43.2521" lon="2.75564">
        <ele>43.8</ele>
        <time>2017-01-20T13:21:38Z</time>
      </trkpt>
      <trkpt lat="43.2521" lon="2.75564">
        <ele>43.8</ele>
        <time>2017-01-20T13:21:39Z</time>
      </trkpt>
      <trkpt lat="43.2521" lon="2.75564">
        <ele>43.8</ele>
        <time>2017-01-20T13:21:40Z</time>
      </trkpt>
      <trkpt lat="43.2521" lon="2.75564">
        <ele>43.8</ele>
        <time>2017-01-20T13:21:41Z</time>
      </trkpt>
      <trkpt lat="43.2521" lon="2.75564">
        <ele>43.8</ele>
        <time>2017-01-20T13:21:42Z</time>
      </trkpt>
      <trkpt lat="43.2521" lon="2.75564">
        <ele>43.8</ele>
        <time>2017-01-20T13:21:43Z</time>
      </trkpt>
      <trkpt lat="43.25213" lon="2.75563">
        <ele>43.8</ele>
        <time>2017-01-20T13:21:44Z</time>
      </trkpt>
      <trkpt lat="43.25215" lon="2.75562">
        <ele>43.8</ele>
        <time>2017-01-20T13:21:45Z</time>
      </trkpt>
      <trkpt lat="43.25217" lon="2.75561">
        <ele>43.8</ele>
        <time>2017-01-20T13:21:46Z</time>
      </trkpt>
      <trkpt lat="43.25247" lon="2.75545">
        <ele>43.9</ele>
        <time>2017-01-20T13:21:54Z</time>
      </trkpt>
      <trkpt lat="43.25251" lon="2.75543">
        <ele>43.8</ele>
        <time>2017-01-20T13:21:55Z</time>
      </trkpt>
      <trkpt lat="43.25396" lon="2.75445">
        <ele>44.2</ele>
        <time>2017-01-20T13:22:36Z</time>
      </trkpt>
      <trkpt lat="43.25397" lon="2.75445">
        <ele>43.8</ele>
        <time>2017-01-20T13:22:38Z</time>
      </trkpt>
      <trkpt lat="43.25397" lon="2.75445">
        <ele>43.6</ele>
        <time>2017-01-20T13:22:39Z</time>
      </trkpt>
      <trkpt lat="43.25397" lon="2.75445">
        <ele>43.4</ele>
        <time>2017-01-20T13:22:40Z</time>
      </trkpt>
      <trkpt lat="43.25397" lon="2.75445">
        <ele>43.5</ele>
        <time>2017-01-20T13:22:41Z</time>
      </trkpt>
      <trkpt lat="43.25397" lon="2.75445">
        <ele>43.6</ele>
        <time>2017-01-20T13:22:42Z</time>
      </trkpt>
      <trkpt lat="43.25397" lon="2.75445">
        <ele>43.6</ele>
        <time>2017-01-20T13:22:43Z</time>
      </trkpt>
      <trkpt lat="43.25397" lon="2.75445">
        <ele>43.6</ele>
        <time>2017-01-20T13:22:44Z</time>
      </trkpt>
      <trkpt lat="43.25397" lon="2.75445">
        <ele>43.7</ele>
        <time>2017-01-20T13:22:45Z</time>
      </trkpt>
      <trkpt lat="43.25397" lon="2.75445">
        <ele>43.7</ele>
        <time>2017-01-20T13:22:46Z</time>
      </trkpt>
      <trkpt lat="43.25397" lon="2.75445">
        <ele>43.7</ele>
        <time>2017-01-20T13:22:47Z</time>
      </trkpt>
      <trkpt lat="43.25397" lon="2.75445">
        <ele>43.7</ele>
        <time>2017-01-20T13:22:48Z</time>
      </trkpt>
      <trkpt lat="43.25397" lon="2.75445">
        <ele>43.7</ele>
        <time>2017-01-20T13:22:49Z</time>
      </trkpt>
      <trkpt lat="43.25397" lon="2.75445">
        <ele>43.9</ele>
        <time>2017-01-20T13:22:50Z</time>
      </trkpt>
      <trkpt lat="43.25397" lon="2.75445">
        <ele>44.1</ele>
        <time>2017-01-20T13:22:51Z</time>
      </trkpt>
      <trkpt lat="43.25397" lon="2.75445">
        <ele>44.2</ele>
        <time>2017-01-20T13:22:52Z</time>
      </trkpt>
      <trkpt lat="43.25397" lon="2.75445">
        <ele>44.5</ele>
        <time>2017-01-20T13:22:53Z</time>
      </trkpt>
      <trkpt lat="43.25397" lon="2.75445">
        <ele>44.7</ele>
        <time>2017-01-20T13:22:54Z</time>
      </trkpt>
      <trkpt lat="43.25397" lon="2.75445">
        <ele>44.9</ele>
        <time>2017-01-20T13:22:55Z</time>
      </trkpt>
      <trkpt lat="43.25397" lon="2.75445">
        <ele>45</ele>
        <time>2017-01-20T13:22:56Z</time>
      </trkpt>
      <trkpt lat="43.25397" lon="2.75445">
        <ele>45.1</ele>
        <time>2017-01-20T13:22:57Z</time>
      </trkpt>
      <trkpt lat="43.25397" lon="2.75445">
        <ele>45.2</ele>
        <time>2017-01-20T13:22:58Z</time>
      </trkpt>
      <trkpt lat="43.25397" lon="2.75445">
        <ele>45.3</ele>
        <time>2017-01-20T13:22:59Z</time>
      </trkpt>
      <trkpt lat="43.25397" lon="2.75445">
        <ele>45.3</ele>
        <time>2017-01-20T13:23:00Z</time>
      </trkpt>
      <trkpt lat="43.25397" lon="2.75445">
        <ele>45.3</ele>
        <time>2017-01-20T13:23:01Z</time>
      </trkpt>
      <trkpt lat="43.25397" lon="2.75445">
        <ele>45.1</ele>
        <time>2017-01-20T13:23:02Z</time>
      </trkpt>
      <trkpt lat="43.25393" lon="2.75444">
        <ele>45</ele>
        <time>2017-01-20T13:23:03Z</time>
      </trkpt>
      <trkpt lat="43.25391" lon="2.75445">
        <ele>44.9</ele>
        <time>2017-01-20T13:23:04Z</time>
      </trkpt>
      <trkpt lat="43.25143" lon="2.7561">
        <ele>45</ele>
        <time>2017-01-20T13:24:09Z</time>
      </trkpt>
      <trkpt lat="43.25143" lon="2.7561">
        <ele>44.9</ele>
        <time>2017-01-20T13:24:10Z</time>
      </trkpt>
      <trkpt lat="43.25142" lon="2.75605">
        <ele>44.4</ele>
        <time>2017-01-20T13:24:12Z</time>
      </trkpt>
      <trkpt lat="43.25143" lon="2.75602">
        <ele>44.4</ele>
        <time>2017-01-20T13:24:15Z</time>
      </trkpt>
      <trkpt lat="43.25143" lon="2.75601">
        <ele>44.4</ele>
        <time>2017-01-20T13:24:16Z</time>
      </trkpt>
      <trkpt lat="43.25144" lon="2.75599">
        <ele>44.5</ele>
        <time>2017-01-20T13:24:18Z</time>
      </trkpt>
      <trkpt lat="43.25145" lon="2.75596">
        <ele>44.5</ele>
        <time>2017-01-20T13:24:19Z</time>
      </trkpt>
      <trkpt lat="43.25168" lon="2.7556">
        <ele>43.7</ele>
        <time>2017-01-20T13:24:28Z</time>
      </trkpt>
      <trkpt lat="43.25181" lon="2.75544">
        <ele>43.7</ele>
        <time>2017-01-20T13:24:31Z</time>
      </trkpt>
      <trkpt lat="43.25239" lon="2.75485">
        <ele>42.3</ele>
        <time>2017-01-20T13:24:43Z</time>
      </trkpt>
      <trkpt lat="43.25316" lon="2.75422">
        <ele>41.4</ele>
        <time>2017-01-20T13:24:58Z</time>
      </trkpt>
      <trkpt lat="43.2535" lon="2.75401">
        <ele>40.1</ele>
        <time>2017-01-20T13:25:14Z</time>
      </trkpt>
      <trkpt lat="43.2535" lon="2.75401">
        <ele>40</ele>
        <time>2017-01-20T13:25:15Z</time>
      </trkpt>
      <trkpt lat="43.2535" lon="2.75401">
        <ele>39.9</ele>
        <time>2017-01-20T13:25:16Z</time>
      </trkpt>
      <trkpt lat="43.25352" lon="2.75399">
        <ele>40.2</ele>
        <time>2017-01-20T13:25:17Z</time>
      </trkpt>
      <trkpt lat="43.25354" lon="2.75398">
        <ele>40.5</ele>
        <time>2017-01-20T13:25:18Z</time>
      </trkpt>
      <trkpt lat="43.25825" lon="2.75067">
        <ele>42.9</ele>
        <time>2017-01-20T13:27:11Z</time>
      </trkpt>
      <trkpt lat="43.2583" lon="2.75062">
        <ele>43.1</ele>
        <time>2017-01-20T13:27:12Z</time>
      </trkpt>
      <trkpt lat="43.25916" lon="2.74977">
        <ele>43.1</ele>
        <time>2017-01-20T13:27:31Z</time>
      </trkpt>
      <trkpt lat="43.25921" lon="2.74974">
        <ele>43.1</ele>
        <time>2017-01-20T13:27:32Z</time>
      </trkpt>
      <trkpt lat="43.26218" lon="2.74821">
        <ele>44.6</ele>
        <time>2017-01-20T13:28:38Z</time>
      </trkpt>
      <trkpt lat="43.2622" lon="2.74818">
        <ele>44.4</ele>
        <time>2017-01-20T13:28:39Z</time>
      </trkpt>
      <trkpt lat="43.26222" lon="2.74815">
        <ele>44.2</ele>
        <time>2017-01-20T13:28:40Z</time>
      </trkpt>
      <trkpt lat="43.26229" lon="2.74802">
        <ele>44.9</ele>
        <time>2017-01-20T13:28:45Z</time>
      </trkpt>
      <trkpt lat="43.2623" lon="2.74802">
        <ele>45</ele>
        <time>2017-01-20T13:28:46Z</time>
      </trkpt>
      <trkpt lat="43.26231" lon="2.74803">
        <ele>44.9</ele>
        <time>2017-01-20T13:28:47Z</time>
      </trkpt>
      <trkpt lat="43.26231" lon="2.74803">
        <ele>44.7</ele>
        <time>2017-01-20T13:28:50Z</time>
      </trkpt>
      <trkpt lat="43.26233" lon="2.74806">
        <ele>44.7</ele>
        <time>2017-01-20T13:28:51Z</time>
      </trkpt>
      <trkpt lat="43.26233" lon="2.74807">
        <ele>44.7</ele>
        <time>2017-01-20T13:28:52Z</time>
      </trkpt>
      <trkpt lat="43.26232" lon="2.74809">
        <ele>44.8</ele>
        <time>2017-01-20T13:28:53Z</time>
      </trkpt>
      <trkpt lat="43.2623" lon="2.74814">
        <ele>45</ele>
        <time>2017-01-20T13:28:56Z</time>
      </trkpt>
      <trkpt lat="43.26229" lon="2.74816">
        <ele>44.9</ele>
        <time>2017-01-20T13:28:57Z</time>
      </trkpt>
      <trkpt lat="43.26228" lon="2.74818">
        <ele>45</ele>
        <time>2017-01-20T13:28:59Z</time>
      </trkpt>
      <trkpt lat="43.26228" lon="2.74818">
        <ele>45.1</ele>
        <time>2017-01-20T13:29:00Z</time>
      </trkpt>
      <trkpt lat="43.26228" lon="2.74818">
        <ele>45.2</ele>
        <time>2017-01-20T13:29:01Z</time>
      </trkpt>
      <trkpt lat="43.26228" lon="2.74818">
        <ele>45</ele>
        <time>2017-01-20T13:29:02Z</time>
      </trkpt>
      <trkpt lat="43.26228" lon="2.74818">
        <ele>44.9</ele>
        <time>2017-01-20T13:29:03Z</time>
      </trkpt>
      <trkpt lat="43.26228" lon="2.74818">
        <ele>44.8</ele>
        <time>2017-01-20T13:29:04Z</time>
      </trkpt>
      <trkpt lat="43.26228" lon="2.74818">
        <ele>44.8</ele>
        <time>2017-01-20T13:29:05Z</time>
      </trkpt>
      <trkpt lat="43.26228" lon="2.74818">
        <ele>44.7</ele>
        <time>2017-01-20T13:29:06Z</time>
      </trkpt>
      <trkpt lat="43.26228" lon="2.74818">
        <ele>44.7</ele>
        <time>2017-01-20T13:29:07Z</time>
      </trkpt>
      <trkpt lat="43.26228" lon="2.74818">
        <ele>44.7</ele>
        <time>2017-01-20T13:29:08Z</time>
      </trkpt>
      <trkpt lat="43.26228" lon="2.74818">
        <ele>44.6</ele>
        <time>2017-01-20T13:29:09Z</time>
      </trkpt>
      <trkpt lat="43.26228" lon="2.74818">
        <ele>44.6</ele>
        <time>2017-01-20T13:29:10Z</time>
      </trkpt>
      <trkpt lat="43.26228" lon="2.74818">
        <ele>44.6</ele>
        <time>2017-01-20T13:29:11Z</time>
      </trkpt>
      <trkpt lat="43.26228" lon="2.74818">
        <ele>44.6</ele>
        <time>2017-01-20T13:29:12Z</time>
      </trkpt>
      <trkpt lat="43.26228" lon="2.74818">
        <ele>44.6</ele>
        <time>2017-01-20T13:29:13Z</time>
      </trkpt>
      <trkpt lat="43.26228" lon="2.74818">
        <ele>44.8</ele>
        <time>2017-01-20T13:29:14Z</time>
      </trkpt>
      <trkpt lat="43.26228" lon="2.74818">
        <ele>45</ele>
        <time>2017-01-20T13:29:15Z</time>
      </trkpt>
      <trkpt lat="43.26228" lon="2.74818">
        <ele>45.1</ele>
        <time>2017-01-20T13:29:16Z</time>
      </trkpt>
      <trkpt lat="43.26228" lon="2.74818">
        <ele>45.2</ele>
        <time>2017-01-20T13:29:17Z</time>
      </trkpt>
      <trkpt lat="43.26228" lon="2.74818">
        <ele>45.2</ele>
        <time>2017-01-20T13:29:18Z</time>
      </trkpt>
      <trkpt lat="43.26228" lon="2.74818">
        <ele>45.3</ele>
        <time>2017-01-20T13:29:19Z</time>
      </trkpt>
      <trkpt lat="43.26228" lon="2.74818">
        <ele>44.9</ele>
        <time>2017-01-20T13:29:20Z</time>
      </trkpt>
      <trkpt lat="43.26228" lon="2.74818">
        <ele>44.6</ele>
        <time>2017-01-20T13:29:21Z</time>
      </trkpt>
      <trkpt lat="43.26228" lon="2.74818">
        <ele>44.4</ele>
        <time>2017-01-20T13:29:22Z</time>
      </trkpt>
      <trkpt lat="43.26228" lon="2.74818">
        <ele>44.2</ele>
        <time>2017-01-20T13:29:23Z</time>
      </trkpt>
      <trkpt lat="43.26228" lon="2.74818">
        <ele>44.1</ele>
        <time>2017-01-20T13:29:24Z</time>
      </trkpt>
      <trkpt lat="43.26228" lon="2.74818">
        <ele>44</ele>
        <time>2017-01-20T13:29:25Z</time>
      </trkpt>
      <trkpt lat="43.26228" lon="2.74818">
        <ele>44</ele>
        <time>2017-01-20T13:29:26Z</time>
      </trkpt>
      <trkpt lat="43.26228" lon="2.74818">
        <ele>43.9</ele>
        <time>2017-01-20T13:29:27Z</time>
      </trkpt>
      <trkpt lat="43.26228" lon="2.74818">
        <ele>43.9</ele>
        <time>2017-01-20T13:29:28Z</time>
      </trkpt>
      <trkpt lat="43.26228" lon="2.74818">
        <ele>44</ele>
        <time>2017-01-20T13:29:29Z</time>
      </trkpt>
      <trkpt lat="43.26228" lon="2.74814">
        <ele>44.2</ele>
        <time>2017-01-20T13:29:30Z</time>
      </trkpt>
      <trkpt lat="43.26228" lon="2.74813">
        <ele>44.3</ele>
        <time>2017-01-20T13:29:31Z</time>
      </trkpt>
      <trkpt lat="43.26229" lon="2.74811">
        <ele>44.2</ele>
        <time>2017-01-20T13:29:32Z</time>
      </trkpt>
      <trkpt lat="43.2623" lon="2.74808">
        <ele>44</ele>
        <time>2017-01-20T13:29:34Z</time>
      </trkpt>
      <trkpt lat="43.2623" lon="2.74806">
        <ele>43.9</ele>
        <time>2017-01-20T13:29:35Z</time>
      </trkpt>
      <trkpt lat="43.26229" lon="2.74802">
        <ele>43.8</ele>
        <time>2017-01-20T13:29:39Z</time>
      </trkpt>
      <trkpt lat="43.26228" lon="2.748">
        <ele>43.8</ele>
        <time>2017-01-20T13:29:40Z</time>
      </trkpt>
      <trkpt lat="43.26227" lon="2.74796">
        <ele>44.1</ele>
        <time>2017-01-20T13:29:42Z</time>
      </trkpt>
      <trkpt lat="43.26227" lon="2.74794">
        <ele>44.3</ele>
        <time>2017-01-20T13:29:43Z</time>
      </trkpt>
      <trkpt lat="43.26228" lon="2.74792">
        <ele>44.3</ele>
        <time>2017-01-20T13:29:44Z</time>
      </trkpt>
      <trkpt lat="43.26229" lon="2.74791">
        <ele>44.4</ele>
        <time>2017-01-20T13:29:45Z</time>
      </trkpt>
      <trkpt lat="43.2623" lon="2.74791">
        <ele>44.4</ele>
        <time>2017-01-20T13:29:46Z</time>
      </trkpt>
      <trkpt lat="43.26233" lon="2.74789">
        <ele>44.3</ele>
        <time>2017-01-20T13:29:50Z</time>
      </trkpt>
      <trkpt lat="43.26236" lon="2.74788">
        <ele>44</ele>
        <time>2017-01-20T13:29:53Z</time>
      </trkpt>
      <trkpt lat="43.26237" lon="2.74788">
        <ele>43.9</ele>
        <time>2017-01-20T13:29:54Z</time>
      </trkpt>
      <trkpt lat="43.26238" lon="2.74789">
        <ele>43.9</ele>
        <time>2017-01-20T13:29:55Z</time>
      </trkpt>
      <trkpt lat="43.26239" lon="2.7479">
        <ele>43.8</ele>
        <time>2017-01-20T13:29:57Z</time>
      </trkpt>
      <trkpt lat="43.26239" lon="2.7479">
        <ele>43.8</ele>
        <time>2017-01-20T13:29:58Z</time>
      </trkpt>
      <trkpt lat="43.26239" lon="2.7479">
        <ele>44</ele>
        <time>2017-01-20T13:29:59Z</time>
      </trkpt>
      <trkpt lat="43.26239" lon="2.7479">
        <ele>44.2</ele>
        <time>2017-01-20T13:30:00Z</time>
      </trkpt>
      <trkpt lat="43.26239" lon="2.7479">
        <ele>44.3</ele>
        <time>2017-01-20T13:30:01Z</time>
      </trkpt>
      <trkpt lat="43.26239" lon="2.7479">
        <ele>44.1</ele>
        <time>2017-01-20T13:30:02Z</time>
      </trkpt>
      <trkpt lat="43.26239" lon="2.7479">
        <ele>44</ele>
        <time>2017-01-20T13:30:03Z</time>
      </trkpt>
      <trkpt lat="43.26239" lon="2.7479">
        <ele>44</ele>
        <time>2017-01-20T13:30:04Z</time>
      </trkpt>
      <trkpt lat="43.26239" lon="2.7479">
        <ele>43.9</ele>
        <time>2017-01-20T13:30:05Z</time>
      </trkpt>
      <trkpt lat="43.26239" lon="2.7479">
        <ele>43.9</ele>
        <time>2017-01-20T13:30:06Z</time>
      </trkpt>
      <trkpt lat="43.26239" lon="2.7479">
        <ele>43.8</ele>
        <time>2017-01-20T13:30:07Z</time>
      </trkpt>
      <trkpt lat="43.26239" lon="2.7479">
        <ele>44.2</ele>
        <time>2017-01-20T13:30:08Z</time>
      </trkpt>
      <trkpt lat="43.26239" lon="2.7479">
        <ele>44.5</ele>
        <time>2017-01-20T13:30:09Z</time>
      </trkpt>
      <trkpt lat="43.26239" lon="2.7479">
        <ele>44.8</ele>
        <time>2017-01-20T13:30:10Z</time>
      </trkpt>
      <trkpt lat="43.26239" lon="2.7479">
        <ele>44.9</ele>
        <time>2017-01-20T13:30:11Z</time>
      </trkpt>
      <trkpt lat="43.26239" lon="2.7479">
        <ele>45</ele>
        <time>2017-01-20T13:30:12Z</time>
      </trkpt>
      <trkpt lat="43.26239" lon="2.7479">
        <ele>45.1</ele>
        <time>2017-01-20T13:30:13Z</time>
      </trkpt>
      <trkpt lat="43.26239" lon="2.7479">
        <ele>45.4</ele>
        <time>2017-01-20T13:30:14Z</time>
      </trkpt>
      <trkpt lat="43.26239" lon="2.7479">
        <ele>45.6</ele>
        <time>2017-01-20T13:30:15Z</time>
      </trkpt>
      <trkpt lat="43.26239" lon="2.7479">
        <ele>45.8</ele>
        <time>2017-01-20T13:30:16Z</time>
      </trkpt>
      <trkpt lat="43.26239" lon="2.7479">
        <ele>45.5</ele>
        <time>2017-01-20T13:30:17Z</time>
      </trkpt>
      <trkpt lat="43.26239" lon="2.7479">
        <ele>45.3</ele>
        <time>2017-01-20T13:30:18Z</time>
      </trkpt>
      <trkpt lat="43.26239" lon="2.7479">
        <ele>45.1</ele>
        <time>2017-01-20T13:30:19Z</time>
      </trkpt>
      <trkpt lat="43.26239" lon="2.7479">
        <ele>45</ele>
        <time>2017-01-20T13:30:20Z</time>
      </trkpt>
      <trkpt lat="43.26243" lon="2.74791">
        <ele>44.9</ele>
        <time>2017-01-20T13:30:21Z</time>
      </trkpt>
      <trkpt lat="43.26244" lon="2.7479">
        <ele>44.8</ele>
        <time>2017-01-20T13:30:22Z</time>
      </trkpt>
      <trkpt lat="43.26245" lon="2.74789">
        <ele>44.9</ele>
        <time>2017-01-20T13:30:23Z</time>
      </trkpt>
      <trkpt lat="43.26246" lon="2.74788">
        <ele>45.1</ele>
        <time>2017-01-20T13:30:24Z</time>
      </trkpt>
      <trkpt lat="43.26247" lon="2.74786">
        <ele>45.2</ele>
        <time>2017-01-20T13:30:25Z</time>
      </trkpt>
      <trkpt lat="43.26249" lon="2.74784">
        <ele>45.2</ele>
        <time>2017-01-20T13:30:26Z</time>
      </trkpt>
      <trkpt lat="43.26261" lon="2.74766">
        <ele>45.4</ele>
        <time>2017-01-20T13:30:31Z</time>
      </trkpt>
      <trkpt lat="43.26357" lon="2.7459">
        <ele>45.9</ele>
        <time>2017-01-20T13:31:05Z</time>
      </trkpt>
      <trkpt lat="43.2636" lon="2.74585">
        <ele>46</ele>
        <time>2017-01-20T13:31:06Z</time>
      </trkpt>
      <trkpt lat="43.26389" lon="2.74529">
        <ele>44.9</ele>
        <time>2017-01-20T13:31:25Z</time>
      </trkpt>
      <trkpt lat="43.26389" lon="2.74529">
        <ele>45.2</ele>
        <time>2017-01-20T13:31:26Z</time>
      </trkpt>
      <trkpt lat="43.26389" lon="2.74529">
        <ele>45.5</ele>
        <time>2017-01-20T13:31:27Z</time>
      </trkpt>
      <trkpt lat="43.26392" lon="2.74526">
        <ele>45.7</ele>
        <time>2017-01-20T13:31:28Z</time>
      </trkpt>
      <trkpt lat="43.264" lon="2.74513">
        <ele>45.1</ele>
        <time>2017-01-20T13:31:33Z</time>
      </trkpt>
      <trkpt lat="43.26559" lon="2.74222">
        <ele>47</ele>
        <time>2017-01-20T13:32:39Z</time>
      </trkpt>
      <trkpt lat="43.26559" lon="2.74222">
        <ele>47</ele>
        <time>2017-01-20T13:32:40Z</time>
      </trkpt>
      <trkpt lat="43.26559" lon="2.74222">
        <ele>45.7</ele>
        <time>2017-01-20T13:32:46Z</time>
      </trkpt>
      <trkpt lat="43.26559" lon="2.74222">
        <ele>45.8</ele>
        <time>2017-01-20T13:32:47Z</time>
      </trkpt>
      <trkpt lat="43.26561" lon="2.74219">
        <ele>45.9</ele>
        <time>2017-01-20T13:32:48Z</time>
      </trkpt>
      <trkpt lat="43.26604" lon="2.74139">
        <ele>46.4</ele>
        <time>2017-01-20T13:33:14Z</time>
      </trkpt>
      <trkpt lat="43.26604" lon="2.74137">
        <ele>46.6</ele>
        <time>2017-01-20T13:33:15Z</time>
      </trkpt>
      <trkpt lat="43.26604" lon="2.74134">
        <ele>46.5</ele>
        <time>2017-01-20T13:33:18Z</time>
      </trkpt>
      <trkpt lat="43.26604" lon="2.74134">
        <ele>46.4</ele>
        <time>2017-01-20T13:33:19Z</time>
      </trkpt>
      <trkpt lat="43.26604" lon="2.74134">
        <ele>46.6</ele>
        <time>2017-01-20T13:33:20Z</time>
      </trkpt>
      <trkpt lat="43.26604" lon="2.74134">
        <ele>46.7</ele>
        <time>2017-01-20T13:33:21Z</time>
      </trkpt>
      <trkpt lat="43.26604" lon="2.74134">
        <ele>46.8</ele>
        <time>2017-01-20T13:33:22Z</time>
      </trkpt>
      <trkpt lat="43.26604" lon="2.74134">
        <ele>47.1</ele>
        <time>2017-01-20T13:33:23Z</time>
      </trkpt>
      <trkpt lat="43.26604" lon="2.74134">
        <ele>47.3</ele>
        <time>2017-01-20T13:33:24Z</time>
      </trkpt>
      <trkpt lat="43.26604" lon="2.74134">
        <ele>47.4</ele>
        <time>2017-01-20T13:33:25Z</time>
      </trkpt>
      <trkpt lat="43.26604" lon="2.74134">
        <ele>47.1</ele>
        <time>2017-01-20T13:33:26Z</time>
      </trkpt>
      <trkpt lat="43.26604" lon="2.74134">
        <ele>46.9</ele>
        <time>2017-01-20T13:33:27Z</time>
      </trkpt>
      <trkpt lat="43.26604" lon="2.74134">
        <ele>46.7</ele>
        <time>2017-01-20T13:33:28Z</time>
      </trkpt>
      <trkpt lat="43.26604" lon="2.74134">
        <ele>47</ele>
        <time>2017-01-20T13:33:29Z</time>
      </trkpt>
      <trkpt lat="43.26604" lon="2.74134">
        <ele>47.2</ele>
        <time>2017-01-20T13:33:30Z</time>
      </trkpt>
      <trkpt lat="43.26604" lon="2.74134">
        <ele>47.4</ele>
        <time>2017-01-20T13:33:31Z</time>
      </trkpt>
      <trkpt lat="43.26604" lon="2.74134">
        <ele>47.1</ele>
        <time>2017-01-20T13:33:32Z</time>
      </trkpt>
      <trkpt lat="43.26604" lon="2.74134">
        <ele>46.9</ele>
        <time>2017-01-20T13:33:33Z</time>
      </trkpt>
      <trkpt lat="43.26604" lon="2.74134">
        <ele>46.7</ele>
        <time>2017-01-20T13:33:34Z</time>
      </trkpt>
      <trkpt lat="43.26604" lon="2.74134">
        <ele>46.8</ele>
        <time>2017-01-20T13:33:35Z</time>
      </trkpt>
      <trkpt lat="43.26606" lon="2.74131">
        <ele>46.9</ele>
        <time>2017-01-20T13:33:36Z</time>
      </trkpt>
      <trkpt lat="43.26607" lon="2.74129">
        <ele>46.9</ele>
        <time>2017-01-20T13:33:37Z</time>
      </trkpt>
      <trkpt lat="43.26609" lon="2.74128">
        <ele>47</ele>
        <time>2017-01-20T13:33:38Z</time>
      </trkpt>
      <trkpt lat="43.26613" lon="2.74124">
        <ele>47</ele>
        <time>2017-01-20T13:33:40Z</time>
      </trkpt>
      <trkpt lat="43.26614" lon="2.74122">
        <ele>47</ele>
        <time>2017-01-20T13:33:41Z</time>
      </trkpt>
      <trkpt lat="43.26642" lon="2.74088">
        <ele>44.8</ele>
        <time>2017-01-20T13:34:06Z</time>
      </trkpt>
      <trkpt lat="43.26642" lon="2.74088">
        <ele>44.8</ele>
        <time>2017-01-20T13:34:07Z</time>
      </trkpt>
      <trkpt lat="43.26642" lon="2.74088">
        <ele>44.7</ele>
        <time>2017-01-20T13:34:08Z</time>
      </trkpt>
      <trkpt lat="43.26643" lon="2.74083">
        <ele>44.7</ele>
        <time>2017-01-20T13:34:09Z</time>
      </trkpt>
      <trkpt lat="43.26643" lon="2.74081">
        <ele>44.7</ele>
        <time>2017-01-20T13:34:10Z</time>
      </trkpt>
      <trkpt lat="43.26644" lon="2.74077">
        <ele>45.1</ele>
        <time>2017-01-20T13:34:11Z</time>
      </trkpt>
      <trkpt lat="43.2665" lon="2.74062">
        <ele>46</ele>
        <time>2017-01-20T13:34:17Z</time>
      </trkpt>
      <trkpt lat="43.26662" lon="2.7404">
        <ele>46.8</ele>
        <time>2017-01-20T13:34:24Z</time>
      </trkpt>
      <trkpt lat="43.26665" lon="2.74037">
        <ele>46.9</ele>
        <time>2017-01-20T13:34:25Z</time>
      </trkpt>
      <trkpt lat="43.26674" lon="2.74029">
        <ele>46</ele>
        <time>2017-01-20T13:34:45Z</time>
      </trkpt>
      <trkpt lat="43.26674" lon="2.74029">
        <ele>46</ele>
        <time>2017-01-20T13:34:46Z</time>
      </trkpt>
      <trkpt lat="43.26674" lon="2.74029">
        <ele>45.9</ele>
        <time>2017-01-20T13:34:47Z</time>
      </trkpt>
      <trkpt lat="43.26674" lon="2.74029">
        <ele>45.8</ele>
        <time>2017-01-20T13:34:48Z</time>
      </trkpt>
      <trkpt lat="43.26674" lon="2.74029">
        <ele>45.7</ele>
        <time>2017-01-20T13:34:49Z</time>
      </trkpt>
      <trkpt lat="43.26674" lon="2.74029">
        <ele>45.6</ele>
        <time>2017-01-20T13:34:50Z</time>
      </trkpt>
      <trkpt lat="43.26674" lon="2.74029">
        <ele>45.6</ele>
        <time>2017-01-20T13:34:51Z</time>
      </trkpt>
      <trkpt lat="43.26674" lon="2.74029">
        <ele>45.5</ele>
        <time>2017-01-20T13:34:52Z</time>
      </trkpt>
      <trkpt lat="43.26674" lon="2.74029">
        <ele>45.5</ele>
        <time>2017-01-20T13:34:53Z</time>
      </trkpt>
      <trkpt lat="43.26674" lon="2.74029">
        <ele>45.5</ele>
        <time>2017-01-20T13:34:54Z</time>
      </trkpt>
      <trkpt lat="43.26674" lon="2.74029">
        <ele>45.5</ele>
        <time>2017-01-20T13:34:55Z</time>
      </trkpt>
      <trkpt lat="43.26674" lon="2.74029">
        <ele>45.4</ele>
        <time>2017-01-20T13:34:56Z</time>
      </trkpt>
      <trkpt lat="43.26674" lon="2.74029">
        <ele>45.4</ele>
        <time>2017-01-20T13:34:57Z</time>
      </trkpt>
      <trkpt lat="43.26674" lon="2.74029">
        <ele>45.4</ele>
        <time>2017-01-20T13:34:58Z</time>
      </trkpt>
      <trkpt lat="43.26674" lon="2.74029">
        <ele>45.6</ele>
        <time>2017-01-20T13:34:59Z</time>
      </trkpt>
      <trkpt lat="43.26674" lon="2.74029">
        <ele>45.8</ele>
        <time>2017-01-20T13:35:00Z</time>
      </trkpt>
      <trkpt lat="43.26677" lon="2.74027">
        <ele>45.9</ele>
        <time>2017-01-20T13:35:01Z</time>
      </trkpt>
      <trkpt lat="43.26679" lon="2.74025">
        <ele>46</ele>
        <time>2017-01-20T13:35:02Z</time>
      </trkpt>
      <trkpt lat="43.26707" lon="2.74005">
        <ele>46.2</ele>
        <time>2017-01-20T13:35:11Z</time>
      </trkpt>
      <trkpt lat="43.26726" lon="2.73997">
        <ele>46.1</ele>
        <time>2017-01-20T13:35:16Z</time>
      </trkpt>
      <trkpt lat="43.26767" lon="2.73981">
        <ele>46.1</ele>
        <time>2017-01-20T13:35:27Z</time>
      </trkpt>
      <trkpt lat="43.26771" lon="2.73981">
        <ele>46.1</ele>
        <time>2017-01-20T13:35:28Z</time>
      </trkpt>
      <trkpt lat="43.26776" lon="2.7398">
        <ele>46.2</ele>
        <time>2017-01-20T13:35:31Z</time>
      </trkpt>
      <trkpt lat="43.26776" lon="2.7398">
        <ele>46</ele>
        <time>2017-01-20T13:35:32Z</time>
      </trkpt>
      <trkpt lat="43.26776" lon="2.7398">
        <ele>45.8</ele>
        <time>2017-01-20T13:35:33Z</time>
      </trkpt>
      <trkpt lat="43.26776" lon="2.7398">
        <ele>45.7</ele>
        <time>2017-01-20T13:35:34Z</time>
      </trkpt>
      <trkpt lat="43.26776" lon="2.7398">
        <ele>45.4</ele>
        <time>2017-01-20T13:35:35Z</time>
      </trkpt>
      <trkpt lat="43.26776" lon="2.7398">
        <ele>45.2</ele>
        <time>2017-01-20T13:35:36Z</time>
      </trkpt>
      <trkpt lat="43.26776" lon="2.7398">
        <ele>45.1</ele>
        <time>2017-01-20T13:35:37Z</time>
      </trkpt>
      <trkpt lat="43.26776" lon="2.7398">
        <ele>45.4</ele>
        <time>2017-01-20T13:35:38Z</time>
      </trkpt>
      <trkpt lat="43.26776" lon="2.7398">
        <ele>45.6</ele>
        <time>2017-01-20T13:35:39Z</time>
      </trkpt>
      <trkpt lat="43.26776" lon="2.7398">
        <ele>45.7</ele>
        <time>2017-01-20T13:35:40Z</time>
      </trkpt>
      <trkpt lat="43.26776" lon="2.7398">
        <ele>45.5</ele>
        <time>2017-01-20T13:35:41Z</time>
      </trkpt>
      <trkpt lat="43.26776" lon="2.7398">
        <ele>45.2</ele>
        <time>2017-01-20T13:35:42Z</time>
      </trkpt>
      <trkpt lat="43.26776" lon="2.7398">
        <ele>45.1</ele>
        <time>2017-01-20T13:35:43Z</time>
      </trkpt>
      <trkpt lat="43.26776" lon="2.7398">
        <ele>45</ele>
        <time>2017-01-20T13:35:44Z</time>
      </trkpt>
      <trkpt lat="43.26779" lon="2.73979">
        <ele>44.9</ele>
        <time>2017-01-20T13:35:45Z</time>
      </trkpt>
      <trkpt lat="43.26781" lon="2.73978">
        <ele>44.8</ele>
        <time>2017-01-20T13:35:46Z</time>
      </trkpt>
      <trkpt lat="43.26783" lon="2.73978">
        <ele>44.9</ele>
        <time>2017-01-20T13:35:47Z</time>
      </trkpt>
      <trkpt lat="43.26786" lon="2.73977">
        <ele>45.1</ele>
        <time>2017-01-20T13:35:48Z</time>
      </trkpt>
      <trkpt lat="43.26789" lon="2.73977">
        <ele>45.1</ele>
        <time>2017-01-20T13:35:49Z</time>
      </trkpt>
      <trkpt lat="43.26793" lon="2.73978">
        <ele>45.2</ele>
        <time>2017-01-20T13:35:50Z</time>
      </trkpt>
      <trkpt lat="43.26811" lon="2.73981">
        <ele>46.3</ele>
        <time>2017-01-20T13:35:55Z</time>
      </trkpt>
      <trkpt lat="43.26821" lon="2.73986">
        <ele>46.7</ele>
        <time>2017-01-20T13:35:58Z</time>
      </trkpt>
      <trkpt lat="43.26833" lon="2.7399">
        <ele>46.2</ele>
        <time>2017-01-20T13:36:02Z</time>
      </trkpt>
      <trkpt lat="43.26835" lon="2.73989">
        <ele>46</ele>
        <time>2017-01-20T13:36:03Z</time>
      </trkpt>
      <trkpt lat="43.26842" lon="2.73988">
        <ele>45.9</ele>
        <time>2017-01-20T13:36:09Z</time>
      </trkpt>
      <trkpt lat="43.26842" lon="2.73988">
        <ele>46</ele>
        <time>2017-01-20T13:36:10Z</time>
      </trkpt>
      <trkpt lat="43.26842" lon="2.73988">
        <ele>46</ele>
        <time>2017-01-20T13:36:11Z</time>
      </trkpt>
      <trkpt lat="43.26842" lon="2.73988">
        <ele>46.1</ele>
        <time>2017-01-20T13:36:12Z</time>
      </trkpt>
      <trkpt lat="43.26842" lon="2.73988">
        <ele>46.1</ele>
        <time>2017-01-20T13:36:13Z</time>
      </trkpt>
      <trkpt lat="43.26842" lon="2.73988">
        <ele>46.2</ele>
        <time>2017-01-20T13:36:14Z</time>
      </trkpt>
      <trkpt lat="43.26842" lon="2.73988">
        <ele>46.2</ele>
        <time>2017-01-20T13:36:15Z</time>
      </trkpt>
      <trkpt lat="43.26842" lon="2.73988">
        <ele>46.2</ele>
        <time>2017-01-20T13:36:16Z</time>
      </trkpt>
      <trkpt lat="43.26842" lon="2.73988">
        <ele>46.2</ele>
        <time>2017-01-20T13:36:17Z</time>
      </trkpt>
      <trkpt lat="43.26842" lon="2.73988">
        <ele>46.2</ele>
        <time>2017-01-20T13:36:18Z</time>
      </trkpt>
      <trkpt lat="43.26842" lon="2.73988">
        <ele>46.2</ele>
        <time>2017-01-20T13:36:19Z</time>
      </trkpt>
      <trkpt lat="43.26842" lon="2.73988">
        <ele>46.2</ele>
        <time>2017-01-20T13:36:20Z</time>
      </trkpt>
      <trkpt lat="43.26842" lon="2.73988">
        <ele>46.2</ele>
        <time>2017-01-20T13:36:21Z</time>
      </trkpt>
      <trkpt lat="43.26842" lon="2.73988">
        <ele>46.2</ele>
        <time>2017-01-20T13:36:22Z</time>
      </trkpt>
      <trkpt lat="43.26842" lon="2.73988">
        <ele>46.2</ele>
        <time>2017-01-20T13:36:23Z</time>
      </trkpt>
      <trkpt lat="43.26842" lon="2.73988">
        <ele>46.2</ele>
        <time>2017-01-20T13:36:24Z</time>
      </trkpt>
      <trkpt lat="43.26842" lon="2.73988">
        <ele>46.2</ele>
        <time>2017-01-20T13:36:25Z</time>
      </trkpt>
      <trkpt lat="43.26842" lon="2.73988">
        <ele>45.6</ele>
        <time>2017-01-20T13:36:26Z</time>
      </trkpt>
      <trkpt lat="43.26842" lon="2.73988">
        <ele>45.2</ele>
        <time>2017-01-20T13:36:27Z</time>
      </trkpt>
      <trkpt lat="43.26842" lon="2.73988">
        <ele>44.8</ele>
        <time>2017-01-20T13:36:28Z</time>
      </trkpt>
      <trkpt lat="43.26841" lon="2.73988">
        <ele>45.2</ele>
        <time>2017-01-20T13:36:29Z</time>
      </trkpt>
      <trkpt lat="43.2684" lon="2.73989">
        <ele>45.6</ele>
        <time>2017-01-20T13:36:31Z</time>
      </trkpt>
      <trkpt lat="43.2684" lon="2.73989">
        <ele>46</ele>
        <time>2017-01-20T13:36:32Z</time>
      </trkpt>
      <trkpt lat="43.26838" lon="2.73991">
        <ele>46.3</ele>
        <time>2017-01-20T13:36:33Z</time>
      </trkpt>
      <trkpt lat="43.26837" lon="2.73992">
        <ele>46.5</ele>
        <time>2017-01-20T13:36:34Z</time>
      </trkpt>
      <trkpt lat="43.26835" lon="2.73992">
        <ele>46.6</ele>
        <time>2017-01-20T13:36:35Z</time>
      </trkpt>
      <trkpt lat="43.26834" lon="2.73992">
        <ele>46.7</ele>
        <time>2017-01-20T13:36:36Z</time>
      </trkpt>
      <trkpt lat="43.26833" lon="2.73992">
        <ele>46.7</ele>
        <time>2017-01-20T13:36:38Z</time>
      </trkpt>
      <trkpt lat="43.26833" lon="2.73992">
        <ele>46.6</ele>
        <time>2017-01-20T13:36:39Z</time>
      </trkpt>
      <trkpt lat="43.26833" lon="2.73992">
        <ele>46.5</ele>
        <time>2017-01-20T13:36:40Z</time>
      </trkpt>
      <trkpt lat="43.26833" lon="2.73992">
        <ele>46.4</ele>
        <time>2017-01-20T13:36:41Z</time>
      </trkpt>
      <trkpt lat="43.26833" lon="2.73992">
        <ele>46.4</ele>
        <time>2017-01-20T13:36:42Z</time>
      </trkpt>
      <trkpt lat="43.26836" lon="2.73993">
        <ele>46.3</ele>
        <time>2017-01-20T13:36:43Z</time>
      </trkpt>
      <trkpt lat="43.26837" lon="2.73993">
        <ele>46.5</ele>
        <time>2017-01-20T13:36:44Z</time>
      </trkpt>
      <trkpt lat="43.26857" lon="2.73992">
        <ele>45.7</ele>
        <time>2017-01-20T13:36:52Z</time>
      </trkpt>
      <trkpt lat="43.2686" lon="2.73992">
        <ele>46</ele>
        <time>2017-01-20T13:36:53Z</time>
      </trkpt>
      <trkpt lat="43.26862" lon="2.73994">
        <ele>46.3</ele>
        <time>2017-01-20T13:36:54Z</time>
      </trkpt>
      <trkpt lat="43.26863" lon="2.73994">
        <ele>46.4</ele>
        <time>2017-01-20T13:36:56Z</time>
      </trkpt>
      <trkpt lat="43.26863" lon="2.73994">
        <ele>46.4</ele>
        <time>2017-01-20T13:36:57Z</time>
      </trkpt>
      <trkpt lat="43.26863" lon="2.73994">
        <ele>46.3</ele>
        <time>2017-01-20T13:36:58Z</time>
      </trkpt>
      <trkpt lat="43.26863" lon="2.73994">
        <ele>46.1</ele>
        <time>2017-01-20T13:36:59Z</time>
      </trkpt>
      <trkpt lat="43.26863" lon="2.73994">
        <ele>45.9</ele>
        <time>2017-01-20T13:37:00Z</time>
      </trkpt>
      <trkpt lat="43.26863" lon="2.73994">
        <ele>45.8</ele>
        <time>2017-01-20T13:37:01Z</time>
      </trkpt>
      <trkpt lat="43.26863" lon="2.73994">
        <ele>45.9</ele>
        <time>2017-01-20T13:37:02Z</time>
      </trkpt>
      <trkpt lat="43.26863" lon="2.73994">
        <ele>46</ele>
        <time>2017-01-20T13:37:03Z</time>
      </trkpt>
      <trkpt lat="43.26863" lon="2.73994">
        <ele>46.1</ele>
        <time>2017-01-20T13:37:04Z</time>
      </trkpt>
      <trkpt lat="43.26863" lon="2.73994">
        <ele>46.1</ele>
        <time>2017-01-20T13:37:05Z</time>
      </trkpt>
      <trkpt lat="43.26863" lon="2.73994">
        <ele>46.1</ele>
        <time>2017-01-20T13:37:06Z</time>
      </trkpt>
      <trkpt lat="43.26863" lon="2.73994">
        <ele>46.2</ele>
        <time>2017-01-20T13:37:07Z</time>
      </trkpt>
      <trkpt lat="43.26863" lon="2.73994">
        <ele>45.8</ele>
        <time>2017-01-20T13:37:08Z</time>
      </trkpt>
      <trkpt lat="43.26866" lon="2.73995">
        <ele>45.5</ele>
        <time>2017-01-20T13:37:09Z</time>
      </trkpt>
      <trkpt lat="43.26868" lon="2.73995">
        <ele>45.2</ele>
        <time>2017-01-20T13:37:10Z</time>
      </trkpt>
      <trkpt lat="43.26871" lon="2.73995">
        <ele>45.5</ele>
        <time>2017-01-20T13:37:11Z</time>
      </trkpt>
      <trkpt lat="43.26873" lon="2.73995">
        <ele>45.7</ele>
        <time>2017-01-20T13:37:12Z</time>
      </trkpt>
      <trkpt lat="43.26877" lon="2.73995">
        <ele>45.8</ele>
        <time>2017-01-20T13:37:13Z</time>
      </trkpt>
      <trkpt lat="43.26881" lon="2.73995">
        <ele>45.5</ele>
        <time>2017-01-20T13:37:14Z</time>
      </trkpt>
      <trkpt lat="43.26889" lon="2.73993">
        <ele>45.2</ele>
        <time>2017-01-20T13:37:17Z</time>
      </trkpt>
      <trkpt lat="43.2689" lon="2.73992">
        <ele>45.2</ele>
        <time>2017-01-20T13:37:18Z</time>
      </trkpt>
      <trkpt lat="43.2689" lon="2.73992">
        <ele>45.3</ele>
        <time>2017-01-20T13:37:19Z</time>
      </trkpt>
      <trkpt lat="43.2689" lon="2.73992">
        <ele>45.3</ele>
        <time>2017-01-20T13:37:20Z</time>
      </trkpt>
      <trkpt lat="43.2689" lon="2.73992">
        <ele>45.3</ele>
        <time>2017-01-20T13:37:21Z</time>
      </trkpt>
      <trkpt lat="43.26891" lon="2.73991">
        <ele>45.4</ele>
        <time>2017-01-20T13:37:22Z</time>
      </trkpt>
      <trkpt lat="43.2689" lon="2.73993">
        <ele>45.2</ele>
        <time>2017-01-20T13:37:23Z</time>
      </trkpt>
      <trkpt lat="43.2689" lon="2.73994">
        <ele>45</ele>
        <time>2017-01-20T13:37:24Z</time>
      </trkpt>
      <trkpt lat="43.26889" lon="2.73995">
        <ele>44.9</ele>
        <time>2017-01-20T13:37:25Z</time>
      </trkpt>
      <trkpt lat="43.26889" lon="2.73995">
        <ele>45</ele>
        <time>2017-01-20T13:37:26Z</time>
      </trkpt>
      <trkpt lat="43.26889" lon="2.73995">
        <ele>45.1</ele>
        <time>2017-01-20T13:37:27Z</time>
      </trkpt>
      <trkpt lat="43.26889" lon="2.73995">
        <ele>45.2</ele>
        <time>2017-01-20T13:37:28Z</time>
      </trkpt>
      <trkpt lat="43.26889" lon="2.73995">
        <ele>45.5</ele>
        <time>2017-01-20T13:37:29Z</time>
      </trkpt>
      <trkpt lat="43.26889" lon="2.73995">
        <ele>45.7</ele>
        <time>2017-01-20T13:37:30Z</time>
      </trkpt>
      <trkpt lat="43.26889" lon="2.73995">
        <ele>45.8</ele>
        <time>2017-01-20T13:37:31Z</time>
      </trkpt>
      <trkpt lat="43.26889" lon="2.73995">
        <ele>45.7</ele>
        <time>2017-01-20T13:37:32Z</time>
      </trkpt>
      <trkpt lat="43.26889" lon="2.73995">
        <ele>45.6</ele>
        <time>2017-01-20T13:37:33Z</time>
      </trkpt>
      <trkpt lat="43.26889" lon="2.73995">
        <ele>45.6</ele>
        <time>2017-01-20T13:37:34Z</time>
      </trkpt>
      <trkpt lat="43.26889" lon="2.73995">
        <ele>45.5</ele>
        <time>2017-01-20T13:37:35Z</time>
      </trkpt>
      <trkpt lat="43.26884" lon="2.73994">
        <ele>45.5</ele>
        <time>2017-01-20T13:37:36Z</time>
      </trkpt>
      <trkpt lat="43.26884" lon="2.73994">
        <ele>45.5</ele>
        <time>2017-01-20T13:37:37Z</time>
      </trkpt>
      <trkpt lat="43.26885" lon="2.73992">
        <ele>45.5</ele>
        <time>2017-01-20T13:37:38Z</time>
      </trkpt>
      <trkpt lat="43.26885" lon="2.73992">
        <ele>45.4</ele>
        <time>2017-01-20T13:37:39Z</time>
      </trkpt>
      <trkpt lat="43.26887" lon="2.73991">
        <ele>45.4</ele>
        <time>2017-01-20T13:37:40Z</time>
      </trkpt>
      <trkpt lat="43.26889" lon="2.73992">
        <ele>45.8</ele>
        <time>2017-01-20T13:37:41Z</time>
      </trkpt>
      <trkpt lat="43.26892" lon="2.73993">
        <ele>46.1</ele>
        <time>2017-01-20T13:37:42Z</time>
      </trkpt>
      <trkpt lat="43.26896" lon="2.73993">
        <ele>46.3</ele>
        <time>2017-01-20T13:37:44Z</time>
      </trkpt>
      <trkpt lat="43.26899" lon="2.73993">
        <ele>46.3</ele>
        <time>2017-01-20T13:37:45Z</time>
      </trkpt>
      <trkpt lat="43.26907" lon="2.73989">
        <ele>46.3</ele>
        <time>2017-01-20T13:37:48Z</time>
      </trkpt>
      <trkpt lat="43.26919" lon="2.73982">
        <ele>46.2</ele>
        <time>2017-01-20T13:37:52Z</time>
      </trkpt>
      <trkpt lat="43.26933" lon="2.73969">
        <ele>45.6</ele>
        <time>2017-01-20T13:37:57Z</time>
      </trkpt>
      <trkpt lat="43.26936" lon="2.73966">
        <ele>45.6</ele>
        <time>2017-01-20T13:37:58Z</time>
      </trkpt>
      <trkpt lat="43.26944" lon="2.73953">
        <ele>45.5</ele>
        <time>2017-01-20T13:38:02Z</time>
      </trkpt>
      <trkpt lat="43.26946" lon="2.73945">
        <ele>45.4</ele>
        <time>2017-01-20T13:38:04Z</time>
      </trkpt>
      <trkpt lat="43.26949" lon="2.73934">
        <ele>45.4</ele>
        <time>2017-01-20T13:38:07Z</time>
      </trkpt>
      <trkpt lat="43.26949" lon="2.73931">
        <ele>45.4</ele>
        <time>2017-01-20T13:38:08Z</time>
      </trkpt>
      <trkpt lat="43.2695" lon="2.73926">
        <ele>45.4</ele>
        <time>2017-01-20T13:38:10Z</time>
      </trkpt>
      <trkpt lat="43.2695" lon="2.73924">
        <ele>45.2</ele>
        <time>2017-01-20T13:38:11Z</time>
      </trkpt>
      <trkpt lat="43.26951" lon="2.7392">
        <ele>45.5</ele>
        <time>2017-01-20T13:38:14Z</time>
      </trkpt>
      <trkpt lat="43.26951" lon="2.7392">
        <ele>45.9</ele>
        <time>2017-01-20T13:38:15Z</time>
      </trkpt>
      <trkpt lat="43.26951" lon="2.7392">
        <ele>46.2</ele>
        <time>2017-01-20T13:38:16Z</time>
      </trkpt>
      <trkpt lat="43.26951" lon="2.7392">
        <ele>46</ele>
        <time>2017-01-20T13:38:17Z</time>
      </trkpt>
      <trkpt lat="43.26951" lon="2.7392">
        <ele>45.8</ele>
        <time>2017-01-20T13:38:18Z</time>
      </trkpt>
      <trkpt lat="43.26951" lon="2.7392">
        <ele>45.7</ele>
        <time>2017-01-20T13:38:19Z</time>
      </trkpt>
      <trkpt lat="43.26951" lon="2.7392">
        <ele>45.2</ele>
        <time>2017-01-20T13:38:20Z</time>
      </trkpt>
      <trkpt lat="43.26951" lon="2.7392">
        <ele>44.9</ele>
        <time>2017-01-20T13:38:21Z</time>
      </trkpt>
      <trkpt lat="43.26951" lon="2.7392">
        <ele>44.6</ele>
        <time>2017-01-20T13:38:22Z</time>
      </trkpt>
      <trkpt lat="43.26951" lon="2.7392">
        <ele>44.6</ele>
        <time>2017-01-20T13:38:23Z</time>
      </trkpt>
      <trkpt lat="43.26951" lon="2.7392">
        <ele>44.6</ele>
        <time>2017-01-20T13:38:24Z</time>
      </trkpt>
      <trkpt lat="43.26951" lon="2.7392">
        <ele>44.6</ele>
        <time>2017-01-20T13:38:25Z</time>
      </trkpt>
      <trkpt lat="43.26951" lon="2.7392">
        <ele>44.8</ele>
        <time>2017-01-20T13:38:26Z</time>
      </trkpt>
      <trkpt lat="43.26951" lon="2.7392">
        <ele>44.9</ele>
        <time>2017-01-20T13:38:27Z</time>
      </trkpt>
      <trkpt lat="43.26951" lon="2.7392">
        <ele>45.1</ele>
        <time>2017-01-20T13:38:28Z</time>
      </trkpt>
      <trkpt lat="43.26951" lon="2.7392">
        <ele>45.4</ele>
        <time>2017-01-20T13:38:29Z</time>
      </trkpt>
      <trkpt lat="43.26951" lon="2.7392">
        <ele>45.6</ele>
        <time>2017-01-20T13:38:30Z</time>
      </trkpt>
      <trkpt lat="43.26951" lon="2.7392">
        <ele>45.7</ele>
        <time>2017-01-20T13:38:31Z</time>
      </trkpt>
      <trkpt lat="43.26951" lon="2.7392">
        <ele>45.9</ele>
        <time>2017-01-20T13:38:32Z</time>
      </trkpt>
      <trkpt lat="43.26951" lon="2.7392">
        <ele>46</ele>
        <time>2017-01-20T13:38:33Z</time>
      </trkpt>
      <trkpt lat="43.26951" lon="2.73918">
        <ele>46</ele>
        <time>2017-01-20T13:38:34Z</time>
      </trkpt>
      <trkpt lat="43.2695" lon="2.73919">
        <ele>45.7</ele>
        <time>2017-01-20T13:38:35Z</time>
      </trkpt>
      <trkpt lat="43.26949" lon="2.7392">
        <ele>45.4</ele>
        <time>2017-01-20T13:38:36Z</time>
      </trkpt>
      <trkpt lat="43.26949" lon="2.73922">
        <ele>45.2</ele>
        <time>2017-01-20T13:38:37Z</time>
      </trkpt>
      <trkpt lat="43.26946" lon="2.73929">
        <ele>45.8</ele>
        <time>2017-01-20T13:38:40Z</time>
      </trkpt>
      <trkpt lat="43.26947" lon="2.7393">
        <ele>45.7</ele>
        <time>2017-01-20T13:38:41Z</time>
      </trkpt>
      <trkpt lat="43.26947" lon="2.73931">
        <ele>45.6</ele>
        <time>2017-01-20T13:38:42Z</time>
      </trkpt>
      <trkpt lat="43.26947" lon="2.73931">
        <ele>45.6</ele>
        <time>2017-01-20T13:38:43Z</time>
      </trkpt>
      <trkpt lat="43.26947" lon="2.73931">
        <ele>45.7</ele>
        <time>2017-01-20T13:38:44Z</time>
      </trkpt>
      <trkpt lat="43.26947" lon="2.73931">
        <ele>45.9</ele>
        <time>2017-01-20T13:38:45Z</time>
      </trkpt>
      <trkpt lat="43.26947" lon="2.73931">
        <ele>46</ele>
        <time>2017-01-20T13:38:46Z</time>
      </trkpt>
      <trkpt lat="43.26947" lon="2.73931">
        <ele>46</ele>
        <time>2017-01-20T13:38:47Z</time>
      </trkpt>
      <trkpt lat="43.26947" lon="2.73931">
        <ele>46.1</ele>
        <time>2017-01-20T13:38:48Z</time>
      </trkpt>
      <trkpt lat="43.26947" lon="2.73931">
        <ele>46.1</ele>
        <time>2017-01-20T13:38:49Z</time>
      </trkpt>
      <trkpt lat="43.26947" lon="2.73931">
        <ele>45.9</ele>
        <time>2017-01-20T13:38:50Z</time>
      </trkpt>
      <trkpt lat="43.26947" lon="2.73931">
        <ele>45.8</ele>
        <time>2017-01-20T13:38:51Z</time>
      </trkpt>
      <trkpt lat="43.26947" lon="2.73931">
        <ele>45.7</ele>
        <time>2017-01-20T13:38:52Z</time>
      </trkpt>
      <trkpt lat="43.26947" lon="2.73931">
        <ele>45.4</ele>
        <time>2017-01-20T13:38:53Z</time>
      </trkpt>
      <trkpt lat="43.26947" lon="2.73931">
        <ele>45.2</ele>
        <time>2017-01-20T13:38:54Z</time>
      </trkpt>
      <trkpt lat="43.26947" lon="2.73931">
        <ele>45.1</ele>
        <time>2017-01-20T13:38:55Z</time>
      </trkpt>
      <trkpt lat="43.26947" lon="2.73931">
        <ele>45.1</ele>
        <time>2017-01-20T13:38:56Z</time>
      </trkpt>
      <trkpt lat="43.26947" lon="2.73931">
        <ele>45.2</ele>
        <time>2017-01-20T13:38:57Z</time>
      </trkpt>
      <trkpt lat="43.26947" lon="2.73931">
        <ele>45.3</ele>
        <time>2017-01-20T13:38:58Z</time>
      </trkpt>
      <trkpt lat="43.26947" lon="2.73931">
        <ele>45.5</ele>
        <time>2017-01-20T13:38:59Z</time>
      </trkpt>
      <trkpt lat="43.26949" lon="2.73929">
        <ele>45.7</ele>
        <time>2017-01-20T13:39:00Z</time>
      </trkpt>
      <trkpt lat="43.26949" lon="2.73928">
        <ele>45.8</ele>
        <time>2017-01-20T13:39:01Z</time>
      </trkpt>
      <trkpt lat="43.26949" lon="2.73922">
        <ele>46.4</ele>
        <time>2017-01-20T13:39:03Z</time>
      </trkpt>
      <trkpt lat="43.26949" lon="2.73917">
        <ele>46.7</ele>
        <time>2017-01-20T13:39:05Z</time>
      </trkpt>
      <trkpt lat="43.26949" lon="2.73917">
        <ele>46.8</ele>
        <time>2017-01-20T13:39:06Z</time>
      </trkpt>
      <trkpt lat="43.26949" lon="2.73917">
        <ele>46.8</ele>
        <time>2017-01-20T13:39:07Z</time>
      </trkpt>
      <trkpt lat="43.26949" lon="2.73917">
        <ele>46.5</ele>
        <time>2017-01-20T13:39:08Z</time>
      </trkpt>
      <trkpt lat="43.26949" lon="2.73917">
        <ele>46.2</ele>
        <time>2017-01-20T13:39:09Z</time>
      </trkpt>
      <trkpt lat="43.26949" lon="2.73917">
        <ele>46</ele>
        <time>2017-01-20T13:39:10Z</time>
      </trkpt>
      <trkpt lat="43.26949" lon="2.73917">
        <ele>45.9</ele>
        <time>2017-01-20T13:39:11Z</time>
      </trkpt>
      <trkpt lat="43.26949" lon="2.73917">
        <ele>45.8</ele>
        <time>2017-01-20T13:39:12Z</time>
      </trkpt>
      <trkpt lat="43.26949" lon="2.73917">
        <ele>45.7</ele>
        <time>2017-01-20T13:39:13Z</time>
      </trkpt>
      <trkpt lat="43.26949" lon="2.73917">
        <ele>45.8</ele>
        <time>2017-01-20T13:39:14Z</time>
      </trkpt>
      <trkpt lat="43.26949" lon="2.73917">
        <ele>45.9</ele>
        <time>2017-01-20T13:39:15Z</time>
      </trkpt>
      <trkpt lat="43.26949" lon="2.73917">
        <ele>46</ele>
        <time>2017-01-20T13:39:16Z</time>
      </trkpt>
      <trkpt lat="43.26949" lon="2.73917">
        <ele>46.3</ele>
        <time>2017-01-20T13:39:17Z</time>
      </trkpt>
      <trkpt lat="43.2695" lon="2.73914">
        <ele>46.5</ele>
        <time>2017-01-20T13:39:18Z</time>
      </trkpt>
      <trkpt lat="43.2695" lon="2.73911">
        <ele>46.7</ele>
        <time>2017-01-20T13:39:20Z</time>
      </trkpt>
      <trkpt lat="43.26951" lon="2.73909">
        <ele>46.8</ele>
        <time>2017-01-20T13:39:21Z</time>
      </trkpt>
      <trkpt lat="43.26972" lon="2.73836">
        <ele>50.4</ele>
        <time>2017-01-20T13:39:47Z</time>
      </trkpt>
      <trkpt lat="43.26972" lon="2.73836">
        <ele>50.8</ele>
        <time>2017-01-20T13:39:48Z</time>
      </trkpt>
      <trkpt lat="43.26972" lon="2.73836">
        <ele>51.1</ele>
        <time>2017-01-20T13:39:49Z</time>
      </trkpt>
      <trkpt lat="43.26972" lon="2.73836">
        <ele>50.7</ele>
        <time>2017-01-20T13:39:50Z</time>
      </trkpt>
      <trkpt lat="43.26972" lon="2.73836">
        <ele>50.4</ele>
        <time>2017-01-20T13:39:51Z</time>
      </trkpt>
      <trkpt lat="43.26972" lon="2.73836">
        <ele>50.2</ele>
        <time>2017-01-20T13:39:52Z</time>
      </trkpt>
      <trkpt lat="43.26973" lon="2.73835">
        <ele>50.5</ele>
        <time>2017-01-20T13:39:53Z</time>
      </trkpt>
      <trkpt lat="43.26973" lon="2.73835">
        <ele>50.6</ele>
        <time>2017-01-20T13:39:54Z</time>
      </trkpt>
      <trkpt lat="43.26973" lon="2.73834">
        <ele>50.8</ele>
        <time>2017-01-20T13:39:55Z</time>
      </trkpt>
      <trkpt lat="43.26973" lon="2.73833">
        <ele>50.9</ele>
        <time>2017-01-20T13:39:56Z</time>
      </trkpt>
      <trkpt lat="43.26974" lon="2.73831">
        <ele>51</ele>
        <time>2017-01-20T13:39:58Z</time>
      </trkpt>
      <trkpt lat="43.26981" lon="2.73821">
        <ele>51</ele>
        <time>2017-01-20T13:40:11Z</time>
      </trkpt>
      <trkpt lat="43.26981" lon="2.73821">
        <ele>51.1</ele>
        <time>2017-01-20T13:40:12Z</time>
      </trkpt>
      <trkpt lat="43.26981" lon="2.73821">
        <ele>51.1</ele>
        <time>2017-01-20T13:40:13Z</time>
      </trkpt>
      <trkpt lat="43.26981" lon="2.73821">
        <ele>51.3</ele>
        <time>2017-01-20T13:40:14Z</time>
      </trkpt>
      <trkpt lat="43.26981" lon="2.73822">
        <ele>51.5</ele>
        <time>2017-01-20T13:40:15Z</time>
      </trkpt>
      <trkpt lat="43.26981" lon="2.73822">
        <ele>51.6</ele>
        <time>2017-01-20T13:40:16Z</time>
      </trkpt>
      <trkpt lat="43.2698" lon="2.73822">
        <ele>51.7</ele>
        <time>2017-01-20T13:40:17Z</time>
      </trkpt>
      <trkpt lat="43.2698" lon="2.73822">
        <ele>51.8</ele>
        <time>2017-01-20T13:40:18Z</time>
      </trkpt>
      <trkpt lat="43.2698" lon="2.73823">
        <ele>51.9</ele>
        <time>2017-01-20T13:40:19Z</time>
      </trkpt>
      <trkpt lat="43.2698" lon="2.73822">
        <ele>51.9</ele>
        <time>2017-01-20T13:40:20Z</time>
      </trkpt>
      <trkpt lat="43.2698" lon="2.73822">
        <ele>51.9</ele>
        <time>2017-01-20T13:40:21Z</time>
      </trkpt>
      <trkpt lat="43.2698" lon="2.73822">
        <ele>52</ele>
        <time>2017-01-20T13:40:22Z</time>
      </trkpt>
      <trkpt lat="43.26981" lon="2.73822">
        <ele>51.6</ele>
        <time>2017-01-20T13:40:23Z</time>
      </trkpt>
      <trkpt lat="43.26981" lon="2.73822">
        <ele>51.3</ele>
        <time>2017-01-20T13:40:24Z</time>
      </trkpt>
      <trkpt lat="43.26981" lon="2.73821">
        <ele>51</ele>
        <time>2017-01-20T13:40:25Z</time>
      </trkpt>
      <trkpt lat="43.26982" lon="2.73821">
        <ele>51.3</ele>
        <time>2017-01-20T13:40:26Z</time>
      </trkpt>
      <trkpt lat="43.26982" lon="2.7382">
        <ele>51.5</ele>
        <time>2017-01-20T13:40:27Z</time>
      </trkpt>
      <trkpt lat="43.26982" lon="2.7382">
        <ele>51.6</ele>
        <time>2017-01-20T13:40:28Z</time>
      </trkpt>
      <trkpt lat="43.26983" lon="2.7382">
        <ele>51.7</ele>
        <time>2017-01-20T13:40:29Z</time>
      </trkpt>
      <trkpt lat="43.26983" lon="2.7382">
        <ele>51.8</ele>
        <time>2017-01-20T13:40:30Z</time>
      </trkpt>
      <trkpt lat="43.26983" lon="2.73819">
        <ele>51.8</ele>
        <time>2017-01-20T13:40:31Z</time>
      </trkpt>
      <trkpt lat="43.26983" lon="2.73819">
        <ele>51.9</ele>
        <time>2017-01-20T13:40:32Z</time>
      </trkpt>
      <trkpt lat="43.26983" lon="2.73819">
        <ele>51.9</ele>
        <time>2017-01-20T13:40:33Z</time>
      </trkpt>
      <trkpt lat="43.26983" lon="2.73818">
        <ele>51.9</ele>
        <time>2017-01-20T13:40:34Z</time>
      </trkpt>
      <trkpt lat="43.26983" lon="2.73817">
        <ele>52</ele>
        <time>2017-01-20T13:40:35Z</time>
      </trkpt>
      <trkpt lat="43.26982" lon="2.73816">
        <ele>52</ele>
        <time>2017-01-20T13:40:36Z</time>
      </trkpt>
      <trkpt lat="43.26982" lon="2.73815">
        <ele>52</ele>
        <time>2017-01-20T13:40:37Z</time>
      </trkpt>
      <trkpt lat="43.26981" lon="2.73814">
        <ele>52</ele>
        <time>2017-01-20T13:40:38Z</time>
      </trkpt>
      <trkpt lat="43.2698" lon="2.73813">
        <ele>52</ele>
        <time>2017-01-20T13:40:39Z</time>
      </trkpt>
      <trkpt lat="43.26979" lon="2.7381">
        <ele>52</ele>
        <time>2017-01-20T13:40:42Z</time>
      </trkpt>
      <trkpt lat="43.26979" lon="2.73809">
        <ele>52</ele>
        <time>2017-01-20T13:40:43Z</time>
      </trkpt>
      <trkpt lat="43.26979" lon="2.73808">
        <ele>51.6</ele>
        <time>2017-01-20T13:40:44Z</time>
      </trkpt>
      <trkpt lat="43.26979" lon="2.73808">
        <ele>51.3</ele>
        <time>2017-01-20T13:40:45Z</time>
      </trkpt>
      <trkpt lat="43.26979" lon="2.73808">
        <ele>51.1</ele>
        <time>2017-01-20T13:40:46Z</time>
      </trkpt>
      <trkpt lat="43.26979" lon="2.73807">
        <ele>51.3</ele>
        <time>2017-01-20T13:40:47Z</time>
      </trkpt>
      <trkpt lat="43.26979" lon="2.73806">
        <ele>51.5</ele>
        <time>2017-01-20T13:40:48Z</time>
      </trkpt>
      <trkpt lat="43.26979" lon="2.73805">
        <ele>51.6</ele>
        <time>2017-01-20T13:40:49Z</time>
      </trkpt>
      <trkpt lat="43.26979" lon="2.73804">
        <ele>51.3</ele>
        <time>2017-01-20T13:40:50Z</time>
      </trkpt>
      <trkpt lat="43.26979" lon="2.73803">
        <ele>51.1</ele>
        <time>2017-01-20T13:40:51Z</time>
      </trkpt>
      <trkpt lat="43.26979" lon="2.73803">
        <ele>50.9</ele>
        <time>2017-01-20T13:40:52Z</time>
      </trkpt>
      <trkpt lat="43.26979" lon="2.73802">
        <ele>51.2</ele>
        <time>2017-01-20T13:40:53Z</time>
      </trkpt>
      <trkpt lat="43.26978" lon="2.73802">
        <ele>51.4</ele>
        <time>2017-01-20T13:40:54Z</time>
      </trkpt>
      <trkpt lat="43.26978" lon="2.73802">
        <ele>51.5</ele>
        <time>2017-01-20T13:40:55Z</time>
      </trkpt>
      <trkpt lat="43.26978" lon="2.73802">
        <ele>51.7</ele>
        <time>2017-01-20T13:40:56Z</time>
      </trkpt>
      <trkpt lat="43.26979" lon="2.73805">
        <ele>51.8</ele>
        <time>2017-01-20T13:40:58Z</time>
      </trkpt>
      <trkpt lat="43.26979" lon="2.73807">
        <ele>51.9</ele>
        <time>2017-01-20T13:41:00Z</time>
      </trkpt>
      <trkpt lat="43.26979" lon="2.73808">
        <ele>51.9</ele>
        <time>2017-01-20T13:41:01Z</time>
      </trkpt>
      <trkpt lat="43.26981" lon="2.73812">
        <ele>52.7</ele>
        <time>2017-01-20T13:41:06Z</time>
      </trkpt>
      <trkpt lat="43.2698" lon="2.73812">
        <ele>53</ele>
        <time>2017-01-20T13:41:07Z</time>
      </trkpt>
      <trkpt lat="43.2698" lon="2.73811">
        <ele>52.7</ele>
        <time>2017-01-20T13:41:08Z</time>
      </trkpt>
      <trkpt lat="43.26979" lon="2.7381">
        <ele>52.6</ele>
        <time>2017-01-20T13:41:09Z</time>
      </trkpt>
      <trkpt lat="43.26979" lon="2.73809">
        <ele>52.4</ele>
        <time>2017-01-20T13:41:10Z</time>
      </trkpt>
      <trkpt lat="43.26977" lon="2.73806">
        <ele>52.1</ele>
        <time>2017-01-20T13:41:11Z</time>
      </trkpt>
      <trkpt lat="43.26976" lon="2.73802">
        <ele>51.9</ele>
        <time>2017-01-20T13:41:12Z</time>
      </trkpt>
      <trkpt lat="43.26975" lon="2.73798">
        <ele>51.7</ele>
        <time>2017-01-20T13:41:13Z</time>
      </trkpt>
      <trkpt lat="43.26975" lon="2.73793">
        <ele>51.8</ele>
        <time>2017-01-20T13:41:14Z</time>
      </trkpt>
      <trkpt lat="43.26976" lon="2.73788">
        <ele>51.8</ele>
        <time>2017-01-20T13:41:15Z</time>
      </trkpt>
      <trkpt lat="43.26977" lon="2.73782">
        <ele>51.9</ele>
        <time>2017-01-20T13:41:16Z</time>
      </trkpt>
      <trkpt lat="43.26978" lon="2.73777">
        <ele>52.1</ele>
        <time>2017-01-20T13:41:17Z</time>
      </trkpt>
      <trkpt lat="43.26979" lon="2.73771">
        <ele>52.3</ele>
        <time>2017-01-20T13:41:18Z</time>
      </trkpt>
      <trkpt lat="43.2698" lon="2.73766">
        <ele>52.4</ele>
        <time>2017-01-20T13:41:19Z</time>
      </trkpt>
      <trkpt lat="43.26981" lon="2.73761">
        <ele>52.5</ele>
        <time>2017-01-20T13:41:20Z</time>
      </trkpt>
      <trkpt lat="43.26983" lon="2.73756">
        <ele>52.6</ele>
        <time>2017-01-20T13:41:21Z</time>
      </trkpt>
      <trkpt lat="43.26985" lon="2.73751">
        <ele>52.7</ele>
        <time>2017-01-20T13:41:22Z</time>
      </trkpt>
      <trkpt lat="43.26987" lon="2.73747">
        <ele>52.5</ele>
        <time>2017-01-20T13:41:23Z</time>
      </trkpt>
      <trkpt lat="43.26989" lon="2.73743">
        <ele>52.4</ele>
        <time>2017-01-20T13:41:24Z</time>
      </trkpt>
      <trkpt lat="43.26991" lon="2.73738">
        <ele>52.3</ele>
        <time>2017-01-20T13:41:25Z</time>
      </trkpt>
      <trkpt lat="43.26992" lon="2.73734">
        <ele>52.2</ele>
        <time>2017-01-20T13:41:26Z</time>
      </trkpt>
      <trkpt lat="43.26994" lon="2.7373">
        <ele>52.2</ele>
        <time>2017-01-20T13:41:27Z</time>
      </trkpt>
      <trkpt lat="43.26995" lon="2.73726">
        <ele>52.1</ele>
        <time>2017-01-20T13:41:28Z</time>
      </trkpt>
      <trkpt lat="43.26996" lon="2.73723">
        <ele>52.3</ele>
        <time>2017-01-20T13:41:29Z</time>
      </trkpt>
      <trkpt lat="43.26997" lon="2.73721">
        <ele>52.5</ele>
        <time>2017-01-20T13:41:30Z</time>
      </trkpt>
      <trkpt lat="43.26998" lon="2.7372">
        <ele>52.6</ele>
        <time>2017-01-20T13:41:31Z</time>
      </trkpt>
      <trkpt lat="43.26999" lon="2.7372">
        <ele>52.4</ele>
        <time>2017-01-20T13:41:32Z</time>
      </trkpt>
      <trkpt lat="43.26999" lon="2.7372">
        <ele>52.3</ele>
        <time>2017-01-20T13:41:33Z</time>
      </trkpt>
      <trkpt lat="43.26999" lon="2.7372">
        <ele>52.2</ele>
        <time>2017-01-20T13:41:34Z</time>
      </trkpt>
      <trkpt lat="43.27" lon="2.73721">
        <ele>52.2</ele>
        <time>2017-01-20T13:41:35Z</time>
      </trkpt>
      <trkpt lat="43.27" lon="2.73721">
        <ele>52.1</ele>
        <time>2017-01-20T13:41:36Z</time>
      </trkpt>
      <trkpt lat="43.27" lon="2.73722">
        <ele>52.1</ele>
        <time>2017-01-20T13:41:37Z</time>
      </trkpt>
      <trkpt lat="43.27001" lon="2.73722">
        <ele>52.1</ele>
        <time>2017-01-20T13:41:38Z</time>
      </trkpt>
      <trkpt lat="43.27001" lon="2.73722">
        <ele>52.1</ele>
        <time>2017-01-20T13:41:39Z</time>
      </trkpt>
      <trkpt lat="43.27001" lon="2.73722">
        <ele>52.1</ele>
        <time>2017-01-20T13:41:40Z</time>
      </trkpt>
      <trkpt lat="43.27001" lon="2.73721">
        <ele>52.1</ele>
        <time>2017-01-20T13:41:41Z</time>
      </trkpt>
      <trkpt lat="43.27001" lon="2.73719">
        <ele>52</ele>
        <time>2017-01-20T13:41:42Z</time>
      </trkpt>
      <trkpt lat="43.27004" lon="2.73654">
        <ele>52</ele>
        <time>2017-01-20T13:41:57Z</time>
      </trkpt>
      <trkpt lat="43.27003" lon="2.73648">
        <ele>52</ele>
        <time>2017-01-20T13:41:58Z</time>
      </trkpt>
      <trkpt lat="43.27002" lon="2.73614">
        <ele>50.8</ele>
        <time>2017-01-20T13:42:14Z</time>
      </trkpt>
      <trkpt lat="43.27002" lon="2.73614">
        <ele>50.7</ele>
        <time>2017-01-20T13:42:15Z</time>
      </trkpt>
      <trkpt lat="43.27002" lon="2.73614">
        <ele>50.6</ele>
        <time>2017-01-20T13:42:16Z</time>
      </trkpt>
      <trkpt lat="43.27002" lon="2.73614">
        <ele>51</ele>
        <time>2017-01-20T13:42:17Z</time>
      </trkpt>
      <trkpt lat="43.27002" lon="2.7361">
        <ele>51.2</ele>
        <time>2017-01-20T13:42:18Z</time>
      </trkpt>
      <trkpt lat="43.26987" lon="2.73292">
        <ele>52.4</ele>
        <time>2017-01-20T13:43:18Z</time>
      </trkpt>
      <trkpt lat="43.26987" lon="2.73292">
        <ele>52.5</ele>
        <time>2017-01-20T13:43:19Z</time>
      </trkpt>
      <trkpt lat="43.26987" lon="2.73292">
        <ele>52.4</ele>
        <time>2017-01-20T13:43:20Z</time>
      </trkpt>
      <trkpt lat="43.26987" lon="2.73292">
        <ele>52.3</ele>
        <time>2017-01-20T13:43:21Z</time>
      </trkpt>
      <trkpt lat="43.26987" lon="2.73292">
        <ele>52.2</ele>
        <time>2017-01-20T13:43:22Z</time>
      </trkpt>
      <trkpt lat="43.26987" lon="2.73292">
        <ele>52.2</ele>
        <time>2017-01-20T13:43:23Z</time>
      </trkpt>
      <trkpt lat="43.26987" lon="2.73292">
        <ele>52.1</ele>
        <time>2017-01-20T13:43:24Z</time>
      </trkpt>
      <trkpt lat="43.26987" lon="2.73292">
        <ele>52.1</ele>
        <time>2017-01-20T13:43:25Z</time>
      </trkpt>
      <trkpt lat="43.26987" lon="2.73287">
        <ele>52.1</ele>
        <time>2017-01-20T13:43:26Z</time>
      </trkpt>
      <trkpt lat="43.26981" lon="2.73078">
        <ele>53.7</ele>
        <time>2017-01-20T13:44:16Z</time>
      </trkpt>
      <trkpt lat="43.26982" lon="2.73075">
        <ele>53.7</ele>
        <time>2017-01-20T13:44:17Z</time>
      </trkpt>
      <trkpt lat="43.26984" lon="2.73074">
        <ele>53.7</ele>
        <time>2017-01-20T13:44:18Z</time>
      </trkpt>
      <trkpt lat="43.26986" lon="2.73074">
        <ele>53.7</ele>
        <time>2017-01-20T13:44:19Z</time>
      </trkpt>
      <trkpt lat="43.26987" lon="2.73074">
        <ele>53.9</ele>
        <time>2017-01-20T13:44:20Z</time>
      </trkpt>
      <trkpt lat="43.26987" lon="2.73074">
        <ele>55.2</ele>
        <time>2017-01-20T13:44:26Z</time>
      </trkpt>
      <trkpt lat="43.26987" lon="2.73074">
        <ele>55.4</ele>
        <time>2017-01-20T13:44:27Z</time>
      </trkpt>
      <trkpt lat="43.26987" lon="2.73074">
        <ele>55.6</ele>
        <time>2017-01-20T13:44:28Z</time>
      </trkpt>
      <trkpt lat="43.26987" lon="2.73074">
        <ele>55.7</ele>
        <time>2017-01-20T13:44:29Z</time>
      </trkpt>
      <trkpt lat="43.26987" lon="2.73074">
        <ele>55.8</ele>
        <time>2017-01-20T13:44:30Z</time>
      </trkpt>
      <trkpt lat="43.26987" lon="2.73074">
        <ele>55.9</ele>
        <time>2017-01-20T13:44:31Z</time>
      </trkpt>
      <trkpt lat="43.26987" lon="2.73074">
        <ele>55.8</ele>
        <time>2017-01-20T13:44:32Z</time>
      </trkpt>
      <trkpt lat="43.26987" lon="2.73074">
        <ele>55.7</ele>
        <time>2017-01-20T13:44:33Z</time>
      </trkpt>
      <trkpt lat="43.26987" lon="2.73074">
        <ele>55.6</ele>
        <time>2017-01-20T13:44:34Z</time>
      </trkpt>
      <trkpt lat="43.26987" lon="2.73074">
        <ele>55.3</ele>
        <time>2017-01-20T13:44:35Z</time>
      </trkpt>
      <trkpt lat="43.26987" lon="2.73074">
        <ele>55.1</ele>
        <time>2017-01-20T13:44:36Z</time>
      </trkpt>
      <trkpt lat="43.26987" lon="2.73074">
        <ele>55</ele>
        <time>2017-01-20T13:44:37Z</time>
      </trkpt>
      <trkpt lat="43.26987" lon="2.73074">
        <ele>55.1</ele>
        <time>2017-01-20T13:44:38Z</time>
      </trkpt>
      <trkpt lat="43.26987" lon="2.73074">
        <ele>55.1</ele>
        <time>2017-01-20T13:44:39Z</time>
      </trkpt>
      <trkpt lat="43.26987" lon="2.73074">
        <ele>55.2</ele>
        <time>2017-01-20T13:44:40Z</time>
      </trkpt>
      <trkpt lat="43.26987" lon="2.73074">
        <ele>55.2</ele>
        <time>2017-01-20T13:44:41Z</time>
      </trkpt>
      <trkpt lat="43.26989" lon="2.73072">
        <ele>55.2</ele>
        <time>2017-01-20T13:44:42Z</time>
      </trkpt>
      <trkpt lat="43.26988" lon="2.73072">
        <ele>55.3</ele>
        <time>2017-01-20T13:44:43Z</time>
      </trkpt>
      <trkpt lat="43.26986" lon="2.73072">
        <ele>55.5</ele>
        <time>2017-01-20T13:44:44Z</time>
      </trkpt>
      <trkpt lat="43.26984" lon="2.7307">
        <ele>55.7</ele>
        <time>2017-01-20T13:44:45Z</time>
      </trkpt>
      <trkpt lat="43.26983" lon="2.73068">
        <ele>55.8</ele>
        <time>2017-01-20T13:44:46Z</time>
      </trkpt>
      <trkpt lat="43.26981" lon="2.73065">
        <ele>55.7</ele>
        <time>2017-01-20T13:44:47Z</time>
      </trkpt>
      <trkpt lat="43.26981" lon="2.73061">
        <ele>55.6</ele>
        <time>2017-01-20T13:44:48Z</time>
      </trkpt>
      <trkpt lat="43.26981" lon="2.73057">
        <ele>55.5</ele>
        <time>2017-01-20T13:44:49Z</time>
      </trkpt>
      <trkpt lat="43.26982" lon="2.73032">
        <ele>55</ele>
        <time>2017-01-20T13:44:56Z</time>
      </trkpt>
      <trkpt lat="43.26982" lon="2.73029">
        <ele>55.1</ele>
        <time>2017-01-20T13:44:57Z</time>
      </trkpt>
      <trkpt lat="43.26979" lon="2.73001">
        <ele>54.8</ele>
        <time>2017-01-20T13:45:06Z</time>
      </trkpt>
      <trkpt lat="43.26979" lon="2.73001">
        <ele>54.5</ele>
        <time>2017-01-20T13:46:01Z</time>
      </trkpt>
      <trkpt lat="43.26979" lon="2.73001">
        <ele>54.5</ele>
        <time>2017-01-20T13:46:02Z</time>
      </trkpt>
      <trkpt lat="43.26979" lon="2.73001">
        <ele>54.5</ele>
        <time>2017-01-20T13:46:03Z</time>
      </trkpt>
      <trkpt lat="43.26979" lon="2.73001">
        <ele>54.5</ele>
        <time>2017-01-20T13:46:04Z</time>
      </trkpt>
      <trkpt lat="43.26979" lon="2.73001">
        <ele>54.5</ele>
        <time>2017-01-20T13:46:05Z</time>
      </trkpt>
      <trkpt lat="43.26979" lon="2.73001">
        <ele>54.5</ele>
        <time>2017-01-20T13:46:06Z</time>
      </trkpt>
      <trkpt lat="43.26979" lon="2.73001">
        <ele>54.5</ele>
        <time>2017-01-20T13:46:07Z</time>
      </trkpt>
      <trkpt lat="43.26979" lon="2.73001">
        <ele>54.7</ele>
        <time>2017-01-20T13:46:08Z</time>
      </trkpt>
      <trkpt lat="43.26979" lon="2.73001">
        <ele>54.9</ele>
        <time>2017-01-20T13:46:09Z</time>
      </trkpt>
      <trkpt lat="43.26979" lon="2.73001">
        <ele>55</ele>
        <time>2017-01-20T13:46:10Z</time>
      </trkpt>
      <trkpt lat="43.26979" lon="2.73001">
        <ele>54.9</ele>
        <time>2017-01-20T13:46:11Z</time>
      </trkpt>
      <trkpt lat="43.26979" lon="2.73001">
        <ele>54.8</ele>
        <time>2017-01-20T13:46:12Z</time>
      </trkpt>
      <trkpt lat="43.26979" lon="2.73001">
        <ele>54.7</ele>
        <time>2017-01-20T13:46:13Z</time>
      </trkpt>
      <trkpt lat="43.26978" lon="2.72998">
        <ele>54.7</ele>
        <time>2017-01-20T13:46:14Z</time>
      </trkpt>
      <trkpt lat="43.26977" lon="2.72996">
        <ele>54.6</ele>
        <time>2017-01-20T13:46:15Z</time>
      </trkpt>
      <trkpt lat="43.26975" lon="2.72985">
        <ele>54.9</ele>
        <time>2017-01-20T13:46:18Z</time>
      </trkpt>
      <trkpt lat="43.26975" lon="2.7298">
        <ele>55</ele>
        <time>2017-01-20T13:46:19Z</time>
      </trkpt>
      <trkpt lat="43.26974" lon="2.72971">
        <ele>54.8</ele>
        <time>2017-01-20T13:46:21Z</time>
      </trkpt>
      <trkpt lat="43.26973" lon="2.72968">
        <ele>54.7</ele>
        <time>2017-01-20T13:46:22Z</time>
      </trkpt>
      <trkpt lat="43.26972" lon="2.72965">
        <ele>54.7</ele>
        <time>2017-01-20T13:46:23Z</time>
      </trkpt>
      <trkpt lat="43.26973" lon="2.72962">
        <ele>54.6</ele>
        <time>2017-01-20T13:46:24Z</time>
      </trkpt>
      <trkpt lat="43.26973" lon="2.72953">
        <ele>54.2</ele>
        <time>2017-01-20T13:46:27Z</time>
      </trkpt>
      <trkpt lat="43.26973" lon="2.7295">
        <ele>54.1</ele>
        <time>2017-01-20T13:46:28Z</time>
      </trkpt>
      <trkpt lat="43.26973" lon="2.72944">
        <ele>54.4</ele>
        <time>2017-01-20T13:46:32Z</time>
      </trkpt>
      <trkpt lat="43.26973" lon="2.72944">
        <ele>54.4</ele>
        <time>2017-01-20T13:46:33Z</time>
      </trkpt>
      <trkpt lat="43.26973" lon="2.72944">
        <ele>54.4</ele>
        <time>2017-01-20T13:46:34Z</time>
      </trkpt>
      <trkpt lat="43.26973" lon="2.72944">
        <ele>54.4</ele>
        <time>2017-01-20T13:46:35Z</time>
      </trkpt>
      <trkpt lat="43.26973" lon="2.72944">
        <ele>54.5</ele>
        <time>2017-01-20T13:46:36Z</time>
      </trkpt>
      <trkpt lat="43.26973" lon="2.72944">
        <ele>54.5</ele>
        <time>2017-01-20T13:46:37Z</time>
      </trkpt>
      <trkpt lat="43.26973" lon="2.72944">
        <ele>54.7</ele>
        <time>2017-01-20T13:46:38Z</time>
      </trkpt>
      <trkpt lat="43.26973" lon="2.72944">
        <ele>54.8</ele>
        <time>2017-01-20T13:46:39Z</time>
      </trkpt>
      <trkpt lat="43.26973" lon="2.72944">
        <ele>55</ele>
        <time>2017-01-20T13:46:40Z</time>
      </trkpt>
      <trkpt lat="43.26973" lon="2.7294">
        <ele>55.3</ele>
        <time>2017-01-20T13:46:41Z</time>
      </trkpt>
      <trkpt lat="43.26973" lon="2.72939">
        <ele>55.5</ele>
        <time>2017-01-20T13:46:42Z</time>
      </trkpt>
      <trkpt lat="43.2697" lon="2.72934">
        <ele>55.5</ele>
        <time>2017-01-20T13:46:45Z</time>
      </trkpt>
      <trkpt lat="43.2697" lon="2.72931">
        <ele>55.5</ele>
        <time>2017-01-20T13:46:46Z</time>
      </trkpt>
      <trkpt lat="43.26963" lon="2.72687">
        <ele>55.8</ele>
        <time>2017-01-20T13:47:28Z</time>
      </trkpt>
      <trkpt lat="43.26963" lon="2.72687">
        <ele>55.9</ele>
        <time>2017-01-20T13:47:29Z</time>
      </trkpt>
      <trkpt lat="43.26963" lon="2.72687">
        <ele>55.7</ele>
        <time>2017-01-20T13:47:33Z</time>
      </trkpt>
      <trkpt lat="43.26963" lon="2.72687">
        <ele>55.6</ele>
        <time>2017-01-20T13:47:34Z</time>
      </trkpt>
      <trkpt lat="43.26963" lon="2.72684">
        <ele>55.8</ele>
        <time>2017-01-20T13:47:35Z</time>
      </trkpt>
      <trkpt lat="43.26968" lon="2.724">
        <ele>56.9</ele>
        <time>2017-01-20T13:48:16Z</time>
      </trkpt>
      <trkpt lat="43.26968" lon="2.72396">
        <ele>56.7</ele>
        <time>2017-01-20T13:48:17Z</time>
      </trkpt>
      <trkpt lat="43.26967" lon="2.7239">
        <ele>56</ele>
        <time>2017-01-20T13:48:23Z</time>
      </trkpt>
      <trkpt lat="43.26964" lon="2.72378">
        <ele>56</ele>
        <time>2017-01-20T13:48:29Z</time>
      </trkpt>
      <trkpt lat="43.26901" lon="2.72109">
        <ele>55.7</ele>
        <time>2017-01-20T13:49:15Z</time>
      </trkpt>
      <trkpt lat="43.26901" lon="2.72104">
        <ele>55.6</ele>
        <time>2017-01-20T13:49:16Z</time>
      </trkpt>
      <trkpt lat="43.269" lon="2.72085">
        <ele>55.4</ele>
        <time>2017-01-20T13:49:22Z</time>
      </trkpt>
      <trkpt lat="43.269" lon="2.72085">
        <ele>55</ele>
        <time>2017-01-20T13:49:23Z</time>
      </trkpt>
      <trkpt lat="43.269" lon="2.72085">
        <ele>54.6</ele>
        <time>2017-01-20T13:49:24Z</time>
      </trkpt>
      <trkpt lat="43.269" lon="2.72085">
        <ele>54.4</ele>
        <time>2017-01-20T13:49:25Z</time>
      </trkpt>
      <trkpt lat="43.269" lon="2.72085">
        <ele>54.4</ele>
        <time>2017-01-20T13:49:26Z</time>
      </trkpt>
      <trkpt lat="43.269" lon="2.72085">
        <ele>54.4</ele>
        <time>2017-01-20T13:49:27Z</time>
      </trkpt>
      <trkpt lat="43.269" lon="2.72085">
        <ele>54.5</ele>
        <time>2017-01-20T13:49:28Z</time>
      </trkpt>
      <trkpt lat="43.269" lon="2.72085">
        <ele>54.7</ele>
        <time>2017-01-20T13:49:29Z</time>
      </trkpt>
      <trkpt lat="43.269" lon="2.72085">
        <ele>54.8</ele>
        <time>2017-01-20T13:49:30Z</time>
      </trkpt>
      <trkpt lat="43.269" lon="2.72085">
        <ele>55</ele>
        <time>2017-01-20T13:49:31Z</time>
      </trkpt>
      <trkpt lat="43.269" lon="2.72085">
        <ele>54.8</ele>
        <time>2017-01-20T13:49:32Z</time>
      </trkpt>
      <trkpt lat="43.269" lon="2.72085">
        <ele>54.8</ele>
        <time>2017-01-20T13:49:33Z</time>
      </trkpt>
      <trkpt lat="43.269" lon="2.72085">
        <ele>54.7</ele>
        <time>2017-01-20T13:49:34Z</time>
      </trkpt>
      <trkpt lat="43.269" lon="2.72085">
        <ele>54.9</ele>
        <time>2017-01-20T13:49:35Z</time>
      </trkpt>
      <trkpt lat="43.269" lon="2.72082">
        <ele>55</ele>
        <time>2017-01-20T13:49:36Z</time>
      </trkpt>
      <trkpt lat="43.26899" lon="2.72081">
        <ele>55.1</ele>
        <time>2017-01-20T13:49:37Z</time>
      </trkpt>
      <trkpt lat="43.26891" lon="2.72062">
        <ele>56</ele>
        <time>2017-01-20T13:49:43Z</time>
      </trkpt>
      <trkpt lat="43.26891" lon="2.72059">
        <ele>55.8</ele>
        <time>2017-01-20T13:49:44Z</time>
      </trkpt>
      <trkpt lat="43.26891" lon="2.72057">
        <ele>55.6</ele>
        <time>2017-01-20T13:49:46Z</time>
      </trkpt>
      <trkpt lat="43.26891" lon="2.72057">
        <ele>55.3</ele>
        <time>2017-01-20T13:49:47Z</time>
      </trkpt>
      <trkpt lat="43.26891" lon="2.72057">
        <ele>55.1</ele>
        <time>2017-01-20T13:49:48Z</time>
      </trkpt>
      <trkpt lat="43.26891" lon="2.72057">
        <ele>55</ele>
        <time>2017-01-20T13:49:49Z</time>
      </trkpt>
      <trkpt lat="43.26891" lon="2.72057">
        <ele>54.9</ele>
        <time>2017-01-20T13:49:50Z</time>
      </trkpt>
      <trkpt lat="43.26891" lon="2.72057">
        <ele>54.8</ele>
        <time>2017-01-20T13:49:51Z</time>
      </trkpt>
      <trkpt lat="43.26891" lon="2.72057">
        <ele>54.7</ele>
        <time>2017-01-20T13:49:52Z</time>
      </trkpt>
      <trkpt lat="43.26891" lon="2.72057">
        <ele>54.9</ele>
        <time>2017-01-20T13:49:53Z</time>
      </trkpt>
      <trkpt lat="43.26891" lon="2.72057">
        <ele>55</ele>
        <time>2017-01-20T13:49:54Z</time>
      </trkpt>
      <trkpt lat="43.2689" lon="2.72055">
        <ele>55.1</ele>
        <time>2017-01-20T13:49:55Z</time>
      </trkpt>
      <trkpt lat="43.26888" lon="2.72025">
        <ele>56</ele>
        <time>2017-01-20T13:50:03Z</time>
      </trkpt>
      <trkpt lat="43.26889" lon="2.72022">
        <ele>56.1</ele>
        <time>2017-01-20T13:50:04Z</time>
      </trkpt>
      <trkpt lat="43.2689" lon="2.7202">
        <ele>55.8</ele>
        <time>2017-01-20T13:50:06Z</time>
      </trkpt>
      <trkpt lat="43.26889" lon="2.72013">
        <ele>55.8</ele>
        <time>2017-01-20T13:50:08Z</time>
      </trkpt>
      <trkpt lat="43.26889" lon="2.72013">
        <ele>54.5</ele>
        <time>2017-01-20T13:50:18Z</time>
      </trkpt>
      <trkpt lat="43.26889" lon="2.72013">
        <ele>54.5</ele>
        <time>2017-01-20T13:50:19Z</time>
      </trkpt>
      <trkpt lat="43.26889" lon="2.72013">
        <ele>54.5</ele>
        <time>2017-01-20T13:50:20Z</time>
      </trkpt>
      <trkpt lat="43.26889" lon="2.72013">
        <ele>54.5</ele>
        <time>2017-01-20T13:50:21Z</time>
      </trkpt>
      <trkpt lat="43.26889" lon="2.72013">
        <ele>54.5</ele>
        <time>2017-01-20T13:50:22Z</time>
      </trkpt>
      <trkpt lat="43.26889" lon="2.72013">
        <ele>54.9</ele>
        <time>2017-01-20T13:50:23Z</time>
      </trkpt>
      <trkpt lat="43.26889" lon="2.72013">
        <ele>55.2</ele>
        <time>2017-01-20T13:50:24Z</time>
      </trkpt>
      <trkpt lat="43.26889" lon="2.72013">
        <ele>55.5</ele>
        <time>2017-01-20T13:50:25Z</time>
      </trkpt>
      <trkpt lat="43.26889" lon="2.72013">
        <ele>55.2</ele>
        <time>2017-01-20T13:50:26Z</time>
      </trkpt>
      <trkpt lat="43.26889" lon="2.72013">
        <ele>55</ele>
        <time>2017-01-20T13:50:27Z</time>
      </trkpt>
      <trkpt lat="43.26889" lon="2.72013">
        <ele>54.9</ele>
        <time>2017-01-20T13:50:28Z</time>
      </trkpt>
      <trkpt lat="43.26889" lon="2.72013">
        <ele>55</ele>
        <time>2017-01-20T13:50:29Z</time>
      </trkpt>
      <trkpt lat="43.26889" lon="2.72013">
        <ele>55.1</ele>
        <time>2017-01-20T13:50:30Z</time>
      </trkpt>
      <trkpt lat="43.26889" lon="2.72013">
        <ele>55.2</ele>
        <time>2017-01-20T13:50:31Z</time>
      </trkpt>
      <trkpt lat="43.26889" lon="2.72013">
        <ele>55.4</ele>
        <time>2017-01-20T13:50:32Z</time>
      </trkpt>
      <trkpt lat="43.26889" lon="2.72013">
        <ele>55.6</ele>
        <time>2017-01-20T13:50:33Z</time>
      </trkpt>
      <trkpt lat="43.26888" lon="2.72009">
        <ele>55.7</ele>
        <time>2017-01-20T13:50:34Z</time>
      </trkpt>
      <trkpt lat="43.26886" lon="2.72007">
        <ele>55.6</ele>
        <time>2017-01-20T13:50:35Z</time>
      </trkpt>
      <trkpt lat="43.26884" lon="2.72005">
        <ele>55.6</ele>
        <time>2017-01-20T13:50:36Z</time>
      </trkpt>
      <trkpt lat="43.2686" lon="2.7198">
        <ele>55.7</ele>
        <time>2017-01-20T13:50:45Z</time>
      </trkpt>
      <trkpt lat="43.26858" lon="2.71976">
        <ele>55.6</ele>
        <time>2017-01-20T13:50:46Z</time>
      </trkpt>
      <trkpt lat="43.26851" lon="2.7195">
        <ele>55.8</ele>
        <time>2017-01-20T13:50:51Z</time>
      </trkpt>
      <trkpt lat="43.26844" lon="2.71901">
        <ele>55.9</ele>
        <time>2017-01-20T13:50:59Z</time>
      </trkpt>
      <trkpt lat="43.26844" lon="2.71882">
        <ele>56</ele>
        <time>2017-01-20T13:51:02Z</time>
      </trkpt>
      <trkpt lat="43.26844" lon="2.71878">
        <ele>56.2</ele>
        <time>2017-01-20T13:51:03Z</time>
      </trkpt>
      <trkpt lat="43.26843" lon="2.71874">
        <ele>56.4</ele>
        <time>2017-01-20T13:51:05Z</time>
      </trkpt>
      <trkpt lat="43.26842" lon="2.71878">
        <ele>56.3</ele>
        <time>2017-01-20T13:51:07Z</time>
      </trkpt>
      <trkpt lat="43.26841" lon="2.71882">
        <ele>56.4</ele>
        <time>2017-01-20T13:51:08Z</time>
      </trkpt>
      <trkpt lat="43.2684" lon="2.71885">
        <ele>56.6</ele>
        <time>2017-01-20T13:51:09Z</time>
      </trkpt>
      <trkpt lat="43.26838" lon="2.71887">
        <ele>56.7</ele>
        <time>2017-01-20T13:51:10Z</time>
      </trkpt>
      <trkpt lat="43.26836" lon="2.71888">
        <ele>56.6</ele>
        <time>2017-01-20T13:51:11Z</time>
      </trkpt>
      <trkpt lat="43.26832" lon="2.7189">
        <ele>56.3</ele>
        <time>2017-01-20T13:51:14Z</time>
      </trkpt>
      <trkpt lat="43.26832" lon="2.7189">
        <ele>56.3</ele>
        <time>2017-01-20T13:51:15Z</time>
      </trkpt>
      <trkpt lat="43.26832" lon="2.7189">
        <ele>56.3</ele>
        <time>2017-01-20T13:51:16Z</time>
      </trkpt>
      <trkpt lat="43.26832" lon="2.71891">
        <ele>56</ele>
        <time>2017-01-20T13:51:17Z</time>
      </trkpt>
      <trkpt lat="43.26832" lon="2.71891">
        <ele>55.8</ele>
        <time>2017-01-20T13:51:18Z</time>
      </trkpt>
      <trkpt lat="43.26836" lon="2.71891">
        <ele>55.7</ele>
        <time>2017-01-20T13:51:19Z</time>
      </trkpt>
      <trkpt lat="43.26836" lon="2.71891">
        <ele>55.8</ele>
        <time>2017-01-20T13:51:20Z</time>
      </trkpt>
      <trkpt lat="43.26841" lon="2.71878">
        <ele>56</ele>
        <time>2017-01-20T13:51:22Z</time>
      </trkpt>
      <trkpt lat="43.26841" lon="2.71872">
        <ele>56</ele>
        <time>2017-01-20T13:51:23Z</time>
      </trkpt>
      <trkpt lat="43.26841" lon="2.71867">
        <ele>56.1</ele>
        <time>2017-01-20T13:51:24Z</time>
      </trkpt>
      <trkpt lat="43.26833" lon="2.71812">
        <ele>55.6</ele>
        <time>2017-01-20T13:51:34Z</time>
      </trkpt>
      <trkpt lat="43.26832" lon="2.71807">
        <ele>55.7</ele>
        <time>2017-01-20T13:51:35Z</time>
      </trkpt>
      <trkpt lat="43.26824" lon="2.71763">
        <ele>55.7</ele>
        <time>2017-01-20T13:51:45Z</time>
      </trkpt>
      <trkpt lat="43.26824" lon="2.71763">
        <ele>55.6</ele>
        <time>2017-01-20T13:51:46Z</time>
      </trkpt>
      <trkpt lat="43.26824" lon="2.71763">
        <ele>55.7</ele>
        <time>2017-01-20T13:51:47Z</time>
      </trkpt>
      <trkpt lat="43.26827" lon="2.71758">
        <ele>55.8</ele>
        <time>2017-01-20T13:51:48Z</time>
      </trkpt>
      <trkpt lat="43.26827" lon="2.71758">
        <ele>55.9</ele>
        <time>2017-01-20T13:51:49Z</time>
      </trkpt>
      <trkpt lat="43.26827" lon="2.71758">
        <ele>55.6</ele>
        <time>2017-01-20T13:51:50Z</time>
      </trkpt>
      <trkpt lat="43.26827" lon="2.71758">
        <ele>55.3</ele>
        <time>2017-01-20T13:51:51Z</time>
      </trkpt>
      <trkpt lat="43.26827" lon="2.71758">
        <ele>55.1</ele>
        <time>2017-01-20T13:51:52Z</time>
      </trkpt>
      <trkpt lat="43.26827" lon="2.71758">
        <ele>55.2</ele>
        <time>2017-01-20T13:51:53Z</time>
      </trkpt>
      <trkpt lat="43.26827" lon="2.71758">
        <ele>55.2</ele>
        <time>2017-01-20T13:51:54Z</time>
      </trkpt>
      <trkpt lat="43.26827" lon="2.71758">
        <ele>55.2</ele>
        <time>2017-01-20T13:51:55Z</time>
      </trkpt>
      <trkpt lat="43.26827" lon="2.71758">
        <ele>54.8</ele>
        <time>2017-01-20T13:51:56Z</time>
      </trkpt>
      <trkpt lat="43.26827" lon="2.71758">
        <ele>54.6</ele>
        <time>2017-01-20T13:51:57Z</time>
      </trkpt>
      <trkpt lat="43.26827" lon="2.71758">
        <ele>54.3</ele>
        <time>2017-01-20T13:51:58Z</time>
      </trkpt>
      <trkpt lat="43.26827" lon="2.71758">
        <ele>54.8</ele>
        <time>2017-01-20T13:51:59Z</time>
      </trkpt>
      <trkpt lat="43.26827" lon="2.71758">
        <ele>55.1</ele>
        <time>2017-01-20T13:52:00Z</time>
      </trkpt>
      <trkpt lat="43.26827" lon="2.71758">
        <ele>55.4</ele>
        <time>2017-01-20T13:52:01Z</time>
      </trkpt>
      <trkpt lat="43.26827" lon="2.71758">
        <ele>55.6</ele>
        <time>2017-01-20T13:52:02Z</time>
      </trkpt>
      <trkpt lat="43.26827" lon="2.71758">
        <ele>55.7</ele>
        <time>2017-01-20T13:52:03Z</time>
      </trkpt>
      <trkpt lat="43.26827" lon="2.71758">
        <ele>55.8</ele>
        <time>2017-01-20T13:52:04Z</time>
      </trkpt>
      <trkpt lat="43.26827" lon="2.71758">
        <ele>55.7</ele>
        <time>2017-01-20T13:52:05Z</time>
      </trkpt>
      <trkpt lat="43.26827" lon="2.71758">
        <ele>55.6</ele>
        <time>2017-01-20T13:52:06Z</time>
      </trkpt>
      <trkpt lat="43.26827" lon="2.71758">
        <ele>55.5</ele>
        <time>2017-01-20T13:52:07Z</time>
      </trkpt>
      <trkpt lat="43.26827" lon="2.71758">
        <ele>55.5</ele>
        <time>2017-01-20T13:52:08Z</time>
      </trkpt>
      <trkpt lat="43.26827" lon="2.71758">
        <ele>55.5</ele>
        <time>2017-01-20T13:52:09Z</time>
      </trkpt>
      <trkpt lat="43.26827" lon="2.71758">
        <ele>55.4</ele>
        <time>2017-01-20T13:52:10Z</time>
      </trkpt>
      <trkpt lat="43.26827" lon="2.71758">
        <ele>55</ele>
        <time>2017-01-20T13:52:11Z</time>
      </trkpt>
      <trkpt lat="43.26827" lon="2.71758">
        <ele>54.7</ele>
        <time>2017-01-20T13:52:12Z</time>
      </trkpt>
      <trkpt lat="43.26827" lon="2.71758">
        <ele>54.4</ele>
        <time>2017-01-20T13:52:13Z</time>
      </trkpt>
      <trkpt lat="43.26827" lon="2.71758">
        <ele>54.4</ele>
        <time>2017-01-20T13:52:14Z</time>
      </trkpt>
      <trkpt lat="43.26827" lon="2.71758">
        <ele>54.5</ele>
        <time>2017-01-20T13:52:15Z</time>
      </trkpt>
      <trkpt lat="43.26827" lon="2.71758">
        <ele>54.5</ele>
        <time>2017-01-20T13:52:16Z</time>
      </trkpt>
      <trkpt lat="43.26827" lon="2.71758">
        <ele>54.7</ele>
        <time>2017-01-20T13:52:17Z</time>
      </trkpt>
      <trkpt lat="43.26827" lon="2.71758">
        <ele>54.8</ele>
        <time>2017-01-20T13:52:18Z</time>
      </trkpt>
      <trkpt lat="43.26827" lon="2.71758">
        <ele>55</ele>
        <time>2017-01-20T13:52:19Z</time>
      </trkpt>
      <trkpt lat="43.26827" lon="2.71758">
        <ele>54.9</ele>
        <time>2017-01-20T13:52:20Z</time>
      </trkpt>
      <trkpt lat="43.26827" lon="2.71758">
        <ele>54.8</ele>
        <time>2017-01-20T13:52:21Z</time>
      </trkpt>
      <trkpt lat="43.26827" lon="2.71758">
        <ele>54.7</ele>
        <time>2017-01-20T13:52:22Z</time>
      </trkpt>
      <trkpt lat="43.26827" lon="2.71758">
        <ele>54.9</ele>
        <time>2017-01-20T13:52:23Z</time>
      </trkpt>
      <trkpt lat="43.26827" lon="2.71758">
        <ele>55</ele>
        <time>2017-01-20T13:52:24Z</time>
      </trkpt>
      <trkpt lat="43.26827" lon="2.71758">
        <ele>55.1</ele>
        <time>2017-01-20T13:52:25Z</time>
      </trkpt>
      <trkpt lat="43.26823" lon="2.71749">
        <ele>55.3</ele>
        <time>2017-01-20T13:52:26Z</time>
      </trkpt>
      <trkpt lat="43.26823" lon="2.71749">
        <ele>55.5</ele>
        <time>2017-01-20T13:52:27Z</time>
      </trkpt>
      <trkpt lat="43.26823" lon="2.71749">
        <ele>55.7</ele>
        <time>2017-01-20T13:52:28Z</time>
      </trkpt>
      <trkpt lat="43.2682" lon="2.71744">
        <ele>55.8</ele>
        <time>2017-01-20T13:52:29Z</time>
      </trkpt>
      <trkpt lat="43.26818" lon="2.71741">
        <ele>55.9</ele>
        <time>2017-01-20T13:52:30Z</time>
      </trkpt>
      <trkpt lat="43.26817" lon="2.71737">
        <ele>56</ele>
        <time>2017-01-20T13:52:31Z</time>
      </trkpt>
      <trkpt lat="43.26811" lon="2.71705">
        <ele>55.8</ele>
        <time>2017-01-20T13:52:39Z</time>
      </trkpt>
      <trkpt lat="43.26811" lon="2.71705">
        <ele>55.7</ele>
        <time>2017-01-20T13:52:40Z</time>
      </trkpt>
      <trkpt lat="43.26811" lon="2.71705">
        <ele>55.8</ele>
        <time>2017-01-20T13:52:41Z</time>
      </trkpt>
      <trkpt lat="43.26814" lon="2.71699">
        <ele>55.9</ele>
        <time>2017-01-20T13:52:42Z</time>
      </trkpt>
      <trkpt lat="43.26814" lon="2.71699">
        <ele>55</ele>
        <time>2017-01-20T13:52:47Z</time>
      </trkpt>
      <trkpt lat="43.26814" lon="2.71699">
        <ele>54.8</ele>
        <time>2017-01-20T13:52:48Z</time>
      </trkpt>
      <trkpt lat="43.26814" lon="2.71699">
        <ele>54.8</ele>
        <time>2017-01-20T13:52:49Z</time>
      </trkpt>
      <trkpt lat="43.26814" lon="2.71699">
        <ele>54.7</ele>
        <time>2017-01-20T13:52:50Z</time>
      </trkpt>
      <trkpt lat="43.26814" lon="2.71699">
        <ele>54.6</ele>
        <time>2017-01-20T13:52:51Z</time>
      </trkpt>
      <trkpt lat="43.26814" lon="2.71699">
        <ele>54.6</ele>
        <time>2017-01-20T13:52:52Z</time>
      </trkpt>
      <trkpt lat="43.26814" lon="2.71699">
        <ele>54.6</ele>
        <time>2017-01-20T13:52:53Z</time>
      </trkpt>
      <trkpt lat="43.26815" lon="2.71693">
        <ele>54.6</ele>
        <time>2017-01-20T13:52:54Z</time>
      </trkpt>
      <trkpt lat="43.26815" lon="2.71693">
        <ele>54.6</ele>
        <time>2017-01-20T13:52:55Z</time>
      </trkpt>
      <trkpt lat="43.26815" lon="2.71693">
        <ele>54.5</ele>
        <time>2017-01-20T13:52:56Z</time>
      </trkpt>
      <trkpt lat="43.26815" lon="2.71693">
        <ele>54.5</ele>
        <time>2017-01-20T13:52:57Z</time>
      </trkpt>
      <trkpt lat="43.26815" lon="2.71693">
        <ele>54.5</ele>
        <time>2017-01-20T13:52:58Z</time>
      </trkpt>
      <trkpt lat="43.26815" lon="2.71693">
        <ele>54.5</ele>
        <time>2017-01-20T13:52:59Z</time>
      </trkpt>
      <trkpt lat="43.26815" lon="2.71693">
        <ele>54.5</ele>
        <time>2017-01-20T13:53:00Z</time>
      </trkpt>
      <trkpt lat="43.26815" lon="2.71693">
        <ele>54.5</ele>
        <time>2017-01-20T13:53:01Z</time>
      </trkpt>
      <trkpt lat="43.26815" lon="2.71693">
        <ele>54.9</ele>
        <time>2017-01-20T13:53:02Z</time>
      </trkpt>
      <trkpt lat="43.26815" lon="2.71693">
        <ele>55.2</ele>
        <time>2017-01-20T13:53:03Z</time>
      </trkpt>
      <trkpt lat="43.26815" lon="2.71693">
        <ele>55.5</ele>
        <time>2017-01-20T13:53:04Z</time>
      </trkpt>
      <trkpt lat="43.26815" lon="2.71693">
        <ele>55.6</ele>
        <time>2017-01-20T13:53:05Z</time>
      </trkpt>
      <trkpt lat="43.26813" lon="2.71687">
        <ele>55.8</ele>
        <time>2017-01-20T13:53:06Z</time>
      </trkpt>
      <trkpt lat="43.26813" lon="2.71687">
        <ele>55.9</ele>
        <time>2017-01-20T13:53:07Z</time>
      </trkpt>
      <trkpt lat="43.26813" lon="2.71687">
        <ele>55.7</ele>
        <time>2017-01-20T13:53:08Z</time>
      </trkpt>
      <trkpt lat="43.26813" lon="2.71687">
        <ele>55.6</ele>
        <time>2017-01-20T13:53:09Z</time>
      </trkpt>
      <trkpt lat="43.26813" lon="2.71687">
        <ele>55.6</ele>
        <time>2017-01-20T13:53:10Z</time>
      </trkpt>
      <trkpt lat="43.26813" lon="2.71687">
        <ele>55.7</ele>
        <time>2017-01-20T13:53:11Z</time>
      </trkpt>
      <trkpt lat="43.26813" lon="2.71687">
        <ele>55.8</ele>
        <time>2017-01-20T13:53:12Z</time>
      </trkpt>
      <trkpt lat="43.26813" lon="2.71687">
        <ele>55.9</ele>
        <time>2017-01-20T13:53:13Z</time>
      </trkpt>
      <trkpt lat="43.26813" lon="2.71687">
        <ele>55.8</ele>
        <time>2017-01-20T13:53:14Z</time>
      </trkpt>
      <trkpt lat="43.26813" lon="2.71687">
        <ele>55.7</ele>
        <time>2017-01-20T13:53:15Z</time>
      </trkpt>
      <trkpt lat="43.26813" lon="2.71687">
        <ele>55.6</ele>
        <time>2017-01-20T13:53:16Z</time>
      </trkpt>
      <trkpt lat="43.26813" lon="2.71687">
        <ele>55.3</ele>
        <time>2017-01-20T13:53:17Z</time>
      </trkpt>
      <trkpt lat="43.26812" lon="2.7168">
        <ele>55.1</ele>
        <time>2017-01-20T13:53:18Z</time>
      </trkpt>
      <trkpt lat="43.26812" lon="2.7168">
        <ele>55</ele>
        <time>2017-01-20T13:53:19Z</time>
      </trkpt>
      <trkpt lat="43.26812" lon="2.7168">
        <ele>54.6</ele>
        <time>2017-01-20T13:53:20Z</time>
      </trkpt>
      <trkpt lat="43.26812" lon="2.7168">
        <ele>54.4</ele>
        <time>2017-01-20T13:53:21Z</time>
      </trkpt>
      <trkpt lat="43.26812" lon="2.7168">
        <ele>54.2</ele>
        <time>2017-01-20T13:53:22Z</time>
      </trkpt>
      <trkpt lat="43.26809" lon="2.71675">
        <ele>54.5</ele>
        <time>2017-01-20T13:53:23Z</time>
      </trkpt>
      <trkpt lat="43.26809" lon="2.71675">
        <ele>55.1</ele>
        <time>2017-01-20T13:53:28Z</time>
      </trkpt>
      <trkpt lat="43.26809" lon="2.71675">
        <ele>55</ele>
        <time>2017-01-20T13:53:29Z</time>
      </trkpt>
      <trkpt lat="43.26809" lon="2.71675">
        <ele>54.9</ele>
        <time>2017-01-20T13:53:30Z</time>
      </trkpt>
      <trkpt lat="43.26809" lon="2.71675">
        <ele>54.8</ele>
        <time>2017-01-20T13:53:31Z</time>
      </trkpt>
      <trkpt lat="43.26809" lon="2.71675">
        <ele>54.9</ele>
        <time>2017-01-20T13:53:32Z</time>
      </trkpt>
      <trkpt lat="43.26809" lon="2.71675">
        <ele>55</ele>
        <time>2017-01-20T13:53:33Z</time>
      </trkpt>
      <trkpt lat="43.26809" lon="2.71675">
        <ele>55.1</ele>
        <time>2017-01-20T13:53:34Z</time>
      </trkpt>
      <trkpt lat="43.26809" lon="2.71675">
        <ele>55.2</ele>
        <time>2017-01-20T13:53:35Z</time>
      </trkpt>
      <trkpt lat="43.26809" lon="2.71675">
        <ele>55.2</ele>
        <time>2017-01-20T13:53:36Z</time>
      </trkpt>
      <trkpt lat="43.26806" lon="2.71668">
        <ele>55.2</ele>
        <time>2017-01-20T13:53:37Z</time>
      </trkpt>
      <trkpt lat="43.26806" lon="2.71668">
        <ele>55.3</ele>
        <time>2017-01-20T13:53:38Z</time>
      </trkpt>
      <trkpt lat="43.26806" lon="2.71668">
        <ele>55.3</ele>
        <time>2017-01-20T13:53:39Z</time>
      </trkpt>
      <trkpt lat="43.26804" lon="2.7166">
        <ele>55.3</ele>
        <time>2017-01-20T13:53:40Z</time>
      </trkpt>
      <trkpt lat="43.268" lon="2.71644">
        <ele>55</ele>
        <time>2017-01-20T13:53:45Z</time>
      </trkpt>
      <trkpt lat="43.26795" lon="2.7163">
        <ele>55.2</ele>
        <time>2017-01-20T13:53:50Z</time>
      </trkpt>
      <trkpt lat="43.26795" lon="2.7163">
        <ele>55.2</ele>
        <time>2017-01-20T13:53:51Z</time>
      </trkpt>
      <trkpt lat="43.26795" lon="2.7163">
        <ele>55.2</ele>
        <time>2017-01-20T13:53:52Z</time>
      </trkpt>
      <trkpt lat="43.26795" lon="2.7163">
        <ele>55.1</ele>
        <time>2017-01-20T13:53:53Z</time>
      </trkpt>
      <trkpt lat="43.26795" lon="2.7163">
        <ele>54.9</ele>
        <time>2017-01-20T13:53:54Z</time>
      </trkpt>
      <trkpt lat="43.26795" lon="2.7163">
        <ele>54.8</ele>
        <time>2017-01-20T13:53:55Z</time>
      </trkpt>
      <trkpt lat="43.26795" lon="2.7163">
        <ele>54.7</ele>
        <time>2017-01-20T13:53:56Z</time>
      </trkpt>
      <trkpt lat="43.26795" lon="2.7163">
        <ele>54.7</ele>
        <time>2017-01-20T13:53:57Z</time>
      </trkpt>
      <trkpt lat="43.26795" lon="2.7163">
        <ele>54.6</ele>
        <time>2017-01-20T13:53:58Z</time>
      </trkpt>
      <trkpt lat="43.26795" lon="2.7163">
        <ele>55</ele>
        <time>2017-01-20T13:53:59Z</time>
      </trkpt>
      <trkpt lat="43.26794" lon="2.71624">
        <ele>55.3</ele>
        <time>2017-01-20T13:54:00Z</time>
      </trkpt>
      <trkpt lat="43.26791" lon="2.71607">
        <ele>54.9</ele>
        <time>2017-01-20T13:54:04Z</time>
      </trkpt>
      <trkpt lat="43.26792" lon="2.71603">
        <ele>55</ele>
        <time>2017-01-20T13:54:05Z</time>
      </trkpt>
      <trkpt lat="43.26794" lon="2.71593">
        <ele>55.4</ele>
        <time>2017-01-20T13:54:08Z</time>
      </trkpt>
      <trkpt lat="43.26794" lon="2.71593">
        <ele>55.6</ele>
        <time>2017-01-20T13:54:09Z</time>
      </trkpt>
      <trkpt lat="43.26794" lon="2.71593">
        <ele>55.7</ele>
        <time>2017-01-20T13:54:10Z</time>
      </trkpt>
      <trkpt lat="43.26794" lon="2.71593">
        <ele>55.6</ele>
        <time>2017-01-20T13:54:11Z</time>
      </trkpt>
      <trkpt lat="43.26794" lon="2.71593">
        <ele>55.6</ele>
        <time>2017-01-20T13:54:12Z</time>
      </trkpt>
      <trkpt lat="43.26794" lon="2.71593">
        <ele>55.5</ele>
        <time>2017-01-20T13:54:13Z</time>
      </trkpt>
      <trkpt lat="43.26794" lon="2.71593">
        <ele>55.7</ele>
        <time>2017-01-20T13:54:14Z</time>
      </trkpt>
      <trkpt lat="43.26794" lon="2.71593">
        <ele>55.8</ele>
        <time>2017-01-20T13:54:15Z</time>
      </trkpt>
      <trkpt lat="43.26794" lon="2.71593">
        <ele>55.9</ele>
        <time>2017-01-20T13:54:16Z</time>
      </trkpt>
      <trkpt lat="43.26794" lon="2.71593">
        <ele>55.5</ele>
        <time>2017-01-20T13:54:17Z</time>
      </trkpt>
      <trkpt lat="43.26794" lon="2.71593">
        <ele>55.3</ele>
        <time>2017-01-20T13:54:18Z</time>
      </trkpt>
      <trkpt lat="43.26793" lon="2.71586">
        <ele>55.1</ele>
        <time>2017-01-20T13:54:19Z</time>
      </trkpt>
      <trkpt lat="43.26793" lon="2.71586">
        <ele>54.9</ele>
        <time>2017-01-20T13:54:20Z</time>
      </trkpt>
      <trkpt lat="43.26793" lon="2.71586">
        <ele>54.8</ele>
        <time>2017-01-20T13:54:21Z</time>
      </trkpt>
      <trkpt lat="43.26788" lon="2.71581">
        <ele>54.7</ele>
        <time>2017-01-20T13:54:22Z</time>
      </trkpt>
      <trkpt lat="43.26786" lon="2.71581">
        <ele>54.9</ele>
        <time>2017-01-20T13:54:23Z</time>
      </trkpt>
      <trkpt lat="43.26785" lon="2.7158">
        <ele>55</ele>
        <time>2017-01-20T13:54:24Z</time>
      </trkpt>
      <trkpt lat="43.26783" lon="2.71578">
        <ele>55.1</ele>
        <time>2017-01-20T13:54:25Z</time>
      </trkpt>
      <trkpt lat="43.26782" lon="2.71575">
        <ele>55.4</ele>
        <time>2017-01-20T13:54:26Z</time>
      </trkpt>
      <trkpt lat="43.26782" lon="2.71572">
        <ele>55.6</ele>
        <time>2017-01-20T13:54:27Z</time>
      </trkpt>
      <trkpt lat="43.26774" lon="2.71535">
        <ele>55.2</ele>
        <time>2017-01-20T13:54:41Z</time>
      </trkpt>
      <trkpt lat="43.26775" lon="2.71534">
        <ele>54.5</ele>
        <time>2017-01-20T13:54:51Z</time>
      </trkpt>
      <trkpt lat="43.26775" lon="2.71534">
        <ele>54.5</ele>
        <time>2017-01-20T13:54:52Z</time>
      </trkpt>
      <trkpt lat="43.26775" lon="2.71534">
        <ele>54.7</ele>
        <time>2017-01-20T13:54:53Z</time>
      </trkpt>
      <trkpt lat="43.26775" lon="2.71534">
        <ele>54.9</ele>
        <time>2017-01-20T13:54:54Z</time>
      </trkpt>
      <trkpt lat="43.26775" lon="2.71533">
        <ele>55</ele>
        <time>2017-01-20T13:54:55Z</time>
      </trkpt>
      <trkpt lat="43.26775" lon="2.71532">
        <ele>55.1</ele>
        <time>2017-01-20T13:54:56Z</time>
      </trkpt>
      <trkpt lat="43.26775" lon="2.7153">
        <ele>55.1</ele>
        <time>2017-01-20T13:54:57Z</time>
      </trkpt>
      <trkpt lat="43.26759" lon="2.71464">
        <ele>54.8</ele>
        <time>2017-01-20T13:55:11Z</time>
      </trkpt>
      <trkpt lat="43.26732" lon="2.71342">
        <ele>55.6</ele>
        <time>2017-01-20T13:55:32Z</time>
      </trkpt>
      <trkpt lat="43.26731" lon="2.71336">
        <ele>55.5</ele>
        <time>2017-01-20T13:55:33Z</time>
      </trkpt>
      <trkpt lat="43.26727" lon="2.7131">
        <ele>55.1</ele>
        <time>2017-01-20T13:55:40Z</time>
      </trkpt>
      <trkpt lat="43.26727" lon="2.7131">
        <ele>54.7</ele>
        <time>2017-01-20T13:55:41Z</time>
      </trkpt>
      <trkpt lat="43.26727" lon="2.7131">
        <ele>54.5</ele>
        <time>2017-01-20T13:55:42Z</time>
      </trkpt>
      <trkpt lat="43.26727" lon="2.7131">
        <ele>54.3</ele>
        <time>2017-01-20T13:55:43Z</time>
      </trkpt>
      <trkpt lat="43.26727" lon="2.7131">
        <ele>54.5</ele>
        <time>2017-01-20T13:55:44Z</time>
      </trkpt>
      <trkpt lat="43.26727" lon="2.7131">
        <ele>54.7</ele>
        <time>2017-01-20T13:55:45Z</time>
      </trkpt>
      <trkpt lat="43.26727" lon="2.7131">
        <ele>54.9</ele>
        <time>2017-01-20T13:55:46Z</time>
      </trkpt>
      <trkpt lat="43.26727" lon="2.7131">
        <ele>55</ele>
        <time>2017-01-20T13:55:47Z</time>
      </trkpt>
      <trkpt lat="43.26726" lon="2.71306">
        <ele>55.1</ele>
        <time>2017-01-20T13:55:48Z</time>
      </trkpt>
      <trkpt lat="43.26692" lon="2.71148">
        <ele>54.5</ele>
        <time>2017-01-20T13:56:20Z</time>
      </trkpt>
      <trkpt lat="43.26692" lon="2.71148">
        <ele>54.5</ele>
        <time>2017-01-20T13:56:21Z</time>
      </trkpt>
      <trkpt lat="43.26692" lon="2.71148">
        <ele>54.5</ele>
        <time>2017-01-20T13:56:22Z</time>
      </trkpt>
      <trkpt lat="43.26692" lon="2.71148">
        <ele>54.5</ele>
        <time>2017-01-20T13:56:23Z</time>
      </trkpt>
      <trkpt lat="43.26692" lon="2.71148">
        <ele>54.5</ele>
        <time>2017-01-20T13:56:24Z</time>
      </trkpt>
      <trkpt lat="43.26692" lon="2.71148">
        <ele>54.5</ele>
        <time>2017-01-20T13:56:25Z</time>
      </trkpt>
      <trkpt lat="43.26692" lon="2.71148">
        <ele>54.5</ele>
        <time>2017-01-20T13:56:26Z</time>
      </trkpt>
      <trkpt lat="43.26692" lon="2.71148">
        <ele>54.5</ele>
        <time>2017-01-20T13:56:27Z</time>
      </trkpt>
      <trkpt lat="43.26692" lon="2.71148">
        <ele>54.5</ele>
        <time>2017-01-20T13:56:28Z</time>
      </trkpt>
      <trkpt lat="43.26691" lon="2.71143">
        <ele>54.5</ele>
        <time>2017-01-20T13:56:29Z</time>
      </trkpt>
      <trkpt lat="43.26689" lon="2.71135">
        <ele>54.5</ele>
        <time>2017-01-20T13:56:31Z</time>
      </trkpt>
      <trkpt lat="43.26671" lon="2.71006">
        <ele>55</ele>
        <time>2017-01-20T13:56:50Z</time>
      </trkpt>
      <trkpt lat="43.26671" lon="2.71006">
        <ele>55.1</ele>
        <time>2017-01-20T13:56:51Z</time>
      </trkpt>
      <trkpt lat="43.26671" lon="2.71006">
        <ele>54.7</ele>
        <time>2017-01-20T13:56:52Z</time>
      </trkpt>
      <trkpt lat="43.26671" lon="2.71006">
        <ele>54.5</ele>
        <time>2017-01-20T13:56:53Z</time>
      </trkpt>
      <trkpt lat="43.26671" lon="2.71006">
        <ele>54.3</ele>
        <time>2017-01-20T13:56:54Z</time>
      </trkpt>
      <trkpt lat="43.26671" lon="2.71006">
        <ele>53.7</ele>
        <time>2017-01-20T13:56:55Z</time>
      </trkpt>
      <trkpt lat="43.26671" lon="2.71006">
        <ele>53.3</ele>
        <time>2017-01-20T13:56:56Z</time>
      </trkpt>
      <trkpt lat="43.26671" lon="2.71006">
        <ele>53</ele>
        <time>2017-01-20T13:56:57Z</time>
      </trkpt>
      <trkpt lat="43.26671" lon="2.71001">
        <ele>53.4</ele>
        <time>2017-01-20T13:56:58Z</time>
      </trkpt>
      <trkpt lat="43.26681" lon="2.70549">
        <ele>54.3</ele>
        <time>2017-01-20T13:58:07Z</time>
      </trkpt>
      <trkpt lat="43.26681" lon="2.70549">
        <ele>54.5</ele>
        <time>2017-01-20T13:58:08Z</time>
      </trkpt>
      <trkpt lat="43.26681" lon="2.70549">
        <ele>54.9</ele>
        <time>2017-01-20T13:58:10Z</time>
      </trkpt>
      <trkpt lat="43.26681" lon="2.70549">
        <ele>55</ele>
        <time>2017-01-20T13:58:11Z</time>
      </trkpt>
      <trkpt lat="43.26681" lon="2.70549">
        <ele>55.1</ele>
        <time>2017-01-20T13:58:12Z</time>
      </trkpt>
      <trkpt lat="43.26681" lon="2.70549">
        <ele>55.1</ele>
        <time>2017-01-20T13:58:13Z</time>
      </trkpt>
      <trkpt lat="43.26681" lon="2.70549">
        <ele>55.4</ele>
        <time>2017-01-20T13:58:14Z</time>
      </trkpt>
      <trkpt lat="43.26681" lon="2.70549">
        <ele>55.6</ele>
        <time>2017-01-20T13:58:15Z</time>
      </trkpt>
      <trkpt lat="43.26681" lon="2.70549">
        <ele>55.7</ele>
        <time>2017-01-20T13:58:16Z</time>
      </trkpt>
      <trkpt lat="43.26681" lon="2.70549">
        <ele>55.6</ele>
        <time>2017-01-20T13:58:17Z</time>
      </trkpt>
      <trkpt lat="43.26681" lon="2.70549">
        <ele>55.6</ele>
        <time>2017-01-20T13:58:18Z</time>
      </trkpt>
      <trkpt lat="43.26681" lon="2.70549">
        <ele>55.5</ele>
        <time>2017-01-20T13:58:19Z</time>
      </trkpt>
      <trkpt lat="43.26681" lon="2.70549">
        <ele>55.7</ele>
        <time>2017-01-20T13:58:20Z</time>
      </trkpt>
      <trkpt lat="43.26681" lon="2.70549">
        <ele>55.8</ele>
        <time>2017-01-20T13:58:21Z</time>
      </trkpt>
      <trkpt lat="43.26681" lon="2.70549">
        <ele>55.9</ele>
        <time>2017-01-20T13:58:22Z</time>
      </trkpt>
      <trkpt lat="43.26681" lon="2.70549">
        <ele>55.9</ele>
        <time>2017-01-20T13:58:23Z</time>
      </trkpt>
      <trkpt lat="43.26681" lon="2.70549">
        <ele>56</ele>
        <time>2017-01-20T13:58:24Z</time>
      </trkpt>
      <trkpt lat="43.26681" lon="2.70549">
        <ele>56</ele>
        <time>2017-01-20T13:58:25Z</time>
      </trkpt>
      <trkpt lat="43.2668" lon="2.70547">
        <ele>56.1</ele>
        <time>2017-01-20T13:58:26Z</time>
      </trkpt>
      <trkpt lat="43.26679" lon="2.70541">
        <ele>56.1</ele>
        <time>2017-01-20T13:58:28Z</time>
      </trkpt>
      <trkpt lat="43.26676" lon="2.70527">
        <ele>56.1</ele>
        <time>2017-01-20T13:58:31Z</time>
      </trkpt>
      <trkpt lat="43.2667" lon="2.7048">
        <ele>55.8</ele>
        <time>2017-01-20T13:58:39Z</time>
      </trkpt>
      <trkpt lat="43.26667" lon="2.70475">
        <ele>55.9</ele>
        <time>2017-01-20T13:58:40Z</time>
      </trkpt>
      <trkpt lat="43.26662" lon="2.70458">
        <ele>55.1</ele>
        <time>2017-01-20T13:58:43Z</time>
      </trkpt>
      <trkpt lat="43.26636" lon="2.70358">
        <ele>55</ele>
        <time>2017-01-20T13:58:58Z</time>
      </trkpt>
      <trkpt lat="43.26635" lon="2.70357">
        <ele>54.9</ele>
        <time>2017-01-20T13:58:59Z</time>
      </trkpt>
      <trkpt lat="43.26635" lon="2.70357">
        <ele>54.8</ele>
        <time>2017-01-20T13:59:05Z</time>
      </trkpt>
      <trkpt lat="43.26635" lon="2.70357">
        <ele>54.9</ele>
        <time>2017-01-20T13:59:06Z</time>
      </trkpt>
      <trkpt lat="43.26635" lon="2.70357">
        <ele>55</ele>
        <time>2017-01-20T13:59:07Z</time>
      </trkpt>
      <trkpt lat="43.26635" lon="2.70357">
        <ele>55.3</ele>
        <time>2017-01-20T13:59:08Z</time>
      </trkpt>
      <trkpt lat="43.26632" lon="2.70355">
        <ele>55.5</ele>
        <time>2017-01-20T13:59:09Z</time>
      </trkpt>
      <trkpt lat="43.2663" lon="2.70356">
        <ele>55.7</ele>
        <time>2017-01-20T13:59:10Z</time>
      </trkpt>
      <trkpt lat="43.26627" lon="2.70358">
        <ele>55.6</ele>
        <time>2017-01-20T13:59:11Z</time>
      </trkpt>
      <trkpt lat="43.26609" lon="2.70367">
        <ele>55.9</ele>
        <time>2017-01-20T13:59:16Z</time>
      </trkpt>
      <trkpt lat="43.26588" lon="2.70373">
        <ele>56.1</ele>
        <time>2017-01-20T13:59:21Z</time>
      </trkpt>
      <trkpt lat="43.26563" lon="2.70378">
        <ele>56.1</ele>
        <time>2017-01-20T13:59:28Z</time>
      </trkpt>
      <trkpt lat="43.26559" lon="2.70377">
        <ele>55.9</ele>
        <time>2017-01-20T13:59:29Z</time>
      </trkpt>
      <trkpt lat="43.26555" lon="2.70375">
        <ele>55.8</ele>
        <time>2017-01-20T13:59:30Z</time>
      </trkpt>
      <trkpt lat="43.26553" lon="2.70371">
        <ele>55.7</ele>
        <time>2017-01-20T13:59:31Z</time>
      </trkpt>
      <trkpt lat="43.26552" lon="2.70367">
        <ele>55.8</ele>
        <time>2017-01-20T13:59:32Z</time>
      </trkpt>
      <trkpt lat="43.26551" lon="2.70352">
        <ele>56.1</ele>
        <time>2017-01-20T13:59:37Z</time>
      </trkpt>
      <trkpt lat="43.26551" lon="2.70352">
        <ele>56.1</ele>
        <time>2017-01-20T13:59:38Z</time>
      </trkpt>
      <trkpt lat="43.26551" lon="2.70352">
        <ele>56.1</ele>
        <time>2017-01-20T13:59:39Z</time>
      </trkpt>
      <trkpt lat="43.26551" lon="2.70352">
        <ele>56.1</ele>
        <time>2017-01-20T13:59:40Z</time>
      </trkpt>
      <trkpt lat="43.26551" lon="2.70352">
        <ele>55.9</ele>
        <time>2017-01-20T13:59:41Z</time>
      </trkpt>
      <trkpt lat="43.26551" lon="2.70352">
        <ele>55.8</ele>
        <time>2017-01-20T13:59:42Z</time>
      </trkpt>
      <trkpt lat="43.26551" lon="2.70352">
        <ele>55.7</ele>
        <time>2017-01-20T13:59:43Z</time>
      </trkpt>
      <trkpt lat="43.2655" lon="2.70349">
        <ele>55.6</ele>
        <time>2017-01-20T13:59:44Z</time>
      </trkpt>
      <trkpt lat="43.26549" lon="2.70346">
        <ele>55.5</ele>
        <time>2017-01-20T13:59:45Z</time>
      </trkpt>
      <trkpt lat="43.26519" lon="2.70274">
        <ele>54.8</ele>
        <time>2017-01-20T13:59:59Z</time>
      </trkpt>
      <trkpt lat="43.26512" lon="2.70256">
        <ele>55.3</ele>
        <time>2017-01-20T14:00:02Z</time>
      </trkpt>
      <trkpt lat="43.2651" lon="2.7025">
        <ele>55.5</ele>
        <time>2017-01-20T14:00:03Z</time>
      </trkpt>
      <trkpt lat="43.26505" lon="2.70199">
        <ele>54.7</ele>
        <time>2017-01-20T14:00:11Z</time>
      </trkpt>
      <trkpt lat="43.26505" lon="2.70193">
        <ele>54.9</ele>
        <time>2017-01-20T14:00:12Z</time>
      </trkpt>
      <trkpt lat="43.26507" lon="2.70187">
        <ele>55</ele>
        <time>2017-01-20T14:00:13Z</time>
      </trkpt>
      <trkpt lat="43.2651" lon="2.70182">
        <ele>54.9</ele>
        <time>2017-01-20T14:00:14Z</time>
      </trkpt>
      <trkpt lat="43.26514" lon="2.70179">
        <ele>54.8</ele>
        <time>2017-01-20T14:00:15Z</time>
      </trkpt>
      <trkpt lat="43.26522" lon="2.70175">
        <ele>55.1</ele>
        <time>2017-01-20T14:00:17Z</time>
      </trkpt>
      <trkpt lat="43.26527" lon="2.70174">
        <ele>55.3</ele>
        <time>2017-01-20T14:00:18Z</time>
      </trkpt>
      <trkpt lat="43.26531" lon="2.70173">
        <ele>55.5</ele>
        <time>2017-01-20T14:00:19Z</time>
      </trkpt>
      <trkpt lat="43.26583" lon="2.70154">
        <ele>56</ele>
        <time>2017-01-20T14:00:32Z</time>
      </trkpt>
      <trkpt lat="43.26584" lon="2.70151">
        <ele>56.1</ele>
        <time>2017-01-20T14:00:33Z</time>
      </trkpt>
      <trkpt lat="43.26584" lon="2.70147">
        <ele>56.1</ele>
        <time>2017-01-20T14:00:34Z</time>
      </trkpt>
      <trkpt lat="43.26584" lon="2.70144">
        <ele>55.9</ele>
        <time>2017-01-20T14:00:35Z</time>
      </trkpt>
      <trkpt lat="43.26584" lon="2.70143">
        <ele>55</ele>
        <time>2017-01-20T14:00:41Z</time>
      </trkpt>
      <trkpt lat="43.26584" lon="2.70138">
        <ele>54.4</ele>
        <time>2017-01-20T14:00:44Z</time>
      </trkpt>
      <trkpt lat="43.26583" lon="2.70135">
        <ele>54.5</ele>
        <time>2017-01-20T14:00:45Z</time>
      </trkpt>
      <trkpt lat="43.26575" lon="2.70107">
        <ele>55</ele>
        <time>2017-01-20T14:00:51Z</time>
      </trkpt>
      <trkpt lat="43.2648" lon="2.69843">
        <ele>54.6</ele>
        <time>2017-01-20T14:01:39Z</time>
      </trkpt>
      <trkpt lat="43.26478" lon="2.69839">
        <ele>54.6</ele>
        <time>2017-01-20T14:01:40Z</time>
      </trkpt>
      <trkpt lat="43.2647" lon="2.69824">
        <ele>54.7</ele>
        <time>2017-01-20T14:01:47Z</time>
      </trkpt>
      <trkpt lat="43.2647" lon="2.69824">
        <ele>54.6</ele>
        <time>2017-01-20T14:01:48Z</time>
      </trkpt>
      <trkpt lat="43.2647" lon="2.69824">
        <ele>54.6</ele>
        <time>2017-01-20T14:01:49Z</time>
      </trkpt>
      <trkpt lat="43.2647" lon="2.69824">
        <ele>54.8</ele>
        <time>2017-01-20T14:01:50Z</time>
      </trkpt>
      <trkpt lat="43.2647" lon="2.69824">
        <ele>54.9</ele>
        <time>2017-01-20T14:01:51Z</time>
      </trkpt>
      <trkpt lat="43.2647" lon="2.69824">
        <ele>55</ele>
        <time>2017-01-20T14:01:52Z</time>
      </trkpt>
      <trkpt lat="43.2647" lon="2.69824">
        <ele>55.1</ele>
        <time>2017-01-20T14:01:53Z</time>
      </trkpt>
      <trkpt lat="43.2647" lon="2.69822">
        <ele>55.2</ele>
        <time>2017-01-20T14:01:54Z</time>
      </trkpt>
      <trkpt lat="43.26469" lon="2.6982">
        <ele>55.2</ele>
        <time>2017-01-20T14:01:55Z</time>
      </trkpt>
      <trkpt lat="43.26457" lon="2.69791">
        <ele>55.7</ele>
        <time>2017-01-20T14:02:04Z</time>
      </trkpt>
      <trkpt lat="43.26457" lon="2.69789">
        <ele>55.8</ele>
        <time>2017-01-20T14:02:05Z</time>
      </trkpt>
      <trkpt lat="43.26457" lon="2.69789">
        <ele>55.9</ele>
        <time>2017-01-20T14:02:06Z</time>
      </trkpt>
      <trkpt lat="43.26457" lon="2.69789">
        <ele>56</ele>
        <time>2017-01-20T14:02:07Z</time>
      </trkpt>
      <trkpt lat="43.26457" lon="2.69789">
        <ele>56.4</ele>
        <time>2017-01-20T14:02:08Z</time>
      </trkpt>
      <trkpt lat="43.26457" lon="2.69789">
        <ele>56.8</ele>
        <time>2017-01-20T14:02:09Z</time>
      </trkpt>
      <trkpt lat="43.26457" lon="2.69789">
        <ele>57</ele>
        <time>2017-01-20T14:02:10Z</time>
      </trkpt>
      <trkpt lat="43.26457" lon="2.69789">
        <ele>57.4</ele>
        <time>2017-01-20T14:02:11Z</time>
      </trkpt>
      <trkpt lat="43.26457" lon="2.69789">
        <ele>57.7</ele>
        <time>2017-01-20T14:02:12Z</time>
      </trkpt>
      <trkpt lat="43.26458" lon="2.69786">
        <ele>58</ele>
        <time>2017-01-20T14:02:13Z</time>
      </trkpt>
      <trkpt lat="43.2646" lon="2.69785">
        <ele>58.1</ele>
        <time>2017-01-20T14:02:14Z</time>
      </trkpt>
      <trkpt lat="43.26469" lon="2.69777">
        <ele>59.6</ele>
        <time>2017-01-20T14:02:24Z</time>
      </trkpt>
      <trkpt lat="43.26469" lon="2.69777">
        <ele>59.8</ele>
        <time>2017-01-20T14:02:25Z</time>
      </trkpt>
      <trkpt lat="43.26469" lon="2.69777">
        <ele>60.1</ele>
        <time>2017-01-20T14:02:26Z</time>
      </trkpt>
      <trkpt lat="43.26469" lon="2.69777">
        <ele>60.4</ele>
        <time>2017-01-20T14:02:27Z</time>
      </trkpt>
      <trkpt lat="43.26469" lon="2.69777">
        <ele>60.6</ele>
        <time>2017-01-20T14:02:28Z</time>
      </trkpt>
      <trkpt lat="43.26469" lon="2.69777">
        <ele>60.5</ele>
        <time>2017-01-20T14:02:29Z</time>
      </trkpt>
      <trkpt lat="43.26469" lon="2.69777">
        <ele>60.4</ele>
        <time>2017-01-20T14:02:30Z</time>
      </trkpt>
      <trkpt lat="43.26469" lon="2.69777">
        <ele>60.4</ele>
        <time>2017-01-20T14:02:31Z</time>
      </trkpt>
      <trkpt lat="43.26469" lon="2.69777">
        <ele>60.2</ele>
        <time>2017-01-20T14:02:32Z</time>
      </trkpt>
      <trkpt lat="43.26469" lon="2.69777">
        <ele>60</ele>
        <time>2017-01-20T14:02:33Z</time>
      </trkpt>
      <trkpt lat="43.26469" lon="2.69777">
        <ele>59.9</ele>
        <time>2017-01-20T14:02:34Z</time>
      </trkpt>
      <trkpt lat="43.26469" lon="2.69777">
        <ele>60</ele>
        <time>2017-01-20T14:02:35Z</time>
      </trkpt>
      <trkpt lat="43.26469" lon="2.69777">
        <ele>60.1</ele>
        <time>2017-01-20T14:02:36Z</time>
      </trkpt>
      <trkpt lat="43.26467" lon="2.69776">
        <ele>60.1</ele>
        <time>2017-01-20T14:02:37Z</time>
      </trkpt>
      <trkpt lat="43.26466" lon="2.69776">
        <ele>60</ele>
        <time>2017-01-20T14:02:38Z</time>
      </trkpt>
      <trkpt lat="43.26464" lon="2.69777">
        <ele>59.8</ele>
        <time>2017-01-20T14:02:39Z</time>
      </trkpt>
      <trkpt lat="43.26459" lon="2.69784">
        <ele>59.9</ele>
        <time>2017-01-20T14:02:44Z</time>
      </trkpt>
      <trkpt lat="43.26458" lon="2.69785">
        <ele>59.8</ele>
        <time>2017-01-20T14:02:45Z</time>
      </trkpt>
      <trkpt lat="43.26457" lon="2.69787">
        <ele>59.7</ele>
        <time>2017-01-20T14:02:47Z</time>
      </trkpt>
      <trkpt lat="43.26457" lon="2.69787">
        <ele>59.6</ele>
        <time>2017-01-20T14:02:48Z</time>
      </trkpt>
      <trkpt lat="43.26457" lon="2.69787">
        <ele>59.6</ele>
        <time>2017-01-20T14:02:49Z</time>
      </trkpt>
      <trkpt lat="43.26457" lon="2.69787">
        <ele>59.8</ele>
        <time>2017-01-20T14:02:50Z</time>
      </trkpt>
      <trkpt lat="43.26457" lon="2.69787">
        <ele>59.9</ele>
        <time>2017-01-20T14:02:51Z</time>
      </trkpt>
      <trkpt lat="43.26457" lon="2.69787">
        <ele>60</ele>
        <time>2017-01-20T14:02:52Z</time>
      </trkpt>
      <trkpt lat="43.26457" lon="2.69787">
        <ele>60.1</ele>
        <time>2017-01-20T14:02:53Z</time>
      </trkpt>
      <trkpt lat="43.26455" lon="2.69784">
        <ele>60.1</ele>
        <time>2017-01-20T14:02:54Z</time>
      </trkpt>
      <trkpt lat="43.26454" lon="2.69779">
        <ele>59.8</ele>
        <time>2017-01-20T14:02:56Z</time>
      </trkpt>
      <trkpt lat="43.26452" lon="2.69772">
        <ele>59.3</ele>
        <time>2017-01-20T14:02:58Z</time>
      </trkpt>
      <trkpt lat="43.26435" lon="2.697">
        <ele>56.8</ele>
        <time>2017-01-20T14:03:08Z</time>
      </trkpt>
      <trkpt lat="43.26412" lon="2.69626">
        <ele>55</ele>
        <time>2017-01-20T14:03:20Z</time>
      </trkpt>
      <trkpt lat="43.2641" lon="2.69623">
        <ele>55.1</ele>
        <time>2017-01-20T14:03:21Z</time>
      </trkpt>
      <trkpt lat="43.26409" lon="2.69621">
        <ele>55.2</ele>
        <time>2017-01-20T14:03:23Z</time>
      </trkpt>
      <trkpt lat="43.26408" lon="2.69621">
        <ele>55.3</ele>
        <time>2017-01-20T14:03:25Z</time>
      </trkpt>
      <trkpt lat="43.26408" lon="2.69621">
        <ele>55.1</ele>
        <time>2017-01-20T14:03:26Z</time>
      </trkpt>
      <trkpt lat="43.26409" lon="2.69624">
        <ele>54.9</ele>
        <time>2017-01-20T14:03:27Z</time>
      </trkpt>
      <trkpt lat="43.2641" lon="2.69625">
        <ele>54.8</ele>
        <time>2017-01-20T14:03:28Z</time>
      </trkpt>
      <trkpt lat="43.2641" lon="2.69626">
        <ele>55</ele>
        <time>2017-01-20T14:03:29Z</time>
      </trkpt>
      <trkpt lat="43.2641" lon="2.69626">
        <ele>55</ele>
        <time>2017-01-20T14:03:30Z</time>
      </trkpt>
      <trkpt lat="43.2641" lon="2.69626">
        <ele>55.1</ele>
        <time>2017-01-20T14:03:31Z</time>
      </trkpt>
      <trkpt lat="43.2641" lon="2.69626">
        <ele>55</ele>
        <time>2017-01-20T14:03:32Z</time>
      </trkpt>
      <trkpt lat="43.2641" lon="2.69626">
        <ele>54.8</ele>
        <time>2017-01-20T14:03:33Z</time>
      </trkpt>
      <trkpt lat="43.2641" lon="2.69626">
        <ele>54.8</ele>
        <time>2017-01-20T14:03:34Z</time>
      </trkpt>
      <trkpt lat="43.2641" lon="2.69626">
        <ele>54.9</ele>
        <time>2017-01-20T14:03:35Z</time>
      </trkpt>
      <trkpt lat="43.2641" lon="2.69626">
        <ele>55</ele>
        <time>2017-01-20T14:03:36Z</time>
      </trkpt>
      <trkpt lat="43.2641" lon="2.69626">
        <ele>55.1</ele>
        <time>2017-01-20T14:03:37Z</time>
      </trkpt>
      <trkpt lat="43.2641" lon="2.69626">
        <ele>55.2</ele>
        <time>2017-01-20T14:03:38Z</time>
      </trkpt>
      <trkpt lat="43.2641" lon="2.69626">
        <ele>55.2</ele>
        <time>2017-01-20T14:03:39Z</time>
      </trkpt>
      <trkpt lat="43.2641" lon="2.69624">
        <ele>55.2</ele>
        <time>2017-01-20T14:03:40Z</time>
      </trkpt>
      <trkpt lat="43.26409" lon="2.69623">
        <ele>55.5</ele>
        <time>2017-01-20T14:03:41Z</time>
      </trkpt>
      <trkpt lat="43.26408" lon="2.69621">
        <ele>55.6</ele>
        <time>2017-01-20T14:03:42Z</time>
      </trkpt>
      <trkpt lat="43.26392" lon="2.69599">
        <ele>56.1</ele>
        <time>2017-01-20T14:03:49Z</time>
      </trkpt>
      <trkpt lat="43.2639" lon="2.69594">
        <ele>55.7</ele>
        <time>2017-01-20T14:03:50Z</time>
      </trkpt>
      <trkpt lat="43.26313" lon="2.69373">
        <ele>55.4</ele>
        <time>2017-01-20T14:04:27Z</time>
      </trkpt>
      <trkpt lat="43.26312" lon="2.69369">
        <ele>55.4</ele>
        <time>2017-01-20T14:04:28Z</time>
      </trkpt>
      <trkpt lat="43.26311" lon="2.69366">
        <ele>55.6</ele>
        <time>2017-01-20T14:04:33Z</time>
      </trkpt>
      <trkpt lat="43.26311" lon="2.69366">
        <ele>55.5</ele>
        <time>2017-01-20T14:04:34Z</time>
      </trkpt>
      <trkpt lat="43.26311" lon="2.69366">
        <ele>55.7</ele>
        <time>2017-01-20T14:04:35Z</time>
      </trkpt>
      <trkpt lat="43.26311" lon="2.69366">
        <ele>55.8</ele>
        <time>2017-01-20T14:04:36Z</time>
      </trkpt>
      <trkpt lat="43.26311" lon="2.69366">
        <ele>55.9</ele>
        <time>2017-01-20T14:04:37Z</time>
      </trkpt>
      <trkpt lat="43.2631" lon="2.69363">
        <ele>56</ele>
        <time>2017-01-20T14:04:38Z</time>
      </trkpt>
      <trkpt lat="43.26308" lon="2.69362">
        <ele>56</ele>
        <time>2017-01-20T14:04:39Z</time>
      </trkpt>
      <trkpt lat="43.26307" lon="2.69359">
        <ele>56</ele>
        <time>2017-01-20T14:04:40Z</time>
      </trkpt>
      <trkpt lat="43.2629" lon="2.69294">
        <ele>56.4</ele>
        <time>2017-01-20T14:04:52Z</time>
      </trkpt>
      <trkpt lat="43.26289" lon="2.69286">
        <ele>56.1</ele>
        <time>2017-01-20T14:04:53Z</time>
      </trkpt>
      <trkpt lat="43.26188" lon="2.68735">
        <ele>56.7</ele>
        <time>2017-01-20T14:05:59Z</time>
      </trkpt>
      <trkpt lat="43.26189" lon="2.68715">
        <ele>57</ele>
        <time>2017-01-20T14:06:02Z</time>
      </trkpt>
      <trkpt lat="43.26191" lon="2.68709">
        <ele>57.7</ele>
        <time>2017-01-20T14:06:04Z</time>
      </trkpt>
      <trkpt lat="43.26191" lon="2.68709">
        <ele>58</ele>
        <time>2017-01-20T14:06:05Z</time>
      </trkpt>
      <trkpt lat="43.26191" lon="2.68709">
        <ele>58.1</ele>
        <time>2017-01-20T14:06:06Z</time>
      </trkpt>
      <trkpt lat="43.26191" lon="2.68709">
        <ele>58.3</ele>
        <time>2017-01-20T14:06:07Z</time>
      </trkpt>
      <trkpt lat="43.26191" lon="2.68709">
        <ele>58.6</ele>
        <time>2017-01-20T14:06:08Z</time>
      </trkpt>
      <trkpt lat="43.26191" lon="2.68709">
        <ele>58.8</ele>
        <time>2017-01-20T14:06:09Z</time>
      </trkpt>
      <trkpt lat="43.26191" lon="2.68709">
        <ele>59</ele>
        <time>2017-01-20T14:06:10Z</time>
      </trkpt>
      <trkpt lat="43.26191" lon="2.68709">
        <ele>59.1</ele>
        <time>2017-01-20T14:06:11Z</time>
      </trkpt>
      <trkpt lat="43.26191" lon="2.68709">
        <ele>59.2</ele>
        <time>2017-01-20T14:06:12Z</time>
      </trkpt>
      <trkpt lat="43.26191" lon="2.68709">
        <ele>59.3</ele>
        <time>2017-01-20T14:06:13Z</time>
      </trkpt>
      <trkpt lat="43.26191" lon="2.68709">
        <ele>58.7</ele>
        <time>2017-01-20T14:06:14Z</time>
      </trkpt>
      <trkpt lat="43.26191" lon="2.68709">
        <ele>58.3</ele>
        <time>2017-01-20T14:06:15Z</time>
      </trkpt>
      <trkpt lat="43.26191" lon="2.68709">
        <ele>57.9</ele>
        <time>2017-01-20T14:06:16Z</time>
      </trkpt>
      <trkpt lat="43.26191" lon="2.68709">
        <ele>58.3</ele>
        <time>2017-01-20T14:06:17Z</time>
      </trkpt>
      <trkpt lat="43.26191" lon="2.68707">
        <ele>58.6</ele>
        <time>2017-01-20T14:06:18Z</time>
      </trkpt>
      <trkpt lat="43.26191" lon="2.68707">
        <ele>58.8</ele>
        <time>2017-01-20T14:06:19Z</time>
      </trkpt>
      <trkpt lat="43.26191" lon="2.68703">
        <ele>58.7</ele>
        <time>2017-01-20T14:06:22Z</time>
      </trkpt>
      <trkpt lat="43.2619" lon="2.68694">
        <ele>58.2</ele>
        <time>2017-01-20T14:06:25Z</time>
      </trkpt>
      <trkpt lat="43.26189" lon="2.68691">
        <ele>58.3</ele>
        <time>2017-01-20T14:06:26Z</time>
      </trkpt>
      <trkpt lat="43.26181" lon="2.68663">
        <ele>59</ele>
        <time>2017-01-20T14:06:33Z</time>
      </trkpt>
      <trkpt lat="43.26179" lon="2.6866">
        <ele>59.1</ele>
        <time>2017-01-20T14:06:34Z</time>
      </trkpt>
      <trkpt lat="43.26178" lon="2.68657">
        <ele>58.9</ele>
        <time>2017-01-20T14:06:36Z</time>
      </trkpt>
      <trkpt lat="43.26181" lon="2.68656">
        <ele>59</ele>
        <time>2017-01-20T14:06:38Z</time>
      </trkpt>
      <trkpt lat="43.26183" lon="2.68659">
        <ele>59.1</ele>
        <time>2017-01-20T14:06:39Z</time>
      </trkpt>
      <trkpt lat="43.26184" lon="2.68663">
        <ele>59.5</ele>
        <time>2017-01-20T14:06:41Z</time>
      </trkpt>
      <trkpt lat="43.26184" lon="2.68666">
        <ele>59.7</ele>
        <time>2017-01-20T14:06:42Z</time>
      </trkpt>
      <trkpt lat="43.26184" lon="2.68666">
        <ele>59.8</ele>
        <time>2017-01-20T14:06:43Z</time>
      </trkpt>
      <trkpt lat="43.26184" lon="2.68666">
        <ele>59.7</ele>
        <time>2017-01-20T14:06:44Z</time>
      </trkpt>
      <trkpt lat="43.2618" lon="2.68665">
        <ele>59.7</ele>
        <time>2017-01-20T14:06:45Z</time>
      </trkpt>
      <trkpt lat="43.2618" lon="2.68665">
        <ele>59.6</ele>
        <time>2017-01-20T14:06:46Z</time>
      </trkpt>
      <trkpt lat="43.26178" lon="2.68658">
        <ele>59.4</ele>
        <time>2017-01-20T14:06:47Z</time>
      </trkpt>
      <trkpt lat="43.26179" lon="2.68656">
        <ele>59.2</ele>
        <time>2017-01-20T14:06:48Z</time>
      </trkpt>
      <trkpt lat="43.26179" lon="2.68656">
        <ele>59.1</ele>
        <time>2017-01-20T14:06:49Z</time>
      </trkpt>
      <trkpt lat="43.26179" lon="2.68656">
        <ele>59.2</ele>
        <time>2017-01-20T14:06:50Z</time>
      </trkpt>
      <trkpt lat="43.26179" lon="2.68656">
        <ele>59.2</ele>
        <time>2017-01-20T14:06:51Z</time>
      </trkpt>
      <trkpt lat="43.26179" lon="2.68656">
        <ele>59.3</ele>
        <time>2017-01-20T14:06:52Z</time>
      </trkpt>
      <trkpt lat="43.26179" lon="2.68656">
        <ele>59.1</ele>
        <time>2017-01-20T14:06:53Z</time>
      </trkpt>
      <trkpt lat="43.26179" lon="2.68656">
        <ele>59</ele>
        <time>2017-01-20T14:06:54Z</time>
      </trkpt>
      <trkpt lat="43.26179" lon="2.68656">
        <ele>58.9</ele>
        <time>2017-01-20T14:06:55Z</time>
      </trkpt>
      <trkpt lat="43.26179" lon="2.68656">
        <ele>58.8</ele>
        <time>2017-01-20T14:06:56Z</time>
      </trkpt>
      <trkpt lat="43.26179" lon="2.68656">
        <ele>58.8</ele>
        <time>2017-01-20T14:06:57Z</time>
      </trkpt>
      <trkpt lat="43.26179" lon="2.68654">
        <ele>58.8</ele>
        <time>2017-01-20T14:06:58Z</time>
      </trkpt>
      <trkpt lat="43.26178" lon="2.68654">
        <ele>58.7</ele>
        <time>2017-01-20T14:06:59Z</time>
      </trkpt>
      <trkpt lat="43.26177" lon="2.68652">
        <ele>58.7</ele>
        <time>2017-01-20T14:07:00Z</time>
      </trkpt>
      <trkpt lat="43.26176" lon="2.68649">
        <ele>58.7</ele>
        <time>2017-01-20T14:07:01Z</time>
      </trkpt>
      <trkpt lat="43.26085" lon="2.68202">
        <ele>60.9</ele>
        <time>2017-01-20T14:08:01Z</time>
      </trkpt>
      <trkpt lat="43.26083" lon="2.68195">
        <ele>60.7</ele>
        <time>2017-01-20T14:08:02Z</time>
      </trkpt>
      <trkpt lat="43.26078" lon="2.68183">
        <ele>60.4</ele>
        <time>2017-01-20T14:08:06Z</time>
      </trkpt>
      <trkpt lat="43.26078" lon="2.68183">
        <ele>59.6</ele>
        <time>2017-01-20T14:08:13Z</time>
      </trkpt>
      <trkpt lat="43.26078" lon="2.68183">
        <ele>59.8</ele>
        <time>2017-01-20T14:08:14Z</time>
      </trkpt>
      <trkpt lat="43.26078" lon="2.68183">
        <ele>59.9</ele>
        <time>2017-01-20T14:08:15Z</time>
      </trkpt>
      <trkpt lat="43.26077" lon="2.68181">
        <ele>60</ele>
        <time>2017-01-20T14:08:16Z</time>
      </trkpt>
      <trkpt lat="43.25964" lon="2.67952">
        <ele>60.6</ele>
        <time>2017-01-20T14:09:00Z</time>
      </trkpt>
      <trkpt lat="43.25964" lon="2.67952">
        <ele>60.5</ele>
        <time>2017-01-20T14:09:01Z</time>
      </trkpt>
      <trkpt lat="43.25964" lon="2.67952">
        <ele>60.5</ele>
        <time>2017-01-20T14:09:02Z</time>
      </trkpt>
      <trkpt lat="43.25964" lon="2.67952">
        <ele>60.4</ele>
        <time>2017-01-20T14:09:03Z</time>
      </trkpt>
      <trkpt lat="43.25964" lon="2.67952">
        <ele>60.4</ele>
        <time>2017-01-20T14:09:04Z</time>
      </trkpt>
      <trkpt lat="43.25964" lon="2.67952">
        <ele>60.4</ele>
        <time>2017-01-20T14:09:05Z</time>
      </trkpt>
      <trkpt lat="43.25964" lon="2.67952">
        <ele>60.4</ele>
        <time>2017-01-20T14:09:06Z</time>
      </trkpt>
      <trkpt lat="43.25963" lon="2.67949">
        <ele>60.3</ele>
        <time>2017-01-20T14:09:07Z</time>
      </trkpt>
      <trkpt lat="43.25963" lon="2.67948">
        <ele>60.3</ele>
        <time>2017-01-20T14:09:08Z</time>
      </trkpt>
      <trkpt lat="43.25956" lon="2.67929">
        <ele>60.3</ele>
        <time>2017-01-20T14:09:13Z</time>
      </trkpt>
      <trkpt lat="43.25949" lon="2.67897">
        <ele>60</ele>
        <time>2017-01-20T14:09:18Z</time>
      </trkpt>
      <trkpt lat="43.25939" lon="2.67818">
        <ele>60.3</ele>
        <time>2017-01-20T14:09:28Z</time>
      </trkpt>
      <trkpt lat="43.25926" lon="2.67697">
        <ele>60.9</ele>
        <time>2017-01-20T14:09:43Z</time>
      </trkpt>
      <trkpt lat="43.25923" lon="2.67691">
        <ele>60.7</ele>
        <time>2017-01-20T14:09:44Z</time>
      </trkpt>
      <trkpt lat="43.25917" lon="2.67676">
        <ele>60.7</ele>
        <time>2017-01-20T14:09:47Z</time>
      </trkpt>
      <trkpt lat="43.25912" lon="2.67669">
        <ele>61.1</ele>
        <time>2017-01-20T14:09:50Z</time>
      </trkpt>
      <trkpt lat="43.259" lon="2.67654">
        <ele>60.6</ele>
        <time>2017-01-20T14:09:57Z</time>
      </trkpt>
      <trkpt lat="43.259" lon="2.67654">
        <ele>60.5</ele>
        <time>2017-01-20T14:09:58Z</time>
      </trkpt>
      <trkpt lat="43.259" lon="2.67654">
        <ele>60.7</ele>
        <time>2017-01-20T14:09:59Z</time>
      </trkpt>
      <trkpt lat="43.259" lon="2.67654">
        <ele>60.8</ele>
        <time>2017-01-20T14:10:00Z</time>
      </trkpt>
      <trkpt lat="43.259" lon="2.67654">
        <ele>60.9</ele>
        <time>2017-01-20T14:10:01Z</time>
      </trkpt>
      <trkpt lat="43.259" lon="2.67654">
        <ele>60.9</ele>
        <time>2017-01-20T14:10:02Z</time>
      </trkpt>
      <trkpt lat="43.259" lon="2.67654">
        <ele>61</ele>
        <time>2017-01-20T14:10:03Z</time>
      </trkpt>
      <trkpt lat="43.259" lon="2.67654">
        <ele>61</ele>
        <time>2017-01-20T14:10:04Z</time>
      </trkpt>
      <trkpt lat="43.25898" lon="2.67651">
        <ele>61</ele>
        <time>2017-01-20T14:10:05Z</time>
      </trkpt>
      <trkpt lat="43.25697" lon="2.67417">
        <ele>61.1</ele>
        <time>2017-01-20T14:10:57Z</time>
      </trkpt>
      <trkpt lat="43.25697" lon="2.67417">
        <ele>61.1</ele>
        <time>2017-01-20T14:10:58Z</time>
      </trkpt>
      <trkpt lat="43.25697" lon="2.67417">
        <ele>61.1</ele>
        <time>2017-01-20T14:10:59Z</time>
      </trkpt>
      <trkpt lat="43.25697" lon="2.67417">
        <ele>61.1</ele>
        <time>2017-01-20T14:11:00Z</time>
      </trkpt>
      <trkpt lat="43.25697" lon="2.67417">
        <ele>61.1</ele>
        <time>2017-01-20T14:11:01Z</time>
      </trkpt>
      <trkpt lat="43.25697" lon="2.67417">
        <ele>60.9</ele>
        <time>2017-01-20T14:11:02Z</time>
      </trkpt>
      <trkpt lat="43.25697" lon="2.67417">
        <ele>60.8</ele>
        <time>2017-01-20T14:11:03Z</time>
      </trkpt>
      <trkpt lat="43.25696" lon="2.67415">
        <ele>60.6</ele>
        <time>2017-01-20T14:11:04Z</time>
      </trkpt>
      <trkpt lat="43.25593" lon="2.6727">
        <ele>61.3</ele>
        <time>2017-01-20T14:11:34Z</time>
      </trkpt>
      <trkpt lat="43.25589" lon="2.67264">
        <ele>61.3</ele>
        <time>2017-01-20T14:11:35Z</time>
      </trkpt>
      <trkpt lat="43.25446" lon="2.67025">
        <ele>61.4</ele>
        <time>2017-01-20T14:12:29Z</time>
      </trkpt>
      <trkpt lat="43.2543" lon="2.6699">
        <ele>61.1</ele>
        <time>2017-01-20T14:12:38Z</time>
      </trkpt>
      <trkpt lat="43.25429" lon="2.66986">
        <ele>61.3</ele>
        <time>2017-01-20T14:12:39Z</time>
      </trkpt>
      <trkpt lat="43.25427" lon="2.66982">
        <ele>61.5</ele>
        <time>2017-01-20T14:12:40Z</time>
      </trkpt>
      <trkpt lat="43.25425" lon="2.66975">
        <ele>61</ele>
        <time>2017-01-20T14:12:42Z</time>
      </trkpt>
      <trkpt lat="43.25426" lon="2.66972">
        <ele>60.8</ele>
        <time>2017-01-20T14:12:43Z</time>
      </trkpt>
      <trkpt lat="43.25427" lon="2.6697">
        <ele>60.7</ele>
        <time>2017-01-20T14:12:44Z</time>
      </trkpt>
      <trkpt lat="43.25428" lon="2.66968">
        <ele>60.6</ele>
        <time>2017-01-20T14:12:45Z</time>
      </trkpt>
      <trkpt lat="43.25429" lon="2.66968">
        <ele>60.5</ele>
        <time>2017-01-20T14:12:46Z</time>
      </trkpt>
      <trkpt lat="43.25429" lon="2.66968">
        <ele>60.9</ele>
        <time>2017-01-20T14:12:47Z</time>
      </trkpt>
      <trkpt lat="43.25429" lon="2.66968">
        <ele>61.1</ele>
        <time>2017-01-20T14:12:48Z</time>
      </trkpt>
      <trkpt lat="43.25429" lon="2.66968">
        <ele>61.3</ele>
        <time>2017-01-20T14:12:49Z</time>
      </trkpt>
      <trkpt lat="43.25429" lon="2.66968">
        <ele>61.5</ele>
        <time>2017-01-20T14:12:50Z</time>
      </trkpt>
      <trkpt lat="43.25429" lon="2.66968">
        <ele>61.6</ele>
        <time>2017-01-20T14:12:51Z</time>
      </trkpt>
      <trkpt lat="43.25429" lon="2.66968">
        <ele>61.7</ele>
        <time>2017-01-20T14:12:52Z</time>
      </trkpt>
      <trkpt lat="43.25429" lon="2.66968">
        <ele>61.6</ele>
        <time>2017-01-20T14:12:53Z</time>
      </trkpt>
      <trkpt lat="43.25429" lon="2.66968">
        <ele>61.4</ele>
        <time>2017-01-20T14:12:54Z</time>
      </trkpt>
      <trkpt lat="43.25429" lon="2.66968">
        <ele>61.4</ele>
        <time>2017-01-20T14:12:55Z</time>
      </trkpt>
      <trkpt lat="43.25429" lon="2.66968">
        <ele>61.7</ele>
        <time>2017-01-20T14:12:56Z</time>
      </trkpt>
      <trkpt lat="43.25429" lon="2.66968">
        <ele>62</ele>
        <time>2017-01-20T14:12:57Z</time>
      </trkpt>
      <trkpt lat="43.25429" lon="2.66968">
        <ele>62.2</ele>
        <time>2017-01-20T14:12:58Z</time>
      </trkpt>
      <trkpt lat="43.25429" lon="2.66968">
        <ele>62.1</ele>
        <time>2017-01-20T14:12:59Z</time>
      </trkpt>
      <trkpt lat="43.25429" lon="2.66968">
        <ele>62.1</ele>
        <time>2017-01-20T14:13:00Z</time>
      </trkpt>
      <trkpt lat="43.25429" lon="2.66968">
        <ele>62</ele>
        <time>2017-01-20T14:13:01Z</time>
      </trkpt>
      <trkpt lat="43.25429" lon="2.66968">
        <ele>62</ele>
        <time>2017-01-20T14:13:02Z</time>
      </trkpt>
      <trkpt lat="43.25429" lon="2.66968">
        <ele>62</ele>
        <time>2017-01-20T14:13:03Z</time>
      </trkpt>
      <trkpt lat="43.25429" lon="2.66968">
        <ele>62</ele>
        <time>2017-01-20T14:13:04Z</time>
      </trkpt>
      <trkpt lat="43.25428" lon="2.66967">
        <ele>62.2</ele>
        <time>2017-01-20T14:13:05Z</time>
      </trkpt>
      <trkpt lat="43.25426" lon="2.66969">
        <ele>62.3</ele>
        <time>2017-01-20T14:13:06Z</time>
      </trkpt>
      <trkpt lat="43.25421" lon="2.66971">
        <ele>62.5</ele>
        <time>2017-01-20T14:13:08Z</time>
      </trkpt>
      <trkpt lat="43.25418" lon="2.6697">
        <ele>62.6</ele>
        <time>2017-01-20T14:13:09Z</time>
      </trkpt>
      <trkpt lat="43.25417" lon="2.66966">
        <ele>62.6</ele>
        <time>2017-01-20T14:13:10Z</time>
      </trkpt>
      <trkpt lat="43.25364" lon="2.66853">
        <ele>58.9</ele>
        <time>2017-01-20T14:13:34Z</time>
      </trkpt>
      <trkpt lat="43.25364" lon="2.66853">
        <ele>59.1</ele>
        <time>2017-01-20T14:13:35Z</time>
      </trkpt>
      <trkpt lat="43.25364" lon="2.66853">
        <ele>59.2</ele>
        <time>2017-01-20T14:13:36Z</time>
      </trkpt>
      <trkpt lat="43.25364" lon="2.66853">
        <ele>59.2</ele>
        <time>2017-01-20T14:13:37Z</time>
      </trkpt>
      <trkpt lat="43.25364" lon="2.66853">
        <ele>59.3</ele>
        <time>2017-01-20T14:13:38Z</time>
      </trkpt>
      <trkpt lat="43.25364" lon="2.66853">
        <ele>59.3</ele>
        <time>2017-01-20T14:13:39Z</time>
      </trkpt>
      <trkpt lat="43.25364" lon="2.66853">
        <ele>59.4</ele>
        <time>2017-01-20T14:13:40Z</time>
      </trkpt>
      <trkpt lat="43.25364" lon="2.66853">
        <ele>59</ele>
        <time>2017-01-20T14:13:41Z</time>
      </trkpt>
      <trkpt lat="43.25363" lon="2.66849">
        <ele>58.7</ele>
        <time>2017-01-20T14:13:42Z</time>
      </trkpt>
      <trkpt lat="43.25363" lon="2.66847">
        <ele>58.5</ele>
        <time>2017-01-20T14:13:43Z</time>
      </trkpt>
      <trkpt lat="43.25346" lon="2.66796">
        <ele>59.5</ele>
        <time>2017-01-20T14:13:57Z</time>
      </trkpt>
      <trkpt lat="43.25345" lon="2.66793">
        <ele>59.7</ele>
        <time>2017-01-20T14:13:58Z</time>
      </trkpt>
      <trkpt lat="43.25331" lon="2.66765">
        <ele>60.2</ele>
        <time>2017-01-20T14:14:06Z</time>
      </trkpt>
      <trkpt lat="43.25323" lon="2.66752">
        <ele>60.3</ele>
        <time>2017-01-20T14:14:10Z</time>
      </trkpt>
      <trkpt lat="43.2532" lon="2.66747">
        <ele>59.8</ele>
        <time>2017-01-20T14:14:19Z</time>
      </trkpt>
      <trkpt lat="43.25316" lon="2.6674">
        <ele>59.8</ele>
        <time>2017-01-20T14:14:23Z</time>
      </trkpt>
      <trkpt lat="43.25313" lon="2.66737">
        <ele>59.9</ele>
        <time>2017-01-20T14:14:24Z</time>
      </trkpt>
      <trkpt lat="43.25262" lon="2.66675">
        <ele>60.7</ele>
        <time>2017-01-20T14:14:39Z</time>
      </trkpt>
      <trkpt lat="43.25158" lon="2.6655">
        <ele>59.7</ele>
        <time>2017-01-20T14:15:09Z</time>
      </trkpt>
      <trkpt lat="43.25155" lon="2.66549">
        <ele>59.9</ele>
        <time>2017-01-20T14:15:10Z</time>
      </trkpt>
      <trkpt lat="43.25151" lon="2.66547">
        <ele>60.1</ele>
        <time>2017-01-20T14:15:12Z</time>
      </trkpt>
      <trkpt lat="43.25148" lon="2.66547">
        <ele>60.1</ele>
        <time>2017-01-20T14:15:13Z</time>
      </trkpt>
      <trkpt lat="43.25141" lon="2.66548">
        <ele>59.7</ele>
        <time>2017-01-20T14:15:16Z</time>
      </trkpt>
      <trkpt lat="43.25137" lon="2.66549">
        <ele>60</ele>
        <time>2017-01-20T14:15:18Z</time>
      </trkpt>
      <trkpt lat="43.25137" lon="2.66549">
        <ele>60.1</ele>
        <time>2017-01-20T14:15:19Z</time>
      </trkpt>
      <trkpt lat="43.25137" lon="2.66549">
        <ele>60.1</ele>
        <time>2017-01-20T14:15:20Z</time>
      </trkpt>
      <trkpt lat="43.25137" lon="2.66549">
        <ele>60.2</ele>
        <time>2017-01-20T14:15:21Z</time>
      </trkpt>
      <trkpt lat="43.25137" lon="2.66549">
        <ele>60.2</ele>
        <time>2017-01-20T14:15:22Z</time>
      </trkpt>
      <trkpt lat="43.25137" lon="2.66549">
        <ele>60.2</ele>
        <time>2017-01-20T14:15:23Z</time>
      </trkpt>
      <trkpt lat="43.25137" lon="2.66549">
        <ele>60.2</ele>
        <time>2017-01-20T14:15:24Z</time>
      </trkpt>
      <trkpt lat="43.25137" lon="2.66549">
        <ele>60.3</ele>
        <time>2017-01-20T14:15:25Z</time>
      </trkpt>
      <trkpt lat="43.25137" lon="2.66549">
        <ele>60.3</ele>
        <time>2017-01-20T14:15:26Z</time>
      </trkpt>
      <trkpt lat="43.25137" lon="2.66549">
        <ele>60.3</ele>
        <time>2017-01-20T14:15:27Z</time>
      </trkpt>
      <trkpt lat="43.25137" lon="2.66549">
        <ele>60.3</ele>
        <time>2017-01-20T14:15:28Z</time>
      </trkpt>
      <trkpt lat="43.25137" lon="2.66549">
        <ele>60.3</ele>
        <time>2017-01-20T14:15:29Z</time>
      </trkpt>
      <trkpt lat="43.25137" lon="2.66549">
        <ele>60.3</ele>
        <time>2017-01-20T14:15:30Z</time>
      </trkpt>
      <trkpt lat="43.25137" lon="2.66549">
        <ele>60.3</ele>
        <time>2017-01-20T14:15:31Z</time>
      </trkpt>
      <trkpt lat="43.25137" lon="2.66549">
        <ele>60.3</ele>
        <time>2017-01-20T14:15:32Z</time>
      </trkpt>
      <trkpt lat="43.25137" lon="2.66549">
        <ele>60.3</ele>
        <time>2017-01-20T14:15:33Z</time>
      </trkpt>
      <trkpt lat="43.25137" lon="2.66549">
        <ele>60.3</ele>
        <time>2017-01-20T14:15:34Z</time>
      </trkpt>
      <trkpt lat="43.25135" lon="2.66551">
        <ele>60.5</ele>
        <time>2017-01-20T14:15:35Z</time>
      </trkpt>
      <trkpt lat="43.25134" lon="2.66552">
        <ele>60.7</ele>
        <time>2017-01-20T14:15:36Z</time>
      </trkpt>
      <trkpt lat="43.25133" lon="2.66553">
        <ele>60.8</ele>
        <time>2017-01-20T14:15:37Z</time>
      </trkpt>
      <trkpt lat="43.25132" lon="2.66554">
        <ele>60.7</ele>
        <time>2017-01-20T14:15:38Z</time>
      </trkpt>
      <trkpt lat="43.25118" lon="2.66571">
        <ele>60.3</ele>
        <time>2017-01-20T14:15:47Z</time>
      </trkpt>
      <trkpt lat="43.25113" lon="2.66575">
        <ele>60.3</ele>
        <time>2017-01-20T14:15:49Z</time>
      </trkpt>
      <trkpt lat="43.25108" lon="2.6658">
        <ele>59.9</ele>
        <time>2017-01-20T14:15:51Z</time>
      </trkpt>
      <trkpt lat="43.25106" lon="2.66584">
        <ele>59.8</ele>
        <time>2017-01-20T14:15:52Z</time>
      </trkpt>
      <trkpt lat="43.25106" lon="2.66584">
        <ele>59.3</ele>
        <time>2017-01-20T14:15:53Z</time>
      </trkpt>
      <trkpt lat="43.25106" lon="2.66584">
        <ele>58.9</ele>
        <time>2017-01-20T14:15:54Z</time>
      </trkpt>
      <trkpt lat="43.25106" lon="2.66584">
        <ele>58.7</ele>
        <time>2017-01-20T14:15:55Z</time>
      </trkpt>
      <trkpt lat="43.25106" lon="2.66584">
        <ele>58.4</ele>
        <time>2017-01-20T14:15:56Z</time>
      </trkpt>
      <trkpt lat="43.25106" lon="2.66584">
        <ele>58.3</ele>
        <time>2017-01-20T14:15:57Z</time>
      </trkpt>
      <trkpt lat="43.25106" lon="2.66584">
        <ele>58.2</ele>
        <time>2017-01-20T14:15:58Z</time>
      </trkpt>
      <trkpt lat="43.25106" lon="2.66584">
        <ele>58.1</ele>
        <time>2017-01-20T14:15:59Z</time>
      </trkpt>
      <trkpt lat="43.25106" lon="2.66584">
        <ele>58</ele>
        <time>2017-01-20T14:16:00Z</time>
      </trkpt>
      <trkpt lat="43.25106" lon="2.66584">
        <ele>58</ele>
        <time>2017-01-20T14:16:01Z</time>
      </trkpt>
      <trkpt lat="43.25106" lon="2.66584">
        <ele>57.7</ele>
        <time>2017-01-20T14:16:02Z</time>
      </trkpt>
      <trkpt lat="43.25106" lon="2.66584">
        <ele>57.5</ele>
        <time>2017-01-20T14:16:03Z</time>
      </trkpt>
      <trkpt lat="43.25106" lon="2.66584">
        <ele>57.4</ele>
        <time>2017-01-20T14:16:04Z</time>
      </trkpt>
      <trkpt lat="43.25106" lon="2.66584">
        <ele>57.5</ele>
        <time>2017-01-20T14:16:05Z</time>
      </trkpt>
      <trkpt lat="43.25106" lon="2.66584">
        <ele>57.6</ele>
        <time>2017-01-20T14:16:06Z</time>
      </trkpt>
      <trkpt lat="43.25101" lon="2.66594">
        <ele>57.6</ele>
        <time>2017-01-20T14:16:07Z</time>
      </trkpt>
      <trkpt lat="43.25101" lon="2.66594">
        <ele>57.7</ele>
        <time>2017-01-20T14:16:08Z</time>
      </trkpt>
      <trkpt lat="43.25101" lon="2.66594">
        <ele>57.7</ele>
        <time>2017-01-20T14:16:09Z</time>
      </trkpt>
      <trkpt lat="43.25101" lon="2.66594">
        <ele>57.7</ele>
        <time>2017-01-20T14:16:10Z</time>
      </trkpt>
      <trkpt lat="43.25094" lon="2.66606">
        <ele>57.6</ele>
        <time>2017-01-20T14:16:11Z</time>
      </trkpt>
      <trkpt lat="43.25094" lon="2.66606">
        <ele>57.4</ele>
        <time>2017-01-20T14:16:12Z</time>
      </trkpt>
      <trkpt lat="43.25094" lon="2.66606">
        <ele>57.3</ele>
        <time>2017-01-20T14:16:13Z</time>
      </trkpt>
      <trkpt lat="43.25094" lon="2.66606">
        <ele>57</ele>
        <time>2017-01-20T14:16:14Z</time>
      </trkpt>
      <trkpt lat="43.25094" lon="2.66606">
        <ele>56.8</ele>
        <time>2017-01-20T14:16:15Z</time>
      </trkpt>
      <trkpt lat="43.25094" lon="2.66606">
        <ele>56.6</ele>
        <time>2017-01-20T14:16:16Z</time>
      </trkpt>
      <trkpt lat="43.25094" lon="2.66606">
        <ele>56.9</ele>
        <time>2017-01-20T14:16:17Z</time>
      </trkpt>
      <trkpt lat="43.25094" lon="2.66606">
        <ele>57.2</ele>
        <time>2017-01-20T14:16:18Z</time>
      </trkpt>
      <trkpt lat="43.25094" lon="2.66606">
        <ele>57.3</ele>
        <time>2017-01-20T14:16:19Z</time>
      </trkpt>
      <trkpt lat="43.25094" lon="2.66606">
        <ele>57.4</ele>
        <time>2017-01-20T14:16:20Z</time>
      </trkpt>
      <trkpt lat="43.25094" lon="2.66606">
        <ele>57.5</ele>
        <time>2017-01-20T14:16:21Z</time>
      </trkpt>
      <trkpt lat="43.25094" lon="2.66606">
        <ele>57.6</ele>
        <time>2017-01-20T14:16:22Z</time>
      </trkpt>
      <trkpt lat="43.25094" lon="2.66606">
        <ele>57.7</ele>
        <time>2017-01-20T14:16:23Z</time>
      </trkpt>
      <trkpt lat="43.25094" lon="2.66606">
        <ele>57.7</ele>
        <time>2017-01-20T14:16:24Z</time>
      </trkpt>
      <trkpt lat="43.25094" lon="2.66606">
        <ele>57.7</ele>
        <time>2017-01-20T14:16:25Z</time>
      </trkpt>
      <trkpt lat="43.25094" lon="2.66606">
        <ele>58</ele>
        <time>2017-01-20T14:16:26Z</time>
      </trkpt>
      <trkpt lat="43.25094" lon="2.66606">
        <ele>58.1</ele>
        <time>2017-01-20T14:16:27Z</time>
      </trkpt>
      <trkpt lat="43.25091" lon="2.66613">
        <ele>58.3</ele>
        <time>2017-01-20T14:16:28Z</time>
      </trkpt>
      <trkpt lat="43.25091" lon="2.66613">
        <ele>57.9</ele>
        <time>2017-01-20T14:16:29Z</time>
      </trkpt>
      <trkpt lat="43.25091" lon="2.66613">
        <ele>57.7</ele>
        <time>2017-01-20T14:16:30Z</time>
      </trkpt>
      <trkpt lat="43.25091" lon="2.66613">
        <ele>57.5</ele>
        <time>2017-01-20T14:16:31Z</time>
      </trkpt>
      <trkpt lat="43.25091" lon="2.66613">
        <ele>57.4</ele>
        <time>2017-01-20T14:16:32Z</time>
      </trkpt>
      <trkpt lat="43.25091" lon="2.66613">
        <ele>57.3</ele>
        <time>2017-01-20T14:16:33Z</time>
      </trkpt>
      <trkpt lat="43.25091" lon="2.66613">
        <ele>57.2</ele>
        <time>2017-01-20T14:16:34Z</time>
      </trkpt>
      <trkpt lat="43.25091" lon="2.66613">
        <ele>57.8</ele>
        <time>2017-01-20T14:16:35Z</time>
      </trkpt>
      <trkpt lat="43.25091" lon="2.66613">
        <ele>58.2</ele>
        <time>2017-01-20T14:16:36Z</time>
      </trkpt>
      <trkpt lat="43.25091" lon="2.66613">
        <ele>58.5</ele>
        <time>2017-01-20T14:16:37Z</time>
      </trkpt>
      <trkpt lat="43.25091" lon="2.66613">
        <ele>58.3</ele>
        <time>2017-01-20T14:16:38Z</time>
      </trkpt>
      <trkpt lat="43.25091" lon="2.66613">
        <ele>58.2</ele>
        <time>2017-01-20T14:16:39Z</time>
      </trkpt>
      <trkpt lat="43.25091" lon="2.66613">
        <ele>58.1</ele>
        <time>2017-01-20T14:16:40Z</time>
      </trkpt>
      <trkpt lat="43.25091" lon="2.66613">
        <ele>57.8</ele>
        <time>2017-01-20T14:16:41Z</time>
      </trkpt>
      <trkpt lat="43.25091" lon="2.66613">
        <ele>57.6</ele>
        <time>2017-01-20T14:16:42Z</time>
      </trkpt>
      <trkpt lat="43.25091" lon="2.66613">
        <ele>57.5</ele>
        <time>2017-01-20T14:16:43Z</time>
      </trkpt>
      <trkpt lat="43.25091" lon="2.66613">
        <ele>58</ele>
        <time>2017-01-20T14:16:44Z</time>
      </trkpt>
      <trkpt lat="43.25091" lon="2.66613">
        <ele>58.3</ele>
        <time>2017-01-20T14:16:45Z</time>
      </trkpt>
      <trkpt lat="43.25091" lon="2.66613">
        <ele>58.6</ele>
        <time>2017-01-20T14:16:46Z</time>
      </trkpt>
      <trkpt lat="43.25082" lon="2.66619">
        <ele>58.8</ele>
        <time>2017-01-20T14:16:47Z</time>
      </trkpt>
      <trkpt lat="43.25082" lon="2.66619">
        <ele>59</ele>
        <time>2017-01-20T14:16:48Z</time>
      </trkpt>
      <trkpt lat="43.25082" lon="2.66619">
        <ele>59.1</ele>
        <time>2017-01-20T14:16:49Z</time>
      </trkpt>
      <trkpt lat="43.25082" lon="2.66619">
        <ele>58.8</ele>
        <time>2017-01-20T14:16:50Z</time>
      </trkpt>
      <trkpt lat="43.25082" lon="2.66619">
        <ele>58.5</ele>
        <time>2017-01-20T14:16:51Z</time>
      </trkpt>
      <trkpt lat="43.25082" lon="2.66619">
        <ele>58.4</ele>
        <time>2017-01-20T14:16:52Z</time>
      </trkpt>
      <trkpt lat="43.25082" lon="2.66619">
        <ele>58</ele>
        <time>2017-01-20T14:16:53Z</time>
      </trkpt>
      <trkpt lat="43.25082" lon="2.66619">
        <ele>57.8</ele>
        <time>2017-01-20T14:16:54Z</time>
      </trkpt>
      <trkpt lat="43.25082" lon="2.66619">
        <ele>57.6</ele>
        <time>2017-01-20T14:16:55Z</time>
      </trkpt>
      <trkpt lat="43.25079" lon="2.66625">
        <ele>57.6</ele>
        <time>2017-01-20T14:16:56Z</time>
      </trkpt>
      <trkpt lat="43.25079" lon="2.66625">
        <ele>57.7</ele>
        <time>2017-01-20T14:16:57Z</time>
      </trkpt>
      <trkpt lat="43.25079" lon="2.66625">
        <ele>57.7</ele>
        <time>2017-01-20T14:16:58Z</time>
      </trkpt>
      <trkpt lat="43.25079" lon="2.66625">
        <ele>58.1</ele>
        <time>2017-01-20T14:16:59Z</time>
      </trkpt>
      <trkpt lat="43.25079" lon="2.66625">
        <ele>58.5</ele>
        <time>2017-01-20T14:17:00Z</time>
      </trkpt>
      <trkpt lat="43.25079" lon="2.66625">
        <ele>58.7</ele>
        <time>2017-01-20T14:17:01Z</time>
      </trkpt>
      <trkpt lat="43.25074" lon="2.66636">
        <ele>59.1</ele>
        <time>2017-01-20T14:17:02Z</time>
      </trkpt>
      <trkpt lat="43.25052" lon="2.6669">
        <ele>59.2</ele>
        <time>2017-01-20T14:17:16Z</time>
      </trkpt>
      <trkpt lat="43.25051" lon="2.66695">
        <ele>59.3</ele>
        <time>2017-01-20T14:17:17Z</time>
      </trkpt>
      <trkpt lat="43.25044" lon="2.66728">
        <ele>59.1</ele>
        <time>2017-01-20T14:17:23Z</time>
      </trkpt>
      <trkpt lat="43.25041" lon="2.66743">
        <ele>59.3</ele>
        <time>2017-01-20T14:17:27Z</time>
      </trkpt>
      <trkpt lat="43.25041" lon="2.66743">
        <ele>58.9</ele>
        <time>2017-01-20T14:17:28Z</time>
      </trkpt>
      <trkpt lat="43.25041" lon="2.66743">
        <ele>58.6</ele>
        <time>2017-01-20T14:17:29Z</time>
      </trkpt>
      <trkpt lat="43.25041" lon="2.66743">
        <ele>58.4</ele>
        <time>2017-01-20T14:17:30Z</time>
      </trkpt>
      <trkpt lat="43.25041" lon="2.66743">
        <ele>58.1</ele>
        <time>2017-01-20T14:17:31Z</time>
      </trkpt>
      <trkpt lat="43.25041" lon="2.66743">
        <ele>57.8</ele>
        <time>2017-01-20T14:17:32Z</time>
      </trkpt>
      <trkpt lat="43.25041" lon="2.66743">
        <ele>57.6</ele>
        <time>2017-01-20T14:17:33Z</time>
      </trkpt>
      <trkpt lat="43.25041" lon="2.66743">
        <ele>57.9</ele>
        <time>2017-01-20T14:17:34Z</time>
      </trkpt>
      <trkpt lat="43.25038" lon="2.66755">
        <ele>58.1</ele>
        <time>2017-01-20T14:17:35Z</time>
      </trkpt>
      <trkpt lat="43.25038" lon="2.66755">
        <ele>58.2</ele>
        <time>2017-01-20T14:17:36Z</time>
      </trkpt>
      <trkpt lat="43.25038" lon="2.66755">
        <ele>58.1</ele>
        <time>2017-01-20T14:17:37Z</time>
      </trkpt>
      <trkpt lat="43.25035" lon="2.66765">
        <ele>58</ele>
        <time>2017-01-20T14:17:38Z</time>
      </trkpt>
      <trkpt lat="43.25035" lon="2.66765">
        <ele>58</ele>
        <time>2017-01-20T14:17:39Z</time>
      </trkpt>
      <trkpt lat="43.25035" lon="2.66765">
        <ele>57.5</ele>
        <time>2017-01-20T14:17:40Z</time>
      </trkpt>
      <trkpt lat="43.25035" lon="2.66765">
        <ele>57.2</ele>
        <time>2017-01-20T14:17:41Z</time>
      </trkpt>
      <trkpt lat="43.25035" lon="2.66765">
        <ele>56.9</ele>
        <time>2017-01-20T14:17:42Z</time>
      </trkpt>
      <trkpt lat="43.25035" lon="2.66765">
        <ele>56.7</ele>
        <time>2017-01-20T14:17:43Z</time>
      </trkpt>
      <trkpt lat="43.25035" lon="2.66765">
        <ele>56.6</ele>
        <time>2017-01-20T14:17:44Z</time>
      </trkpt>
      <trkpt lat="43.25035" lon="2.66765">
        <ele>56.5</ele>
        <time>2017-01-20T14:17:45Z</time>
      </trkpt>
      <trkpt lat="43.25035" lon="2.66765">
        <ele>56.2</ele>
        <time>2017-01-20T14:17:46Z</time>
      </trkpt>
      <trkpt lat="43.25034" lon="2.66773">
        <ele>56</ele>
        <time>2017-01-20T14:17:47Z</time>
      </trkpt>
      <trkpt lat="43.25032" lon="2.66781">
        <ele>55.7</ele>
        <time>2017-01-20T14:17:49Z</time>
      </trkpt>
      <trkpt lat="43.25032" lon="2.66781">
        <ele>55.6</ele>
        <time>2017-01-20T14:17:50Z</time>
      </trkpt>
      <trkpt lat="43.25032" lon="2.66781">
        <ele>55.5</ele>
        <time>2017-01-20T14:17:51Z</time>
      </trkpt>
      <trkpt lat="43.2503" lon="2.6679">
        <ele>55.5</ele>
        <time>2017-01-20T14:17:52Z</time>
      </trkpt>
      <trkpt lat="43.25027" lon="2.66796">
        <ele>55.4</ele>
        <time>2017-01-20T14:17:56Z</time>
      </trkpt>
      <trkpt lat="43.25027" lon="2.66796">
        <ele>55.4</ele>
        <time>2017-01-20T14:17:57Z</time>
      </trkpt>
      <trkpt lat="43.25027" lon="2.66796">
        <ele>55.2</ele>
        <time>2017-01-20T14:17:58Z</time>
      </trkpt>
      <trkpt lat="43.25027" lon="2.66796">
        <ele>55</ele>
        <time>2017-01-20T14:17:59Z</time>
      </trkpt>
      <trkpt lat="43.25027" lon="2.66796">
        <ele>54.9</ele>
        <time>2017-01-20T14:18:00Z</time>
      </trkpt>
      <trkpt lat="43.25027" lon="2.66796">
        <ele>54.8</ele>
        <time>2017-01-20T14:18:01Z</time>
      </trkpt>
      <trkpt lat="43.25027" lon="2.66796">
        <ele>54.7</ele>
        <time>2017-01-20T14:18:02Z</time>
      </trkpt>
      <trkpt lat="43.25027" lon="2.66796">
        <ele>54.7</ele>
        <time>2017-01-20T14:18:03Z</time>
      </trkpt>
      <trkpt lat="43.25027" lon="2.66796">
        <ele>54.4</ele>
        <time>2017-01-20T14:18:04Z</time>
      </trkpt>
      <trkpt lat="43.25027" lon="2.66796">
        <ele>54.2</ele>
        <time>2017-01-20T14:18:05Z</time>
      </trkpt>
      <trkpt lat="43.25027" lon="2.66796">
        <ele>54.1</ele>
        <time>2017-01-20T14:18:06Z</time>
      </trkpt>
      <trkpt lat="43.25027" lon="2.66796">
        <ele>54.4</ele>
        <time>2017-01-20T14:18:07Z</time>
      </trkpt>
      <trkpt lat="43.25025" lon="2.66799">
        <ele>54.6</ele>
        <time>2017-01-20T14:18:08Z</time>
      </trkpt>
      <trkpt lat="43.25025" lon="2.66799">
        <ele>54.8</ele>
        <time>2017-01-20T14:18:09Z</time>
      </trkpt>
      <trkpt lat="43.25025" lon="2.66797">
        <ele>54.7</ele>
        <time>2017-01-20T14:18:10Z</time>
      </trkpt>
      <trkpt lat="43.25025" lon="2.66795">
        <ele>54.8</ele>
        <time>2017-01-20T14:18:13Z</time>
      </trkpt>
      <trkpt lat="43.25026" lon="2.66792">
        <ele>55.2</ele>
        <time>2017-01-20T14:18:17Z</time>
      </trkpt>
      <trkpt lat="43.25026" lon="2.66791">
        <ele>55.2</ele>
        <time>2017-01-20T14:18:18Z</time>
      </trkpt>
      <trkpt lat="43.25026" lon="2.6679">
        <ele>55.2</ele>
        <time>2017-01-20T14:18:19Z</time>
      </trkpt>
      <trkpt lat="43.25026" lon="2.66783">
        <ele>56.3</ele>
        <time>2017-01-20T14:18:26Z</time>
      </trkpt>
      <trkpt lat="43.25025" lon="2.66783">
        <ele>56.5</ele>
        <time>2017-01-20T14:18:27Z</time>
      </trkpt>
      <trkpt lat="43.25025" lon="2.66783">
        <ele>56.6</ele>
        <time>2017-01-20T14:18:28Z</time>
      </trkpt>
      <trkpt lat="43.25025" lon="2.66783">
        <ele>56.7</ele>
        <time>2017-01-20T14:18:29Z</time>
      </trkpt>
      <trkpt lat="43.25025" lon="2.66783">
        <ele>56.8</ele>
        <time>2017-01-20T14:18:30Z</time>
      </trkpt>
      <trkpt lat="43.25025" lon="2.66783">
        <ele>56.8</ele>
        <time>2017-01-20T14:18:31Z</time>
      </trkpt>
      <trkpt lat="43.25025" lon="2.66783">
        <ele>56.9</ele>
        <time>2017-01-20T14:18:32Z</time>
      </trkpt>
      <trkpt lat="43.25025" lon="2.66783">
        <ele>56.9</ele>
        <time>2017-01-20T14:18:33Z</time>
      </trkpt>
      <trkpt lat="43.25025" lon="2.66783">
        <ele>56.9</ele>
        <time>2017-01-20T14:18:34Z</time>
      </trkpt>
      <trkpt lat="43.25025" lon="2.66783">
        <ele>56.9</ele>
        <time>2017-01-20T14:18:35Z</time>
      </trkpt>
      <trkpt lat="43.25024" lon="2.66783">
        <ele>56.9</ele>
        <time>2017-01-20T14:18:36Z</time>
      </trkpt>
      <trkpt lat="43.25023" lon="2.66782">
        <ele>57.3</ele>
        <time>2017-01-20T14:18:38Z</time>
      </trkpt>
      <trkpt lat="43.25023" lon="2.66782">
        <ele>57.4</ele>
        <time>2017-01-20T14:18:39Z</time>
      </trkpt>
      <trkpt lat="43.25023" lon="2.66782">
        <ele>57.5</ele>
        <time>2017-01-20T14:18:40Z</time>
      </trkpt>
      <trkpt lat="43.25023" lon="2.66782">
        <ele>57.6</ele>
        <time>2017-01-20T14:18:41Z</time>
      </trkpt>
      <trkpt lat="43.25023" lon="2.66781">
        <ele>57.7</ele>
        <time>2017-01-20T14:18:42Z</time>
      </trkpt>
      <trkpt lat="43.25023" lon="2.66781">
        <ele>57.5</ele>
        <time>2017-01-20T14:18:43Z</time>
      </trkpt>
      <trkpt lat="43.25023" lon="2.66781">
        <ele>57.4</ele>
        <time>2017-01-20T14:18:44Z</time>
      </trkpt>
      <trkpt lat="43.25024" lon="2.66782">
        <ele>57.3</ele>
        <time>2017-01-20T14:18:45Z</time>
      </trkpt>
      <trkpt lat="43.25025" lon="2.66782">
        <ele>57.4</ele>
        <time>2017-01-20T14:18:46Z</time>
      </trkpt>
      <trkpt lat="43.25025" lon="2.66782">
        <ele>57.5</ele>
        <time>2017-01-20T14:18:47Z</time>
      </trkpt>
      <trkpt lat="43.25026" lon="2.66781">
        <ele>57.6</ele>
        <time>2017-01-20T14:18:48Z</time>
      </trkpt>
      <trkpt lat="43.25026" lon="2.66781">
        <ele>57.4</ele>
        <time>2017-01-20T14:18:49Z</time>
      </trkpt>
      <trkpt lat="43.25026" lon="2.6678">
        <ele>57.3</ele>
        <time>2017-01-20T14:18:50Z</time>
      </trkpt>
      <trkpt lat="43.25027" lon="2.66781">
        <ele>57.2</ele>
        <time>2017-01-20T14:18:51Z</time>
      </trkpt>
      <trkpt lat="43.25027" lon="2.66781">
        <ele>57.6</ele>
        <time>2017-01-20T14:18:52Z</time>
      </trkpt>
      <trkpt lat="43.25026" lon="2.66782">
        <ele>57.9</ele>
        <time>2017-01-20T14:18:53Z</time>
      </trkpt>
      <trkpt lat="43.25026" lon="2.66783">
        <ele>58</ele>
        <time>2017-01-20T14:18:54Z</time>
      </trkpt>
      <trkpt lat="43.25025" lon="2.66784">
        <ele>58</ele>
        <time>2017-01-20T14:18:55Z</time>
      </trkpt>
      <trkpt lat="43.25024" lon="2.66786">
        <ele>57.9</ele>
        <time>2017-01-20T14:18:56Z</time>
      </trkpt>
      <trkpt lat="43.25023" lon="2.66788">
        <ele>57.9</ele>
        <time>2017-01-20T14:18:57Z</time>
      </trkpt>
      <trkpt lat="43.25022" lon="2.66789">
        <ele>58.1</ele>
        <time>2017-01-20T14:18:58Z</time>
      </trkpt>
      <trkpt lat="43.25022" lon="2.6679">
        <ele>58.2</ele>
        <time>2017-01-20T14:18:59Z</time>
      </trkpt>
      <trkpt lat="43.25021" lon="2.66791">
        <ele>58.3</ele>
        <time>2017-01-20T14:19:00Z</time>
      </trkpt>
      <trkpt lat="43.25021" lon="2.66791">
        <ele>58.6</ele>
        <time>2017-01-20T14:19:01Z</time>
      </trkpt>
      <trkpt lat="43.2502" lon="2.66792">
        <ele>58.8</ele>
        <time>2017-01-20T14:19:02Z</time>
      </trkpt>
      <trkpt lat="43.2502" lon="2.66793">
        <ele>59</ele>
        <time>2017-01-20T14:19:03Z</time>
      </trkpt>
      <trkpt lat="43.25019" lon="2.66795">
        <ele>59.1</ele>
        <time>2017-01-20T14:19:04Z</time>
      </trkpt>
      <trkpt lat="43.25018" lon="2.66796">
        <ele>59.2</ele>
        <time>2017-01-20T14:19:05Z</time>
      </trkpt>
      <trkpt lat="43.25017" lon="2.66798">
        <ele>59.3</ele>
        <time>2017-01-20T14:19:06Z</time>
      </trkpt>
      <trkpt lat="43.25017" lon="2.668">
        <ele>59.5</ele>
        <time>2017-01-20T14:19:07Z</time>
      </trkpt>
      <trkpt lat="43.25003" lon="2.66833">
        <ele>58.9</ele>
        <time>2017-01-20T14:19:31Z</time>
      </trkpt>
      <trkpt lat="43.25003" lon="2.66833">
        <ele>58.8</ele>
        <time>2017-01-20T14:19:32Z</time>
      </trkpt>
      <trkpt lat="43.25003" lon="2.66833">
        <ele>58.8</ele>
        <time>2017-01-20T14:19:33Z</time>
      </trkpt>
      <trkpt lat="43.25002" lon="2.66835">
        <ele>59</ele>
        <time>2017-01-20T14:19:34Z</time>
      </trkpt>
      <trkpt lat="43.25" lon="2.66842">
        <ele>58.9</ele>
        <time>2017-01-20T14:19:38Z</time>
      </trkpt>
      <trkpt lat="43.24988" lon="2.66864">
        <ele>59.8</ele>
        <time>2017-01-20T14:19:49Z</time>
      </trkpt>
      <trkpt lat="43.24983" lon="2.66869">
        <ele>59.7</ele>
        <time>2017-01-20T14:19:51Z</time>
      </trkpt>
      <trkpt lat="43.24976" lon="2.66873">
        <ele>58.6</ele>
        <time>2017-01-20T14:19:55Z</time>
      </trkpt>
      <trkpt lat="43.24976" lon="2.66873">
        <ele>58.6</ele>
        <time>2017-01-20T14:19:56Z</time>
      </trkpt>
      <trkpt lat="43.24975" lon="2.66873">
        <ele>58.6</ele>
        <time>2017-01-20T14:19:57Z</time>
      </trkpt>
      <trkpt lat="43.24975" lon="2.66873">
        <ele>58.6</ele>
        <time>2017-01-20T14:19:58Z</time>
      </trkpt>
      <trkpt lat="43.24975" lon="2.66873">
        <ele>58.6</ele>
        <time>2017-01-20T14:19:59Z</time>
      </trkpt>
      <trkpt lat="43.24974" lon="2.66873">
        <ele>58.6</ele>
        <time>2017-01-20T14:20:00Z</time>
      </trkpt>
      <trkpt lat="43.24974" lon="2.66873">
        <ele>58.6</ele>
        <time>2017-01-20T14:20:01Z</time>
      </trkpt>
      <trkpt lat="43.24974" lon="2.66873">
        <ele>58.6</ele>
        <time>2017-01-20T14:20:02Z</time>
      </trkpt>
      <trkpt lat="43.24974" lon="2.66874">
        <ele>58.6</ele>
        <time>2017-01-20T14:20:03Z</time>
      </trkpt>
      <trkpt lat="43.24973" lon="2.66874">
        <ele>58.4</ele>
        <time>2017-01-20T14:20:04Z</time>
      </trkpt>
      <trkpt lat="43.24973" lon="2.66874">
        <ele>58.3</ele>
        <time>2017-01-20T14:20:05Z</time>
      </trkpt>
      <trkpt lat="43.24972" lon="2.66873">
        <ele>58.2</ele>
        <time>2017-01-20T14:20:06Z</time>
      </trkpt>
      <trkpt lat="43.24971" lon="2.66873">
        <ele>58.3</ele>
        <time>2017-01-20T14:20:07Z</time>
      </trkpt>
      <trkpt lat="43.2497" lon="2.66873">
        <ele>58.4</ele>
        <time>2017-01-20T14:20:08Z</time>
      </trkpt>
      <trkpt lat="43.24968" lon="2.66874">
        <ele>58.4</ele>
        <time>2017-01-20T14:20:09Z</time>
      </trkpt>
      <trkpt lat="43.24967" lon="2.66874">
        <ele>58.3</ele>
        <time>2017-01-20T14:20:10Z</time>
      </trkpt>
      <trkpt lat="43.24966" lon="2.66874">
        <ele>58.2</ele>
        <time>2017-01-20T14:20:11Z</time>
      </trkpt>
      <trkpt lat="43.24965" lon="2.66875">
        <ele>58</ele>
        <time>2017-01-20T14:20:14Z</time>
      </trkpt>
      <trkpt lat="43.24965" lon="2.66875">
        <ele>57.9</ele>
        <time>2017-01-20T14:20:15Z</time>
      </trkpt>
      <trkpt lat="43.24965" lon="2.66875">
        <ele>57.7</ele>
        <time>2017-01-20T14:20:16Z</time>
      </trkpt>
      <trkpt lat="43.24965" lon="2.66875">
        <ele>57.5</ele>
        <time>2017-01-20T14:20:17Z</time>
      </trkpt>
      <trkpt lat="43.24963" lon="2.66877">
        <ele>58.1</ele>
        <time>2017-01-20T14:20:19Z</time>
      </trkpt>
      <trkpt lat="43.24958" lon="2.66879">
        <ele>59.2</ele>
        <time>2017-01-20T14:20:22Z</time>
      </trkpt>
      <trkpt lat="43.24953" lon="2.66879">
        <ele>59.3</ele>
        <time>2017-01-20T14:20:25Z</time>
      </trkpt>
      <trkpt lat="43.24951" lon="2.66879">
        <ele>58.8</ele>
        <time>2017-01-20T14:20:28Z</time>
      </trkpt>
      <trkpt lat="43.2495" lon="2.66879">
        <ele>58.3</ele>
        <time>2017-01-20T14:20:29Z</time>
      </trkpt>
      <trkpt lat="43.2495" lon="2.66879">
        <ele>58</ele>
        <time>2017-01-20T14:20:30Z</time>
      </trkpt>
      <trkpt lat="43.2495" lon="2.66879">
        <ele>57.7</ele>
        <time>2017-01-20T14:20:31Z</time>
      </trkpt>
      <trkpt lat="43.2495" lon="2.66879">
        <ele>57.6</ele>
        <time>2017-01-20T14:20:32Z</time>
      </trkpt>
      <trkpt lat="43.2495" lon="2.66879">
        <ele>57.4</ele>
        <time>2017-01-20T14:20:33Z</time>
      </trkpt>
      <trkpt lat="43.2495" lon="2.66879">
        <ele>57.3</ele>
        <time>2017-01-20T14:20:34Z</time>
      </trkpt>
      <trkpt lat="43.2495" lon="2.66879">
        <ele>57.2</ele>
        <time>2017-01-20T14:20:35Z</time>
      </trkpt>
      <trkpt lat="43.2495" lon="2.6688">
        <ele>57.2</ele>
        <time>2017-01-20T14:20:36Z</time>
      </trkpt>
      <trkpt lat="43.2495" lon="2.6688">
        <ele>57.3</ele>
        <time>2017-01-20T14:20:37Z</time>
      </trkpt>
      <trkpt lat="43.2495" lon="2.6688">
        <ele>57.4</ele>
        <time>2017-01-20T14:20:38Z</time>
      </trkpt>
      <trkpt lat="43.2495" lon="2.6688">
        <ele>57.5</ele>
        <time>2017-01-20T14:20:39Z</time>
      </trkpt>
      <trkpt lat="43.2495" lon="2.66881">
        <ele>58</ele>
        <time>2017-01-20T14:20:40Z</time>
      </trkpt>
      <trkpt lat="43.24949" lon="2.66881">
        <ele>58.4</ele>
        <time>2017-01-20T14:20:41Z</time>
      </trkpt>
      <trkpt lat="43.24947" lon="2.66881">
        <ele>58.7</ele>
        <time>2017-01-20T14:20:42Z</time>
      </trkpt>
      <trkpt lat="43.24943" lon="2.66881">
        <ele>58.3</ele>
        <time>2017-01-20T14:20:44Z</time>
      </trkpt>
      <trkpt lat="43.24927" lon="2.66879">
        <ele>58.6</ele>
        <time>2017-01-20T14:20:51Z</time>
      </trkpt>
      <trkpt lat="43.24925" lon="2.6688">
        <ele>58.6</ele>
        <time>2017-01-20T14:20:52Z</time>
      </trkpt>
      <trkpt lat="43.24898" lon="2.66891">
        <ele>58.6</ele>
        <time>2017-01-20T14:21:04Z</time>
      </trkpt>
      <trkpt lat="43.24898" lon="2.66891">
        <ele>58.6</ele>
        <time>2017-01-20T14:21:05Z</time>
      </trkpt>
      <trkpt lat="43.24898" lon="2.66891">
        <ele>58.6</ele>
        <time>2017-01-20T14:21:06Z</time>
      </trkpt>
      <trkpt lat="43.24898" lon="2.66891">
        <ele>58.6</ele>
        <time>2017-01-20T14:21:07Z</time>
      </trkpt>
      <trkpt lat="43.24888" lon="2.66891">
        <ele>58.5</ele>
        <time>2017-01-20T14:21:13Z</time>
      </trkpt>
      <trkpt lat="43.24878" lon="2.66889">
        <ele>59.1</ele>
        <time>2017-01-20T14:21:16Z</time>
      </trkpt>
      <trkpt lat="43.2485" lon="2.66877">
        <ele>58.7</ele>
        <time>2017-01-20T14:21:24Z</time>
      </trkpt>
      <trkpt lat="43.24844" lon="2.66871">
        <ele>58.3</ele>
        <time>2017-01-20T14:21:26Z</time>
      </trkpt>
      <trkpt lat="43.24822" lon="2.66849">
        <ele>57.8</ele>
        <time>2017-01-20T14:21:34Z</time>
      </trkpt>
      <trkpt lat="43.2482" lon="2.66847">
        <ele>57.6</ele>
        <time>2017-01-20T14:21:35Z</time>
      </trkpt>
      <trkpt lat="43.24817" lon="2.66843">
        <ele>58.1</ele>
        <time>2017-01-20T14:21:39Z</time>
      </trkpt>
      <trkpt lat="43.24817" lon="2.66843">
        <ele>58.1</ele>
        <time>2017-01-20T14:21:40Z</time>
      </trkpt>
      <trkpt lat="43.24817" lon="2.66843">
        <ele>58</ele>
        <time>2017-01-20T14:21:41Z</time>
      </trkpt>
      <trkpt lat="43.24817" lon="2.66843">
        <ele>57.9</ele>
        <time>2017-01-20T14:21:42Z</time>
      </trkpt>
      <trkpt lat="43.24817" lon="2.66843">
        <ele>57.9</ele>
        <time>2017-01-20T14:21:43Z</time>
      </trkpt>
      <trkpt lat="43.24817" lon="2.66843">
        <ele>57.9</ele>
        <time>2017-01-20T14:21:44Z</time>
      </trkpt>
      <trkpt lat="43.24814" lon="2.66839">
        <ele>57.9</ele>
        <time>2017-01-20T14:21:45Z</time>
      </trkpt>
      <trkpt lat="43.24789" lon="2.66803">
        <ele>58.6</ele>
        <time>2017-01-20T14:21:57Z</time>
      </trkpt>
      <trkpt lat="43.24787" lon="2.66799">
        <ele>58.4</ele>
        <time>2017-01-20T14:21:58Z</time>
      </trkpt>
      <trkpt lat="43.24775" lon="2.6677">
        <ele>57.3</ele>
        <time>2017-01-20T14:22:07Z</time>
      </trkpt>
      <trkpt lat="43.24775" lon="2.6677">
        <ele>57.5</ele>
        <time>2017-01-20T14:22:08Z</time>
      </trkpt>
      <trkpt lat="43.24775" lon="2.6677">
        <ele>57.6</ele>
        <time>2017-01-20T14:22:09Z</time>
      </trkpt>
      <trkpt lat="43.24775" lon="2.6677">
        <ele>57.6</ele>
        <time>2017-01-20T14:22:10Z</time>
      </trkpt>
      <trkpt lat="43.24775" lon="2.6677">
        <ele>57.7</ele>
        <time>2017-01-20T14:22:11Z</time>
      </trkpt>
      <trkpt lat="43.24775" lon="2.6677">
        <ele>57.7</ele>
        <time>2017-01-20T14:22:12Z</time>
      </trkpt>
      <trkpt lat="43.24775" lon="2.6677">
        <ele>57.9</ele>
        <time>2017-01-20T14:22:13Z</time>
      </trkpt>
      <trkpt lat="43.24775" lon="2.6677">
        <ele>58.1</ele>
        <time>2017-01-20T14:22:14Z</time>
      </trkpt>
      <trkpt lat="43.24773" lon="2.66768">
        <ele>58.2</ele>
        <time>2017-01-20T14:22:15Z</time>
      </trkpt>
      <trkpt lat="43.24772" lon="2.66767">
        <ele>58.1</ele>
        <time>2017-01-20T14:22:16Z</time>
      </trkpt>
      <trkpt lat="43.24757" lon="2.66748">
        <ele>58.8</ele>
        <time>2017-01-20T14:22:24Z</time>
      </trkpt>
      <trkpt lat="43.24755" lon="2.66744">
        <ele>59</ele>
        <time>2017-01-20T14:22:25Z</time>
      </trkpt>
      <trkpt lat="43.24747" lon="2.66723">
        <ele>60.1</ele>
        <time>2017-01-20T14:22:34Z</time>
      </trkpt>
      <trkpt lat="43.24747" lon="2.66723">
        <ele>59.9</ele>
        <time>2017-01-20T14:22:35Z</time>
      </trkpt>
      <trkpt lat="43.24747" lon="2.66723">
        <ele>59.8</ele>
        <time>2017-01-20T14:22:36Z</time>
      </trkpt>
      <trkpt lat="43.24747" lon="2.66723">
        <ele>59.9</ele>
        <time>2017-01-20T14:22:37Z</time>
      </trkpt>
      <trkpt lat="43.24747" lon="2.66723">
        <ele>60</ele>
        <time>2017-01-20T14:22:38Z</time>
      </trkpt>
      <trkpt lat="43.24747" lon="2.66723">
        <ele>60.1</ele>
        <time>2017-01-20T14:22:39Z</time>
      </trkpt>
      <trkpt lat="43.24746" lon="2.66719">
        <ele>59.9</ele>
        <time>2017-01-20T14:22:40Z</time>
      </trkpt>
      <trkpt lat="43.24721" lon="2.66628">
        <ele>60</ele>
        <time>2017-01-20T14:23:03Z</time>
      </trkpt>
      <trkpt lat="43.24721" lon="2.66625">
        <ele>59.8</ele>
        <time>2017-01-20T14:23:05Z</time>
      </trkpt>
      <trkpt lat="43.24721" lon="2.66625">
        <ele>59.7</ele>
        <time>2017-01-20T14:23:06Z</time>
      </trkpt>
      <trkpt lat="43.24721" lon="2.66625">
        <ele>59.8</ele>
        <time>2017-01-20T14:23:07Z</time>
      </trkpt>
      <trkpt lat="43.24721" lon="2.66625">
        <ele>60</ele>
        <time>2017-01-20T14:23:08Z</time>
      </trkpt>
      <trkpt lat="43.24721" lon="2.66625">
        <ele>60</ele>
        <time>2017-01-20T14:23:09Z</time>
      </trkpt>
      <trkpt lat="43.24721" lon="2.66625">
        <ele>59.9</ele>
        <time>2017-01-20T14:23:10Z</time>
      </trkpt>
      <trkpt lat="43.24721" lon="2.66625">
        <ele>59.8</ele>
        <time>2017-01-20T14:23:11Z</time>
      </trkpt>
      <trkpt lat="43.24721" lon="2.66625">
        <ele>59.7</ele>
        <time>2017-01-20T14:23:12Z</time>
      </trkpt>
      <trkpt lat="43.24721" lon="2.66625">
        <ele>59.9</ele>
        <time>2017-01-20T14:23:13Z</time>
      </trkpt>
      <trkpt lat="43.24721" lon="2.66625">
        <ele>60</ele>
        <time>2017-01-20T14:23:14Z</time>
      </trkpt>
      <trkpt lat="43.24721" lon="2.66625">
        <ele>60</ele>
        <time>2017-01-20T14:23:15Z</time>
      </trkpt>
      <trkpt lat="43.24721" lon="2.66625">
        <ele>59.9</ele>
        <time>2017-01-20T14:23:16Z</time>
      </trkpt>
      <trkpt lat="43.24721" lon="2.66625">
        <ele>59.8</ele>
        <time>2017-01-20T14:23:17Z</time>
      </trkpt>
      <trkpt lat="43.24721" lon="2.66625">
        <ele>59.7</ele>
        <time>2017-01-20T14:23:18Z</time>
      </trkpt>
      <trkpt lat="43.24721" lon="2.66625">
        <ele>60.1</ele>
        <time>2017-01-20T14:23:19Z</time>
      </trkpt>
      <trkpt lat="43.24721" lon="2.66625">
        <ele>60.3</ele>
        <time>2017-01-20T14:23:20Z</time>
      </trkpt>
      <trkpt lat="43.24721" lon="2.66625">
        <ele>60.5</ele>
        <time>2017-01-20T14:23:21Z</time>
      </trkpt>
      <trkpt lat="43.24721" lon="2.6662">
        <ele>60.5</ele>
        <time>2017-01-20T14:23:22Z</time>
      </trkpt>
      <trkpt lat="43.2472" lon="2.66618">
        <ele>60.4</ele>
        <time>2017-01-20T14:23:23Z</time>
      </trkpt>
      <trkpt lat="43.24717" lon="2.66595">
        <ele>60.1</ele>
        <time>2017-01-20T14:23:30Z</time>
      </trkpt>
      <trkpt lat="43.24717" lon="2.66591">
        <ele>60.2</ele>
        <time>2017-01-20T14:23:31Z</time>
      </trkpt>
      <trkpt lat="43.24719" lon="2.6657">
        <ele>59.4</ele>
        <time>2017-01-20T14:23:38Z</time>
      </trkpt>
      <trkpt lat="43.24719" lon="2.66568">
        <ele>59.4</ele>
        <time>2017-01-20T14:23:39Z</time>
      </trkpt>
      <trkpt lat="43.24755" lon="2.66385">
        <ele>59.4</ele>
        <time>2017-01-20T14:24:35Z</time>
      </trkpt>
      <trkpt lat="43.24755" lon="2.66384">
        <ele>59.2</ele>
        <time>2017-01-20T14:24:43Z</time>
      </trkpt>
      <trkpt lat="43.24755" lon="2.66384">
        <ele>58.9</ele>
        <time>2017-01-20T14:24:44Z</time>
      </trkpt>
      <trkpt lat="43.24756" lon="2.66381">
        <ele>59</ele>
        <time>2017-01-20T14:24:46Z</time>
      </trkpt>
      <trkpt lat="43.24758" lon="2.66376">
        <ele>59.6</ele>
        <time>2017-01-20T14:24:48Z</time>
      </trkpt>
      <trkpt lat="43.24761" lon="2.66365">
        <ele>59.5</ele>
        <time>2017-01-20T14:24:51Z</time>
      </trkpt>
      <trkpt lat="43.24764" lon="2.66345">
        <ele>59.4</ele>
        <time>2017-01-20T14:24:55Z</time>
      </trkpt>
      <trkpt lat="43.24786" lon="2.66231">
        <ele>59.6</ele>
        <time>2017-01-20T14:25:16Z</time>
      </trkpt>
      <trkpt lat="43.24787" lon="2.66226">
        <ele>59.6</ele>
        <time>2017-01-20T14:25:17Z</time>
      </trkpt>
      <trkpt lat="43.24796" lon="2.662">
        <ele>58.8</ele>
        <time>2017-01-20T14:25:23Z</time>
      </trkpt>
      <trkpt lat="43.24796" lon="2.66196">
        <ele>58.5</ele>
        <time>2017-01-20T14:25:24Z</time>
      </trkpt>
      <trkpt lat="43.24797" lon="2.66194">
        <ele>58.6</ele>
        <time>2017-01-20T14:25:25Z</time>
      </trkpt>
      <trkpt lat="43.24798" lon="2.66187">
        <ele>58.6</ele>
        <time>2017-01-20T14:25:29Z</time>
      </trkpt>
      <trkpt lat="43.24798" lon="2.66187">
        <ele>58.6</ele>
        <time>2017-01-20T14:25:30Z</time>
      </trkpt>
      <trkpt lat="43.24798" lon="2.66187">
        <ele>58.2</ele>
        <time>2017-01-20T14:25:31Z</time>
      </trkpt>
      <trkpt lat="43.24798" lon="2.66187">
        <ele>57.9</ele>
        <time>2017-01-20T14:25:32Z</time>
      </trkpt>
      <trkpt lat="43.24798" lon="2.66187">
        <ele>57.7</ele>
        <time>2017-01-20T14:25:33Z</time>
      </trkpt>
      <trkpt lat="43.24798" lon="2.66187">
        <ele>57.5</ele>
        <time>2017-01-20T14:25:34Z</time>
      </trkpt>
      <trkpt lat="43.24798" lon="2.66187">
        <ele>57.4</ele>
        <time>2017-01-20T14:25:35Z</time>
      </trkpt>
      <trkpt lat="43.24798" lon="2.66187">
        <ele>57.3</ele>
        <time>2017-01-20T14:25:36Z</time>
      </trkpt>
      <trkpt lat="43.24798" lon="2.66183">
        <ele>57.4</ele>
        <time>2017-01-20T14:25:37Z</time>
      </trkpt>
      <trkpt lat="43.2482" lon="2.66046">
        <ele>57.9</ele>
        <time>2017-01-20T14:26:03Z</time>
      </trkpt>
      <trkpt lat="43.2482" lon="2.6604">
        <ele>57.6</ele>
        <time>2017-01-20T14:26:04Z</time>
      </trkpt>
      <trkpt lat="43.24819" lon="2.66014">
        <ele>58.1</ele>
        <time>2017-01-20T14:26:09Z</time>
      </trkpt>
      <trkpt lat="43.24818" lon="2.6601">
        <ele>58.2</ele>
        <time>2017-01-20T14:26:10Z</time>
      </trkpt>
      <trkpt lat="43.24816" lon="2.66005">
        <ele>58.4</ele>
        <time>2017-01-20T14:26:12Z</time>
      </trkpt>
      <trkpt lat="43.24812" lon="2.65996">
        <ele>58</ele>
        <time>2017-01-20T14:26:16Z</time>
      </trkpt>
      <trkpt lat="43.24812" lon="2.65996">
        <ele>58</ele>
        <time>2017-01-20T14:26:17Z</time>
      </trkpt>
      <trkpt lat="43.24812" lon="2.65996">
        <ele>57.9</ele>
        <time>2017-01-20T14:26:18Z</time>
      </trkpt>
      <trkpt lat="43.24812" lon="2.65996">
        <ele>57.9</ele>
        <time>2017-01-20T14:26:19Z</time>
      </trkpt>
      <trkpt lat="43.24812" lon="2.65996">
        <ele>57.9</ele>
        <time>2017-01-20T14:26:20Z</time>
      </trkpt>
      <trkpt lat="43.24812" lon="2.65996">
        <ele>57.9</ele>
        <time>2017-01-20T14:26:21Z</time>
      </trkpt>
      <trkpt lat="43.24812" lon="2.65996">
        <ele>57.6</ele>
        <time>2017-01-20T14:26:22Z</time>
      </trkpt>
      <trkpt lat="43.24812" lon="2.65996">
        <ele>57.5</ele>
        <time>2017-01-20T14:26:23Z</time>
      </trkpt>
      <trkpt lat="43.24812" lon="2.65996">
        <ele>57.4</ele>
        <time>2017-01-20T14:26:24Z</time>
      </trkpt>
      <trkpt lat="43.24812" lon="2.65996">
        <ele>57.5</ele>
        <time>2017-01-20T14:26:25Z</time>
      </trkpt>
      <trkpt lat="43.24812" lon="2.65996">
        <ele>57.6</ele>
        <time>2017-01-20T14:26:26Z</time>
      </trkpt>
      <trkpt lat="43.24812" lon="2.65996">
        <ele>57.6</ele>
        <time>2017-01-20T14:26:27Z</time>
      </trkpt>
      <trkpt lat="43.24812" lon="2.65996">
        <ele>57.7</ele>
        <time>2017-01-20T14:26:28Z</time>
      </trkpt>
      <trkpt lat="43.24812" lon="2.65996">
        <ele>57.7</ele>
        <time>2017-01-20T14:26:29Z</time>
      </trkpt>
      <trkpt lat="43.24812" lon="2.65996">
        <ele>57.7</ele>
        <time>2017-01-20T14:26:30Z</time>
      </trkpt>
      <trkpt lat="43.2481" lon="2.65991">
        <ele>57.5</ele>
        <time>2017-01-20T14:26:31Z</time>
      </trkpt>
      <trkpt lat="43.24809" lon="2.65989">
        <ele>57.4</ele>
        <time>2017-01-20T14:26:32Z</time>
      </trkpt>
      <trkpt lat="43.24808" lon="2.65988">
        <ele>57.3</ele>
        <time>2017-01-20T14:26:33Z</time>
      </trkpt>
      <trkpt lat="43.24808" lon="2.65986">
        <ele>57.5</ele>
        <time>2017-01-20T14:26:35Z</time>
      </trkpt>
      <trkpt lat="43.24808" lon="2.65986">
        <ele>57.6</ele>
        <time>2017-01-20T14:26:36Z</time>
      </trkpt>
      <trkpt lat="43.24808" lon="2.65986">
        <ele>57.2</ele>
        <time>2017-01-20T14:26:37Z</time>
      </trkpt>
      <trkpt lat="43.24808" lon="2.65986">
        <ele>57</ele>
        <time>2017-01-20T14:26:38Z</time>
      </trkpt>
      <trkpt lat="43.24808" lon="2.65986">
        <ele>56.8</ele>
        <time>2017-01-20T14:26:39Z</time>
      </trkpt>
      <trkpt lat="43.24808" lon="2.65986">
        <ele>57.2</ele>
        <time>2017-01-20T14:26:40Z</time>
      </trkpt>
      <trkpt lat="43.24808" lon="2.65986">
        <ele>57.6</ele>
        <time>2017-01-20T14:26:41Z</time>
      </trkpt>
      <trkpt lat="43.24808" lon="2.65986">
        <ele>57.8</ele>
        <time>2017-01-20T14:26:42Z</time>
      </trkpt>
      <trkpt lat="43.24806" lon="2.65983">
        <ele>57.6</ele>
        <time>2017-01-20T14:26:43Z</time>
      </trkpt>
      <trkpt lat="43.24805" lon="2.65981">
        <ele>57.5</ele>
        <time>2017-01-20T14:26:44Z</time>
      </trkpt>
      <trkpt lat="43.24797" lon="2.65973">
        <ele>57.6</ele>
        <time>2017-01-20T14:26:48Z</time>
      </trkpt>
      <trkpt lat="43.24793" lon="2.65968">
        <ele>57.3</ele>
        <time>2017-01-20T14:26:50Z</time>
      </trkpt>
      <trkpt lat="43.24788" lon="2.65965">
        <ele>57.8</ele>
        <time>2017-01-20T14:26:52Z</time>
      </trkpt>
      <trkpt lat="43.24782" lon="2.65963">
        <ele>59</ele>
        <time>2017-01-20T14:26:55Z</time>
      </trkpt>
      <trkpt lat="43.2478" lon="2.65963">
        <ele>59.3</ele>
        <time>2017-01-20T14:26:56Z</time>
      </trkpt>
      <trkpt lat="43.24779" lon="2.65963">
        <ele>59.5</ele>
        <time>2017-01-20T14:26:58Z</time>
      </trkpt>
      <trkpt lat="43.24779" lon="2.65963">
        <ele>59.5</ele>
        <time>2017-01-20T14:26:59Z</time>
      </trkpt>
      <trkpt lat="43.24779" lon="2.65963">
        <ele>59.5</ele>
        <time>2017-01-20T14:27:00Z</time>
      </trkpt>
      <trkpt lat="43.24779" lon="2.65963">
        <ele>59.9</ele>
        <time>2017-01-20T14:27:01Z</time>
      </trkpt>
      <trkpt lat="43.24779" lon="2.65963">
        <ele>60.2</ele>
        <time>2017-01-20T14:27:02Z</time>
      </trkpt>
      <trkpt lat="43.24779" lon="2.65963">
        <ele>60.4</ele>
        <time>2017-01-20T14:27:03Z</time>
      </trkpt>
      <trkpt lat="43.24779" lon="2.65963">
        <ele>60.6</ele>
        <time>2017-01-20T14:27:04Z</time>
      </trkpt>
      <trkpt lat="43.24776" lon="2.65963">
        <ele>60.7</ele>
        <time>2017-01-20T14:27:05Z</time>
      </trkpt>
      <trkpt lat="43.24775" lon="2.65962">
        <ele>60.8</ele>
        <time>2017-01-20T14:27:06Z</time>
      </trkpt>
      <trkpt lat="43.24759" lon="2.65954">
        <ele>60.3</ele>
        <time>2017-01-20T14:27:13Z</time>
      </trkpt>
      <trkpt lat="43.24753" lon="2.65951">
        <ele>59.9</ele>
        <time>2017-01-20T14:27:15Z</time>
      </trkpt>
      <trkpt lat="43.24753" lon="2.65951">
        <ele>59.4</ele>
        <time>2017-01-20T14:27:17Z</time>
      </trkpt>
      <trkpt lat="43.24753" lon="2.65951">
        <ele>59.2</ele>
        <time>2017-01-20T14:27:18Z</time>
      </trkpt>
      <trkpt lat="43.24753" lon="2.65951">
        <ele>59.1</ele>
        <time>2017-01-20T14:27:19Z</time>
      </trkpt>
      <trkpt lat="43.24753" lon="2.65951">
        <ele>58.9</ele>
        <time>2017-01-20T14:27:20Z</time>
      </trkpt>
      <trkpt lat="43.24753" lon="2.65951">
        <ele>58.9</ele>
        <time>2017-01-20T14:27:21Z</time>
      </trkpt>
      <trkpt lat="43.24753" lon="2.65951">
        <ele>58.8</ele>
        <time>2017-01-20T14:27:22Z</time>
      </trkpt>
      <trkpt lat="43.24753" lon="2.65951">
        <ele>58.8</ele>
        <time>2017-01-20T14:27:23Z</time>
      </trkpt>
      <trkpt lat="43.24753" lon="2.65951">
        <ele>58.7</ele>
        <time>2017-01-20T14:27:24Z</time>
      </trkpt>
      <trkpt lat="43.24753" lon="2.65951">
        <ele>58.7</ele>
        <time>2017-01-20T14:27:25Z</time>
      </trkpt>
      <trkpt lat="43.24753" lon="2.65951">
        <ele>58.7</ele>
        <time>2017-01-20T14:27:26Z</time>
      </trkpt>
      <trkpt lat="43.24753" lon="2.65951">
        <ele>58.7</ele>
        <time>2017-01-20T14:27:27Z</time>
      </trkpt>
      <trkpt lat="43.24753" lon="2.65951">
        <ele>58.9</ele>
        <time>2017-01-20T14:27:28Z</time>
      </trkpt>
      <trkpt lat="43.24753" lon="2.65951">
        <ele>59</ele>
        <time>2017-01-20T14:27:29Z</time>
      </trkpt>
      <trkpt lat="43.24753" lon="2.65951">
        <ele>59.1</ele>
        <time>2017-01-20T14:27:30Z</time>
      </trkpt>
      <trkpt lat="43.24753" lon="2.65951">
        <ele>59.2</ele>
        <time>2017-01-20T14:27:31Z</time>
      </trkpt>
      <trkpt lat="43.24753" lon="2.65951">
        <ele>59.3</ele>
        <time>2017-01-20T14:27:32Z</time>
      </trkpt>
      <trkpt lat="43.24753" lon="2.65951">
        <ele>59.3</ele>
        <time>2017-01-20T14:27:33Z</time>
      </trkpt>
      <trkpt lat="43.24753" lon="2.65951">
        <ele>59.4</ele>
        <time>2017-01-20T14:27:34Z</time>
      </trkpt>
      <trkpt lat="43.24753" lon="2.65951">
        <ele>59.4</ele>
        <time>2017-01-20T14:27:35Z</time>
      </trkpt>
      <trkpt lat="43.24753" lon="2.65951">
        <ele>59.4</ele>
        <time>2017-01-20T14:27:36Z</time>
      </trkpt>
      <trkpt lat="43.24753" lon="2.65951">
        <ele>59.2</ele>
        <time>2017-01-20T14:27:37Z</time>
      </trkpt>
      <trkpt lat="43.24753" lon="2.65951">
        <ele>59.1</ele>
        <time>2017-01-20T14:27:38Z</time>
      </trkpt>
      <trkpt lat="43.24753" lon="2.65951">
        <ele>59</ele>
        <time>2017-01-20T14:27:39Z</time>
      </trkpt>
      <trkpt lat="43.24753" lon="2.65951">
        <ele>59.1</ele>
        <time>2017-01-20T14:27:40Z</time>
      </trkpt>
      <trkpt lat="43.24753" lon="2.65951">
        <ele>59.2</ele>
        <time>2017-01-20T14:27:41Z</time>
      </trkpt>
      <trkpt lat="43.24753" lon="2.65951">
        <ele>59.3</ele>
        <time>2017-01-20T14:27:42Z</time>
      </trkpt>
      <trkpt lat="43.24753" lon="2.65951">
        <ele>59.1</ele>
        <time>2017-01-20T14:27:43Z</time>
      </trkpt>
      <trkpt lat="43.24753" lon="2.65951">
        <ele>59</ele>
        <time>2017-01-20T14:27:44Z</time>
      </trkpt>
      <trkpt lat="43.24753" lon="2.65951">
        <ele>58.9</ele>
        <time>2017-01-20T14:27:45Z</time>
      </trkpt>
      <trkpt lat="43.24753" lon="2.65951">
        <ele>59</ele>
        <time>2017-01-20T14:27:46Z</time>
      </trkpt>
      <trkpt lat="43.24753" lon="2.65951">
        <ele>59.1</ele>
        <time>2017-01-20T14:27:47Z</time>
      </trkpt>
      <trkpt lat="43.24753" lon="2.65951">
        <ele>59.2</ele>
        <time>2017-01-20T14:27:48Z</time>
      </trkpt>
      <trkpt lat="43.24753" lon="2.65951">
        <ele>58.7</ele>
        <time>2017-01-20T14:27:49Z</time>
      </trkpt>
      <trkpt lat="43.24753" lon="2.65951">
        <ele>58.2</ele>
        <time>2017-01-20T14:27:50Z</time>
      </trkpt>
      <trkpt lat="43.24753" lon="2.65951">
        <ele>57.9</ele>
        <time>2017-01-20T14:27:51Z</time>
      </trkpt>
      <trkpt lat="43.24753" lon="2.65951">
        <ele>58.5</ele>
        <time>2017-01-20T14:27:52Z</time>
      </trkpt>
      <trkpt lat="43.24753" lon="2.65951">
        <ele>59</ele>
        <time>2017-01-20T14:27:53Z</time>
      </trkpt>
      <trkpt lat="43.24753" lon="2.65951">
        <ele>59.3</ele>
        <time>2017-01-20T14:27:54Z</time>
      </trkpt>
      <trkpt lat="43.24753" lon="2.65951">
        <ele>59.3</ele>
        <time>2017-01-20T14:27:55Z</time>
      </trkpt>
      <trkpt lat="43.24753" lon="2.65951">
        <ele>59.4</ele>
        <time>2017-01-20T14:27:56Z</time>
      </trkpt>
      <trkpt lat="43.24753" lon="2.65951">
        <ele>59.4</ele>
        <time>2017-01-20T14:27:57Z</time>
      </trkpt>
      <trkpt lat="43.24753" lon="2.65951">
        <ele>59.2</ele>
        <time>2017-01-20T14:27:58Z</time>
      </trkpt>
      <trkpt lat="43.24753" lon="2.65951">
        <ele>59.1</ele>
        <time>2017-01-20T14:27:59Z</time>
      </trkpt>
      <trkpt lat="43.24753" lon="2.65951">
        <ele>59</ele>
        <time>2017-01-20T14:28:00Z</time>
      </trkpt>
      <trkpt lat="43.24753" lon="2.65951">
        <ele>58.9</ele>
        <time>2017-01-20T14:28:01Z</time>
      </trkpt>
      <trkpt lat="43.24753" lon="2.65951">
        <ele>58.8</ele>
        <time>2017-01-20T14:28:02Z</time>
      </trkpt>
      <trkpt lat="43.24753" lon="2.65951">
        <ele>58.8</ele>
        <time>2017-01-20T14:28:03Z</time>
      </trkpt>
      <trkpt lat="43.24753" lon="2.65951">
        <ele>58.7</ele>
        <time>2017-01-20T14:28:04Z</time>
      </trkpt>
      <trkpt lat="43.24753" lon="2.65951">
        <ele>58.7</ele>
        <time>2017-01-20T14:28:05Z</time>
      </trkpt>
      <trkpt lat="43.24753" lon="2.65951">
        <ele>58.7</ele>
        <time>2017-01-20T14:28:06Z</time>
      </trkpt>
      <trkpt lat="43.24753" lon="2.65951">
        <ele>58.5</ele>
        <time>2017-01-20T14:28:07Z</time>
      </trkpt>
      <trkpt lat="43.24753" lon="2.65951">
        <ele>58.3</ele>
        <time>2017-01-20T14:28:08Z</time>
      </trkpt>
      <trkpt lat="43.24753" lon="2.65951">
        <ele>58.2</ele>
        <time>2017-01-20T14:28:09Z</time>
      </trkpt>
      <trkpt lat="43.24753" lon="2.65951">
        <ele>58.7</ele>
        <time>2017-01-20T14:28:10Z</time>
      </trkpt>
      <trkpt lat="43.24753" lon="2.65951">
        <ele>59.1</ele>
        <time>2017-01-20T14:28:11Z</time>
      </trkpt>
      <trkpt lat="43.24753" lon="2.65951">
        <ele>59.4</ele>
        <time>2017-01-20T14:28:12Z</time>
      </trkpt>
      <trkpt lat="43.24753" lon="2.65951">
        <ele>59.2</ele>
        <time>2017-01-20T14:28:13Z</time>
      </trkpt>
      <trkpt lat="43.24753" lon="2.65951">
        <ele>59.1</ele>
        <time>2017-01-20T14:28:14Z</time>
      </trkpt>
      <trkpt lat="43.24758" lon="2.65953">
        <ele>59</ele>
        <time>2017-01-20T14:28:15Z</time>
      </trkpt>
      <trkpt lat="43.24761" lon="2.65954">
        <ele>59.3</ele>
        <time>2017-01-20T14:28:16Z</time>
      </trkpt>
      <trkpt lat="43.24764" lon="2.65959">
        <ele>59.7</ele>
        <time>2017-01-20T14:28:18Z</time>
      </trkpt>
      <trkpt lat="43.24765" lon="2.65962">
        <ele>59.7</ele>
        <time>2017-01-20T14:28:19Z</time>
      </trkpt>
      <trkpt lat="43.24762" lon="2.65966">
        <ele>59.6</ele>
        <time>2017-01-20T14:28:21Z</time>
      </trkpt>
      <trkpt lat="43.2476" lon="2.65967">
        <ele>59.6</ele>
        <time>2017-01-20T14:28:22Z</time>
      </trkpt>
      <trkpt lat="43.24758" lon="2.65968">
        <ele>59.5</ele>
        <time>2017-01-20T14:28:23Z</time>
      </trkpt>
      <trkpt lat="43.24758" lon="2.65968">
        <ele>59.5</ele>
        <time>2017-01-20T14:28:24Z</time>
      </trkpt>
      <trkpt lat="43.24758" lon="2.65968">
        <ele>59.9</ele>
        <time>2017-01-20T14:28:25Z</time>
      </trkpt>
      <trkpt lat="43.24758" lon="2.65968">
        <ele>60.2</ele>
        <time>2017-01-20T14:28:26Z</time>
      </trkpt>
      <trkpt lat="43.24755" lon="2.65961">
        <ele>60.4</ele>
        <time>2017-01-20T14:28:27Z</time>
      </trkpt>
      <trkpt lat="43.24755" lon="2.65957">
        <ele>60.6</ele>
        <time>2017-01-20T14:28:28Z</time>
      </trkpt>
      <trkpt lat="43.24769" lon="2.6588">
        <ele>63.3</ele>
        <time>2017-01-20T14:28:43Z</time>
      </trkpt>
      <trkpt lat="43.24782" lon="2.6583">
        <ele>62.6</ele>
        <time>2017-01-20T14:28:51Z</time>
      </trkpt>
      <trkpt lat="43.24792" lon="2.65804">
        <ele>63.4</ele>
        <time>2017-01-20T14:28:57Z</time>
      </trkpt>
      <trkpt lat="43.24798" lon="2.65793">
        <ele>64</ele>
        <time>2017-01-20T14:29:00Z</time>
      </trkpt>
      <trkpt lat="43.24804" lon="2.65785">
        <ele>63.8</ele>
        <time>2017-01-20T14:29:03Z</time>
      </trkpt>
      <trkpt lat="43.24809" lon="2.65781">
        <ele>63.7</ele>
        <time>2017-01-20T14:29:05Z</time>
      </trkpt>
      <trkpt lat="43.24826" lon="2.65772">
        <ele>63.3</ele>
        <time>2017-01-20T14:29:10Z</time>
      </trkpt>
      <trkpt lat="43.2483" lon="2.65771">
        <ele>63.4</ele>
        <time>2017-01-20T14:29:11Z</time>
      </trkpt>
      <trkpt lat="43.24887" lon="2.65764">
        <ele>64.2</ele>
        <time>2017-01-20T14:29:28Z</time>
      </trkpt>
      <trkpt lat="43.2489" lon="2.65764">
        <ele>64</ele>
        <time>2017-01-20T14:29:29Z</time>
      </trkpt>
      <trkpt lat="43.24892" lon="2.65763">
        <ele>63.9</ele>
        <time>2017-01-20T14:29:30Z</time>
      </trkpt>
      <trkpt lat="43.24896" lon="2.65757">
        <ele>63.7</ele>
        <time>2017-01-20T14:29:33Z</time>
      </trkpt>
      <trkpt lat="43.24896" lon="2.65757">
        <ele>63.9</ele>
        <time>2017-01-20T14:29:34Z</time>
      </trkpt>
      <trkpt lat="43.24892" lon="2.65754">
        <ele>64</ele>
        <time>2017-01-20T14:29:35Z</time>
      </trkpt>
      <trkpt lat="43.24888" lon="2.65755">
        <ele>64.1</ele>
        <time>2017-01-20T14:29:36Z</time>
      </trkpt>
      <trkpt lat="43.24809" lon="2.65783">
        <ele>66.5</ele>
        <time>2017-01-20T14:29:56Z</time>
      </trkpt>
      <trkpt lat="43.24804" lon="2.65788">
        <ele>66.6</ele>
        <time>2017-01-20T14:29:57Z</time>
      </trkpt>
      <trkpt lat="43.24792" lon="2.65803">
        <ele>66.3</ele>
        <time>2017-01-20T14:30:00Z</time>
      </trkpt>
      <trkpt lat="43.2479" lon="2.65809">
        <ele>66</ele>
        <time>2017-01-20T14:30:01Z</time>
      </trkpt>
      <trkpt lat="43.24782" lon="2.65829">
        <ele>66</ele>
        <time>2017-01-20T14:30:04Z</time>
      </trkpt>
      <trkpt lat="43.24776" lon="2.6585">
        <ele>66.3</ele>
        <time>2017-01-20T14:30:07Z</time>
      </trkpt>
      <trkpt lat="43.24771" lon="2.65872">
        <ele>65.8</ele>
        <time>2017-01-20T14:30:10Z</time>
      </trkpt>
      <trkpt lat="43.24767" lon="2.65895">
        <ele>64.3</ele>
        <time>2017-01-20T14:30:15Z</time>
      </trkpt>
      <trkpt lat="43.24767" lon="2.65895">
        <ele>64.3</ele>
        <time>2017-01-20T14:30:16Z</time>
      </trkpt>
      <trkpt lat="43.24768" lon="2.65903">
        <ele>62.6</ele>
        <time>2017-01-20T14:30:24Z</time>
      </trkpt>
      <trkpt lat="43.24768" lon="2.65903">
        <ele>62.4</ele>
        <time>2017-01-20T14:30:25Z</time>
      </trkpt>
      <trkpt lat="43.24768" lon="2.65903">
        <ele>62.3</ele>
        <time>2017-01-20T14:30:26Z</time>
      </trkpt>
      <trkpt lat="43.24768" lon="2.65903">
        <ele>62.2</ele>
        <time>2017-01-20T14:30:27Z</time>
      </trkpt>
      <trkpt lat="43.24768" lon="2.65903">
        <ele>62.4</ele>
        <time>2017-01-20T14:30:28Z</time>
      </trkpt>
      <trkpt lat="43.24768" lon="2.65903">
        <ele>62.5</ele>
        <time>2017-01-20T14:30:29Z</time>
      </trkpt>
      <trkpt lat="43.24768" lon="2.65903">
        <ele>62.5</ele>
        <time>2017-01-20T14:30:30Z</time>
      </trkpt>
      <trkpt lat="43.24768" lon="2.65903">
        <ele>62.6</ele>
        <time>2017-01-20T14:30:31Z</time>
      </trkpt>
      <trkpt lat="43.24768" lon="2.65903">
        <ele>62.6</ele>
        <time>2017-01-20T14:30:32Z</time>
      </trkpt>
      <trkpt lat="43.24768" lon="2.65903">
        <ele>62.7</ele>
        <time>2017-01-20T14:30:33Z</time>
      </trkpt>
      <trkpt lat="43.24768" lon="2.65903">
        <ele>62.9</ele>
        <time>2017-01-20T14:30:34Z</time>
      </trkpt>
      <trkpt lat="43.24768" lon="2.65903">
        <ele>63.1</ele>
        <time>2017-01-20T14:30:35Z</time>
      </trkpt>
      <trkpt lat="43.24768" lon="2.65903">
        <ele>63.2</ele>
        <time>2017-01-20T14:30:36Z</time>
      </trkpt>
      <trkpt lat="43.24766" lon="2.6591">
        <ele>63.3</ele>
        <time>2017-01-20T14:30:37Z</time>
      </trkpt>
      <trkpt lat="43.2476" lon="2.65925">
        <ele>63.1</ele>
        <time>2017-01-20T14:30:42Z</time>
      </trkpt>
      <trkpt lat="43.24759" lon="2.65929">
        <ele>63.4</ele>
        <time>2017-01-20T14:30:43Z</time>
      </trkpt>
      <trkpt lat="43.24756" lon="2.65943">
        <ele>64.2</ele>
        <time>2017-01-20T14:30:48Z</time>
      </trkpt>
      <trkpt lat="43.24756" lon="2.65943">
        <ele>64</ele>
        <time>2017-01-20T14:30:49Z</time>
      </trkpt>
      <trkpt lat="43.24756" lon="2.65943">
        <ele>63.9</ele>
        <time>2017-01-20T14:30:50Z</time>
      </trkpt>
      <trkpt lat="43.24759" lon="2.65943">
        <ele>63.9</ele>
        <time>2017-01-20T14:30:51Z</time>
      </trkpt>
      <trkpt lat="43.2476" lon="2.6594">
        <ele>64</ele>
        <time>2017-01-20T14:30:52Z</time>
      </trkpt>
      <trkpt lat="43.24761" lon="2.65926">
        <ele>64.1</ele>
        <time>2017-01-20T14:30:58Z</time>
      </trkpt>
      <trkpt lat="43.24761" lon="2.65926">
        <ele>64</ele>
        <time>2017-01-20T14:30:59Z</time>
      </trkpt>
      <trkpt lat="43.24761" lon="2.65926">
        <ele>63.9</ele>
        <time>2017-01-20T14:31:00Z</time>
      </trkpt>
      <trkpt lat="43.24758" lon="2.65924">
        <ele>63.8</ele>
        <time>2017-01-20T14:31:01Z</time>
      </trkpt>
      <trkpt lat="43.24758" lon="2.65924">
        <ele>63.8</ele>
        <time>2017-01-20T14:31:02Z</time>
      </trkpt>
      <trkpt lat="43.24758" lon="2.65924">
        <ele>63.7</ele>
        <time>2017-01-20T14:31:03Z</time>
      </trkpt>
      <trkpt lat="43.24758" lon="2.65924">
        <ele>63.7</ele>
        <time>2017-01-20T14:31:04Z</time>
      </trkpt>
      <trkpt lat="43.24758" lon="2.65924">
        <ele>63.7</ele>
        <time>2017-01-20T14:31:05Z</time>
      </trkpt>
      <trkpt lat="43.24758" lon="2.65924">
        <ele>63.7</ele>
        <time>2017-01-20T14:31:06Z</time>
      </trkpt>
      <trkpt lat="43.24758" lon="2.65924">
        <ele>63.4</ele>
        <time>2017-01-20T14:31:07Z</time>
      </trkpt>
      <trkpt lat="43.24758" lon="2.65924">
        <ele>63.3</ele>
        <time>2017-01-20T14:31:08Z</time>
      </trkpt>
      <trkpt lat="43.24758" lon="2.65928">
        <ele>63.2</ele>
        <time>2017-01-20T14:31:09Z</time>
      </trkpt>
      <trkpt lat="43.24758" lon="2.6593">
        <ele>63.5</ele>
        <time>2017-01-20T14:31:10Z</time>
      </trkpt>
      <trkpt lat="43.24755" lon="2.65963">
        <ele>64.3</ele>
        <time>2017-01-20T14:31:18Z</time>
      </trkpt>
      <trkpt lat="43.24757" lon="2.65966">
        <ele>64.2</ele>
        <time>2017-01-20T14:31:19Z</time>
      </trkpt>
      <trkpt lat="43.2476" lon="2.65967">
        <ele>64</ele>
        <time>2017-01-20T14:31:20Z</time>
      </trkpt>
      <trkpt lat="43.24763" lon="2.65967">
        <ele>63.9</ele>
        <time>2017-01-20T14:31:21Z</time>
      </trkpt>
      <trkpt lat="43.24765" lon="2.65966">
        <ele>63.8</ele>
        <time>2017-01-20T14:31:22Z</time>
      </trkpt>
      <trkpt lat="43.24767" lon="2.65963">
        <ele>63.8</ele>
        <time>2017-01-20T14:31:23Z</time>
      </trkpt>
      <trkpt lat="43.24767" lon="2.6596">
        <ele>63.7</ele>
        <time>2017-01-20T14:31:24Z</time>
      </trkpt>
      <trkpt lat="43.24765" lon="2.65957">
        <ele>63.3</ele>
        <time>2017-01-20T14:31:25Z</time>
      </trkpt>
      <trkpt lat="43.24763" lon="2.65955">
        <ele>63</ele>
        <time>2017-01-20T14:31:26Z</time>
      </trkpt>
      <trkpt lat="43.2476" lon="2.65954">
        <ele>62.7</ele>
        <time>2017-01-20T14:31:27Z</time>
      </trkpt>
      <trkpt lat="43.24754" lon="2.65951">
        <ele>62</ele>
        <time>2017-01-20T14:31:29Z</time>
      </trkpt>
      <trkpt lat="43.2475" lon="2.65952">
        <ele>61.8</ele>
        <time>2017-01-20T14:31:30Z</time>
      </trkpt>
      <trkpt lat="43.24746" lon="2.65954">
        <ele>61.2</ele>
        <time>2017-01-20T14:31:31Z</time>
      </trkpt>
      <trkpt lat="43.24518" lon="2.66114">
        <ele>59.6</ele>
        <time>2017-01-20T14:32:28Z</time>
      </trkpt>
      <trkpt lat="43.24518" lon="2.66114">
        <ele>59.6</ele>
        <time>2017-01-20T14:32:29Z</time>
      </trkpt>
      <trkpt lat="43.24518" lon="2.66114">
        <ele>59.1</ele>
        <time>2017-01-20T14:32:32Z</time>
      </trkpt>
      <trkpt lat="43.24518" lon="2.66114">
        <ele>59</ele>
        <time>2017-01-20T14:32:33Z</time>
      </trkpt>
      <trkpt lat="43.24518" lon="2.66114">
        <ele>58.9</ele>
        <time>2017-01-20T14:32:34Z</time>
      </trkpt>
      <trkpt lat="43.24518" lon="2.66114">
        <ele>58.9</ele>
        <time>2017-01-20T14:32:35Z</time>
      </trkpt>
      <trkpt lat="43.24518" lon="2.66114">
        <ele>58.8</ele>
        <time>2017-01-20T14:32:36Z</time>
      </trkpt>
      <trkpt lat="43.24516" lon="2.66115">
        <ele>58.6</ele>
        <time>2017-01-20T14:32:37Z</time>
      </trkpt>
      <trkpt lat="43.24481" lon="2.6613">
        <ele>58.6</ele>
        <time>2017-01-20T14:32:49Z</time>
      </trkpt>
      <trkpt lat="43.24465" lon="2.66132">
        <ele>58.8</ele>
        <time>2017-01-20T14:32:53Z</time>
      </trkpt>
      <trkpt lat="43.24441" lon="2.66132">
        <ele>58.9</ele>
        <time>2017-01-20T14:32:59Z</time>
      </trkpt>
      <trkpt lat="43.24439" lon="2.66132">
        <ele>59</ele>
        <time>2017-01-20T14:33:01Z</time>
      </trkpt>
      <trkpt lat="43.24439" lon="2.66132">
        <ele>59.1</ele>
        <time>2017-01-20T14:33:02Z</time>
      </trkpt>
      <trkpt lat="43.24439" lon="2.66132">
        <ele>58.6</ele>
        <time>2017-01-20T14:33:03Z</time>
      </trkpt>
      <trkpt lat="43.24439" lon="2.66132">
        <ele>58.2</ele>
        <time>2017-01-20T14:33:04Z</time>
      </trkpt>
      <trkpt lat="43.24439" lon="2.66132">
        <ele>57.9</ele>
        <time>2017-01-20T14:33:05Z</time>
      </trkpt>
      <trkpt lat="43.24439" lon="2.66132">
        <ele>57.9</ele>
        <time>2017-01-20T14:33:06Z</time>
      </trkpt>
      <trkpt lat="43.24436" lon="2.66131">
        <ele>57.9</ele>
        <time>2017-01-20T14:33:07Z</time>
      </trkpt>
      <trkpt lat="43.24434" lon="2.6613">
        <ele>57.8</ele>
        <time>2017-01-20T14:33:08Z</time>
      </trkpt>
      <trkpt lat="43.24392" lon="2.66104">
        <ele>58</ele>
        <time>2017-01-20T14:33:19Z</time>
      </trkpt>
      <trkpt lat="43.24367" lon="2.66082">
        <ele>59.4</ele>
        <time>2017-01-20T14:33:25Z</time>
      </trkpt>
      <trkpt lat="43.24311" lon="2.66027">
        <ele>58.5</ele>
        <time>2017-01-20T14:33:41Z</time>
      </trkpt>
      <trkpt lat="43.24311" lon="2.66027">
        <ele>58.3</ele>
        <time>2017-01-20T14:33:42Z</time>
      </trkpt>
      <trkpt lat="43.24311" lon="2.66027">
        <ele>58.2</ele>
        <time>2017-01-20T14:33:43Z</time>
      </trkpt>
      <trkpt lat="43.24311" lon="2.66027">
        <ele>58.1</ele>
        <time>2017-01-20T14:33:44Z</time>
      </trkpt>
      <trkpt lat="43.24311" lon="2.66027">
        <ele>58</ele>
        <time>2017-01-20T14:33:45Z</time>
      </trkpt>
      <trkpt lat="43.24311" lon="2.66027">
        <ele>58</ele>
        <time>2017-01-20T14:33:46Z</time>
      </trkpt>
      <trkpt lat="43.24311" lon="2.66027">
        <ele>57.9</ele>
        <time>2017-01-20T14:33:47Z</time>
      </trkpt>
      <trkpt lat="43.24311" lon="2.66027">
        <ele>57.7</ele>
        <time>2017-01-20T14:33:48Z</time>
      </trkpt>
      <trkpt lat="43.24309" lon="2.66024">
        <ele>57.5</ele>
        <time>2017-01-20T14:33:49Z</time>
      </trkpt>
      <trkpt lat="43.24289" lon="2.65988">
        <ele>58.7</ele>
        <time>2017-01-20T14:33:59Z</time>
      </trkpt>
      <trkpt lat="43.24277" lon="2.65958">
        <ele>57.8</ele>
        <time>2017-01-20T14:34:05Z</time>
      </trkpt>
      <trkpt lat="43.24148" lon="2.65648">
        <ele>58.3</ele>
        <time>2017-01-20T14:34:58Z</time>
      </trkpt>
      <trkpt lat="43.24145" lon="2.65643">
        <ele>58.1</ele>
        <time>2017-01-20T14:34:59Z</time>
      </trkpt>
      <trkpt lat="43.24122" lon="2.65614">
        <ele>58</ele>
        <time>2017-01-20T14:35:09Z</time>
      </trkpt>
      <trkpt lat="43.24122" lon="2.65614">
        <ele>58.2</ele>
        <time>2017-01-20T14:35:10Z</time>
      </trkpt>
      <trkpt lat="43.24122" lon="2.65614">
        <ele>58.3</ele>
        <time>2017-01-20T14:35:11Z</time>
      </trkpt>
      <trkpt lat="43.24122" lon="2.65614">
        <ele>58.2</ele>
        <time>2017-01-20T14:35:12Z</time>
      </trkpt>
      <trkpt lat="43.24122" lon="2.65614">
        <ele>58.1</ele>
        <time>2017-01-20T14:35:13Z</time>
      </trkpt>
      <trkpt lat="43.24122" lon="2.65614">
        <ele>58</ele>
        <time>2017-01-20T14:35:14Z</time>
      </trkpt>
      <trkpt lat="43.24122" lon="2.65614">
        <ele>58</ele>
        <time>2017-01-20T14:35:15Z</time>
      </trkpt>
      <trkpt lat="43.24122" lon="2.65614">
        <ele>57.9</ele>
        <time>2017-01-20T14:35:16Z</time>
      </trkpt>
      <trkpt lat="43.24122" lon="2.65614">
        <ele>57.9</ele>
        <time>2017-01-20T14:35:17Z</time>
      </trkpt>
      <trkpt lat="43.24122" lon="2.65614">
        <ele>58.1</ele>
        <time>2017-01-20T14:35:18Z</time>
      </trkpt>
      <trkpt lat="43.24119" lon="2.65612">
        <ele>58.2</ele>
        <time>2017-01-20T14:35:19Z</time>
      </trkpt>
      <trkpt lat="43.24113" lon="2.65608">
        <ele>58.5</ele>
        <time>2017-01-20T14:35:22Z</time>
      </trkpt>
      <trkpt lat="43.2411" lon="2.65606">
        <ele>58.5</ele>
        <time>2017-01-20T14:35:23Z</time>
      </trkpt>
      <trkpt lat="43.24089" lon="2.65591">
        <ele>58.9</ele>
        <time>2017-01-20T14:35:29Z</time>
      </trkpt>
      <trkpt lat="43.23983" lon="2.65529">
        <ele>59.2</ele>
        <time>2017-01-20T14:35:56Z</time>
      </trkpt>
      <trkpt lat="43.23983" lon="2.65529">
        <ele>58.9</ele>
        <time>2017-01-20T14:35:57Z</time>
      </trkpt>
      <trkpt lat="43.23983" lon="2.65529">
        <ele>58.6</ele>
        <time>2017-01-20T14:35:58Z</time>
      </trkpt>
      <trkpt lat="43.23983" lon="2.65529">
        <ele>58.4</ele>
        <time>2017-01-20T14:35:59Z</time>
      </trkpt>
      <trkpt lat="43.23983" lon="2.65529">
        <ele>58.5</ele>
        <time>2017-01-20T14:36:00Z</time>
      </trkpt>
      <trkpt lat="43.23983" lon="2.65529">
        <ele>58.5</ele>
        <time>2017-01-20T14:36:01Z</time>
      </trkpt>
      <trkpt lat="43.23983" lon="2.65529">
        <ele>58.5</ele>
        <time>2017-01-20T14:36:02Z</time>
      </trkpt>
      <trkpt lat="43.23983" lon="2.65529">
        <ele>58.4</ele>
        <time>2017-01-20T14:36:03Z</time>
      </trkpt>
      <trkpt lat="43.2398" lon="2.65527">
        <ele>58.2</ele>
        <time>2017-01-20T14:36:04Z</time>
      </trkpt>
      <trkpt lat="43.23912" lon="2.65455">
        <ele>58.1</ele>
        <time>2017-01-20T14:36:27Z</time>
      </trkpt>
      <trkpt lat="43.23798" lon="2.65307">
        <ele>59</ele>
        <time>2017-01-20T14:37:07Z</time>
      </trkpt>
      <trkpt lat="43.23798" lon="2.65307">
        <ele>58.9</ele>
        <time>2017-01-20T14:37:08Z</time>
      </trkpt>
      <trkpt lat="43.23798" lon="2.65307">
        <ele>57.5</ele>
        <time>2017-01-20T14:37:14Z</time>
      </trkpt>
      <trkpt lat="43.23798" lon="2.65307">
        <ele>57.8</ele>
        <time>2017-01-20T14:37:15Z</time>
      </trkpt>
      <trkpt lat="43.23796" lon="2.65304">
        <ele>58</ele>
        <time>2017-01-20T14:37:16Z</time>
      </trkpt>
      <trkpt lat="43.23693" lon="2.65134">
        <ele>58.8</ele>
        <time>2017-01-20T14:38:01Z</time>
      </trkpt>
      <trkpt lat="43.23693" lon="2.65134">
        <ele>58.8</ele>
        <time>2017-01-20T14:38:02Z</time>
      </trkpt>
      <trkpt lat="43.23693" lon="2.65134">
        <ele>58.7</ele>
        <time>2017-01-20T14:38:03Z</time>
      </trkpt>
      <trkpt lat="43.23693" lon="2.65134">
        <ele>58.7</ele>
        <time>2017-01-20T14:38:04Z</time>
      </trkpt>
      <trkpt lat="43.23693" lon="2.65134">
        <ele>58.7</ele>
        <time>2017-01-20T14:38:05Z</time>
      </trkpt>
      <trkpt lat="43.23693" lon="2.65134">
        <ele>58.7</ele>
        <time>2017-01-20T14:38:06Z</time>
      </trkpt>
      <trkpt lat="43.23693" lon="2.65134">
        <ele>58.7</ele>
        <time>2017-01-20T14:38:07Z</time>
      </trkpt>
      <trkpt lat="43.23693" lon="2.65134">
        <ele>58.7</ele>
        <time>2017-01-20T14:38:08Z</time>
      </trkpt>
      <trkpt lat="43.23693" lon="2.65134">
        <ele>58.7</ele>
        <time>2017-01-20T14:38:09Z</time>
      </trkpt>
      <trkpt lat="43.23693" lon="2.65134">
        <ele>58.7</ele>
        <time>2017-01-20T14:38:10Z</time>
      </trkpt>
      <trkpt lat="43.23693" lon="2.65134">
        <ele>58.7</ele>
        <time>2017-01-20T14:38:11Z</time>
      </trkpt>
      <trkpt lat="43.23693" lon="2.65134">
        <ele>58.6</ele>
        <time>2017-01-20T14:38:12Z</time>
      </trkpt>
      <trkpt lat="43.23693" lon="2.65134">
        <ele>58.6</ele>
        <time>2017-01-20T14:38:13Z</time>
      </trkpt>
      <trkpt lat="43.23693" lon="2.65134">
        <ele>58.6</ele>
        <time>2017-01-20T14:38:14Z</time>
      </trkpt>
      <trkpt lat="43.23693" lon="2.65134">
        <ele>58.6</ele>
        <time>2017-01-20T14:38:15Z</time>
      </trkpt>
      <trkpt lat="43.23693" lon="2.65134">
        <ele>58.6</ele>
        <time>2017-01-20T14:38:16Z</time>
      </trkpt>
      <trkpt lat="43.23693" lon="2.65134">
        <ele>58.6</ele>
        <time>2017-01-20T14:38:17Z</time>
      </trkpt>
      <trkpt lat="43.23693" lon="2.65134">
        <ele>59.1</ele>
        <time>2017-01-20T14:38:18Z</time>
      </trkpt>
      <trkpt lat="43.23693" lon="2.65134">
        <ele>59.4</ele>
        <time>2017-01-20T14:38:19Z</time>
      </trkpt>
      <trkpt lat="43.23693" lon="2.65134">
        <ele>59.6</ele>
        <time>2017-01-20T14:38:20Z</time>
      </trkpt>
      <trkpt lat="43.23692" lon="2.65133">
        <ele>59.8</ele>
        <time>2017-01-20T14:38:21Z</time>
      </trkpt>
      <trkpt lat="43.23513" lon="2.64798">
        <ele>58.8</ele>
        <time>2017-01-20T14:39:39Z</time>
      </trkpt>
      <trkpt lat="43.23513" lon="2.64798">
        <ele>58.7</ele>
        <time>2017-01-20T14:39:40Z</time>
      </trkpt>
      <trkpt lat="43.23513" lon="2.64798">
        <ele>58.7</ele>
        <time>2017-01-20T14:39:41Z</time>
      </trkpt>
      <trkpt lat="43.23513" lon="2.64798">
        <ele>58.7</ele>
        <time>2017-01-20T14:39:42Z</time>
      </trkpt>
      <trkpt lat="43.23513" lon="2.64798">
        <ele>58.7</ele>
        <time>2017-01-20T14:39:43Z</time>
      </trkpt>
      <trkpt lat="43.23513" lon="2.64798">
        <ele>58.7</ele>
        <time>2017-01-20T14:39:44Z</time>
      </trkpt>
      <trkpt lat="43.23513" lon="2.64798">
        <ele>58.7</ele>
        <time>2017-01-20T14:39:45Z</time>
      </trkpt>
      <trkpt lat="43.23513" lon="2.64798">
        <ele>58.7</ele>
        <time>2017-01-20T14:39:46Z</time>
      </trkpt>
      <trkpt lat="43.23513" lon="2.64798">
        <ele>58.7</ele>
        <time>2017-01-20T14:39:47Z</time>
      </trkpt>
      <trkpt lat="43.23513" lon="2.64798">
        <ele>58.9</ele>
        <time>2017-01-20T14:39:48Z</time>
      </trkpt>
      <trkpt lat="43.23513" lon="2.64798">
        <ele>59</ele>
        <time>2017-01-20T14:39:49Z</time>
      </trkpt>
      <trkpt lat="43.23513" lon="2.64798">
        <ele>59.1</ele>
        <time>2017-01-20T14:39:50Z</time>
      </trkpt>
      <trkpt lat="43.23513" lon="2.64798">
        <ele>59</ele>
        <time>2017-01-20T14:39:51Z</time>
      </trkpt>
      <trkpt lat="43.23513" lon="2.64798">
        <ele>58.9</ele>
        <time>2017-01-20T14:39:52Z</time>
      </trkpt>
      <trkpt lat="43.23513" lon="2.64798">
        <ele>58.8</ele>
        <time>2017-01-20T14:39:53Z</time>
      </trkpt>
      <trkpt lat="43.23513" lon="2.64798">
        <ele>58.8</ele>
        <time>2017-01-20T14:39:54Z</time>
      </trkpt>
      <trkpt lat="43.23513" lon="2.64798">
        <ele>58.8</ele>
        <time>2017-01-20T14:39:55Z</time>
      </trkpt>
      <trkpt lat="43.23513" lon="2.64798">
        <ele>58.7</ele>
        <time>2017-01-20T14:39:56Z</time>
      </trkpt>
      <trkpt lat="43.23512" lon="2.64795">
        <ele>58.7</ele>
        <time>2017-01-20T14:39:57Z</time>
      </trkpt>
      <trkpt lat="43.2351" lon="2.64789">
        <ele>58.7</ele>
        <time>2017-01-20T14:39:59Z</time>
      </trkpt>
      <trkpt lat="43.23405" lon="2.64578">
        <ele>59.4</ele>
        <time>2017-01-20T14:40:47Z</time>
      </trkpt>
      <trkpt lat="43.23405" lon="2.64578">
        <ele>59.2</ele>
        <time>2017-01-20T14:40:48Z</time>
      </trkpt>
      <trkpt lat="43.23405" lon="2.64578">
        <ele>59.1</ele>
        <time>2017-01-20T14:40:49Z</time>
      </trkpt>
      <trkpt lat="43.23405" lon="2.64578">
        <ele>58.9</ele>
        <time>2017-01-20T14:40:50Z</time>
      </trkpt>
      <trkpt lat="43.23405" lon="2.64578">
        <ele>58.7</ele>
        <time>2017-01-20T14:40:51Z</time>
      </trkpt>
      <trkpt lat="43.23405" lon="2.64578">
        <ele>58.5</ele>
        <time>2017-01-20T14:40:52Z</time>
      </trkpt>
      <trkpt lat="43.23405" lon="2.64578">
        <ele>58.3</ele>
        <time>2017-01-20T14:40:53Z</time>
      </trkpt>
      <trkpt lat="43.23405" lon="2.64578">
        <ele>58.6</ele>
        <time>2017-01-20T14:40:54Z</time>
      </trkpt>
      <trkpt lat="43.23405" lon="2.64578">
        <ele>58.8</ele>
        <time>2017-01-20T14:40:55Z</time>
      </trkpt>
      <trkpt lat="43.23403" lon="2.64574">
        <ele>59</ele>
        <time>2017-01-20T14:40:56Z</time>
      </trkpt>
      <trkpt lat="43.23098" lon="2.63886">
        <ele>59.9</ele>
        <time>2017-01-20T14:43:12Z</time>
      </trkpt>
      <trkpt lat="43.23098" lon="2.63882">
        <ele>60</ele>
        <time>2017-01-20T14:43:13Z</time>
      </trkpt>
      <trkpt lat="43.23098" lon="2.6388">
        <ele>60.1</ele>
        <time>2017-01-20T14:43:14Z</time>
      </trkpt>
      <trkpt lat="43.23099" lon="2.63878">
        <ele>60.3</ele>
        <time>2017-01-20T14:43:15Z</time>
      </trkpt>
      <trkpt lat="43.23099" lon="2.63878">
        <ele>60.5</ele>
        <time>2017-01-20T14:43:16Z</time>
      </trkpt>
      <trkpt lat="43.23099" lon="2.63878">
        <ele>60.7</ele>
        <time>2017-01-20T14:43:17Z</time>
      </trkpt>
      <trkpt lat="43.23099" lon="2.63878">
        <ele>61</ele>
        <time>2017-01-20T14:43:18Z</time>
      </trkpt>
      <trkpt lat="43.23099" lon="2.63878">
        <ele>61.2</ele>
        <time>2017-01-20T14:43:19Z</time>
      </trkpt>
      <trkpt lat="43.23099" lon="2.63878">
        <ele>61.4</ele>
        <time>2017-01-20T14:43:20Z</time>
      </trkpt>
      <trkpt lat="43.23099" lon="2.63878">
        <ele>61.3</ele>
        <time>2017-01-20T14:43:21Z</time>
      </trkpt>
      <trkpt lat="43.23099" lon="2.63878">
        <ele>61.3</ele>
        <time>2017-01-20T14:43:22Z</time>
      </trkpt>
      <trkpt lat="43.23099" lon="2.63878">
        <ele>61.2</ele>
        <time>2017-01-20T14:43:23Z</time>
      </trkpt>
      <trkpt lat="43.23099" lon="2.63878">
        <ele>61.2</ele>
        <time>2017-01-20T14:43:24Z</time>
      </trkpt>
      <trkpt lat="43.23099" lon="2.63878">
        <ele>61.2</ele>
        <time>2017-01-20T14:43:25Z</time>
      </trkpt>
      <trkpt lat="43.23099" lon="2.63878">
        <ele>61.2</ele>
        <time>2017-01-20T14:43:26Z</time>
      </trkpt>
      <trkpt lat="43.23098" lon="2.63875">
        <ele>61.2</ele>
        <time>2017-01-20T14:43:27Z</time>
      </trkpt>
      <trkpt lat="43.23097" lon="2.63874">
        <ele>61.2</ele>
        <time>2017-01-20T14:43:28Z</time>
      </trkpt>
      <trkpt lat="43.23091" lon="2.63868">
        <ele>60.8</ele>
        <time>2017-01-20T14:43:34Z</time>
      </trkpt>
      <trkpt lat="43.23091" lon="2.63866">
        <ele>60.6</ele>
        <time>2017-01-20T14:43:35Z</time>
      </trkpt>
      <trkpt lat="43.23085" lon="2.63857">
        <ele>61.3</ele>
        <time>2017-01-20T14:43:40Z</time>
      </trkpt>
      <trkpt lat="43.23081" lon="2.63848">
        <ele>60.7</ele>
        <time>2017-01-20T14:43:44Z</time>
      </trkpt>
      <trkpt lat="43.2308" lon="2.63846">
        <ele>61.2</ele>
        <time>2017-01-20T14:43:45Z</time>
      </trkpt>
      <trkpt lat="43.2307" lon="2.63809">
        <ele>63.7</ele>
        <time>2017-01-20T14:43:57Z</time>
      </trkpt>
      <trkpt lat="43.23068" lon="2.63806">
        <ele>63.6</ele>
        <time>2017-01-20T14:43:58Z</time>
      </trkpt>
      <trkpt lat="43.23065" lon="2.63797">
        <ele>63.6</ele>
        <time>2017-01-20T14:44:02Z</time>
      </trkpt>
      <trkpt lat="43.23065" lon="2.63797">
        <ele>63.6</ele>
        <time>2017-01-20T14:44:03Z</time>
      </trkpt>
      <trkpt lat="43.23065" lon="2.63797">
        <ele>63.6</ele>
        <time>2017-01-20T14:44:04Z</time>
      </trkpt>
      <trkpt lat="43.23065" lon="2.63797">
        <ele>63.6</ele>
        <time>2017-01-20T14:44:05Z</time>
      </trkpt>
      <trkpt lat="43.23065" lon="2.63797">
        <ele>63.6</ele>
        <time>2017-01-20T14:44:06Z</time>
      </trkpt>
      <trkpt lat="43.23065" lon="2.63797">
        <ele>63.6</ele>
        <time>2017-01-20T14:44:07Z</time>
      </trkpt>
      <trkpt lat="43.23065" lon="2.63797">
        <ele>63.6</ele>
        <time>2017-01-20T14:44:08Z</time>
      </trkpt>
      <trkpt lat="43.23065" lon="2.63797">
        <ele>63.8</ele>
        <time>2017-01-20T14:44:09Z</time>
      </trkpt>
      <trkpt lat="43.23065" lon="2.63797">
        <ele>64</ele>
        <time>2017-01-20T14:44:10Z</time>
      </trkpt>
      <trkpt lat="43.23065" lon="2.63797">
        <ele>64.1</ele>
        <time>2017-01-20T14:44:11Z</time>
      </trkpt>
      <trkpt lat="43.23065" lon="2.63797">
        <ele>64.2</ele>
        <time>2017-01-20T14:44:12Z</time>
      </trkpt>
      <trkpt lat="43.23063" lon="2.63794">
        <ele>64.2</ele>
        <time>2017-01-20T14:44:13Z</time>
      </trkpt>
      <trkpt lat="43.23062" lon="2.63793">
        <ele>64.3</ele>
        <time>2017-01-20T14:44:14Z</time>
      </trkpt>
      <trkpt lat="43.2306" lon="2.63792">
        <ele>64.3</ele>
        <time>2017-01-20T14:44:15Z</time>
      </trkpt>
      <trkpt lat="43.23056" lon="2.63788">
        <ele>64.4</ele>
        <time>2017-01-20T14:44:17Z</time>
      </trkpt>
      <trkpt lat="43.23047" lon="2.63774">
        <ele>64.1</ele>
        <time>2017-01-20T14:44:22Z</time>
      </trkpt>
      <trkpt lat="43.23047" lon="2.63771">
        <ele>64.2</ele>
        <time>2017-01-20T14:44:23Z</time>
      </trkpt>
      <trkpt lat="43.23046" lon="2.63765">
        <ele>64.3</ele>
        <time>2017-01-20T14:44:25Z</time>
      </trkpt>
      <trkpt lat="43.23044" lon="2.63762">
        <ele>64.3</ele>
        <time>2017-01-20T14:44:26Z</time>
      </trkpt>
      <trkpt lat="43.23032" lon="2.63739">
        <ele>64.9</ele>
        <time>2017-01-20T14:44:32Z</time>
      </trkpt>
      <trkpt lat="43.23028" lon="2.6373">
        <ele>65.1</ele>
        <time>2017-01-20T14:44:34Z</time>
      </trkpt>
      <trkpt lat="43.23023" lon="2.63713">
        <ele>64.7</ele>
        <time>2017-01-20T14:44:38Z</time>
      </trkpt>
      <trkpt lat="43.23021" lon="2.63699">
        <ele>64.3</ele>
        <time>2017-01-20T14:44:42Z</time>
      </trkpt>
      <trkpt lat="43.2302" lon="2.63671">
        <ele>64.3</ele>
        <time>2017-01-20T14:44:49Z</time>
      </trkpt>
      <trkpt lat="43.2302" lon="2.63669">
        <ele>64.4</ele>
        <time>2017-01-20T14:44:50Z</time>
      </trkpt>
      <trkpt lat="43.2302" lon="2.63669">
        <ele>64.4</ele>
        <time>2017-01-20T14:44:53Z</time>
      </trkpt>
      <trkpt lat="43.2302" lon="2.63669">
        <ele>64.4</ele>
        <time>2017-01-20T14:44:54Z</time>
      </trkpt>
      <trkpt lat="43.2302" lon="2.63669">
        <ele>64.4</ele>
        <time>2017-01-20T14:44:55Z</time>
      </trkpt>
      <trkpt lat="43.2302" lon="2.63669">
        <ele>64.4</ele>
        <time>2017-01-20T14:44:56Z</time>
      </trkpt>
      <trkpt lat="43.2302" lon="2.63669">
        <ele>64.4</ele>
        <time>2017-01-20T14:44:57Z</time>
      </trkpt>
      <trkpt lat="43.2302" lon="2.63669">
        <ele>64.4</ele>
        <time>2017-01-20T14:44:58Z</time>
      </trkpt>
      <trkpt lat="43.2302" lon="2.63669">
        <ele>64.4</ele>
        <time>2017-01-20T14:44:59Z</time>
      </trkpt>
      <trkpt lat="43.2302" lon="2.63669">
        <ele>64.2</ele>
        <time>2017-01-20T14:45:00Z</time>
      </trkpt>
      <trkpt lat="43.2302" lon="2.63669">
        <ele>64.1</ele>
        <time>2017-01-20T14:45:01Z</time>
      </trkpt>
      <trkpt lat="43.2302" lon="2.63669">
        <ele>64</ele>
        <time>2017-01-20T14:45:02Z</time>
      </trkpt>
      <trkpt lat="43.2302" lon="2.63669">
        <ele>63.9</ele>
        <time>2017-01-20T14:45:03Z</time>
      </trkpt>
      <trkpt lat="43.23021" lon="2.63665">
        <ele>63.8</ele>
        <time>2017-01-20T14:45:04Z</time>
      </trkpt>
      <trkpt lat="43.23021" lon="2.63662">
        <ele>63.8</ele>
        <time>2017-01-20T14:45:05Z</time>
      </trkpt>
      <trkpt lat="43.23021" lon="2.63648">
        <ele>63.7</ele>
        <time>2017-01-20T14:45:09Z</time>
      </trkpt>
      <trkpt lat="43.23025" lon="2.63621">
        <ele>64.3</ele>
        <time>2017-01-20T14:45:15Z</time>
      </trkpt>
      <trkpt lat="43.23035" lon="2.63582">
        <ele>64.1</ele>
        <time>2017-01-20T14:45:23Z</time>
      </trkpt>
      <trkpt lat="43.23037" lon="2.63577">
        <ele>64.4</ele>
        <time>2017-01-20T14:45:24Z</time>
      </trkpt>
      <trkpt lat="43.23079" lon="2.63468">
        <ele>64.1</ele>
        <time>2017-01-20T14:45:49Z</time>
      </trkpt>
      <trkpt lat="43.23079" lon="2.63468">
        <ele>64.2</ele>
        <time>2017-01-20T14:45:50Z</time>
      </trkpt>
      <trkpt lat="43.23079" lon="2.63468">
        <ele>63.9</ele>
        <time>2017-01-20T14:45:51Z</time>
      </trkpt>
      <trkpt lat="43.23079" lon="2.63468">
        <ele>63.6</ele>
        <time>2017-01-20T14:45:52Z</time>
      </trkpt>
      <trkpt lat="43.23079" lon="2.63468">
        <ele>63.4</ele>
        <time>2017-01-20T14:45:53Z</time>
      </trkpt>
      <trkpt lat="43.23079" lon="2.63468">
        <ele>63.6</ele>
        <time>2017-01-20T14:45:54Z</time>
      </trkpt>
      <trkpt lat="43.23079" lon="2.63468">
        <ele>63.8</ele>
        <time>2017-01-20T14:45:55Z</time>
      </trkpt>
      <trkpt lat="43.23081" lon="2.63466">
        <ele>64</ele>
        <time>2017-01-20T14:45:56Z</time>
      </trkpt>
      <trkpt lat="43.23087" lon="2.63457">
        <ele>63.9</ele>
        <time>2017-01-20T14:46:00Z</time>
      </trkpt>
      <trkpt lat="43.2309" lon="2.63454">
        <ele>63.6</ele>
        <time>2017-01-20T14:46:01Z</time>
      </trkpt>
      <trkpt lat="43.23105" lon="2.63439">
        <ele>64.2</ele>
        <time>2017-01-20T14:46:07Z</time>
      </trkpt>
      <trkpt lat="43.23106" lon="2.63436">
        <ele>64.2</ele>
        <time>2017-01-20T14:46:08Z</time>
      </trkpt>
      <trkpt lat="43.23107" lon="2.63435">
        <ele>64.3</ele>
        <time>2017-01-20T14:46:10Z</time>
      </trkpt>
      <trkpt lat="43.23107" lon="2.63435">
        <ele>64.4</ele>
        <time>2017-01-20T14:46:11Z</time>
      </trkpt>
      <trkpt lat="43.23107" lon="2.63435">
        <ele>64.4</ele>
        <time>2017-01-20T14:46:12Z</time>
      </trkpt>
      <trkpt lat="43.23107" lon="2.63435">
        <ele>64.4</ele>
        <time>2017-01-20T14:46:13Z</time>
      </trkpt>
      <trkpt lat="43.23107" lon="2.63435">
        <ele>64.4</ele>
        <time>2017-01-20T14:46:14Z</time>
      </trkpt>
      <trkpt lat="43.23107" lon="2.63435">
        <ele>64.4</ele>
        <time>2017-01-20T14:46:15Z</time>
      </trkpt>
      <trkpt lat="43.23107" lon="2.63435">
        <ele>64.4</ele>
        <time>2017-01-20T14:46:16Z</time>
      </trkpt>
      <trkpt lat="43.23108" lon="2.63431">
        <ele>64.4</ele>
        <time>2017-01-20T14:46:17Z</time>
      </trkpt>
      <trkpt lat="43.23109" lon="2.63429">
        <ele>64.2</ele>
        <time>2017-01-20T14:46:18Z</time>
      </trkpt>
      <trkpt lat="43.23121" lon="2.63373">
        <ele>64.7</ele>
        <time>2017-01-20T14:46:34Z</time>
      </trkpt>
      <trkpt lat="43.23121" lon="2.63371">
        <ele>64.6</ele>
        <time>2017-01-20T14:46:35Z</time>
      </trkpt>
      <trkpt lat="43.23122" lon="2.63369">
        <ele>64.5</ele>
        <time>2017-01-20T14:46:41Z</time>
      </trkpt>
      <trkpt lat="43.23122" lon="2.63315">
        <ele>64.3</ele>
        <time>2017-01-20T14:46:55Z</time>
      </trkpt>
      <trkpt lat="43.23124" lon="2.6322">
        <ele>64.3</ele>
        <time>2017-01-20T14:47:18Z</time>
      </trkpt>
      <trkpt lat="43.23124" lon="2.6322">
        <ele>64.3</ele>
        <time>2017-01-20T14:47:19Z</time>
      </trkpt>
      <trkpt lat="43.23124" lon="2.6322">
        <ele>64.4</ele>
        <time>2017-01-20T14:47:20Z</time>
      </trkpt>
      <trkpt lat="43.23124" lon="2.6322">
        <ele>64.4</ele>
        <time>2017-01-20T14:47:21Z</time>
      </trkpt>
      <trkpt lat="43.23124" lon="2.6322">
        <ele>64.4</ele>
        <time>2017-01-20T14:47:22Z</time>
      </trkpt>
      <trkpt lat="43.23124" lon="2.6322">
        <ele>64.4</ele>
        <time>2017-01-20T14:47:23Z</time>
      </trkpt>
      <trkpt lat="43.23124" lon="2.6322">
        <ele>64.4</ele>
        <time>2017-01-20T14:47:24Z</time>
      </trkpt>
      <trkpt lat="43.23124" lon="2.6322">
        <ele>64.4</ele>
        <time>2017-01-20T14:47:25Z</time>
      </trkpt>
      <trkpt lat="43.23124" lon="2.6322">
        <ele>64.4</ele>
        <time>2017-01-20T14:47:26Z</time>
      </trkpt>
      <trkpt lat="43.23124" lon="2.6322">
        <ele>64.4</ele>
        <time>2017-01-20T14:47:27Z</time>
      </trkpt>
      <trkpt lat="43.23124" lon="2.6322">
        <ele>64.4</ele>
        <time>2017-01-20T14:47:28Z</time>
      </trkpt>
      <trkpt lat="43.23124" lon="2.6322">
        <ele>64.6</ele>
        <time>2017-01-20T14:47:29Z</time>
      </trkpt>
      <trkpt lat="43.23124" lon="2.6322">
        <ele>64.8</ele>
        <time>2017-01-20T14:47:30Z</time>
      </trkpt>
      <trkpt lat="43.23124" lon="2.6322">
        <ele>64.9</ele>
        <time>2017-01-20T14:47:31Z</time>
      </trkpt>
      <trkpt lat="43.23123" lon="2.63214">
        <ele>64.8</ele>
        <time>2017-01-20T14:47:32Z</time>
      </trkpt>
      <trkpt lat="43.23124" lon="2.63211">
        <ele>64.6</ele>
        <time>2017-01-20T14:47:34Z</time>
      </trkpt>
      <trkpt lat="43.23126" lon="2.62948">
        <ele>64.3</ele>
        <time>2017-01-20T14:48:41Z</time>
      </trkpt>
      <trkpt lat="43.23126" lon="2.62948">
        <ele>64.4</ele>
        <time>2017-01-20T14:48:42Z</time>
      </trkpt>
      <trkpt lat="43.23126" lon="2.62948">
        <ele>63.7</ele>
        <time>2017-01-20T14:49:00Z</time>
      </trkpt>
      <trkpt lat="43.23126" lon="2.62948">
        <ele>63.9</ele>
        <time>2017-01-20T14:49:01Z</time>
      </trkpt>
      <trkpt lat="43.23126" lon="2.62948">
        <ele>64</ele>
        <time>2017-01-20T14:49:02Z</time>
      </trkpt>
      <trkpt lat="43.23126" lon="2.62945">
        <ele>64.1</ele>
        <time>2017-01-20T14:49:03Z</time>
      </trkpt>
      <trkpt lat="43.23126" lon="2.62891">
        <ele>64.4</ele>
        <time>2017-01-20T14:49:19Z</time>
      </trkpt>
      <trkpt lat="43.23126" lon="2.62891">
        <ele>64.6</ele>
        <time>2017-01-20T14:49:20Z</time>
      </trkpt>
      <trkpt lat="43.23126" lon="2.62891">
        <ele>64.8</ele>
        <time>2017-01-20T14:49:21Z</time>
      </trkpt>
      <trkpt lat="43.23126" lon="2.62891">
        <ele>64.9</ele>
        <time>2017-01-20T14:49:22Z</time>
      </trkpt>
      <trkpt lat="43.23126" lon="2.62891">
        <ele>65</ele>
        <time>2017-01-20T14:49:23Z</time>
      </trkpt>
      <trkpt lat="43.23123" lon="2.62887">
        <ele>65.1</ele>
        <time>2017-01-20T14:49:24Z</time>
      </trkpt>
      <trkpt lat="43.23122" lon="2.62883">
        <ele>64.9</ele>
        <time>2017-01-20T14:49:26Z</time>
      </trkpt>
      <trkpt lat="43.23122" lon="2.6288">
        <ele>64.8</ele>
        <time>2017-01-20T14:49:27Z</time>
      </trkpt>
      <trkpt lat="43.23125" lon="2.62706">
        <ele>65</ele>
        <time>2017-01-20T14:50:01Z</time>
      </trkpt>
      <trkpt lat="43.23125" lon="2.62706">
        <ele>64.9</ele>
        <time>2017-01-20T14:50:02Z</time>
      </trkpt>
      <trkpt lat="43.23125" lon="2.62706">
        <ele>64.5</ele>
        <time>2017-01-20T14:50:07Z</time>
      </trkpt>
      <trkpt lat="43.23125" lon="2.62706">
        <ele>64.5</ele>
        <time>2017-01-20T14:50:08Z</time>
      </trkpt>
      <trkpt lat="43.23125" lon="2.62702">
        <ele>64.5</ele>
        <time>2017-01-20T14:50:09Z</time>
      </trkpt>
      <trkpt lat="43.23125" lon="2.627">
        <ele>64.5</ele>
        <time>2017-01-20T14:50:10Z</time>
      </trkpt>
      <trkpt lat="43.2313" lon="2.62252">
        <ele>63.8</ele>
        <time>2017-01-20T14:51:21Z</time>
      </trkpt>
      <trkpt lat="43.23131" lon="2.6225">
        <ele>63.3</ele>
        <time>2017-01-20T14:51:22Z</time>
      </trkpt>
      <trkpt lat="43.23134" lon="2.62249">
        <ele>64</ele>
        <time>2017-01-20T14:51:23Z</time>
      </trkpt>
      <trkpt lat="43.23136" lon="2.62246">
        <ele>64.8</ele>
        <time>2017-01-20T14:51:26Z</time>
      </trkpt>
      <trkpt lat="43.23136" lon="2.62246">
        <ele>64.7</ele>
        <time>2017-01-20T14:51:27Z</time>
      </trkpt>
      <trkpt lat="43.23136" lon="2.62246">
        <ele>64.6</ele>
        <time>2017-01-20T14:51:28Z</time>
      </trkpt>
      <trkpt lat="43.23136" lon="2.62246">
        <ele>64.6</ele>
        <time>2017-01-20T14:51:29Z</time>
      </trkpt>
      <trkpt lat="43.23136" lon="2.62246">
        <ele>64.6</ele>
        <time>2017-01-20T14:51:30Z</time>
      </trkpt>
      <trkpt lat="43.23136" lon="2.62246">
        <ele>64.5</ele>
        <time>2017-01-20T14:51:31Z</time>
      </trkpt>
      <trkpt lat="43.23136" lon="2.62246">
        <ele>64.5</ele>
        <time>2017-01-20T14:51:32Z</time>
      </trkpt>
      <trkpt lat="43.23136" lon="2.62246">
        <ele>64.5</ele>
        <time>2017-01-20T14:51:33Z</time>
      </trkpt>
      <trkpt lat="43.23136" lon="2.62246">
        <ele>64.5</ele>
        <time>2017-01-20T14:51:34Z</time>
      </trkpt>
      <trkpt lat="43.23136" lon="2.62246">
        <ele>64.7</ele>
        <time>2017-01-20T14:51:35Z</time>
      </trkpt>
      <trkpt lat="43.23136" lon="2.62246">
        <ele>64.8</ele>
        <time>2017-01-20T14:51:36Z</time>
      </trkpt>
      <trkpt lat="43.23136" lon="2.62246">
        <ele>64.9</ele>
        <time>2017-01-20T14:51:37Z</time>
      </trkpt>
      <trkpt lat="43.23136" lon="2.62246">
        <ele>65.2</ele>
        <time>2017-01-20T14:51:38Z</time>
      </trkpt>
      <trkpt lat="43.23136" lon="2.62246">
        <ele>65.4</ele>
        <time>2017-01-20T14:51:39Z</time>
      </trkpt>
      <trkpt lat="43.23135" lon="2.62245">
        <ele>65.6</ele>
        <time>2017-01-20T14:51:40Z</time>
      </trkpt>
      <trkpt lat="43.23135" lon="2.62245">
        <ele>65.5</ele>
        <time>2017-01-20T14:51:41Z</time>
      </trkpt>
      <trkpt lat="43.23134" lon="2.62245">
        <ele>65.5</ele>
        <time>2017-01-20T14:51:42Z</time>
      </trkpt>
      <trkpt lat="43.23133" lon="2.62243">
        <ele>65.4</ele>
        <time>2017-01-20T14:51:43Z</time>
      </trkpt>
      <trkpt lat="43.23132" lon="2.62241">
        <ele>65.6</ele>
        <time>2017-01-20T14:51:44Z</time>
      </trkpt>
      <trkpt lat="43.23131" lon="2.62238">
        <ele>65.7</ele>
        <time>2017-01-20T14:51:45Z</time>
      </trkpt>
      <trkpt lat="43.23131" lon="2.62234">
        <ele>65.8</ele>
        <time>2017-01-20T14:51:46Z</time>
      </trkpt>
      <trkpt lat="43.23131" lon="2.62222">
        <ele>65.5</ele>
        <time>2017-01-20T14:51:49Z</time>
      </trkpt>
      <trkpt lat="43.23133" lon="2.62209">
        <ele>65.8</ele>
        <time>2017-01-20T14:51:52Z</time>
      </trkpt>
      <trkpt lat="43.23134" lon="2.62205">
        <ele>65.9</ele>
        <time>2017-01-20T14:51:53Z</time>
      </trkpt>
      <trkpt lat="43.23136" lon="2.62202">
        <ele>65.9</ele>
        <time>2017-01-20T14:51:54Z</time>
      </trkpt>
      <trkpt lat="43.23138" lon="2.62199">
        <ele>66</ele>
        <time>2017-01-20T14:51:55Z</time>
      </trkpt>
      <trkpt lat="43.2314" lon="2.62198">
        <ele>66.2</ele>
        <time>2017-01-20T14:51:56Z</time>
      </trkpt>
      <trkpt lat="43.23142" lon="2.62197">
        <ele>66.4</ele>
        <time>2017-01-20T14:51:57Z</time>
      </trkpt>
      <trkpt lat="43.23142" lon="2.62197">
        <ele>68.1</ele>
        <time>2017-01-20T14:52:05Z</time>
      </trkpt>
      <trkpt lat="43.23142" lon="2.62197">
        <ele>68.3</ele>
        <time>2017-01-20T14:52:06Z</time>
      </trkpt>
      <trkpt lat="43.23142" lon="2.62197">
        <ele>68.3</ele>
        <time>2017-01-20T14:52:07Z</time>
      </trkpt>
      <trkpt lat="43.23142" lon="2.62197">
        <ele>68.4</ele>
        <time>2017-01-20T14:52:08Z</time>
      </trkpt>
      <trkpt lat="43.23142" lon="2.62197">
        <ele>68.4</ele>
        <time>2017-01-20T14:52:09Z</time>
      </trkpt>
      <trkpt lat="43.23142" lon="2.62197">
        <ele>68.5</ele>
        <time>2017-01-20T14:52:10Z</time>
      </trkpt>
      <trkpt lat="43.23142" lon="2.62194">
        <ele>68.5</ele>
        <time>2017-01-20T14:52:11Z</time>
      </trkpt>
      <trkpt lat="43.2314" lon="2.62193">
        <ele>68.5</ele>
        <time>2017-01-20T14:52:12Z</time>
      </trkpt>
      <trkpt lat="43.23139" lon="2.62193">
        <ele>68.5</ele>
        <time>2017-01-20T14:52:13Z</time>
      </trkpt>
      <trkpt lat="43.23137" lon="2.62194">
        <ele>67.5</ele>
        <time>2017-01-20T14:52:15Z</time>
      </trkpt>
      <trkpt lat="43.23137" lon="2.62194">
        <ele>67.1</ele>
        <time>2017-01-20T14:52:16Z</time>
      </trkpt>
      <trkpt lat="43.23137" lon="2.62194">
        <ele>67.3</ele>
        <time>2017-01-20T14:52:17Z</time>
      </trkpt>
      <trkpt lat="43.23137" lon="2.62194">
        <ele>67.4</ele>
        <time>2017-01-20T14:52:18Z</time>
      </trkpt>
      <trkpt lat="43.23137" lon="2.62194">
        <ele>67.5</ele>
        <time>2017-01-20T14:52:19Z</time>
      </trkpt>
      <trkpt lat="43.23137" lon="2.62194">
        <ele>67.3</ele>
        <time>2017-01-20T14:52:20Z</time>
      </trkpt>
      <trkpt lat="43.23137" lon="2.62194">
        <ele>67.2</ele>
        <time>2017-01-20T14:52:21Z</time>
      </trkpt>
      <trkpt lat="43.23137" lon="2.62194">
        <ele>67.2</ele>
        <time>2017-01-20T14:52:22Z</time>
      </trkpt>
      <trkpt lat="43.23136" lon="2.62195">
        <ele>67.5</ele>
        <time>2017-01-20T14:52:23Z</time>
      </trkpt>
      <trkpt lat="43.23135" lon="2.62196">
        <ele>67.8</ele>
        <time>2017-01-20T14:52:24Z</time>
      </trkpt>
      <trkpt lat="43.23131" lon="2.62211">
        <ele>67.6</ele>
        <time>2017-01-20T14:52:29Z</time>
      </trkpt>
      <trkpt lat="43.23131" lon="2.62211">
        <ele>67.4</ele>
        <time>2017-01-20T14:52:30Z</time>
      </trkpt>
      <trkpt lat="43.23131" lon="2.62211">
        <ele>67.3</ele>
        <time>2017-01-20T14:52:31Z</time>
      </trkpt>
      <trkpt lat="43.23128" lon="2.62207">
        <ele>67.2</ele>
        <time>2017-01-20T14:52:32Z</time>
      </trkpt>
      <trkpt lat="43.23128" lon="2.62207">
        <ele>67.1</ele>
        <time>2017-01-20T14:52:33Z</time>
      </trkpt>
      <trkpt lat="43.23129" lon="2.62199">
        <ele>67.1</ele>
        <time>2017-01-20T14:52:34Z</time>
      </trkpt>
      <trkpt lat="43.23133" lon="2.62169">
        <ele>66.5</ele>
        <time>2017-01-20T14:52:40Z</time>
      </trkpt>
      <trkpt lat="43.23134" lon="2.62133">
        <ele>64.8</ele>
        <time>2017-01-20T14:52:46Z</time>
      </trkpt>
      <trkpt lat="43.23137" lon="2.6207">
        <ele>64.8</ele>
        <time>2017-01-20T14:52:56Z</time>
      </trkpt>
      <trkpt lat="43.23138" lon="2.62063">
        <ele>64.7</ele>
        <time>2017-01-20T14:52:57Z</time>
      </trkpt>
      <trkpt lat="43.23144" lon="2.62042">
        <ele>65</ele>
        <time>2017-01-20T14:53:01Z</time>
      </trkpt>
      <trkpt lat="43.23145" lon="2.62037">
        <ele>65.1</ele>
        <time>2017-01-20T14:53:02Z</time>
      </trkpt>
      <trkpt lat="43.23149" lon="2.62031">
        <ele>65.2</ele>
        <time>2017-01-20T14:53:04Z</time>
      </trkpt>
      <trkpt lat="43.2315" lon="2.62028">
        <ele>64.5</ele>
        <time>2017-01-20T14:53:08Z</time>
      </trkpt>
      <trkpt lat="43.2315" lon="2.62028">
        <ele>64.2</ele>
        <time>2017-01-20T14:53:09Z</time>
      </trkpt>
      <trkpt lat="43.2315" lon="2.62028">
        <ele>64.1</ele>
        <time>2017-01-20T14:53:10Z</time>
      </trkpt>
      <trkpt lat="43.2315" lon="2.62028">
        <ele>64</ele>
        <time>2017-01-20T14:53:11Z</time>
      </trkpt>
      <trkpt lat="43.2315" lon="2.62028">
        <ele>63.9</ele>
        <time>2017-01-20T14:53:12Z</time>
      </trkpt>
      <trkpt lat="43.23152" lon="2.62025">
        <ele>63.8</ele>
        <time>2017-01-20T14:53:13Z</time>
      </trkpt>
      <trkpt lat="43.23153" lon="2.62022">
        <ele>64</ele>
        <time>2017-01-20T14:53:14Z</time>
      </trkpt>
      <trkpt lat="43.23166" lon="2.61979">
        <ele>63.9</ele>
        <time>2017-01-20T14:53:24Z</time>
      </trkpt>
      <trkpt lat="43.23168" lon="2.61975">
        <ele>63.8</ele>
        <time>2017-01-20T14:53:25Z</time>
      </trkpt>
      <trkpt lat="43.23187" lon="2.61938">
        <ele>64.8</ele>
        <time>2017-01-20T14:53:35Z</time>
      </trkpt>
      <trkpt lat="43.23192" lon="2.61931">
        <ele>64.6</ele>
        <time>2017-01-20T14:53:38Z</time>
      </trkpt>
      <trkpt lat="43.23212" lon="2.61907">
        <ele>64.7</ele>
        <time>2017-01-20T14:53:51Z</time>
      </trkpt>
      <trkpt lat="43.23212" lon="2.61907">
        <ele>64.6</ele>
        <time>2017-01-20T14:53:52Z</time>
      </trkpt>
      <trkpt lat="43.23212" lon="2.61907">
        <ele>64.6</ele>
        <time>2017-01-20T14:53:53Z</time>
      </trkpt>
      <trkpt lat="43.23212" lon="2.61907">
        <ele>64.5</ele>
        <time>2017-01-20T14:53:54Z</time>
      </trkpt>
      <trkpt lat="43.23212" lon="2.61907">
        <ele>64.5</ele>
        <time>2017-01-20T14:53:55Z</time>
      </trkpt>
      <trkpt lat="43.23212" lon="2.61907">
        <ele>64.5</ele>
        <time>2017-01-20T14:53:56Z</time>
      </trkpt>
      <trkpt lat="43.23212" lon="2.61907">
        <ele>64.5</ele>
        <time>2017-01-20T14:53:57Z</time>
      </trkpt>
      <trkpt lat="43.23212" lon="2.61907">
        <ele>64.5</ele>
        <time>2017-01-20T14:53:58Z</time>
      </trkpt>
      <trkpt lat="43.23214" lon="2.61906">
        <ele>64.5</ele>
        <time>2017-01-20T14:53:59Z</time>
      </trkpt>
      <trkpt lat="43.23215" lon="2.61904">
        <ele>64.5</ele>
        <time>2017-01-20T14:54:00Z</time>
      </trkpt>
      <trkpt lat="43.23216" lon="2.61903">
        <ele>64.4</ele>
        <time>2017-01-20T14:54:01Z</time>
      </trkpt>
      <trkpt lat="43.23217" lon="2.61901">
        <ele>64.4</ele>
        <time>2017-01-20T14:54:02Z</time>
      </trkpt>
      <trkpt lat="43.23224" lon="2.61892">
        <ele>64.9</ele>
        <time>2017-01-20T14:54:07Z</time>
      </trkpt>
      <trkpt lat="43.23232" lon="2.61881">
        <ele>64.2</ele>
        <time>2017-01-20T14:54:12Z</time>
      </trkpt>
      <trkpt lat="43.23235" lon="2.61875">
        <ele>64.2</ele>
        <time>2017-01-20T14:54:15Z</time>
      </trkpt>
      <trkpt lat="43.23235" lon="2.61875">
        <ele>64.3</ele>
        <time>2017-01-20T14:54:16Z</time>
      </trkpt>
      <trkpt lat="43.23235" lon="2.61875">
        <ele>64.5</ele>
        <time>2017-01-20T14:54:17Z</time>
      </trkpt>
      <trkpt lat="43.23235" lon="2.61875">
        <ele>64.7</ele>
        <time>2017-01-20T14:54:18Z</time>
      </trkpt>
      <trkpt lat="43.23235" lon="2.61875">
        <ele>64.8</ele>
        <time>2017-01-20T14:54:19Z</time>
      </trkpt>
      <trkpt lat="43.23235" lon="2.61875">
        <ele>64.5</ele>
        <time>2017-01-20T14:54:20Z</time>
      </trkpt>
      <trkpt lat="43.23235" lon="2.61875">
        <ele>64.3</ele>
        <time>2017-01-20T14:54:21Z</time>
      </trkpt>
      <trkpt lat="43.23235" lon="2.61875">
        <ele>64.1</ele>
        <time>2017-01-20T14:54:22Z</time>
      </trkpt>
      <trkpt lat="43.23238" lon="2.61868">
        <ele>64.2</ele>
        <time>2017-01-20T14:54:23Z</time>
      </trkpt>
      <trkpt lat="43.23239" lon="2.61865">
        <ele>64.3</ele>
        <time>2017-01-20T14:54:24Z</time>
      </trkpt>
      <trkpt lat="43.23302" lon="2.61707">
        <ele>64.4</ele>
        <time>2017-01-20T14:54:59Z</time>
      </trkpt>
      <trkpt lat="43.23302" lon="2.61707">
        <ele>64.4</ele>
        <time>2017-01-20T14:55:00Z</time>
      </trkpt>
      <trkpt lat="43.23302" lon="2.61707">
        <ele>64.4</ele>
        <time>2017-01-20T14:55:02Z</time>
      </trkpt>
      <trkpt lat="43.23302" lon="2.61707">
        <ele>64.4</ele>
        <time>2017-01-20T14:55:03Z</time>
      </trkpt>
      <trkpt lat="43.23302" lon="2.61707">
        <ele>64.4</ele>
        <time>2017-01-20T14:55:04Z</time>
      </trkpt>
      <trkpt lat="43.23302" lon="2.61707">
        <ele>64.4</ele>
        <time>2017-01-20T14:55:05Z</time>
      </trkpt>
      <trkpt lat="43.23302" lon="2.61707">
        <ele>64.4</ele>
        <time>2017-01-20T14:55:06Z</time>
      </trkpt>
      <trkpt lat="43.23302" lon="2.61707">
        <ele>64.4</ele>
        <time>2017-01-20T14:55:07Z</time>
      </trkpt>
      <trkpt lat="43.23302" lon="2.61707">
        <ele>64.4</ele>
        <time>2017-01-20T14:55:08Z</time>
      </trkpt>
      <trkpt lat="43.23302" lon="2.61707">
        <ele>64.4</ele>
        <time>2017-01-20T14:55:09Z</time>
      </trkpt>
      <trkpt lat="43.23302" lon="2.61707">
        <ele>64.4</ele>
        <time>2017-01-20T14:55:10Z</time>
      </trkpt>
      <trkpt lat="43.23302" lon="2.61707">
        <ele>64.4</ele>
        <time>2017-01-20T14:55:11Z</time>
      </trkpt>
      <trkpt lat="43.23302" lon="2.61707">
        <ele>64.4</ele>
        <time>2017-01-20T14:55:12Z</time>
      </trkpt>
      <trkpt lat="43.23302" lon="2.61707">
        <ele>64.4</ele>
        <time>2017-01-20T14:55:13Z</time>
      </trkpt>
      <trkpt lat="43.23302" lon="2.61707">
        <ele>64.4</ele>
        <time>2017-01-20T14:55:14Z</time>
      </trkpt>
      <trkpt lat="43.23305" lon="2.61701">
        <ele>64.4</ele>
        <time>2017-01-20T14:55:15Z</time>
      </trkpt>
      <trkpt lat="43.23317" lon="2.61674">
        <ele>64</ele>
        <time>2017-01-20T14:55:31Z</time>
      </trkpt>
      <trkpt lat="43.23317" lon="2.61674">
        <ele>63.9</ele>
        <time>2017-01-20T14:55:32Z</time>
      </trkpt>
      <trkpt lat="43.23317" lon="2.61674">
        <ele>63.9</ele>
        <time>2017-01-20T14:55:33Z</time>
      </trkpt>
      <trkpt lat="43.23317" lon="2.61674">
        <ele>63.8</ele>
        <time>2017-01-20T14:55:34Z</time>
      </trkpt>
      <trkpt lat="43.23317" lon="2.61674">
        <ele>63.7</ele>
        <time>2017-01-20T14:55:35Z</time>
      </trkpt>
      <trkpt lat="43.23317" lon="2.61674">
        <ele>63.7</ele>
        <time>2017-01-20T14:55:36Z</time>
      </trkpt>
      <trkpt lat="43.23317" lon="2.61674">
        <ele>63.7</ele>
        <time>2017-01-20T14:55:37Z</time>
      </trkpt>
      <trkpt lat="43.23317" lon="2.61674">
        <ele>63.9</ele>
        <time>2017-01-20T14:55:38Z</time>
      </trkpt>
      <trkpt lat="43.23317" lon="2.61674">
        <ele>64</ele>
        <time>2017-01-20T14:55:39Z</time>
      </trkpt>
      <trkpt lat="43.23319" lon="2.61671">
        <ele>64.1</ele>
        <time>2017-01-20T14:55:40Z</time>
      </trkpt>
      <trkpt lat="43.23382" lon="2.61536">
        <ele>64.2</ele>
        <time>2017-01-20T14:56:16Z</time>
      </trkpt>
      <trkpt lat="43.23384" lon="2.61532">
        <ele>64.5</ele>
        <time>2017-01-20T14:56:17Z</time>
      </trkpt>
      <trkpt lat="43.23424" lon="2.6143">
        <ele>64.1</ele>
        <time>2017-01-20T14:56:42Z</time>
      </trkpt>
      <trkpt lat="43.23429" lon="2.61409">
        <ele>64.3</ele>
        <time>2017-01-20T14:56:46Z</time>
      </trkpt>
      <trkpt lat="43.23432" lon="2.61393">
        <ele>64.9</ele>
        <time>2017-01-20T14:56:49Z</time>
      </trkpt>
      <trkpt lat="43.23433" lon="2.61378">
        <ele>64.6</ele>
        <time>2017-01-20T14:56:52Z</time>
      </trkpt>
      <trkpt lat="43.23434" lon="2.61353">
        <ele>64.5</ele>
        <time>2017-01-20T14:56:57Z</time>
      </trkpt>
      <trkpt lat="43.23433" lon="2.61344">
        <ele>64.7</ele>
        <time>2017-01-20T14:56:59Z</time>
      </trkpt>
      <trkpt lat="43.2343" lon="2.61329">
        <ele>65</ele>
        <time>2017-01-20T14:57:02Z</time>
      </trkpt>
      <trkpt lat="43.23427" lon="2.6132">
        <ele>65.1</ele>
        <time>2017-01-20T14:57:04Z</time>
      </trkpt>
      <trkpt lat="43.23423" lon="2.61311">
        <ele>65.2</ele>
        <time>2017-01-20T14:57:07Z</time>
      </trkpt>
      <trkpt lat="43.23419" lon="2.61303">
        <ele>64.5</ele>
        <time>2017-01-20T14:57:18Z</time>
      </trkpt>
      <trkpt lat="43.23419" lon="2.61303">
        <ele>64.5</ele>
        <time>2017-01-20T14:57:19Z</time>
      </trkpt>
      <trkpt lat="43.23419" lon="2.61303">
        <ele>64.5</ele>
        <time>2017-01-20T14:57:20Z</time>
      </trkpt>
      <trkpt lat="43.23419" lon="2.61303">
        <ele>64.4</ele>
        <time>2017-01-20T14:57:21Z</time>
      </trkpt>
      <trkpt lat="43.23417" lon="2.613">
        <ele>64.4</ele>
        <time>2017-01-20T14:57:22Z</time>
      </trkpt>
      <trkpt lat="43.23361" lon="2.61212">
        <ele>64.6</ele>
        <time>2017-01-20T14:57:56Z</time>
      </trkpt>
      <trkpt lat="43.23309" lon="2.61148">
        <ele>65</ele>
        <time>2017-01-20T14:58:19Z</time>
      </trkpt>
      <trkpt lat="43.23306" lon="2.61144">
        <ele>64.8</ele>
        <time>2017-01-20T14:58:20Z</time>
      </trkpt>
      <trkpt lat="43.23248" lon="2.6107">
        <ele>64.8</ele>
        <time>2017-01-20T14:58:50Z</time>
      </trkpt>
      <trkpt lat="43.23248" lon="2.6107">
        <ele>64.9</ele>
        <time>2017-01-20T14:58:51Z</time>
      </trkpt>
      <trkpt lat="43.23248" lon="2.6107">
        <ele>65</ele>
        <time>2017-01-20T14:58:52Z</time>
      </trkpt>
      <trkpt lat="43.23248" lon="2.6107">
        <ele>65.1</ele>
        <time>2017-01-20T14:58:53Z</time>
      </trkpt>
      <trkpt lat="43.23248" lon="2.6107">
        <ele>65.1</ele>
        <time>2017-01-20T14:58:54Z</time>
      </trkpt>
      <trkpt lat="43.23248" lon="2.6107">
        <ele>65.1</ele>
        <time>2017-01-20T14:58:55Z</time>
      </trkpt>
      <trkpt lat="43.23248" lon="2.6107">
        <ele>65</ele>
        <time>2017-01-20T14:58:56Z</time>
      </trkpt>
      <trkpt lat="43.23248" lon="2.6107">
        <ele>64.8</ele>
        <time>2017-01-20T14:58:57Z</time>
      </trkpt>
      <trkpt lat="43.23248" lon="2.6107">
        <ele>64.7</ele>
        <time>2017-01-20T14:58:58Z</time>
      </trkpt>
      <trkpt lat="43.23246" lon="2.61068">
        <ele>64.7</ele>
        <time>2017-01-20T14:58:59Z</time>
      </trkpt>
      <trkpt lat="43.23076" lon="2.60886">
        <ele>64.8</ele>
        <time>2017-01-20T14:59:57Z</time>
      </trkpt>
      <trkpt lat="43.23072" lon="2.60884">
        <ele>64.9</ele>
        <time>2017-01-20T14:59:58Z</time>
      </trkpt>
      <trkpt lat="43.23061" lon="2.60878">
        <ele>65.5</ele>
        <time>2017-01-20T15:00:03Z</time>
      </trkpt>
      <trkpt lat="43.23061" lon="2.60878">
        <ele>65.4</ele>
        <time>2017-01-20T15:00:04Z</time>
      </trkpt>
      <trkpt lat="43.23061" lon="2.60878">
        <ele>65.2</ele>
        <time>2017-01-20T15:00:05Z</time>
      </trkpt>
      <trkpt lat="43.23061" lon="2.60878">
        <ele>65</ele>
        <time>2017-01-20T15:00:06Z</time>
      </trkpt>
      <trkpt lat="43.23061" lon="2.60878">
        <ele>64.8</ele>
        <time>2017-01-20T15:00:07Z</time>
      </trkpt>
      <trkpt lat="43.23061" lon="2.60878">
        <ele>64.7</ele>
        <time>2017-01-20T15:00:08Z</time>
      </trkpt>
      <trkpt lat="43.23059" lon="2.60877">
        <ele>64.7</ele>
        <time>2017-01-20T15:00:09Z</time>
      </trkpt>
      <trkpt lat="43.23058" lon="2.60876">
        <ele>64.6</ele>
        <time>2017-01-20T15:00:10Z</time>
      </trkpt>
      <trkpt lat="43.23054" lon="2.60873">
        <ele>64.5</ele>
        <time>2017-01-20T15:00:12Z</time>
      </trkpt>
      <trkpt lat="43.23052" lon="2.60873">
        <ele>64.5</ele>
        <time>2017-01-20T15:00:13Z</time>
      </trkpt>
      <trkpt lat="43.23048" lon="2.60872">
        <ele>64.5</ele>
        <time>2017-01-20T15:00:16Z</time>
      </trkpt>
      <trkpt lat="43.23048" lon="2.60872">
        <ele>64.2</ele>
        <time>2017-01-20T15:00:17Z</time>
      </trkpt>
      <trkpt lat="43.23048" lon="2.60872">
        <ele>64.1</ele>
        <time>2017-01-20T15:00:18Z</time>
      </trkpt>
      <trkpt lat="43.23048" lon="2.60872">
        <ele>64</ele>
        <time>2017-01-20T15:00:19Z</time>
      </trkpt>
      <trkpt lat="43.23048" lon="2.60872">
        <ele>64.3</ele>
        <time>2017-01-20T15:00:20Z</time>
      </trkpt>
      <trkpt lat="43.23048" lon="2.60872">
        <ele>64.5</ele>
        <time>2017-01-20T15:00:21Z</time>
      </trkpt>
      <trkpt lat="43.23048" lon="2.60872">
        <ele>64.7</ele>
        <time>2017-01-20T15:00:22Z</time>
      </trkpt>
      <trkpt lat="43.23048" lon="2.60872">
        <ele>64.4</ele>
        <time>2017-01-20T15:00:23Z</time>
      </trkpt>
      <trkpt lat="43.23048" lon="2.60872">
        <ele>64.2</ele>
        <time>2017-01-20T15:00:24Z</time>
      </trkpt>
      <trkpt lat="43.23048" lon="2.60872">
        <ele>64.1</ele>
        <time>2017-01-20T15:00:25Z</time>
      </trkpt>
      <trkpt lat="43.23048" lon="2.60872">
        <ele>64</ele>
        <time>2017-01-20T15:00:26Z</time>
      </trkpt>
      <trkpt lat="43.23048" lon="2.60872">
        <ele>63.9</ele>
        <time>2017-01-20T15:00:27Z</time>
      </trkpt>
      <trkpt lat="43.23048" lon="2.60872">
        <ele>63.8</ele>
        <time>2017-01-20T15:00:28Z</time>
      </trkpt>
      <trkpt lat="43.23044" lon="2.6087">
        <ele>64</ele>
        <time>2017-01-20T15:00:29Z</time>
      </trkpt>
      <trkpt lat="43.23042" lon="2.60869">
        <ele>64.1</ele>
        <time>2017-01-20T15:00:30Z</time>
      </trkpt>
      <trkpt lat="43.23034" lon="2.60867">
        <ele>64.6</ele>
        <time>2017-01-20T15:00:33Z</time>
      </trkpt>
      <trkpt lat="43.23032" lon="2.60868">
        <ele>64.8</ele>
        <time>2017-01-20T15:00:34Z</time>
      </trkpt>
      <trkpt lat="43.2303" lon="2.60868">
        <ele>64.5</ele>
        <time>2017-01-20T15:00:35Z</time>
      </trkpt>
      <trkpt lat="43.23028" lon="2.60869">
        <ele>64.3</ele>
        <time>2017-01-20T15:00:36Z</time>
      </trkpt>
      <trkpt lat="43.23027" lon="2.6087">
        <ele>64</ele>
        <time>2017-01-20T15:00:38Z</time>
      </trkpt>
      <trkpt lat="43.23027" lon="2.6087">
        <ele>63.9</ele>
        <time>2017-01-20T15:00:39Z</time>
      </trkpt>
      <trkpt lat="43.23027" lon="2.6087">
        <ele>63.8</ele>
        <time>2017-01-20T15:00:40Z</time>
      </trkpt>
      <trkpt lat="43.23027" lon="2.6087">
        <ele>64</ele>
        <time>2017-01-20T15:00:41Z</time>
      </trkpt>
      <trkpt lat="43.23027" lon="2.6087">
        <ele>64.1</ele>
        <time>2017-01-20T15:00:42Z</time>
      </trkpt>
      <trkpt lat="43.23027" lon="2.6087">
        <ele>64.2</ele>
        <time>2017-01-20T15:00:43Z</time>
      </trkpt>
      <trkpt lat="43.23027" lon="2.6087">
        <ele>64.2</ele>
        <time>2017-01-20T15:00:44Z</time>
      </trkpt>
      <trkpt lat="43.23027" lon="2.6087">
        <ele>64.3</ele>
        <time>2017-01-20T15:00:45Z</time>
      </trkpt>
      <trkpt lat="43.23027" lon="2.6087">
        <ele>64.3</ele>
        <time>2017-01-20T15:00:46Z</time>
      </trkpt>
      <trkpt lat="43.23027" lon="2.6087">
        <ele>64.4</ele>
        <time>2017-01-20T15:00:47Z</time>
      </trkpt>
      <trkpt lat="43.23027" lon="2.6087">
        <ele>64.4</ele>
        <time>2017-01-20T15:00:48Z</time>
      </trkpt>
      <trkpt lat="43.23027" lon="2.6087">
        <ele>64.4</ele>
        <time>2017-01-20T15:00:49Z</time>
      </trkpt>
      <trkpt lat="43.23027" lon="2.6087">
        <ele>64.4</ele>
        <time>2017-01-20T15:00:50Z</time>
      </trkpt>
      <trkpt lat="43.23027" lon="2.6087">
        <ele>64.4</ele>
        <time>2017-01-20T15:00:51Z</time>
      </trkpt>
      <trkpt lat="43.23024" lon="2.6087">
        <ele>64.4</ele>
        <time>2017-01-20T15:00:52Z</time>
      </trkpt>
      <trkpt lat="43.23006" lon="2.60865">
        <ele>64.1</ele>
        <time>2017-01-20T15:00:59Z</time>
      </trkpt>
      <trkpt lat="43.23003" lon="2.60863">
        <ele>64.2</ele>
        <time>2017-01-20T15:01:00Z</time>
      </trkpt>
      <trkpt lat="43.2299" lon="2.60851">
        <ele>64.8</ele>
        <time>2017-01-20T15:01:07Z</time>
      </trkpt>
      <trkpt lat="43.2299" lon="2.60851">
        <ele>64.7</ele>
        <time>2017-01-20T15:01:08Z</time>
      </trkpt>
      <trkpt lat="43.2299" lon="2.60851">
        <ele>64.6</ele>
        <time>2017-01-20T15:01:09Z</time>
      </trkpt>
      <trkpt lat="43.2299" lon="2.60851">
        <ele>64.6</ele>
        <time>2017-01-20T15:01:10Z</time>
      </trkpt>
      <trkpt lat="43.2299" lon="2.60851">
        <ele>64.5</ele>
        <time>2017-01-20T15:01:11Z</time>
      </trkpt>
      <trkpt lat="43.2299" lon="2.60851">
        <ele>64.5</ele>
        <time>2017-01-20T15:01:12Z</time>
      </trkpt>
      <trkpt lat="43.2299" lon="2.60851">
        <ele>64.5</ele>
        <time>2017-01-20T15:01:13Z</time>
      </trkpt>
      <trkpt lat="43.2299" lon="2.60851">
        <ele>64.7</ele>
        <time>2017-01-20T15:01:14Z</time>
      </trkpt>
      <trkpt lat="43.2299" lon="2.60851">
        <ele>64.8</ele>
        <time>2017-01-20T15:01:15Z</time>
      </trkpt>
      <trkpt lat="43.2299" lon="2.60851">
        <ele>64.9</ele>
        <time>2017-01-20T15:01:16Z</time>
      </trkpt>
      <trkpt lat="43.2299" lon="2.60851">
        <ele>65</ele>
        <time>2017-01-20T15:01:17Z</time>
      </trkpt>
      <trkpt lat="43.2299" lon="2.60851">
        <ele>65.1</ele>
        <time>2017-01-20T15:01:18Z</time>
      </trkpt>
      <trkpt lat="43.2299" lon="2.60851">
        <ele>65.1</ele>
        <time>2017-01-20T15:01:19Z</time>
      </trkpt>
      <trkpt lat="43.22988" lon="2.60849">
        <ele>65.2</ele>
        <time>2017-01-20T15:01:20Z</time>
      </trkpt>
      <trkpt lat="43.22986" lon="2.60848">
        <ele>65.2</ele>
        <time>2017-01-20T15:01:21Z</time>
      </trkpt>
      <trkpt lat="43.2298" lon="2.6084">
        <ele>65.2</ele>
        <time>2017-01-20T15:01:24Z</time>
      </trkpt>
      <trkpt lat="43.22978" lon="2.60836">
        <ele>65.2</ele>
        <time>2017-01-20T15:01:25Z</time>
      </trkpt>
      <trkpt lat="43.22974" lon="2.60827">
        <ele>65.2</ele>
        <time>2017-01-20T15:01:27Z</time>
      </trkpt>
      <trkpt lat="43.22972" lon="2.60816">
        <ele>65.3</ele>
        <time>2017-01-20T15:01:29Z</time>
      </trkpt>
      <trkpt lat="43.22971" lon="2.60811">
        <ele>65.3</ele>
        <time>2017-01-20T15:01:30Z</time>
      </trkpt>
      <trkpt lat="43.22972" lon="2.60787">
        <ele>65.3</ele>
        <time>2017-01-20T15:01:34Z</time>
      </trkpt>
      <trkpt lat="43.22977" lon="2.60711">
        <ele>65.5</ele>
        <time>2017-01-20T15:01:47Z</time>
      </trkpt>
      <trkpt lat="43.22976" lon="2.60706">
        <ele>65.6</ele>
        <time>2017-01-20T15:01:48Z</time>
      </trkpt>
      <trkpt lat="43.22972" lon="2.60681">
        <ele>66</ele>
        <time>2017-01-20T15:01:55Z</time>
      </trkpt>
      <trkpt lat="43.22972" lon="2.60681">
        <ele>65.8</ele>
        <time>2017-01-20T15:01:56Z</time>
      </trkpt>
      <trkpt lat="43.22972" lon="2.60681">
        <ele>65.7</ele>
        <time>2017-01-20T15:01:57Z</time>
      </trkpt>
      <trkpt lat="43.22972" lon="2.60681">
        <ele>65.6</ele>
        <time>2017-01-20T15:01:58Z</time>
      </trkpt>
      <trkpt lat="43.22972" lon="2.60681">
        <ele>65.5</ele>
        <time>2017-01-20T15:01:59Z</time>
      </trkpt>
      <trkpt lat="43.22972" lon="2.60681">
        <ele>65.4</ele>
        <time>2017-01-20T15:02:00Z</time>
      </trkpt>
      <trkpt lat="43.22972" lon="2.60681">
        <ele>65.4</ele>
        <time>2017-01-20T15:02:01Z</time>
      </trkpt>
      <trkpt lat="43.22972" lon="2.60681">
        <ele>65.4</ele>
        <time>2017-01-20T15:02:02Z</time>
      </trkpt>
      <trkpt lat="43.22972" lon="2.60681">
        <ele>65.3</ele>
        <time>2017-01-20T15:02:03Z</time>
      </trkpt>
      <trkpt lat="43.22972" lon="2.60681">
        <ele>65.3</ele>
        <time>2017-01-20T15:02:04Z</time>
      </trkpt>
      <trkpt lat="43.22972" lon="2.60676">
        <ele>65.3</ele>
        <time>2017-01-20T15:02:05Z</time>
      </trkpt>
      <trkpt lat="43.22971" lon="2.60675">
        <ele>65.3</ele>
        <time>2017-01-20T15:02:06Z</time>
      </trkpt>
      <trkpt lat="43.2297" lon="2.60671">
        <ele>65.5</ele>
        <time>2017-01-20T15:02:08Z</time>
      </trkpt>
      <trkpt lat="43.22969" lon="2.60668">
        <ele>65.6</ele>
        <time>2017-01-20T15:02:09Z</time>
      </trkpt>
      <trkpt lat="43.22966" lon="2.60648">
        <ele>66.7</ele>
        <time>2017-01-20T15:02:17Z</time>
      </trkpt>
      <trkpt lat="43.22966" lon="2.60646">
        <ele>67.1</ele>
        <time>2017-01-20T15:02:18Z</time>
      </trkpt>
      <trkpt lat="43.22967" lon="2.60644">
        <ele>67.5</ele>
        <time>2017-01-20T15:02:19Z</time>
      </trkpt>
      <trkpt lat="43.22968" lon="2.60643">
        <ele>67.8</ele>
        <time>2017-01-20T15:02:20Z</time>
      </trkpt>
      <trkpt lat="43.2297" lon="2.60641">
        <ele>68</ele>
        <time>2017-01-20T15:02:21Z</time>
      </trkpt>
      <trkpt lat="43.22971" lon="2.60641">
        <ele>68.1</ele>
        <time>2017-01-20T15:02:22Z</time>
      </trkpt>
      <trkpt lat="43.22976" lon="2.6064">
        <ele>68.4</ele>
        <time>2017-01-20T15:02:26Z</time>
      </trkpt>
      <trkpt lat="43.22976" lon="2.6064">
        <ele>68.5</ele>
        <time>2017-01-20T15:02:27Z</time>
      </trkpt>
      <trkpt lat="43.22976" lon="2.6064">
        <ele>68.5</ele>
        <time>2017-01-20T15:02:28Z</time>
      </trkpt>
      <trkpt lat="43.22976" lon="2.6064">
        <ele>68.7</ele>
        <time>2017-01-20T15:02:29Z</time>
      </trkpt>
      <trkpt lat="43.22976" lon="2.6064">
        <ele>68.9</ele>
        <time>2017-01-20T15:02:30Z</time>
      </trkpt>
      <trkpt lat="43.22976" lon="2.6064">
        <ele>69</ele>
        <time>2017-01-20T15:02:31Z</time>
      </trkpt>
      <trkpt lat="43.22976" lon="2.6064">
        <ele>68.9</ele>
        <time>2017-01-20T15:02:32Z</time>
      </trkpt>
      <trkpt lat="43.22976" lon="2.6064">
        <ele>68.8</ele>
        <time>2017-01-20T15:02:33Z</time>
      </trkpt>
      <trkpt lat="43.22976" lon="2.6064">
        <ele>68.8</ele>
        <time>2017-01-20T15:02:34Z</time>
      </trkpt>
      <trkpt lat="43.22976" lon="2.6064">
        <ele>68.7</ele>
        <time>2017-01-20T15:02:35Z</time>
      </trkpt>
      <trkpt lat="43.22976" lon="2.6064">
        <ele>68.7</ele>
        <time>2017-01-20T15:02:36Z</time>
      </trkpt>
      <trkpt lat="43.22976" lon="2.6064">
        <ele>68.7</ele>
        <time>2017-01-20T15:02:37Z</time>
      </trkpt>
      <trkpt lat="43.22976" lon="2.6064">
        <ele>68.6</ele>
        <time>2017-01-20T15:02:38Z</time>
      </trkpt>
      <trkpt lat="43.22976" lon="2.6064">
        <ele>68.6</ele>
        <time>2017-01-20T15:02:39Z</time>
      </trkpt>
      <trkpt lat="43.22976" lon="2.6064">
        <ele>68.6</ele>
        <time>2017-01-20T15:02:40Z</time>
      </trkpt>
      <trkpt lat="43.22976" lon="2.6064">
        <ele>68.8</ele>
        <time>2017-01-20T15:02:41Z</time>
      </trkpt>
      <trkpt lat="43.22976" lon="2.6064">
        <ele>69</ele>
        <time>2017-01-20T15:02:42Z</time>
      </trkpt>
      <trkpt lat="43.22976" lon="2.6064">
        <ele>69.1</ele>
        <time>2017-01-20T15:02:43Z</time>
      </trkpt>
      <trkpt lat="43.2298" lon="2.60635">
        <ele>69.2</ele>
        <time>2017-01-20T15:02:44Z</time>
      </trkpt>
      <trkpt lat="43.22981" lon="2.60635">
        <ele>69.2</ele>
        <time>2017-01-20T15:02:45Z</time>
      </trkpt>
      <trkpt lat="43.22983" lon="2.60634">
        <ele>69.3</ele>
        <time>2017-01-20T15:02:46Z</time>
      </trkpt>
      <trkpt lat="43.22987" lon="2.60631">
        <ele>69.3</ele>
        <time>2017-01-20T15:02:48Z</time>
      </trkpt>
      <trkpt lat="43.22988" lon="2.60628">
        <ele>69.3</ele>
        <time>2017-01-20T15:02:49Z</time>
      </trkpt>
      <trkpt lat="43.22989" lon="2.60625">
        <ele>69.2</ele>
        <time>2017-01-20T15:02:50Z</time>
      </trkpt>
      <trkpt lat="43.22988" lon="2.6062">
        <ele>68.9</ele>
        <time>2017-01-20T15:02:52Z</time>
      </trkpt>
      <trkpt lat="43.22987" lon="2.60617">
        <ele>68.8</ele>
        <time>2017-01-20T15:02:53Z</time>
      </trkpt>
      <trkpt lat="43.22981" lon="2.60595">
        <ele>68.6</ele>
        <time>2017-01-20T15:02:59Z</time>
      </trkpt>
      <trkpt lat="43.22972" lon="2.6055">
        <ele>69</ele>
        <time>2017-01-20T15:03:09Z</time>
      </trkpt>
      <trkpt lat="43.22971" lon="2.60548">
        <ele>68.9</ele>
        <time>2017-01-20T15:03:10Z</time>
      </trkpt>
      <trkpt lat="43.22971" lon="2.60548">
        <ele>69.2</ele>
        <time>2017-01-20T15:03:11Z</time>
      </trkpt>
      <trkpt lat="43.22969" lon="2.60545">
        <ele>69.5</ele>
        <time>2017-01-20T15:03:12Z</time>
      </trkpt>
      <trkpt lat="43.22968" lon="2.60545">
        <ele>69.7</ele>
        <time>2017-01-20T15:03:13Z</time>
      </trkpt>
      <trkpt lat="43.22968" lon="2.60545">
        <ele>69.6</ele>
        <time>2017-01-20T15:03:14Z</time>
      </trkpt>
      <trkpt lat="43.22968" lon="2.60545">
        <ele>69.5</ele>
        <time>2017-01-20T15:03:15Z</time>
      </trkpt>
      <trkpt lat="43.22968" lon="2.60545">
        <ele>69.5</ele>
        <time>2017-01-20T15:03:16Z</time>
      </trkpt>
      <trkpt lat="43.22968" lon="2.60545">
        <ele>69.7</ele>
        <time>2017-01-20T15:03:17Z</time>
      </trkpt>
      <trkpt lat="43.22968" lon="2.60545">
        <ele>69.8</ele>
        <time>2017-01-20T15:03:18Z</time>
      </trkpt>
      <trkpt lat="43.22968" lon="2.60545">
        <ele>69.9</ele>
        <time>2017-01-20T15:03:19Z</time>
      </trkpt>
      <trkpt lat="43.22968" lon="2.60545">
        <ele>69.8</ele>
        <time>2017-01-20T15:03:20Z</time>
      </trkpt>
      <trkpt lat="43.22968" lon="2.60545">
        <ele>69.7</ele>
        <time>2017-01-20T15:03:21Z</time>
      </trkpt>
      <trkpt lat="43.22968" lon="2.60545">
        <ele>69.6</ele>
        <time>2017-01-20T15:03:22Z</time>
      </trkpt>
      <trkpt lat="43.22968" lon="2.60545">
        <ele>69.6</ele>
        <time>2017-01-20T15:03:23Z</time>
      </trkpt>
      <trkpt lat="43.22968" lon="2.60545">
        <ele>69.5</ele>
        <time>2017-01-20T15:03:24Z</time>
      </trkpt>
      <trkpt lat="43.22968" lon="2.60545">
        <ele>69.5</ele>
        <time>2017-01-20T15:03:25Z</time>
      </trkpt>
      <trkpt lat="43.22968" lon="2.60545">
        <ele>69.9</ele>
        <time>2017-01-20T15:03:26Z</time>
      </trkpt>
      <trkpt lat="43.22968" lon="2.60545">
        <ele>70.2</ele>
        <time>2017-01-20T15:03:27Z</time>
      </trkpt>
      <trkpt lat="43.22968" lon="2.60546">
        <ele>70.4</ele>
        <time>2017-01-20T15:03:28Z</time>
      </trkpt>
      <trkpt lat="43.22968" lon="2.60547">
        <ele>70.4</ele>
        <time>2017-01-20T15:03:29Z</time>
      </trkpt>
      <trkpt lat="43.22969" lon="2.60547">
        <ele>70.3</ele>
        <time>2017-01-20T15:03:30Z</time>
      </trkpt>
      <trkpt lat="43.22969" lon="2.60547">
        <ele>70.3</ele>
        <time>2017-01-20T15:03:31Z</time>
      </trkpt>
      <trkpt lat="43.22969" lon="2.60547">
        <ele>70.7</ele>
        <time>2017-01-20T15:03:32Z</time>
      </trkpt>
      <trkpt lat="43.22971" lon="2.60544">
        <ele>71</ele>
        <time>2017-01-20T15:03:33Z</time>
      </trkpt>
      <trkpt lat="43.22972" lon="2.6054">
        <ele>71.2</ele>
        <time>2017-01-20T15:03:34Z</time>
      </trkpt>
      <trkpt lat="43.22972" lon="2.60528">
        <ele>70.4</ele>
        <time>2017-01-20T15:03:38Z</time>
      </trkpt>
      <trkpt lat="43.22972" lon="2.60528">
        <ele>70.6</ele>
        <time>2017-01-20T15:03:39Z</time>
      </trkpt>
      <trkpt lat="43.22972" lon="2.60528">
        <ele>70.7</ele>
        <time>2017-01-20T15:03:40Z</time>
      </trkpt>
      <trkpt lat="43.22972" lon="2.60528">
        <ele>70.6</ele>
        <time>2017-01-20T15:03:41Z</time>
      </trkpt>
      <trkpt lat="43.22972" lon="2.60528">
        <ele>70.5</ele>
        <time>2017-01-20T15:03:42Z</time>
      </trkpt>
      <trkpt lat="43.22972" lon="2.60528">
        <ele>70.4</ele>
        <time>2017-01-20T15:03:43Z</time>
      </trkpt>
      <trkpt lat="43.22967" lon="2.60516">
        <ele>70.6</ele>
        <time>2017-01-20T15:03:44Z</time>
      </trkpt>
      <trkpt lat="43.22967" lon="2.60516">
        <ele>70.7</ele>
        <time>2017-01-20T15:03:45Z</time>
      </trkpt>
      <trkpt lat="43.22967" lon="2.60516">
        <ele>70.8</ele>
        <time>2017-01-20T15:03:46Z</time>
      </trkpt>
      <trkpt lat="43.22967" lon="2.60516">
        <ele>70.9</ele>
        <time>2017-01-20T15:03:47Z</time>
      </trkpt>
      <trkpt lat="43.22967" lon="2.60516">
        <ele>70.9</ele>
        <time>2017-01-20T15:03:48Z</time>
      </trkpt>
      <trkpt lat="43.22967" lon="2.60516">
        <ele>70.9</ele>
        <time>2017-01-20T15:03:49Z</time>
      </trkpt>
      <trkpt lat="43.22962" lon="2.60504">
        <ele>71.2</ele>
        <time>2017-01-20T15:03:50Z</time>
      </trkpt>
      <trkpt lat="43.22962" lon="2.60504">
        <ele>71.4</ele>
        <time>2017-01-20T15:03:51Z</time>
      </trkpt>
      <trkpt lat="43.22962" lon="2.60504">
        <ele>71.5</ele>
        <time>2017-01-20T15:03:52Z</time>
      </trkpt>
      <trkpt lat="43.22962" lon="2.60504">
        <ele>71.2</ele>
        <time>2017-01-20T15:03:53Z</time>
      </trkpt>
      <trkpt lat="43.22962" lon="2.60504">
        <ele>70.9</ele>
        <time>2017-01-20T15:03:54Z</time>
      </trkpt>
      <trkpt lat="43.22957" lon="2.60492">
        <ele>70.8</ele>
        <time>2017-01-20T15:03:55Z</time>
      </trkpt>
      <trkpt lat="43.22957" lon="2.60492">
        <ele>71</ele>
        <time>2017-01-20T15:03:56Z</time>
      </trkpt>
      <trkpt lat="43.22957" lon="2.60492">
        <ele>71.3</ele>
        <time>2017-01-20T15:03:57Z</time>
      </trkpt>
      <trkpt lat="43.22957" lon="2.60492">
        <ele>71.4</ele>
        <time>2017-01-20T15:03:58Z</time>
      </trkpt>
      <trkpt lat="43.22957" lon="2.60492">
        <ele>71.3</ele>
        <time>2017-01-20T15:03:59Z</time>
      </trkpt>
      <trkpt lat="43.22953" lon="2.60479">
        <ele>71.3</ele>
        <time>2017-01-20T15:04:00Z</time>
      </trkpt>
      <trkpt lat="43.22953" lon="2.60479">
        <ele>71.2</ele>
        <time>2017-01-20T15:04:01Z</time>
      </trkpt>
      <trkpt lat="43.22953" lon="2.60479">
        <ele>71.4</ele>
        <time>2017-01-20T15:04:02Z</time>
      </trkpt>
      <trkpt lat="43.22953" lon="2.60479">
        <ele>71.5</ele>
        <time>2017-01-20T15:04:03Z</time>
      </trkpt>
      <trkpt lat="43.22949" lon="2.60467">
        <ele>71.6</ele>
        <time>2017-01-20T15:04:04Z</time>
      </trkpt>
      <trkpt lat="43.22937" lon="2.60413">
        <ele>71</ele>
        <time>2017-01-20T15:04:11Z</time>
      </trkpt>
      <trkpt lat="43.22936" lon="2.60401">
        <ele>71</ele>
        <time>2017-01-20T15:04:12Z</time>
      </trkpt>
      <trkpt lat="43.22933" lon="2.6037">
        <ele>70.1</ele>
        <time>2017-01-20T15:04:19Z</time>
      </trkpt>
      <trkpt lat="43.22933" lon="2.6037">
        <ele>69.9</ele>
        <time>2017-01-20T15:04:20Z</time>
      </trkpt>
      <trkpt lat="43.22933" lon="2.6037">
        <ele>69.8</ele>
        <time>2017-01-20T15:04:21Z</time>
      </trkpt>
      <trkpt lat="43.22933" lon="2.6037">
        <ele>69.7</ele>
        <time>2017-01-20T15:04:22Z</time>
      </trkpt>
      <trkpt lat="43.22933" lon="2.6037">
        <ele>69.6</ele>
        <time>2017-01-20T15:04:23Z</time>
      </trkpt>
      <trkpt lat="43.22933" lon="2.6037">
        <ele>69.6</ele>
        <time>2017-01-20T15:04:24Z</time>
      </trkpt>
      <trkpt lat="43.22933" lon="2.6037">
        <ele>69.5</ele>
        <time>2017-01-20T15:04:25Z</time>
      </trkpt>
      <trkpt lat="43.22933" lon="2.6037">
        <ele>69.5</ele>
        <time>2017-01-20T15:04:26Z</time>
      </trkpt>
      <trkpt lat="43.22933" lon="2.6037">
        <ele>69.5</ele>
        <time>2017-01-20T15:04:27Z</time>
      </trkpt>
      <trkpt lat="43.22933" lon="2.6037">
        <ele>69.5</ele>
        <time>2017-01-20T15:04:28Z</time>
      </trkpt>
      <trkpt lat="43.22933" lon="2.6037">
        <ele>69.4</ele>
        <time>2017-01-20T15:04:29Z</time>
      </trkpt>
      <trkpt lat="43.22933" lon="2.6037">
        <ele>69.4</ele>
        <time>2017-01-20T15:04:30Z</time>
      </trkpt>
      <trkpt lat="43.22933" lon="2.6037">
        <ele>69.4</ele>
        <time>2017-01-20T15:04:31Z</time>
      </trkpt>
      <trkpt lat="43.22933" lon="2.6037">
        <ele>69.6</ele>
        <time>2017-01-20T15:04:32Z</time>
      </trkpt>
      <trkpt lat="43.22933" lon="2.6037">
        <ele>69.8</ele>
        <time>2017-01-20T15:04:33Z</time>
      </trkpt>
      <trkpt lat="43.22933" lon="2.6037">
        <ele>69.9</ele>
        <time>2017-01-20T15:04:34Z</time>
      </trkpt>
      <trkpt lat="43.22933" lon="2.6037">
        <ele>70</ele>
        <time>2017-01-20T15:04:35Z</time>
      </trkpt>
      <trkpt lat="43.22933" lon="2.6037">
        <ele>70</ele>
        <time>2017-01-20T15:04:36Z</time>
      </trkpt>
      <trkpt lat="43.22933" lon="2.6037">
        <ele>70.1</ele>
        <time>2017-01-20T15:04:37Z</time>
      </trkpt>
      <trkpt lat="43.22933" lon="2.6037">
        <ele>69.9</ele>
        <time>2017-01-20T15:04:38Z</time>
      </trkpt>
      <trkpt lat="43.22933" lon="2.6037">
        <ele>69.8</ele>
        <time>2017-01-20T15:04:39Z</time>
      </trkpt>
      <trkpt lat="43.22933" lon="2.6037">
        <ele>69.7</ele>
        <time>2017-01-20T15:04:40Z</time>
      </trkpt>
      <trkpt lat="43.22933" lon="2.6037">
        <ele>69.8</ele>
        <time>2017-01-20T15:04:41Z</time>
      </trkpt>
      <trkpt lat="43.22933" lon="2.6037">
        <ele>69.9</ele>
        <time>2017-01-20T15:04:42Z</time>
      </trkpt>
      <trkpt lat="43.22933" lon="2.6037">
        <ele>70</ele>
        <time>2017-01-20T15:04:43Z</time>
      </trkpt>
      <trkpt lat="43.22933" lon="2.6037">
        <ele>70.1</ele>
        <time>2017-01-20T15:04:44Z</time>
      </trkpt>
      <trkpt lat="43.22933" lon="2.6037">
        <ele>70.1</ele>
        <time>2017-01-20T15:04:45Z</time>
      </trkpt>
      <trkpt lat="43.22933" lon="2.6037">
        <ele>70.1</ele>
        <time>2017-01-20T15:04:46Z</time>
      </trkpt>
      <trkpt lat="43.22933" lon="2.6037">
        <ele>70.2</ele>
        <time>2017-01-20T15:04:47Z</time>
      </trkpt>
      <trkpt lat="43.22933" lon="2.6037">
        <ele>70.2</ele>
        <time>2017-01-20T15:04:48Z</time>
      </trkpt>
      <trkpt lat="43.22934" lon="2.60366">
        <ele>70.2</ele>
        <time>2017-01-20T15:04:49Z</time>
      </trkpt>
      <trkpt lat="43.22935" lon="2.60365">
        <ele>70.4</ele>
        <time>2017-01-20T15:04:50Z</time>
      </trkpt>
      <trkpt lat="43.22936" lon="2.60363">
        <ele>70.6</ele>
        <time>2017-01-20T15:04:51Z</time>
      </trkpt>
      <trkpt lat="43.22937" lon="2.60361">
        <ele>70.7</ele>
        <time>2017-01-20T15:04:52Z</time>
      </trkpt>
      <trkpt lat="43.22938" lon="2.60359">
        <ele>70.4</ele>
        <time>2017-01-20T15:04:53Z</time>
      </trkpt>
      <trkpt lat="43.22939" lon="2.60358">
        <ele>70.1</ele>
        <time>2017-01-20T15:04:54Z</time>
      </trkpt>
      <trkpt lat="43.2294" lon="2.60356">
        <ele>69.9</ele>
        <time>2017-01-20T15:04:55Z</time>
      </trkpt>
      <trkpt lat="43.2294" lon="2.60355">
        <ele>70</ele>
        <time>2017-01-20T15:04:56Z</time>
      </trkpt>
      <trkpt lat="43.22941" lon="2.60354">
        <ele>70.1</ele>
        <time>2017-01-20T15:04:57Z</time>
      </trkpt>
      <trkpt lat="43.22941" lon="2.60353">
        <ele>70.1</ele>
        <time>2017-01-20T15:04:58Z</time>
      </trkpt>
      <trkpt lat="43.22942" lon="2.60353">
        <ele>69.7</ele>
        <time>2017-01-20T15:04:59Z</time>
      </trkpt>
      <trkpt lat="43.22942" lon="2.60353">
        <ele>69.4</ele>
        <time>2017-01-20T15:05:00Z</time>
      </trkpt>
      <trkpt lat="43.22942" lon="2.60351">
        <ele>69.1</ele>
        <time>2017-01-20T15:05:02Z</time>
      </trkpt>
      <trkpt lat="43.22942" lon="2.60351">
        <ele>68.9</ele>
        <time>2017-01-20T15:05:03Z</time>
      </trkpt>
      <trkpt lat="43.22942" lon="2.60351">
        <ele>68.8</ele>
        <time>2017-01-20T15:05:04Z</time>
      </trkpt>
      <trkpt lat="43.22942" lon="2.60351">
        <ele>67.7</ele>
        <time>2017-01-20T15:05:05Z</time>
      </trkpt>
      <trkpt lat="43.22942" lon="2.60351">
        <ele>66.9</ele>
        <time>2017-01-20T15:05:06Z</time>
      </trkpt>
      <trkpt lat="43.22942" lon="2.60351">
        <ele>66.3</ele>
        <time>2017-01-20T15:05:07Z</time>
      </trkpt>
      <trkpt lat="43.22942" lon="2.60351">
        <ele>66.9</ele>
        <time>2017-01-20T15:05:08Z</time>
      </trkpt>
      <trkpt lat="43.22942" lon="2.60352">
        <ele>67.3</ele>
        <time>2017-01-20T15:05:09Z</time>
      </trkpt>
      <trkpt lat="43.22942" lon="2.60352">
        <ele>67.6</ele>
        <time>2017-01-20T15:05:10Z</time>
      </trkpt>
      <trkpt lat="43.22942" lon="2.60352">
        <ele>68.1</ele>
        <time>2017-01-20T15:05:11Z</time>
      </trkpt>
      <trkpt lat="43.22942" lon="2.60352">
        <ele>68.4</ele>
        <time>2017-01-20T15:05:12Z</time>
      </trkpt>
      <trkpt lat="43.22942" lon="2.60352">
        <ele>68.6</ele>
        <time>2017-01-20T15:05:13Z</time>
      </trkpt>
      <trkpt lat="43.22942" lon="2.60352">
        <ele>68.8</ele>
        <time>2017-01-20T15:05:14Z</time>
      </trkpt>
      <trkpt lat="43.22941" lon="2.60352">
        <ele>69</ele>
        <time>2017-01-20T15:05:15Z</time>
      </trkpt>
      <trkpt lat="43.22941" lon="2.60351">
        <ele>69.1</ele>
        <time>2017-01-20T15:05:16Z</time>
      </trkpt>
      <trkpt lat="43.22941" lon="2.6035">
        <ele>69.2</ele>
        <time>2017-01-20T15:05:17Z</time>
      </trkpt>
      <trkpt lat="43.22941" lon="2.6035">
        <ele>69.2</ele>
        <time>2017-01-20T15:05:18Z</time>
      </trkpt>
      <trkpt lat="43.22941" lon="2.6035">
        <ele>69.3</ele>
        <time>2017-01-20T15:05:19Z</time>
      </trkpt>
      <trkpt lat="43.22941" lon="2.60349">
        <ele>69.5</ele>
        <time>2017-01-20T15:05:20Z</time>
      </trkpt>
      <trkpt lat="43.22941" lon="2.60349">
        <ele>69.7</ele>
        <time>2017-01-20T15:05:21Z</time>
      </trkpt>
      <trkpt lat="43.22941" lon="2.60349">
        <ele>69.8</ele>
        <time>2017-01-20T15:05:22Z</time>
      </trkpt>
      <trkpt lat="43.22941" lon="2.60349">
        <ele>69.5</ele>
        <time>2017-01-20T15:05:23Z</time>
      </trkpt>
      <trkpt lat="43.22941" lon="2.60348">
        <ele>69.3</ele>
        <time>2017-01-20T15:05:24Z</time>
      </trkpt>
      <trkpt lat="43.22941" lon="2.60348">
        <ele>69.1</ele>
        <time>2017-01-20T15:05:25Z</time>
      </trkpt>
      <trkpt lat="43.22941" lon="2.60348">
        <ele>69.2</ele>
        <time>2017-01-20T15:05:26Z</time>
      </trkpt>
      <trkpt lat="43.22941" lon="2.60348">
        <ele>69.2</ele>
        <time>2017-01-20T15:05:27Z</time>
      </trkpt>
      <trkpt lat="43.2294" lon="2.60348">
        <ele>69.3</ele>
        <time>2017-01-20T15:05:28Z</time>
      </trkpt>
      <trkpt lat="43.2294" lon="2.60348">
        <ele>69.1</ele>
        <time>2017-01-20T15:05:29Z</time>
      </trkpt>
      <trkpt lat="43.22941" lon="2.60348">
        <ele>69</ele>
        <time>2017-01-20T15:05:30Z</time>
      </trkpt>
      <trkpt lat="43.22944" lon="2.60349">
        <ele>68.6</ele>
        <time>2017-01-20T15:06:10Z</time>
      </trkpt>
      <trkpt lat="43.22944" lon="2.60349">
        <ele>68.8</ele>
        <time>2017-01-20T15:06:11Z</time>
      </trkpt>
      <trkpt lat="43.22944" lon="2.60349">
        <ele>68.9</ele>
        <time>2017-01-20T15:06:12Z</time>
      </trkpt>
      <trkpt lat="43.22944" lon="2.6035">
        <ele>69.1</ele>
        <time>2017-01-20T15:06:13Z</time>
      </trkpt>
      <trkpt lat="43.22944" lon="2.6035">
        <ele>69.3</ele>
        <time>2017-01-20T15:06:14Z</time>
      </trkpt>
      <trkpt lat="43.22944" lon="2.6035">
        <ele>69.6</ele>
        <time>2017-01-20T15:06:15Z</time>
      </trkpt>
      <trkpt lat="43.22944" lon="2.6035">
        <ele>69.7</ele>
        <time>2017-01-20T15:06:16Z</time>
      </trkpt>
      <trkpt lat="43.22944" lon="2.6035">
        <ele>70.1</ele>
        <time>2017-01-20T15:06:17Z</time>
      </trkpt>
      <trkpt lat="43.22944" lon="2.6035">
        <ele>70.3</ele>
        <time>2017-01-20T15:06:18Z</time>
      </trkpt>
      <trkpt lat="43.22944" lon="2.6035">
        <ele>70.5</ele>
        <time>2017-01-20T15:06:19Z</time>
      </trkpt>
      <trkpt lat="43.22944" lon="2.6035">
        <ele>70.4</ele>
        <time>2017-01-20T15:06:20Z</time>
      </trkpt>
      <trkpt lat="43.22944" lon="2.6035">
        <ele>70.4</ele>
        <time>2017-01-20T15:06:21Z</time>
      </trkpt>
      <trkpt lat="43.22944" lon="2.6035">
        <ele>70.3</ele>
        <time>2017-01-20T15:06:22Z</time>
      </trkpt>
      <trkpt lat="43.22944" lon="2.6035">
        <ele>70.7</ele>
        <time>2017-01-20T15:06:24Z</time>
      </trkpt>
      <trkpt lat="43.22944" lon="2.60351">
        <ele>70.8</ele>
        <time>2017-01-20T15:06:25Z</time>
      </trkpt>
      <trkpt lat="43.22944" lon="2.60351">
        <ele>71</ele>
        <time>2017-01-20T15:06:26Z</time>
      </trkpt>
      <trkpt lat="43.22944" lon="2.60351">
        <ele>71.3</ele>
        <time>2017-01-20T15:06:27Z</time>
      </trkpt>
      <trkpt lat="43.22944" lon="2.60351">
        <ele>71.4</ele>
        <time>2017-01-20T15:06:28Z</time>
      </trkpt>
      <trkpt lat="43.22944" lon="2.60351">
        <ele>71.1</ele>
        <time>2017-01-20T15:06:29Z</time>
      </trkpt>
      <trkpt lat="43.22944" lon="2.60351">
        <ele>70.9</ele>
        <time>2017-01-20T15:06:30Z</time>
      </trkpt>
      <trkpt lat="43.22944" lon="2.60351">
        <ele>70.7</ele>
        <time>2017-01-20T15:06:31Z</time>
      </trkpt>
      <trkpt lat="43.22945" lon="2.60351">
        <ele>70.4</ele>
        <time>2017-01-20T15:06:32Z</time>
      </trkpt>
      <trkpt lat="43.22945" lon="2.60351">
        <ele>70.1</ele>
        <time>2017-01-20T15:06:33Z</time>
      </trkpt>
      <trkpt lat="43.22945" lon="2.60351">
        <ele>70</ele>
        <time>2017-01-20T15:06:34Z</time>
      </trkpt>
      <trkpt lat="43.22945" lon="2.60351">
        <ele>69.8</ele>
        <time>2017-01-20T15:06:35Z</time>
      </trkpt>
      <trkpt lat="43.22945" lon="2.60351">
        <ele>69.7</ele>
        <time>2017-01-20T15:06:36Z</time>
      </trkpt>
      <trkpt lat="43.22945" lon="2.60351">
        <ele>69.6</ele>
        <time>2017-01-20T15:06:37Z</time>
      </trkpt>
      <trkpt lat="43.22945" lon="2.6035">
        <ele>70</ele>
        <time>2017-01-20T15:06:38Z</time>
      </trkpt>
      <trkpt lat="43.22945" lon="2.60345">
        <ele>70.2</ele>
        <time>2017-01-20T15:06:41Z</time>
      </trkpt>
      <trkpt lat="43.22945" lon="2.60338">
        <ele>70.2</ele>
        <time>2017-01-20T15:06:44Z</time>
      </trkpt>
      <trkpt lat="43.22944" lon="2.60333">
        <ele>70.5</ele>
        <time>2017-01-20T15:06:46Z</time>
      </trkpt>
      <trkpt lat="43.22944" lon="2.6033">
        <ele>70.5</ele>
        <time>2017-01-20T15:06:47Z</time>
      </trkpt>
      <trkpt lat="43.22949" lon="2.60227">
        <ele>70.3</ele>
        <time>2017-01-20T15:07:07Z</time>
      </trkpt>
      <trkpt lat="43.22949" lon="2.60201">
        <ele>70.6</ele>
        <time>2017-01-20T15:07:12Z</time>
      </trkpt>
      <trkpt lat="43.22948" lon="2.60191">
        <ele>70.8</ele>
        <time>2017-01-20T15:07:14Z</time>
      </trkpt>
      <trkpt lat="43.22945" lon="2.6018">
        <ele>70.9</ele>
        <time>2017-01-20T15:07:16Z</time>
      </trkpt>
      <trkpt lat="43.22944" lon="2.60176">
        <ele>70.7</ele>
        <time>2017-01-20T15:07:17Z</time>
      </trkpt>
      <trkpt lat="43.22934" lon="2.60154">
        <ele>70.8</ele>
        <time>2017-01-20T15:07:22Z</time>
      </trkpt>
      <trkpt lat="43.22932" lon="2.60152">
        <ele>71.1</ele>
        <time>2017-01-20T15:07:23Z</time>
      </trkpt>
      <trkpt lat="43.22927" lon="2.60144">
        <ele>71</ele>
        <time>2017-01-20T15:07:29Z</time>
      </trkpt>
      <trkpt lat="43.22927" lon="2.60144">
        <ele>70.8</ele>
        <time>2017-01-20T15:07:30Z</time>
      </trkpt>
      <trkpt lat="43.22927" lon="2.60144">
        <ele>70.6</ele>
        <time>2017-01-20T15:07:31Z</time>
      </trkpt>
      <trkpt lat="43.22927" lon="2.60144">
        <ele>70.5</ele>
        <time>2017-01-20T15:07:32Z</time>
      </trkpt>
      <trkpt lat="43.22927" lon="2.60144">
        <ele>70.5</ele>
        <time>2017-01-20T15:07:33Z</time>
      </trkpt>
      <trkpt lat="43.22927" lon="2.60144">
        <ele>70.4</ele>
        <time>2017-01-20T15:07:34Z</time>
      </trkpt>
      <trkpt lat="43.22927" lon="2.60144">
        <ele>70.6</ele>
        <time>2017-01-20T15:07:35Z</time>
      </trkpt>
      <trkpt lat="43.22927" lon="2.60144">
        <ele>70.7</ele>
        <time>2017-01-20T15:07:36Z</time>
      </trkpt>
      <trkpt lat="43.22923" lon="2.60137">
        <ele>70.8</ele>
        <time>2017-01-20T15:07:37Z</time>
      </trkpt>
      <trkpt lat="43.22921" lon="2.60133">
        <ele>70.6</ele>
        <time>2017-01-20T15:07:38Z</time>
      </trkpt>
      <trkpt lat="43.22916" lon="2.60127">
        <ele>70.5</ele>
        <time>2017-01-20T15:07:40Z</time>
      </trkpt>
      <trkpt lat="43.22913" lon="2.60123">
        <ele>70.4</ele>
        <time>2017-01-20T15:07:41Z</time>
      </trkpt>
      <trkpt lat="43.22906" lon="2.60116">
        <ele>70.3</ele>
        <time>2017-01-20T15:07:43Z</time>
      </trkpt>
      <trkpt lat="43.22903" lon="2.60112">
        <ele>70.3</ele>
        <time>2017-01-20T15:07:44Z</time>
      </trkpt>
      <trkpt lat="43.22898" lon="2.60108">
        <ele>70.3</ele>
        <time>2017-01-20T15:07:45Z</time>
      </trkpt>
      <trkpt lat="43.22895" lon="2.60105">
        <ele>70.3</ele>
        <time>2017-01-20T15:07:46Z</time>
      </trkpt>
      <trkpt lat="43.22886" lon="2.60097">
        <ele>70.6</ele>
        <time>2017-01-20T15:07:48Z</time>
      </trkpt>
      <trkpt lat="43.22882" lon="2.60094">
        <ele>70.7</ele>
        <time>2017-01-20T15:07:49Z</time>
      </trkpt>
      <trkpt lat="43.22878" lon="2.6009">
        <ele>70.6</ele>
        <time>2017-01-20T15:07:50Z</time>
      </trkpt>
      <trkpt lat="43.22874" lon="2.60087">
        <ele>70.5</ele>
        <time>2017-01-20T15:07:51Z</time>
      </trkpt>
      <trkpt lat="43.2287" lon="2.60084">
        <ele>70.4</ele>
        <time>2017-01-20T15:07:52Z</time>
      </trkpt>
      <trkpt lat="43.22866" lon="2.60081">
        <ele>70.4</ele>
        <time>2017-01-20T15:07:53Z</time>
      </trkpt>
      <trkpt lat="43.22862" lon="2.60079">
        <ele>70.3</ele>
        <time>2017-01-20T15:07:54Z</time>
      </trkpt>
      <trkpt lat="43.22858" lon="2.60076">
        <ele>70.3</ele>
        <time>2017-01-20T15:07:55Z</time>
      </trkpt>
      <trkpt lat="43.22841" lon="2.60067">
        <ele>71.5</ele>
        <time>2017-01-20T15:07:59Z</time>
      </trkpt>
      <trkpt lat="43.22836" lon="2.60065">
        <ele>71.4</ele>
        <time>2017-01-20T15:08:00Z</time>
      </trkpt>
      <trkpt lat="43.2267" lon="2.59995">
        <ele>70.8</ele>
        <time>2017-01-20T15:08:36Z</time>
      </trkpt>
      <trkpt lat="43.2267" lon="2.59995">
        <ele>70.7</ele>
        <time>2017-01-20T15:08:37Z</time>
      </trkpt>
      <trkpt lat="43.2267" lon="2.59995">
        <ele>70.3</ele>
        <time>2017-01-20T15:08:38Z</time>
      </trkpt>
      <trkpt lat="43.2267" lon="2.59995">
        <ele>70.1</ele>
        <time>2017-01-20T15:08:39Z</time>
      </trkpt>
      <trkpt lat="43.2267" lon="2.59995">
        <ele>69.9</ele>
        <time>2017-01-20T15:08:40Z</time>
      </trkpt>
      <trkpt lat="43.2267" lon="2.59995">
        <ele>69.8</ele>
        <time>2017-01-20T15:08:41Z</time>
      </trkpt>
      <trkpt lat="43.2267" lon="2.59995">
        <ele>69.7</ele>
        <time>2017-01-20T15:08:42Z</time>
      </trkpt>
      <trkpt lat="43.2267" lon="2.59995">
        <ele>69.6</ele>
        <time>2017-01-20T15:08:43Z</time>
      </trkpt>
      <trkpt lat="43.2267" lon="2.59995">
        <ele>69.8</ele>
        <time>2017-01-20T15:08:44Z</time>
      </trkpt>
      <trkpt lat="43.22667" lon="2.59993">
        <ele>69.9</ele>
        <time>2017-01-20T15:08:45Z</time>
      </trkpt>
      <trkpt lat="43.22666" lon="2.59992">
        <ele>70</ele>
        <time>2017-01-20T15:08:46Z</time>
      </trkpt>
      <trkpt lat="43.22568" lon="2.59938">
        <ele>70.1</ele>
        <time>2017-01-20T15:09:17Z</time>
      </trkpt>
      <trkpt lat="43.22523" lon="2.59915">
        <ele>70.6</ele>
        <time>2017-01-20T15:09:32Z</time>
      </trkpt>
      <trkpt lat="43.22507" lon="2.59911">
        <ele>70.6</ele>
        <time>2017-01-20T15:09:35Z</time>
      </trkpt>
      <trkpt lat="43.22279" lon="2.59855">
        <ele>70.6</ele>
        <time>2017-01-20T15:10:24Z</time>
      </trkpt>
      <trkpt lat="43.22279" lon="2.59855">
        <ele>70.5</ele>
        <time>2017-01-20T15:10:25Z</time>
      </trkpt>
      <trkpt lat="43.22279" lon="2.59855">
        <ele>70.5</ele>
        <time>2017-01-20T15:10:26Z</time>
      </trkpt>
      <trkpt lat="43.22279" lon="2.59855">
        <ele>70.4</ele>
        <time>2017-01-20T15:10:27Z</time>
      </trkpt>
      <trkpt lat="43.22279" lon="2.59855">
        <ele>70.4</ele>
        <time>2017-01-20T15:10:28Z</time>
      </trkpt>
      <trkpt lat="43.22279" lon="2.59855">
        <ele>70.1</ele>
        <time>2017-01-20T15:10:29Z</time>
      </trkpt>
      <trkpt lat="43.22279" lon="2.59855">
        <ele>69.9</ele>
        <time>2017-01-20T15:10:30Z</time>
      </trkpt>
      <trkpt lat="43.22279" lon="2.59855">
        <ele>69.8</ele>
        <time>2017-01-20T15:10:31Z</time>
      </trkpt>
      <trkpt lat="43.22275" lon="2.59854">
        <ele>70.1</ele>
        <time>2017-01-20T15:10:32Z</time>
      </trkpt>
      <trkpt lat="43.22262" lon="2.59848">
        <ele>70.8</ele>
        <time>2017-01-20T15:10:36Z</time>
      </trkpt>
      <trkpt lat="43.2205" lon="2.59752">
        <ele>70.7</ele>
        <time>2017-01-20T15:11:23Z</time>
      </trkpt>
      <trkpt lat="43.2205" lon="2.59752">
        <ele>70.4</ele>
        <time>2017-01-20T15:11:24Z</time>
      </trkpt>
      <trkpt lat="43.2205" lon="2.59752">
        <ele>70.1</ele>
        <time>2017-01-20T15:11:25Z</time>
      </trkpt>
      <trkpt lat="43.2205" lon="2.59752">
        <ele>69.9</ele>
        <time>2017-01-20T15:11:26Z</time>
      </trkpt>
      <trkpt lat="43.2205" lon="2.59752">
        <ele>69.8</ele>
        <time>2017-01-20T15:11:27Z</time>
      </trkpt>
      <trkpt lat="43.2205" lon="2.59752">
        <ele>69.7</ele>
        <time>2017-01-20T15:11:28Z</time>
      </trkpt>
      <trkpt lat="43.2205" lon="2.59752">
        <ele>69.8</ele>
        <time>2017-01-20T15:11:29Z</time>
      </trkpt>
      <trkpt lat="43.2205" lon="2.59752">
        <ele>69.9</ele>
        <time>2017-01-20T15:11:30Z</time>
      </trkpt>
      <trkpt lat="43.2205" lon="2.59752">
        <ele>70</ele>
        <time>2017-01-20T15:11:31Z</time>
      </trkpt>
      <trkpt lat="43.2205" lon="2.59752">
        <ele>69.9</ele>
        <time>2017-01-20T15:11:32Z</time>
      </trkpt>
      <trkpt lat="43.2205" lon="2.59752">
        <ele>69.7</ele>
        <time>2017-01-20T15:11:33Z</time>
      </trkpt>
      <trkpt lat="43.22046" lon="2.59747">
        <ele>69.7</ele>
        <time>2017-01-20T15:11:34Z</time>
      </trkpt>
      <trkpt lat="43.21974" lon="2.59675">
        <ele>71.6</ele>
        <time>2017-01-20T15:11:53Z</time>
      </trkpt>
      <trkpt lat="43.21966" lon="2.59669">
        <ele>72.1</ele>
        <time>2017-01-20T15:11:55Z</time>
      </trkpt>
      <trkpt lat="43.2196" lon="2.59665">
        <ele>71.5</ele>
        <time>2017-01-20T15:11:59Z</time>
      </trkpt>
      <trkpt lat="43.2196" lon="2.59665">
        <ele>71.2</ele>
        <time>2017-01-20T15:12:00Z</time>
      </trkpt>
      <trkpt lat="43.2196" lon="2.59665">
        <ele>71</ele>
        <time>2017-01-20T15:12:01Z</time>
      </trkpt>
      <trkpt lat="43.2196" lon="2.59665">
        <ele>70.8</ele>
        <time>2017-01-20T15:12:02Z</time>
      </trkpt>
      <trkpt lat="43.2196" lon="2.59665">
        <ele>70.6</ele>
        <time>2017-01-20T15:12:03Z</time>
      </trkpt>
      <trkpt lat="43.2196" lon="2.59665">
        <ele>70.5</ele>
        <time>2017-01-20T15:12:04Z</time>
      </trkpt>
      <trkpt lat="43.2196" lon="2.59665">
        <ele>70.5</ele>
        <time>2017-01-20T15:12:05Z</time>
      </trkpt>
      <trkpt lat="43.2196" lon="2.59665">
        <ele>70.4</ele>
        <time>2017-01-20T15:12:06Z</time>
      </trkpt>
      <trkpt lat="43.2196" lon="2.59665">
        <ele>70.4</ele>
        <time>2017-01-20T15:12:07Z</time>
      </trkpt>
      <trkpt lat="43.2196" lon="2.59665">
        <ele>70.5</ele>
        <time>2017-01-20T15:12:08Z</time>
      </trkpt>
      <trkpt lat="43.21956" lon="2.59663">
        <ele>70.7</ele>
        <time>2017-01-20T15:12:09Z</time>
      </trkpt>
      <trkpt lat="43.21952" lon="2.59661">
        <ele>70.8</ele>
        <time>2017-01-20T15:12:10Z</time>
      </trkpt>
      <trkpt lat="43.21945" lon="2.59659">
        <ele>70.9</ele>
        <time>2017-01-20T15:12:12Z</time>
      </trkpt>
      <trkpt lat="43.21924" lon="2.59656">
        <ele>71</ele>
        <time>2017-01-20T15:12:17Z</time>
      </trkpt>
      <trkpt lat="43.2192" lon="2.59656">
        <ele>71</ele>
        <time>2017-01-20T15:12:18Z</time>
      </trkpt>
      <trkpt lat="43.21896" lon="2.59662">
        <ele>71.3</ele>
        <time>2017-01-20T15:12:25Z</time>
      </trkpt>
      <trkpt lat="43.21824" lon="2.5968">
        <ele>72.2</ele>
        <time>2017-01-20T15:12:42Z</time>
      </trkpt>
      <trkpt lat="43.21818" lon="2.5968">
        <ele>72.4</ele>
        <time>2017-01-20T15:12:43Z</time>
      </trkpt>
      <trkpt lat="43.21807" lon="2.59681">
        <ele>72.1</ele>
        <time>2017-01-20T15:12:46Z</time>
      </trkpt>
      <trkpt lat="43.21807" lon="2.59681">
        <ele>72.2</ele>
        <time>2017-01-20T15:12:47Z</time>
      </trkpt>
      <trkpt lat="43.21807" lon="2.59681">
        <ele>72.4</ele>
        <time>2017-01-20T15:12:48Z</time>
      </trkpt>
      <trkpt lat="43.21807" lon="2.59681">
        <ele>72.5</ele>
        <time>2017-01-20T15:12:49Z</time>
      </trkpt>
      <trkpt lat="43.21807" lon="2.59681">
        <ele>72.5</ele>
        <time>2017-01-20T15:12:50Z</time>
      </trkpt>
      <trkpt lat="43.21807" lon="2.59681">
        <ele>72.6</ele>
        <time>2017-01-20T15:12:51Z</time>
      </trkpt>
      <trkpt lat="43.21807" lon="2.59681">
        <ele>72.6</ele>
        <time>2017-01-20T15:12:52Z</time>
      </trkpt>
      <trkpt lat="43.21807" lon="2.59681">
        <ele>72.6</ele>
        <time>2017-01-20T15:12:53Z</time>
      </trkpt>
      <trkpt lat="43.21807" lon="2.59681">
        <ele>72.7</ele>
        <time>2017-01-20T15:12:54Z</time>
      </trkpt>
      <trkpt lat="43.21807" lon="2.59681">
        <ele>72.7</ele>
        <time>2017-01-20T15:12:55Z</time>
      </trkpt>
      <trkpt lat="43.21807" lon="2.59681">
        <ele>72.7</ele>
        <time>2017-01-20T15:12:56Z</time>
      </trkpt>
      <trkpt lat="43.21802" lon="2.59679">
        <ele>72.7</ele>
        <time>2017-01-20T15:12:57Z</time>
      </trkpt>
      <trkpt lat="43.218" lon="2.59678">
        <ele>72.7</ele>
        <time>2017-01-20T15:12:58Z</time>
      </trkpt>
      <trkpt lat="43.21798" lon="2.59676">
        <ele>72.7</ele>
        <time>2017-01-20T15:12:59Z</time>
      </trkpt>
      <trkpt lat="43.21795" lon="2.59676">
        <ele>72.7</ele>
        <time>2017-01-20T15:13:00Z</time>
      </trkpt>
      <trkpt lat="43.21784" lon="2.59673">
        <ele>73.5</ele>
        <time>2017-01-20T15:13:05Z</time>
      </trkpt>
      <trkpt lat="43.21782" lon="2.59673">
        <ele>73.7</ele>
        <time>2017-01-20T15:13:06Z</time>
      </trkpt>
      <trkpt lat="43.2178" lon="2.59674">
        <ele>73.9</ele>
        <time>2017-01-20T15:13:07Z</time>
      </trkpt>
      <trkpt lat="43.21778" lon="2.59675">
        <ele>74.2</ele>
        <time>2017-01-20T15:13:08Z</time>
      </trkpt>
      <trkpt lat="43.21777" lon="2.59676">
        <ele>74.5</ele>
        <time>2017-01-20T15:13:09Z</time>
      </trkpt>
      <trkpt lat="43.21775" lon="2.59678">
        <ele>74.6</ele>
        <time>2017-01-20T15:13:10Z</time>
      </trkpt>
      <trkpt lat="43.21774" lon="2.5968">
        <ele>75</ele>
        <time>2017-01-20T15:13:11Z</time>
      </trkpt>
      <trkpt lat="43.21774" lon="2.59683">
        <ele>75.2</ele>
        <time>2017-01-20T15:13:12Z</time>
      </trkpt>
      <trkpt lat="43.21773" lon="2.59688">
        <ele>75.4</ele>
        <time>2017-01-20T15:13:14Z</time>
      </trkpt>
      <trkpt lat="43.21773" lon="2.59691">
        <ele>75.5</ele>
        <time>2017-01-20T15:13:17Z</time>
      </trkpt>
      <trkpt lat="43.21773" lon="2.59691">
        <ele>75.6</ele>
        <time>2017-01-20T15:13:18Z</time>
      </trkpt>
      <trkpt lat="43.21773" lon="2.59691">
        <ele>75.7</ele>
        <time>2017-01-20T15:13:19Z</time>
      </trkpt>
      <trkpt lat="43.21773" lon="2.59691">
        <ele>75.4</ele>
        <time>2017-01-20T15:13:20Z</time>
      </trkpt>
      <trkpt lat="43.21773" lon="2.59691">
        <ele>75.1</ele>
        <time>2017-01-20T15:13:21Z</time>
      </trkpt>
      <trkpt lat="43.21773" lon="2.59691">
        <ele>74.9</ele>
        <time>2017-01-20T15:13:22Z</time>
      </trkpt>
      <trkpt lat="43.21773" lon="2.59691">
        <ele>75.2</ele>
        <time>2017-01-20T15:13:23Z</time>
      </trkpt>
      <trkpt lat="43.21773" lon="2.59691">
        <ele>75.4</ele>
        <time>2017-01-20T15:13:24Z</time>
      </trkpt>
      <trkpt lat="43.21773" lon="2.59691">
        <ele>75.6</ele>
        <time>2017-01-20T15:13:25Z</time>
      </trkpt>
      <trkpt lat="43.21773" lon="2.59691">
        <ele>75.7</ele>
        <time>2017-01-20T15:13:26Z</time>
      </trkpt>
      <trkpt lat="43.21773" lon="2.59691">
        <ele>75.8</ele>
        <time>2017-01-20T15:13:27Z</time>
      </trkpt>
      <trkpt lat="43.21773" lon="2.59691">
        <ele>75.8</ele>
        <time>2017-01-20T15:13:28Z</time>
      </trkpt>
      <trkpt lat="43.21773" lon="2.59691">
        <ele>75.7</ele>
        <time>2017-01-20T15:13:29Z</time>
      </trkpt>
      <trkpt lat="43.21773" lon="2.59691">
        <ele>75.6</ele>
        <time>2017-01-20T15:13:30Z</time>
      </trkpt>
      <trkpt lat="43.21773" lon="2.59691">
        <ele>75.5</ele>
        <time>2017-01-20T15:13:31Z</time>
      </trkpt>
      <trkpt lat="43.21773" lon="2.59691">
        <ele>75.4</ele>
        <time>2017-01-20T15:13:32Z</time>
      </trkpt>
      <trkpt lat="43.21773" lon="2.59691">
        <ele>75.4</ele>
        <time>2017-01-20T15:13:33Z</time>
      </trkpt>
      <trkpt lat="43.21773" lon="2.59691">
        <ele>75.3</ele>
        <time>2017-01-20T15:13:34Z</time>
      </trkpt>
      <trkpt lat="43.21773" lon="2.59691">
        <ele>75.3</ele>
        <time>2017-01-20T15:13:35Z</time>
      </trkpt>
      <trkpt lat="43.21773" lon="2.59691">
        <ele>75.3</ele>
        <time>2017-01-20T15:13:36Z</time>
      </trkpt>
      <trkpt lat="43.21773" lon="2.59691">
        <ele>75.2</ele>
        <time>2017-01-20T15:13:37Z</time>
      </trkpt>
      <trkpt lat="43.21773" lon="2.59695">
        <ele>75</ele>
        <time>2017-01-20T15:13:38Z</time>
      </trkpt>
      <trkpt lat="43.21773" lon="2.59694">
        <ele>74.9</ele>
        <time>2017-01-20T15:13:39Z</time>
      </trkpt>
      <trkpt lat="43.21773" lon="2.59691">
        <ele>74.7</ele>
        <time>2017-01-20T15:13:40Z</time>
      </trkpt>
      <trkpt lat="43.21773" lon="2.5968">
        <ele>75.5</ele>
        <time>2017-01-20T15:13:43Z</time>
      </trkpt>
      <trkpt lat="43.21771" lon="2.59677">
        <ele>75.6</ele>
        <time>2017-01-20T15:13:44Z</time>
      </trkpt>
      <trkpt lat="43.21765" lon="2.59675">
        <ele>75.8</ele>
        <time>2017-01-20T15:13:46Z</time>
      </trkpt>
      <trkpt lat="43.21762" lon="2.59676">
        <ele>75.9</ele>
        <time>2017-01-20T15:13:47Z</time>
      </trkpt>
      <trkpt lat="43.21756" lon="2.59675">
        <ele>75.9</ele>
        <time>2017-01-20T15:13:49Z</time>
      </trkpt>
      <trkpt lat="43.21708" lon="2.59668">
        <ele>76</ele>
        <time>2017-01-20T15:14:05Z</time>
      </trkpt>
      <trkpt lat="43.21706" lon="2.59669">
        <ele>76</ele>
        <time>2017-01-20T15:14:06Z</time>
      </trkpt>
      <trkpt lat="43.21704" lon="2.5967">
        <ele>76</ele>
        <time>2017-01-20T15:14:07Z</time>
      </trkpt>
      <trkpt lat="43.21704" lon="2.5967">
        <ele>76.2</ele>
        <time>2017-01-20T15:14:08Z</time>
      </trkpt>
      <trkpt lat="43.21704" lon="2.5967">
        <ele>76.4</ele>
        <time>2017-01-20T15:14:09Z</time>
      </trkpt>
      <trkpt lat="43.21704" lon="2.5967">
        <ele>76.5</ele>
        <time>2017-01-20T15:14:10Z</time>
      </trkpt>
      <trkpt lat="43.21704" lon="2.5967">
        <ele>76.6</ele>
        <time>2017-01-20T15:14:11Z</time>
      </trkpt>
      <trkpt lat="43.21704" lon="2.5967">
        <ele>76.7</ele>
        <time>2017-01-20T15:14:12Z</time>
      </trkpt>
      <trkpt lat="43.21704" lon="2.5967">
        <ele>76.7</ele>
        <time>2017-01-20T15:14:13Z</time>
      </trkpt>
      <trkpt lat="43.21704" lon="2.5967">
        <ele>76.7</ele>
        <time>2017-01-20T15:14:14Z</time>
      </trkpt>
      <trkpt lat="43.21704" lon="2.5967">
        <ele>76.8</ele>
        <time>2017-01-20T15:14:15Z</time>
      </trkpt>
      <trkpt lat="43.21704" lon="2.5967">
        <ele>76.8</ele>
        <time>2017-01-20T15:14:16Z</time>
      </trkpt>
      <trkpt lat="43.21704" lon="2.5967">
        <ele>77</ele>
        <time>2017-01-20T15:14:17Z</time>
      </trkpt>
      <trkpt lat="43.21704" lon="2.5967">
        <ele>77.2</ele>
        <time>2017-01-20T15:14:18Z</time>
      </trkpt>
      <trkpt lat="43.21704" lon="2.5967">
        <ele>77.3</ele>
        <time>2017-01-20T15:14:19Z</time>
      </trkpt>
      <trkpt lat="43.21701" lon="2.59667">
        <ele>76.8</ele>
        <time>2017-01-20T15:14:20Z</time>
      </trkpt>
      <trkpt lat="43.21701" lon="2.59666">
        <ele>76.4</ele>
        <time>2017-01-20T15:14:21Z</time>
      </trkpt>
      <trkpt lat="43.21698" lon="2.59662">
        <ele>75.9</ele>
        <time>2017-01-20T15:14:23Z</time>
      </trkpt>
      <trkpt lat="43.21695" lon="2.59662">
        <ele>75.7</ele>
        <time>2017-01-20T15:14:24Z</time>
      </trkpt>
      <trkpt lat="43.21664" lon="2.59652">
        <ele>76.5</ele>
        <time>2017-01-20T15:14:33Z</time>
      </trkpt>
      <trkpt lat="43.21646" lon="2.59642">
        <ele>77.2</ele>
        <time>2017-01-20T15:14:39Z</time>
      </trkpt>
      <trkpt lat="43.21638" lon="2.59635">
        <ele>76.6</ele>
        <time>2017-01-20T15:14:43Z</time>
      </trkpt>
      <trkpt lat="43.21638" lon="2.59635">
        <ele>76.6</ele>
        <time>2017-01-20T15:14:44Z</time>
      </trkpt>
      <trkpt lat="43.21638" lon="2.59635">
        <ele>76.7</ele>
        <time>2017-01-20T15:14:45Z</time>
      </trkpt>
      <trkpt lat="43.21638" lon="2.59635">
        <ele>76.7</ele>
        <time>2017-01-20T15:14:46Z</time>
      </trkpt>
      <trkpt lat="43.21638" lon="2.59635">
        <ele>76.6</ele>
        <time>2017-01-20T15:14:47Z</time>
      </trkpt>
      <trkpt lat="43.21638" lon="2.59635">
        <ele>76.4</ele>
        <time>2017-01-20T15:14:48Z</time>
      </trkpt>
      <trkpt lat="43.21638" lon="2.59635">
        <ele>76.3</ele>
        <time>2017-01-20T15:14:49Z</time>
      </trkpt>
      <trkpt lat="43.21638" lon="2.59635">
        <ele>76</ele>
        <time>2017-01-20T15:14:50Z</time>
      </trkpt>
      <trkpt lat="43.21636" lon="2.59633">
        <ele>75.8</ele>
        <time>2017-01-20T15:14:51Z</time>
      </trkpt>
      <trkpt lat="43.21634" lon="2.59631">
        <ele>75.7</ele>
        <time>2017-01-20T15:14:52Z</time>
      </trkpt>
      <trkpt lat="43.21631" lon="2.59626">
        <ele>75.8</ele>
        <time>2017-01-20T15:14:54Z</time>
      </trkpt>
      <trkpt lat="43.21628" lon="2.59623">
        <ele>75.9</ele>
        <time>2017-01-20T15:14:55Z</time>
      </trkpt>
      <trkpt lat="43.21619" lon="2.59612">
        <ele>76.6</ele>
        <time>2017-01-20T15:15:00Z</time>
      </trkpt>
      <trkpt lat="43.21588" lon="2.59572">
        <ele>75.9</ele>
        <time>2017-01-20T15:15:14Z</time>
      </trkpt>
      <trkpt lat="43.21588" lon="2.59572">
        <ele>75.7</ele>
        <time>2017-01-20T15:15:15Z</time>
      </trkpt>
      <trkpt lat="43.21588" lon="2.59572">
        <ele>75.6</ele>
        <time>2017-01-20T15:15:16Z</time>
      </trkpt>
      <trkpt lat="43.21588" lon="2.59572">
        <ele>75.5</ele>
        <time>2017-01-20T15:15:17Z</time>
      </trkpt>
      <trkpt lat="43.21588" lon="2.59572">
        <ele>75.4</ele>
        <time>2017-01-20T15:15:18Z</time>
      </trkpt>
      <trkpt lat="43.21588" lon="2.59572">
        <ele>75.4</ele>
        <time>2017-01-20T15:15:19Z</time>
      </trkpt>
      <trkpt lat="43.21588" lon="2.59572">
        <ele>75.7</ele>
        <time>2017-01-20T15:15:20Z</time>
      </trkpt>
      <trkpt lat="43.21588" lon="2.59572">
        <ele>76</ele>
        <time>2017-01-20T15:15:21Z</time>
      </trkpt>
      <trkpt lat="43.21585" lon="2.59566">
        <ele>76.2</ele>
        <time>2017-01-20T15:15:22Z</time>
      </trkpt>
      <trkpt lat="43.21583" lon="2.59564">
        <ele>76.4</ele>
        <time>2017-01-20T15:15:23Z</time>
      </trkpt>
      <trkpt lat="43.21532" lon="2.59493">
        <ele>77.1</ele>
        <time>2017-01-20T15:15:41Z</time>
      </trkpt>
      <trkpt lat="43.21392" lon="2.59321">
        <ele>76.8</ele>
        <time>2017-01-20T15:16:19Z</time>
      </trkpt>
      <trkpt lat="43.21389" lon="2.59316">
        <ele>77</ele>
        <time>2017-01-20T15:16:20Z</time>
      </trkpt>
      <trkpt lat="43.2136" lon="2.59267">
        <ele>76.4</ele>
        <time>2017-01-20T15:16:30Z</time>
      </trkpt>
      <trkpt lat="43.2136" lon="2.59267">
        <ele>76.1</ele>
        <time>2017-01-20T15:16:31Z</time>
      </trkpt>
      <trkpt lat="43.2136" lon="2.59267">
        <ele>75.9</ele>
        <time>2017-01-20T15:16:32Z</time>
      </trkpt>
      <trkpt lat="43.2136" lon="2.59267">
        <ele>75.7</ele>
        <time>2017-01-20T15:16:33Z</time>
      </trkpt>
      <trkpt lat="43.2136" lon="2.59267">
        <ele>75.8</ele>
        <time>2017-01-20T15:16:34Z</time>
      </trkpt>
      <trkpt lat="43.2136" lon="2.59267">
        <ele>75.9</ele>
        <time>2017-01-20T15:16:35Z</time>
      </trkpt>
      <trkpt lat="43.2136" lon="2.59267">
        <ele>75.9</ele>
        <time>2017-01-20T15:16:36Z</time>
      </trkpt>
      <trkpt lat="43.2136" lon="2.59267">
        <ele>75.9</ele>
        <time>2017-01-20T15:16:37Z</time>
      </trkpt>
      <trkpt lat="43.2136" lon="2.59267">
        <ele>76</ele>
        <time>2017-01-20T15:16:38Z</time>
      </trkpt>
      <trkpt lat="43.2136" lon="2.59267">
        <ele>76</ele>
        <time>2017-01-20T15:16:39Z</time>
      </trkpt>
      <trkpt lat="43.21358" lon="2.59262">
        <ele>76.2</ele>
        <time>2017-01-20T15:16:40Z</time>
      </trkpt>
      <trkpt lat="43.21356" lon="2.59261">
        <ele>76.4</ele>
        <time>2017-01-20T15:16:41Z</time>
      </trkpt>
      <trkpt lat="43.21354" lon="2.59258">
        <ele>76.5</ele>
        <time>2017-01-20T15:16:42Z</time>
      </trkpt>
      <trkpt lat="43.2135" lon="2.5925">
        <ele>76.6</ele>
        <time>2017-01-20T15:16:44Z</time>
      </trkpt>
      <trkpt lat="43.21221" lon="2.58985">
        <ele>76</ele>
        <time>2017-01-20T15:17:32Z</time>
      </trkpt>
      <trkpt lat="43.21218" lon="2.58979">
        <ele>75.8</ele>
        <time>2017-01-20T15:17:33Z</time>
      </trkpt>
      <trkpt lat="43.21194" lon="2.58892">
        <ele>76.6</ele>
        <time>2017-01-20T15:17:48Z</time>
      </trkpt>
      <trkpt lat="43.21185" lon="2.58837">
        <ele>75.7</ele>
        <time>2017-01-20T15:17:57Z</time>
      </trkpt>
      <trkpt lat="43.21183" lon="2.58809">
        <ele>75.9</ele>
        <time>2017-01-20T15:18:02Z</time>
      </trkpt>
      <trkpt lat="43.21183" lon="2.58809">
        <ele>75.7</ele>
        <time>2017-01-20T15:18:03Z</time>
      </trkpt>
      <trkpt lat="43.21183" lon="2.58809">
        <ele>75.4</ele>
        <time>2017-01-20T15:18:04Z</time>
      </trkpt>
      <trkpt lat="43.21183" lon="2.58809">
        <ele>75.1</ele>
        <time>2017-01-20T15:18:05Z</time>
      </trkpt>
      <trkpt lat="43.21183" lon="2.58809">
        <ele>74.9</ele>
        <time>2017-01-20T15:18:06Z</time>
      </trkpt>
      <trkpt lat="43.21183" lon="2.58809">
        <ele>75</ele>
        <time>2017-01-20T15:18:07Z</time>
      </trkpt>
      <trkpt lat="43.21183" lon="2.58809">
        <ele>75</ele>
        <time>2017-01-20T15:18:08Z</time>
      </trkpt>
      <trkpt lat="43.21183" lon="2.58809">
        <ele>75.1</ele>
        <time>2017-01-20T15:18:09Z</time>
      </trkpt>
      <trkpt lat="43.21183" lon="2.58809">
        <ele>75.3</ele>
        <time>2017-01-20T15:18:10Z</time>
      </trkpt>
      <trkpt lat="43.21183" lon="2.58809">
        <ele>75.5</ele>
        <time>2017-01-20T15:18:11Z</time>
      </trkpt>
      <trkpt lat="43.21183" lon="2.58809">
        <ele>75.6</ele>
        <time>2017-01-20T15:18:12Z</time>
      </trkpt>
      <trkpt lat="43.21183" lon="2.58809">
        <ele>75.5</ele>
        <time>2017-01-20T15:18:13Z</time>
      </trkpt>
      <trkpt lat="43.21183" lon="2.58809">
        <ele>75.4</ele>
        <time>2017-01-20T15:18:14Z</time>
      </trkpt>
      <trkpt lat="43.21181" lon="2.58797">
        <ele>75.4</ele>
        <time>2017-01-20T15:18:15Z</time>
      </trkpt>
      <trkpt lat="43.21181" lon="2.58797">
        <ele>75.3</ele>
        <time>2017-01-20T15:18:17Z</time>
      </trkpt>
      <trkpt lat="43.2118" lon="2.58783">
        <ele>75.3</ele>
        <time>2017-01-20T15:18:18Z</time>
      </trkpt>
      <trkpt lat="43.2118" lon="2.58783">
        <ele>75.3</ele>
        <time>2017-01-20T15:18:19Z</time>
      </trkpt>
      <trkpt lat="43.2118" lon="2.58783">
        <ele>75.2</ele>
        <time>2017-01-20T15:18:20Z</time>
      </trkpt>
      <trkpt lat="43.21179" lon="2.58769">
        <ele>75.2</ele>
        <time>2017-01-20T15:18:21Z</time>
      </trkpt>
      <trkpt lat="43.21178" lon="2.58765">
        <ele>75.2</ele>
        <time>2017-01-20T15:18:22Z</time>
      </trkpt>
      <trkpt lat="43.21169" lon="2.58702">
        <ele>76</ele>
        <time>2017-01-20T15:18:35Z</time>
      </trkpt>
      <trkpt lat="43.21168" lon="2.58698">
        <ele>76.2</ele>
        <time>2017-01-20T15:18:36Z</time>
      </trkpt>
      <trkpt lat="43.21163" lon="2.58676">
        <ele>75.4</ele>
        <time>2017-01-20T15:18:44Z</time>
      </trkpt>
      <trkpt lat="43.21163" lon="2.58676">
        <ele>75.4</ele>
        <time>2017-01-20T15:18:45Z</time>
      </trkpt>
      <trkpt lat="43.21163" lon="2.58676">
        <ele>75.5</ele>
        <time>2017-01-20T15:18:46Z</time>
      </trkpt>
      <trkpt lat="43.21163" lon="2.58676">
        <ele>75.7</ele>
        <time>2017-01-20T15:18:47Z</time>
      </trkpt>
      <trkpt lat="43.21163" lon="2.58676">
        <ele>75.7</ele>
        <time>2017-01-20T15:18:48Z</time>
      </trkpt>
      <trkpt lat="43.21161" lon="2.58666">
        <ele>75.6</ele>
        <time>2017-01-20T15:18:49Z</time>
      </trkpt>
      <trkpt lat="43.21161" lon="2.58666">
        <ele>75.5</ele>
        <time>2017-01-20T15:18:50Z</time>
      </trkpt>
      <trkpt lat="43.21161" lon="2.58666">
        <ele>75.4</ele>
        <time>2017-01-20T15:18:51Z</time>
      </trkpt>
      <trkpt lat="43.21161" lon="2.58666">
        <ele>75.4</ele>
        <time>2017-01-20T15:18:52Z</time>
      </trkpt>
      <trkpt lat="43.21161" lon="2.58666">
        <ele>75.3</ele>
        <time>2017-01-20T15:18:53Z</time>
      </trkpt>
      <trkpt lat="43.21161" lon="2.58666">
        <ele>75.3</ele>
        <time>2017-01-20T15:18:54Z</time>
      </trkpt>
      <trkpt lat="43.21161" lon="2.58666">
        <ele>75.5</ele>
        <time>2017-01-20T15:18:55Z</time>
      </trkpt>
      <trkpt lat="43.21161" lon="2.58666">
        <ele>75.6</ele>
        <time>2017-01-20T15:18:56Z</time>
      </trkpt>
      <trkpt lat="43.21161" lon="2.58666">
        <ele>75.7</ele>
        <time>2017-01-20T15:18:57Z</time>
      </trkpt>
      <trkpt lat="43.21161" lon="2.58666">
        <ele>75.8</ele>
        <time>2017-01-20T15:18:58Z</time>
      </trkpt>
      <trkpt lat="43.21156" lon="2.5865">
        <ele>75.9</ele>
        <time>2017-01-20T15:18:59Z</time>
      </trkpt>
      <trkpt lat="43.21149" lon="2.58624">
        <ele>76</ele>
        <time>2017-01-20T15:19:05Z</time>
      </trkpt>
      <trkpt lat="43.2114" lon="2.58597">
        <ele>76.7</ele>
        <time>2017-01-20T15:19:14Z</time>
      </trkpt>
      <trkpt lat="43.2114" lon="2.58597">
        <ele>76.7</ele>
        <time>2017-01-20T15:19:15Z</time>
      </trkpt>
      <trkpt lat="43.21136" lon="2.5859">
        <ele>77.2</ele>
        <time>2017-01-20T15:19:16Z</time>
      </trkpt>
      <trkpt lat="43.21133" lon="2.58582">
        <ele>77.7</ele>
        <time>2017-01-20T15:19:21Z</time>
      </trkpt>
      <trkpt lat="43.21123" lon="2.58564">
        <ele>78.7</ele>
        <time>2017-01-20T15:19:24Z</time>
      </trkpt>
      <trkpt lat="43.21121" lon="2.5856">
        <ele>79.2</ele>
        <time>2017-01-20T15:19:25Z</time>
      </trkpt>
      <trkpt lat="43.21121" lon="2.5856">
        <ele>79.7</ele>
        <time>2017-01-20T15:19:26Z</time>
      </trkpt>
      <trkpt lat="43.21121" lon="2.5856">
        <ele>80</ele>
        <time>2017-01-20T15:19:27Z</time>
      </trkpt>
      <trkpt lat="43.21121" lon="2.5856">
        <ele>80.1</ele>
        <time>2017-01-20T15:19:28Z</time>
      </trkpt>
      <trkpt lat="43.21121" lon="2.5856">
        <ele>80.1</ele>
        <time>2017-01-20T15:19:29Z</time>
      </trkpt>
      <trkpt lat="43.21121" lon="2.5856">
        <ele>80.1</ele>
        <time>2017-01-20T15:19:30Z</time>
      </trkpt>
      <trkpt lat="43.21121" lon="2.5856">
        <ele>80.3</ele>
        <time>2017-01-20T15:19:31Z</time>
      </trkpt>
      <trkpt lat="43.21121" lon="2.5856">
        <ele>80.5</ele>
        <time>2017-01-20T15:19:32Z</time>
      </trkpt>
      <trkpt lat="43.21121" lon="2.5856">
        <ele>80.6</ele>
        <time>2017-01-20T15:19:33Z</time>
      </trkpt>
      <trkpt lat="43.21121" lon="2.5856">
        <ele>80.5</ele>
        <time>2017-01-20T15:19:34Z</time>
      </trkpt>
      <trkpt lat="43.21121" lon="2.5856">
        <ele>80.4</ele>
        <time>2017-01-20T15:19:35Z</time>
      </trkpt>
      <trkpt lat="43.21121" lon="2.5856">
        <ele>80.4</ele>
        <time>2017-01-20T15:19:36Z</time>
      </trkpt>
      <trkpt lat="43.21121" lon="2.5856">
        <ele>80.5</ele>
        <time>2017-01-20T15:19:37Z</time>
      </trkpt>
      <trkpt lat="43.21121" lon="2.5856">
        <ele>80.6</ele>
        <time>2017-01-20T15:19:38Z</time>
      </trkpt>
      <trkpt lat="43.21121" lon="2.5856">
        <ele>80.7</ele>
        <time>2017-01-20T15:19:39Z</time>
      </trkpt>
      <trkpt lat="43.21118" lon="2.58556">
        <ele>80.6</ele>
        <time>2017-01-20T15:19:40Z</time>
      </trkpt>
      <trkpt lat="43.21118" lon="2.58556">
        <ele>80.5</ele>
        <time>2017-01-20T15:19:41Z</time>
      </trkpt>
      <trkpt lat="43.21118" lon="2.58556">
        <ele>80.4</ele>
        <time>2017-01-20T15:19:42Z</time>
      </trkpt>
      <trkpt lat="43.21118" lon="2.58556">
        <ele>80.4</ele>
        <time>2017-01-20T15:19:43Z</time>
      </trkpt>
      <trkpt lat="43.21118" lon="2.58556">
        <ele>80.3</ele>
        <time>2017-01-20T15:19:44Z</time>
      </trkpt>
      <trkpt lat="43.21118" lon="2.58556">
        <ele>80.3</ele>
        <time>2017-01-20T15:19:45Z</time>
      </trkpt>
      <trkpt lat="43.21116" lon="2.58547">
        <ele>80.5</ele>
        <time>2017-01-20T15:19:46Z</time>
      </trkpt>
      <trkpt lat="43.21109" lon="2.58524">
        <ele>81.5</ele>
        <time>2017-01-20T15:19:52Z</time>
      </trkpt>
      <trkpt lat="43.21101" lon="2.58504">
        <ele>82.3</ele>
        <time>2017-01-20T15:19:58Z</time>
      </trkpt>
      <trkpt lat="43.21099" lon="2.58498">
        <ele>82.5</ele>
        <time>2017-01-20T15:20:01Z</time>
      </trkpt>
      <trkpt lat="43.21098" lon="2.58489">
        <ele>82.6</ele>
        <time>2017-01-20T15:20:03Z</time>
      </trkpt>
      <trkpt lat="43.21098" lon="2.58489">
        <ele>83</ele>
        <time>2017-01-20T15:20:04Z</time>
      </trkpt>
      <trkpt lat="43.21099" lon="2.58482">
        <ele>83.3</ele>
        <time>2017-01-20T15:20:05Z</time>
      </trkpt>
      <trkpt lat="43.21099" lon="2.58482">
        <ele>83.6</ele>
        <time>2017-01-20T15:20:06Z</time>
      </trkpt>
      <trkpt lat="43.211" lon="2.58476">
        <ele>83.6</ele>
        <time>2017-01-20T15:20:07Z</time>
      </trkpt>
      <trkpt lat="43.211" lon="2.58473">
        <ele>83.5</ele>
        <time>2017-01-20T15:20:08Z</time>
      </trkpt>
      <trkpt lat="43.21098" lon="2.58462">
        <ele>84.2</ele>
        <time>2017-01-20T15:20:11Z</time>
      </trkpt>
      <trkpt lat="43.21096" lon="2.58454">
        <ele>84</ele>
        <time>2017-01-20T15:20:13Z</time>
      </trkpt>
      <trkpt lat="43.2109" lon="2.58438">
        <ele>84.2</ele>
        <time>2017-01-20T15:20:17Z</time>
      </trkpt>
      <trkpt lat="43.21087" lon="2.58434">
        <ele>84.4</ele>
        <time>2017-01-20T15:20:18Z</time>
      </trkpt>
      <trkpt lat="43.21079" lon="2.58421">
        <ele>84.1</ele>
        <time>2017-01-20T15:20:22Z</time>
      </trkpt>
      <trkpt lat="43.21078" lon="2.58418">
        <ele>84</ele>
        <time>2017-01-20T15:20:23Z</time>
      </trkpt>
      <trkpt lat="43.21076" lon="2.5841">
        <ele>84.1</ele>
        <time>2017-01-20T15:20:26Z</time>
      </trkpt>
      <trkpt lat="43.21076" lon="2.5841">
        <ele>84.1</ele>
        <time>2017-01-20T15:20:27Z</time>
      </trkpt>
      <trkpt lat="43.21076" lon="2.5841">
        <ele>84.2</ele>
        <time>2017-01-20T15:20:28Z</time>
      </trkpt>
      <trkpt lat="43.21076" lon="2.5841">
        <ele>84.2</ele>
        <time>2017-01-20T15:20:29Z</time>
      </trkpt>
      <trkpt lat="43.21076" lon="2.5841">
        <ele>84.2</ele>
        <time>2017-01-20T15:20:30Z</time>
      </trkpt>
      <trkpt lat="43.21076" lon="2.5841">
        <ele>84.1</ele>
        <time>2017-01-20T15:20:31Z</time>
      </trkpt>
      <trkpt lat="43.21076" lon="2.5841">
        <ele>83.9</ele>
        <time>2017-01-20T15:20:32Z</time>
      </trkpt>
      <trkpt lat="43.21076" lon="2.5841">
        <ele>83.8</ele>
        <time>2017-01-20T15:20:33Z</time>
      </trkpt>
      <trkpt lat="43.21076" lon="2.5841">
        <ele>83.9</ele>
        <time>2017-01-20T15:20:34Z</time>
      </trkpt>
      <trkpt lat="43.21076" lon="2.5841">
        <ele>84</ele>
        <time>2017-01-20T15:20:35Z</time>
      </trkpt>
      <trkpt lat="43.21076" lon="2.5841">
        <ele>84.1</ele>
        <time>2017-01-20T15:20:36Z</time>
      </trkpt>
      <trkpt lat="43.21076" lon="2.5841">
        <ele>84.2</ele>
        <time>2017-01-20T15:20:37Z</time>
      </trkpt>
      <trkpt lat="43.21076" lon="2.5841">
        <ele>84.2</ele>
        <time>2017-01-20T15:20:38Z</time>
      </trkpt>
      <trkpt lat="43.21076" lon="2.5841">
        <ele>84.2</ele>
        <time>2017-01-20T15:20:39Z</time>
      </trkpt>
      <trkpt lat="43.21076" lon="2.5841">
        <ele>84.3</ele>
        <time>2017-01-20T15:20:40Z</time>
      </trkpt>
      <trkpt lat="43.21076" lon="2.5841">
        <ele>84.3</ele>
        <time>2017-01-20T15:20:41Z</time>
      </trkpt>
      <trkpt lat="43.21076" lon="2.5841">
        <ele>84.3</ele>
        <time>2017-01-20T15:20:42Z</time>
      </trkpt>
      <trkpt lat="43.21075" lon="2.58407">
        <ele>84.5</ele>
        <time>2017-01-20T15:20:43Z</time>
      </trkpt>
      <trkpt lat="43.21057" lon="2.5833">
        <ele>85</ele>
        <time>2017-01-20T15:21:01Z</time>
      </trkpt>
      <trkpt lat="43.21057" lon="2.5833">
        <ele>84.7</ele>
        <time>2017-01-20T15:21:04Z</time>
      </trkpt>
      <trkpt lat="43.21057" lon="2.5833">
        <ele>84.4</ele>
        <time>2017-01-20T15:21:05Z</time>
      </trkpt>
      <trkpt lat="43.21057" lon="2.5833">
        <ele>84.2</ele>
        <time>2017-01-20T15:21:06Z</time>
      </trkpt>
      <trkpt lat="43.21057" lon="2.5833">
        <ele>84.2</ele>
        <time>2017-01-20T15:21:07Z</time>
      </trkpt>
      <trkpt lat="43.21057" lon="2.5833">
        <ele>84.2</ele>
        <time>2017-01-20T15:21:08Z</time>
      </trkpt>
      <trkpt lat="43.21056" lon="2.58325">
        <ele>84.3</ele>
        <time>2017-01-20T15:21:09Z</time>
      </trkpt>
      <trkpt lat="43.21022" lon="2.58135">
        <ele>84.7</ele>
        <time>2017-01-20T15:21:50Z</time>
      </trkpt>
      <trkpt lat="43.21022" lon="2.58135">
        <ele>84.6</ele>
        <time>2017-01-20T15:21:51Z</time>
      </trkpt>
      <trkpt lat="43.21022" lon="2.58135">
        <ele>84.3</ele>
        <time>2017-01-20T15:21:52Z</time>
      </trkpt>
      <trkpt lat="43.21022" lon="2.58135">
        <ele>84.1</ele>
        <time>2017-01-20T15:21:53Z</time>
      </trkpt>
      <trkpt lat="43.21022" lon="2.58135">
        <ele>84</ele>
        <time>2017-01-20T15:21:54Z</time>
      </trkpt>
      <trkpt lat="43.21022" lon="2.58135">
        <ele>83.8</ele>
        <time>2017-01-20T15:21:55Z</time>
      </trkpt>
      <trkpt lat="43.21022" lon="2.58135">
        <ele>83.8</ele>
        <time>2017-01-20T15:21:56Z</time>
      </trkpt>
      <trkpt lat="43.21022" lon="2.58135">
        <ele>83.7</ele>
        <time>2017-01-20T15:21:57Z</time>
      </trkpt>
      <trkpt lat="43.21022" lon="2.58135">
        <ele>83.9</ele>
        <time>2017-01-20T15:21:58Z</time>
      </trkpt>
      <trkpt lat="43.21022" lon="2.58132">
        <ele>84</ele>
        <time>2017-01-20T15:21:59Z</time>
      </trkpt>
      <trkpt lat="43.20979" lon="2.57981">
        <ele>84.4</ele>
        <time>2017-01-20T15:22:32Z</time>
      </trkpt>
      <trkpt lat="43.20977" lon="2.57976">
        <ele>84.6</ele>
        <time>2017-01-20T15:22:34Z</time>
      </trkpt>
      <trkpt lat="43.20965" lon="2.57946">
        <ele>84.5</ele>
        <time>2017-01-20T15:22:44Z</time>
      </trkpt>
      <trkpt lat="43.20965" lon="2.57944">
        <ele>84.4</ele>
        <time>2017-01-20T15:22:45Z</time>
      </trkpt>
      <trkpt lat="43.20965" lon="2.57944">
        <ele>84.9</ele>
        <time>2017-01-20T15:22:48Z</time>
      </trkpt>
      <trkpt lat="43.20965" lon="2.57944">
        <ele>84.7</ele>
        <time>2017-01-20T15:22:49Z</time>
      </trkpt>
      <trkpt lat="43.20965" lon="2.57944">
        <ele>84.6</ele>
        <time>2017-01-20T15:22:50Z</time>
      </trkpt>
      <trkpt lat="43.20965" lon="2.57944">
        <ele>84.5</ele>
        <time>2017-01-20T15:22:51Z</time>
      </trkpt>
      <trkpt lat="43.20965" lon="2.57944">
        <ele>84.7</ele>
        <time>2017-01-20T15:22:52Z</time>
      </trkpt>
      <trkpt lat="43.20965" lon="2.57944">
        <ele>84.8</ele>
        <time>2017-01-20T15:22:53Z</time>
      </trkpt>
      <trkpt lat="43.20965" lon="2.57944">
        <ele>84.9</ele>
        <time>2017-01-20T15:22:54Z</time>
      </trkpt>
      <trkpt lat="43.20965" lon="2.57944">
        <ele>85</ele>
        <time>2017-01-20T15:22:55Z</time>
      </trkpt>
      <trkpt lat="43.20965" lon="2.57944">
        <ele>85</ele>
        <time>2017-01-20T15:22:56Z</time>
      </trkpt>
      <trkpt lat="43.20963" lon="2.57938">
        <ele>85</ele>
        <time>2017-01-20T15:22:57Z</time>
      </trkpt>
      <trkpt lat="43.20963" lon="2.57934">
        <ele>84.7</ele>
        <time>2017-01-20T15:22:58Z</time>
      </trkpt>
      <trkpt lat="43.20962" lon="2.57908">
        <ele>84.7</ele>
        <time>2017-01-20T15:23:03Z</time>
      </trkpt>
      <trkpt lat="43.20962" lon="2.57794">
        <ele>84.9</ele>
        <time>2017-01-20T15:23:24Z</time>
      </trkpt>
      <trkpt lat="43.20962" lon="2.57794">
        <ele>84.6</ele>
        <time>2017-01-20T15:23:25Z</time>
      </trkpt>
      <trkpt lat="43.20962" lon="2.57794">
        <ele>84.3</ele>
        <time>2017-01-20T15:23:26Z</time>
      </trkpt>
      <trkpt lat="43.20962" lon="2.57794">
        <ele>84.1</ele>
        <time>2017-01-20T15:23:27Z</time>
      </trkpt>
      <trkpt lat="43.20962" lon="2.57794">
        <ele>84</ele>
        <time>2017-01-20T15:23:28Z</time>
      </trkpt>
      <trkpt lat="43.20962" lon="2.57794">
        <ele>83.8</ele>
        <time>2017-01-20T15:23:29Z</time>
      </trkpt>
      <trkpt lat="43.20962" lon="2.57794">
        <ele>83.8</ele>
        <time>2017-01-20T15:23:30Z</time>
      </trkpt>
      <trkpt lat="43.20962" lon="2.57794">
        <ele>83.5</ele>
        <time>2017-01-20T15:23:31Z</time>
      </trkpt>
      <trkpt lat="43.20962" lon="2.57794">
        <ele>83.3</ele>
        <time>2017-01-20T15:23:32Z</time>
      </trkpt>
      <trkpt lat="43.20962" lon="2.57794">
        <ele>83.1</ele>
        <time>2017-01-20T15:23:33Z</time>
      </trkpt>
      <trkpt lat="43.20962" lon="2.57794">
        <ele>83.6</ele>
        <time>2017-01-20T15:23:34Z</time>
      </trkpt>
      <trkpt lat="43.20961" lon="2.5779">
        <ele>84</ele>
        <time>2017-01-20T15:23:35Z</time>
      </trkpt>
      <trkpt lat="43.20939" lon="2.57721">
        <ele>85.1</ele>
        <time>2017-01-20T15:23:51Z</time>
      </trkpt>
      <trkpt lat="43.20937" lon="2.57717">
        <ele>84.9</ele>
        <time>2017-01-20T15:23:52Z</time>
      </trkpt>
      <trkpt lat="43.20935" lon="2.57712">
        <ele>84.7</ele>
        <time>2017-01-20T15:23:53Z</time>
      </trkpt>
      <trkpt lat="43.20928" lon="2.57705">
        <ele>84.8</ele>
        <time>2017-01-20T15:23:55Z</time>
      </trkpt>
      <trkpt lat="43.20926" lon="2.577">
        <ele>84.9</ele>
        <time>2017-01-20T15:23:56Z</time>
      </trkpt>
      <trkpt lat="43.20865" lon="2.57551">
        <ele>85.6</ele>
        <time>2017-01-20T15:24:27Z</time>
      </trkpt>
      <trkpt lat="43.20836" lon="2.57486">
        <ele>84.5</ele>
        <time>2017-01-20T15:24:44Z</time>
      </trkpt>
      <trkpt lat="43.20835" lon="2.57483">
        <ele>84.2</ele>
        <time>2017-01-20T15:24:46Z</time>
      </trkpt>
      <trkpt lat="43.20835" lon="2.57483">
        <ele>84.3</ele>
        <time>2017-01-20T15:24:53Z</time>
      </trkpt>
      <trkpt lat="43.20835" lon="2.57483">
        <ele>84.5</ele>
        <time>2017-01-20T15:24:54Z</time>
      </trkpt>
      <trkpt lat="43.20835" lon="2.57483">
        <ele>84.7</ele>
        <time>2017-01-20T15:24:55Z</time>
      </trkpt>
      <trkpt lat="43.20835" lon="2.57483">
        <ele>84.8</ele>
        <time>2017-01-20T15:24:56Z</time>
      </trkpt>
      <trkpt lat="43.20832" lon="2.57476">
        <ele>84.9</ele>
        <time>2017-01-20T15:24:57Z</time>
      </trkpt>
      <trkpt lat="43.20827" lon="2.57465">
        <ele>85</ele>
        <time>2017-01-20T15:24:59Z</time>
      </trkpt>
      <trkpt lat="43.20809" lon="2.57424">
        <ele>84.8</ele>
        <time>2017-01-20T15:25:08Z</time>
      </trkpt>
      <trkpt lat="43.20807" lon="2.5742">
        <ele>84.9</ele>
        <time>2017-01-20T15:25:09Z</time>
      </trkpt>
      <trkpt lat="43.20795" lon="2.57402">
        <ele>84.9</ele>
        <time>2017-01-20T15:25:14Z</time>
      </trkpt>
      <trkpt lat="43.20792" lon="2.57399">
        <ele>85.2</ele>
        <time>2017-01-20T15:25:15Z</time>
      </trkpt>
      <trkpt lat="43.20763" lon="2.57359">
        <ele>85.2</ele>
        <time>2017-01-20T15:25:25Z</time>
      </trkpt>
      <trkpt lat="43.20761" lon="2.57352">
        <ele>85.2</ele>
        <time>2017-01-20T15:25:26Z</time>
      </trkpt>
      <trkpt lat="43.20759" lon="2.57347">
        <ele>84.5</ele>
        <time>2017-01-20T15:25:33Z</time>
      </trkpt>
      <trkpt lat="43.20759" lon="2.57347">
        <ele>84.2</ele>
        <time>2017-01-20T15:25:34Z</time>
      </trkpt>
      <trkpt lat="43.20759" lon="2.57347">
        <ele>84</ele>
        <time>2017-01-20T15:25:35Z</time>
      </trkpt>
      <trkpt lat="43.20758" lon="2.57345">
        <ele>83.9</ele>
        <time>2017-01-20T15:25:36Z</time>
      </trkpt>
      <trkpt lat="43.20755" lon="2.57338">
        <ele>84.5</ele>
        <time>2017-01-20T15:25:38Z</time>
      </trkpt>
      <trkpt lat="43.20752" lon="2.57328">
        <ele>84.6</ele>
        <time>2017-01-20T15:25:40Z</time>
      </trkpt>
      <trkpt lat="43.20716" lon="2.57198">
        <ele>84.9</ele>
        <time>2017-01-20T15:26:08Z</time>
      </trkpt>
      <trkpt lat="43.20715" lon="2.57194">
        <ele>84.9</ele>
        <time>2017-01-20T15:26:09Z</time>
      </trkpt>
      <trkpt lat="43.20713" lon="2.57179">
        <ele>84.8</ele>
        <time>2017-01-20T15:26:14Z</time>
      </trkpt>
      <trkpt lat="43.20713" lon="2.57179">
        <ele>84.9</ele>
        <time>2017-01-20T15:26:15Z</time>
      </trkpt>
      <trkpt lat="43.20713" lon="2.57179">
        <ele>84.3</ele>
        <time>2017-01-20T15:26:16Z</time>
      </trkpt>
      <trkpt lat="43.20713" lon="2.57179">
        <ele>83.9</ele>
        <time>2017-01-20T15:26:17Z</time>
      </trkpt>
      <trkpt lat="43.20713" lon="2.57179">
        <ele>83.6</ele>
        <time>2017-01-20T15:26:18Z</time>
      </trkpt>
      <trkpt lat="43.20713" lon="2.57179">
        <ele>83.6</ele>
        <time>2017-01-20T15:26:19Z</time>
      </trkpt>
      <trkpt lat="43.20713" lon="2.57179">
        <ele>83.6</ele>
        <time>2017-01-20T15:26:20Z</time>
      </trkpt>
      <trkpt lat="43.20713" lon="2.57179">
        <ele>83.5</ele>
        <time>2017-01-20T15:26:21Z</time>
      </trkpt>
      <trkpt lat="43.20713" lon="2.57179">
        <ele>83.9</ele>
        <time>2017-01-20T15:26:22Z</time>
      </trkpt>
      <trkpt lat="43.20713" lon="2.57179">
        <ele>84.2</ele>
        <time>2017-01-20T15:26:23Z</time>
      </trkpt>
      <trkpt lat="43.20713" lon="2.57179">
        <ele>84.5</ele>
        <time>2017-01-20T15:26:24Z</time>
      </trkpt>
      <trkpt lat="43.20713" lon="2.57172">
        <ele>84.2</ele>
        <time>2017-01-20T15:26:25Z</time>
      </trkpt>
      <trkpt lat="43.2071" lon="2.57102">
        <ele>84.1</ele>
        <time>2017-01-20T15:26:43Z</time>
      </trkpt>
      <trkpt lat="43.2071" lon="2.57102">
        <ele>84.2</ele>
        <time>2017-01-20T15:26:44Z</time>
      </trkpt>
      <trkpt lat="43.2071" lon="2.57102">
        <ele>84.2</ele>
        <time>2017-01-20T15:26:45Z</time>
      </trkpt>
      <trkpt lat="43.2071" lon="2.57102">
        <ele>84.2</ele>
        <time>2017-01-20T15:26:46Z</time>
      </trkpt>
      <trkpt lat="43.2071" lon="2.57102">
        <ele>84.3</ele>
        <time>2017-01-20T15:26:47Z</time>
      </trkpt>
      <trkpt lat="43.2071" lon="2.57102">
        <ele>84.3</ele>
        <time>2017-01-20T15:26:48Z</time>
      </trkpt>
      <trkpt lat="43.2071" lon="2.57102">
        <ele>84.3</ele>
        <time>2017-01-20T15:26:49Z</time>
      </trkpt>
      <trkpt lat="43.2071" lon="2.57102">
        <ele>84.3</ele>
        <time>2017-01-20T15:26:50Z</time>
      </trkpt>
      <trkpt lat="43.2071" lon="2.57102">
        <ele>84.3</ele>
        <time>2017-01-20T15:26:51Z</time>
      </trkpt>
      <trkpt lat="43.2071" lon="2.57102">
        <ele>84.3</ele>
        <time>2017-01-20T15:26:52Z</time>
      </trkpt>
      <trkpt lat="43.2071" lon="2.57102">
        <ele>84.3</ele>
        <time>2017-01-20T15:26:53Z</time>
      </trkpt>
      <trkpt lat="43.20708" lon="2.57096">
        <ele>84.3</ele>
        <time>2017-01-20T15:26:54Z</time>
      </trkpt>
      <trkpt lat="43.20704" lon="2.57081">
        <ele>84.5</ele>
        <time>2017-01-20T15:26:58Z</time>
      </trkpt>
      <trkpt lat="43.2068" lon="2.57004">
        <ele>84.6</ele>
        <time>2017-01-20T15:27:18Z</time>
      </trkpt>
      <trkpt lat="43.2068" lon="2.57003">
        <ele>84.5</ele>
        <time>2017-01-20T15:27:19Z</time>
      </trkpt>
      <trkpt lat="43.2068" lon="2.57002">
        <ele>84.5</ele>
        <time>2017-01-20T15:27:20Z</time>
      </trkpt>
      <trkpt lat="43.20667" lon="2.56966">
        <ele>85</ele>
        <time>2017-01-20T15:27:34Z</time>
      </trkpt>
      <trkpt lat="43.20644" lon="2.56918">
        <ele>84.7</ele>
        <time>2017-01-20T15:27:48Z</time>
      </trkpt>
      <trkpt lat="43.20619" lon="2.56859">
        <ele>84.9</ele>
        <time>2017-01-20T15:28:02Z</time>
      </trkpt>
      <trkpt lat="43.20618" lon="2.56855">
        <ele>84.9</ele>
        <time>2017-01-20T15:28:03Z</time>
      </trkpt>
      <trkpt lat="43.20617" lon="2.56842">
        <ele>85.1</ele>
        <time>2017-01-20T15:28:06Z</time>
      </trkpt>
      <trkpt lat="43.20618" lon="2.5683">
        <ele>84.6</ele>
        <time>2017-01-20T15:28:09Z</time>
      </trkpt>
      <trkpt lat="43.20619" lon="2.5682">
        <ele>84.5</ele>
        <time>2017-01-20T15:28:12Z</time>
      </trkpt>
      <trkpt lat="43.20623" lon="2.56806">
        <ele>84.3</ele>
        <time>2017-01-20T15:28:20Z</time>
      </trkpt>
      <trkpt lat="43.20623" lon="2.56806">
        <ele>84.3</ele>
        <time>2017-01-20T15:28:21Z</time>
      </trkpt>
      <trkpt lat="43.20622" lon="2.56804">
        <ele>84.3</ele>
        <time>2017-01-20T15:28:23Z</time>
      </trkpt>
      <trkpt lat="43.20622" lon="2.56803">
        <ele>84.3</ele>
        <time>2017-01-20T15:28:24Z</time>
      </trkpt>
      <trkpt lat="43.20622" lon="2.56802">
        <ele>84.3</ele>
        <time>2017-01-20T15:28:25Z</time>
      </trkpt>
      <trkpt lat="43.20622" lon="2.568">
        <ele>84.3</ele>
        <time>2017-01-20T15:28:26Z</time>
      </trkpt>
      <trkpt lat="43.20623" lon="2.56798">
        <ele>84.3</ele>
        <time>2017-01-20T15:28:27Z</time>
      </trkpt>
      <trkpt lat="43.20625" lon="2.56786">
        <ele>84.7</ele>
        <time>2017-01-20T15:28:31Z</time>
      </trkpt>
      <trkpt lat="43.20635" lon="2.56757">
        <ele>85</ele>
        <time>2017-01-20T15:28:38Z</time>
      </trkpt>
      <trkpt lat="43.20705" lon="2.56539">
        <ele>84.8</ele>
        <time>2017-01-20T15:29:31Z</time>
      </trkpt>
      <trkpt lat="43.20707" lon="2.56536">
        <ele>84.9</ele>
        <time>2017-01-20T15:29:32Z</time>
      </trkpt>
      <trkpt lat="43.20713" lon="2.56524">
        <ele>84.1</ele>
        <time>2017-01-20T15:29:36Z</time>
      </trkpt>
      <trkpt lat="43.20715" lon="2.56517">
        <ele>84.9</ele>
        <time>2017-01-20T15:29:38Z</time>
      </trkpt>
      <trkpt lat="43.2072" lon="2.56499">
        <ele>85.2</ele>
        <time>2017-01-20T15:29:43Z</time>
      </trkpt>
      <trkpt lat="43.20723" lon="2.56478">
        <ele>85.2</ele>
        <time>2017-01-20T15:29:48Z</time>
      </trkpt>
      <trkpt lat="43.20724" lon="2.56463">
        <ele>85.2</ele>
        <time>2017-01-20T15:29:51Z</time>
      </trkpt>
      <trkpt lat="43.20729" lon="2.56393">
        <ele>84.6</ele>
        <time>2017-01-20T15:30:03Z</time>
      </trkpt>
      <trkpt lat="43.2073" lon="2.56389">
        <ele>84.8</ele>
        <time>2017-01-20T15:30:04Z</time>
      </trkpt>
      <trkpt lat="43.2073" lon="2.56389">
        <ele>84.9</ele>
        <time>2017-01-20T15:30:05Z</time>
      </trkpt>
      <trkpt lat="43.2073" lon="2.56389">
        <ele>84.9</ele>
        <time>2017-01-20T15:30:06Z</time>
      </trkpt>
      <trkpt lat="43.2073" lon="2.56389">
        <ele>84.8</ele>
        <time>2017-01-20T15:30:07Z</time>
      </trkpt>
      <trkpt lat="43.2073" lon="2.56389">
        <ele>84.7</ele>
        <time>2017-01-20T15:30:08Z</time>
      </trkpt>
      <trkpt lat="43.2073" lon="2.56389">
        <ele>84.6</ele>
        <time>2017-01-20T15:30:09Z</time>
      </trkpt>
      <trkpt lat="43.2073" lon="2.56389">
        <ele>84.5</ele>
        <time>2017-01-20T15:30:10Z</time>
      </trkpt>
      <trkpt lat="43.2073" lon="2.56389">
        <ele>84.5</ele>
        <time>2017-01-20T15:30:11Z</time>
      </trkpt>
      <trkpt lat="43.2073" lon="2.56389">
        <ele>84.4</ele>
        <time>2017-01-20T15:30:12Z</time>
      </trkpt>
      <trkpt lat="43.2073" lon="2.56389">
        <ele>84.2</ele>
        <time>2017-01-20T15:30:13Z</time>
      </trkpt>
      <trkpt lat="43.2073" lon="2.56389">
        <ele>84</ele>
        <time>2017-01-20T15:30:14Z</time>
      </trkpt>
      <trkpt lat="43.2073" lon="2.56389">
        <ele>83.9</ele>
        <time>2017-01-20T15:30:15Z</time>
      </trkpt>
      <trkpt lat="43.2073" lon="2.56389">
        <ele>84</ele>
        <time>2017-01-20T15:30:16Z</time>
      </trkpt>
      <trkpt lat="43.2073" lon="2.56389">
        <ele>84.1</ele>
        <time>2017-01-20T15:30:17Z</time>
      </trkpt>
      <trkpt lat="43.2073" lon="2.56389">
        <ele>84.1</ele>
        <time>2017-01-20T15:30:18Z</time>
      </trkpt>
      <trkpt lat="43.2073" lon="2.56389">
        <ele>84.4</ele>
        <time>2017-01-20T15:30:19Z</time>
      </trkpt>
      <trkpt lat="43.2073" lon="2.56389">
        <ele>84.6</ele>
        <time>2017-01-20T15:30:20Z</time>
      </trkpt>
      <trkpt lat="43.2073" lon="2.56389">
        <ele>84.7</ele>
        <time>2017-01-20T15:30:21Z</time>
      </trkpt>
      <trkpt lat="43.2073" lon="2.56389">
        <ele>84.4</ele>
        <time>2017-01-20T15:30:22Z</time>
      </trkpt>
      <trkpt lat="43.2073" lon="2.56389">
        <ele>84.2</ele>
        <time>2017-01-20T15:30:23Z</time>
      </trkpt>
      <trkpt lat="43.2073" lon="2.56389">
        <ele>84</ele>
        <time>2017-01-20T15:30:24Z</time>
      </trkpt>
      <trkpt lat="43.2073" lon="2.56389">
        <ele>84.3</ele>
        <time>2017-01-20T15:30:25Z</time>
      </trkpt>
      <trkpt lat="43.2073" lon="2.56389">
        <ele>84.5</ele>
        <time>2017-01-20T15:30:26Z</time>
      </trkpt>
      <trkpt lat="43.2073" lon="2.56389">
        <ele>84.7</ele>
        <time>2017-01-20T15:30:27Z</time>
      </trkpt>
      <trkpt lat="43.2073" lon="2.56389">
        <ele>84.4</ele>
        <time>2017-01-20T15:30:28Z</time>
      </trkpt>
      <trkpt lat="43.2073" lon="2.56389">
        <ele>84.2</ele>
        <time>2017-01-20T15:30:29Z</time>
      </trkpt>
      <trkpt lat="43.2073" lon="2.56389">
        <ele>84</ele>
        <time>2017-01-20T15:30:30Z</time>
      </trkpt>
      <trkpt lat="43.2073" lon="2.56389">
        <ele>84.1</ele>
        <time>2017-01-20T15:30:31Z</time>
      </trkpt>
      <trkpt lat="43.2073" lon="2.56389">
        <ele>84.1</ele>
        <time>2017-01-20T15:30:32Z</time>
      </trkpt>
      <trkpt lat="43.2073" lon="2.56389">
        <ele>84.2</ele>
        <time>2017-01-20T15:30:33Z</time>
      </trkpt>
      <trkpt lat="43.2073" lon="2.56389">
        <ele>84.4</ele>
        <time>2017-01-20T15:30:34Z</time>
      </trkpt>
      <trkpt lat="43.2073" lon="2.56389">
        <ele>84.6</ele>
        <time>2017-01-20T15:30:35Z</time>
      </trkpt>
      <trkpt lat="43.2073" lon="2.56389">
        <ele>84.7</ele>
        <time>2017-01-20T15:30:36Z</time>
      </trkpt>
      <trkpt lat="43.2073" lon="2.56389">
        <ele>84.6</ele>
        <time>2017-01-20T15:30:37Z</time>
      </trkpt>
      <trkpt lat="43.2073" lon="2.56389">
        <ele>84.6</ele>
        <time>2017-01-20T15:30:38Z</time>
      </trkpt>
      <trkpt lat="43.2073" lon="2.56389">
        <ele>84.5</ele>
        <time>2017-01-20T15:30:39Z</time>
      </trkpt>
      <trkpt lat="43.2073" lon="2.56389">
        <ele>84.5</ele>
        <time>2017-01-20T15:30:40Z</time>
      </trkpt>
      <trkpt lat="43.2073" lon="2.56389">
        <ele>84.4</ele>
        <time>2017-01-20T15:30:41Z</time>
      </trkpt>
      <trkpt lat="43.2073" lon="2.56389">
        <ele>84.4</ele>
        <time>2017-01-20T15:30:42Z</time>
      </trkpt>
      <trkpt lat="43.2073" lon="2.56389">
        <ele>84.6</ele>
        <time>2017-01-20T15:30:43Z</time>
      </trkpt>
      <trkpt lat="43.2073" lon="2.56389">
        <ele>84.7</ele>
        <time>2017-01-20T15:30:44Z</time>
      </trkpt>
      <trkpt lat="43.2073" lon="2.56389">
        <ele>84.8</ele>
        <time>2017-01-20T15:30:45Z</time>
      </trkpt>
      <trkpt lat="43.2073" lon="2.56389">
        <ele>84.5</ele>
        <time>2017-01-20T15:30:46Z</time>
      </trkpt>
      <trkpt lat="43.2073" lon="2.56389">
        <ele>84.2</ele>
        <time>2017-01-20T15:30:47Z</time>
      </trkpt>
      <trkpt lat="43.2073" lon="2.56389">
        <ele>84.1</ele>
        <time>2017-01-20T15:30:48Z</time>
      </trkpt>
      <trkpt lat="43.2073" lon="2.56389">
        <ele>84.3</ele>
        <time>2017-01-20T15:30:49Z</time>
      </trkpt>
      <trkpt lat="43.2073" lon="2.56389">
        <ele>84.5</ele>
        <time>2017-01-20T15:30:50Z</time>
      </trkpt>
      <trkpt lat="43.2073" lon="2.56389">
        <ele>84.7</ele>
        <time>2017-01-20T15:30:51Z</time>
      </trkpt>
      <trkpt lat="43.2073" lon="2.56389">
        <ele>84.6</ele>
        <time>2017-01-20T15:30:52Z</time>
      </trkpt>
      <trkpt lat="43.2073" lon="2.56389">
        <ele>84.5</ele>
        <time>2017-01-20T15:30:53Z</time>
      </trkpt>
      <trkpt lat="43.2073" lon="2.56389">
        <ele>84.5</ele>
        <time>2017-01-20T15:30:54Z</time>
      </trkpt>
      <trkpt lat="43.2073" lon="2.56389">
        <ele>84.4</ele>
        <time>2017-01-20T15:30:55Z</time>
      </trkpt>
      <trkpt lat="43.2073" lon="2.56389">
        <ele>84.4</ele>
        <time>2017-01-20T15:30:56Z</time>
      </trkpt>
      <trkpt lat="43.2073" lon="2.56389">
        <ele>84.4</ele>
        <time>2017-01-20T15:30:57Z</time>
      </trkpt>
      <trkpt lat="43.2073" lon="2.56389">
        <ele>84.6</ele>
        <time>2017-01-20T15:30:58Z</time>
      </trkpt>
      <trkpt lat="43.2073" lon="2.56389">
        <ele>84.7</ele>
        <time>2017-01-20T15:30:59Z</time>
      </trkpt>
      <trkpt lat="43.2073" lon="2.56389">
        <ele>84.8</ele>
        <time>2017-01-20T15:31:00Z</time>
      </trkpt>
      <trkpt lat="43.2073" lon="2.56389">
        <ele>84.7</ele>
        <time>2017-01-20T15:31:01Z</time>
      </trkpt>
      <trkpt lat="43.2073" lon="2.56389">
        <ele>84.6</ele>
        <time>2017-01-20T15:31:02Z</time>
      </trkpt>
      <trkpt lat="43.2073" lon="2.56389">
        <ele>84.5</ele>
        <time>2017-01-20T15:31:03Z</time>
      </trkpt>
      <trkpt lat="43.2073" lon="2.56389">
        <ele>84.5</ele>
        <time>2017-01-20T15:31:04Z</time>
      </trkpt>
      <trkpt lat="43.20731" lon="2.56383">
        <ele>84.4</ele>
        <time>2017-01-20T15:31:05Z</time>
      </trkpt>
      <trkpt lat="43.20735" lon="2.56368">
        <ele>84.8</ele>
        <time>2017-01-20T15:31:09Z</time>
      </trkpt>
      <trkpt lat="43.20737" lon="2.56364">
        <ele>84.9</ele>
        <time>2017-01-20T15:31:10Z</time>
      </trkpt>
      <trkpt lat="43.20769" lon="2.56288">
        <ele>85.4</ele>
        <time>2017-01-20T15:31:29Z</time>
      </trkpt>
      <trkpt lat="43.20769" lon="2.56288">
        <ele>85.3</ele>
        <time>2017-01-20T15:31:30Z</time>
      </trkpt>
      <trkpt lat="43.20769" lon="2.56288">
        <ele>85.1</ele>
        <time>2017-01-20T15:31:31Z</time>
      </trkpt>
      <trkpt lat="43.20769" lon="2.56288">
        <ele>84.9</ele>
        <time>2017-01-20T15:31:32Z</time>
      </trkpt>
      <trkpt lat="43.20769" lon="2.56288">
        <ele>84.7</ele>
        <time>2017-01-20T15:31:33Z</time>
      </trkpt>
      <trkpt lat="43.20769" lon="2.56288">
        <ele>84.6</ele>
        <time>2017-01-20T15:31:34Z</time>
      </trkpt>
      <trkpt lat="43.20769" lon="2.56288">
        <ele>84.6</ele>
        <time>2017-01-20T15:31:35Z</time>
      </trkpt>
      <trkpt lat="43.20769" lon="2.56288">
        <ele>84.5</ele>
        <time>2017-01-20T15:31:36Z</time>
      </trkpt>
      <trkpt lat="43.20769" lon="2.56288">
        <ele>84.7</ele>
        <time>2017-01-20T15:31:37Z</time>
      </trkpt>
      <trkpt lat="43.20769" lon="2.56288">
        <ele>84.8</ele>
        <time>2017-01-20T15:31:38Z</time>
      </trkpt>
      <trkpt lat="43.20769" lon="2.56288">
        <ele>84.9</ele>
        <time>2017-01-20T15:31:39Z</time>
      </trkpt>
      <trkpt lat="43.20769" lon="2.56288">
        <ele>84.9</ele>
        <time>2017-01-20T15:31:40Z</time>
      </trkpt>
      <trkpt lat="43.20769" lon="2.56288">
        <ele>85</ele>
        <time>2017-01-20T15:31:41Z</time>
      </trkpt>
      <trkpt lat="43.20769" lon="2.56288">
        <ele>85</ele>
        <time>2017-01-20T15:31:42Z</time>
      </trkpt>
      <trkpt lat="43.2077" lon="2.56285">
        <ele>84.9</ele>
        <time>2017-01-20T15:31:43Z</time>
      </trkpt>
      <trkpt lat="43.20771" lon="2.56282">
        <ele>84.7</ele>
        <time>2017-01-20T15:31:44Z</time>
      </trkpt>
      <trkpt lat="43.20781" lon="2.56252">
        <ele>84.2</ele>
        <time>2017-01-20T15:31:51Z</time>
      </trkpt>
      <trkpt lat="43.2081" lon="2.56142">
        <ele>84.8</ele>
        <time>2017-01-20T15:32:14Z</time>
      </trkpt>
      <trkpt lat="43.20811" lon="2.56137">
        <ele>84.7</ele>
        <time>2017-01-20T15:32:15Z</time>
      </trkpt>
      <trkpt lat="43.20813" lon="2.56114">
        <ele>85.3</ele>
        <time>2017-01-20T15:32:22Z</time>
      </trkpt>
      <trkpt lat="43.20813" lon="2.56114">
        <ele>85.3</ele>
        <time>2017-01-20T15:32:23Z</time>
      </trkpt>
      <trkpt lat="43.20813" lon="2.56114">
        <ele>85.2</ele>
        <time>2017-01-20T15:32:24Z</time>
      </trkpt>
      <trkpt lat="43.20813" lon="2.56114">
        <ele>85</ele>
        <time>2017-01-20T15:32:25Z</time>
      </trkpt>
      <trkpt lat="43.20813" lon="2.56114">
        <ele>84.8</ele>
        <time>2017-01-20T15:32:26Z</time>
      </trkpt>
      <trkpt lat="43.20813" lon="2.56114">
        <ele>84.7</ele>
        <time>2017-01-20T15:32:27Z</time>
      </trkpt>
      <trkpt lat="43.20813" lon="2.56114">
        <ele>84.6</ele>
        <time>2017-01-20T15:32:28Z</time>
      </trkpt>
      <trkpt lat="43.20813" lon="2.56114">
        <ele>84.5</ele>
        <time>2017-01-20T15:32:29Z</time>
      </trkpt>
      <trkpt lat="43.20813" lon="2.56114">
        <ele>84.5</ele>
        <time>2017-01-20T15:32:30Z</time>
      </trkpt>
      <trkpt lat="43.20813" lon="2.56114">
        <ele>84.4</ele>
        <time>2017-01-20T15:32:31Z</time>
      </trkpt>
      <trkpt lat="43.20813" lon="2.56114">
        <ele>84.4</ele>
        <time>2017-01-20T15:32:32Z</time>
      </trkpt>
      <trkpt lat="43.20813" lon="2.56114">
        <ele>84.4</ele>
        <time>2017-01-20T15:32:33Z</time>
      </trkpt>
      <trkpt lat="43.20813" lon="2.56114">
        <ele>84.4</ele>
        <time>2017-01-20T15:32:34Z</time>
      </trkpt>
      <trkpt lat="43.20811" lon="2.56105">
        <ele>84.4</ele>
        <time>2017-01-20T15:32:35Z</time>
      </trkpt>
      <trkpt lat="43.2081" lon="2.56091">
        <ele>84.6</ele>
        <time>2017-01-20T15:32:37Z</time>
      </trkpt>
      <trkpt lat="43.20809" lon="2.56006">
        <ele>84.7</ele>
        <time>2017-01-20T15:32:49Z</time>
      </trkpt>
      <trkpt lat="43.20808" lon="2.56">
        <ele>84.6</ele>
        <time>2017-01-20T15:32:50Z</time>
      </trkpt>
      <trkpt lat="43.208" lon="2.55968">
        <ele>85</ele>
        <time>2017-01-20T15:32:55Z</time>
      </trkpt>
      <trkpt lat="43.20739" lon="2.55745">
        <ele>84.2</ele>
        <time>2017-01-20T15:33:37Z</time>
      </trkpt>
      <trkpt lat="43.20739" lon="2.55745">
        <ele>84.2</ele>
        <time>2017-01-20T15:33:38Z</time>
      </trkpt>
      <trkpt lat="43.20739" lon="2.55745">
        <ele>84.3</ele>
        <time>2017-01-20T15:33:40Z</time>
      </trkpt>
      <trkpt lat="43.20739" lon="2.55745">
        <ele>84.3</ele>
        <time>2017-01-20T15:33:41Z</time>
      </trkpt>
      <trkpt lat="43.20739" lon="2.55745">
        <ele>84.3</ele>
        <time>2017-01-20T15:33:42Z</time>
      </trkpt>
      <trkpt lat="43.20739" lon="2.55745">
        <ele>84.5</ele>
        <time>2017-01-20T15:33:43Z</time>
      </trkpt>
      <trkpt lat="43.20739" lon="2.55745">
        <ele>84.7</ele>
        <time>2017-01-20T15:33:44Z</time>
      </trkpt>
      <trkpt lat="43.20738" lon="2.55739">
        <ele>84.8</ele>
        <time>2017-01-20T15:33:45Z</time>
      </trkpt>
      <trkpt lat="43.20723" lon="2.55686">
        <ele>84.5</ele>
        <time>2017-01-20T15:33:57Z</time>
      </trkpt>
      <trkpt lat="43.20714" lon="2.55665">
        <ele>84.6</ele>
        <time>2017-01-20T15:34:01Z</time>
      </trkpt>
      <trkpt lat="43.20681" lon="2.556">
        <ele>84.7</ele>
        <time>2017-01-20T15:34:16Z</time>
      </trkpt>
      <trkpt lat="43.20617" lon="2.5547">
        <ele>85.6</ele>
        <time>2017-01-20T15:34:43Z</time>
      </trkpt>
      <trkpt lat="43.20615" lon="2.55465">
        <ele>85.5</ele>
        <time>2017-01-20T15:34:44Z</time>
      </trkpt>
      <trkpt lat="43.20612" lon="2.55449">
        <ele>84.9</ele>
        <time>2017-01-20T15:34:47Z</time>
      </trkpt>
      <trkpt lat="43.20606" lon="2.55404">
        <ele>84.7</ele>
        <time>2017-01-20T15:35:03Z</time>
      </trkpt>
      <trkpt lat="43.20606" lon="2.55404">
        <ele>84.8</ele>
        <time>2017-01-20T15:35:04Z</time>
      </trkpt>
      <trkpt lat="43.20606" lon="2.55404">
        <ele>84.9</ele>
        <time>2017-01-20T15:35:05Z</time>
      </trkpt>
      <trkpt lat="43.20605" lon="2.554">
        <ele>84.9</ele>
        <time>2017-01-20T15:35:06Z</time>
      </trkpt>
      <trkpt lat="43.20605" lon="2.55397">
        <ele>85</ele>
        <time>2017-01-20T15:35:07Z</time>
      </trkpt>
      <trkpt lat="43.20594" lon="2.55104">
        <ele>85.7</ele>
        <time>2017-01-20T15:35:57Z</time>
      </trkpt>
      <trkpt lat="43.20594" lon="2.55097">
        <ele>85.6</ele>
        <time>2017-01-20T15:35:58Z</time>
      </trkpt>
      <trkpt lat="43.20593" lon="2.55045">
        <ele>85.2</ele>
        <time>2017-01-20T15:36:09Z</time>
      </trkpt>
      <trkpt lat="43.20593" lon="2.55045">
        <ele>85.2</ele>
        <time>2017-01-20T15:36:11Z</time>
      </trkpt>
      <trkpt lat="43.20593" lon="2.55045">
        <ele>85.2</ele>
        <time>2017-01-20T15:36:12Z</time>
      </trkpt>
      <trkpt lat="43.20593" lon="2.55045">
        <ele>85.2</ele>
        <time>2017-01-20T15:36:13Z</time>
      </trkpt>
      <trkpt lat="43.20593" lon="2.55045">
        <ele>85.2</ele>
        <time>2017-01-20T15:36:14Z</time>
      </trkpt>
      <trkpt lat="43.20593" lon="2.55045">
        <ele>85.2</ele>
        <time>2017-01-20T15:36:15Z</time>
      </trkpt>
      <trkpt lat="43.20593" lon="2.55045">
        <ele>85.2</ele>
        <time>2017-01-20T15:36:16Z</time>
      </trkpt>
      <trkpt lat="43.20593" lon="2.55045">
        <ele>85.2</ele>
        <time>2017-01-20T15:36:17Z</time>
      </trkpt>
      <trkpt lat="43.20593" lon="2.55045">
        <ele>85.2</ele>
        <time>2017-01-20T15:36:18Z</time>
      </trkpt>
      <trkpt lat="43.20593" lon="2.55045">
        <ele>85.2</ele>
        <time>2017-01-20T15:36:19Z</time>
      </trkpt>
      <trkpt lat="43.20592" lon="2.55039">
        <ele>85.2</ele>
        <time>2017-01-20T15:36:20Z</time>
      </trkpt>
      <trkpt lat="43.20593" lon="2.55036">
        <ele>85.2</ele>
        <time>2017-01-20T15:36:21Z</time>
      </trkpt>
      <trkpt lat="43.20593" lon="2.55033">
        <ele>85.4</ele>
        <time>2017-01-20T15:36:22Z</time>
      </trkpt>
      <trkpt lat="43.20594" lon="2.55023">
        <ele>85.7</ele>
        <time>2017-01-20T15:36:25Z</time>
      </trkpt>
      <trkpt lat="43.20594" lon="2.5502">
        <ele>85.8</ele>
        <time>2017-01-20T15:36:26Z</time>
      </trkpt>
      <trkpt lat="43.20592" lon="2.55016">
        <ele>85.8</ele>
        <time>2017-01-20T15:36:27Z</time>
      </trkpt>
      <trkpt lat="43.20584" lon="2.54996">
        <ele>86.6</ele>
        <time>2017-01-20T15:36:33Z</time>
      </trkpt>
      <trkpt lat="43.20582" lon="2.54995">
        <ele>87.1</ele>
        <time>2017-01-20T15:36:34Z</time>
      </trkpt>
      <trkpt lat="43.20579" lon="2.54994">
        <ele>87.4</ele>
        <time>2017-01-20T15:36:35Z</time>
      </trkpt>
      <trkpt lat="43.20577" lon="2.54993">
        <ele>87.7</ele>
        <time>2017-01-20T15:36:36Z</time>
      </trkpt>
      <trkpt lat="43.20577" lon="2.54993">
        <ele>87.7</ele>
        <time>2017-01-20T15:36:37Z</time>
      </trkpt>
      <trkpt lat="43.20577" lon="2.54993">
        <ele>87.7</ele>
        <time>2017-01-20T15:36:38Z</time>
      </trkpt>
      <trkpt lat="43.20577" lon="2.54993">
        <ele>87.7</ele>
        <time>2017-01-20T15:36:39Z</time>
      </trkpt>
      <trkpt lat="43.20577" lon="2.54993">
        <ele>87.7</ele>
        <time>2017-01-20T15:36:40Z</time>
      </trkpt>
      <trkpt lat="43.20577" lon="2.54993">
        <ele>87.7</ele>
        <time>2017-01-20T15:36:41Z</time>
      </trkpt>
      <trkpt lat="43.20577" lon="2.54993">
        <ele>87.6</ele>
        <time>2017-01-20T15:36:42Z</time>
      </trkpt>
      <trkpt lat="43.20577" lon="2.54993">
        <ele>87.6</ele>
        <time>2017-01-20T15:36:43Z</time>
      </trkpt>
      <trkpt lat="43.20577" lon="2.54993">
        <ele>87.6</ele>
        <time>2017-01-20T15:36:44Z</time>
      </trkpt>
      <trkpt lat="43.20577" lon="2.54993">
        <ele>87.6</ele>
        <time>2017-01-20T15:36:45Z</time>
      </trkpt>
      <trkpt lat="43.20577" lon="2.54993">
        <ele>87.9</ele>
        <time>2017-01-20T15:36:46Z</time>
      </trkpt>
      <trkpt lat="43.20573" lon="2.54992">
        <ele>88</ele>
        <time>2017-01-20T15:36:47Z</time>
      </trkpt>
      <trkpt lat="43.20569" lon="2.54991">
        <ele>88.3</ele>
        <time>2017-01-20T15:36:51Z</time>
      </trkpt>
      <trkpt lat="43.20569" lon="2.54991">
        <ele>87.9</ele>
        <time>2017-01-20T15:36:52Z</time>
      </trkpt>
      <trkpt lat="43.20569" lon="2.54991">
        <ele>87.7</ele>
        <time>2017-01-20T15:36:53Z</time>
      </trkpt>
      <trkpt lat="43.20569" lon="2.54991">
        <ele>87.4</ele>
        <time>2017-01-20T15:36:54Z</time>
      </trkpt>
      <trkpt lat="43.20569" lon="2.54991">
        <ele>87.7</ele>
        <time>2017-01-20T15:36:55Z</time>
      </trkpt>
      <trkpt lat="43.20569" lon="2.54991">
        <ele>87.9</ele>
        <time>2017-01-20T15:36:56Z</time>
      </trkpt>
      <trkpt lat="43.20569" lon="2.54991">
        <ele>88</ele>
        <time>2017-01-20T15:36:57Z</time>
      </trkpt>
      <trkpt lat="43.2057" lon="2.54992">
        <ele>88.1</ele>
        <time>2017-01-20T15:36:58Z</time>
      </trkpt>
      <trkpt lat="43.2057" lon="2.54992">
        <ele>88.2</ele>
        <time>2017-01-20T15:36:59Z</time>
      </trkpt>
      <trkpt lat="43.2057" lon="2.54992">
        <ele>88.3</ele>
        <time>2017-01-20T15:37:00Z</time>
      </trkpt>
      <trkpt lat="43.20574" lon="2.5499">
        <ele>88.5</ele>
        <time>2017-01-20T15:37:01Z</time>
      </trkpt>
      <trkpt lat="43.20576" lon="2.54987">
        <ele>88.7</ele>
        <time>2017-01-20T15:37:02Z</time>
      </trkpt>
      <trkpt lat="43.20578" lon="2.54983">
        <ele>88.9</ele>
        <time>2017-01-20T15:37:03Z</time>
      </trkpt>
      <trkpt lat="43.20577" lon="2.54978">
        <ele>89</ele>
        <time>2017-01-20T15:37:04Z</time>
      </trkpt>
      <trkpt lat="43.20576" lon="2.54969">
        <ele>89.1</ele>
        <time>2017-01-20T15:37:06Z</time>
      </trkpt>
      <trkpt lat="43.20572" lon="2.54949">
        <ele>89</ele>
        <time>2017-01-20T15:37:10Z</time>
      </trkpt>
      <trkpt lat="43.20563" lon="2.54909">
        <ele>89</ele>
        <time>2017-01-20T15:37:21Z</time>
      </trkpt>
      <trkpt lat="43.20563" lon="2.54909">
        <ele>88.6</ele>
        <time>2017-01-20T15:37:22Z</time>
      </trkpt>
      <trkpt lat="43.20563" lon="2.54909">
        <ele>88.4</ele>
        <time>2017-01-20T15:37:23Z</time>
      </trkpt>
      <trkpt lat="43.20563" lon="2.54909">
        <ele>88.2</ele>
        <time>2017-01-20T15:37:24Z</time>
      </trkpt>
      <trkpt lat="43.20563" lon="2.54909">
        <ele>88.3</ele>
        <time>2017-01-20T15:37:25Z</time>
      </trkpt>
      <trkpt lat="43.20563" lon="2.54909">
        <ele>88.3</ele>
        <time>2017-01-20T15:37:26Z</time>
      </trkpt>
      <trkpt lat="43.20563" lon="2.54909">
        <ele>88.4</ele>
        <time>2017-01-20T15:37:27Z</time>
      </trkpt>
      <trkpt lat="43.20563" lon="2.54909">
        <ele>88</ele>
        <time>2017-01-20T15:37:28Z</time>
      </trkpt>
      <trkpt lat="43.20562" lon="2.54905">
        <ele>87.7</ele>
        <time>2017-01-20T15:37:29Z</time>
      </trkpt>
      <trkpt lat="43.20545" lon="2.54859">
        <ele>88.5</ele>
        <time>2017-01-20T15:37:40Z</time>
      </trkpt>
      <trkpt lat="43.20531" lon="2.5482">
        <ele>89.2</ele>
        <time>2017-01-20T15:37:49Z</time>
      </trkpt>
      <trkpt lat="43.20524" lon="2.54798">
        <ele>88.7</ele>
        <time>2017-01-20T15:37:56Z</time>
      </trkpt>
      <trkpt lat="43.20519" lon="2.54779">
        <ele>88.7</ele>
        <time>2017-01-20T15:38:08Z</time>
      </trkpt>
      <trkpt lat="43.20519" lon="2.54779">
        <ele>88.7</ele>
        <time>2017-01-20T15:38:09Z</time>
      </trkpt>
      <trkpt lat="43.20519" lon="2.54779">
        <ele>88.4</ele>
        <time>2017-01-20T15:38:10Z</time>
      </trkpt>
      <trkpt lat="43.20519" lon="2.54779">
        <ele>88.2</ele>
        <time>2017-01-20T15:38:11Z</time>
      </trkpt>
      <trkpt lat="43.20519" lon="2.54772">
        <ele>88.1</ele>
        <time>2017-01-20T15:38:12Z</time>
      </trkpt>
      <trkpt lat="43.20518" lon="2.54762">
        <ele>87.8</ele>
        <time>2017-01-20T15:38:15Z</time>
      </trkpt>
      <trkpt lat="43.20517" lon="2.54757">
        <ele>88.2</ele>
        <time>2017-01-20T15:38:16Z</time>
      </trkpt>
      <trkpt lat="43.20502" lon="2.54614">
        <ele>88.8</ele>
        <time>2017-01-20T15:38:38Z</time>
      </trkpt>
      <trkpt lat="43.20487" lon="2.54405">
        <ele>88.7</ele>
        <time>2017-01-20T15:39:16Z</time>
      </trkpt>
      <trkpt lat="43.20487" lon="2.54401">
        <ele>88.6</ele>
        <time>2017-01-20T15:39:17Z</time>
      </trkpt>
      <trkpt lat="43.20488" lon="2.54381">
        <ele>88.5</ele>
        <time>2017-01-20T15:39:23Z</time>
      </trkpt>
      <trkpt lat="43.20488" lon="2.54381">
        <ele>88.7</ele>
        <time>2017-01-20T15:39:25Z</time>
      </trkpt>
      <trkpt lat="43.20488" lon="2.54381">
        <ele>88.8</ele>
        <time>2017-01-20T15:39:26Z</time>
      </trkpt>
      <trkpt lat="43.20488" lon="2.54381">
        <ele>89</ele>
        <time>2017-01-20T15:39:27Z</time>
      </trkpt>
      <trkpt lat="43.20488" lon="2.54381">
        <ele>88.6</ele>
        <time>2017-01-20T15:39:28Z</time>
      </trkpt>
      <trkpt lat="43.20488" lon="2.54381">
        <ele>88.4</ele>
        <time>2017-01-20T15:39:29Z</time>
      </trkpt>
      <trkpt lat="43.20488" lon="2.54381">
        <ele>88.2</ele>
        <time>2017-01-20T15:39:30Z</time>
      </trkpt>
      <trkpt lat="43.20488" lon="2.54381">
        <ele>88.1</ele>
        <time>2017-01-20T15:39:31Z</time>
      </trkpt>
      <trkpt lat="43.20488" lon="2.54381">
        <ele>88</ele>
        <time>2017-01-20T15:39:32Z</time>
      </trkpt>
      <trkpt lat="43.20488" lon="2.54381">
        <ele>87.9</ele>
        <time>2017-01-20T15:39:33Z</time>
      </trkpt>
      <trkpt lat="43.20488" lon="2.54381">
        <ele>88</ele>
        <time>2017-01-20T15:39:34Z</time>
      </trkpt>
      <trkpt lat="43.20488" lon="2.54381">
        <ele>88.1</ele>
        <time>2017-01-20T15:39:35Z</time>
      </trkpt>
      <trkpt lat="43.20488" lon="2.54381">
        <ele>88.2</ele>
        <time>2017-01-20T15:39:36Z</time>
      </trkpt>
      <trkpt lat="43.20488" lon="2.54381">
        <ele>88.5</ele>
        <time>2017-01-20T15:39:37Z</time>
      </trkpt>
      <trkpt lat="43.20488" lon="2.54381">
        <ele>88.7</ele>
        <time>2017-01-20T15:39:38Z</time>
      </trkpt>
      <trkpt lat="43.20488" lon="2.54381">
        <ele>88.8</ele>
        <time>2017-01-20T15:39:39Z</time>
      </trkpt>
      <trkpt lat="43.20488" lon="2.54381">
        <ele>89</ele>
        <time>2017-01-20T15:39:40Z</time>
      </trkpt>
      <trkpt lat="43.20488" lon="2.54381">
        <ele>89</ele>
        <time>2017-01-20T15:39:41Z</time>
      </trkpt>
      <trkpt lat="43.20488" lon="2.54381">
        <ele>89.1</ele>
        <time>2017-01-20T15:39:42Z</time>
      </trkpt>
      <trkpt lat="43.20488" lon="2.54381">
        <ele>89.2</ele>
        <time>2017-01-20T15:39:43Z</time>
      </trkpt>
      <trkpt lat="43.20488" lon="2.54381">
        <ele>89.2</ele>
        <time>2017-01-20T15:39:44Z</time>
      </trkpt>
      <trkpt lat="43.20488" lon="2.54381">
        <ele>89.2</ele>
        <time>2017-01-20T15:39:45Z</time>
      </trkpt>
      <trkpt lat="43.20488" lon="2.54381">
        <ele>88.8</ele>
        <time>2017-01-20T15:39:46Z</time>
      </trkpt>
      <trkpt lat="43.20488" lon="2.54381">
        <ele>88.5</ele>
        <time>2017-01-20T15:39:47Z</time>
      </trkpt>
      <trkpt lat="43.20488" lon="2.54381">
        <ele>88.3</ele>
        <time>2017-01-20T15:39:48Z</time>
      </trkpt>
      <trkpt lat="43.20488" lon="2.54381">
        <ele>88.3</ele>
        <time>2017-01-20T15:39:49Z</time>
      </trkpt>
      <trkpt lat="43.20488" lon="2.54381">
        <ele>88.4</ele>
        <time>2017-01-20T15:39:50Z</time>
      </trkpt>
      <trkpt lat="43.20488" lon="2.54381">
        <ele>88.4</ele>
        <time>2017-01-20T15:39:51Z</time>
      </trkpt>
      <trkpt lat="43.20488" lon="2.54381">
        <ele>88.6</ele>
        <time>2017-01-20T15:39:52Z</time>
      </trkpt>
      <trkpt lat="43.20488" lon="2.54381">
        <ele>88.8</ele>
        <time>2017-01-20T15:39:53Z</time>
      </trkpt>
      <trkpt lat="43.20488" lon="2.54381">
        <ele>88.9</ele>
        <time>2017-01-20T15:39:54Z</time>
      </trkpt>
      <trkpt lat="43.20488" lon="2.54381">
        <ele>89</ele>
        <time>2017-01-20T15:39:55Z</time>
      </trkpt>
      <trkpt lat="43.20488" lon="2.54381">
        <ele>89.1</ele>
        <time>2017-01-20T15:39:56Z</time>
      </trkpt>
      <trkpt lat="43.20488" lon="2.54381">
        <ele>89.1</ele>
        <time>2017-01-20T15:39:57Z</time>
      </trkpt>
      <trkpt lat="43.20488" lon="2.54381">
        <ele>89.2</ele>
        <time>2017-01-20T15:39:58Z</time>
      </trkpt>
      <trkpt lat="43.20488" lon="2.54381">
        <ele>89.2</ele>
        <time>2017-01-20T15:39:59Z</time>
      </trkpt>
      <trkpt lat="43.20488" lon="2.54381">
        <ele>89.2</ele>
        <time>2017-01-20T15:40:00Z</time>
      </trkpt>
      <trkpt lat="43.20488" lon="2.54381">
        <ele>88.8</ele>
        <time>2017-01-20T15:40:01Z</time>
      </trkpt>
      <trkpt lat="43.20488" lon="2.54381">
        <ele>88.5</ele>
        <time>2017-01-20T15:40:02Z</time>
      </trkpt>
      <trkpt lat="43.20488" lon="2.54381">
        <ele>88.3</ele>
        <time>2017-01-20T15:40:03Z</time>
      </trkpt>
      <trkpt lat="43.20488" lon="2.54381">
        <ele>88.4</ele>
        <time>2017-01-20T15:40:04Z</time>
      </trkpt>
      <trkpt lat="43.20488" lon="2.54381">
        <ele>88.4</ele>
        <time>2017-01-20T15:40:05Z</time>
      </trkpt>
      <trkpt lat="43.20488" lon="2.54381">
        <ele>88.4</ele>
        <time>2017-01-20T15:40:06Z</time>
      </trkpt>
      <trkpt lat="43.20488" lon="2.54381">
        <ele>88.4</ele>
        <time>2017-01-20T15:40:07Z</time>
      </trkpt>
      <trkpt lat="43.20488" lon="2.54381">
        <ele>88.4</ele>
        <time>2017-01-20T15:40:08Z</time>
      </trkpt>
      <trkpt lat="43.20488" lon="2.54381">
        <ele>88.4</ele>
        <time>2017-01-20T15:40:09Z</time>
      </trkpt>
      <trkpt lat="43.20488" lon="2.54381">
        <ele>88.2</ele>
        <time>2017-01-20T15:40:10Z</time>
      </trkpt>
      <trkpt lat="43.20488" lon="2.54381">
        <ele>88.1</ele>
        <time>2017-01-20T15:40:11Z</time>
      </trkpt>
      <trkpt lat="43.20488" lon="2.54381">
        <ele>88</ele>
        <time>2017-01-20T15:40:12Z</time>
      </trkpt>
      <trkpt lat="43.20488" lon="2.54381">
        <ele>88.5</ele>
        <time>2017-01-20T15:40:13Z</time>
      </trkpt>
      <trkpt lat="43.20488" lon="2.54381">
        <ele>88.9</ele>
        <time>2017-01-20T15:40:14Z</time>
      </trkpt>
      <trkpt lat="43.20487" lon="2.54376">
        <ele>89.2</ele>
        <time>2017-01-20T15:40:15Z</time>
      </trkpt>
      <trkpt lat="43.20486" lon="2.54298">
        <ele>88.9</ele>
        <time>2017-01-20T15:40:27Z</time>
      </trkpt>
      <trkpt lat="43.20487" lon="2.54291">
        <ele>89</ele>
        <time>2017-01-20T15:40:28Z</time>
      </trkpt>
      <trkpt lat="43.20489" lon="2.54185">
        <ele>88.1</ele>
        <time>2017-01-20T15:40:52Z</time>
      </trkpt>
      <trkpt lat="43.20489" lon="2.54185">
        <ele>88</ele>
        <time>2017-01-20T15:40:53Z</time>
      </trkpt>
      <trkpt lat="43.20489" lon="2.54185">
        <ele>87.9</ele>
        <time>2017-01-20T15:40:54Z</time>
      </trkpt>
      <trkpt lat="43.20489" lon="2.54185">
        <ele>88</ele>
        <time>2017-01-20T15:40:55Z</time>
      </trkpt>
      <trkpt lat="43.20489" lon="2.54185">
        <ele>88.2</ele>
        <time>2017-01-20T15:40:56Z</time>
      </trkpt>
      <trkpt lat="43.20489" lon="2.54185">
        <ele>88.2</ele>
        <time>2017-01-20T15:40:57Z</time>
      </trkpt>
      <trkpt lat="43.20489" lon="2.54185">
        <ele>88.5</ele>
        <time>2017-01-20T15:40:58Z</time>
      </trkpt>
      <trkpt lat="43.20489" lon="2.54185">
        <ele>88.7</ele>
        <time>2017-01-20T15:40:59Z</time>
      </trkpt>
      <trkpt lat="43.20489" lon="2.54185">
        <ele>88.8</ele>
        <time>2017-01-20T15:41:00Z</time>
      </trkpt>
      <trkpt lat="43.20489" lon="2.54179">
        <ele>89</ele>
        <time>2017-01-20T15:41:01Z</time>
      </trkpt>
      <trkpt lat="43.20489" lon="2.54117">
        <ele>88.9</ele>
        <time>2017-01-20T15:41:13Z</time>
      </trkpt>
      <trkpt lat="43.20482" lon="2.54068">
        <ele>89.8</ele>
        <time>2017-01-20T15:41:21Z</time>
      </trkpt>
      <trkpt lat="43.20476" lon="2.54041">
        <ele>90.1</ele>
        <time>2017-01-20T15:41:27Z</time>
      </trkpt>
      <trkpt lat="43.20475" lon="2.54038">
        <ele>89.7</ele>
        <time>2017-01-20T15:41:28Z</time>
      </trkpt>
      <trkpt lat="43.20474" lon="2.54034">
        <ele>89.4</ele>
        <time>2017-01-20T15:41:29Z</time>
      </trkpt>
      <trkpt lat="43.20472" lon="2.54028">
        <ele>88.8</ele>
        <time>2017-01-20T15:41:33Z</time>
      </trkpt>
      <trkpt lat="43.20472" lon="2.54028">
        <ele>88.7</ele>
        <time>2017-01-20T15:41:34Z</time>
      </trkpt>
      <trkpt lat="43.20472" lon="2.54028">
        <ele>88.6</ele>
        <time>2017-01-20T15:41:35Z</time>
      </trkpt>
      <trkpt lat="43.20472" lon="2.54028">
        <ele>88.6</ele>
        <time>2017-01-20T15:41:36Z</time>
      </trkpt>
      <trkpt lat="43.20472" lon="2.54028">
        <ele>88.4</ele>
        <time>2017-01-20T15:41:37Z</time>
      </trkpt>
      <trkpt lat="43.20472" lon="2.54028">
        <ele>88.2</ele>
        <time>2017-01-20T15:41:38Z</time>
      </trkpt>
      <trkpt lat="43.20472" lon="2.54028">
        <ele>88</ele>
        <time>2017-01-20T15:41:39Z</time>
      </trkpt>
      <trkpt lat="43.20472" lon="2.54028">
        <ele>87.7</ele>
        <time>2017-01-20T15:41:40Z</time>
      </trkpt>
      <trkpt lat="43.20472" lon="2.54028">
        <ele>87.5</ele>
        <time>2017-01-20T15:41:41Z</time>
      </trkpt>
      <trkpt lat="43.20472" lon="2.54028">
        <ele>87.3</ele>
        <time>2017-01-20T15:41:42Z</time>
      </trkpt>
      <trkpt lat="43.20472" lon="2.54028">
        <ele>87.8</ele>
        <time>2017-01-20T15:41:43Z</time>
      </trkpt>
      <trkpt lat="43.20472" lon="2.54028">
        <ele>88.2</ele>
        <time>2017-01-20T15:41:44Z</time>
      </trkpt>
      <trkpt lat="43.20469" lon="2.54021">
        <ele>88.5</ele>
        <time>2017-01-20T15:41:45Z</time>
      </trkpt>
      <trkpt lat="43.20454" lon="2.53982">
        <ele>88.6</ele>
        <time>2017-01-20T15:41:54Z</time>
      </trkpt>
      <trkpt lat="43.20453" lon="2.53977">
        <ele>88.5</ele>
        <time>2017-01-20T15:41:55Z</time>
      </trkpt>
      <trkpt lat="43.20449" lon="2.53962">
        <ele>88.7</ele>
        <time>2017-01-20T15:41:58Z</time>
      </trkpt>
      <trkpt lat="43.20446" lon="2.53953">
        <ele>89</ele>
        <time>2017-01-20T15:42:00Z</time>
      </trkpt>
      <trkpt lat="43.2044" lon="2.53939">
        <ele>88.2</ele>
        <time>2017-01-20T15:42:03Z</time>
      </trkpt>
      <trkpt lat="43.20435" lon="2.5393">
        <ele>88.3</ele>
        <time>2017-01-20T15:42:05Z</time>
      </trkpt>
      <trkpt lat="43.2043" lon="2.53922">
        <ele>88.6</ele>
        <time>2017-01-20T15:42:07Z</time>
      </trkpt>
      <trkpt lat="43.20427" lon="2.53919">
        <ele>88.8</ele>
        <time>2017-01-20T15:42:08Z</time>
      </trkpt>
      <trkpt lat="43.2041" lon="2.53904">
        <ele>88.7</ele>
        <time>2017-01-20T15:42:15Z</time>
      </trkpt>
      <trkpt lat="43.20408" lon="2.53903">
        <ele>88.5</ele>
        <time>2017-01-20T15:42:16Z</time>
      </trkpt>
      <trkpt lat="43.20402" lon="2.539">
        <ele>88.6</ele>
        <time>2017-01-20T15:42:20Z</time>
      </trkpt>
      <trkpt lat="43.20402" lon="2.539">
        <ele>88.8</ele>
        <time>2017-01-20T15:42:21Z</time>
      </trkpt>
      <trkpt lat="43.20402" lon="2.539">
        <ele>88.9</ele>
        <time>2017-01-20T15:42:22Z</time>
      </trkpt>
      <trkpt lat="43.20402" lon="2.539">
        <ele>89</ele>
        <time>2017-01-20T15:42:23Z</time>
      </trkpt>
      <trkpt lat="43.20402" lon="2.539">
        <ele>89.1</ele>
        <time>2017-01-20T15:42:24Z</time>
      </trkpt>
      <trkpt lat="43.20402" lon="2.539">
        <ele>88.7</ele>
        <time>2017-01-20T15:42:25Z</time>
      </trkpt>
      <trkpt lat="43.20402" lon="2.539">
        <ele>88.5</ele>
        <time>2017-01-20T15:42:26Z</time>
      </trkpt>
      <trkpt lat="43.20402" lon="2.539">
        <ele>88.3</ele>
        <time>2017-01-20T15:42:27Z</time>
      </trkpt>
      <trkpt lat="43.20402" lon="2.539">
        <ele>88.5</ele>
        <time>2017-01-20T15:42:28Z</time>
      </trkpt>
      <trkpt lat="43.20402" lon="2.539">
        <ele>88.7</ele>
        <time>2017-01-20T15:42:29Z</time>
      </trkpt>
      <trkpt lat="43.20398" lon="2.53893">
        <ele>88.9</ele>
        <time>2017-01-20T15:42:30Z</time>
      </trkpt>
      <trkpt lat="43.20395" lon="2.53888">
        <ele>89.1</ele>
        <time>2017-01-20T15:42:32Z</time>
      </trkpt>
      <trkpt lat="43.20393" lon="2.53886">
        <ele>89.1</ele>
        <time>2017-01-20T15:42:33Z</time>
      </trkpt>
      <trkpt lat="43.20391" lon="2.53884">
        <ele>89.4</ele>
        <time>2017-01-20T15:42:34Z</time>
      </trkpt>
      <trkpt lat="43.2037" lon="2.53871">
        <ele>90.4</ele>
        <time>2017-01-20T15:42:44Z</time>
      </trkpt>
      <trkpt lat="43.20368" lon="2.53871">
        <ele>90.6</ele>
        <time>2017-01-20T15:42:45Z</time>
      </trkpt>
      <trkpt lat="43.20365" lon="2.5387">
        <ele>90.7</ele>
        <time>2017-01-20T15:42:47Z</time>
      </trkpt>
      <trkpt lat="43.20364" lon="2.5387">
        <ele>90.8</ele>
        <time>2017-01-20T15:42:48Z</time>
      </trkpt>
      <trkpt lat="43.20363" lon="2.53871">
        <ele>91</ele>
        <time>2017-01-20T15:42:49Z</time>
      </trkpt>
      <trkpt lat="43.20361" lon="2.53873">
        <ele>92.1</ele>
        <time>2017-01-20T15:42:55Z</time>
      </trkpt>
      <trkpt lat="43.20361" lon="2.53873">
        <ele>92.4</ele>
        <time>2017-01-20T15:42:56Z</time>
      </trkpt>
      <trkpt lat="43.20361" lon="2.53873">
        <ele>92.7</ele>
        <time>2017-01-20T15:42:57Z</time>
      </trkpt>
      <trkpt lat="43.20358" lon="2.53878">
        <ele>92.2</ele>
        <time>2017-01-20T15:42:58Z</time>
      </trkpt>
      <trkpt lat="43.20357" lon="2.53879">
        <ele>91.9</ele>
        <time>2017-01-20T15:42:59Z</time>
      </trkpt>
      <trkpt lat="43.20356" lon="2.5388">
        <ele>91.7</ele>
        <time>2017-01-20T15:43:00Z</time>
      </trkpt>
      <trkpt lat="43.20356" lon="2.53882">
        <ele>91.7</ele>
        <time>2017-01-20T15:43:01Z</time>
      </trkpt>
      <trkpt lat="43.20355" lon="2.53885">
        <ele>91.8</ele>
        <time>2017-01-20T15:43:04Z</time>
      </trkpt>
      <trkpt lat="43.20355" lon="2.53885">
        <ele>91.8</ele>
        <time>2017-01-20T15:43:05Z</time>
      </trkpt>
      <trkpt lat="43.20355" lon="2.53885">
        <ele>91.8</ele>
        <time>2017-01-20T15:43:06Z</time>
      </trkpt>
      <trkpt lat="43.20355" lon="2.53885">
        <ele>91.8</ele>
        <time>2017-01-20T15:43:07Z</time>
      </trkpt>
      <trkpt lat="43.20355" lon="2.53885">
        <ele>91.8</ele>
        <time>2017-01-20T15:43:08Z</time>
      </trkpt>
      <trkpt lat="43.20355" lon="2.53885">
        <ele>91.8</ele>
        <time>2017-01-20T15:43:09Z</time>
      </trkpt>
      <trkpt lat="43.20355" lon="2.53885">
        <ele>91.8</ele>
        <time>2017-01-20T15:43:10Z</time>
      </trkpt>
      <trkpt lat="43.20355" lon="2.53885">
        <ele>91.8</ele>
        <time>2017-01-20T15:43:11Z</time>
      </trkpt>
      <trkpt lat="43.20355" lon="2.53885">
        <ele>91.8</ele>
        <time>2017-01-20T15:43:12Z</time>
      </trkpt>
      <trkpt lat="43.20355" lon="2.53885">
        <ele>91.8</ele>
        <time>2017-01-20T15:43:13Z</time>
      </trkpt>
      <trkpt lat="43.20355" lon="2.53885">
        <ele>91.8</ele>
        <time>2017-01-20T15:43:14Z</time>
      </trkpt>
      <trkpt lat="43.20355" lon="2.53885">
        <ele>91.8</ele>
        <time>2017-01-20T15:43:15Z</time>
      </trkpt>
      <trkpt lat="43.20355" lon="2.53885">
        <ele>91.8</ele>
        <time>2017-01-20T15:43:16Z</time>
      </trkpt>
      <trkpt lat="43.20355" lon="2.53885">
        <ele>91.8</ele>
        <time>2017-01-20T15:43:17Z</time>
      </trkpt>
      <trkpt lat="43.20355" lon="2.53885">
        <ele>91.8</ele>
        <time>2017-01-20T15:43:18Z</time>
      </trkpt>
      <trkpt lat="43.20355" lon="2.53885">
        <ele>92.2</ele>
        <time>2017-01-20T15:43:19Z</time>
      </trkpt>
      <trkpt lat="43.20355" lon="2.53885">
        <ele>92.5</ele>
        <time>2017-01-20T15:43:20Z</time>
      </trkpt>
      <trkpt lat="43.20355" lon="2.53885">
        <ele>92.7</ele>
        <time>2017-01-20T15:43:21Z</time>
      </trkpt>
      <trkpt lat="43.20355" lon="2.53885">
        <ele>92.5</ele>
        <time>2017-01-20T15:43:22Z</time>
      </trkpt>
      <trkpt lat="43.20355" lon="2.53885">
        <ele>92.3</ele>
        <time>2017-01-20T15:43:23Z</time>
      </trkpt>
      <trkpt lat="43.20355" lon="2.53885">
        <ele>92.2</ele>
        <time>2017-01-20T15:43:24Z</time>
      </trkpt>
      <trkpt lat="43.20355" lon="2.53885">
        <ele>92.5</ele>
        <time>2017-01-20T15:43:25Z</time>
      </trkpt>
      <trkpt lat="43.20355" lon="2.53885">
        <ele>92.7</ele>
        <time>2017-01-20T15:43:26Z</time>
      </trkpt>
      <trkpt lat="43.20355" lon="2.53885">
        <ele>92.9</ele>
        <time>2017-01-20T15:43:27Z</time>
      </trkpt>
      <trkpt lat="43.20355" lon="2.53886">
        <ele>92.6</ele>
        <time>2017-01-20T15:43:28Z</time>
      </trkpt>
      <trkpt lat="43.20335" lon="2.53969">
        <ele>92</ele>
        <time>2017-01-20T15:43:44Z</time>
      </trkpt>
      <trkpt lat="43.20334" lon="2.53975">
        <ele>91.9</ele>
        <time>2017-01-20T15:43:45Z</time>
      </trkpt>
      <trkpt lat="43.20334" lon="2.53984">
        <ele>91.1</ele>
        <time>2017-01-20T15:43:47Z</time>
      </trkpt>
      <trkpt lat="43.20334" lon="2.53992">
        <ele>90.9</ele>
        <time>2017-01-20T15:43:49Z</time>
      </trkpt>
      <trkpt lat="43.20333" lon="2.53996">
        <ele>90.9</ele>
        <time>2017-01-20T15:43:50Z</time>
      </trkpt>
      <trkpt lat="43.20331" lon="2.53998">
        <ele>90.9</ele>
        <time>2017-01-20T15:43:51Z</time>
      </trkpt>
      <trkpt lat="43.20327" lon="2.54006">
        <ele>91.7</ele>
        <time>2017-01-20T15:43:53Z</time>
      </trkpt>
      <trkpt lat="43.20326" lon="2.54012">
        <ele>91.9</ele>
        <time>2017-01-20T15:43:54Z</time>
      </trkpt>
      <trkpt lat="43.2032" lon="2.54054">
        <ele>91.8</ele>
        <time>2017-01-20T15:44:02Z</time>
      </trkpt>
      <trkpt lat="43.20318" lon="2.54082">
        <ele>93.1</ele>
        <time>2017-01-20T15:44:08Z</time>
      </trkpt>
      <trkpt lat="43.20318" lon="2.54134">
        <ele>95.6</ele>
        <time>2017-01-20T15:44:19Z</time>
      </trkpt>
      <trkpt lat="43.20319" lon="2.54197">
        <ele>98.9</ele>
        <time>2017-01-20T15:44:39Z</time>
      </trkpt>
      <trkpt lat="43.20319" lon="2.54197">
        <ele>98.8</ele>
        <time>2017-01-20T15:44:40Z</time>
      </trkpt>
      <trkpt lat="43.20319" lon="2.54197">
        <ele>98.7</ele>
        <time>2017-01-20T15:44:41Z</time>
      </trkpt>
      <trkpt lat="43.20319" lon="2.54197">
        <ele>98.6</ele>
        <time>2017-01-20T15:44:42Z</time>
      </trkpt>
      <trkpt lat="43.20319" lon="2.54197">
        <ele>98.8</ele>
        <time>2017-01-20T15:44:43Z</time>
      </trkpt>
      <trkpt lat="43.20319" lon="2.54197">
        <ele>98.9</ele>
        <time>2017-01-20T15:44:44Z</time>
      </trkpt>
      <trkpt lat="43.20319" lon="2.54197">
        <ele>99</ele>
        <time>2017-01-20T15:44:45Z</time>
      </trkpt>
      <trkpt lat="43.20319" lon="2.54197">
        <ele>99.1</ele>
        <time>2017-01-20T15:44:46Z</time>
      </trkpt>
      <trkpt lat="43.20319" lon="2.54197">
        <ele>99.1</ele>
        <time>2017-01-20T15:44:47Z</time>
      </trkpt>
      <trkpt lat="43.20319" lon="2.54197">
        <ele>99.2</ele>
        <time>2017-01-20T15:44:48Z</time>
      </trkpt>
      <trkpt lat="43.20319" lon="2.54197">
        <ele>99.4</ele>
        <time>2017-01-20T15:44:49Z</time>
      </trkpt>
      <trkpt lat="43.20319" lon="2.54197">
        <ele>99.6</ele>
        <time>2017-01-20T15:44:50Z</time>
      </trkpt>
      <trkpt lat="43.20319" lon="2.54197">
        <ele>99.7</ele>
        <time>2017-01-20T15:44:51Z</time>
      </trkpt>
      <trkpt lat="43.20319" lon="2.54197">
        <ele>99.6</ele>
        <time>2017-01-20T15:44:52Z</time>
      </trkpt>
      <trkpt lat="43.20319" lon="2.54197">
        <ele>99.5</ele>
        <time>2017-01-20T15:44:53Z</time>
      </trkpt>
      <trkpt lat="43.20319" lon="2.54197">
        <ele>99.4</ele>
        <time>2017-01-20T15:44:54Z</time>
      </trkpt>
      <trkpt lat="43.20319" lon="2.54197">
        <ele>99.6</ele>
        <time>2017-01-20T15:44:55Z</time>
      </trkpt>
      <trkpt lat="43.20319" lon="2.54197">
        <ele>99.7</ele>
        <time>2017-01-20T15:44:56Z</time>
      </trkpt>
      <trkpt lat="43.20319" lon="2.54197">
        <ele>99.8</ele>
        <time>2017-01-20T15:44:57Z</time>
      </trkpt>
      <trkpt lat="43.20319" lon="2.54197">
        <ele>99.9</ele>
        <time>2017-01-20T15:44:58Z</time>
      </trkpt>
      <trkpt lat="43.20319" lon="2.54197">
        <ele>99.9</ele>
        <time>2017-01-20T15:44:59Z</time>
      </trkpt>
      <trkpt lat="43.20319" lon="2.54197">
        <ele>100</ele>
        <time>2017-01-20T15:45:00Z</time>
      </trkpt>
      <trkpt lat="43.20319" lon="2.54197">
        <ele>99.8</ele>
        <time>2017-01-20T15:45:01Z</time>
      </trkpt>
      <trkpt lat="43.20319" lon="2.54197">
        <ele>99.7</ele>
        <time>2017-01-20T15:45:02Z</time>
      </trkpt>
      <trkpt lat="43.20319" lon="2.54197">
        <ele>99.6</ele>
        <time>2017-01-20T15:45:03Z</time>
      </trkpt>
      <trkpt lat="43.20319" lon="2.54197">
        <ele>99.7</ele>
        <time>2017-01-20T15:45:04Z</time>
      </trkpt>
      <trkpt lat="43.20319" lon="2.54197">
        <ele>99.8</ele>
        <time>2017-01-20T15:45:05Z</time>
      </trkpt>
      <trkpt lat="43.20319" lon="2.54197">
        <ele>99.9</ele>
        <time>2017-01-20T15:45:06Z</time>
      </trkpt>
      <trkpt lat="43.20319" lon="2.54197">
        <ele>99.5</ele>
        <time>2017-01-20T15:45:07Z</time>
      </trkpt>
      <trkpt lat="43.20319" lon="2.54197">
        <ele>99.2</ele>
        <time>2017-01-20T15:45:08Z</time>
      </trkpt>
      <trkpt lat="43.20319" lon="2.54197">
        <ele>99</ele>
        <time>2017-01-20T15:45:09Z</time>
      </trkpt>
      <trkpt lat="43.20319" lon="2.54197">
        <ele>99.1</ele>
        <time>2017-01-20T15:45:10Z</time>
      </trkpt>
      <trkpt lat="43.20319" lon="2.54197">
        <ele>99.1</ele>
        <time>2017-01-20T15:45:11Z</time>
      </trkpt>
      <trkpt lat="43.20319" lon="2.54197">
        <ele>99.2</ele>
        <time>2017-01-20T15:45:12Z</time>
      </trkpt>
      <trkpt lat="43.20319" lon="2.54197">
        <ele>99.2</ele>
        <time>2017-01-20T15:45:13Z</time>
      </trkpt>
      <trkpt lat="43.20319" lon="2.54197">
        <ele>99.2</ele>
        <time>2017-01-20T15:45:14Z</time>
      </trkpt>
      <trkpt lat="43.20319" lon="2.54197">
        <ele>99.2</ele>
        <time>2017-01-20T15:45:15Z</time>
      </trkpt>
      <trkpt lat="43.20319" lon="2.54197">
        <ele>99.9</ele>
        <time>2017-01-20T15:45:17Z</time>
      </trkpt>
      <trkpt lat="43.20319" lon="2.54197">
        <ele>100.3</ele>
        <time>2017-01-20T15:45:18Z</time>
      </trkpt>
      <trkpt lat="43.20319" lon="2.54197">
        <ele>100.7</ele>
        <time>2017-01-20T15:45:19Z</time>
      </trkpt>
      <trkpt lat="43.20319" lon="2.54197">
        <ele>100.3</ele>
        <time>2017-01-20T15:45:20Z</time>
      </trkpt>
      <trkpt lat="43.20319" lon="2.54197">
        <ele>100.1</ele>
        <time>2017-01-20T15:45:22Z</time>
      </trkpt>
      <trkpt lat="43.20307" lon="2.54183">
        <ele>99.7</ele>
        <time>2017-01-20T15:46:50Z</time>
      </trkpt>
      <trkpt lat="43.20307" lon="2.54183">
        <ele>99.3</ele>
        <time>2017-01-20T15:46:51Z</time>
      </trkpt>
      <trkpt lat="43.20307" lon="2.54183">
        <ele>99.1</ele>
        <time>2017-01-20T15:46:52Z</time>
      </trkpt>
      <trkpt lat="43.20307" lon="2.54183">
        <ele>99.4</ele>
        <time>2017-01-20T15:46:53Z</time>
      </trkpt>
      <trkpt lat="43.20307" lon="2.54183">
        <ele>99.5</ele>
        <time>2017-01-20T15:46:54Z</time>
      </trkpt>
      <trkpt lat="43.20307" lon="2.54183">
        <ele>99.7</ele>
        <time>2017-01-20T15:46:55Z</time>
      </trkpt>
      <trkpt lat="43.20307" lon="2.54183">
        <ele>100</ele>
        <time>2017-01-20T15:46:56Z</time>
      </trkpt>
      <trkpt lat="43.20307" lon="2.54183">
        <ele>100.2</ele>
        <time>2017-01-20T15:46:57Z</time>
      </trkpt>
      <trkpt lat="43.20307" lon="2.54183">
        <ele>100.4</ele>
        <time>2017-01-20T15:46:58Z</time>
      </trkpt>
      <trkpt lat="43.20307" lon="2.54183">
        <ele>100.1</ele>
        <time>2017-01-20T15:46:59Z</time>
      </trkpt>
      <trkpt lat="43.20307" lon="2.54183">
        <ele>99.9</ele>
        <time>2017-01-20T15:47:00Z</time>
      </trkpt>
      <trkpt lat="43.20309" lon="2.54189">
        <ele>99.7</ele>
        <time>2017-01-20T15:47:01Z</time>
      </trkpt>
      <trkpt lat="43.20309" lon="2.54189">
        <ele>99.2</ele>
        <time>2017-01-20T15:47:02Z</time>
      </trkpt>
      <trkpt lat="43.20309" lon="2.54189">
        <ele>98.8</ele>
        <time>2017-01-20T15:47:03Z</time>
      </trkpt>
      <trkpt lat="43.20309" lon="2.54189">
        <ele>98.5</ele>
        <time>2017-01-20T15:47:05Z</time>
      </trkpt>
      <trkpt lat="43.20309" lon="2.54189">
        <ele>98.5</ele>
        <time>2017-01-20T15:47:06Z</time>
      </trkpt>
      <trkpt lat="43.2031" lon="2.5419">
        <ele>98.5</ele>
        <time>2017-01-20T15:47:07Z</time>
      </trkpt>
      <trkpt lat="43.2031" lon="2.5419">
        <ele>98.7</ele>
        <time>2017-01-20T15:47:08Z</time>
      </trkpt>
      <trkpt lat="43.2031" lon="2.54191">
        <ele>98.8</ele>
        <time>2017-01-20T15:47:09Z</time>
      </trkpt>
      <trkpt lat="43.20311" lon="2.54191">
        <ele>98.9</ele>
        <time>2017-01-20T15:47:10Z</time>
      </trkpt>
      <trkpt lat="43.20312" lon="2.54192">
        <ele>98.8</ele>
        <time>2017-01-20T15:47:11Z</time>
      </trkpt>
      <trkpt lat="43.20312" lon="2.54192">
        <ele>98.7</ele>
        <time>2017-01-20T15:47:12Z</time>
      </trkpt>
      <trkpt lat="43.20313" lon="2.54192">
        <ele>98.6</ele>
        <time>2017-01-20T15:47:13Z</time>
      </trkpt>
      <trkpt lat="43.20313" lon="2.54193">
        <ele>98.2</ele>
        <time>2017-01-20T15:47:14Z</time>
      </trkpt>
      <trkpt lat="43.20313" lon="2.54193">
        <ele>97.8</ele>
        <time>2017-01-20T15:47:15Z</time>
      </trkpt>
      <trkpt lat="43.20314" lon="2.54194">
        <ele>97.6</ele>
        <time>2017-01-20T15:47:16Z</time>
      </trkpt>
      <trkpt lat="43.20314" lon="2.54194">
        <ele>97.8</ele>
        <time>2017-01-20T15:47:17Z</time>
      </trkpt>
      <trkpt lat="43.20314" lon="2.54194">
        <ele>97.9</ele>
        <time>2017-01-20T15:47:18Z</time>
      </trkpt>
      <trkpt lat="43.20315" lon="2.54195">
        <ele>98.1</ele>
        <time>2017-01-20T15:47:19Z</time>
      </trkpt>
      <trkpt lat="43.20315" lon="2.54195">
        <ele>97.9</ele>
        <time>2017-01-20T15:47:20Z</time>
      </trkpt>
      <trkpt lat="43.20315" lon="2.54195">
        <ele>97.9</ele>
        <time>2017-01-20T15:47:21Z</time>
      </trkpt>
      <trkpt lat="43.20315" lon="2.54195">
        <ele>97.8</ele>
        <time>2017-01-20T15:47:22Z</time>
      </trkpt>
      <trkpt lat="43.20316" lon="2.54195">
        <ele>97.7</ele>
        <time>2017-01-20T15:47:23Z</time>
      </trkpt>
      <trkpt lat="43.20316" lon="2.54196">
        <ele>97.7</ele>
        <time>2017-01-20T15:47:24Z</time>
      </trkpt>
      <trkpt lat="43.20316" lon="2.54196">
        <ele>97.7</ele>
        <time>2017-01-20T15:47:25Z</time>
      </trkpt>
      <trkpt lat="43.20316" lon="2.54196">
        <ele>97.7</ele>
        <time>2017-01-20T15:47:26Z</time>
      </trkpt>
      <trkpt lat="43.20317" lon="2.54196">
        <ele>97.6</ele>
        <time>2017-01-20T15:47:28Z</time>
      </trkpt>
      <trkpt lat="43.20317" lon="2.54196">
        <ele>97.4</ele>
        <time>2017-01-20T15:47:29Z</time>
      </trkpt>
      <trkpt lat="43.20317" lon="2.54196">
        <ele>97.3</ele>
        <time>2017-01-20T15:47:30Z</time>
      </trkpt>
      <trkpt lat="43.20318" lon="2.54196">
        <ele>98.1</ele>
        <time>2017-01-20T15:47:33Z</time>
      </trkpt>
      <trkpt lat="43.20318" lon="2.54196">
        <ele>98.4</ele>
        <time>2017-01-20T15:47:34Z</time>
      </trkpt>
      <trkpt lat="43.20318" lon="2.54196">
        <ele>98.8</ele>
        <time>2017-01-20T15:47:35Z</time>
      </trkpt>
      <trkpt lat="43.20318" lon="2.54196">
        <ele>99.1</ele>
        <time>2017-01-20T15:47:36Z</time>
      </trkpt>
      <trkpt lat="43.20318" lon="2.54196">
        <ele>99.4</ele>
        <time>2017-01-20T15:47:37Z</time>
      </trkpt>
      <trkpt lat="43.20318" lon="2.54196">
        <ele>99.5</ele>
        <time>2017-01-20T15:47:38Z</time>
      </trkpt>
      <trkpt lat="43.20318" lon="2.54196">
        <ele>99.7</ele>
        <time>2017-01-20T15:47:39Z</time>
      </trkpt>
      <trkpt lat="43.20318" lon="2.54196">
        <ele>99.8</ele>
        <time>2017-01-20T15:47:40Z</time>
      </trkpt>
      <trkpt lat="43.20318" lon="2.54196">
        <ele>99.4</ele>
        <time>2017-01-20T15:47:41Z</time>
      </trkpt>
      <trkpt lat="43.20318" lon="2.54196">
        <ele>99.2</ele>
        <time>2017-01-20T15:47:42Z</time>
      </trkpt>
      <trkpt lat="43.20318" lon="2.54196">
        <ele>99</ele>
        <time>2017-01-20T15:47:43Z</time>
      </trkpt>
      <trkpt lat="43.20318" lon="2.54196">
        <ele>99.1</ele>
        <time>2017-01-20T15:47:44Z</time>
      </trkpt>
      <trkpt lat="43.20319" lon="2.54196">
        <ele>99.1</ele>
        <time>2017-01-20T15:47:45Z</time>
      </trkpt>
      <trkpt lat="43.20319" lon="2.54196">
        <ele>99.2</ele>
        <time>2017-01-20T15:47:46Z</time>
      </trkpt>
      <trkpt lat="43.20319" lon="2.54196">
        <ele>99.2</ele>
        <time>2017-01-20T15:47:47Z</time>
      </trkpt>
      <trkpt lat="43.20319" lon="2.54196">
        <ele>99.2</ele>
        <time>2017-01-20T15:47:48Z</time>
      </trkpt>
      <trkpt lat="43.20319" lon="2.54195">
        <ele>99.2</ele>
        <time>2017-01-20T15:47:49Z</time>
      </trkpt>
      <trkpt lat="43.20319" lon="2.54195">
        <ele>99</ele>
        <time>2017-01-20T15:47:50Z</time>
      </trkpt>
      <trkpt lat="43.20319" lon="2.54195">
        <ele>98.9</ele>
        <time>2017-01-20T15:47:51Z</time>
      </trkpt>
      <trkpt lat="43.20319" lon="2.54195">
        <ele>98.8</ele>
        <time>2017-01-20T15:47:52Z</time>
      </trkpt>
      <trkpt lat="43.20319" lon="2.54195">
        <ele>98.7</ele>
        <time>2017-01-20T15:47:53Z</time>
      </trkpt>
      <trkpt lat="43.20319" lon="2.54195">
        <ele>98.6</ele>
        <time>2017-01-20T15:47:54Z</time>
      </trkpt>
      <trkpt lat="43.20319" lon="2.54195">
        <ele>98.6</ele>
        <time>2017-01-20T15:47:55Z</time>
      </trkpt>
      <trkpt lat="43.20319" lon="2.54195">
        <ele>98.5</ele>
        <time>2017-01-20T15:47:56Z</time>
      </trkpt>
      <trkpt lat="43.2032" lon="2.54195">
        <ele>98.5</ele>
        <time>2017-01-20T15:47:57Z</time>
      </trkpt>
      <trkpt lat="43.2032" lon="2.54194">
        <ele>98.5</ele>
        <time>2017-01-20T15:47:58Z</time>
      </trkpt>
      <trkpt lat="43.2032" lon="2.54194">
        <ele>98.5</ele>
        <time>2017-01-20T15:47:59Z</time>
      </trkpt>
      <trkpt lat="43.2032" lon="2.54194">
        <ele>98.5</ele>
        <time>2017-01-20T15:48:00Z</time>
      </trkpt>
      <trkpt lat="43.20321" lon="2.54194">
        <ele>98.5</ele>
        <time>2017-01-20T15:48:01Z</time>
      </trkpt>
      <trkpt lat="43.20321" lon="2.54194">
        <ele>98.2</ele>
        <time>2017-01-20T15:48:02Z</time>
      </trkpt>
      <trkpt lat="43.20321" lon="2.54194">
        <ele>98.1</ele>
        <time>2017-01-20T15:48:03Z</time>
      </trkpt>
      <trkpt lat="43.20321" lon="2.54194">
        <ele>98</ele>
        <time>2017-01-20T15:48:04Z</time>
      </trkpt>
      <trkpt lat="43.20321" lon="2.54194">
        <ele>97.9</ele>
        <time>2017-01-20T15:48:05Z</time>
      </trkpt>
      <trkpt lat="43.20322" lon="2.54194">
        <ele>97.8</ele>
        <time>2017-01-20T15:48:06Z</time>
      </trkpt>
      <trkpt lat="43.20322" lon="2.54194">
        <ele>97.8</ele>
        <time>2017-01-20T15:48:07Z</time>
      </trkpt>
      <trkpt lat="43.20322" lon="2.54194">
        <ele>97.9</ele>
        <time>2017-01-20T15:48:08Z</time>
      </trkpt>
      <trkpt lat="43.20321" lon="2.54194">
        <ele>98.1</ele>
        <time>2017-01-20T15:48:10Z</time>
      </trkpt>
      <trkpt lat="43.20321" lon="2.54194">
        <ele>98.2</ele>
        <time>2017-01-20T15:48:11Z</time>
      </trkpt>
      <trkpt lat="43.20321" lon="2.54194">
        <ele>98.3</ele>
        <time>2017-01-20T15:48:12Z</time>
      </trkpt>
      <trkpt lat="43.20321" lon="2.54194">
        <ele>98.3</ele>
        <time>2017-01-20T15:48:13Z</time>
      </trkpt>
      <trkpt lat="43.20321" lon="2.54194">
        <ele>98.5</ele>
        <time>2017-01-20T15:48:14Z</time>
      </trkpt>
      <trkpt lat="43.20321" lon="2.54194">
        <ele>98.7</ele>
        <time>2017-01-20T15:48:15Z</time>
      </trkpt>
      <trkpt lat="43.20321" lon="2.54194">
        <ele>98.9</ele>
        <time>2017-01-20T15:48:16Z</time>
      </trkpt>
      <trkpt lat="43.20321" lon="2.54194">
        <ele>99.2</ele>
        <time>2017-01-20T15:48:17Z</time>
      </trkpt>
      <trkpt lat="43.20321" lon="2.54194">
        <ele>99.4</ele>
        <time>2017-01-20T15:48:18Z</time>
      </trkpt>
      <trkpt lat="43.20321" lon="2.54195">
        <ele>99.6</ele>
        <time>2017-01-20T15:48:19Z</time>
      </trkpt>
      <trkpt lat="43.20321" lon="2.54195">
        <ele>99.3</ele>
        <time>2017-01-20T15:48:20Z</time>
      </trkpt>
      <trkpt lat="43.20321" lon="2.54195">
        <ele>99.1</ele>
        <time>2017-01-20T15:48:21Z</time>
      </trkpt>
      <trkpt lat="43.20321" lon="2.54195">
        <ele>98.9</ele>
        <time>2017-01-20T15:48:22Z</time>
      </trkpt>
      <trkpt lat="43.2032" lon="2.54194">
        <ele>99.2</ele>
        <time>2017-01-20T15:48:23Z</time>
      </trkpt>
      <trkpt lat="43.2032" lon="2.54194">
        <ele>99.4</ele>
        <time>2017-01-20T15:48:24Z</time>
      </trkpt>
      <trkpt lat="43.2032" lon="2.54193">
        <ele>99.6</ele>
        <time>2017-01-20T15:48:25Z</time>
      </trkpt>
      <trkpt lat="43.2032" lon="2.54194">
        <ele>99.5</ele>
        <time>2017-01-20T15:48:26Z</time>
      </trkpt>
      <trkpt lat="43.2032" lon="2.54194">
        <ele>99.2</ele>
        <time>2017-01-20T15:48:29Z</time>
      </trkpt>
      <trkpt lat="43.2032" lon="2.54194">
        <ele>99</ele>
        <time>2017-01-20T15:48:30Z</time>
      </trkpt>
      <trkpt lat="43.2032" lon="2.54194">
        <ele>99</ele>
        <time>2017-01-20T15:48:33Z</time>
      </trkpt>
      <trkpt lat="43.2032" lon="2.54194">
        <ele>99.1</ele>
        <time>2017-01-20T15:48:34Z</time>
      </trkpt>
      <trkpt lat="43.20319" lon="2.54194">
        <ele>99.3</ele>
        <time>2017-01-20T15:48:35Z</time>
      </trkpt>
      <trkpt lat="43.20319" lon="2.54194">
        <ele>99.5</ele>
        <time>2017-01-20T15:48:36Z</time>
      </trkpt>
      <trkpt lat="43.20319" lon="2.54188">
        <ele>99.4</ele>
        <time>2017-01-20T15:48:40Z</time>
      </trkpt>
      <trkpt lat="43.20319" lon="2.5417">
        <ele>98.9</ele>
        <time>2017-01-20T15:48:45Z</time>
      </trkpt>
      <trkpt lat="43.20325" lon="2.5403">
        <ele>93.3</ele>
        <time>2017-01-20T15:49:11Z</time>
      </trkpt>
      <trkpt lat="43.20326" lon="2.54023">
        <ele>93.3</ele>
        <time>2017-01-20T15:49:12Z</time>
      </trkpt>
      <trkpt lat="43.20343" lon="2.5391">
        <ele>91.4</ele>
        <time>2017-01-20T15:49:32Z</time>
      </trkpt>
      <trkpt lat="43.20342" lon="2.53908">
        <ele>91.5</ele>
        <time>2017-01-20T15:49:33Z</time>
      </trkpt>
      <trkpt lat="43.2034" lon="2.53908">
        <ele>91.6</ele>
        <time>2017-01-20T15:49:34Z</time>
      </trkpt>
      <trkpt lat="43.20338" lon="2.53908">
        <ele>91.6</ele>
        <time>2017-01-20T15:49:35Z</time>
      </trkpt>
      <trkpt lat="43.20338" lon="2.53908">
        <ele>91.7</ele>
        <time>2017-01-20T15:49:36Z</time>
      </trkpt>
      <trkpt lat="43.20338" lon="2.53908">
        <ele>91.7</ele>
        <time>2017-01-20T15:49:37Z</time>
      </trkpt>
      <trkpt lat="43.20338" lon="2.53908">
        <ele>91.5</ele>
        <time>2017-01-20T15:49:38Z</time>
      </trkpt>
      <trkpt lat="43.20338" lon="2.53908">
        <ele>91.4</ele>
        <time>2017-01-20T15:49:39Z</time>
      </trkpt>
      <trkpt lat="43.20338" lon="2.53908">
        <ele>91.3</ele>
        <time>2017-01-20T15:49:40Z</time>
      </trkpt>
      <trkpt lat="43.20338" lon="2.53908">
        <ele>91.2</ele>
        <time>2017-01-20T15:49:41Z</time>
      </trkpt>
      <trkpt lat="43.20338" lon="2.53908">
        <ele>91.1</ele>
        <time>2017-01-20T15:49:42Z</time>
      </trkpt>
      <trkpt lat="43.20338" lon="2.53908">
        <ele>91.1</ele>
        <time>2017-01-20T15:49:43Z</time>
      </trkpt>
      <trkpt lat="43.20338" lon="2.53908">
        <ele>91.1</ele>
        <time>2017-01-20T15:49:44Z</time>
      </trkpt>
      <trkpt lat="43.20338" lon="2.53908">
        <ele>91</ele>
        <time>2017-01-20T15:49:45Z</time>
      </trkpt>
      <trkpt lat="43.20338" lon="2.53908">
        <ele>91</ele>
        <time>2017-01-20T15:49:46Z</time>
      </trkpt>
      <trkpt lat="43.20338" lon="2.53908">
        <ele>90.8</ele>
        <time>2017-01-20T15:49:47Z</time>
      </trkpt>
      <trkpt lat="43.20338" lon="2.53908">
        <ele>90.6</ele>
        <time>2017-01-20T15:49:48Z</time>
      </trkpt>
      <trkpt lat="43.20338" lon="2.53908">
        <ele>90.5</ele>
        <time>2017-01-20T15:49:49Z</time>
      </trkpt>
      <trkpt lat="43.20338" lon="2.53908">
        <ele>90.8</ele>
        <time>2017-01-20T15:49:50Z</time>
      </trkpt>
      <trkpt lat="43.20338" lon="2.53908">
        <ele>91.1</ele>
        <time>2017-01-20T15:49:51Z</time>
      </trkpt>
      <trkpt lat="43.20338" lon="2.53908">
        <ele>91.2</ele>
        <time>2017-01-20T15:49:52Z</time>
      </trkpt>
      <trkpt lat="43.20338" lon="2.53908">
        <ele>91.4</ele>
        <time>2017-01-20T15:49:53Z</time>
      </trkpt>
      <trkpt lat="43.20338" lon="2.53908">
        <ele>91.5</ele>
        <time>2017-01-20T15:49:54Z</time>
      </trkpt>
      <trkpt lat="43.20338" lon="2.53908">
        <ele>91.6</ele>
        <time>2017-01-20T15:49:55Z</time>
      </trkpt>
      <trkpt lat="43.20338" lon="2.53908">
        <ele>91.2</ele>
        <time>2017-01-20T15:49:56Z</time>
      </trkpt>
      <trkpt lat="43.20338" lon="2.53908">
        <ele>90.9</ele>
        <time>2017-01-20T15:49:57Z</time>
      </trkpt>
      <trkpt lat="43.20338" lon="2.53908">
        <ele>90.7</ele>
        <time>2017-01-20T15:49:58Z</time>
      </trkpt>
      <trkpt lat="43.20338" lon="2.53908">
        <ele>90.8</ele>
        <time>2017-01-20T15:49:59Z</time>
      </trkpt>
      <trkpt lat="43.20338" lon="2.53908">
        <ele>90.8</ele>
        <time>2017-01-20T15:50:00Z</time>
      </trkpt>
      <trkpt lat="43.20338" lon="2.53908">
        <ele>90.9</ele>
        <time>2017-01-20T15:50:01Z</time>
      </trkpt>
      <trkpt lat="43.20338" lon="2.53908">
        <ele>90.7</ele>
        <time>2017-01-20T15:50:02Z</time>
      </trkpt>
      <trkpt lat="43.20338" lon="2.53908">
        <ele>90.5</ele>
        <time>2017-01-20T15:50:03Z</time>
      </trkpt>
      <trkpt lat="43.20338" lon="2.53908">
        <ele>90.4</ele>
        <time>2017-01-20T15:50:04Z</time>
      </trkpt>
      <trkpt lat="43.20338" lon="2.53908">
        <ele>91</ele>
        <time>2017-01-20T15:50:05Z</time>
      </trkpt>
      <trkpt lat="43.20338" lon="2.53908">
        <ele>91.4</ele>
        <time>2017-01-20T15:50:06Z</time>
      </trkpt>
      <trkpt lat="43.20338" lon="2.53908">
        <ele>91.7</ele>
        <time>2017-01-20T15:50:07Z</time>
      </trkpt>
      <trkpt lat="43.20338" lon="2.53908">
        <ele>91.7</ele>
        <time>2017-01-20T15:50:08Z</time>
      </trkpt>
      <trkpt lat="43.20336" lon="2.53906">
        <ele>91.7</ele>
        <time>2017-01-20T15:50:09Z</time>
      </trkpt>
      <trkpt lat="43.20333" lon="2.53906">
        <ele>91.8</ele>
        <time>2017-01-20T15:50:10Z</time>
      </trkpt>
      <trkpt lat="43.20319" lon="2.539">
        <ele>91</ele>
        <time>2017-01-20T15:50:14Z</time>
      </trkpt>
      <trkpt lat="43.20314" lon="2.53897">
        <ele>90.8</ele>
        <time>2017-01-20T15:50:15Z</time>
      </trkpt>
      <trkpt lat="43.20295" lon="2.53878">
        <ele>90.1</ele>
        <time>2017-01-20T15:50:20Z</time>
      </trkpt>
      <trkpt lat="43.20289" lon="2.5387">
        <ele>89.5</ele>
        <time>2017-01-20T15:50:24Z</time>
      </trkpt>
      <trkpt lat="43.20289" lon="2.5387">
        <ele>89.5</ele>
        <time>2017-01-20T15:50:25Z</time>
      </trkpt>
      <trkpt lat="43.20289" lon="2.5387">
        <ele>89.2</ele>
        <time>2017-01-20T15:50:26Z</time>
      </trkpt>
      <trkpt lat="43.20289" lon="2.5387">
        <ele>89</ele>
        <time>2017-01-20T15:50:27Z</time>
      </trkpt>
      <trkpt lat="43.20289" lon="2.5387">
        <ele>88.9</ele>
        <time>2017-01-20T15:50:28Z</time>
      </trkpt>
      <trkpt lat="43.20289" lon="2.5387">
        <ele>88.8</ele>
        <time>2017-01-20T15:50:29Z</time>
      </trkpt>
      <trkpt lat="43.20289" lon="2.5387">
        <ele>88.7</ele>
        <time>2017-01-20T15:50:30Z</time>
      </trkpt>
      <trkpt lat="43.20289" lon="2.5387">
        <ele>88.7</ele>
        <time>2017-01-20T15:50:31Z</time>
      </trkpt>
      <trkpt lat="43.20289" lon="2.5387">
        <ele>88.6</ele>
        <time>2017-01-20T15:50:32Z</time>
      </trkpt>
      <trkpt lat="43.20287" lon="2.53866">
        <ele>88.6</ele>
        <time>2017-01-20T15:50:33Z</time>
      </trkpt>
      <trkpt lat="43.20264" lon="2.53827">
        <ele>88.5</ele>
        <time>2017-01-20T15:50:45Z</time>
      </trkpt>
      <trkpt lat="43.20263" lon="2.53824">
        <ele>88.5</ele>
        <time>2017-01-20T15:50:46Z</time>
      </trkpt>
      <trkpt lat="43.20259" lon="2.53809">
        <ele>88.2</ele>
        <time>2017-01-20T15:50:51Z</time>
      </trkpt>
      <trkpt lat="43.20259" lon="2.53807">
        <ele>88.3</ele>
        <time>2017-01-20T15:50:52Z</time>
      </trkpt>
      <trkpt lat="43.20258" lon="2.53804">
        <ele>88.3</ele>
        <time>2017-01-20T15:50:53Z</time>
      </trkpt>
      <trkpt lat="43.20257" lon="2.53803">
        <ele>88.4</ele>
        <time>2017-01-20T15:50:54Z</time>
      </trkpt>
      <trkpt lat="43.20257" lon="2.53803">
        <ele>88.4</ele>
        <time>2017-01-20T15:50:55Z</time>
      </trkpt>
      <trkpt lat="43.20257" lon="2.53803">
        <ele>88.2</ele>
        <time>2017-01-20T15:50:56Z</time>
      </trkpt>
      <trkpt lat="43.20257" lon="2.53803">
        <ele>88.1</ele>
        <time>2017-01-20T15:50:57Z</time>
      </trkpt>
      <trkpt lat="43.20257" lon="2.53803">
        <ele>88</ele>
        <time>2017-01-20T15:50:58Z</time>
      </trkpt>
      <trkpt lat="43.20257" lon="2.53803">
        <ele>88.1</ele>
        <time>2017-01-20T15:50:59Z</time>
      </trkpt>
      <trkpt lat="43.20257" lon="2.53803">
        <ele>88.2</ele>
        <time>2017-01-20T15:51:00Z</time>
      </trkpt>
      <trkpt lat="43.20257" lon="2.53803">
        <ele>88.3</ele>
        <time>2017-01-20T15:51:01Z</time>
      </trkpt>
      <trkpt lat="43.20257" lon="2.53803">
        <ele>88.1</ele>
        <time>2017-01-20T15:51:02Z</time>
      </trkpt>
      <trkpt lat="43.20257" lon="2.53803">
        <ele>88</ele>
        <time>2017-01-20T15:51:03Z</time>
      </trkpt>
      <trkpt lat="43.20254" lon="2.53798">
        <ele>87.9</ele>
        <time>2017-01-20T15:51:04Z</time>
      </trkpt>
      <trkpt lat="43.20253" lon="2.53795">
        <ele>87.8</ele>
        <time>2017-01-20T15:51:05Z</time>
      </trkpt>
      <trkpt lat="43.20238" lon="2.53745">
        <ele>87.1</ele>
        <time>2017-01-20T15:51:16Z</time>
      </trkpt>
      <trkpt lat="43.20237" lon="2.5374">
        <ele>87.7</ele>
        <time>2017-01-20T15:51:17Z</time>
      </trkpt>
      <trkpt lat="43.20204" lon="2.53606">
        <ele>89.2</ele>
        <time>2017-01-20T15:51:42Z</time>
      </trkpt>
      <trkpt lat="43.20202" lon="2.536">
        <ele>89.2</ele>
        <time>2017-01-20T15:51:43Z</time>
      </trkpt>
      <trkpt lat="43.20181" lon="2.53547">
        <ele>88.8</ele>
        <time>2017-01-20T15:51:55Z</time>
      </trkpt>
      <trkpt lat="43.20181" lon="2.53547">
        <ele>88.9</ele>
        <time>2017-01-20T15:51:56Z</time>
      </trkpt>
      <trkpt lat="43.20181" lon="2.53547">
        <ele>89</ele>
        <time>2017-01-20T15:51:57Z</time>
      </trkpt>
      <trkpt lat="43.20181" lon="2.53547">
        <ele>89.1</ele>
        <time>2017-01-20T15:51:58Z</time>
      </trkpt>
      <trkpt lat="43.20181" lon="2.53547">
        <ele>88.7</ele>
        <time>2017-01-20T15:51:59Z</time>
      </trkpt>
      <trkpt lat="43.20181" lon="2.53547">
        <ele>88.5</ele>
        <time>2017-01-20T15:52:00Z</time>
      </trkpt>
      <trkpt lat="43.20181" lon="2.53547">
        <ele>88.2</ele>
        <time>2017-01-20T15:52:01Z</time>
      </trkpt>
      <trkpt lat="43.20181" lon="2.53547">
        <ele>88.3</ele>
        <time>2017-01-20T15:52:02Z</time>
      </trkpt>
      <trkpt lat="43.20181" lon="2.53547">
        <ele>88.3</ele>
        <time>2017-01-20T15:52:03Z</time>
      </trkpt>
      <trkpt lat="43.20181" lon="2.53547">
        <ele>88.4</ele>
        <time>2017-01-20T15:52:04Z</time>
      </trkpt>
      <trkpt lat="43.2018" lon="2.53541">
        <ele>88.4</ele>
        <time>2017-01-20T15:52:05Z</time>
      </trkpt>
      <trkpt lat="43.20175" lon="2.53513">
        <ele>88</ele>
        <time>2017-01-20T15:52:10Z</time>
      </trkpt>
      <trkpt lat="43.20174" lon="2.53507">
        <ele>88.1</ele>
        <time>2017-01-20T15:52:11Z</time>
      </trkpt>
      <trkpt lat="43.20172" lon="2.53476">
        <ele>88.9</ele>
        <time>2017-01-20T15:52:16Z</time>
      </trkpt>
      <trkpt lat="43.20173" lon="2.5347">
        <ele>89</ele>
        <time>2017-01-20T15:52:17Z</time>
      </trkpt>
      <trkpt lat="43.20173" lon="2.53465">
        <ele>89.1</ele>
        <time>2017-01-20T15:52:18Z</time>
      </trkpt>
      <trkpt lat="43.20192" lon="2.53351">
        <ele>89</ele>
        <time>2017-01-20T15:52:38Z</time>
      </trkpt>
      <trkpt lat="43.20192" lon="2.53345">
        <ele>88.9</ele>
        <time>2017-01-20T15:52:39Z</time>
      </trkpt>
      <trkpt lat="43.20192" lon="2.53339">
        <ele>88.8</ele>
        <time>2017-01-20T15:52:40Z</time>
      </trkpt>
      <trkpt lat="43.2019" lon="2.53329">
        <ele>88.3</ele>
        <time>2017-01-20T15:52:42Z</time>
      </trkpt>
      <trkpt lat="43.20188" lon="2.53325">
        <ele>88.1</ele>
        <time>2017-01-20T15:52:43Z</time>
      </trkpt>
      <trkpt lat="43.20177" lon="2.533">
        <ele>88.8</ele>
        <time>2017-01-20T15:52:50Z</time>
      </trkpt>
      <trkpt lat="43.20176" lon="2.53299">
        <ele>89</ele>
        <time>2017-01-20T15:52:51Z</time>
      </trkpt>
      <trkpt lat="43.20176" lon="2.53299">
        <ele>89</ele>
        <time>2017-01-20T15:52:52Z</time>
      </trkpt>
      <trkpt lat="43.20176" lon="2.53299">
        <ele>89.1</ele>
        <time>2017-01-20T15:52:53Z</time>
      </trkpt>
      <trkpt lat="43.20176" lon="2.53299">
        <ele>89.2</ele>
        <time>2017-01-20T15:52:54Z</time>
      </trkpt>
      <trkpt lat="43.20176" lon="2.53299">
        <ele>89.2</ele>
        <time>2017-01-20T15:52:55Z</time>
      </trkpt>
      <trkpt lat="43.20176" lon="2.53299">
        <ele>88.8</ele>
        <time>2017-01-20T15:52:56Z</time>
      </trkpt>
      <trkpt lat="43.20176" lon="2.53299">
        <ele>88.5</ele>
        <time>2017-01-20T15:52:57Z</time>
      </trkpt>
      <trkpt lat="43.20176" lon="2.53299">
        <ele>88.3</ele>
        <time>2017-01-20T15:52:58Z</time>
      </trkpt>
      <trkpt lat="43.20176" lon="2.53299">
        <ele>88.1</ele>
        <time>2017-01-20T15:52:59Z</time>
      </trkpt>
      <trkpt lat="43.20174" lon="2.53296">
        <ele>88</ele>
        <time>2017-01-20T15:53:00Z</time>
      </trkpt>
      <trkpt lat="43.20162" lon="2.5328">
        <ele>88.5</ele>
        <time>2017-01-20T15:53:05Z</time>
      </trkpt>
      <trkpt lat="43.20159" lon="2.53277">
        <ele>88.7</ele>
        <time>2017-01-20T15:53:06Z</time>
      </trkpt>
      <trkpt lat="43.20149" lon="2.53269">
        <ele>88.7</ele>
        <time>2017-01-20T15:53:09Z</time>
      </trkpt>
      <trkpt lat="43.20124" lon="2.53244">
        <ele>89.1</ele>
        <time>2017-01-20T15:53:17Z</time>
      </trkpt>
      <trkpt lat="43.20122" lon="2.53241">
        <ele>89.1</ele>
        <time>2017-01-20T15:53:18Z</time>
      </trkpt>
      <trkpt lat="43.2012" lon="2.53238">
        <ele>89.2</ele>
        <time>2017-01-20T15:53:19Z</time>
      </trkpt>
      <trkpt lat="43.20118" lon="2.53234">
        <ele>89</ele>
        <time>2017-01-20T15:53:23Z</time>
      </trkpt>
      <trkpt lat="43.20118" lon="2.53234">
        <ele>88.9</ele>
        <time>2017-01-20T15:53:24Z</time>
      </trkpt>
      <trkpt lat="43.20118" lon="2.53234">
        <ele>88.8</ele>
        <time>2017-01-20T15:53:25Z</time>
      </trkpt>
      <trkpt lat="43.20118" lon="2.53234">
        <ele>88.9</ele>
        <time>2017-01-20T15:53:26Z</time>
      </trkpt>
      <trkpt lat="43.20118" lon="2.53234">
        <ele>89</ele>
        <time>2017-01-20T15:53:27Z</time>
      </trkpt>
      <trkpt lat="43.20118" lon="2.53234">
        <ele>89.1</ele>
        <time>2017-01-20T15:53:28Z</time>
      </trkpt>
      <trkpt lat="43.20118" lon="2.53234">
        <ele>88.9</ele>
        <time>2017-01-20T15:53:29Z</time>
      </trkpt>
      <trkpt lat="43.20118" lon="2.53234">
        <ele>88.8</ele>
        <time>2017-01-20T15:53:30Z</time>
      </trkpt>
      <trkpt lat="43.20118" lon="2.53234">
        <ele>88.7</ele>
        <time>2017-01-20T15:53:31Z</time>
      </trkpt>
      <trkpt lat="43.20116" lon="2.5323">
        <ele>88.7</ele>
        <time>2017-01-20T15:53:32Z</time>
      </trkpt>
      <trkpt lat="43.20108" lon="2.53182">
        <ele>88.9</ele>
        <time>2017-01-20T15:53:42Z</time>
      </trkpt>
      <trkpt lat="43.20106" lon="2.53164">
        <ele>88.6</ele>
        <time>2017-01-20T15:53:45Z</time>
      </trkpt>
      <trkpt lat="43.20103" lon="2.53095">
        <ele>89</ele>
        <time>2017-01-20T15:53:57Z</time>
      </trkpt>
      <trkpt lat="43.20103" lon="2.53095">
        <ele>89.1</ele>
        <time>2017-01-20T15:53:58Z</time>
      </trkpt>
      <trkpt lat="43.20103" lon="2.53095">
        <ele>88.9</ele>
        <time>2017-01-20T15:53:59Z</time>
      </trkpt>
      <trkpt lat="43.20103" lon="2.53095">
        <ele>88.8</ele>
        <time>2017-01-20T15:54:00Z</time>
      </trkpt>
      <trkpt lat="43.20103" lon="2.53095">
        <ele>88.7</ele>
        <time>2017-01-20T15:54:01Z</time>
      </trkpt>
      <trkpt lat="43.20103" lon="2.53095">
        <ele>88.5</ele>
        <time>2017-01-20T15:54:02Z</time>
      </trkpt>
      <trkpt lat="43.20103" lon="2.53095">
        <ele>88.3</ele>
        <time>2017-01-20T15:54:03Z</time>
      </trkpt>
      <trkpt lat="43.20103" lon="2.5309">
        <ele>88.1</ele>
        <time>2017-01-20T15:54:04Z</time>
      </trkpt>
      <trkpt lat="43.20109" lon="2.53014">
        <ele>88.5</ele>
        <time>2017-01-20T15:54:17Z</time>
      </trkpt>
      <trkpt lat="43.20132" lon="2.52815">
        <ele>89.2</ele>
        <time>2017-01-20T15:54:48Z</time>
      </trkpt>
      <trkpt lat="43.20132" lon="2.52811">
        <ele>89</ele>
        <time>2017-01-20T15:54:49Z</time>
      </trkpt>
      <trkpt lat="43.20132" lon="2.52808">
        <ele>88.8</ele>
        <time>2017-01-20T15:54:51Z</time>
      </trkpt>
      <trkpt lat="43.20132" lon="2.52808">
        <ele>88.7</ele>
        <time>2017-01-20T15:54:52Z</time>
      </trkpt>
      <trkpt lat="43.20132" lon="2.52808">
        <ele>88.6</ele>
        <time>2017-01-20T15:54:53Z</time>
      </trkpt>
      <trkpt lat="43.20132" lon="2.52808">
        <ele>88.6</ele>
        <time>2017-01-20T15:54:54Z</time>
      </trkpt>
      <trkpt lat="43.20132" lon="2.52808">
        <ele>88.6</ele>
        <time>2017-01-20T15:54:55Z</time>
      </trkpt>
      <trkpt lat="43.20132" lon="2.52808">
        <ele>88.5</ele>
        <time>2017-01-20T15:54:56Z</time>
      </trkpt>
      <trkpt lat="43.20132" lon="2.52808">
        <ele>88.5</ele>
        <time>2017-01-20T15:54:57Z</time>
      </trkpt>
      <trkpt lat="43.20131" lon="2.52804">
        <ele>88.5</ele>
        <time>2017-01-20T15:54:58Z</time>
      </trkpt>
      <trkpt lat="43.20127" lon="2.52762">
        <ele>88.7</ele>
        <time>2017-01-20T15:55:07Z</time>
      </trkpt>
      <trkpt lat="43.20126" lon="2.52756">
        <ele>88.8</ele>
        <time>2017-01-20T15:55:08Z</time>
      </trkpt>
      <trkpt lat="43.20124" lon="2.52744">
        <ele>89</ele>
        <time>2017-01-20T15:55:10Z</time>
      </trkpt>
      <trkpt lat="43.20123" lon="2.52738">
        <ele>88.9</ele>
        <time>2017-01-20T15:55:11Z</time>
      </trkpt>
      <trkpt lat="43.20116" lon="2.52704">
        <ele>89.2</ele>
        <time>2017-01-20T15:55:18Z</time>
      </trkpt>
      <trkpt lat="43.20116" lon="2.52704">
        <ele>89.2</ele>
        <time>2017-01-20T15:55:19Z</time>
      </trkpt>
      <trkpt lat="43.20116" lon="2.52704">
        <ele>88.8</ele>
        <time>2017-01-20T15:55:20Z</time>
      </trkpt>
      <trkpt lat="43.20116" lon="2.52704">
        <ele>88.5</ele>
        <time>2017-01-20T15:55:21Z</time>
      </trkpt>
      <trkpt lat="43.20116" lon="2.52704">
        <ele>88.3</ele>
        <time>2017-01-20T15:55:22Z</time>
      </trkpt>
      <trkpt lat="43.20116" lon="2.52704">
        <ele>88.3</ele>
        <time>2017-01-20T15:55:23Z</time>
      </trkpt>
      <trkpt lat="43.20116" lon="2.52704">
        <ele>88.4</ele>
        <time>2017-01-20T15:55:24Z</time>
      </trkpt>
      <trkpt lat="43.20116" lon="2.52704">
        <ele>88.4</ele>
        <time>2017-01-20T15:55:25Z</time>
      </trkpt>
      <trkpt lat="43.20116" lon="2.52704">
        <ele>88</ele>
        <time>2017-01-20T15:55:26Z</time>
      </trkpt>
      <trkpt lat="43.20116" lon="2.52704">
        <ele>87.7</ele>
        <time>2017-01-20T15:55:27Z</time>
      </trkpt>
      <trkpt lat="43.20115" lon="2.52698">
        <ele>87.5</ele>
        <time>2017-01-20T15:55:28Z</time>
      </trkpt>
      <trkpt lat="43.20113" lon="2.52679">
        <ele>87.9</ele>
        <time>2017-01-20T15:55:33Z</time>
      </trkpt>
      <trkpt lat="43.20113" lon="2.52663">
        <ele>88.5</ele>
        <time>2017-01-20T15:55:36Z</time>
      </trkpt>
      <trkpt lat="43.20115" lon="2.52657">
        <ele>88.7</ele>
        <time>2017-01-20T15:55:37Z</time>
      </trkpt>
      <trkpt lat="43.20148" lon="2.52496">
        <ele>88.6</ele>
        <time>2017-01-20T15:56:02Z</time>
      </trkpt>
      <trkpt lat="43.20148" lon="2.52489">
        <ele>88.6</ele>
        <time>2017-01-20T15:56:03Z</time>
      </trkpt>
      <trkpt lat="43.20157" lon="2.52392">
        <ele>89.1</ele>
        <time>2017-01-20T15:56:18Z</time>
      </trkpt>
      <trkpt lat="43.20159" lon="2.52379">
        <ele>89.2</ele>
        <time>2017-01-20T15:56:20Z</time>
      </trkpt>
      <trkpt lat="43.20189" lon="2.52281">
        <ele>88.5</ele>
        <time>2017-01-20T15:56:37Z</time>
      </trkpt>
      <trkpt lat="43.20188" lon="2.52278">
        <ele>88.5</ele>
        <time>2017-01-20T15:56:38Z</time>
      </trkpt>
      <trkpt lat="43.20187" lon="2.5227">
        <ele>88.5</ele>
        <time>2017-01-20T15:56:42Z</time>
      </trkpt>
      <trkpt lat="43.20187" lon="2.5227">
        <ele>88.5</ele>
        <time>2017-01-20T15:56:43Z</time>
      </trkpt>
      <trkpt lat="43.20187" lon="2.5227">
        <ele>88.5</ele>
        <time>2017-01-20T15:56:44Z</time>
      </trkpt>
      <trkpt lat="43.20187" lon="2.5227">
        <ele>88.5</ele>
        <time>2017-01-20T15:56:45Z</time>
      </trkpt>
      <trkpt lat="43.20187" lon="2.5227">
        <ele>88.5</ele>
        <time>2017-01-20T15:56:46Z</time>
      </trkpt>
      <trkpt lat="43.20187" lon="2.5227">
        <ele>88.5</ele>
        <time>2017-01-20T15:56:47Z</time>
      </trkpt>
      <trkpt lat="43.20187" lon="2.52266">
        <ele>88.5</ele>
        <time>2017-01-20T15:56:48Z</time>
      </trkpt>
      <trkpt lat="43.20187" lon="2.52264">
        <ele>88.3</ele>
        <time>2017-01-20T15:56:49Z</time>
      </trkpt>
      <trkpt lat="43.20187" lon="2.52249">
        <ele>87.8</ele>
        <time>2017-01-20T15:56:53Z</time>
      </trkpt>
      <trkpt lat="43.20185" lon="2.52093">
        <ele>88.5</ele>
        <time>2017-01-20T15:57:18Z</time>
      </trkpt>
      <trkpt lat="43.20186" lon="2.52086">
        <ele>88.7</ele>
        <time>2017-01-20T15:57:19Z</time>
      </trkpt>
      <trkpt lat="43.20242" lon="2.51733">
        <ele>89.4</ele>
        <time>2017-01-20T15:58:12Z</time>
      </trkpt>
      <trkpt lat="43.20241" lon="2.51726">
        <ele>89.1</ele>
        <time>2017-01-20T15:58:13Z</time>
      </trkpt>
      <trkpt lat="43.20239" lon="2.517">
        <ele>89</ele>
        <time>2017-01-20T15:58:17Z</time>
      </trkpt>
      <trkpt lat="43.20238" lon="2.51693">
        <ele>89.2</ele>
        <time>2017-01-20T15:58:20Z</time>
      </trkpt>
      <trkpt lat="43.20238" lon="2.51693">
        <ele>89.2</ele>
        <time>2017-01-20T15:58:21Z</time>
      </trkpt>
      <trkpt lat="43.20238" lon="2.51693">
        <ele>89</ele>
        <time>2017-01-20T15:58:22Z</time>
      </trkpt>
      <trkpt lat="43.20238" lon="2.51693">
        <ele>88.9</ele>
        <time>2017-01-20T15:58:23Z</time>
      </trkpt>
      <trkpt lat="43.20238" lon="2.51693">
        <ele>88.8</ele>
        <time>2017-01-20T15:58:24Z</time>
      </trkpt>
      <trkpt lat="43.20238" lon="2.51693">
        <ele>88.7</ele>
        <time>2017-01-20T15:58:25Z</time>
      </trkpt>
      <trkpt lat="43.20238" lon="2.51693">
        <ele>88.6</ele>
        <time>2017-01-20T15:58:26Z</time>
      </trkpt>
      <trkpt lat="43.20238" lon="2.51693">
        <ele>88.6</ele>
        <time>2017-01-20T15:58:27Z</time>
      </trkpt>
      <trkpt lat="43.20238" lon="2.51693">
        <ele>88.2</ele>
        <time>2017-01-20T15:58:28Z</time>
      </trkpt>
      <trkpt lat="43.20238" lon="2.51693">
        <ele>87.8</ele>
        <time>2017-01-20T15:58:29Z</time>
      </trkpt>
      <trkpt lat="43.20238" lon="2.51693">
        <ele>87.6</ele>
        <time>2017-01-20T15:58:30Z</time>
      </trkpt>
      <trkpt lat="43.20238" lon="2.51693">
        <ele>87.4</ele>
        <time>2017-01-20T15:58:31Z</time>
      </trkpt>
      <trkpt lat="43.20238" lon="2.51693">
        <ele>87.2</ele>
        <time>2017-01-20T15:58:32Z</time>
      </trkpt>
      <trkpt lat="43.20238" lon="2.51693">
        <ele>87.1</ele>
        <time>2017-01-20T15:58:33Z</time>
      </trkpt>
      <trkpt lat="43.20238" lon="2.51693">
        <ele>87.3</ele>
        <time>2017-01-20T15:58:34Z</time>
      </trkpt>
      <trkpt lat="43.20238" lon="2.51693">
        <ele>87.4</ele>
        <time>2017-01-20T15:58:35Z</time>
      </trkpt>
      <trkpt lat="43.20238" lon="2.51693">
        <ele>87.4</ele>
        <time>2017-01-20T15:58:36Z</time>
      </trkpt>
      <trkpt lat="43.20238" lon="2.51693">
        <ele>87.5</ele>
        <time>2017-01-20T15:58:37Z</time>
      </trkpt>
      <trkpt lat="43.20238" lon="2.51693">
        <ele>87.5</ele>
        <time>2017-01-20T15:58:38Z</time>
      </trkpt>
      <trkpt lat="43.20238" lon="2.51693">
        <ele>87.5</ele>
        <time>2017-01-20T15:58:39Z</time>
      </trkpt>
      <trkpt lat="43.20238" lon="2.51693">
        <ele>87.6</ele>
        <time>2017-01-20T15:58:40Z</time>
      </trkpt>
      <trkpt lat="43.20238" lon="2.51693">
        <ele>87.6</ele>
        <time>2017-01-20T15:58:41Z</time>
      </trkpt>
      <trkpt lat="43.20238" lon="2.51693">
        <ele>87.6</ele>
        <time>2017-01-20T15:58:42Z</time>
      </trkpt>
      <trkpt lat="43.20238" lon="2.51693">
        <ele>87.4</ele>
        <time>2017-01-20T15:58:43Z</time>
      </trkpt>
      <trkpt lat="43.20238" lon="2.51693">
        <ele>87.3</ele>
        <time>2017-01-20T15:58:44Z</time>
      </trkpt>
      <trkpt lat="43.20236" lon="2.51689">
        <ele>87.1</ele>
        <time>2017-01-20T15:58:45Z</time>
      </trkpt>
      <trkpt lat="43.20235" lon="2.51687">
        <ele>87.3</ele>
        <time>2017-01-20T15:58:46Z</time>
      </trkpt>
      <trkpt lat="43.20212" lon="2.5158">
        <ele>88.1</ele>
        <time>2017-01-20T15:59:08Z</time>
      </trkpt>
      <trkpt lat="43.20189" lon="2.51501">
        <ele>88.2</ele>
        <time>2017-01-20T15:59:21Z</time>
      </trkpt>
      <trkpt lat="43.20187" lon="2.51494">
        <ele>88.2</ele>
        <time>2017-01-20T15:59:22Z</time>
      </trkpt>
      <trkpt lat="43.20164" lon="2.5143">
        <ele>88.6</ele>
        <time>2017-01-20T15:59:35Z</time>
      </trkpt>
      <trkpt lat="43.20151" lon="2.51405">
        <ele>88.1</ele>
        <time>2017-01-20T15:59:44Z</time>
      </trkpt>
      <trkpt lat="43.20148" lon="2.51399">
        <ele>87.9</ele>
        <time>2017-01-20T15:59:48Z</time>
      </trkpt>
      <trkpt lat="43.20148" lon="2.51399">
        <ele>88</ele>
        <time>2017-01-20T15:59:49Z</time>
      </trkpt>
      <trkpt lat="43.20148" lon="2.51399">
        <ele>88.1</ele>
        <time>2017-01-20T15:59:50Z</time>
      </trkpt>
      <trkpt lat="43.20148" lon="2.51399">
        <ele>88.2</ele>
        <time>2017-01-20T15:59:51Z</time>
      </trkpt>
      <trkpt lat="43.20148" lon="2.51399">
        <ele>87.9</ele>
        <time>2017-01-20T15:59:52Z</time>
      </trkpt>
      <trkpt lat="43.20148" lon="2.51399">
        <ele>87.6</ele>
        <time>2017-01-20T15:59:53Z</time>
      </trkpt>
      <trkpt lat="43.20148" lon="2.51399">
        <ele>87.4</ele>
        <time>2017-01-20T15:59:54Z</time>
      </trkpt>
      <trkpt lat="43.20148" lon="2.51399">
        <ele>87.3</ele>
        <time>2017-01-20T15:59:55Z</time>
      </trkpt>
      <trkpt lat="43.20145" lon="2.51393">
        <ele>87.1</ele>
        <time>2017-01-20T15:59:56Z</time>
      </trkpt>
      <trkpt lat="43.20144" lon="2.51391">
        <ele>87.1</ele>
        <time>2017-01-20T15:59:57Z</time>
      </trkpt>
      <trkpt lat="43.20079" lon="2.51288">
        <ele>88.4</ele>
        <time>2017-01-20T16:00:22Z</time>
      </trkpt>
      <trkpt lat="43.20079" lon="2.51288">
        <ele>88.4</ele>
        <time>2017-01-20T16:00:23Z</time>
      </trkpt>
      <trkpt lat="43.20079" lon="2.51288">
        <ele>88.4</ele>
        <time>2017-01-20T16:00:24Z</time>
      </trkpt>
      <trkpt lat="43.20079" lon="2.51288">
        <ele>88.2</ele>
        <time>2017-01-20T16:00:25Z</time>
      </trkpt>
      <trkpt lat="43.20079" lon="2.51288">
        <ele>88.1</ele>
        <time>2017-01-20T16:00:26Z</time>
      </trkpt>
      <trkpt lat="43.20079" lon="2.51288">
        <ele>88</ele>
        <time>2017-01-20T16:00:27Z</time>
      </trkpt>
      <trkpt lat="43.20079" lon="2.51288">
        <ele>88.3</ele>
        <time>2017-01-20T16:00:28Z</time>
      </trkpt>
      <trkpt lat="43.20079" lon="2.51288">
        <ele>88.6</ele>
        <time>2017-01-20T16:00:29Z</time>
      </trkpt>
      <trkpt lat="43.20079" lon="2.51288">
        <ele>88.7</ele>
        <time>2017-01-20T16:00:30Z</time>
      </trkpt>
      <trkpt lat="43.20079" lon="2.51288">
        <ele>88.7</ele>
        <time>2017-01-20T16:00:31Z</time>
      </trkpt>
      <trkpt lat="43.20079" lon="2.51288">
        <ele>88.6</ele>
        <time>2017-01-20T16:00:32Z</time>
      </trkpt>
      <trkpt lat="43.20079" lon="2.51288">
        <ele>88.6</ele>
        <time>2017-01-20T16:00:33Z</time>
      </trkpt>
      <trkpt lat="43.20079" lon="2.51288">
        <ele>88.3</ele>
        <time>2017-01-20T16:00:34Z</time>
      </trkpt>
      <trkpt lat="43.20079" lon="2.51288">
        <ele>88.2</ele>
        <time>2017-01-20T16:00:35Z</time>
      </trkpt>
      <trkpt lat="43.20079" lon="2.51288">
        <ele>88</ele>
        <time>2017-01-20T16:00:36Z</time>
      </trkpt>
      <trkpt lat="43.20079" lon="2.51288">
        <ele>87.9</ele>
        <time>2017-01-20T16:00:37Z</time>
      </trkpt>
      <trkpt lat="43.20079" lon="2.51288">
        <ele>87.9</ele>
        <time>2017-01-20T16:00:38Z</time>
      </trkpt>
      <trkpt lat="43.20079" lon="2.51288">
        <ele>87.8</ele>
        <time>2017-01-20T16:00:39Z</time>
      </trkpt>
      <trkpt lat="43.20079" lon="2.51288">
        <ele>87.8</ele>
        <time>2017-01-20T16:00:40Z</time>
      </trkpt>
      <trkpt lat="43.20079" lon="2.51288">
        <ele>87.7</ele>
        <time>2017-01-20T16:00:41Z</time>
      </trkpt>
      <trkpt lat="43.20079" lon="2.51288">
        <ele>87.7</ele>
        <time>2017-01-20T16:00:42Z</time>
      </trkpt>
      <trkpt lat="43.20079" lon="2.51288">
        <ele>87.7</ele>
        <time>2017-01-20T16:00:43Z</time>
      </trkpt>
      <trkpt lat="43.20078" lon="2.51286">
        <ele>87.7</ele>
        <time>2017-01-20T16:00:44Z</time>
      </trkpt>
      <trkpt lat="43.19992" lon="2.51146">
        <ele>88.5</ele>
        <time>2017-01-20T16:01:17Z</time>
      </trkpt>
      <trkpt lat="43.19938" lon="2.51054">
        <ele>88.8</ele>
        <time>2017-01-20T16:01:38Z</time>
      </trkpt>
      <trkpt lat="43.19938" lon="2.51054">
        <ele>88.9</ele>
        <time>2017-01-20T16:01:39Z</time>
      </trkpt>
      <trkpt lat="43.19938" lon="2.51054">
        <ele>89</ele>
        <time>2017-01-20T16:01:40Z</time>
      </trkpt>
      <trkpt lat="43.19938" lon="2.51054">
        <ele>89.1</ele>
        <time>2017-01-20T16:01:41Z</time>
      </trkpt>
      <trkpt lat="43.19938" lon="2.51054">
        <ele>89.1</ele>
        <time>2017-01-20T16:01:42Z</time>
      </trkpt>
      <trkpt lat="43.19938" lon="2.51054">
        <ele>88.8</ele>
        <time>2017-01-20T16:01:43Z</time>
      </trkpt>
      <trkpt lat="43.19938" lon="2.51054">
        <ele>88.5</ele>
        <time>2017-01-20T16:01:44Z</time>
      </trkpt>
      <trkpt lat="43.19938" lon="2.51054">
        <ele>88.3</ele>
        <time>2017-01-20T16:01:45Z</time>
      </trkpt>
      <trkpt lat="43.19938" lon="2.51054">
        <ele>88.1</ele>
        <time>2017-01-20T16:01:46Z</time>
      </trkpt>
      <trkpt lat="43.19938" lon="2.51054">
        <ele>88</ele>
        <time>2017-01-20T16:01:47Z</time>
      </trkpt>
      <trkpt lat="43.19938" lon="2.51054">
        <ele>87.9</ele>
        <time>2017-01-20T16:01:48Z</time>
      </trkpt>
      <trkpt lat="43.19935" lon="2.51047">
        <ele>88</ele>
        <time>2017-01-20T16:01:49Z</time>
      </trkpt>
      <trkpt lat="43.1992" lon="2.51005">
        <ele>88.1</ele>
        <time>2017-01-20T16:01:58Z</time>
      </trkpt>
      <trkpt lat="43.19915" lon="2.50989">
        <ele>87.9</ele>
        <time>2017-01-20T16:02:01Z</time>
      </trkpt>
      <trkpt lat="43.19906" lon="2.50959">
        <ele>88</ele>
        <time>2017-01-20T16:02:06Z</time>
      </trkpt>
      <trkpt lat="43.19904" lon="2.50953">
        <ele>87.9</ele>
        <time>2017-01-20T16:02:07Z</time>
      </trkpt>
      <trkpt lat="43.19887" lon="2.50867">
        <ele>88.9</ele>
        <time>2017-01-20T16:02:20Z</time>
      </trkpt>
      <trkpt lat="43.19878" lon="2.50823">
        <ele>88.3</ele>
        <time>2017-01-20T16:02:28Z</time>
      </trkpt>
      <trkpt lat="43.19876" lon="2.50819">
        <ele>88.1</ele>
        <time>2017-01-20T16:02:29Z</time>
      </trkpt>
      <trkpt lat="43.19869" lon="2.50804">
        <ele>88.5</ele>
        <time>2017-01-20T16:02:34Z</time>
      </trkpt>
      <trkpt lat="43.19869" lon="2.50804">
        <ele>88.7</ele>
        <time>2017-01-20T16:02:35Z</time>
      </trkpt>
      <trkpt lat="43.19869" lon="2.50804">
        <ele>88.9</ele>
        <time>2017-01-20T16:02:36Z</time>
      </trkpt>
      <trkpt lat="43.19869" lon="2.50804">
        <ele>89</ele>
        <time>2017-01-20T16:02:37Z</time>
      </trkpt>
      <trkpt lat="43.19869" lon="2.50804">
        <ele>89.1</ele>
        <time>2017-01-20T16:02:38Z</time>
      </trkpt>
      <trkpt lat="43.19869" lon="2.50804">
        <ele>89.1</ele>
        <time>2017-01-20T16:02:39Z</time>
      </trkpt>
      <trkpt lat="43.19869" lon="2.50804">
        <ele>88.7</ele>
        <time>2017-01-20T16:02:40Z</time>
      </trkpt>
      <trkpt lat="43.19869" lon="2.50804">
        <ele>88.5</ele>
        <time>2017-01-20T16:02:41Z</time>
      </trkpt>
      <trkpt lat="43.19869" lon="2.50804">
        <ele>88.3</ele>
        <time>2017-01-20T16:02:42Z</time>
      </trkpt>
      <trkpt lat="43.19869" lon="2.50804">
        <ele>88.1</ele>
        <time>2017-01-20T16:02:43Z</time>
      </trkpt>
      <trkpt lat="43.19869" lon="2.50804">
        <ele>88</ele>
        <time>2017-01-20T16:02:44Z</time>
      </trkpt>
      <trkpt lat="43.19869" lon="2.50804">
        <ele>87.9</ele>
        <time>2017-01-20T16:02:45Z</time>
      </trkpt>
      <trkpt lat="43.19869" lon="2.50804">
        <ele>87.8</ele>
        <time>2017-01-20T16:02:46Z</time>
      </trkpt>
      <trkpt lat="43.19865" lon="2.50798">
        <ele>87.8</ele>
        <time>2017-01-20T16:02:47Z</time>
      </trkpt>
      <trkpt lat="43.19857" lon="2.50788">
        <ele>88.2</ele>
        <time>2017-01-20T16:02:51Z</time>
      </trkpt>
      <trkpt lat="43.19846" lon="2.50775">
        <ele>88</ele>
        <time>2017-01-20T16:02:56Z</time>
      </trkpt>
      <trkpt lat="43.19779" lon="2.50705">
        <ele>88.6</ele>
        <time>2017-01-20T16:03:15Z</time>
      </trkpt>
      <trkpt lat="43.19604" lon="2.50535">
        <ele>89.1</ele>
        <time>2017-01-20T16:04:04Z</time>
      </trkpt>
      <trkpt lat="43.19604" lon="2.50535">
        <ele>88.9</ele>
        <time>2017-01-20T16:04:05Z</time>
      </trkpt>
      <trkpt lat="43.19604" lon="2.50535">
        <ele>88.8</ele>
        <time>2017-01-20T16:04:06Z</time>
      </trkpt>
      <trkpt lat="43.19604" lon="2.50535">
        <ele>88.7</ele>
        <time>2017-01-20T16:04:07Z</time>
      </trkpt>
      <trkpt lat="43.19604" lon="2.50535">
        <ele>88.7</ele>
        <time>2017-01-20T16:04:08Z</time>
      </trkpt>
      <trkpt lat="43.19604" lon="2.50535">
        <ele>88.6</ele>
        <time>2017-01-20T16:04:09Z</time>
      </trkpt>
      <trkpt lat="43.19604" lon="2.50535">
        <ele>88.4</ele>
        <time>2017-01-20T16:04:10Z</time>
      </trkpt>
      <trkpt lat="43.19604" lon="2.50535">
        <ele>88.2</ele>
        <time>2017-01-20T16:04:11Z</time>
      </trkpt>
      <trkpt lat="43.196" lon="2.50532">
        <ele>88.1</ele>
        <time>2017-01-20T16:04:12Z</time>
      </trkpt>
      <trkpt lat="43.19598" lon="2.50529">
        <ele>87.9</ele>
        <time>2017-01-20T16:04:13Z</time>
      </trkpt>
      <trkpt lat="43.19594" lon="2.50523">
        <ele>87.8</ele>
        <time>2017-01-20T16:04:15Z</time>
      </trkpt>
      <trkpt lat="43.19589" lon="2.50516">
        <ele>87.7</ele>
        <time>2017-01-20T16:04:17Z</time>
      </trkpt>
      <trkpt lat="43.19583" lon="2.50504">
        <ele>88.4</ele>
        <time>2017-01-20T16:04:20Z</time>
      </trkpt>
      <trkpt lat="43.19582" lon="2.50499">
        <ele>88.6</ele>
        <time>2017-01-20T16:04:21Z</time>
      </trkpt>
      <trkpt lat="43.19525" lon="2.50308">
        <ele>89.2</ele>
        <time>2017-01-20T16:04:50Z</time>
      </trkpt>
      <trkpt lat="43.19498" lon="2.50211">
        <ele>88.8</ele>
        <time>2017-01-20T16:05:09Z</time>
      </trkpt>
      <trkpt lat="43.19497" lon="2.50209">
        <ele>88.7</ele>
        <time>2017-01-20T16:05:10Z</time>
      </trkpt>
      <trkpt lat="43.19497" lon="2.50209">
        <ele>88.7</ele>
        <time>2017-01-20T16:05:11Z</time>
      </trkpt>
      <trkpt lat="43.19497" lon="2.50209">
        <ele>88.6</ele>
        <time>2017-01-20T16:05:12Z</time>
      </trkpt>
      <trkpt lat="43.19497" lon="2.50209">
        <ele>88.6</ele>
        <time>2017-01-20T16:05:13Z</time>
      </trkpt>
      <trkpt lat="43.19497" lon="2.50209">
        <ele>88.6</ele>
        <time>2017-01-20T16:05:14Z</time>
      </trkpt>
      <trkpt lat="43.19497" lon="2.50209">
        <ele>88.5</ele>
        <time>2017-01-20T16:05:15Z</time>
      </trkpt>
      <trkpt lat="43.19497" lon="2.50207">
        <ele>88.5</ele>
        <time>2017-01-20T16:05:16Z</time>
      </trkpt>
      <trkpt lat="43.19479" lon="2.50072">
        <ele>89.2</ele>
        <time>2017-01-20T16:05:41Z</time>
      </trkpt>
      <trkpt lat="43.19479" lon="2.50072">
        <ele>89.2</ele>
        <time>2017-01-20T16:05:42Z</time>
      </trkpt>
      <trkpt lat="43.19479" lon="2.50072">
        <ele>89.2</ele>
        <time>2017-01-20T16:05:43Z</time>
      </trkpt>
      <trkpt lat="43.19479" lon="2.50072">
        <ele>89.2</ele>
        <time>2017-01-20T16:05:44Z</time>
      </trkpt>
      <trkpt lat="43.19479" lon="2.50072">
        <ele>89.3</ele>
        <time>2017-01-20T16:05:45Z</time>
      </trkpt>
      <trkpt lat="43.19479" lon="2.50072">
        <ele>89.3</ele>
        <time>2017-01-20T16:05:46Z</time>
      </trkpt>
      <trkpt lat="43.19479" lon="2.50072">
        <ele>89.3</ele>
        <time>2017-01-20T16:05:47Z</time>
      </trkpt>
      <trkpt lat="43.19479" lon="2.50072">
        <ele>89.3</ele>
        <time>2017-01-20T16:05:48Z</time>
      </trkpt>
      <trkpt lat="43.1948" lon="2.50068">
        <ele>88.9</ele>
        <time>2017-01-20T16:05:49Z</time>
      </trkpt>
      <trkpt lat="43.1948" lon="2.50057">
        <ele>88.2</ele>
        <time>2017-01-20T16:05:52Z</time>
      </trkpt>
      <trkpt lat="43.19479" lon="2.50053">
        <ele>88</ele>
        <time>2017-01-20T16:05:53Z</time>
      </trkpt>
      <trkpt lat="43.19478" lon="2.50015">
        <ele>88.4</ele>
        <time>2017-01-20T16:06:00Z</time>
      </trkpt>
      <trkpt lat="43.1948" lon="2.49996">
        <ele>88.9</ele>
        <time>2017-01-20T16:06:03Z</time>
      </trkpt>
      <trkpt lat="43.19499" lon="2.49901">
        <ele>89.7</ele>
        <time>2017-01-20T16:06:18Z</time>
      </trkpt>
      <trkpt lat="43.19501" lon="2.49894">
        <ele>89.8</ele>
        <time>2017-01-20T16:06:19Z</time>
      </trkpt>
      <trkpt lat="43.19516" lon="2.49809">
        <ele>88.9</ele>
        <time>2017-01-20T16:06:32Z</time>
      </trkpt>
      <trkpt lat="43.19517" lon="2.49787">
        <ele>88.9</ele>
        <time>2017-01-20T16:06:37Z</time>
      </trkpt>
      <trkpt lat="43.19517" lon="2.49784">
        <ele>89</ele>
        <time>2017-01-20T16:06:39Z</time>
      </trkpt>
      <trkpt lat="43.19517" lon="2.49784">
        <ele>89.1</ele>
        <time>2017-01-20T16:06:40Z</time>
      </trkpt>
      <trkpt lat="43.19517" lon="2.49784">
        <ele>89.2</ele>
        <time>2017-01-20T16:06:41Z</time>
      </trkpt>
      <trkpt lat="43.19517" lon="2.49784">
        <ele>89.2</ele>
        <time>2017-01-20T16:06:42Z</time>
      </trkpt>
      <trkpt lat="43.19517" lon="2.49784">
        <ele>89.2</ele>
        <time>2017-01-20T16:06:43Z</time>
      </trkpt>
      <trkpt lat="43.19517" lon="2.49784">
        <ele>89.2</ele>
        <time>2017-01-20T16:06:44Z</time>
      </trkpt>
      <trkpt lat="43.19517" lon="2.49784">
        <ele>89.3</ele>
        <time>2017-01-20T16:06:45Z</time>
      </trkpt>
      <trkpt lat="43.19517" lon="2.49784">
        <ele>89.1</ele>
        <time>2017-01-20T16:06:46Z</time>
      </trkpt>
      <trkpt lat="43.19517" lon="2.49784">
        <ele>88.9</ele>
        <time>2017-01-20T16:06:47Z</time>
      </trkpt>
      <trkpt lat="43.19517" lon="2.49781">
        <ele>88.8</ele>
        <time>2017-01-20T16:06:48Z</time>
      </trkpt>
      <trkpt lat="43.19512" lon="2.4966">
        <ele>88.9</ele>
        <time>2017-01-20T16:07:12Z</time>
      </trkpt>
      <trkpt lat="43.19511" lon="2.49653">
        <ele>88.8</ele>
        <time>2017-01-20T16:07:13Z</time>
      </trkpt>
      <trkpt lat="43.19498" lon="2.49568">
        <ele>90.1</ele>
        <time>2017-01-20T16:07:30Z</time>
      </trkpt>
      <trkpt lat="43.19498" lon="2.49568">
        <ele>90.3</ele>
        <time>2017-01-20T16:07:31Z</time>
      </trkpt>
      <trkpt lat="43.19498" lon="2.49568">
        <ele>90.5</ele>
        <time>2017-01-20T16:07:32Z</time>
      </trkpt>
      <trkpt lat="43.19498" lon="2.49568">
        <ele>90.6</ele>
        <time>2017-01-20T16:07:33Z</time>
      </trkpt>
      <trkpt lat="43.19498" lon="2.49568">
        <ele>90.5</ele>
        <time>2017-01-20T16:07:34Z</time>
      </trkpt>
      <trkpt lat="43.19498" lon="2.49568">
        <ele>90.4</ele>
        <time>2017-01-20T16:07:35Z</time>
      </trkpt>
      <trkpt lat="43.19498" lon="2.49568">
        <ele>90.3</ele>
        <time>2017-01-20T16:07:36Z</time>
      </trkpt>
      <trkpt lat="43.19498" lon="2.49568">
        <ele>90.3</ele>
        <time>2017-01-20T16:07:37Z</time>
      </trkpt>
      <trkpt lat="43.19498" lon="2.49568">
        <ele>90.2</ele>
        <time>2017-01-20T16:07:38Z</time>
      </trkpt>
      <trkpt lat="43.19498" lon="2.49568">
        <ele>90.2</ele>
        <time>2017-01-20T16:07:39Z</time>
      </trkpt>
      <trkpt lat="43.19498" lon="2.49568">
        <ele>90</ele>
        <time>2017-01-20T16:07:40Z</time>
      </trkpt>
      <trkpt lat="43.19498" lon="2.49568">
        <ele>89.8</ele>
        <time>2017-01-20T16:07:41Z</time>
      </trkpt>
      <trkpt lat="43.19498" lon="2.49568">
        <ele>89.7</ele>
        <time>2017-01-20T16:07:42Z</time>
      </trkpt>
      <trkpt lat="43.19498" lon="2.49568">
        <ele>89.6</ele>
        <time>2017-01-20T16:07:43Z</time>
      </trkpt>
      <trkpt lat="43.19498" lon="2.49568">
        <ele>89.5</ele>
        <time>2017-01-20T16:07:44Z</time>
      </trkpt>
      <trkpt lat="43.19497" lon="2.49562">
        <ele>89.5</ele>
        <time>2017-01-20T16:07:45Z</time>
      </trkpt>
      <trkpt lat="43.19492" lon="2.49542">
        <ele>89.5</ele>
        <time>2017-01-20T16:07:52Z</time>
      </trkpt>
      <trkpt lat="43.19491" lon="2.49538">
        <ele>89.7</ele>
        <time>2017-01-20T16:07:53Z</time>
      </trkpt>
      <trkpt lat="43.19492" lon="2.49535">
        <ele>89.8</ele>
        <time>2017-01-20T16:07:54Z</time>
      </trkpt>
      <trkpt lat="43.19492" lon="2.49532">
        <ele>89.9</ele>
        <time>2017-01-20T16:07:55Z</time>
      </trkpt>
      <trkpt lat="43.19493" lon="2.49529">
        <ele>89.9</ele>
        <time>2017-01-20T16:07:56Z</time>
      </trkpt>
      <trkpt lat="43.19495" lon="2.49527">
        <ele>90</ele>
        <time>2017-01-20T16:07:57Z</time>
      </trkpt>
      <trkpt lat="43.19496" lon="2.49526">
        <ele>90.2</ele>
        <time>2017-01-20T16:07:58Z</time>
      </trkpt>
      <trkpt lat="43.19498" lon="2.49525">
        <ele>90.4</ele>
        <time>2017-01-20T16:07:59Z</time>
      </trkpt>
      <trkpt lat="43.19499" lon="2.49525">
        <ele>90.5</ele>
        <time>2017-01-20T16:08:00Z</time>
      </trkpt>
      <trkpt lat="43.19499" lon="2.49525">
        <ele>90.9</ele>
        <time>2017-01-20T16:08:01Z</time>
      </trkpt>
      <trkpt lat="43.19499" lon="2.49525">
        <ele>91.1</ele>
        <time>2017-01-20T16:08:02Z</time>
      </trkpt>
      <trkpt lat="43.19499" lon="2.49525">
        <ele>91.3</ele>
        <time>2017-01-20T16:08:03Z</time>
      </trkpt>
      <trkpt lat="43.19499" lon="2.49525">
        <ele>91.4</ele>
        <time>2017-01-20T16:08:04Z</time>
      </trkpt>
      <trkpt lat="43.19499" lon="2.49525">
        <ele>91.5</ele>
        <time>2017-01-20T16:08:05Z</time>
      </trkpt>
      <trkpt lat="43.19499" lon="2.49525">
        <ele>91.6</ele>
        <time>2017-01-20T16:08:06Z</time>
      </trkpt>
      <trkpt lat="43.19499" lon="2.49525">
        <ele>91.6</ele>
        <time>2017-01-20T16:08:07Z</time>
      </trkpt>
      <trkpt lat="43.19499" lon="2.49525">
        <ele>91.7</ele>
        <time>2017-01-20T16:08:08Z</time>
      </trkpt>
      <trkpt lat="43.19499" lon="2.49525">
        <ele>91.7</ele>
        <time>2017-01-20T16:08:09Z</time>
      </trkpt>
      <trkpt lat="43.19499" lon="2.49525">
        <ele>91.7</ele>
        <time>2017-01-20T16:08:10Z</time>
      </trkpt>
      <trkpt lat="43.19498" lon="2.49523">
        <ele>91.7</ele>
        <time>2017-01-20T16:08:11Z</time>
      </trkpt>
      <trkpt lat="43.19498" lon="2.49522">
        <ele>91.7</ele>
        <time>2017-01-20T16:08:12Z</time>
      </trkpt>
      <trkpt lat="43.19497" lon="2.49522">
        <ele>91.8</ele>
        <time>2017-01-20T16:08:14Z</time>
      </trkpt>
      <trkpt lat="43.19497" lon="2.49522">
        <ele>91.8</ele>
        <time>2017-01-20T16:08:15Z</time>
      </trkpt>
      <trkpt lat="43.19497" lon="2.49522">
        <ele>91.8</ele>
        <time>2017-01-20T16:08:16Z</time>
      </trkpt>
      <trkpt lat="43.19497" lon="2.49522">
        <ele>91.8</ele>
        <time>2017-01-20T16:08:17Z</time>
      </trkpt>
      <trkpt lat="43.19497" lon="2.49522">
        <ele>91.8</ele>
        <time>2017-01-20T16:08:18Z</time>
      </trkpt>
      <trkpt lat="43.19497" lon="2.49522">
        <ele>91.8</ele>
        <time>2017-01-20T16:08:19Z</time>
      </trkpt>
      <trkpt lat="43.19497" lon="2.49522">
        <ele>91.8</ele>
        <time>2017-01-20T16:08:20Z</time>
      </trkpt>
      <trkpt lat="43.19497" lon="2.49522">
        <ele>91.8</ele>
        <time>2017-01-20T16:08:21Z</time>
      </trkpt>
      <trkpt lat="43.19495" lon="2.49522">
        <ele>91.6</ele>
        <time>2017-01-20T16:08:22Z</time>
      </trkpt>
      <trkpt lat="43.19491" lon="2.49522">
        <ele>91.3</ele>
        <time>2017-01-20T16:08:24Z</time>
      </trkpt>
      <trkpt lat="43.19489" lon="2.4952">
        <ele>91.4</ele>
        <time>2017-01-20T16:08:25Z</time>
      </trkpt>
      <trkpt lat="43.19487" lon="2.49516">
        <ele>91.5</ele>
        <time>2017-01-20T16:08:26Z</time>
      </trkpt>
      <trkpt lat="43.19487" lon="2.49511">
        <ele>91.6</ele>
        <time>2017-01-20T16:08:27Z</time>
      </trkpt>
      <trkpt lat="43.19487" lon="2.49478">
        <ele>90.4</ele>
        <time>2017-01-20T16:08:32Z</time>
      </trkpt>
      <trkpt lat="43.19488" lon="2.49469">
        <ele>90.1</ele>
        <time>2017-01-20T16:08:33Z</time>
      </trkpt>
      <trkpt lat="43.19498" lon="2.4942">
        <ele>88.8</ele>
        <time>2017-01-20T16:08:40Z</time>
      </trkpt>
      <trkpt lat="43.19513" lon="2.49369">
        <ele>89</ele>
        <time>2017-01-20T16:08:52Z</time>
      </trkpt>
      <trkpt lat="43.19513" lon="2.49369">
        <ele>88.9</ele>
        <time>2017-01-20T16:08:53Z</time>
      </trkpt>
      <trkpt lat="43.19513" lon="2.49369">
        <ele>88.8</ele>
        <time>2017-01-20T16:08:54Z</time>
      </trkpt>
      <trkpt lat="43.19513" lon="2.49369">
        <ele>88.7</ele>
        <time>2017-01-20T16:08:55Z</time>
      </trkpt>
      <trkpt lat="43.19513" lon="2.49369">
        <ele>88.6</ele>
        <time>2017-01-20T16:08:56Z</time>
      </trkpt>
      <trkpt lat="43.19513" lon="2.49369">
        <ele>88.6</ele>
        <time>2017-01-20T16:08:57Z</time>
      </trkpt>
      <trkpt lat="43.19513" lon="2.49369">
        <ele>88.8</ele>
        <time>2017-01-20T16:08:58Z</time>
      </trkpt>
      <trkpt lat="43.19513" lon="2.49369">
        <ele>88.9</ele>
        <time>2017-01-20T16:08:59Z</time>
      </trkpt>
      <trkpt lat="43.19513" lon="2.49369">
        <ele>89</ele>
        <time>2017-01-20T16:09:00Z</time>
      </trkpt>
      <trkpt lat="43.19513" lon="2.49369">
        <ele>88.9</ele>
        <time>2017-01-20T16:09:01Z</time>
      </trkpt>
      <trkpt lat="43.19513" lon="2.49369">
        <ele>88.8</ele>
        <time>2017-01-20T16:09:02Z</time>
      </trkpt>
      <trkpt lat="43.19513" lon="2.49369">
        <ele>88.7</ele>
        <time>2017-01-20T16:09:03Z</time>
      </trkpt>
      <trkpt lat="43.19513" lon="2.49369">
        <ele>88.4</ele>
        <time>2017-01-20T16:09:04Z</time>
      </trkpt>
      <trkpt lat="43.19513" lon="2.49369">
        <ele>88.2</ele>
        <time>2017-01-20T16:09:05Z</time>
      </trkpt>
      <trkpt lat="43.19513" lon="2.49369">
        <ele>88.1</ele>
        <time>2017-01-20T16:09:06Z</time>
      </trkpt>
      <trkpt lat="43.19514" lon="2.49363">
        <ele>88</ele>
        <time>2017-01-20T16:09:07Z</time>
      </trkpt>
      <trkpt lat="43.19514" lon="2.4936">
        <ele>87.9</ele>
        <time>2017-01-20T16:09:08Z</time>
      </trkpt>
      <trkpt lat="43.19514" lon="2.49358">
        <ele>87.8</ele>
        <time>2017-01-20T16:09:09Z</time>
      </trkpt>
      <trkpt lat="43.19514" lon="2.49356">
        <ele>88.1</ele>
        <time>2017-01-20T16:09:11Z</time>
      </trkpt>
      <trkpt lat="43.19514" lon="2.49356">
        <ele>88.2</ele>
        <time>2017-01-20T16:09:12Z</time>
      </trkpt>
      <trkpt lat="43.19514" lon="2.49356">
        <ele>88.1</ele>
        <time>2017-01-20T16:09:13Z</time>
      </trkpt>
      <trkpt lat="43.19514" lon="2.49356">
        <ele>88</ele>
        <time>2017-01-20T16:09:14Z</time>
      </trkpt>
      <trkpt lat="43.19514" lon="2.49356">
        <ele>87.9</ele>
        <time>2017-01-20T16:09:15Z</time>
      </trkpt>
      <trkpt lat="43.19514" lon="2.49356">
        <ele>88</ele>
        <time>2017-01-20T16:09:16Z</time>
      </trkpt>
      <trkpt lat="43.19514" lon="2.49356">
        <ele>88.1</ele>
        <time>2017-01-20T16:09:17Z</time>
      </trkpt>
      <trkpt lat="43.19514" lon="2.49356">
        <ele>88.2</ele>
        <time>2017-01-20T16:09:18Z</time>
      </trkpt>
      <trkpt lat="43.19514" lon="2.49356">
        <ele>88.3</ele>
        <time>2017-01-20T16:09:19Z</time>
      </trkpt>
      <trkpt lat="43.19514" lon="2.49356">
        <ele>88.3</ele>
        <time>2017-01-20T16:09:20Z</time>
      </trkpt>
      <trkpt lat="43.19514" lon="2.49356">
        <ele>88.4</ele>
        <time>2017-01-20T16:09:21Z</time>
      </trkpt>
      <trkpt lat="43.19514" lon="2.49356">
        <ele>88</ele>
        <time>2017-01-20T16:09:22Z</time>
      </trkpt>
      <trkpt lat="43.19513" lon="2.49352">
        <ele>87.7</ele>
        <time>2017-01-20T16:09:23Z</time>
      </trkpt>
      <trkpt lat="43.19513" lon="2.4935">
        <ele>87.5</ele>
        <time>2017-01-20T16:09:24Z</time>
      </trkpt>
      <trkpt lat="43.19502" lon="2.49319">
        <ele>89.1</ele>
        <time>2017-01-20T16:09:34Z</time>
      </trkpt>
      <trkpt lat="43.195" lon="2.49317">
        <ele>89.2</ele>
        <time>2017-01-20T16:09:35Z</time>
      </trkpt>
      <trkpt lat="43.19497" lon="2.49314">
        <ele>89.2</ele>
        <time>2017-01-20T16:09:38Z</time>
      </trkpt>
      <trkpt lat="43.19497" lon="2.49314">
        <ele>89.3</ele>
        <time>2017-01-20T16:09:39Z</time>
      </trkpt>
      <trkpt lat="43.19497" lon="2.49314">
        <ele>89.3</ele>
        <time>2017-01-20T16:09:40Z</time>
      </trkpt>
      <trkpt lat="43.19497" lon="2.49314">
        <ele>89.3</ele>
        <time>2017-01-20T16:09:41Z</time>
      </trkpt>
      <trkpt lat="43.19497" lon="2.49314">
        <ele>89.3</ele>
        <time>2017-01-20T16:09:42Z</time>
      </trkpt>
      <trkpt lat="43.19497" lon="2.49314">
        <ele>89.1</ele>
        <time>2017-01-20T16:09:43Z</time>
      </trkpt>
      <trkpt lat="43.19497" lon="2.49314">
        <ele>88.9</ele>
        <time>2017-01-20T16:09:44Z</time>
      </trkpt>
      <trkpt lat="43.19495" lon="2.49312">
        <ele>88.8</ele>
        <time>2017-01-20T16:09:45Z</time>
      </trkpt>
      <trkpt lat="43.19454" lon="2.49275">
        <ele>88.9</ele>
        <time>2017-01-20T16:10:02Z</time>
      </trkpt>
      <trkpt lat="43.19453" lon="2.49274">
        <ele>88.9</ele>
        <time>2017-01-20T16:10:04Z</time>
      </trkpt>
      <trkpt lat="43.19453" lon="2.49274">
        <ele>88.8</ele>
        <time>2017-01-20T16:10:05Z</time>
      </trkpt>
      <trkpt lat="43.19453" lon="2.49274">
        <ele>88.7</ele>
        <time>2017-01-20T16:10:06Z</time>
      </trkpt>
      <trkpt lat="43.19453" lon="2.49274">
        <ele>88.6</ele>
        <time>2017-01-20T16:10:07Z</time>
      </trkpt>
      <trkpt lat="43.19453" lon="2.49274">
        <ele>88.6</ele>
        <time>2017-01-20T16:10:08Z</time>
      </trkpt>
      <trkpt lat="43.19453" lon="2.49274">
        <ele>88.6</ele>
        <time>2017-01-20T16:10:09Z</time>
      </trkpt>
      <trkpt lat="43.19453" lon="2.49274">
        <ele>88.3</ele>
        <time>2017-01-20T16:10:10Z</time>
      </trkpt>
      <trkpt lat="43.19453" lon="2.49274">
        <ele>88.2</ele>
        <time>2017-01-20T16:10:11Z</time>
      </trkpt>
      <trkpt lat="43.19453" lon="2.49274">
        <ele>88</ele>
        <time>2017-01-20T16:10:12Z</time>
      </trkpt>
      <trkpt lat="43.19453" lon="2.49274">
        <ele>88.1</ele>
        <time>2017-01-20T16:10:13Z</time>
      </trkpt>
      <trkpt lat="43.19451" lon="2.49271">
        <ele>88.2</ele>
        <time>2017-01-20T16:10:14Z</time>
      </trkpt>
      <trkpt lat="43.1945" lon="2.49269">
        <ele>88.3</ele>
        <time>2017-01-20T16:10:15Z</time>
      </trkpt>
      <trkpt lat="43.1939" lon="2.49132">
        <ele>89.1</ele>
        <time>2017-01-20T16:10:43Z</time>
      </trkpt>
      <trkpt lat="43.1939" lon="2.49132">
        <ele>89.2</ele>
        <time>2017-01-20T16:10:44Z</time>
      </trkpt>
      <trkpt lat="43.1939" lon="2.49132">
        <ele>89.2</ele>
        <time>2017-01-20T16:10:45Z</time>
      </trkpt>
      <trkpt lat="43.1939" lon="2.49132">
        <ele>89</ele>
        <time>2017-01-20T16:10:46Z</time>
      </trkpt>
      <trkpt lat="43.1939" lon="2.49132">
        <ele>88.9</ele>
        <time>2017-01-20T16:10:47Z</time>
      </trkpt>
      <trkpt lat="43.1939" lon="2.49132">
        <ele>88.8</ele>
        <time>2017-01-20T16:10:48Z</time>
      </trkpt>
      <trkpt lat="43.1939" lon="2.49132">
        <ele>88.7</ele>
        <time>2017-01-20T16:10:49Z</time>
      </trkpt>
      <trkpt lat="43.1939" lon="2.49132">
        <ele>88.6</ele>
        <time>2017-01-20T16:10:50Z</time>
      </trkpt>
      <trkpt lat="43.1939" lon="2.49132">
        <ele>88.6</ele>
        <time>2017-01-20T16:10:51Z</time>
      </trkpt>
      <trkpt lat="43.1939" lon="2.49132">
        <ele>88.6</ele>
        <time>2017-01-20T16:10:52Z</time>
      </trkpt>
      <trkpt lat="43.1939" lon="2.49132">
        <ele>88.5</ele>
        <time>2017-01-20T16:10:53Z</time>
      </trkpt>
      <trkpt lat="43.1939" lon="2.49132">
        <ele>88.5</ele>
        <time>2017-01-20T16:10:54Z</time>
      </trkpt>
      <trkpt lat="43.1939" lon="2.49128">
        <ele>88.5</ele>
        <time>2017-01-20T16:10:55Z</time>
      </trkpt>
      <trkpt lat="43.19387" lon="2.49114">
        <ele>88</ele>
        <time>2017-01-20T16:11:00Z</time>
      </trkpt>
      <trkpt lat="43.19381" lon="2.4909">
        <ele>88</ele>
        <time>2017-01-20T16:11:08Z</time>
      </trkpt>
      <trkpt lat="43.19381" lon="2.4909">
        <ele>88.1</ele>
        <time>2017-01-20T16:11:09Z</time>
      </trkpt>
      <trkpt lat="43.19381" lon="2.4909">
        <ele>88.2</ele>
        <time>2017-01-20T16:11:10Z</time>
      </trkpt>
      <trkpt lat="43.19381" lon="2.4909">
        <ele>88.3</ele>
        <time>2017-01-20T16:11:11Z</time>
      </trkpt>
      <trkpt lat="43.19381" lon="2.4909">
        <ele>88.3</ele>
        <time>2017-01-20T16:11:12Z</time>
      </trkpt>
      <trkpt lat="43.19381" lon="2.4909">
        <ele>88.2</ele>
        <time>2017-01-20T16:11:13Z</time>
      </trkpt>
      <trkpt lat="43.19381" lon="2.4909">
        <ele>88</ele>
        <time>2017-01-20T16:11:14Z</time>
      </trkpt>
      <trkpt lat="43.19381" lon="2.4909">
        <ele>87.9</ele>
        <time>2017-01-20T16:11:15Z</time>
      </trkpt>
      <trkpt lat="43.19381" lon="2.4909">
        <ele>88.1</ele>
        <time>2017-01-20T16:11:16Z</time>
      </trkpt>
      <trkpt lat="43.1938" lon="2.49087">
        <ele>88.2</ele>
        <time>2017-01-20T16:11:17Z</time>
      </trkpt>
      <trkpt lat="43.1938" lon="2.49085">
        <ele>88.2</ele>
        <time>2017-01-20T16:11:18Z</time>
      </trkpt>
      <trkpt lat="43.19376" lon="2.49051">
        <ele>88.2</ele>
        <time>2017-01-20T16:11:26Z</time>
      </trkpt>
      <trkpt lat="43.19375" lon="2.49039">
        <ele>88.5</ele>
        <time>2017-01-20T16:11:28Z</time>
      </trkpt>
      <trkpt lat="43.19375" lon="2.49012">
        <ele>88.7</ele>
        <time>2017-01-20T16:11:32Z</time>
      </trkpt>
      <trkpt lat="43.19377" lon="2.48998">
        <ele>88.6</ele>
        <time>2017-01-20T16:11:34Z</time>
      </trkpt>
      <trkpt lat="43.19386" lon="2.4897">
        <ele>88.5</ele>
        <time>2017-01-20T16:11:38Z</time>
      </trkpt>
      <trkpt lat="43.1942" lon="2.48869">
        <ele>88.4</ele>
        <time>2017-01-20T16:11:56Z</time>
      </trkpt>
      <trkpt lat="43.1942" lon="2.48866">
        <ele>88.2</ele>
        <time>2017-01-20T16:11:57Z</time>
      </trkpt>
      <trkpt lat="43.19421" lon="2.48864">
        <ele>87.6</ele>
        <time>2017-01-20T16:11:59Z</time>
      </trkpt>
      <trkpt lat="43.19421" lon="2.48864">
        <ele>87.4</ele>
        <time>2017-01-20T16:12:00Z</time>
      </trkpt>
      <trkpt lat="43.19421" lon="2.48864">
        <ele>87.9</ele>
        <time>2017-01-20T16:12:01Z</time>
      </trkpt>
      <trkpt lat="43.19421" lon="2.48864">
        <ele>88.2</ele>
        <time>2017-01-20T16:12:02Z</time>
      </trkpt>
      <trkpt lat="43.19421" lon="2.48864">
        <ele>88.5</ele>
        <time>2017-01-20T16:12:03Z</time>
      </trkpt>
      <trkpt lat="43.19421" lon="2.48864">
        <ele>88.3</ele>
        <time>2017-01-20T16:12:04Z</time>
      </trkpt>
      <trkpt lat="43.19421" lon="2.48864">
        <ele>88.1</ele>
        <time>2017-01-20T16:12:05Z</time>
      </trkpt>
      <trkpt lat="43.19421" lon="2.48864">
        <ele>88</ele>
        <time>2017-01-20T16:12:06Z</time>
      </trkpt>
      <trkpt lat="43.19421" lon="2.48859">
        <ele>87.9</ele>
        <time>2017-01-20T16:12:07Z</time>
      </trkpt>
      <trkpt lat="43.19422" lon="2.48853">
        <ele>87.8</ele>
        <time>2017-01-20T16:12:09Z</time>
      </trkpt>
      <trkpt lat="43.19445" lon="2.48723">
        <ele>88.6</ele>
        <time>2017-01-20T16:12:34Z</time>
      </trkpt>
      <trkpt lat="43.19445" lon="2.48723">
        <ele>88.8</ele>
        <time>2017-01-20T16:12:35Z</time>
      </trkpt>
      <trkpt lat="43.19445" lon="2.48723">
        <ele>88.9</ele>
        <time>2017-01-20T16:12:36Z</time>
      </trkpt>
      <trkpt lat="43.19445" lon="2.48723">
        <ele>88.6</ele>
        <time>2017-01-20T16:12:37Z</time>
      </trkpt>
      <trkpt lat="43.19445" lon="2.48723">
        <ele>88.4</ele>
        <time>2017-01-20T16:12:38Z</time>
      </trkpt>
      <trkpt lat="43.19445" lon="2.48723">
        <ele>88.2</ele>
        <time>2017-01-20T16:12:39Z</time>
      </trkpt>
      <trkpt lat="43.19445" lon="2.48723">
        <ele>88.2</ele>
        <time>2017-01-20T16:12:40Z</time>
      </trkpt>
      <trkpt lat="43.19445" lon="2.48723">
        <ele>88.3</ele>
        <time>2017-01-20T16:12:41Z</time>
      </trkpt>
      <trkpt lat="43.19445" lon="2.48723">
        <ele>88.3</ele>
        <time>2017-01-20T16:12:42Z</time>
      </trkpt>
      <trkpt lat="43.19445" lon="2.48721">
        <ele>88.4</ele>
        <time>2017-01-20T16:12:43Z</time>
      </trkpt>
      <trkpt lat="43.19453" lon="2.48544">
        <ele>89</ele>
        <time>2017-01-20T16:13:14Z</time>
      </trkpt>
      <trkpt lat="43.19453" lon="2.48544">
        <ele>89.1</ele>
        <time>2017-01-20T16:13:15Z</time>
      </trkpt>
      <trkpt lat="43.19453" lon="2.48544">
        <ele>88.9</ele>
        <time>2017-01-20T16:13:16Z</time>
      </trkpt>
      <trkpt lat="43.19453" lon="2.48544">
        <ele>88.8</ele>
        <time>2017-01-20T16:13:17Z</time>
      </trkpt>
      <trkpt lat="43.19453" lon="2.48544">
        <ele>88.7</ele>
        <time>2017-01-20T16:13:18Z</time>
      </trkpt>
      <trkpt lat="43.19453" lon="2.48544">
        <ele>88.2</ele>
        <time>2017-01-20T16:13:19Z</time>
      </trkpt>
      <trkpt lat="43.19453" lon="2.48544">
        <ele>87.9</ele>
        <time>2017-01-20T16:13:20Z</time>
      </trkpt>
      <trkpt lat="43.19453" lon="2.48544">
        <ele>87.6</ele>
        <time>2017-01-20T16:13:21Z</time>
      </trkpt>
      <trkpt lat="43.19453" lon="2.48544">
        <ele>87.6</ele>
        <time>2017-01-20T16:13:22Z</time>
      </trkpt>
      <trkpt lat="43.19453" lon="2.4854">
        <ele>87.6</ele>
        <time>2017-01-20T16:13:23Z</time>
      </trkpt>
      <trkpt lat="43.19452" lon="2.48494">
        <ele>88.5</ele>
        <time>2017-01-20T16:13:34Z</time>
      </trkpt>
      <trkpt lat="43.19442" lon="2.48273">
        <ele>89.3</ele>
        <time>2017-01-20T16:14:10Z</time>
      </trkpt>
      <trkpt lat="43.19442" lon="2.48273">
        <ele>89.3</ele>
        <time>2017-01-20T16:14:11Z</time>
      </trkpt>
      <trkpt lat="43.19442" lon="2.48273">
        <ele>89.3</ele>
        <time>2017-01-20T16:14:12Z</time>
      </trkpt>
      <trkpt lat="43.19442" lon="2.48273">
        <ele>89.1</ele>
        <time>2017-01-20T16:14:13Z</time>
      </trkpt>
      <trkpt lat="43.19442" lon="2.48273">
        <ele>88.9</ele>
        <time>2017-01-20T16:14:14Z</time>
      </trkpt>
      <trkpt lat="43.19442" lon="2.48273">
        <ele>88.8</ele>
        <time>2017-01-20T16:14:15Z</time>
      </trkpt>
      <trkpt lat="43.19442" lon="2.48273">
        <ele>88.5</ele>
        <time>2017-01-20T16:14:16Z</time>
      </trkpt>
      <trkpt lat="43.19442" lon="2.48273">
        <ele>88.3</ele>
        <time>2017-01-20T16:14:17Z</time>
      </trkpt>
      <trkpt lat="43.19442" lon="2.48273">
        <ele>88.1</ele>
        <time>2017-01-20T16:14:18Z</time>
      </trkpt>
      <trkpt lat="43.19442" lon="2.48273">
        <ele>88.2</ele>
        <time>2017-01-20T16:14:19Z</time>
      </trkpt>
      <trkpt lat="43.19442" lon="2.48267">
        <ele>88.3</ele>
        <time>2017-01-20T16:14:20Z</time>
      </trkpt>
      <trkpt lat="43.19442" lon="2.48264">
        <ele>88.3</ele>
        <time>2017-01-20T16:14:21Z</time>
      </trkpt>
      <trkpt lat="43.1945" lon="2.4818">
        <ele>88.5</ele>
        <time>2017-01-20T16:14:38Z</time>
      </trkpt>
      <trkpt lat="43.19451" lon="2.48175">
        <ele>88.5</ele>
        <time>2017-01-20T16:14:39Z</time>
      </trkpt>
      <trkpt lat="43.19457" lon="2.48153">
        <ele>88.2</ele>
        <time>2017-01-20T16:14:45Z</time>
      </trkpt>
      <trkpt lat="43.19457" lon="2.48153">
        <ele>88.3</ele>
        <time>2017-01-20T16:14:46Z</time>
      </trkpt>
      <trkpt lat="43.19457" lon="2.48153">
        <ele>88.3</ele>
        <time>2017-01-20T16:14:47Z</time>
      </trkpt>
      <trkpt lat="43.19457" lon="2.48153">
        <ele>88.4</ele>
        <time>2017-01-20T16:14:48Z</time>
      </trkpt>
      <trkpt lat="43.19457" lon="2.48153">
        <ele>88.4</ele>
        <time>2017-01-20T16:14:49Z</time>
      </trkpt>
      <trkpt lat="43.19457" lon="2.48153">
        <ele>88.4</ele>
        <time>2017-01-20T16:14:50Z</time>
      </trkpt>
      <trkpt lat="43.19457" lon="2.48153">
        <ele>88.4</ele>
        <time>2017-01-20T16:14:51Z</time>
      </trkpt>
      <trkpt lat="43.19457" lon="2.48153">
        <ele>88.6</ele>
        <time>2017-01-20T16:14:52Z</time>
      </trkpt>
      <trkpt lat="43.19457" lon="2.48153">
        <ele>88.8</ele>
        <time>2017-01-20T16:14:53Z</time>
      </trkpt>
      <trkpt lat="43.19457" lon="2.48153">
        <ele>88.9</ele>
        <time>2017-01-20T16:14:54Z</time>
      </trkpt>
      <trkpt lat="43.19457" lon="2.48153">
        <ele>89</ele>
        <time>2017-01-20T16:14:55Z</time>
      </trkpt>
      <trkpt lat="43.19457" lon="2.48153">
        <ele>89.1</ele>
        <time>2017-01-20T16:14:56Z</time>
      </trkpt>
      <trkpt lat="43.19458" lon="2.48149">
        <ele>89.1</ele>
        <time>2017-01-20T16:14:57Z</time>
      </trkpt>
      <trkpt lat="43.1946" lon="2.48141">
        <ele>89.8</ele>
        <time>2017-01-20T16:15:01Z</time>
      </trkpt>
      <trkpt lat="43.19465" lon="2.48132">
        <ele>90.4</ele>
        <time>2017-01-20T16:15:05Z</time>
      </trkpt>
      <trkpt lat="43.19467" lon="2.4813">
        <ele>90.5</ele>
        <time>2017-01-20T16:15:06Z</time>
      </trkpt>
      <trkpt lat="43.19469" lon="2.4813">
        <ele>90.4</ele>
        <time>2017-01-20T16:15:07Z</time>
      </trkpt>
      <trkpt lat="43.19471" lon="2.4813">
        <ele>90.4</ele>
        <time>2017-01-20T16:15:08Z</time>
      </trkpt>
      <trkpt lat="43.19472" lon="2.4813">
        <ele>90.3</ele>
        <time>2017-01-20T16:15:09Z</time>
      </trkpt>
      <trkpt lat="43.19472" lon="2.4813">
        <ele>90.5</ele>
        <time>2017-01-20T16:15:10Z</time>
      </trkpt>
      <trkpt lat="43.19472" lon="2.4813">
        <ele>90.6</ele>
        <time>2017-01-20T16:15:11Z</time>
      </trkpt>
      <trkpt lat="43.19472" lon="2.4813">
        <ele>90.7</ele>
        <time>2017-01-20T16:15:12Z</time>
      </trkpt>
      <trkpt lat="43.19472" lon="2.4813">
        <ele>91.2</ele>
        <time>2017-01-20T16:15:13Z</time>
      </trkpt>
      <trkpt lat="43.19472" lon="2.4813">
        <ele>91.5</ele>
        <time>2017-01-20T16:15:14Z</time>
      </trkpt>
      <trkpt lat="43.19472" lon="2.4813">
        <ele>91.8</ele>
        <time>2017-01-20T16:15:15Z</time>
      </trkpt>
      <trkpt lat="43.19472" lon="2.4813">
        <ele>91.8</ele>
        <time>2017-01-20T16:15:16Z</time>
      </trkpt>
      <trkpt lat="43.19472" lon="2.4813">
        <ele>91.8</ele>
        <time>2017-01-20T16:15:17Z</time>
      </trkpt>
      <trkpt lat="43.19472" lon="2.4813">
        <ele>91.8</ele>
        <time>2017-01-20T16:15:18Z</time>
      </trkpt>
      <trkpt lat="43.19477" lon="2.48131">
        <ele>91.8</ele>
        <time>2017-01-20T16:15:19Z</time>
      </trkpt>
      <trkpt lat="43.19477" lon="2.48131">
        <ele>91.8</ele>
        <time>2017-01-20T16:15:20Z</time>
      </trkpt>
      <trkpt lat="43.19477" lon="2.48131">
        <ele>91.8</ele>
        <time>2017-01-20T16:15:21Z</time>
      </trkpt>
      <trkpt lat="43.19477" lon="2.48131">
        <ele>91.8</ele>
        <time>2017-01-20T16:15:22Z</time>
      </trkpt>
      <trkpt lat="43.19477" lon="2.48131">
        <ele>91.8</ele>
        <time>2017-01-20T16:15:23Z</time>
      </trkpt>
      <trkpt lat="43.19477" lon="2.48131">
        <ele>91.8</ele>
        <time>2017-01-20T16:15:24Z</time>
      </trkpt>
      <trkpt lat="43.19477" lon="2.48131">
        <ele>91.4</ele>
        <time>2017-01-20T16:15:25Z</time>
      </trkpt>
      <trkpt lat="43.19477" lon="2.48131">
        <ele>91.1</ele>
        <time>2017-01-20T16:15:26Z</time>
      </trkpt>
      <trkpt lat="43.19477" lon="2.48131">
        <ele>90.8</ele>
        <time>2017-01-20T16:15:27Z</time>
      </trkpt>
      <trkpt lat="43.19477" lon="2.48131">
        <ele>90.9</ele>
        <time>2017-01-20T16:15:28Z</time>
      </trkpt>
      <trkpt lat="43.19477" lon="2.48131">
        <ele>90.9</ele>
        <time>2017-01-20T16:15:29Z</time>
      </trkpt>
      <trkpt lat="43.19477" lon="2.48131">
        <ele>90.9</ele>
        <time>2017-01-20T16:15:30Z</time>
      </trkpt>
      <trkpt lat="43.19477" lon="2.48131">
        <ele>91.1</ele>
        <time>2017-01-20T16:15:31Z</time>
      </trkpt>
      <trkpt lat="43.19477" lon="2.48131">
        <ele>91.3</ele>
        <time>2017-01-20T16:15:32Z</time>
      </trkpt>
      <trkpt lat="43.19477" lon="2.48131">
        <ele>91.4</ele>
        <time>2017-01-20T16:15:33Z</time>
      </trkpt>
      <trkpt lat="43.19477" lon="2.48131">
        <ele>91.7</ele>
        <time>2017-01-20T16:15:34Z</time>
      </trkpt>
      <trkpt lat="43.19477" lon="2.48131">
        <ele>91.9</ele>
        <time>2017-01-20T16:15:35Z</time>
      </trkpt>
      <trkpt lat="43.19477" lon="2.48131">
        <ele>92.1</ele>
        <time>2017-01-20T16:15:36Z</time>
      </trkpt>
      <trkpt lat="43.19477" lon="2.48131">
        <ele>92</ele>
        <time>2017-01-20T16:15:37Z</time>
      </trkpt>
      <trkpt lat="43.19477" lon="2.48131">
        <ele>92</ele>
        <time>2017-01-20T16:15:38Z</time>
      </trkpt>
      <trkpt lat="43.19477" lon="2.48131">
        <ele>91.9</ele>
        <time>2017-01-20T16:15:39Z</time>
      </trkpt>
      <trkpt lat="43.19477" lon="2.48131">
        <ele>91.7</ele>
        <time>2017-01-20T16:15:40Z</time>
      </trkpt>
      <trkpt lat="43.19477" lon="2.48131">
        <ele>91.5</ele>
        <time>2017-01-20T16:15:41Z</time>
      </trkpt>
      <trkpt lat="43.19472" lon="2.48128">
        <ele>91.4</ele>
        <time>2017-01-20T16:15:42Z</time>
      </trkpt>
      <trkpt lat="43.19472" lon="2.48128">
        <ele>91.3</ele>
        <time>2017-01-20T16:15:43Z</time>
      </trkpt>
      <trkpt lat="43.19472" lon="2.48128">
        <ele>91.2</ele>
        <time>2017-01-20T16:15:44Z</time>
      </trkpt>
      <trkpt lat="43.19472" lon="2.48128">
        <ele>91.1</ele>
        <time>2017-01-20T16:15:45Z</time>
      </trkpt>
      <trkpt lat="43.19472" lon="2.48128">
        <ele>91.3</ele>
        <time>2017-01-20T16:15:46Z</time>
      </trkpt>
      <trkpt lat="43.19472" lon="2.48128">
        <ele>91.4</ele>
        <time>2017-01-20T16:15:47Z</time>
      </trkpt>
      <trkpt lat="43.19472" lon="2.48128">
        <ele>91.5</ele>
        <time>2017-01-20T16:15:48Z</time>
      </trkpt>
      <trkpt lat="43.19472" lon="2.48128">
        <ele>91.4</ele>
        <time>2017-01-20T16:15:49Z</time>
      </trkpt>
      <trkpt lat="43.19472" lon="2.48128">
        <ele>91.3</ele>
        <time>2017-01-20T16:15:50Z</time>
      </trkpt>
      <trkpt lat="43.19472" lon="2.48128">
        <ele>91.2</ele>
        <time>2017-01-20T16:15:51Z</time>
      </trkpt>
      <trkpt lat="43.19472" lon="2.48128">
        <ele>91.1</ele>
        <time>2017-01-20T16:15:52Z</time>
      </trkpt>
      <trkpt lat="43.19472" lon="2.48128">
        <ele>91.1</ele>
        <time>2017-01-20T16:15:53Z</time>
      </trkpt>
      <trkpt lat="43.1947" lon="2.48123">
        <ele>91.1</ele>
        <time>2017-01-20T16:15:54Z</time>
      </trkpt>
      <trkpt lat="43.19469" lon="2.48121">
        <ele>90.8</ele>
        <time>2017-01-20T16:15:55Z</time>
      </trkpt>
      <trkpt lat="43.19469" lon="2.48118">
        <ele>90.7</ele>
        <time>2017-01-20T16:15:56Z</time>
      </trkpt>
      <trkpt lat="43.1947" lon="2.48115">
        <ele>90.5</ele>
        <time>2017-01-20T16:15:57Z</time>
      </trkpt>
      <trkpt lat="43.19471" lon="2.48112">
        <ele>90.6</ele>
        <time>2017-01-20T16:15:58Z</time>
      </trkpt>
      <trkpt lat="43.195" lon="2.48071">
        <ele>90.3</ele>
        <time>2017-01-20T16:16:09Z</time>
      </trkpt>
      <trkpt lat="43.19523" lon="2.48041">
        <ele>89.2</ele>
        <time>2017-01-20T16:16:19Z</time>
      </trkpt>
      <trkpt lat="43.19523" lon="2.48041">
        <ele>89.2</ele>
        <time>2017-01-20T16:16:20Z</time>
      </trkpt>
      <trkpt lat="43.19523" lon="2.48041">
        <ele>89.2</ele>
        <time>2017-01-20T16:16:21Z</time>
      </trkpt>
      <trkpt lat="43.19523" lon="2.48041">
        <ele>89.1</ele>
        <time>2017-01-20T16:16:22Z</time>
      </trkpt>
      <trkpt lat="43.19523" lon="2.48041">
        <ele>88.9</ele>
        <time>2017-01-20T16:16:23Z</time>
      </trkpt>
      <trkpt lat="43.19523" lon="2.48041">
        <ele>88.8</ele>
        <time>2017-01-20T16:16:24Z</time>
      </trkpt>
      <trkpt lat="43.19523" lon="2.48041">
        <ele>88.7</ele>
        <time>2017-01-20T16:16:25Z</time>
      </trkpt>
      <trkpt lat="43.19523" lon="2.48041">
        <ele>88.7</ele>
        <time>2017-01-20T16:16:26Z</time>
      </trkpt>
      <trkpt lat="43.19524" lon="2.48039">
        <ele>88.6</ele>
        <time>2017-01-20T16:16:27Z</time>
      </trkpt>
      <trkpt lat="43.19525" lon="2.48037">
        <ele>88.8</ele>
        <time>2017-01-20T16:16:28Z</time>
      </trkpt>
      <trkpt lat="43.19531" lon="2.48026">
        <ele>88.8</ele>
        <time>2017-01-20T16:16:32Z</time>
      </trkpt>
      <trkpt lat="43.1955" lon="2.4799">
        <ele>88.8</ele>
        <time>2017-01-20T16:16:41Z</time>
      </trkpt>
      <trkpt lat="43.19551" lon="2.47986">
        <ele>88.7</ele>
        <time>2017-01-20T16:16:42Z</time>
      </trkpt>
      <trkpt lat="43.19555" lon="2.47972">
        <ele>88.9</ele>
        <time>2017-01-20T16:16:47Z</time>
      </trkpt>
      <trkpt lat="43.19555" lon="2.47972">
        <ele>89</ele>
        <time>2017-01-20T16:16:48Z</time>
      </trkpt>
      <trkpt lat="43.19555" lon="2.47972">
        <ele>89.1</ele>
        <time>2017-01-20T16:16:49Z</time>
      </trkpt>
      <trkpt lat="43.19555" lon="2.47972">
        <ele>89.1</ele>
        <time>2017-01-20T16:16:50Z</time>
      </trkpt>
      <trkpt lat="43.19555" lon="2.47972">
        <ele>89.2</ele>
        <time>2017-01-20T16:16:51Z</time>
      </trkpt>
      <trkpt lat="43.19555" lon="2.47972">
        <ele>89</ele>
        <time>2017-01-20T16:16:52Z</time>
      </trkpt>
      <trkpt lat="43.19555" lon="2.47972">
        <ele>88.9</ele>
        <time>2017-01-20T16:16:53Z</time>
      </trkpt>
      <trkpt lat="43.19555" lon="2.47972">
        <ele>88.8</ele>
        <time>2017-01-20T16:16:54Z</time>
      </trkpt>
      <trkpt lat="43.19555" lon="2.47972">
        <ele>88.5</ele>
        <time>2017-01-20T16:16:55Z</time>
      </trkpt>
      <trkpt lat="43.19555" lon="2.47972">
        <ele>88.3</ele>
        <time>2017-01-20T16:16:56Z</time>
      </trkpt>
      <trkpt lat="43.19556" lon="2.47967">
        <ele>88.1</ele>
        <time>2017-01-20T16:16:57Z</time>
      </trkpt>
      <trkpt lat="43.1958" lon="2.47876">
        <ele>89.2</ele>
        <time>2017-01-20T16:17:18Z</time>
      </trkpt>
      <trkpt lat="43.1958" lon="2.47876">
        <ele>89.1</ele>
        <time>2017-01-20T16:17:19Z</time>
      </trkpt>
      <trkpt lat="43.1958" lon="2.47876">
        <ele>88.9</ele>
        <time>2017-01-20T16:17:20Z</time>
      </trkpt>
      <trkpt lat="43.1958" lon="2.47876">
        <ele>88.8</ele>
        <time>2017-01-20T16:17:21Z</time>
      </trkpt>
      <trkpt lat="43.1958" lon="2.47876">
        <ele>88.7</ele>
        <time>2017-01-20T16:17:22Z</time>
      </trkpt>
      <trkpt lat="43.1958" lon="2.47876">
        <ele>88.7</ele>
        <time>2017-01-20T16:17:23Z</time>
      </trkpt>
      <trkpt lat="43.1958" lon="2.47876">
        <ele>88.6</ele>
        <time>2017-01-20T16:17:24Z</time>
      </trkpt>
      <trkpt lat="43.1958" lon="2.47876">
        <ele>88.6</ele>
        <time>2017-01-20T16:17:25Z</time>
      </trkpt>
      <trkpt lat="43.1958" lon="2.47876">
        <ele>88.5</ele>
        <time>2017-01-20T16:17:26Z</time>
      </trkpt>
      <trkpt lat="43.1958" lon="2.47876">
        <ele>88.5</ele>
        <time>2017-01-20T16:17:27Z</time>
      </trkpt>
      <trkpt lat="43.19581" lon="2.47872">
        <ele>88.5</ele>
        <time>2017-01-20T16:17:28Z</time>
      </trkpt>
      <trkpt lat="43.19655" lon="2.47571">
        <ele>88.4</ele>
        <time>2017-01-20T16:18:30Z</time>
      </trkpt>
      <trkpt lat="43.19655" lon="2.47571">
        <ele>88</ele>
        <time>2017-01-20T16:18:31Z</time>
      </trkpt>
      <trkpt lat="43.19655" lon="2.47571">
        <ele>87.7</ele>
        <time>2017-01-20T16:18:32Z</time>
      </trkpt>
      <trkpt lat="43.19655" lon="2.47571">
        <ele>87.5</ele>
        <time>2017-01-20T16:18:33Z</time>
      </trkpt>
      <trkpt lat="43.19655" lon="2.47571">
        <ele>87.5</ele>
        <time>2017-01-20T16:18:34Z</time>
      </trkpt>
      <trkpt lat="43.19655" lon="2.47571">
        <ele>87.5</ele>
        <time>2017-01-20T16:18:35Z</time>
      </trkpt>
      <trkpt lat="43.19655" lon="2.47571">
        <ele>87.6</ele>
        <time>2017-01-20T16:18:36Z</time>
      </trkpt>
      <trkpt lat="43.19655" lon="2.47571">
        <ele>87.8</ele>
        <time>2017-01-20T16:18:37Z</time>
      </trkpt>
      <trkpt lat="43.19655" lon="2.47571">
        <ele>88</ele>
        <time>2017-01-20T16:18:38Z</time>
      </trkpt>
      <trkpt lat="43.19655" lon="2.47571">
        <ele>88.1</ele>
        <time>2017-01-20T16:18:39Z</time>
      </trkpt>
      <trkpt lat="43.19656" lon="2.47566">
        <ele>88</ele>
        <time>2017-01-20T16:18:40Z</time>
      </trkpt>
      <trkpt lat="43.19716" lon="2.47318">
        <ele>88.4</ele>
        <time>2017-01-20T16:19:28Z</time>
      </trkpt>
      <trkpt lat="43.19716" lon="2.47318">
        <ele>88.4</ele>
        <time>2017-01-20T16:19:29Z</time>
      </trkpt>
      <trkpt lat="43.19716" lon="2.47318">
        <ele>88.4</ele>
        <time>2017-01-20T16:19:30Z</time>
      </trkpt>
      <trkpt lat="43.19716" lon="2.47318">
        <ele>88.4</ele>
        <time>2017-01-20T16:19:31Z</time>
      </trkpt>
      <trkpt lat="43.19716" lon="2.47318">
        <ele>88.5</ele>
        <time>2017-01-20T16:19:32Z</time>
      </trkpt>
      <trkpt lat="43.19716" lon="2.47318">
        <ele>88.5</ele>
        <time>2017-01-20T16:19:33Z</time>
      </trkpt>
      <trkpt lat="43.19716" lon="2.47318">
        <ele>88.3</ele>
        <time>2017-01-20T16:19:34Z</time>
      </trkpt>
      <trkpt lat="43.19716" lon="2.47318">
        <ele>88.1</ele>
        <time>2017-01-20T16:19:35Z</time>
      </trkpt>
      <trkpt lat="43.19716" lon="2.47318">
        <ele>88</ele>
        <time>2017-01-20T16:19:36Z</time>
      </trkpt>
      <trkpt lat="43.19716" lon="2.47318">
        <ele>87.9</ele>
        <time>2017-01-20T16:19:37Z</time>
      </trkpt>
      <trkpt lat="43.19716" lon="2.47318">
        <ele>87.8</ele>
        <time>2017-01-20T16:19:38Z</time>
      </trkpt>
      <trkpt lat="43.19717" lon="2.47316">
        <ele>87.8</ele>
        <time>2017-01-20T16:19:39Z</time>
      </trkpt>
      <trkpt lat="43.19718" lon="2.47314">
        <ele>87.5</ele>
        <time>2017-01-20T16:19:40Z</time>
      </trkpt>
      <trkpt lat="43.19757" lon="2.47102">
        <ele>88.8</ele>
        <time>2017-01-20T16:20:22Z</time>
      </trkpt>
      <trkpt lat="43.19757" lon="2.47099">
        <ele>89</ele>
        <time>2017-01-20T16:20:24Z</time>
      </trkpt>
      <trkpt lat="43.19757" lon="2.47099">
        <ele>88.5</ele>
        <time>2017-01-20T16:20:25Z</time>
      </trkpt>
      <trkpt lat="43.19757" lon="2.47099">
        <ele>88.1</ele>
        <time>2017-01-20T16:20:26Z</time>
      </trkpt>
      <trkpt lat="43.19757" lon="2.47099">
        <ele>87.8</ele>
        <time>2017-01-20T16:20:27Z</time>
      </trkpt>
      <trkpt lat="43.19757" lon="2.47099">
        <ele>87.7</ele>
        <time>2017-01-20T16:20:28Z</time>
      </trkpt>
      <trkpt lat="43.19757" lon="2.47099">
        <ele>87.7</ele>
        <time>2017-01-20T16:20:29Z</time>
      </trkpt>
      <trkpt lat="43.19757" lon="2.47099">
        <ele>87.7</ele>
        <time>2017-01-20T16:20:30Z</time>
      </trkpt>
      <trkpt lat="43.19757" lon="2.47099">
        <ele>87.9</ele>
        <time>2017-01-20T16:20:31Z</time>
      </trkpt>
      <trkpt lat="43.19757" lon="2.47099">
        <ele>88</ele>
        <time>2017-01-20T16:20:32Z</time>
      </trkpt>
      <trkpt lat="43.19757" lon="2.47099">
        <ele>88.1</ele>
        <time>2017-01-20T16:20:33Z</time>
      </trkpt>
      <trkpt lat="43.19757" lon="2.47099">
        <ele>88.4</ele>
        <time>2017-01-20T16:20:34Z</time>
      </trkpt>
      <trkpt lat="43.19757" lon="2.47099">
        <ele>88.6</ele>
        <time>2017-01-20T16:20:35Z</time>
      </trkpt>
      <trkpt lat="43.19757" lon="2.47099">
        <ele>88.8</ele>
        <time>2017-01-20T16:20:36Z</time>
      </trkpt>
      <trkpt lat="43.19757" lon="2.47095">
        <ele>88.7</ele>
        <time>2017-01-20T16:20:37Z</time>
      </trkpt>
      <trkpt lat="43.19759" lon="2.47086">
        <ele>88.6</ele>
        <time>2017-01-20T16:20:40Z</time>
      </trkpt>
      <trkpt lat="43.19796" lon="2.46796">
        <ele>88.9</ele>
        <time>2017-01-20T16:21:30Z</time>
      </trkpt>
      <trkpt lat="43.19796" lon="2.46796">
        <ele>88.8</ele>
        <time>2017-01-20T16:21:31Z</time>
      </trkpt>
      <trkpt lat="43.19796" lon="2.46796">
        <ele>88.7</ele>
        <time>2017-01-20T16:21:32Z</time>
      </trkpt>
      <trkpt lat="43.19796" lon="2.46796">
        <ele>88.6</ele>
        <time>2017-01-20T16:21:33Z</time>
      </trkpt>
      <trkpt lat="43.19796" lon="2.46796">
        <ele>88.4</ele>
        <time>2017-01-20T16:21:34Z</time>
      </trkpt>
      <trkpt lat="43.19796" lon="2.46796">
        <ele>88.2</ele>
        <time>2017-01-20T16:21:35Z</time>
      </trkpt>
      <trkpt lat="43.19796" lon="2.46796">
        <ele>88.1</ele>
        <time>2017-01-20T16:21:36Z</time>
      </trkpt>
      <trkpt lat="43.19796" lon="2.46796">
        <ele>88</ele>
        <time>2017-01-20T16:21:37Z</time>
      </trkpt>
      <trkpt lat="43.19796" lon="2.46796">
        <ele>87.9</ele>
        <time>2017-01-20T16:21:38Z</time>
      </trkpt>
      <trkpt lat="43.19796" lon="2.46792">
        <ele>87.8</ele>
        <time>2017-01-20T16:21:39Z</time>
      </trkpt>
      <trkpt lat="43.19797" lon="2.46709">
        <ele>88.4</ele>
        <time>2017-01-20T16:21:56Z</time>
      </trkpt>
      <trkpt lat="43.19793" lon="2.46584">
        <ele>88.2</ele>
        <time>2017-01-20T16:22:15Z</time>
      </trkpt>
      <trkpt lat="43.19792" lon="2.46539">
        <ele>88.6</ele>
        <time>2017-01-20T16:22:27Z</time>
      </trkpt>
      <trkpt lat="43.19792" lon="2.46539">
        <ele>88.1</ele>
        <time>2017-01-20T16:22:28Z</time>
      </trkpt>
      <trkpt lat="43.19792" lon="2.46539">
        <ele>87.8</ele>
        <time>2017-01-20T16:22:29Z</time>
      </trkpt>
      <trkpt lat="43.19792" lon="2.46539">
        <ele>87.6</ele>
        <time>2017-01-20T16:22:30Z</time>
      </trkpt>
      <trkpt lat="43.19792" lon="2.46539">
        <ele>87.6</ele>
        <time>2017-01-20T16:22:31Z</time>
      </trkpt>
      <trkpt lat="43.19792" lon="2.46539">
        <ele>87.6</ele>
        <time>2017-01-20T16:22:32Z</time>
      </trkpt>
      <trkpt lat="43.19792" lon="2.46539">
        <ele>87.6</ele>
        <time>2017-01-20T16:22:33Z</time>
      </trkpt>
      <trkpt lat="43.19792" lon="2.46539">
        <ele>87.6</ele>
        <time>2017-01-20T16:22:34Z</time>
      </trkpt>
      <trkpt lat="43.19792" lon="2.46539">
        <ele>87.6</ele>
        <time>2017-01-20T16:22:35Z</time>
      </trkpt>
      <trkpt lat="43.19793" lon="2.46536">
        <ele>87.6</ele>
        <time>2017-01-20T16:22:36Z</time>
      </trkpt>
      <trkpt lat="43.19794" lon="2.46527">
        <ele>88.1</ele>
        <time>2017-01-20T16:22:39Z</time>
      </trkpt>
      <trkpt lat="43.19809" lon="2.46424">
        <ele>88.9</ele>
        <time>2017-01-20T16:22:58Z</time>
      </trkpt>
      <trkpt lat="43.19824" lon="2.46364">
        <ele>89.3</ele>
        <time>2017-01-20T16:23:08Z</time>
      </trkpt>
      <trkpt lat="43.19857" lon="2.4625">
        <ele>89.3</ele>
        <time>2017-01-20T16:23:31Z</time>
      </trkpt>
      <trkpt lat="43.19857" lon="2.4625">
        <ele>89.3</ele>
        <time>2017-01-20T16:23:32Z</time>
      </trkpt>
      <trkpt lat="43.19857" lon="2.4625">
        <ele>89.3</ele>
        <time>2017-01-20T16:23:33Z</time>
      </trkpt>
      <trkpt lat="43.19857" lon="2.4625">
        <ele>89.1</ele>
        <time>2017-01-20T16:23:34Z</time>
      </trkpt>
      <trkpt lat="43.19857" lon="2.4625">
        <ele>88.9</ele>
        <time>2017-01-20T16:23:35Z</time>
      </trkpt>
      <trkpt lat="43.19857" lon="2.4625">
        <ele>88.8</ele>
        <time>2017-01-20T16:23:36Z</time>
      </trkpt>
      <trkpt lat="43.19857" lon="2.4625">
        <ele>88.5</ele>
        <time>2017-01-20T16:23:37Z</time>
      </trkpt>
      <trkpt lat="43.19857" lon="2.4625">
        <ele>88.3</ele>
        <time>2017-01-20T16:23:38Z</time>
      </trkpt>
      <trkpt lat="43.19857" lon="2.4625">
        <ele>88.1</ele>
        <time>2017-01-20T16:23:39Z</time>
      </trkpt>
      <trkpt lat="43.19857" lon="2.4625">
        <ele>88.2</ele>
        <time>2017-01-20T16:23:40Z</time>
      </trkpt>
      <trkpt lat="43.19857" lon="2.4625">
        <ele>88.3</ele>
        <time>2017-01-20T16:23:41Z</time>
      </trkpt>
      <trkpt lat="43.19857" lon="2.4625">
        <ele>88.3</ele>
        <time>2017-01-20T16:23:42Z</time>
      </trkpt>
      <trkpt lat="43.19857" lon="2.4625">
        <ele>88.2</ele>
        <time>2017-01-20T16:23:43Z</time>
      </trkpt>
      <trkpt lat="43.19857" lon="2.4625">
        <ele>88</ele>
        <time>2017-01-20T16:23:44Z</time>
      </trkpt>
      <trkpt lat="43.19857" lon="2.4625">
        <ele>87.9</ele>
        <time>2017-01-20T16:23:45Z</time>
      </trkpt>
      <trkpt lat="43.19857" lon="2.4625">
        <ele>88.1</ele>
        <time>2017-01-20T16:23:46Z</time>
      </trkpt>
      <trkpt lat="43.19857" lon="2.4625">
        <ele>88.2</ele>
        <time>2017-01-20T16:23:47Z</time>
      </trkpt>
      <trkpt lat="43.19857" lon="2.4625">
        <ele>88.2</ele>
        <time>2017-01-20T16:23:48Z</time>
      </trkpt>
      <trkpt lat="43.19857" lon="2.4625">
        <ele>88.3</ele>
        <time>2017-01-20T16:23:49Z</time>
      </trkpt>
      <trkpt lat="43.19857" lon="2.4625">
        <ele>88.3</ele>
        <time>2017-01-20T16:23:50Z</time>
      </trkpt>
      <trkpt lat="43.19857" lon="2.46246">
        <ele>88.4</ele>
        <time>2017-01-20T16:23:51Z</time>
      </trkpt>
      <trkpt lat="43.19858" lon="2.46245">
        <ele>88.4</ele>
        <time>2017-01-20T16:23:52Z</time>
      </trkpt>
      <trkpt lat="43.19861" lon="2.46232">
        <ele>89.1</ele>
        <time>2017-01-20T16:23:59Z</time>
      </trkpt>
      <trkpt lat="43.19869" lon="2.46204">
        <ele>91</ele>
        <time>2017-01-20T16:24:11Z</time>
      </trkpt>
      <trkpt lat="43.1987" lon="2.46203">
        <ele>91</ele>
        <time>2017-01-20T16:24:12Z</time>
      </trkpt>
      <trkpt lat="43.19871" lon="2.46202">
        <ele>90.6</ele>
        <time>2017-01-20T16:24:14Z</time>
      </trkpt>
      <trkpt lat="43.19871" lon="2.46202">
        <ele>90.5</ele>
        <time>2017-01-20T16:24:15Z</time>
      </trkpt>
      <trkpt lat="43.19871" lon="2.46202">
        <ele>90.4</ele>
        <time>2017-01-20T16:24:16Z</time>
      </trkpt>
      <trkpt lat="43.19871" lon="2.46202">
        <ele>90.3</ele>
        <time>2017-01-20T16:24:17Z</time>
      </trkpt>
      <trkpt lat="43.19871" lon="2.46202">
        <ele>90.3</ele>
        <time>2017-01-20T16:24:18Z</time>
      </trkpt>
      <trkpt lat="43.19871" lon="2.46202">
        <ele>90.2</ele>
        <time>2017-01-20T16:24:19Z</time>
      </trkpt>
      <trkpt lat="43.19871" lon="2.46202">
        <ele>90.2</ele>
        <time>2017-01-20T16:24:20Z</time>
      </trkpt>
      <trkpt lat="43.19871" lon="2.46202">
        <ele>90.2</ele>
        <time>2017-01-20T16:24:21Z</time>
      </trkpt>
      <trkpt lat="43.19871" lon="2.46202">
        <ele>90.4</ele>
        <time>2017-01-20T16:24:22Z</time>
      </trkpt>
      <trkpt lat="43.19871" lon="2.46202">
        <ele>90.5</ele>
        <time>2017-01-20T16:24:23Z</time>
      </trkpt>
      <trkpt lat="43.19871" lon="2.46202">
        <ele>90.6</ele>
        <time>2017-01-20T16:24:24Z</time>
      </trkpt>
      <trkpt lat="43.19872" lon="2.46208">
        <ele>90.7</ele>
        <time>2017-01-20T16:24:25Z</time>
      </trkpt>
      <trkpt lat="43.19872" lon="2.46208">
        <ele>90.8</ele>
        <time>2017-01-20T16:24:26Z</time>
      </trkpt>
      <trkpt lat="43.19872" lon="2.46208">
        <ele>90.8</ele>
        <time>2017-01-20T16:24:27Z</time>
      </trkpt>
      <trkpt lat="43.19872" lon="2.46208">
        <ele>91.1</ele>
        <time>2017-01-20T16:24:28Z</time>
      </trkpt>
      <trkpt lat="43.19872" lon="2.46208">
        <ele>91.2</ele>
        <time>2017-01-20T16:24:29Z</time>
      </trkpt>
      <trkpt lat="43.19872" lon="2.46208">
        <ele>91.4</ele>
        <time>2017-01-20T16:24:30Z</time>
      </trkpt>
      <trkpt lat="43.19872" lon="2.46208">
        <ele>91.3</ele>
        <time>2017-01-20T16:24:31Z</time>
      </trkpt>
      <trkpt lat="43.19872" lon="2.46208">
        <ele>91.2</ele>
        <time>2017-01-20T16:24:32Z</time>
      </trkpt>
      <trkpt lat="43.19872" lon="2.46208">
        <ele>91.1</ele>
        <time>2017-01-20T16:24:33Z</time>
      </trkpt>
      <trkpt lat="43.19872" lon="2.46208">
        <ele>90.9</ele>
        <time>2017-01-20T16:24:34Z</time>
      </trkpt>
      <trkpt lat="43.19872" lon="2.46208">
        <ele>90.7</ele>
        <time>2017-01-20T16:24:35Z</time>
      </trkpt>
      <trkpt lat="43.19872" lon="2.46208">
        <ele>90.6</ele>
        <time>2017-01-20T16:24:36Z</time>
      </trkpt>
      <trkpt lat="43.19872" lon="2.46208">
        <ele>90.9</ele>
        <time>2017-01-20T16:24:37Z</time>
      </trkpt>
      <trkpt lat="43.19872" lon="2.46208">
        <ele>91.1</ele>
        <time>2017-01-20T16:24:38Z</time>
      </trkpt>
      <trkpt lat="43.19872" lon="2.46208">
        <ele>91.3</ele>
        <time>2017-01-20T16:24:39Z</time>
      </trkpt>
      <trkpt lat="43.19872" lon="2.46208">
        <ele>91</ele>
        <time>2017-01-20T16:24:40Z</time>
      </trkpt>
      <trkpt lat="43.19872" lon="2.46208">
        <ele>90.8</ele>
        <time>2017-01-20T16:24:41Z</time>
      </trkpt>
      <trkpt lat="43.19872" lon="2.46208">
        <ele>90.6</ele>
        <time>2017-01-20T16:24:42Z</time>
      </trkpt>
      <trkpt lat="43.19872" lon="2.46208">
        <ele>90.9</ele>
        <time>2017-01-20T16:24:43Z</time>
      </trkpt>
      <trkpt lat="43.19872" lon="2.46208">
        <ele>91.1</ele>
        <time>2017-01-20T16:24:44Z</time>
      </trkpt>
      <trkpt lat="43.19872" lon="2.46208">
        <ele>91.3</ele>
        <time>2017-01-20T16:24:45Z</time>
      </trkpt>
      <trkpt lat="43.19872" lon="2.46208">
        <ele>91</ele>
        <time>2017-01-20T16:24:46Z</time>
      </trkpt>
      <trkpt lat="43.19872" lon="2.46208">
        <ele>90.8</ele>
        <time>2017-01-20T16:24:47Z</time>
      </trkpt>
      <trkpt lat="43.19873" lon="2.46203">
        <ele>90.6</ele>
        <time>2017-01-20T16:24:48Z</time>
      </trkpt>
      <trkpt lat="43.19872" lon="2.462">
        <ele>90.5</ele>
        <time>2017-01-20T16:24:49Z</time>
      </trkpt>
      <trkpt lat="43.19872" lon="2.46197">
        <ele>90.4</ele>
        <time>2017-01-20T16:24:50Z</time>
      </trkpt>
      <trkpt lat="43.19873" lon="2.46194">
        <ele>90.3</ele>
        <time>2017-01-20T16:24:51Z</time>
      </trkpt>
      <trkpt lat="43.19877" lon="2.46182">
        <ele>90.7</ele>
        <time>2017-01-20T16:24:54Z</time>
      </trkpt>
      <trkpt lat="43.19903" lon="2.46128">
        <ele>89</ele>
        <time>2017-01-20T16:25:04Z</time>
      </trkpt>
      <trkpt lat="43.19921" lon="2.46093">
        <ele>88.5</ele>
        <time>2017-01-20T16:25:15Z</time>
      </trkpt>
      <trkpt lat="43.19921" lon="2.46093">
        <ele>88.5</ele>
        <time>2017-01-20T16:25:16Z</time>
      </trkpt>
      <trkpt lat="43.19921" lon="2.46093">
        <ele>88.5</ele>
        <time>2017-01-20T16:25:17Z</time>
      </trkpt>
      <trkpt lat="43.19921" lon="2.46093">
        <ele>88.5</ele>
        <time>2017-01-20T16:25:18Z</time>
      </trkpt>
      <trkpt lat="43.19921" lon="2.46093">
        <ele>88.5</ele>
        <time>2017-01-20T16:25:19Z</time>
      </trkpt>
      <trkpt lat="43.19921" lon="2.46093">
        <ele>88.5</ele>
        <time>2017-01-20T16:25:20Z</time>
      </trkpt>
      <trkpt lat="43.19921" lon="2.46093">
        <ele>88.5</ele>
        <time>2017-01-20T16:25:21Z</time>
      </trkpt>
      <trkpt lat="43.19921" lon="2.46093">
        <ele>88.1</ele>
        <time>2017-01-20T16:25:22Z</time>
      </trkpt>
      <trkpt lat="43.19921" lon="2.46093">
        <ele>87.7</ele>
        <time>2017-01-20T16:25:23Z</time>
      </trkpt>
      <trkpt lat="43.19921" lon="2.46093">
        <ele>87.5</ele>
        <time>2017-01-20T16:25:24Z</time>
      </trkpt>
      <trkpt lat="43.19921" lon="2.46093">
        <ele>87.5</ele>
        <time>2017-01-20T16:25:25Z</time>
      </trkpt>
      <trkpt lat="43.19921" lon="2.46093">
        <ele>87.6</ele>
        <time>2017-01-20T16:25:26Z</time>
      </trkpt>
      <trkpt lat="43.19921" lon="2.46093">
        <ele>87.6</ele>
        <time>2017-01-20T16:25:27Z</time>
      </trkpt>
      <trkpt lat="43.19921" lon="2.46093">
        <ele>87.6</ele>
        <time>2017-01-20T16:25:28Z</time>
      </trkpt>
      <trkpt lat="43.19921" lon="2.46093">
        <ele>87.6</ele>
        <time>2017-01-20T16:25:29Z</time>
      </trkpt>
      <trkpt lat="43.19921" lon="2.46093">
        <ele>87.6</ele>
        <time>2017-01-20T16:25:30Z</time>
      </trkpt>
      <trkpt lat="43.19921" lon="2.46093">
        <ele>87.6</ele>
        <time>2017-01-20T16:25:31Z</time>
      </trkpt>
      <trkpt lat="43.19921" lon="2.46093">
        <ele>87.6</ele>
        <time>2017-01-20T16:25:32Z</time>
      </trkpt>
      <trkpt lat="43.19921" lon="2.46093">
        <ele>87.6</ele>
        <time>2017-01-20T16:25:33Z</time>
      </trkpt>
      <trkpt lat="43.19921" lon="2.46093">
        <ele>87.8</ele>
        <time>2017-01-20T16:25:34Z</time>
      </trkpt>
      <trkpt lat="43.19921" lon="2.46093">
        <ele>88</ele>
        <time>2017-01-20T16:25:35Z</time>
      </trkpt>
      <trkpt lat="43.19921" lon="2.46093">
        <ele>88.1</ele>
        <time>2017-01-20T16:25:36Z</time>
      </trkpt>
      <trkpt lat="43.19921" lon="2.46093">
        <ele>88</ele>
        <time>2017-01-20T16:25:37Z</time>
      </trkpt>
      <trkpt lat="43.19921" lon="2.46093">
        <ele>87.9</ele>
        <time>2017-01-20T16:25:38Z</time>
      </trkpt>
      <trkpt lat="43.19921" lon="2.46093">
        <ele>87.8</ele>
        <time>2017-01-20T16:25:39Z</time>
      </trkpt>
      <trkpt lat="43.19921" lon="2.46093">
        <ele>88</ele>
        <time>2017-01-20T16:25:40Z</time>
      </trkpt>
      <trkpt lat="43.19921" lon="2.46093">
        <ele>88.1</ele>
        <time>2017-01-20T16:25:41Z</time>
      </trkpt>
      <trkpt lat="43.19921" lon="2.46093">
        <ele>88.2</ele>
        <time>2017-01-20T16:25:42Z</time>
      </trkpt>
      <trkpt lat="43.19921" lon="2.46093">
        <ele>87.9</ele>
        <time>2017-01-20T16:25:43Z</time>
      </trkpt>
      <trkpt lat="43.19921" lon="2.46093">
        <ele>87.6</ele>
        <time>2017-01-20T16:25:44Z</time>
      </trkpt>
      <trkpt lat="43.19921" lon="2.46093">
        <ele>87.4</ele>
        <time>2017-01-20T16:25:45Z</time>
      </trkpt>
      <trkpt lat="43.19921" lon="2.46093">
        <ele>87.5</ele>
        <time>2017-01-20T16:25:46Z</time>
      </trkpt>
      <trkpt lat="43.19921" lon="2.46093">
        <ele>87.5</ele>
        <time>2017-01-20T16:25:47Z</time>
      </trkpt>
      <trkpt lat="43.19921" lon="2.46093">
        <ele>87.5</ele>
        <time>2017-01-20T16:25:48Z</time>
      </trkpt>
      <trkpt lat="43.19921" lon="2.46093">
        <ele>87.6</ele>
        <time>2017-01-20T16:25:49Z</time>
      </trkpt>
      <trkpt lat="43.19921" lon="2.46093">
        <ele>87.6</ele>
        <time>2017-01-20T16:25:50Z</time>
      </trkpt>
      <trkpt lat="43.19921" lon="2.46093">
        <ele>87.6</ele>
        <time>2017-01-20T16:25:51Z</time>
      </trkpt>
      <trkpt lat="43.19921" lon="2.46093">
        <ele>87.8</ele>
        <time>2017-01-20T16:25:52Z</time>
      </trkpt>
      <trkpt lat="43.19921" lon="2.46093">
        <ele>88</ele>
        <time>2017-01-20T16:25:53Z</time>
      </trkpt>
      <trkpt lat="43.19921" lon="2.46093">
        <ele>88.1</ele>
        <time>2017-01-20T16:25:54Z</time>
      </trkpt>
      <trkpt lat="43.19921" lon="2.46093">
        <ele>88.2</ele>
        <time>2017-01-20T16:25:55Z</time>
      </trkpt>
      <trkpt lat="43.19921" lon="2.46093">
        <ele>88.3</ele>
        <time>2017-01-20T16:25:56Z</time>
      </trkpt>
      <trkpt lat="43.19921" lon="2.46093">
        <ele>88.3</ele>
        <time>2017-01-20T16:25:57Z</time>
      </trkpt>
      <trkpt lat="43.19921" lon="2.46093">
        <ele>87.9</ele>
        <time>2017-01-20T16:25:58Z</time>
      </trkpt>
      <trkpt lat="43.19921" lon="2.46093">
        <ele>87.7</ele>
        <time>2017-01-20T16:25:59Z</time>
      </trkpt>
      <trkpt lat="43.19921" lon="2.46093">
        <ele>87.4</ele>
        <time>2017-01-20T16:26:00Z</time>
      </trkpt>
      <trkpt lat="43.19921" lon="2.46093">
        <ele>87.5</ele>
        <time>2017-01-20T16:26:01Z</time>
      </trkpt>
      <trkpt lat="43.19921" lon="2.46093">
        <ele>87.5</ele>
        <time>2017-01-20T16:26:02Z</time>
      </trkpt>
      <trkpt lat="43.19921" lon="2.46093">
        <ele>87.6</ele>
        <time>2017-01-20T16:26:03Z</time>
      </trkpt>
      <trkpt lat="43.19921" lon="2.46093">
        <ele>87.4</ele>
        <time>2017-01-20T16:26:04Z</time>
      </trkpt>
      <trkpt lat="43.19921" lon="2.46093">
        <ele>87.2</ele>
        <time>2017-01-20T16:26:05Z</time>
      </trkpt>
      <trkpt lat="43.19921" lon="2.46093">
        <ele>87.1</ele>
        <time>2017-01-20T16:26:06Z</time>
      </trkpt>
      <trkpt lat="43.19921" lon="2.46093">
        <ele>87.3</ele>
        <time>2017-01-20T16:26:07Z</time>
      </trkpt>
      <trkpt lat="43.19921" lon="2.46093">
        <ele>87.4</ele>
        <time>2017-01-20T16:26:08Z</time>
      </trkpt>
      <trkpt lat="43.19921" lon="2.46093">
        <ele>87.4</ele>
        <time>2017-01-20T16:26:09Z</time>
      </trkpt>
      <trkpt lat="43.19921" lon="2.46093">
        <ele>87.5</ele>
        <time>2017-01-20T16:26:10Z</time>
      </trkpt>
      <trkpt lat="43.19921" lon="2.46093">
        <ele>87.5</ele>
        <time>2017-01-20T16:26:11Z</time>
      </trkpt>
      <trkpt lat="43.19921" lon="2.46093">
        <ele>87.5</ele>
        <time>2017-01-20T16:26:12Z</time>
      </trkpt>
      <trkpt lat="43.19921" lon="2.46093">
        <ele>87.6</ele>
        <time>2017-01-20T16:26:13Z</time>
      </trkpt>
      <trkpt lat="43.19921" lon="2.46093">
        <ele>87.6</ele>
        <time>2017-01-20T16:26:14Z</time>
      </trkpt>
      <trkpt lat="43.19921" lon="2.46093">
        <ele>87.6</ele>
        <time>2017-01-20T16:26:15Z</time>
      </trkpt>
      <trkpt lat="43.19921" lon="2.46093">
        <ele>87.4</ele>
        <time>2017-01-20T16:26:16Z</time>
      </trkpt>
      <trkpt lat="43.19921" lon="2.46093">
        <ele>87.3</ele>
        <time>2017-01-20T16:26:17Z</time>
      </trkpt>
      <trkpt lat="43.19921" lon="2.46093">
        <ele>87.1</ele>
        <time>2017-01-20T16:26:18Z</time>
      </trkpt>
      <trkpt lat="43.19921" lon="2.46093">
        <ele>87.5</ele>
        <time>2017-01-20T16:26:19Z</time>
      </trkpt>
      <trkpt lat="43.19921" lon="2.46093">
        <ele>87.7</ele>
        <time>2017-01-20T16:26:20Z</time>
      </trkpt>
      <trkpt lat="43.19921" lon="2.46093">
        <ele>87.9</ele>
        <time>2017-01-20T16:26:21Z</time>
      </trkpt>
      <trkpt lat="43.19921" lon="2.46093">
        <ele>87.8</ele>
        <time>2017-01-20T16:26:22Z</time>
      </trkpt>
      <trkpt lat="43.19921" lon="2.46093">
        <ele>87.8</ele>
        <time>2017-01-20T16:26:23Z</time>
      </trkpt>
      <trkpt lat="43.19921" lon="2.46093">
        <ele>87.8</ele>
        <time>2017-01-20T16:26:24Z</time>
      </trkpt>
      <trkpt lat="43.19921" lon="2.46093">
        <ele>87.5</ele>
        <time>2017-01-20T16:26:25Z</time>
      </trkpt>
      <trkpt lat="43.19921" lon="2.46093">
        <ele>87.3</ele>
        <time>2017-01-20T16:26:26Z</time>
      </trkpt>
      <trkpt lat="43.19921" lon="2.46093">
        <ele>87.2</ele>
        <time>2017-01-20T16:26:27Z</time>
      </trkpt>
      <trkpt lat="43.19921" lon="2.46093">
        <ele>87.3</ele>
        <time>2017-01-20T16:26:28Z</time>
      </trkpt>
      <trkpt lat="43.19921" lon="2.46093">
        <ele>87.4</ele>
        <time>2017-01-20T16:26:29Z</time>
      </trkpt>
      <trkpt lat="43.19921" lon="2.46093">
        <ele>87.5</ele>
        <time>2017-01-20T16:26:30Z</time>
      </trkpt>
      <trkpt lat="43.19921" lon="2.46093">
        <ele>87.5</ele>
        <time>2017-01-20T16:26:31Z</time>
      </trkpt>
      <trkpt lat="43.19921" lon="2.46093">
        <ele>87.5</ele>
        <time>2017-01-20T16:26:32Z</time>
      </trkpt>
      <trkpt lat="43.19921" lon="2.46093">
        <ele>87.6</ele>
        <time>2017-01-20T16:26:33Z</time>
      </trkpt>
      <trkpt lat="43.19921" lon="2.46093">
        <ele>87.4</ele>
        <time>2017-01-20T16:26:34Z</time>
      </trkpt>
      <trkpt lat="43.19921" lon="2.46093">
        <ele>87.2</ele>
        <time>2017-01-20T16:26:35Z</time>
      </trkpt>
      <trkpt lat="43.19923" lon="2.4609">
        <ele>87.1</ele>
        <time>2017-01-20T16:26:36Z</time>
      </trkpt>
      <trkpt lat="43.19923" lon="2.46089">
        <ele>87</ele>
        <time>2017-01-20T16:26:37Z</time>
      </trkpt>
      <trkpt lat="43.19989" lon="2.45979">
        <ele>88.1</ele>
        <time>2017-01-20T16:27:07Z</time>
      </trkpt>
      <trkpt lat="43.19993" lon="2.45975">
        <ele>88.2</ele>
        <time>2017-01-20T16:27:08Z</time>
      </trkpt>
      <trkpt lat="43.20292" lon="2.45567">
        <ele>88.7</ele>
        <time>2017-01-20T16:28:37Z</time>
      </trkpt>
      <trkpt lat="43.20389" lon="2.45414">
        <ele>88.9</ele>
        <time>2017-01-20T16:29:08Z</time>
      </trkpt>
      <trkpt lat="43.20425" lon="2.45337">
        <ele>88.7</ele>
        <time>2017-01-20T16:29:22Z</time>
      </trkpt>
      <trkpt lat="43.20429" lon="2.45325">
        <ele>89</ele>
        <time>2017-01-20T16:29:24Z</time>
      </trkpt>
      <trkpt lat="43.20434" lon="2.45307">
        <ele>88.6</ele>
        <time>2017-01-20T16:29:28Z</time>
      </trkpt>
      <trkpt lat="43.20436" lon="2.45297">
        <ele>88.5</ele>
        <time>2017-01-20T16:29:31Z</time>
      </trkpt>
      <trkpt lat="43.20437" lon="2.45285">
        <ele>88.5</ele>
        <time>2017-01-20T16:29:34Z</time>
      </trkpt>
      <trkpt lat="43.20452" lon="2.45192">
        <ele>88.8</ele>
        <time>2017-01-20T16:29:52Z</time>
      </trkpt>
      <trkpt lat="43.20453" lon="2.45187">
        <ele>88.9</ele>
        <time>2017-01-20T16:29:53Z</time>
      </trkpt>
      <trkpt lat="43.20484" lon="2.45098">
        <ele>88.8</ele>
        <time>2017-01-20T16:30:12Z</time>
      </trkpt>
      <trkpt lat="43.205" lon="2.45064">
        <ele>88.8</ele>
        <time>2017-01-20T16:30:18Z</time>
      </trkpt>
      <trkpt lat="43.20535" lon="2.45001">
        <ele>88.9</ele>
        <time>2017-01-20T16:30:30Z</time>
      </trkpt>
      <trkpt lat="43.20545" lon="2.44988">
        <ele>88.7</ele>
        <time>2017-01-20T16:30:33Z</time>
      </trkpt>
      <trkpt lat="43.20559" lon="2.44974">
        <ele>88.5</ele>
        <time>2017-01-20T16:30:37Z</time>
      </trkpt>
      <trkpt lat="43.20576" lon="2.44963">
        <ele>89.2</ele>
        <time>2017-01-20T16:30:41Z</time>
      </trkpt>
      <trkpt lat="43.20588" lon="2.44957">
        <ele>89</ele>
        <time>2017-01-20T16:30:46Z</time>
      </trkpt>
      <trkpt lat="43.20588" lon="2.44957">
        <ele>89.1</ele>
        <time>2017-01-20T16:30:47Z</time>
      </trkpt>
      <trkpt lat="43.20588" lon="2.44957">
        <ele>89.1</ele>
        <time>2017-01-20T16:30:48Z</time>
      </trkpt>
      <trkpt lat="43.20588" lon="2.44957">
        <ele>89</ele>
        <time>2017-01-20T16:30:49Z</time>
      </trkpt>
      <trkpt lat="43.20588" lon="2.44957">
        <ele>88.8</ele>
        <time>2017-01-20T16:30:50Z</time>
      </trkpt>
      <trkpt lat="43.20588" lon="2.44957">
        <ele>88.7</ele>
        <time>2017-01-20T16:30:51Z</time>
      </trkpt>
      <trkpt lat="43.20588" lon="2.44957">
        <ele>88.7</ele>
        <time>2017-01-20T16:30:52Z</time>
      </trkpt>
      <trkpt lat="43.20588" lon="2.44957">
        <ele>88.6</ele>
        <time>2017-01-20T16:30:53Z</time>
      </trkpt>
      <trkpt lat="43.20588" lon="2.44957">
        <ele>88.6</ele>
        <time>2017-01-20T16:30:54Z</time>
      </trkpt>
      <trkpt lat="43.20588" lon="2.44957">
        <ele>88.3</ele>
        <time>2017-01-20T16:30:55Z</time>
      </trkpt>
      <trkpt lat="43.20588" lon="2.44957">
        <ele>88.2</ele>
        <time>2017-01-20T16:30:56Z</time>
      </trkpt>
      <trkpt lat="43.20588" lon="2.44957">
        <ele>88</ele>
        <time>2017-01-20T16:30:57Z</time>
      </trkpt>
      <trkpt lat="43.20588" lon="2.44957">
        <ele>88.4</ele>
        <time>2017-01-20T16:30:58Z</time>
      </trkpt>
      <trkpt lat="43.20588" lon="2.44957">
        <ele>88.6</ele>
        <time>2017-01-20T16:30:59Z</time>
      </trkpt>
      <trkpt lat="43.20588" lon="2.44957">
        <ele>88.8</ele>
        <time>2017-01-20T16:31:00Z</time>
      </trkpt>
      <trkpt lat="43.20588" lon="2.44957">
        <ele>88.7</ele>
        <time>2017-01-20T16:31:01Z</time>
      </trkpt>
      <trkpt lat="43.20588" lon="2.44957">
        <ele>88.6</ele>
        <time>2017-01-20T16:31:02Z</time>
      </trkpt>
      <trkpt lat="43.20588" lon="2.44957">
        <ele>88.6</ele>
        <time>2017-01-20T16:31:03Z</time>
      </trkpt>
      <trkpt lat="43.20588" lon="2.44957">
        <ele>88.6</ele>
        <time>2017-01-20T16:31:04Z</time>
      </trkpt>
      <trkpt lat="43.20588" lon="2.44957">
        <ele>88.5</ele>
        <time>2017-01-20T16:31:05Z</time>
      </trkpt>
      <trkpt lat="43.20588" lon="2.44957">
        <ele>88.5</ele>
        <time>2017-01-20T16:31:06Z</time>
      </trkpt>
      <trkpt lat="43.20591" lon="2.44955">
        <ele>88.5</ele>
        <time>2017-01-20T16:31:07Z</time>
      </trkpt>
      <trkpt lat="43.206" lon="2.44951">
        <ele>88.5</ele>
        <time>2017-01-20T16:31:11Z</time>
      </trkpt>
      <trkpt lat="43.20602" lon="2.44951">
        <ele>88.5</ele>
        <time>2017-01-20T16:31:12Z</time>
      </trkpt>
      <trkpt lat="43.20617" lon="2.44945">
        <ele>89.6</ele>
        <time>2017-01-20T16:31:19Z</time>
      </trkpt>
      <trkpt lat="43.20637" lon="2.44932">
        <ele>91.1</ele>
        <time>2017-01-20T16:31:28Z</time>
      </trkpt>
      <trkpt lat="43.20667" lon="2.44917">
        <ele>92.7</ele>
        <time>2017-01-20T16:31:40Z</time>
      </trkpt>
      <trkpt lat="43.20669" lon="2.44915">
        <ele>92.9</ele>
        <time>2017-01-20T16:31:41Z</time>
      </trkpt>
      <trkpt lat="43.20671" lon="2.44913">
        <ele>93</ele>
        <time>2017-01-20T16:31:42Z</time>
      </trkpt>
      <trkpt lat="43.20673" lon="2.44913">
        <ele>93.3</ele>
        <time>2017-01-20T16:31:43Z</time>
      </trkpt>
      <trkpt lat="43.20689" lon="2.44907">
        <ele>95.3</ele>
        <time>2017-01-20T16:31:51Z</time>
      </trkpt>
      <trkpt lat="43.20697" lon="2.44902">
        <ele>95.7</ele>
        <time>2017-01-20T16:31:54Z</time>
      </trkpt>
      <trkpt lat="43.207" lon="2.449">
        <ele>95.5</ele>
        <time>2017-01-20T16:31:55Z</time>
      </trkpt>
      <trkpt lat="43.20774" lon="2.44854">
        <ele>96.5</ele>
        <time>2017-01-20T16:32:17Z</time>
      </trkpt>
      <trkpt lat="43.20782" lon="2.44846">
        <ele>96.3</ele>
        <time>2017-01-20T16:32:20Z</time>
      </trkpt>
      <trkpt lat="43.20783" lon="2.44844">
        <ele>96.2</ele>
        <time>2017-01-20T16:32:21Z</time>
      </trkpt>
      <trkpt lat="43.20783" lon="2.44844">
        <ele>96.3</ele>
        <time>2017-01-20T16:32:22Z</time>
      </trkpt>
      <trkpt lat="43.20783" lon="2.44844">
        <ele>96.4</ele>
        <time>2017-01-20T16:32:23Z</time>
      </trkpt>
      <trkpt lat="43.20783" lon="2.44844">
        <ele>96.5</ele>
        <time>2017-01-20T16:32:24Z</time>
      </trkpt>
      <trkpt lat="43.20783" lon="2.44844">
        <ele>96.2</ele>
        <time>2017-01-20T16:32:25Z</time>
      </trkpt>
      <trkpt lat="43.20783" lon="2.44844">
        <ele>95.9</ele>
        <time>2017-01-20T16:32:26Z</time>
      </trkpt>
      <trkpt lat="43.20783" lon="2.44844">
        <ele>95.7</ele>
        <time>2017-01-20T16:32:27Z</time>
      </trkpt>
      <trkpt lat="43.20783" lon="2.44844">
        <ele>95.8</ele>
        <time>2017-01-20T16:32:28Z</time>
      </trkpt>
      <trkpt lat="43.20785" lon="2.44839">
        <ele>95.8</ele>
        <time>2017-01-20T16:32:29Z</time>
      </trkpt>
      <trkpt lat="43.20788" lon="2.44835">
        <ele>95.9</ele>
        <time>2017-01-20T16:32:31Z</time>
      </trkpt>
      <trkpt lat="43.20914" lon="2.44635">
        <ele>97.9</ele>
        <time>2017-01-20T16:33:13Z</time>
      </trkpt>
      <trkpt lat="43.20916" lon="2.44629">
        <ele>97.8</ele>
        <time>2017-01-20T16:33:14Z</time>
      </trkpt>
      <trkpt lat="43.20955" lon="2.44537">
        <ele>96.8</ele>
        <time>2017-01-20T16:33:32Z</time>
      </trkpt>
      <trkpt lat="43.20964" lon="2.44515">
        <ele>97.1</ele>
        <time>2017-01-20T16:33:37Z</time>
      </trkpt>
      <trkpt lat="43.20964" lon="2.44515">
        <ele>97</ele>
        <time>2017-01-20T16:33:38Z</time>
      </trkpt>
      <trkpt lat="43.20964" lon="2.44515">
        <ele>96.9</ele>
        <time>2017-01-20T16:33:39Z</time>
      </trkpt>
      <trkpt lat="43.20964" lon="2.44515">
        <ele>96.5</ele>
        <time>2017-01-20T16:33:40Z</time>
      </trkpt>
      <trkpt lat="43.20964" lon="2.44515">
        <ele>96.1</ele>
        <time>2017-01-20T16:33:41Z</time>
      </trkpt>
      <trkpt lat="43.20964" lon="2.44515">
        <ele>95.9</ele>
        <time>2017-01-20T16:33:42Z</time>
      </trkpt>
      <trkpt lat="43.20964" lon="2.44515">
        <ele>96.1</ele>
        <time>2017-01-20T16:33:43Z</time>
      </trkpt>
      <trkpt lat="43.20964" lon="2.44515">
        <ele>96.3</ele>
        <time>2017-01-20T16:33:44Z</time>
      </trkpt>
      <trkpt lat="43.20964" lon="2.44515">
        <ele>96.4</ele>
        <time>2017-01-20T16:33:45Z</time>
      </trkpt>
      <trkpt lat="43.20964" lon="2.44515">
        <ele>96.3</ele>
        <time>2017-01-20T16:33:46Z</time>
      </trkpt>
      <trkpt lat="43.20964" lon="2.44515">
        <ele>96.2</ele>
        <time>2017-01-20T16:33:47Z</time>
      </trkpt>
      <trkpt lat="43.20964" lon="2.44515">
        <ele>96.1</ele>
        <time>2017-01-20T16:33:48Z</time>
      </trkpt>
      <trkpt lat="43.20964" lon="2.44513">
        <ele>95.9</ele>
        <time>2017-01-20T16:33:49Z</time>
      </trkpt>
      <trkpt lat="43.20965" lon="2.44512">
        <ele>95.7</ele>
        <time>2017-01-20T16:33:50Z</time>
      </trkpt>
      <trkpt lat="43.20966" lon="2.44509">
        <ele>95.5</ele>
        <time>2017-01-20T16:33:51Z</time>
      </trkpt>
      <trkpt lat="43.20967" lon="2.44505">
        <ele>95.4</ele>
        <time>2017-01-20T16:33:52Z</time>
      </trkpt>
      <trkpt lat="43.20971" lon="2.44492">
        <ele>95.5</ele>
        <time>2017-01-20T16:33:55Z</time>
      </trkpt>
      <trkpt lat="43.20973" lon="2.44487">
        <ele>95.6</ele>
        <time>2017-01-20T16:33:56Z</time>
      </trkpt>
      <trkpt lat="43.20974" lon="2.44481">
        <ele>95.7</ele>
        <time>2017-01-20T16:33:57Z</time>
      </trkpt>
      <trkpt lat="43.20976" lon="2.44469">
        <ele>95.4</ele>
        <time>2017-01-20T16:33:59Z</time>
      </trkpt>
      <trkpt lat="43.20989" lon="2.44339">
        <ele>95.7</ele>
        <time>2017-01-20T16:34:24Z</time>
      </trkpt>
      <trkpt lat="43.2099" lon="2.44338">
        <ele>95.7</ele>
        <time>2017-01-20T16:34:25Z</time>
      </trkpt>
      <trkpt lat="43.2099" lon="2.44338">
        <ele>95.8</ele>
        <time>2017-01-20T16:34:26Z</time>
      </trkpt>
      <trkpt lat="43.2099" lon="2.44338">
        <ele>95.8</ele>
        <time>2017-01-20T16:34:27Z</time>
      </trkpt>
      <trkpt lat="43.2099" lon="2.44338">
        <ele>95.8</ele>
        <time>2017-01-20T16:34:28Z</time>
      </trkpt>
      <trkpt lat="43.2099" lon="2.44338">
        <ele>95.9</ele>
        <time>2017-01-20T16:34:29Z</time>
      </trkpt>
      <trkpt lat="43.2099" lon="2.44338">
        <ele>95.9</ele>
        <time>2017-01-20T16:34:30Z</time>
      </trkpt>
      <trkpt lat="43.2099" lon="2.44338">
        <ele>95.7</ele>
        <time>2017-01-20T16:34:31Z</time>
      </trkpt>
      <trkpt lat="43.2099" lon="2.44338">
        <ele>95.5</ele>
        <time>2017-01-20T16:34:32Z</time>
      </trkpt>
      <trkpt lat="43.2099" lon="2.44338">
        <ele>95.4</ele>
        <time>2017-01-20T16:34:33Z</time>
      </trkpt>
      <trkpt lat="43.2099" lon="2.44338">
        <ele>95.6</ele>
        <time>2017-01-20T16:34:34Z</time>
      </trkpt>
      <trkpt lat="43.2099" lon="2.44338">
        <ele>95.7</ele>
        <time>2017-01-20T16:34:35Z</time>
      </trkpt>
      <trkpt lat="43.2099" lon="2.44338">
        <ele>95.7</ele>
        <time>2017-01-20T16:34:36Z</time>
      </trkpt>
      <trkpt lat="43.2099" lon="2.44338">
        <ele>95.8</ele>
        <time>2017-01-20T16:34:37Z</time>
      </trkpt>
      <trkpt lat="43.2099" lon="2.44338">
        <ele>95.8</ele>
        <time>2017-01-20T16:34:38Z</time>
      </trkpt>
      <trkpt lat="43.2099" lon="2.44338">
        <ele>95.9</ele>
        <time>2017-01-20T16:34:39Z</time>
      </trkpt>
      <trkpt lat="43.2099" lon="2.44338">
        <ele>95.7</ele>
        <time>2017-01-20T16:34:40Z</time>
      </trkpt>
      <trkpt lat="43.2099" lon="2.44338">
        <ele>95.5</ele>
        <time>2017-01-20T16:34:41Z</time>
      </trkpt>
      <trkpt lat="43.2099" lon="2.44338">
        <ele>95.4</ele>
        <time>2017-01-20T16:34:42Z</time>
      </trkpt>
      <trkpt lat="43.2099" lon="2.44338">
        <ele>95.6</ele>
        <time>2017-01-20T16:34:43Z</time>
      </trkpt>
      <trkpt lat="43.2099" lon="2.44338">
        <ele>95.6</ele>
        <time>2017-01-20T16:34:44Z</time>
      </trkpt>
      <trkpt lat="43.2099" lon="2.44338">
        <ele>95.7</ele>
        <time>2017-01-20T16:34:45Z</time>
      </trkpt>
      <trkpt lat="43.2099" lon="2.44338">
        <ele>95.8</ele>
        <time>2017-01-20T16:34:46Z</time>
      </trkpt>
      <trkpt lat="43.20993" lon="2.44333">
        <ele>95.8</ele>
        <time>2017-01-20T16:34:47Z</time>
      </trkpt>
      <trkpt lat="43.20993" lon="2.44333">
        <ele>95.8</ele>
        <time>2017-01-20T16:34:48Z</time>
      </trkpt>
      <trkpt lat="43.20994" lon="2.44331">
        <ele>95.9</ele>
        <time>2017-01-20T16:34:49Z</time>
      </trkpt>
      <trkpt lat="43.20995" lon="2.44329">
        <ele>95.9</ele>
        <time>2017-01-20T16:34:51Z</time>
      </trkpt>
      <trkpt lat="43.20995" lon="2.44329">
        <ele>96.1</ele>
        <time>2017-01-20T16:34:52Z</time>
      </trkpt>
      <trkpt lat="43.20995" lon="2.44329">
        <ele>96.3</ele>
        <time>2017-01-20T16:34:53Z</time>
      </trkpt>
      <trkpt lat="43.20995" lon="2.44329">
        <ele>96.4</ele>
        <time>2017-01-20T16:34:54Z</time>
      </trkpt>
      <trkpt lat="43.20995" lon="2.44329">
        <ele>96.1</ele>
        <time>2017-01-20T16:34:55Z</time>
      </trkpt>
      <trkpt lat="43.20995" lon="2.44329">
        <ele>95.8</ele>
        <time>2017-01-20T16:34:56Z</time>
      </trkpt>
      <trkpt lat="43.20997" lon="2.44325">
        <ele>95.7</ele>
        <time>2017-01-20T16:34:57Z</time>
      </trkpt>
      <trkpt lat="43.20998" lon="2.44323">
        <ele>95.7</ele>
        <time>2017-01-20T16:34:58Z</time>
      </trkpt>
      <trkpt lat="43.21004" lon="2.44313">
        <ele>95.9</ele>
        <time>2017-01-20T16:35:03Z</time>
      </trkpt>
      <trkpt lat="43.21008" lon="2.44307">
        <ele>96.3</ele>
        <time>2017-01-20T16:35:07Z</time>
      </trkpt>
      <trkpt lat="43.21009" lon="2.44307">
        <ele>96.7</ele>
        <time>2017-01-20T16:35:08Z</time>
      </trkpt>
      <trkpt lat="43.2101" lon="2.44307">
        <ele>96.9</ele>
        <time>2017-01-20T16:35:09Z</time>
      </trkpt>
      <trkpt lat="43.21011" lon="2.44307">
        <ele>97.1</ele>
        <time>2017-01-20T16:35:10Z</time>
      </trkpt>
      <trkpt lat="43.21012" lon="2.44307">
        <ele>97.2</ele>
        <time>2017-01-20T16:35:11Z</time>
      </trkpt>
      <trkpt lat="43.21012" lon="2.44307">
        <ele>97.3</ele>
        <time>2017-01-20T16:35:12Z</time>
      </trkpt>
      <trkpt lat="43.21012" lon="2.44307">
        <ele>97.4</ele>
        <time>2017-01-20T16:35:13Z</time>
      </trkpt>
      <trkpt lat="43.21012" lon="2.44307">
        <ele>97.4</ele>
        <time>2017-01-20T16:35:14Z</time>
      </trkpt>
      <trkpt lat="43.21012" lon="2.44307">
        <ele>97.5</ele>
        <time>2017-01-20T16:35:15Z</time>
      </trkpt>
      <trkpt lat="43.21012" lon="2.44307">
        <ele>97.5</ele>
        <time>2017-01-20T16:35:16Z</time>
      </trkpt>
      <trkpt lat="43.21012" lon="2.44307">
        <ele>97.5</ele>
        <time>2017-01-20T16:35:17Z</time>
      </trkpt>
      <trkpt lat="43.21012" lon="2.44307">
        <ele>97.5</ele>
        <time>2017-01-20T16:35:18Z</time>
      </trkpt>
      <trkpt lat="43.21012" lon="2.44307">
        <ele>97.4</ele>
        <time>2017-01-20T16:35:19Z</time>
      </trkpt>
      <trkpt lat="43.21012" lon="2.44307">
        <ele>97.2</ele>
        <time>2017-01-20T16:35:20Z</time>
      </trkpt>
      <trkpt lat="43.21012" lon="2.44307">
        <ele>97.1</ele>
        <time>2017-01-20T16:35:21Z</time>
      </trkpt>
      <trkpt lat="43.21012" lon="2.44307">
        <ele>97.2</ele>
        <time>2017-01-20T16:35:22Z</time>
      </trkpt>
      <trkpt lat="43.21012" lon="2.44307">
        <ele>97.3</ele>
        <time>2017-01-20T16:35:23Z</time>
      </trkpt>
      <trkpt lat="43.21012" lon="2.44307">
        <ele>97.4</ele>
        <time>2017-01-20T16:35:24Z</time>
      </trkpt>
      <trkpt lat="43.21012" lon="2.44307">
        <ele>97.2</ele>
        <time>2017-01-20T16:35:25Z</time>
      </trkpt>
      <trkpt lat="43.21012" lon="2.44307">
        <ele>97.1</ele>
        <time>2017-01-20T16:35:26Z</time>
      </trkpt>
      <trkpt lat="43.21012" lon="2.44307">
        <ele>97</ele>
        <time>2017-01-20T16:35:27Z</time>
      </trkpt>
      <trkpt lat="43.21015" lon="2.44305">
        <ele>97.4</ele>
        <time>2017-01-20T16:35:28Z</time>
      </trkpt>
      <trkpt lat="43.21026" lon="2.44301">
        <ele>97.7</ele>
        <time>2017-01-20T16:35:32Z</time>
      </trkpt>
      <trkpt lat="43.21039" lon="2.44298">
        <ele>99.1</ele>
        <time>2017-01-20T16:35:36Z</time>
      </trkpt>
      <trkpt lat="43.21042" lon="2.44298">
        <ele>98.7</ele>
        <time>2017-01-20T16:35:39Z</time>
      </trkpt>
      <trkpt lat="43.21042" lon="2.44298">
        <ele>98.6</ele>
        <time>2017-01-20T16:35:40Z</time>
      </trkpt>
      <trkpt lat="43.21042" lon="2.44298">
        <ele>98.6</ele>
        <time>2017-01-20T16:35:41Z</time>
      </trkpt>
      <trkpt lat="43.21042" lon="2.44294">
        <ele>98.5</ele>
        <time>2017-01-20T16:35:42Z</time>
      </trkpt>
      <trkpt lat="43.21042" lon="2.44294">
        <ele>98.3</ele>
        <time>2017-01-20T16:35:43Z</time>
      </trkpt>
      <trkpt lat="43.21042" lon="2.44294">
        <ele>98.1</ele>
        <time>2017-01-20T16:35:44Z</time>
      </trkpt>
      <trkpt lat="43.21042" lon="2.44294">
        <ele>98</ele>
        <time>2017-01-20T16:35:45Z</time>
      </trkpt>
      <trkpt lat="43.21042" lon="2.44294">
        <ele>98.3</ele>
        <time>2017-01-20T16:35:46Z</time>
      </trkpt>
      <trkpt lat="43.21042" lon="2.44294">
        <ele>98.6</ele>
        <time>2017-01-20T16:35:47Z</time>
      </trkpt>
      <trkpt lat="43.21042" lon="2.44294">
        <ele>98.7</ele>
        <time>2017-01-20T16:35:48Z</time>
      </trkpt>
      <trkpt lat="43.21042" lon="2.44294">
        <ele>98.7</ele>
        <time>2017-01-20T16:35:49Z</time>
      </trkpt>
      <trkpt lat="43.21042" lon="2.44294">
        <ele>98.6</ele>
        <time>2017-01-20T16:35:50Z</time>
      </trkpt>
      <trkpt lat="43.21042" lon="2.44294">
        <ele>98.6</ele>
        <time>2017-01-20T16:35:51Z</time>
      </trkpt>
      <trkpt lat="43.21042" lon="2.44294">
        <ele>98.3</ele>
        <time>2017-01-20T16:35:52Z</time>
      </trkpt>
      <trkpt lat="43.21042" lon="2.44294">
        <ele>98.1</ele>
        <time>2017-01-20T16:35:53Z</time>
      </trkpt>
      <trkpt lat="43.21038" lon="2.44294">
        <ele>98</ele>
        <time>2017-01-20T16:35:54Z</time>
      </trkpt>
      <trkpt lat="43.21037" lon="2.44297">
        <ele>97.9</ele>
        <time>2017-01-20T16:35:55Z</time>
      </trkpt>
      <trkpt lat="43.21036" lon="2.44302">
        <ele>98.4</ele>
        <time>2017-01-20T16:35:58Z</time>
      </trkpt>
      <trkpt lat="43.21035" lon="2.44307">
        <ele>99.1</ele>
        <time>2017-01-20T16:36:00Z</time>
      </trkpt>
      <trkpt lat="43.21035" lon="2.44313">
        <ele>99.2</ele>
        <time>2017-01-20T16:36:05Z</time>
      </trkpt>
      <trkpt lat="43.21035" lon="2.44313">
        <ele>99.2</ele>
        <time>2017-01-20T16:36:06Z</time>
      </trkpt>
      <trkpt lat="43.21035" lon="2.44313">
        <ele>98.8</ele>
        <time>2017-01-20T16:36:07Z</time>
      </trkpt>
      <trkpt lat="43.21035" lon="2.44313">
        <ele>98.5</ele>
        <time>2017-01-20T16:36:08Z</time>
      </trkpt>
      <trkpt lat="43.21035" lon="2.44313">
        <ele>98.3</ele>
        <time>2017-01-20T16:36:09Z</time>
      </trkpt>
      <trkpt lat="43.21035" lon="2.44313">
        <ele>98.5</ele>
        <time>2017-01-20T16:36:10Z</time>
      </trkpt>
      <trkpt lat="43.21035" lon="2.44313">
        <ele>98.7</ele>
        <time>2017-01-20T16:36:11Z</time>
      </trkpt>
      <trkpt lat="43.21035" lon="2.44313">
        <ele>98.9</ele>
        <time>2017-01-20T16:36:12Z</time>
      </trkpt>
      <trkpt lat="43.21035" lon="2.44313">
        <ele>98.7</ele>
        <time>2017-01-20T16:36:13Z</time>
      </trkpt>
      <trkpt lat="43.21035" lon="2.44313">
        <ele>98.7</ele>
        <time>2017-01-20T16:36:14Z</time>
      </trkpt>
      <trkpt lat="43.21035" lon="2.44315">
        <ele>98.6</ele>
        <time>2017-01-20T16:36:15Z</time>
      </trkpt>
      <trkpt lat="43.21035" lon="2.44316">
        <ele>98.8</ele>
        <time>2017-01-20T16:36:16Z</time>
      </trkpt>
      <trkpt lat="43.21035" lon="2.44317">
        <ele>98.9</ele>
        <time>2017-01-20T16:36:17Z</time>
      </trkpt>
      <trkpt lat="43.21036" lon="2.44317">
        <ele>99</ele>
        <time>2017-01-20T16:36:18Z</time>
      </trkpt>
      <trkpt lat="43.21036" lon="2.44316">
        <ele>99.3</ele>
        <time>2017-01-20T16:36:19Z</time>
      </trkpt>
      <trkpt lat="43.21036" lon="2.44315">
        <ele>99.5</ele>
        <time>2017-01-20T16:36:20Z</time>
      </trkpt>
      <trkpt lat="43.21037" lon="2.44314">
        <ele>99.6</ele>
        <time>2017-01-20T16:36:21Z</time>
      </trkpt>
      <trkpt lat="43.21037" lon="2.44312">
        <ele>99.5</ele>
        <time>2017-01-20T16:36:22Z</time>
      </trkpt>
      <trkpt lat="43.21037" lon="2.44311">
        <ele>99.5</ele>
        <time>2017-01-20T16:36:23Z</time>
      </trkpt>
      <trkpt lat="43.21038" lon="2.44309">
        <ele>99.4</ele>
        <time>2017-01-20T16:36:24Z</time>
      </trkpt>
      <trkpt lat="43.21038" lon="2.44308">
        <ele>99.6</ele>
        <time>2017-01-20T16:36:25Z</time>
      </trkpt>
      <trkpt lat="43.21038" lon="2.44306">
        <ele>99.7</ele>
        <time>2017-01-20T16:36:26Z</time>
      </trkpt>
      <trkpt lat="43.21039" lon="2.44304">
        <ele>99.8</ele>
        <time>2017-01-20T16:36:27Z</time>
      </trkpt>
      <trkpt lat="43.21039" lon="2.44303">
        <ele>99.7</ele>
        <time>2017-01-20T16:36:28Z</time>
      </trkpt>
      <trkpt lat="43.21039" lon="2.44302">
        <ele>99.6</ele>
        <time>2017-01-20T16:36:29Z</time>
      </trkpt>
      <trkpt lat="43.21039" lon="2.443">
        <ele>99.5</ele>
        <time>2017-01-20T16:36:30Z</time>
      </trkpt>
      <trkpt lat="43.2104" lon="2.44297">
        <ele>99.4</ele>
        <time>2017-01-20T16:36:32Z</time>
      </trkpt>
      <trkpt lat="43.2104" lon="2.44297">
        <ele>99.4</ele>
        <time>2017-01-20T16:36:33Z</time>
      </trkpt>
      <trkpt lat="43.2104" lon="2.44297">
        <ele>99.1</ele>
        <time>2017-01-20T16:36:34Z</time>
      </trkpt>
      <trkpt lat="43.2104" lon="2.44297">
        <ele>99</ele>
        <time>2017-01-20T16:36:35Z</time>
      </trkpt>
      <trkpt lat="43.2104" lon="2.44297">
        <ele>98.8</ele>
        <time>2017-01-20T16:36:36Z</time>
      </trkpt>
      <trkpt lat="43.2104" lon="2.44297">
        <ele>98.7</ele>
        <time>2017-01-20T16:36:37Z</time>
      </trkpt>
      <trkpt lat="43.2104" lon="2.44297">
        <ele>98.7</ele>
        <time>2017-01-20T16:36:38Z</time>
      </trkpt>
      <trkpt lat="43.2104" lon="2.44297">
        <ele>98.6</ele>
        <time>2017-01-20T16:36:39Z</time>
      </trkpt>
      <trkpt lat="43.2104" lon="2.44297">
        <ele>98.6</ele>
        <time>2017-01-20T16:36:40Z</time>
      </trkpt>
      <trkpt lat="43.2104" lon="2.44297">
        <ele>98.5</ele>
        <time>2017-01-20T16:36:41Z</time>
      </trkpt>
      <trkpt lat="43.21042" lon="2.44297">
        <ele>98.5</ele>
        <time>2017-01-20T16:36:42Z</time>
      </trkpt>
      <trkpt lat="43.21069" lon="2.44292">
        <ele>98.1</ele>
        <time>2017-01-20T16:36:51Z</time>
      </trkpt>
      <trkpt lat="43.21072" lon="2.4429">
        <ele>98.2</ele>
        <time>2017-01-20T16:36:52Z</time>
      </trkpt>
      <trkpt lat="43.21082" lon="2.4428">
        <ele>98.5</ele>
        <time>2017-01-20T16:36:55Z</time>
      </trkpt>
      <trkpt lat="43.21091" lon="2.44269">
        <ele>98.8</ele>
        <time>2017-01-20T16:36:58Z</time>
      </trkpt>
      <trkpt lat="43.21104" lon="2.44254">
        <ele>98.6</ele>
        <time>2017-01-20T16:37:04Z</time>
      </trkpt>
      <trkpt lat="43.21104" lon="2.44254">
        <ele>98.4</ele>
        <time>2017-01-20T16:37:05Z</time>
      </trkpt>
      <trkpt lat="43.21104" lon="2.44254">
        <ele>98.2</ele>
        <time>2017-01-20T16:37:06Z</time>
      </trkpt>
      <trkpt lat="43.21108" lon="2.44249">
        <ele>98.2</ele>
        <time>2017-01-20T16:37:07Z</time>
      </trkpt>
      <trkpt lat="43.21108" lon="2.44249">
        <ele>98.3</ele>
        <time>2017-01-20T16:37:08Z</time>
      </trkpt>
      <trkpt lat="43.21108" lon="2.44249">
        <ele>98.3</ele>
        <time>2017-01-20T16:37:09Z</time>
      </trkpt>
      <trkpt lat="43.21108" lon="2.44249">
        <ele>98.6</ele>
        <time>2017-01-20T16:37:10Z</time>
      </trkpt>
      <trkpt lat="43.21108" lon="2.44249">
        <ele>98.7</ele>
        <time>2017-01-20T16:37:11Z</time>
      </trkpt>
      <trkpt lat="43.21108" lon="2.44249">
        <ele>98.9</ele>
        <time>2017-01-20T16:37:12Z</time>
      </trkpt>
      <trkpt lat="43.21108" lon="2.44249">
        <ele>99</ele>
        <time>2017-01-20T16:37:13Z</time>
      </trkpt>
      <trkpt lat="43.21108" lon="2.44249">
        <ele>99</ele>
        <time>2017-01-20T16:37:14Z</time>
      </trkpt>
      <trkpt lat="43.21108" lon="2.44249">
        <ele>99.1</ele>
        <time>2017-01-20T16:37:15Z</time>
      </trkpt>
      <trkpt lat="43.21108" lon="2.44249">
        <ele>99.1</ele>
        <time>2017-01-20T16:37:16Z</time>
      </trkpt>
      <trkpt lat="43.21108" lon="2.44249">
        <ele>99.2</ele>
        <time>2017-01-20T16:37:17Z</time>
      </trkpt>
      <trkpt lat="43.21108" lon="2.44249">
        <ele>99.2</ele>
        <time>2017-01-20T16:37:18Z</time>
      </trkpt>
      <trkpt lat="43.21111" lon="2.44243">
        <ele>99.2</ele>
        <time>2017-01-20T16:37:19Z</time>
      </trkpt>
      <trkpt lat="43.21111" lon="2.44243">
        <ele>99.2</ele>
        <time>2017-01-20T16:37:20Z</time>
      </trkpt>
      <trkpt lat="43.21111" lon="2.44243">
        <ele>99.2</ele>
        <time>2017-01-20T16:37:21Z</time>
      </trkpt>
      <trkpt lat="43.21114" lon="2.44237">
        <ele>99.2</ele>
        <time>2017-01-20T16:37:22Z</time>
      </trkpt>
      <trkpt lat="43.21118" lon="2.44232">
        <ele>99.2</ele>
        <time>2017-01-20T16:37:24Z</time>
      </trkpt>
      <trkpt lat="43.21121" lon="2.4423">
        <ele>99.5</ele>
        <time>2017-01-20T16:37:25Z</time>
      </trkpt>
      <trkpt lat="43.21215" lon="2.44169">
        <ele>97.6</ele>
        <time>2017-01-20T16:37:47Z</time>
      </trkpt>
      <trkpt lat="43.2122" lon="2.44168">
        <ele>97.4</ele>
        <time>2017-01-20T16:37:48Z</time>
      </trkpt>
      <trkpt lat="43.21288" lon="2.44135">
        <ele>96.2</ele>
        <time>2017-01-20T16:38:07Z</time>
      </trkpt>
      <trkpt lat="43.21288" lon="2.44135">
        <ele>96.3</ele>
        <time>2017-01-20T16:38:08Z</time>
      </trkpt>
      <trkpt lat="43.21288" lon="2.44135">
        <ele>96.5</ele>
        <time>2017-01-20T16:38:09Z</time>
      </trkpt>
      <trkpt lat="43.21288" lon="2.44135">
        <ele>96.3</ele>
        <time>2017-01-20T16:38:10Z</time>
      </trkpt>
      <trkpt lat="43.21288" lon="2.44135">
        <ele>96.2</ele>
        <time>2017-01-20T16:38:11Z</time>
      </trkpt>
      <trkpt lat="43.21288" lon="2.44135">
        <ele>96.2</ele>
        <time>2017-01-20T16:38:12Z</time>
      </trkpt>
      <trkpt lat="43.21288" lon="2.44135">
        <ele>96.1</ele>
        <time>2017-01-20T16:38:13Z</time>
      </trkpt>
      <trkpt lat="43.21288" lon="2.44135">
        <ele>96.1</ele>
        <time>2017-01-20T16:38:14Z</time>
      </trkpt>
      <trkpt lat="43.21288" lon="2.44135">
        <ele>96</ele>
        <time>2017-01-20T16:38:15Z</time>
      </trkpt>
      <trkpt lat="43.21288" lon="2.44135">
        <ele>96.2</ele>
        <time>2017-01-20T16:38:16Z</time>
      </trkpt>
      <trkpt lat="43.21288" lon="2.44135">
        <ele>96.4</ele>
        <time>2017-01-20T16:38:17Z</time>
      </trkpt>
      <trkpt lat="43.21288" lon="2.44135">
        <ele>96.5</ele>
        <time>2017-01-20T16:38:18Z</time>
      </trkpt>
      <trkpt lat="43.21293" lon="2.44132">
        <ele>96.5</ele>
        <time>2017-01-20T16:38:19Z</time>
      </trkpt>
      <trkpt lat="43.21293" lon="2.44132">
        <ele>96.6</ele>
        <time>2017-01-20T16:38:20Z</time>
      </trkpt>
      <trkpt lat="43.21293" lon="2.44132">
        <ele>96.6</ele>
        <time>2017-01-20T16:38:21Z</time>
      </trkpt>
      <trkpt lat="43.21293" lon="2.44132">
        <ele>96.5</ele>
        <time>2017-01-20T16:38:22Z</time>
      </trkpt>
      <trkpt lat="43.21293" lon="2.44132">
        <ele>96.3</ele>
        <time>2017-01-20T16:38:23Z</time>
      </trkpt>
      <trkpt lat="43.21299" lon="2.44127">
        <ele>96.2</ele>
        <time>2017-01-20T16:38:24Z</time>
      </trkpt>
      <trkpt lat="43.21409" lon="2.44054">
        <ele>97.2</ele>
        <time>2017-01-20T16:38:52Z</time>
      </trkpt>
      <trkpt lat="43.21411" lon="2.44052">
        <ele>97.1</ele>
        <time>2017-01-20T16:38:53Z</time>
      </trkpt>
      <trkpt lat="43.21411" lon="2.44052">
        <ele>97</ele>
        <time>2017-01-20T16:38:54Z</time>
      </trkpt>
      <trkpt lat="43.21411" lon="2.44052">
        <ele>96.8</ele>
        <time>2017-01-20T16:38:55Z</time>
      </trkpt>
      <trkpt lat="43.21411" lon="2.44052">
        <ele>96.5</ele>
        <time>2017-01-20T16:38:56Z</time>
      </trkpt>
      <trkpt lat="43.21411" lon="2.44052">
        <ele>96.4</ele>
        <time>2017-01-20T16:38:57Z</time>
      </trkpt>
      <trkpt lat="43.21411" lon="2.44052">
        <ele>96.3</ele>
        <time>2017-01-20T16:38:58Z</time>
      </trkpt>
      <trkpt lat="43.21411" lon="2.44052">
        <ele>96.2</ele>
        <time>2017-01-20T16:38:59Z</time>
      </trkpt>
      <trkpt lat="43.21411" lon="2.44052">
        <ele>96.1</ele>
        <time>2017-01-20T16:39:00Z</time>
      </trkpt>
      <trkpt lat="43.21411" lon="2.44052">
        <ele>96.1</ele>
        <time>2017-01-20T16:39:01Z</time>
      </trkpt>
      <trkpt lat="43.21411" lon="2.44052">
        <ele>96</ele>
        <time>2017-01-20T16:39:02Z</time>
      </trkpt>
      <trkpt lat="43.21411" lon="2.44052">
        <ele>96</ele>
        <time>2017-01-20T16:39:03Z</time>
      </trkpt>
      <trkpt lat="43.21411" lon="2.44052">
        <ele>96.4</ele>
        <time>2017-01-20T16:39:04Z</time>
      </trkpt>
      <trkpt lat="43.21411" lon="2.44052">
        <ele>96.7</ele>
        <time>2017-01-20T16:39:05Z</time>
      </trkpt>
      <trkpt lat="43.21411" lon="2.44052">
        <ele>96.9</ele>
        <time>2017-01-20T16:39:06Z</time>
      </trkpt>
      <trkpt lat="43.21411" lon="2.44052">
        <ele>96.9</ele>
        <time>2017-01-20T16:39:07Z</time>
      </trkpt>
      <trkpt lat="43.21411" lon="2.44052">
        <ele>96.9</ele>
        <time>2017-01-20T16:39:08Z</time>
      </trkpt>
      <trkpt lat="43.21411" lon="2.44052">
        <ele>96.8</ele>
        <time>2017-01-20T16:39:09Z</time>
      </trkpt>
      <trkpt lat="43.21411" lon="2.44052">
        <ele>96.4</ele>
        <time>2017-01-20T16:39:10Z</time>
      </trkpt>
      <trkpt lat="43.21411" lon="2.44052">
        <ele>96.1</ele>
        <time>2017-01-20T16:39:11Z</time>
      </trkpt>
      <trkpt lat="43.21411" lon="2.44052">
        <ele>95.8</ele>
        <time>2017-01-20T16:39:12Z</time>
      </trkpt>
      <trkpt lat="43.21411" lon="2.44052">
        <ele>95.9</ele>
        <time>2017-01-20T16:39:13Z</time>
      </trkpt>
      <trkpt lat="43.21411" lon="2.44052">
        <ele>95.9</ele>
        <time>2017-01-20T16:39:14Z</time>
      </trkpt>
      <trkpt lat="43.21411" lon="2.44052">
        <ele>95.9</ele>
        <time>2017-01-20T16:39:15Z</time>
      </trkpt>
      <trkpt lat="43.21411" lon="2.44052">
        <ele>95.9</ele>
        <time>2017-01-20T16:39:16Z</time>
      </trkpt>
      <trkpt lat="43.21411" lon="2.44052">
        <ele>95.9</ele>
        <time>2017-01-20T16:39:17Z</time>
      </trkpt>
      <trkpt lat="43.21411" lon="2.44052">
        <ele>95.9</ele>
        <time>2017-01-20T16:39:18Z</time>
      </trkpt>
      <trkpt lat="43.21411" lon="2.44052">
        <ele>96.1</ele>
        <time>2017-01-20T16:39:19Z</time>
      </trkpt>
      <trkpt lat="43.21411" lon="2.44052">
        <ele>96.3</ele>
        <time>2017-01-20T16:39:20Z</time>
      </trkpt>
      <trkpt lat="43.21411" lon="2.44052">
        <ele>96.4</ele>
        <time>2017-01-20T16:39:21Z</time>
      </trkpt>
      <trkpt lat="43.21411" lon="2.44052">
        <ele>96.5</ele>
        <time>2017-01-20T16:39:22Z</time>
      </trkpt>
      <trkpt lat="43.21411" lon="2.44052">
        <ele>96.6</ele>
        <time>2017-01-20T16:39:23Z</time>
      </trkpt>
      <trkpt lat="43.2141" lon="2.44049">
        <ele>96.6</ele>
        <time>2017-01-20T16:39:24Z</time>
      </trkpt>
      <trkpt lat="43.21411" lon="2.44049">
        <ele>96.9</ele>
        <time>2017-01-20T16:39:25Z</time>
      </trkpt>
      <trkpt lat="43.21414" lon="2.44048">
        <ele>97.2</ele>
        <time>2017-01-20T16:39:27Z</time>
      </trkpt>
      <trkpt lat="43.21416" lon="2.44049">
        <ele>97.1</ele>
        <time>2017-01-20T16:39:28Z</time>
      </trkpt>
      <trkpt lat="43.2142" lon="2.44048">
        <ele>96.9</ele>
        <time>2017-01-20T16:39:30Z</time>
      </trkpt>
      <trkpt lat="43.21423" lon="2.44047">
        <ele>97.1</ele>
        <time>2017-01-20T16:39:31Z</time>
      </trkpt>
      <trkpt lat="43.21434" lon="2.44039">
        <ele>97</ele>
        <time>2017-01-20T16:39:34Z</time>
      </trkpt>
      <trkpt lat="43.2144" lon="2.44032">
        <ele>96.5</ele>
        <time>2017-01-20T16:39:36Z</time>
      </trkpt>
      <trkpt lat="43.21445" lon="2.44024">
        <ele>96.6</ele>
        <time>2017-01-20T16:39:38Z</time>
      </trkpt>
      <trkpt lat="43.21447" lon="2.44019">
        <ele>96.7</ele>
        <time>2017-01-20T16:39:39Z</time>
      </trkpt>
      <trkpt lat="43.2145" lon="2.44009">
        <ele>96.7</ele>
        <time>2017-01-20T16:39:41Z</time>
      </trkpt>
      <trkpt lat="43.2145" lon="2.44005">
        <ele>96.7</ele>
        <time>2017-01-20T16:39:42Z</time>
      </trkpt>
      <trkpt lat="43.21451" lon="2.44002">
        <ele>96.7</ele>
        <time>2017-01-20T16:39:44Z</time>
      </trkpt>
      <trkpt lat="43.21451" lon="2.44002">
        <ele>96.8</ele>
        <time>2017-01-20T16:39:45Z</time>
      </trkpt>
      <trkpt lat="43.21451" lon="2.44002">
        <ele>96.5</ele>
        <time>2017-01-20T16:39:46Z</time>
      </trkpt>
      <trkpt lat="43.21451" lon="2.44002">
        <ele>96.4</ele>
        <time>2017-01-20T16:39:47Z</time>
      </trkpt>
      <trkpt lat="43.21451" lon="2.44002">
        <ele>96.3</ele>
        <time>2017-01-20T16:39:48Z</time>
      </trkpt>
      <trkpt lat="43.21451" lon="2.44002">
        <ele>96.2</ele>
        <time>2017-01-20T16:39:49Z</time>
      </trkpt>
      <trkpt lat="43.21451" lon="2.44002">
        <ele>96.1</ele>
        <time>2017-01-20T16:39:50Z</time>
      </trkpt>
      <trkpt lat="43.21451" lon="2.44002">
        <ele>96.1</ele>
        <time>2017-01-20T16:39:51Z</time>
      </trkpt>
      <trkpt lat="43.21451" lon="2.44002">
        <ele>95.8</ele>
        <time>2017-01-20T16:39:52Z</time>
      </trkpt>
      <trkpt lat="43.21451" lon="2.44002">
        <ele>95.7</ele>
        <time>2017-01-20T16:39:53Z</time>
      </trkpt>
      <trkpt lat="43.21451" lon="2.44002">
        <ele>95.5</ele>
        <time>2017-01-20T16:39:54Z</time>
      </trkpt>
      <trkpt lat="43.21452" lon="2.43998">
        <ele>95.6</ele>
        <time>2017-01-20T16:39:55Z</time>
      </trkpt>
      <trkpt lat="43.21451" lon="2.43996">
        <ele>95.7</ele>
        <time>2017-01-20T16:39:56Z</time>
      </trkpt>
      <trkpt lat="43.21452" lon="2.43994">
        <ele>95.8</ele>
        <time>2017-01-20T16:39:57Z</time>
      </trkpt>
      <trkpt lat="43.21452" lon="2.43991">
        <ele>95.8</ele>
        <time>2017-01-20T16:39:58Z</time>
      </trkpt>
      <trkpt lat="43.21451" lon="2.43981">
        <ele>95.9</ele>
        <time>2017-01-20T16:40:01Z</time>
      </trkpt>
      <trkpt lat="43.2145" lon="2.43978">
        <ele>95.9</ele>
        <time>2017-01-20T16:40:02Z</time>
      </trkpt>
      <trkpt lat="43.21446" lon="2.43968">
        <ele>95.9</ele>
        <time>2017-01-20T16:40:07Z</time>
      </trkpt>
      <trkpt lat="43.21446" lon="2.43968">
        <ele>95.9</ele>
        <time>2017-01-20T16:40:08Z</time>
      </trkpt>
      <trkpt lat="43.21446" lon="2.43968">
        <ele>95.9</ele>
        <time>2017-01-20T16:40:09Z</time>
      </trkpt>
      <trkpt lat="43.21446" lon="2.43968">
        <ele>95.9</ele>
        <time>2017-01-20T16:40:10Z</time>
      </trkpt>
      <trkpt lat="43.21446" lon="2.43968">
        <ele>95.9</ele>
        <time>2017-01-20T16:40:11Z</time>
      </trkpt>
      <trkpt lat="43.21446" lon="2.43968">
        <ele>95.9</ele>
        <time>2017-01-20T16:40:12Z</time>
      </trkpt>
      <trkpt lat="43.21446" lon="2.43968">
        <ele>95.9</ele>
        <time>2017-01-20T16:40:13Z</time>
      </trkpt>
      <trkpt lat="43.21446" lon="2.43968">
        <ele>95.9</ele>
        <time>2017-01-20T16:40:14Z</time>
      </trkpt>
      <trkpt lat="43.21446" lon="2.43968">
        <ele>95.9</ele>
        <time>2017-01-20T16:40:15Z</time>
      </trkpt>
      <trkpt lat="43.21446" lon="2.43968">
        <ele>95.9</ele>
        <time>2017-01-20T16:40:16Z</time>
      </trkpt>
      <trkpt lat="43.21446" lon="2.43968">
        <ele>95.9</ele>
        <time>2017-01-20T16:40:17Z</time>
      </trkpt>
      <trkpt lat="43.21446" lon="2.43968">
        <ele>95.9</ele>
        <time>2017-01-20T16:40:18Z</time>
      </trkpt>
      <trkpt lat="43.21446" lon="2.43968">
        <ele>96.1</ele>
        <time>2017-01-20T16:40:19Z</time>
      </trkpt>
      <trkpt lat="43.21446" lon="2.43968">
        <ele>96.3</ele>
        <time>2017-01-20T16:40:20Z</time>
      </trkpt>
      <trkpt lat="43.21446" lon="2.43968">
        <ele>96.4</ele>
        <time>2017-01-20T16:40:21Z</time>
      </trkpt>
      <trkpt lat="43.21446" lon="2.43968">
        <ele>95.1</ele>
        <time>2017-01-20T16:40:22Z</time>
      </trkpt>
      <trkpt lat="43.21446" lon="2.43968">
        <ele>94</ele>
        <time>2017-01-20T16:40:23Z</time>
      </trkpt>
      <trkpt lat="43.21446" lon="2.43968">
        <ele>93.3</ele>
        <time>2017-01-20T16:40:24Z</time>
      </trkpt>
      <trkpt lat="43.21446" lon="2.43968">
        <ele>93.1</ele>
        <time>2017-01-20T16:40:25Z</time>
      </trkpt>
      <trkpt lat="43.21446" lon="2.43968">
        <ele>93</ele>
        <time>2017-01-20T16:40:26Z</time>
      </trkpt>
      <trkpt lat="43.21446" lon="2.43968">
        <ele>92.9</ele>
        <time>2017-01-20T16:40:27Z</time>
      </trkpt>
      <trkpt lat="43.21446" lon="2.43968">
        <ele>93.9</ele>
        <time>2017-01-20T16:40:28Z</time>
      </trkpt>
      <trkpt lat="43.21446" lon="2.43968">
        <ele>94.6</ele>
        <time>2017-01-20T16:40:29Z</time>
      </trkpt>
      <trkpt lat="43.21446" lon="2.43968">
        <ele>95.1</ele>
        <time>2017-01-20T16:40:30Z</time>
      </trkpt>
      <trkpt lat="43.21446" lon="2.43968">
        <ele>95.1</ele>
        <time>2017-01-20T16:40:31Z</time>
      </trkpt>
      <trkpt lat="43.21446" lon="2.43968">
        <ele>95.1</ele>
        <time>2017-01-20T16:40:32Z</time>
      </trkpt>
      <trkpt lat="43.21446" lon="2.43968">
        <ele>95.1</ele>
        <time>2017-01-20T16:40:33Z</time>
      </trkpt>
      <trkpt lat="43.21446" lon="2.43968">
        <ele>95.1</ele>
        <time>2017-01-20T16:40:34Z</time>
      </trkpt>
      <trkpt lat="43.21446" lon="2.43968">
        <ele>95.1</ele>
        <time>2017-01-20T16:40:35Z</time>
      </trkpt>
      <trkpt lat="43.21446" lon="2.43968">
        <ele>95.1</ele>
        <time>2017-01-20T16:40:36Z</time>
      </trkpt>
      <trkpt lat="43.21446" lon="2.43968">
        <ele>95.1</ele>
        <time>2017-01-20T16:40:37Z</time>
      </trkpt>
      <trkpt lat="43.21446" lon="2.43968">
        <ele>95.1</ele>
        <time>2017-01-20T16:40:38Z</time>
      </trkpt>
      <trkpt lat="43.21446" lon="2.43968">
        <ele>95.1</ele>
        <time>2017-01-20T16:40:39Z</time>
      </trkpt>
      <trkpt lat="43.21446" lon="2.43968">
        <ele>95.1</ele>
        <time>2017-01-20T16:40:40Z</time>
      </trkpt>
      <trkpt lat="43.21446" lon="2.43968">
        <ele>95.1</ele>
        <time>2017-01-20T16:40:41Z</time>
      </trkpt>
      <trkpt lat="43.21446" lon="2.43968">
        <ele>95.1</ele>
        <time>2017-01-20T16:40:42Z</time>
      </trkpt>
      <trkpt lat="43.21446" lon="2.43968">
        <ele>95.1</ele>
        <time>2017-01-20T16:40:43Z</time>
      </trkpt>
      <trkpt lat="43.21446" lon="2.43968">
        <ele>95.1</ele>
        <time>2017-01-20T16:40:44Z</time>
      </trkpt>
      <trkpt lat="43.21446" lon="2.43968">
        <ele>95.1</ele>
        <time>2017-01-20T16:40:45Z</time>
      </trkpt>
      <trkpt lat="43.21446" lon="2.43968">
        <ele>95.1</ele>
        <time>2017-01-20T16:40:46Z</time>
      </trkpt>
      <trkpt lat="43.21446" lon="2.43968">
        <ele>95.1</ele>
        <time>2017-01-20T16:40:47Z</time>
      </trkpt>
      <trkpt lat="43.21446" lon="2.43968">
        <ele>95.1</ele>
        <time>2017-01-20T16:40:48Z</time>
      </trkpt>
      <trkpt lat="43.21446" lon="2.43968">
        <ele>95.3</ele>
        <time>2017-01-20T16:40:49Z</time>
      </trkpt>
      <trkpt lat="43.21446" lon="2.43968">
        <ele>95.5</ele>
        <time>2017-01-20T16:40:50Z</time>
      </trkpt>
      <trkpt lat="43.21446" lon="2.43968">
        <ele>95.6</ele>
        <time>2017-01-20T16:40:51Z</time>
      </trkpt>
      <trkpt lat="43.21446" lon="2.43968">
        <ele>95.7</ele>
        <time>2017-01-20T16:40:52Z</time>
      </trkpt>
      <trkpt lat="43.21446" lon="2.43968">
        <ele>95.7</ele>
        <time>2017-01-20T16:40:53Z</time>
      </trkpt>
      <trkpt lat="43.21446" lon="2.43968">
        <ele>95.8</ele>
        <time>2017-01-20T16:40:54Z</time>
      </trkpt>
      <trkpt lat="43.21446" lon="2.43968">
        <ele>96</ele>
        <time>2017-01-20T16:40:55Z</time>
      </trkpt>
      <trkpt lat="43.21446" lon="2.43968">
        <ele>96.2</ele>
        <time>2017-01-20T16:40:56Z</time>
      </trkpt>
      <trkpt lat="43.21446" lon="2.43968">
        <ele>96.4</ele>
        <time>2017-01-20T16:40:57Z</time>
      </trkpt>
      <trkpt lat="43.21446" lon="2.43968">
        <ele>96</ele>
        <time>2017-01-20T16:40:58Z</time>
      </trkpt>
      <trkpt lat="43.21446" lon="2.43968">
        <ele>95.8</ele>
        <time>2017-01-20T16:40:59Z</time>
      </trkpt>
      <trkpt lat="43.21446" lon="2.43968">
        <ele>95.6</ele>
        <time>2017-01-20T16:41:00Z</time>
      </trkpt>
      <trkpt lat="43.21446" lon="2.43968">
        <ele>95.3</ele>
        <time>2017-01-20T16:41:01Z</time>
      </trkpt>
      <trkpt lat="43.21446" lon="2.43968">
        <ele>95</ele>
        <time>2017-01-20T16:41:02Z</time>
      </trkpt>
      <trkpt lat="43.21446" lon="2.43968">
        <ele>94.9</ele>
        <time>2017-01-20T16:41:03Z</time>
      </trkpt>
      <trkpt lat="43.21446" lon="2.43968">
        <ele>94.7</ele>
        <time>2017-01-20T16:41:04Z</time>
      </trkpt>
      <trkpt lat="43.21446" lon="2.43968">
        <ele>94.6</ele>
        <time>2017-01-20T16:41:05Z</time>
      </trkpt>
      <trkpt lat="43.21446" lon="2.43968">
        <ele>94.5</ele>
        <time>2017-01-20T16:41:06Z</time>
      </trkpt>
      <trkpt lat="43.21446" lon="2.43968">
        <ele>94.9</ele>
        <time>2017-01-20T16:41:07Z</time>
      </trkpt>
      <trkpt lat="43.21446" lon="2.43968">
        <ele>95.1</ele>
        <time>2017-01-20T16:41:08Z</time>
      </trkpt>
      <trkpt lat="43.21446" lon="2.43968">
        <ele>95.3</ele>
        <time>2017-01-20T16:41:09Z</time>
      </trkpt>
      <trkpt lat="43.21446" lon="2.43968">
        <ele>95.3</ele>
        <time>2017-01-20T16:41:10Z</time>
      </trkpt>
      <trkpt lat="43.21446" lon="2.43968">
        <ele>95.2</ele>
        <time>2017-01-20T16:41:11Z</time>
      </trkpt>
      <trkpt lat="43.21446" lon="2.43968">
        <ele>95.2</ele>
        <time>2017-01-20T16:41:12Z</time>
      </trkpt>
      <trkpt lat="43.21446" lon="2.43968">
        <ele>94.8</ele>
        <time>2017-01-20T16:41:13Z</time>
      </trkpt>
      <trkpt lat="43.21446" lon="2.43968">
        <ele>94.4</ele>
        <time>2017-01-20T16:41:14Z</time>
      </trkpt>
      <trkpt lat="43.21446" lon="2.43968">
        <ele>94.2</ele>
        <time>2017-01-20T16:41:15Z</time>
      </trkpt>
      <trkpt lat="43.21446" lon="2.43968">
        <ele>94.2</ele>
        <time>2017-01-20T16:41:16Z</time>
      </trkpt>
      <trkpt lat="43.21446" lon="2.43968">
        <ele>94.2</ele>
        <time>2017-01-20T16:41:17Z</time>
      </trkpt>
      <trkpt lat="43.21446" lon="2.43968">
        <ele>94.2</ele>
        <time>2017-01-20T16:41:18Z</time>
      </trkpt>
      <trkpt lat="43.21446" lon="2.43968">
        <ele>94.5</ele>
        <time>2017-01-20T16:41:19Z</time>
      </trkpt>
      <trkpt lat="43.21446" lon="2.43968">
        <ele>94.6</ele>
        <time>2017-01-20T16:41:20Z</time>
      </trkpt>
      <trkpt lat="43.21446" lon="2.43968">
        <ele>94.7</ele>
        <time>2017-01-20T16:41:21Z</time>
      </trkpt>
      <trkpt lat="43.21446" lon="2.43968">
        <ele>95</ele>
        <time>2017-01-20T16:41:22Z</time>
      </trkpt>
      <trkpt lat="43.21446" lon="2.43968">
        <ele>95.3</ele>
        <time>2017-01-20T16:41:23Z</time>
      </trkpt>
      <trkpt lat="43.21446" lon="2.43968">
        <ele>95.4</ele>
        <time>2017-01-20T16:41:24Z</time>
      </trkpt>
      <trkpt lat="43.21446" lon="2.43968">
        <ele>95.6</ele>
        <time>2017-01-20T16:41:25Z</time>
      </trkpt>
      <trkpt lat="43.21446" lon="2.43968">
        <ele>95.7</ele>
        <time>2017-01-20T16:41:26Z</time>
      </trkpt>
      <trkpt lat="43.21446" lon="2.43968">
        <ele>95.7</ele>
        <time>2017-01-20T16:41:27Z</time>
      </trkpt>
      <trkpt lat="43.21446" lon="2.43968">
        <ele>95.8</ele>
        <time>2017-01-20T16:41:28Z</time>
      </trkpt>
      <trkpt lat="43.21446" lon="2.43968">
        <ele>95.8</ele>
        <time>2017-01-20T16:41:29Z</time>
      </trkpt>
      <trkpt lat="43.21446" lon="2.43968">
        <ele>95.9</ele>
        <time>2017-01-20T16:41:30Z</time>
      </trkpt>
      <trkpt lat="43.21446" lon="2.43968">
        <ele>95</ele>
        <time>2017-01-20T16:41:31Z</time>
      </trkpt>
      <trkpt lat="43.21446" lon="2.43968">
        <ele>94.4</ele>
        <time>2017-01-20T16:41:32Z</time>
      </trkpt>
      <trkpt lat="43.21446" lon="2.43968">
        <ele>94</ele>
        <time>2017-01-20T16:41:33Z</time>
      </trkpt>
      <trkpt lat="43.21446" lon="2.43968">
        <ele>94.1</ele>
        <time>2017-01-20T16:41:34Z</time>
      </trkpt>
      <trkpt lat="43.21446" lon="2.43968">
        <ele>94.1</ele>
        <time>2017-01-20T16:41:35Z</time>
      </trkpt>
      <trkpt lat="43.21446" lon="2.43968">
        <ele>94.2</ele>
        <time>2017-01-20T16:41:36Z</time>
      </trkpt>
      <trkpt lat="43.21446" lon="2.43968">
        <ele>94.4</ele>
        <time>2017-01-20T16:41:37Z</time>
      </trkpt>
      <trkpt lat="43.21446" lon="2.43968">
        <ele>94.6</ele>
        <time>2017-01-20T16:41:38Z</time>
      </trkpt>
      <trkpt lat="43.21446" lon="2.43968">
        <ele>94.7</ele>
        <time>2017-01-20T16:41:39Z</time>
      </trkpt>
      <trkpt lat="43.21446" lon="2.43968">
        <ele>94.6</ele>
        <time>2017-01-20T16:41:40Z</time>
      </trkpt>
      <trkpt lat="43.21446" lon="2.43968">
        <ele>94.5</ele>
        <time>2017-01-20T16:41:41Z</time>
      </trkpt>
      <trkpt lat="43.21446" lon="2.43968">
        <ele>94.5</ele>
        <time>2017-01-20T16:41:42Z</time>
      </trkpt>
      <trkpt lat="43.21446" lon="2.43968">
        <ele>94.4</ele>
        <time>2017-01-20T16:41:43Z</time>
      </trkpt>
      <trkpt lat="43.21446" lon="2.43968">
        <ele>94.4</ele>
        <time>2017-01-20T16:41:44Z</time>
      </trkpt>
      <trkpt lat="43.21446" lon="2.43968">
        <ele>94.4</ele>
        <time>2017-01-20T16:41:45Z</time>
      </trkpt>
      <trkpt lat="43.21446" lon="2.43968">
        <ele>94.8</ele>
        <time>2017-01-20T16:41:46Z</time>
      </trkpt>
      <trkpt lat="43.21446" lon="2.43968">
        <ele>95</ele>
        <time>2017-01-20T16:41:47Z</time>
      </trkpt>
      <trkpt lat="43.21446" lon="2.43968">
        <ele>95.3</ele>
        <time>2017-01-20T16:41:48Z</time>
      </trkpt>
      <trkpt lat="43.21446" lon="2.43968">
        <ele>95.4</ele>
        <time>2017-01-20T16:41:49Z</time>
      </trkpt>
      <trkpt lat="43.21446" lon="2.43968">
        <ele>95.6</ele>
        <time>2017-01-20T16:41:50Z</time>
      </trkpt>
      <trkpt lat="43.21446" lon="2.43968">
        <ele>95.7</ele>
        <time>2017-01-20T16:41:51Z</time>
      </trkpt>
      <trkpt lat="43.21446" lon="2.43968">
        <ele>95.5</ele>
        <time>2017-01-20T16:41:52Z</time>
      </trkpt>
      <trkpt lat="43.21446" lon="2.43968">
        <ele>95.4</ele>
        <time>2017-01-20T16:41:53Z</time>
      </trkpt>
      <trkpt lat="43.21446" lon="2.43968">
        <ele>95.3</ele>
        <time>2017-01-20T16:41:54Z</time>
      </trkpt>
      <trkpt lat="43.21446" lon="2.43968">
        <ele>95.5</ele>
        <time>2017-01-20T16:41:55Z</time>
      </trkpt>
      <trkpt lat="43.21446" lon="2.43968">
        <ele>95.6</ele>
        <time>2017-01-20T16:41:56Z</time>
      </trkpt>
      <trkpt lat="43.21446" lon="2.43968">
        <ele>95.7</ele>
        <time>2017-01-20T16:41:57Z</time>
      </trkpt>
      <trkpt lat="43.21446" lon="2.43968">
        <ele>95.5</ele>
        <time>2017-01-20T16:41:58Z</time>
      </trkpt>
      <trkpt lat="43.21446" lon="2.43968">
        <ele>95.4</ele>
        <time>2017-01-20T16:41:59Z</time>
      </trkpt>
      <trkpt lat="43.21446" lon="2.43968">
        <ele>95.4</ele>
        <time>2017-01-20T16:42:00Z</time>
      </trkpt>
      <trkpt lat="43.21446" lon="2.43968">
        <ele>95.3</ele>
        <time>2017-01-20T16:42:01Z</time>
      </trkpt>
      <trkpt lat="43.21446" lon="2.43968">
        <ele>95.2</ele>
        <time>2017-01-20T16:42:02Z</time>
      </trkpt>
      <trkpt lat="43.21446" lon="2.43968">
        <ele>95.2</ele>
        <time>2017-01-20T16:42:03Z</time>
      </trkpt>
      <trkpt lat="43.21446" lon="2.43968">
        <ele>95.2</ele>
        <time>2017-01-20T16:42:04Z</time>
      </trkpt>
      <trkpt lat="43.21446" lon="2.43968">
        <ele>95.2</ele>
        <time>2017-01-20T16:42:05Z</time>
      </trkpt>
      <trkpt lat="43.21446" lon="2.43968">
        <ele>95.2</ele>
        <time>2017-01-20T16:42:06Z</time>
      </trkpt>
      <trkpt lat="43.21446" lon="2.43968">
        <ele>95.6</ele>
        <time>2017-01-20T16:42:07Z</time>
      </trkpt>
      <trkpt lat="43.21446" lon="2.43968">
        <ele>95.9</ele>
        <time>2017-01-20T16:42:08Z</time>
      </trkpt>
      <trkpt lat="43.21446" lon="2.43968">
        <ele>96.1</ele>
        <time>2017-01-20T16:42:09Z</time>
      </trkpt>
      <trkpt lat="43.21446" lon="2.43968">
        <ele>95.6</ele>
        <time>2017-01-20T16:42:10Z</time>
      </trkpt>
      <trkpt lat="43.21446" lon="2.43968">
        <ele>95.3</ele>
        <time>2017-01-20T16:42:11Z</time>
      </trkpt>
      <trkpt lat="43.21446" lon="2.43968">
        <ele>95</ele>
        <time>2017-01-20T16:42:12Z</time>
      </trkpt>
      <trkpt lat="43.21446" lon="2.43968">
        <ele>95.3</ele>
        <time>2017-01-20T16:42:13Z</time>
      </trkpt>
      <trkpt lat="43.21446" lon="2.43968">
        <ele>95.4</ele>
        <time>2017-01-20T16:42:14Z</time>
      </trkpt>
      <trkpt lat="43.21446" lon="2.43968">
        <ele>95.6</ele>
        <time>2017-01-20T16:42:15Z</time>
      </trkpt>
      <trkpt lat="43.21446" lon="2.43968">
        <ele>95.2</ele>
        <time>2017-01-20T16:42:16Z</time>
      </trkpt>
      <trkpt lat="43.21446" lon="2.43968">
        <ele>95</ele>
        <time>2017-01-20T16:42:17Z</time>
      </trkpt>
      <trkpt lat="43.21446" lon="2.43968">
        <ele>94.8</ele>
        <time>2017-01-20T16:42:18Z</time>
      </trkpt>
      <trkpt lat="43.21446" lon="2.43968">
        <ele>95.5</ele>
        <time>2017-01-20T16:42:19Z</time>
      </trkpt>
      <trkpt lat="43.21446" lon="2.43963">
        <ele>96</ele>
        <time>2017-01-20T16:42:20Z</time>
      </trkpt>
      <trkpt lat="43.21447" lon="2.43962">
        <ele>96.4</ele>
        <time>2017-01-20T16:42:21Z</time>
      </trkpt>
      <trkpt lat="43.21448" lon="2.43962">
        <ele>96.3</ele>
        <time>2017-01-20T16:42:22Z</time>
      </trkpt>
      <trkpt lat="43.21449" lon="2.43962">
        <ele>96.2</ele>
        <time>2017-01-20T16:42:23Z</time>
      </trkpt>
      <trkpt lat="43.21451" lon="2.43961">
        <ele>96.1</ele>
        <time>2017-01-20T16:42:24Z</time>
      </trkpt>
      <trkpt lat="43.21452" lon="2.43959">
        <ele>96.1</ele>
        <time>2017-01-20T16:42:25Z</time>
      </trkpt>
      <trkpt lat="43.21453" lon="2.43956">
        <ele>96</ele>
        <time>2017-01-20T16:42:27Z</time>
      </trkpt>
      <trkpt lat="43.21454" lon="2.43954">
        <ele>95.6</ele>
        <time>2017-01-20T16:42:29Z</time>
      </trkpt>
      <trkpt lat="43.21454" lon="2.43954">
        <ele>95.5</ele>
        <time>2017-01-20T16:42:30Z</time>
      </trkpt>
      <trkpt lat="43.21454" lon="2.43954">
        <ele>95.4</ele>
        <time>2017-01-20T16:42:31Z</time>
      </trkpt>
      <trkpt lat="43.21454" lon="2.43954">
        <ele>95.3</ele>
        <time>2017-01-20T16:42:32Z</time>
      </trkpt>
      <trkpt lat="43.21454" lon="2.43954">
        <ele>95.3</ele>
        <time>2017-01-20T16:42:33Z</time>
      </trkpt>
      <trkpt lat="43.21454" lon="2.43954">
        <ele>95.4</ele>
        <time>2017-01-20T16:42:34Z</time>
      </trkpt>
      <trkpt lat="43.21454" lon="2.43954">
        <ele>95.6</ele>
        <time>2017-01-20T16:42:35Z</time>
      </trkpt>
      <trkpt lat="43.21454" lon="2.43954">
        <ele>95.7</ele>
        <time>2017-01-20T16:42:36Z</time>
      </trkpt>
      <trkpt lat="43.21454" lon="2.43954">
        <ele>95.3</ele>
        <time>2017-01-20T16:42:37Z</time>
      </trkpt>
      <trkpt lat="43.21454" lon="2.43954">
        <ele>95.1</ele>
        <time>2017-01-20T16:42:38Z</time>
      </trkpt>
      <trkpt lat="43.21454" lon="2.43954">
        <ele>94.9</ele>
        <time>2017-01-20T16:42:39Z</time>
      </trkpt>
      <trkpt lat="43.21454" lon="2.43954">
        <ele>94.9</ele>
        <time>2017-01-20T16:42:40Z</time>
      </trkpt>
      <trkpt lat="43.21455" lon="2.43955">
        <ele>95</ele>
        <time>2017-01-20T16:42:41Z</time>
      </trkpt>
      <trkpt lat="43.21455" lon="2.43956">
        <ele>95</ele>
        <time>2017-01-20T16:42:42Z</time>
      </trkpt>
      <trkpt lat="43.21456" lon="2.43956">
        <ele>95</ele>
        <time>2017-01-20T16:42:43Z</time>
      </trkpt>
      <trkpt lat="43.21457" lon="2.43957">
        <ele>95.1</ele>
        <time>2017-01-20T16:42:44Z</time>
      </trkpt>
      <trkpt lat="43.21458" lon="2.43957">
        <ele>95.1</ele>
        <time>2017-01-20T16:42:45Z</time>
      </trkpt>
      <trkpt lat="43.21458" lon="2.43957">
        <ele>95.1</ele>
        <time>2017-01-20T16:42:46Z</time>
      </trkpt>
      <trkpt lat="43.21459" lon="2.43957">
        <ele>95.1</ele>
        <time>2017-01-20T16:42:47Z</time>
      </trkpt>
      <trkpt lat="43.21459" lon="2.43957">
        <ele>95.1</ele>
        <time>2017-01-20T16:42:48Z</time>
      </trkpt>
      <trkpt lat="43.21459" lon="2.43957">
        <ele>95.3</ele>
        <time>2017-01-20T16:42:49Z</time>
      </trkpt>
      <trkpt lat="43.2146" lon="2.43957">
        <ele>95.5</ele>
        <time>2017-01-20T16:42:50Z</time>
      </trkpt>
      <trkpt lat="43.21461" lon="2.43956">
        <ele>95.6</ele>
        <time>2017-01-20T16:42:51Z</time>
      </trkpt>
      <trkpt lat="43.21461" lon="2.43956">
        <ele>95.5</ele>
        <time>2017-01-20T16:42:52Z</time>
      </trkpt>
      <trkpt lat="43.21461" lon="2.43955">
        <ele>95.4</ele>
        <time>2017-01-20T16:42:53Z</time>
      </trkpt>
      <trkpt lat="43.21462" lon="2.43955">
        <ele>95.3</ele>
        <time>2017-01-20T16:42:54Z</time>
      </trkpt>
      <trkpt lat="43.21462" lon="2.43955">
        <ele>95.3</ele>
        <time>2017-01-20T16:42:55Z</time>
      </trkpt>
      <trkpt lat="43.21462" lon="2.43954">
        <ele>95.2</ele>
        <time>2017-01-20T16:42:56Z</time>
      </trkpt>
      <trkpt lat="43.21462" lon="2.43954">
        <ele>95.2</ele>
        <time>2017-01-20T16:42:57Z</time>
      </trkpt>
      <trkpt lat="43.21462" lon="2.43954">
        <ele>95</ele>
        <time>2017-01-20T16:42:58Z</time>
      </trkpt>
      <trkpt lat="43.21462" lon="2.43954">
        <ele>94.8</ele>
        <time>2017-01-20T16:42:59Z</time>
      </trkpt>
      <trkpt lat="43.21462" lon="2.43954">
        <ele>94.7</ele>
        <time>2017-01-20T16:43:00Z</time>
      </trkpt>
      <trkpt lat="43.21461" lon="2.43954">
        <ele>95</ele>
        <time>2017-01-20T16:43:01Z</time>
      </trkpt>
      <trkpt lat="43.21461" lon="2.43954">
        <ele>95.2</ele>
        <time>2017-01-20T16:43:02Z</time>
      </trkpt>
      <trkpt lat="43.21461" lon="2.43954">
        <ele>95.4</ele>
        <time>2017-01-20T16:43:03Z</time>
      </trkpt>
      <trkpt lat="43.2146" lon="2.43954">
        <ele>94.9</ele>
        <time>2017-01-20T16:43:05Z</time>
      </trkpt>
      <trkpt lat="43.21459" lon="2.43953">
        <ele>94.8</ele>
        <time>2017-01-20T16:43:06Z</time>
      </trkpt>
      <trkpt lat="43.21458" lon="2.43951">
        <ele>95.1</ele>
        <time>2017-01-20T16:43:07Z</time>
      </trkpt>
      <trkpt lat="43.21457" lon="2.43949">
        <ele>95.3</ele>
        <time>2017-01-20T16:43:08Z</time>
      </trkpt>
      <trkpt lat="43.21456" lon="2.43946">
        <ele>95.4</ele>
        <time>2017-01-20T16:43:09Z</time>
      </trkpt>
      <trkpt lat="43.21453" lon="2.43939">
        <ele>95.7</ele>
        <time>2017-01-20T16:43:11Z</time>
      </trkpt>
      <trkpt lat="43.2145" lon="2.43924">
        <ele>95.6</ele>
        <time>2017-01-20T16:43:17Z</time>
      </trkpt>
      <trkpt lat="43.2145" lon="2.43924">
        <ele>95.7</ele>
        <time>2017-01-20T16:43:18Z</time>
      </trkpt>
      <trkpt lat="43.2145" lon="2.43924">
        <ele>95.8</ele>
        <time>2017-01-20T16:43:19Z</time>
      </trkpt>
      <trkpt lat="43.2145" lon="2.43924">
        <ele>95.8</ele>
        <time>2017-01-20T16:43:20Z</time>
      </trkpt>
      <trkpt lat="43.2145" lon="2.43924">
        <ele>95.8</ele>
        <time>2017-01-20T16:43:21Z</time>
      </trkpt>
      <trkpt lat="43.2145" lon="2.43924">
        <ele>95.7</ele>
        <time>2017-01-20T16:43:22Z</time>
      </trkpt>
      <trkpt lat="43.2145" lon="2.43924">
        <ele>95.5</ele>
        <time>2017-01-20T16:43:23Z</time>
      </trkpt>
      <trkpt lat="43.21449" lon="2.43919">
        <ele>95.3</ele>
        <time>2017-01-20T16:43:26Z</time>
      </trkpt>
      <trkpt lat="43.21448" lon="2.43916">
        <ele>95.2</ele>
        <time>2017-01-20T16:43:27Z</time>
      </trkpt>
      <trkpt lat="43.21447" lon="2.43913">
        <ele>95.4</ele>
        <time>2017-01-20T16:43:28Z</time>
      </trkpt>
      <trkpt lat="43.21447" lon="2.43909">
        <ele>95.5</ele>
        <time>2017-01-20T16:43:29Z</time>
      </trkpt>
      <trkpt lat="43.21445" lon="2.43905">
        <ele>95.6</ele>
        <time>2017-01-20T16:43:30Z</time>
      </trkpt>
      <trkpt lat="43.21444" lon="2.43902">
        <ele>95.9</ele>
        <time>2017-01-20T16:43:31Z</time>
      </trkpt>
      <trkpt lat="43.21436" lon="2.43881">
        <ele>96.1</ele>
        <time>2017-01-20T16:43:36Z</time>
      </trkpt>
      <trkpt lat="43.21436" lon="2.43878">
        <ele>95.8</ele>
        <time>2017-01-20T16:43:37Z</time>
      </trkpt>
      <trkpt lat="43.21436" lon="2.43875">
        <ele>95.5</ele>
        <time>2017-01-20T16:43:39Z</time>
      </trkpt>
      <trkpt lat="43.21436" lon="2.43875">
        <ele>95.6</ele>
        <time>2017-01-20T16:43:40Z</time>
      </trkpt>
      <trkpt lat="43.21436" lon="2.43875">
        <ele>95.7</ele>
        <time>2017-01-20T16:43:41Z</time>
      </trkpt>
      <trkpt lat="43.21436" lon="2.43875">
        <ele>95.8</ele>
        <time>2017-01-20T16:43:42Z</time>
      </trkpt>
      <trkpt lat="43.21436" lon="2.43875">
        <ele>95.8</ele>
        <time>2017-01-20T16:43:43Z</time>
      </trkpt>
      <trkpt lat="43.21436" lon="2.43875">
        <ele>95.8</ele>
        <time>2017-01-20T16:43:44Z</time>
      </trkpt>
      <trkpt lat="43.21437" lon="2.43874">
        <ele>95.9</ele>
        <time>2017-01-20T16:43:45Z</time>
      </trkpt>
      <trkpt lat="43.21437" lon="2.43873">
        <ele>95.7</ele>
        <time>2017-01-20T16:43:46Z</time>
      </trkpt>
      <trkpt lat="43.21467" lon="2.43582">
        <ele>97.8</ele>
        <time>2017-01-20T16:44:34Z</time>
      </trkpt>
      <trkpt lat="43.21466" lon="2.43575">
        <ele>98</ele>
        <time>2017-01-20T16:44:35Z</time>
      </trkpt>
      <trkpt lat="43.21461" lon="2.43547">
        <ele>97.3</ele>
        <time>2017-01-20T16:44:39Z</time>
      </trkpt>
      <trkpt lat="43.21457" lon="2.43535">
        <ele>97.8</ele>
        <time>2017-01-20T16:44:41Z</time>
      </trkpt>
      <trkpt lat="43.21444" lon="2.43509">
        <ele>97.7</ele>
        <time>2017-01-20T16:44:46Z</time>
      </trkpt>
      <trkpt lat="43.21432" lon="2.4349">
        <ele>97.6</ele>
        <time>2017-01-20T16:44:51Z</time>
      </trkpt>
      <trkpt lat="43.21422" lon="2.43475">
        <ele>96.2</ele>
        <time>2017-01-20T16:44:59Z</time>
      </trkpt>
      <trkpt lat="43.21422" lon="2.43475">
        <ele>96.2</ele>
        <time>2017-01-20T16:45:00Z</time>
      </trkpt>
      <trkpt lat="43.21422" lon="2.43475">
        <ele>96.3</ele>
        <time>2017-01-20T16:45:01Z</time>
      </trkpt>
      <trkpt lat="43.21422" lon="2.43475">
        <ele>96.4</ele>
        <time>2017-01-20T16:45:02Z</time>
      </trkpt>
      <trkpt lat="43.21422" lon="2.43475">
        <ele>96.5</ele>
        <time>2017-01-20T16:45:03Z</time>
      </trkpt>
      <trkpt lat="43.21422" lon="2.43475">
        <ele>96.6</ele>
        <time>2017-01-20T16:45:04Z</time>
      </trkpt>
      <trkpt lat="43.21422" lon="2.43475">
        <ele>96.6</ele>
        <time>2017-01-20T16:45:05Z</time>
      </trkpt>
      <trkpt lat="43.21422" lon="2.43475">
        <ele>96.7</ele>
        <time>2017-01-20T16:45:06Z</time>
      </trkpt>
      <trkpt lat="43.21422" lon="2.43475">
        <ele>96.5</ele>
        <time>2017-01-20T16:45:07Z</time>
      </trkpt>
      <trkpt lat="43.21422" lon="2.43475">
        <ele>96.3</ele>
        <time>2017-01-20T16:45:08Z</time>
      </trkpt>
      <trkpt lat="43.21422" lon="2.43475">
        <ele>96.2</ele>
        <time>2017-01-20T16:45:09Z</time>
      </trkpt>
      <trkpt lat="43.21422" lon="2.43475">
        <ele>96.2</ele>
        <time>2017-01-20T16:45:10Z</time>
      </trkpt>
      <trkpt lat="43.21422" lon="2.43475">
        <ele>96.1</ele>
        <time>2017-01-20T16:45:11Z</time>
      </trkpt>
      <trkpt lat="43.21422" lon="2.43475">
        <ele>96.1</ele>
        <time>2017-01-20T16:45:12Z</time>
      </trkpt>
      <trkpt lat="43.21422" lon="2.43475">
        <ele>96</ele>
        <time>2017-01-20T16:45:13Z</time>
      </trkpt>
      <trkpt lat="43.21422" lon="2.43475">
        <ele>96</ele>
        <time>2017-01-20T16:45:14Z</time>
      </trkpt>
      <trkpt lat="43.21422" lon="2.43475">
        <ele>96</ele>
        <time>2017-01-20T16:45:15Z</time>
      </trkpt>
      <trkpt lat="43.21422" lon="2.43475">
        <ele>96.2</ele>
        <time>2017-01-20T16:45:16Z</time>
      </trkpt>
      <trkpt lat="43.21422" lon="2.43475">
        <ele>96.3</ele>
        <time>2017-01-20T16:45:17Z</time>
      </trkpt>
      <trkpt lat="43.21422" lon="2.43475">
        <ele>96.4</ele>
        <time>2017-01-20T16:45:18Z</time>
      </trkpt>
      <trkpt lat="43.21422" lon="2.43475">
        <ele>96.3</ele>
        <time>2017-01-20T16:45:19Z</time>
      </trkpt>
      <trkpt lat="43.21422" lon="2.43475">
        <ele>96.2</ele>
        <time>2017-01-20T16:45:20Z</time>
      </trkpt>
      <trkpt lat="43.21422" lon="2.43475">
        <ele>96.2</ele>
        <time>2017-01-20T16:45:21Z</time>
      </trkpt>
      <trkpt lat="43.21422" lon="2.43475">
        <ele>96.3</ele>
        <time>2017-01-20T16:45:22Z</time>
      </trkpt>
      <trkpt lat="43.21422" lon="2.43475">
        <ele>96.4</ele>
        <time>2017-01-20T16:45:23Z</time>
      </trkpt>
      <trkpt lat="43.21422" lon="2.43475">
        <ele>96.5</ele>
        <time>2017-01-20T16:45:24Z</time>
      </trkpt>
      <trkpt lat="43.21422" lon="2.43475">
        <ele>96.4</ele>
        <time>2017-01-20T16:45:25Z</time>
      </trkpt>
      <trkpt lat="43.21422" lon="2.43475">
        <ele>96.3</ele>
        <time>2017-01-20T16:45:26Z</time>
      </trkpt>
      <trkpt lat="43.21422" lon="2.43475">
        <ele>96.2</ele>
        <time>2017-01-20T16:45:27Z</time>
      </trkpt>
      <trkpt lat="43.21422" lon="2.43475">
        <ele>96.1</ele>
        <time>2017-01-20T16:45:28Z</time>
      </trkpt>
      <trkpt lat="43.21422" lon="2.43475">
        <ele>96.1</ele>
        <time>2017-01-20T16:45:29Z</time>
      </trkpt>
      <trkpt lat="43.21422" lon="2.43475">
        <ele>96</ele>
        <time>2017-01-20T16:45:30Z</time>
      </trkpt>
      <trkpt lat="43.21422" lon="2.43475">
        <ele>96</ele>
        <time>2017-01-20T16:45:31Z</time>
      </trkpt>
      <trkpt lat="43.21422" lon="2.43475">
        <ele>96</ele>
        <time>2017-01-20T16:45:32Z</time>
      </trkpt>
      <trkpt lat="43.21422" lon="2.43475">
        <ele>96</ele>
        <time>2017-01-20T16:45:33Z</time>
      </trkpt>
      <trkpt lat="43.21422" lon="2.43475">
        <ele>96</ele>
        <time>2017-01-20T16:45:34Z</time>
      </trkpt>
      <trkpt lat="43.21422" lon="2.43475">
        <ele>96</ele>
        <time>2017-01-20T16:45:35Z</time>
      </trkpt>
      <trkpt lat="43.21422" lon="2.43475">
        <ele>96</ele>
        <time>2017-01-20T16:45:36Z</time>
      </trkpt>
      <trkpt lat="43.21422" lon="2.43475">
        <ele>96.2</ele>
        <time>2017-01-20T16:45:37Z</time>
      </trkpt>
      <trkpt lat="43.21422" lon="2.43475">
        <ele>96.3</ele>
        <time>2017-01-20T16:45:38Z</time>
      </trkpt>
      <trkpt lat="43.21422" lon="2.43475">
        <ele>96.4</ele>
        <time>2017-01-20T16:45:39Z</time>
      </trkpt>
      <trkpt lat="43.21422" lon="2.43475">
        <ele>96.5</ele>
        <time>2017-01-20T16:45:40Z</time>
      </trkpt>
      <trkpt lat="43.21422" lon="2.43475">
        <ele>96.6</ele>
        <time>2017-01-20T16:45:41Z</time>
      </trkpt>
      <trkpt lat="43.21422" lon="2.43475">
        <ele>96.6</ele>
        <time>2017-01-20T16:45:42Z</time>
      </trkpt>
      <trkpt lat="43.21422" lon="2.43475">
        <ele>96.2</ele>
        <time>2017-01-20T16:45:43Z</time>
      </trkpt>
      <trkpt lat="43.21422" lon="2.43475">
        <ele>96</ele>
        <time>2017-01-20T16:45:44Z</time>
      </trkpt>
      <trkpt lat="43.21422" lon="2.43475">
        <ele>95.7</ele>
        <time>2017-01-20T16:45:45Z</time>
      </trkpt>
      <trkpt lat="43.21422" lon="2.43475">
        <ele>95.8</ele>
        <time>2017-01-20T16:45:46Z</time>
      </trkpt>
      <trkpt lat="43.21422" lon="2.43475">
        <ele>95.8</ele>
        <time>2017-01-20T16:45:47Z</time>
      </trkpt>
      <trkpt lat="43.21422" lon="2.43475">
        <ele>95.9</ele>
        <time>2017-01-20T16:45:48Z</time>
      </trkpt>
      <trkpt lat="43.21422" lon="2.43475">
        <ele>96.1</ele>
        <time>2017-01-20T16:45:49Z</time>
      </trkpt>
      <trkpt lat="43.21422" lon="2.43475">
        <ele>96.3</ele>
        <time>2017-01-20T16:45:50Z</time>
      </trkpt>
      <trkpt lat="43.21422" lon="2.43475">
        <ele>96.4</ele>
        <time>2017-01-20T16:45:51Z</time>
      </trkpt>
      <trkpt lat="43.21422" lon="2.43475">
        <ele>96.3</ele>
        <time>2017-01-20T16:45:52Z</time>
      </trkpt>
      <trkpt lat="43.21418" lon="2.4347">
        <ele>96.2</ele>
        <time>2017-01-20T16:45:53Z</time>
      </trkpt>
      <trkpt lat="43.21396" lon="2.43441">
        <ele>97.4</ele>
        <time>2017-01-20T16:46:06Z</time>
      </trkpt>
      <trkpt lat="43.21396" lon="2.43441">
        <ele>97.4</ele>
        <time>2017-01-20T16:46:07Z</time>
      </trkpt>
      <trkpt lat="43.21396" lon="2.43441">
        <ele>97.5</ele>
        <time>2017-01-20T16:46:08Z</time>
      </trkpt>
      <trkpt lat="43.21396" lon="2.43441">
        <ele>97.5</ele>
        <time>2017-01-20T16:46:09Z</time>
      </trkpt>
      <trkpt lat="43.21396" lon="2.43441">
        <ele>97.3</ele>
        <time>2017-01-20T16:46:10Z</time>
      </trkpt>
      <trkpt lat="43.21396" lon="2.43441">
        <ele>97.2</ele>
        <time>2017-01-20T16:46:11Z</time>
      </trkpt>
      <trkpt lat="43.21396" lon="2.43439">
        <ele>97.1</ele>
        <time>2017-01-20T16:46:12Z</time>
      </trkpt>
      <trkpt lat="43.21396" lon="2.43438">
        <ele>97.2</ele>
        <time>2017-01-20T16:46:13Z</time>
      </trkpt>
      <trkpt lat="43.21397" lon="2.43436">
        <ele>97.3</ele>
        <time>2017-01-20T16:46:14Z</time>
      </trkpt>
      <trkpt lat="43.21398" lon="2.43435">
        <ele>97.4</ele>
        <time>2017-01-20T16:46:16Z</time>
      </trkpt>
      <trkpt lat="43.21398" lon="2.43435">
        <ele>98</ele>
        <time>2017-01-20T16:46:21Z</time>
      </trkpt>
      <trkpt lat="43.21398" lon="2.43435">
        <ele>98.6</ele>
        <time>2017-01-20T16:46:22Z</time>
      </trkpt>
      <trkpt lat="43.21398" lon="2.43435">
        <ele>98.9</ele>
        <time>2017-01-20T16:46:23Z</time>
      </trkpt>
      <trkpt lat="43.21398" lon="2.43435">
        <ele>99.2</ele>
        <time>2017-01-20T16:46:24Z</time>
      </trkpt>
      <trkpt lat="43.21398" lon="2.43435">
        <ele>99</ele>
        <time>2017-01-20T16:46:25Z</time>
      </trkpt>
      <trkpt lat="43.21398" lon="2.43435">
        <ele>98.9</ele>
        <time>2017-01-20T16:46:26Z</time>
      </trkpt>
      <trkpt lat="43.21398" lon="2.43435">
        <ele>98.8</ele>
        <time>2017-01-20T16:46:27Z</time>
      </trkpt>
      <trkpt lat="43.21398" lon="2.43435">
        <ele>98.9</ele>
        <time>2017-01-20T16:46:28Z</time>
      </trkpt>
      <trkpt lat="43.21399" lon="2.43433">
        <ele>99</ele>
        <time>2017-01-20T16:46:29Z</time>
      </trkpt>
      <trkpt lat="43.21399" lon="2.43433">
        <ele>99.1</ele>
        <time>2017-01-20T16:46:30Z</time>
      </trkpt>
      <trkpt lat="43.21399" lon="2.43433">
        <ele>98.9</ele>
        <time>2017-01-20T16:46:31Z</time>
      </trkpt>
      <trkpt lat="43.21399" lon="2.43433">
        <ele>98.8</ele>
        <time>2017-01-20T16:46:32Z</time>
      </trkpt>
      <trkpt lat="43.21399" lon="2.43433">
        <ele>98.7</ele>
        <time>2017-01-20T16:46:33Z</time>
      </trkpt>
      <trkpt lat="43.21399" lon="2.43433">
        <ele>98.8</ele>
        <time>2017-01-20T16:46:34Z</time>
      </trkpt>
      <trkpt lat="43.21399" lon="2.43433">
        <ele>98.9</ele>
        <time>2017-01-20T16:46:35Z</time>
      </trkpt>
      <trkpt lat="43.21399" lon="2.43433">
        <ele>99</ele>
        <time>2017-01-20T16:46:36Z</time>
      </trkpt>
      <trkpt lat="43.21399" lon="2.43433">
        <ele>98.9</ele>
        <time>2017-01-20T16:46:37Z</time>
      </trkpt>
      <trkpt lat="43.21399" lon="2.43433">
        <ele>98.8</ele>
        <time>2017-01-20T16:46:38Z</time>
      </trkpt>
      <trkpt lat="43.21399" lon="2.43433">
        <ele>98.7</ele>
        <time>2017-01-20T16:46:39Z</time>
      </trkpt>
      <trkpt lat="43.21399" lon="2.43433">
        <ele>98.4</ele>
        <time>2017-01-20T16:46:40Z</time>
      </trkpt>
      <trkpt lat="43.21397" lon="2.43433">
        <ele>98.2</ele>
        <time>2017-01-20T16:46:41Z</time>
      </trkpt>
      <trkpt lat="43.21395" lon="2.43432">
        <ele>98.1</ele>
        <time>2017-01-20T16:46:42Z</time>
      </trkpt>
      <trkpt lat="43.21394" lon="2.43429">
        <ele>97.9</ele>
        <time>2017-01-20T16:46:43Z</time>
      </trkpt>
      <trkpt lat="43.21393" lon="2.43424">
        <ele>97.9</ele>
        <time>2017-01-20T16:46:44Z</time>
      </trkpt>
      <trkpt lat="43.21382" lon="2.4333">
        <ele>97</ele>
        <time>2017-01-20T16:46:58Z</time>
      </trkpt>
      <trkpt lat="43.21382" lon="2.43274">
        <ele>96.2</ele>
        <time>2017-01-20T16:47:06Z</time>
      </trkpt>
      <trkpt lat="43.21387" lon="2.43209">
        <ele>97.2</ele>
        <time>2017-01-20T16:47:15Z</time>
      </trkpt>
      <trkpt lat="43.21397" lon="2.43161">
        <ele>96.5</ele>
        <time>2017-01-20T16:47:22Z</time>
      </trkpt>
      <trkpt lat="43.21407" lon="2.43129">
        <ele>97.2</ele>
        <time>2017-01-20T16:47:27Z</time>
      </trkpt>
      <trkpt lat="43.21415" lon="2.43113">
        <ele>97.4</ele>
        <time>2017-01-20T16:47:30Z</time>
      </trkpt>
      <trkpt lat="43.21448" lon="2.43061">
        <ele>97.2</ele>
        <time>2017-01-20T16:47:40Z</time>
      </trkpt>
      <trkpt lat="43.21451" lon="2.43056">
        <ele>97.1</ele>
        <time>2017-01-20T16:47:41Z</time>
      </trkpt>
      <trkpt lat="43.21485" lon="2.42992">
        <ele>96.8</ele>
        <time>2017-01-20T16:47:54Z</time>
      </trkpt>
      <trkpt lat="43.21492" lon="2.42976">
        <ele>95.9</ele>
        <time>2017-01-20T16:48:00Z</time>
      </trkpt>
      <trkpt lat="43.21492" lon="2.42976">
        <ele>96.1</ele>
        <time>2017-01-20T16:48:01Z</time>
      </trkpt>
      <trkpt lat="43.21492" lon="2.42976">
        <ele>96.3</ele>
        <time>2017-01-20T16:48:02Z</time>
      </trkpt>
      <trkpt lat="43.21492" lon="2.42976">
        <ele>96.4</ele>
        <time>2017-01-20T16:48:03Z</time>
      </trkpt>
      <trkpt lat="43.21492" lon="2.42976">
        <ele>96.3</ele>
        <time>2017-01-20T16:48:04Z</time>
      </trkpt>
      <trkpt lat="43.21492" lon="2.42976">
        <ele>96.2</ele>
        <time>2017-01-20T16:48:05Z</time>
      </trkpt>
      <trkpt lat="43.21492" lon="2.42976">
        <ele>96.1</ele>
        <time>2017-01-20T16:48:06Z</time>
      </trkpt>
      <trkpt lat="43.21492" lon="2.42976">
        <ele>95.9</ele>
        <time>2017-01-20T16:48:07Z</time>
      </trkpt>
      <trkpt lat="43.21492" lon="2.42976">
        <ele>95.7</ele>
        <time>2017-01-20T16:48:08Z</time>
      </trkpt>
      <trkpt lat="43.21492" lon="2.42976">
        <ele>95.5</ele>
        <time>2017-01-20T16:48:09Z</time>
      </trkpt>
      <trkpt lat="43.21492" lon="2.42976">
        <ele>95.4</ele>
        <time>2017-01-20T16:48:10Z</time>
      </trkpt>
      <trkpt lat="43.21492" lon="2.42976">
        <ele>95.4</ele>
        <time>2017-01-20T16:48:11Z</time>
      </trkpt>
      <trkpt lat="43.21492" lon="2.42976">
        <ele>95.3</ele>
        <time>2017-01-20T16:48:12Z</time>
      </trkpt>
      <trkpt lat="43.21492" lon="2.42976">
        <ele>95.5</ele>
        <time>2017-01-20T16:48:13Z</time>
      </trkpt>
      <trkpt lat="43.21493" lon="2.42972">
        <ele>95.6</ele>
        <time>2017-01-20T16:48:14Z</time>
      </trkpt>
      <trkpt lat="43.21494" lon="2.42966">
        <ele>95.9</ele>
        <time>2017-01-20T16:48:16Z</time>
      </trkpt>
      <trkpt lat="43.21496" lon="2.42963">
        <ele>96.1</ele>
        <time>2017-01-20T16:48:17Z</time>
      </trkpt>
      <trkpt lat="43.2152" lon="2.42894">
        <ele>96.5</ele>
        <time>2017-01-20T16:48:31Z</time>
      </trkpt>
      <trkpt lat="43.21538" lon="2.42833">
        <ele>96.4</ele>
        <time>2017-01-20T16:48:44Z</time>
      </trkpt>
      <trkpt lat="43.2154" lon="2.42828">
        <ele>96.3</ele>
        <time>2017-01-20T16:48:45Z</time>
      </trkpt>
      <trkpt lat="43.2155" lon="2.42794">
        <ele>96.1</ele>
        <time>2017-01-20T16:48:54Z</time>
      </trkpt>
      <trkpt lat="43.2155" lon="2.42794">
        <ele>96.3</ele>
        <time>2017-01-20T16:48:55Z</time>
      </trkpt>
      <trkpt lat="43.2155" lon="2.42794">
        <ele>96.4</ele>
        <time>2017-01-20T16:48:56Z</time>
      </trkpt>
      <trkpt lat="43.2155" lon="2.42794">
        <ele>96.5</ele>
        <time>2017-01-20T16:48:57Z</time>
      </trkpt>
      <trkpt lat="43.2155" lon="2.42794">
        <ele>96.3</ele>
        <time>2017-01-20T16:48:58Z</time>
      </trkpt>
      <trkpt lat="43.2155" lon="2.42794">
        <ele>96.2</ele>
        <time>2017-01-20T16:48:59Z</time>
      </trkpt>
      <trkpt lat="43.2155" lon="2.42794">
        <ele>96.2</ele>
        <time>2017-01-20T16:49:00Z</time>
      </trkpt>
      <trkpt lat="43.2155" lon="2.42791">
        <ele>95.9</ele>
        <time>2017-01-20T16:49:01Z</time>
      </trkpt>
      <trkpt lat="43.21551" lon="2.42785">
        <ele>95.6</ele>
        <time>2017-01-20T16:49:03Z</time>
      </trkpt>
      <trkpt lat="43.21553" lon="2.42781">
        <ele>95.9</ele>
        <time>2017-01-20T16:49:04Z</time>
      </trkpt>
      <trkpt lat="43.21566" lon="2.42727">
        <ele>96.6</ele>
        <time>2017-01-20T16:49:14Z</time>
      </trkpt>
      <trkpt lat="43.21585" lon="2.42625">
        <ele>96.6</ele>
        <time>2017-01-20T16:49:30Z</time>
      </trkpt>
      <trkpt lat="43.21594" lon="2.42568">
        <ele>96.9</ele>
        <time>2017-01-20T16:49:38Z</time>
      </trkpt>
      <trkpt lat="43.21595" lon="2.42542">
        <ele>96.3</ele>
        <time>2017-01-20T16:49:42Z</time>
      </trkpt>
      <trkpt lat="43.21595" lon="2.42531">
        <ele>96.1</ele>
        <time>2017-01-20T16:49:46Z</time>
      </trkpt>
      <trkpt lat="43.21595" lon="2.42531">
        <ele>96</ele>
        <time>2017-01-20T16:49:47Z</time>
      </trkpt>
      <trkpt lat="43.21595" lon="2.42531">
        <ele>96</ele>
        <time>2017-01-20T16:49:48Z</time>
      </trkpt>
      <trkpt lat="43.21595" lon="2.42531">
        <ele>96</ele>
        <time>2017-01-20T16:49:49Z</time>
      </trkpt>
      <trkpt lat="43.21595" lon="2.42531">
        <ele>96</ele>
        <time>2017-01-20T16:49:50Z</time>
      </trkpt>
      <trkpt lat="43.21595" lon="2.42531">
        <ele>96</ele>
        <time>2017-01-20T16:49:51Z</time>
      </trkpt>
      <trkpt lat="43.21595" lon="2.42531">
        <ele>96</ele>
        <time>2017-01-20T16:49:52Z</time>
      </trkpt>
      <trkpt lat="43.21595" lon="2.42531">
        <ele>96</ele>
        <time>2017-01-20T16:49:53Z</time>
      </trkpt>
      <trkpt lat="43.21595" lon="2.42527">
        <ele>96</ele>
        <time>2017-01-20T16:49:54Z</time>
      </trkpt>
      <trkpt lat="43.21594" lon="2.42511">
        <ele>95</ele>
        <time>2017-01-20T16:49:59Z</time>
      </trkpt>
      <trkpt lat="43.21596" lon="2.42371">
        <ele>96.6</ele>
        <time>2017-01-20T16:50:22Z</time>
      </trkpt>
      <trkpt lat="43.21603" lon="2.42293">
        <ele>96.5</ele>
        <time>2017-01-20T16:50:35Z</time>
      </trkpt>
      <trkpt lat="43.21606" lon="2.42279">
        <ele>96.1</ele>
        <time>2017-01-20T16:50:39Z</time>
      </trkpt>
      <trkpt lat="43.21608" lon="2.4227">
        <ele>96.5</ele>
        <time>2017-01-20T16:50:42Z</time>
      </trkpt>
      <trkpt lat="43.21612" lon="2.4226">
        <ele>96.2</ele>
        <time>2017-01-20T16:50:45Z</time>
      </trkpt>
      <trkpt lat="43.21612" lon="2.4226">
        <ele>95.9</ele>
        <time>2017-01-20T16:50:46Z</time>
      </trkpt>
      <trkpt lat="43.21612" lon="2.4226">
        <ele>95.7</ele>
        <time>2017-01-20T16:50:47Z</time>
      </trkpt>
      <trkpt lat="43.21612" lon="2.4226">
        <ele>95.6</ele>
        <time>2017-01-20T16:50:48Z</time>
      </trkpt>
      <trkpt lat="43.21612" lon="2.4226">
        <ele>95.7</ele>
        <time>2017-01-20T16:50:49Z</time>
      </trkpt>
      <trkpt lat="43.21612" lon="2.4226">
        <ele>95.7</ele>
        <time>2017-01-20T16:50:50Z</time>
      </trkpt>
      <trkpt lat="43.21612" lon="2.4226">
        <ele>95.8</ele>
        <time>2017-01-20T16:50:51Z</time>
      </trkpt>
      <trkpt lat="43.21612" lon="2.4226">
        <ele>95.6</ele>
        <time>2017-01-20T16:50:52Z</time>
      </trkpt>
      <trkpt lat="43.21612" lon="2.4226">
        <ele>95.5</ele>
        <time>2017-01-20T16:50:53Z</time>
      </trkpt>
      <trkpt lat="43.21612" lon="2.4226">
        <ele>95.4</ele>
        <time>2017-01-20T16:50:54Z</time>
      </trkpt>
      <trkpt lat="43.21612" lon="2.4226">
        <ele>95.5</ele>
        <time>2017-01-20T16:50:55Z</time>
      </trkpt>
      <trkpt lat="43.21612" lon="2.4226">
        <ele>95.6</ele>
        <time>2017-01-20T16:50:56Z</time>
      </trkpt>
      <trkpt lat="43.21612" lon="2.4226">
        <ele>95.7</ele>
        <time>2017-01-20T16:50:57Z</time>
      </trkpt>
      <trkpt lat="43.21612" lon="2.4226">
        <ele>95.8</ele>
        <time>2017-01-20T16:50:58Z</time>
      </trkpt>
      <trkpt lat="43.21612" lon="2.4226">
        <ele>95.8</ele>
        <time>2017-01-20T16:50:59Z</time>
      </trkpt>
      <trkpt lat="43.21612" lon="2.4226">
        <ele>95.8</ele>
        <time>2017-01-20T16:51:00Z</time>
      </trkpt>
      <trkpt lat="43.21612" lon="2.4226">
        <ele>95.9</ele>
        <time>2017-01-20T16:51:01Z</time>
      </trkpt>
      <trkpt lat="43.21612" lon="2.4226">
        <ele>95.9</ele>
        <time>2017-01-20T16:51:02Z</time>
      </trkpt>
      <trkpt lat="43.21612" lon="2.4226">
        <ele>95.9</ele>
        <time>2017-01-20T16:51:03Z</time>
      </trkpt>
      <trkpt lat="43.21612" lon="2.4226">
        <ele>95.9</ele>
        <time>2017-01-20T16:51:04Z</time>
      </trkpt>
      <trkpt lat="43.21612" lon="2.4226">
        <ele>95.9</ele>
        <time>2017-01-20T16:51:05Z</time>
      </trkpt>
      <trkpt lat="43.21612" lon="2.4226">
        <ele>95.9</ele>
        <time>2017-01-20T16:51:06Z</time>
      </trkpt>
      <trkpt lat="43.21612" lon="2.4226">
        <ele>95.9</ele>
        <time>2017-01-20T16:51:07Z</time>
      </trkpt>
      <trkpt lat="43.21612" lon="2.4226">
        <ele>95.9</ele>
        <time>2017-01-20T16:51:08Z</time>
      </trkpt>
      <trkpt lat="43.21612" lon="2.4226">
        <ele>95.9</ele>
        <time>2017-01-20T16:51:09Z</time>
      </trkpt>
      <trkpt lat="43.21612" lon="2.4226">
        <ele>95.9</ele>
        <time>2017-01-20T16:51:10Z</time>
      </trkpt>
      <trkpt lat="43.21612" lon="2.4226">
        <ele>95.9</ele>
        <time>2017-01-20T16:51:11Z</time>
      </trkpt>
      <trkpt lat="43.21612" lon="2.4226">
        <ele>95.9</ele>
        <time>2017-01-20T16:51:12Z</time>
      </trkpt>
      <trkpt lat="43.21612" lon="2.4226">
        <ele>95.7</ele>
        <time>2017-01-20T16:51:13Z</time>
      </trkpt>
      <trkpt lat="43.21612" lon="2.42254">
        <ele>95.6</ele>
        <time>2017-01-20T16:51:14Z</time>
      </trkpt>
      <trkpt lat="43.21611" lon="2.42254">
        <ele>95.5</ele>
        <time>2017-01-20T16:51:15Z</time>
      </trkpt>
      <trkpt lat="43.21611" lon="2.42254">
        <ele>95.4</ele>
        <time>2017-01-20T16:51:16Z</time>
      </trkpt>
      <trkpt lat="43.21611" lon="2.42254">
        <ele>95.3</ele>
        <time>2017-01-20T16:51:17Z</time>
      </trkpt>
      <trkpt lat="43.21611" lon="2.42254">
        <ele>95.3</ele>
        <time>2017-01-20T16:51:18Z</time>
      </trkpt>
      <trkpt lat="43.21616" lon="2.42251">
        <ele>95.4</ele>
        <time>2017-01-20T16:51:19Z</time>
      </trkpt>
      <trkpt lat="43.21618" lon="2.42248">
        <ele>95.6</ele>
        <time>2017-01-20T16:51:20Z</time>
      </trkpt>
      <trkpt lat="43.21638" lon="2.42221">
        <ele>95.9</ele>
        <time>2017-01-20T16:51:28Z</time>
      </trkpt>
      <trkpt lat="43.21642" lon="2.42218">
        <ele>95.9</ele>
        <time>2017-01-20T16:51:29Z</time>
      </trkpt>
      <trkpt lat="43.22032" lon="2.41917">
        <ele>96.3</ele>
        <time>2017-01-20T16:53:04Z</time>
      </trkpt>
      <trkpt lat="43.22036" lon="2.41913">
        <ele>96.4</ele>
        <time>2017-01-20T16:53:05Z</time>
      </trkpt>
      <trkpt lat="43.22081" lon="2.41865">
        <ele>97.1</ele>
        <time>2017-01-20T16:53:16Z</time>
      </trkpt>
      <trkpt lat="43.22088" lon="2.41855">
        <ele>97.3</ele>
        <time>2017-01-20T16:53:18Z</time>
      </trkpt>
      <trkpt lat="43.2211" lon="2.41816">
        <ele>97</ele>
        <time>2017-01-20T16:53:25Z</time>
      </trkpt>
      <trkpt lat="43.2232" lon="2.41511">
        <ele>96.1</ele>
        <time>2017-01-20T16:54:27Z</time>
      </trkpt>
      <trkpt lat="43.22323" lon="2.41506">
        <ele>96.3</ele>
        <time>2017-01-20T16:54:28Z</time>
      </trkpt>
      <trkpt lat="43.22402" lon="2.41386">
        <ele>98.2</ele>
        <time>2017-01-20T16:54:54Z</time>
      </trkpt>
      <trkpt lat="43.22416" lon="2.41373">
        <ele>98.4</ele>
        <time>2017-01-20T16:54:58Z</time>
      </trkpt>
      <trkpt lat="43.22506" lon="2.41302">
        <ele>98</ele>
        <time>2017-01-20T16:55:21Z</time>
      </trkpt>
      <trkpt lat="43.22618" lon="2.41238">
        <ele>97.9</ele>
        <time>2017-01-20T16:55:45Z</time>
      </trkpt>
      <trkpt lat="43.22623" lon="2.41235">
        <ele>98</ele>
        <time>2017-01-20T16:55:46Z</time>
      </trkpt>
      <trkpt lat="43.22748" lon="2.41193">
        <ele>98.9</ele>
        <time>2017-01-20T16:56:14Z</time>
      </trkpt>
      <trkpt lat="43.22804" lon="2.41186">
        <ele>98.7</ele>
        <time>2017-01-20T16:56:27Z</time>
      </trkpt>
      <trkpt lat="43.22821" lon="2.41187">
        <ele>100.2</ele>
        <time>2017-01-20T16:56:31Z</time>
      </trkpt>
      <trkpt lat="43.22863" lon="2.41193">
        <ele>99.8</ele>
        <time>2017-01-20T16:56:40Z</time>
      </trkpt>
      <trkpt lat="43.22882" lon="2.41199">
        <ele>99.8</ele>
        <time>2017-01-20T16:56:44Z</time>
      </trkpt>
      <trkpt lat="43.229" lon="2.41208">
        <ele>99.6</ele>
        <time>2017-01-20T16:56:49Z</time>
      </trkpt>
      <trkpt lat="43.22902" lon="2.4121">
        <ele>99.3</ele>
        <time>2017-01-20T16:56:50Z</time>
      </trkpt>
      <trkpt lat="43.22902" lon="2.4121">
        <ele>99.1</ele>
        <time>2017-01-20T16:56:52Z</time>
      </trkpt>
      <trkpt lat="43.22902" lon="2.4121">
        <ele>99.2</ele>
        <time>2017-01-20T16:56:53Z</time>
      </trkpt>
      <trkpt lat="43.22902" lon="2.4121">
        <ele>99.2</ele>
        <time>2017-01-20T16:56:54Z</time>
      </trkpt>
      <trkpt lat="43.22902" lon="2.4121">
        <ele>99.4</ele>
        <time>2017-01-20T16:56:55Z</time>
      </trkpt>
      <trkpt lat="43.22902" lon="2.4121">
        <ele>99.6</ele>
        <time>2017-01-20T16:56:56Z</time>
      </trkpt>
      <trkpt lat="43.22902" lon="2.4121">
        <ele>99.7</ele>
        <time>2017-01-20T16:56:57Z</time>
      </trkpt>
      <trkpt lat="43.22902" lon="2.4121">
        <ele>99.4</ele>
        <time>2017-01-20T16:56:58Z</time>
      </trkpt>
      <trkpt lat="43.22902" lon="2.4121">
        <ele>99.2</ele>
        <time>2017-01-20T16:56:59Z</time>
      </trkpt>
      <trkpt lat="43.22902" lon="2.4121">
        <ele>99</ele>
        <time>2017-01-20T16:57:00Z</time>
      </trkpt>
      <trkpt lat="43.22902" lon="2.4121">
        <ele>99.3</ele>
        <time>2017-01-20T16:57:01Z</time>
      </trkpt>
      <trkpt lat="43.22902" lon="2.4121">
        <ele>99.5</ele>
        <time>2017-01-20T16:57:02Z</time>
      </trkpt>
      <trkpt lat="43.22906" lon="2.41212">
        <ele>99.6</ele>
        <time>2017-01-20T16:57:03Z</time>
      </trkpt>
      <trkpt lat="43.22908" lon="2.41214">
        <ele>99.5</ele>
        <time>2017-01-20T16:57:04Z</time>
      </trkpt>
      <trkpt lat="43.22917" lon="2.41221">
        <ele>99.3</ele>
        <time>2017-01-20T16:57:09Z</time>
      </trkpt>
      <trkpt lat="43.22919" lon="2.41223">
        <ele>99.3</ele>
        <time>2017-01-20T16:57:10Z</time>
      </trkpt>
      <trkpt lat="43.22926" lon="2.4123">
        <ele>100.2</ele>
        <time>2017-01-20T16:57:16Z</time>
      </trkpt>
      <trkpt lat="43.22926" lon="2.4123">
        <ele>100.2</ele>
        <time>2017-01-20T16:57:17Z</time>
      </trkpt>
      <trkpt lat="43.22926" lon="2.4123">
        <ele>100.2</ele>
        <time>2017-01-20T16:57:18Z</time>
      </trkpt>
      <trkpt lat="43.22926" lon="2.4123">
        <ele>100.1</ele>
        <time>2017-01-20T16:57:19Z</time>
      </trkpt>
      <trkpt lat="43.22926" lon="2.4123">
        <ele>100.1</ele>
        <time>2017-01-20T16:57:20Z</time>
      </trkpt>
      <trkpt lat="43.22926" lon="2.4123">
        <ele>100.1</ele>
        <time>2017-01-20T16:57:21Z</time>
      </trkpt>
      <trkpt lat="43.22926" lon="2.4123">
        <ele>100.1</ele>
        <time>2017-01-20T16:57:22Z</time>
      </trkpt>
      <trkpt lat="43.22926" lon="2.4123">
        <ele>100.1</ele>
        <time>2017-01-20T16:57:23Z</time>
      </trkpt>
      <trkpt lat="43.22926" lon="2.4123">
        <ele>100.1</ele>
        <time>2017-01-20T16:57:24Z</time>
      </trkpt>
      <trkpt lat="43.22926" lon="2.4123">
        <ele>100.1</ele>
        <time>2017-01-20T16:57:25Z</time>
      </trkpt>
      <trkpt lat="43.22926" lon="2.4123">
        <ele>100.1</ele>
        <time>2017-01-20T16:57:26Z</time>
      </trkpt>
      <trkpt lat="43.22926" lon="2.4123">
        <ele>100.1</ele>
        <time>2017-01-20T16:57:27Z</time>
      </trkpt>
      <trkpt lat="43.22926" lon="2.4123">
        <ele>99.9</ele>
        <time>2017-01-20T16:57:28Z</time>
      </trkpt>
      <trkpt lat="43.22926" lon="2.4123">
        <ele>99.7</ele>
        <time>2017-01-20T16:57:29Z</time>
      </trkpt>
      <trkpt lat="43.22926" lon="2.4123">
        <ele>99.6</ele>
        <time>2017-01-20T16:57:30Z</time>
      </trkpt>
      <trkpt lat="43.22926" lon="2.4123">
        <ele>99.7</ele>
        <time>2017-01-20T16:57:31Z</time>
      </trkpt>
      <trkpt lat="43.22926" lon="2.4123">
        <ele>99.8</ele>
        <time>2017-01-20T16:57:32Z</time>
      </trkpt>
      <trkpt lat="43.22926" lon="2.4123">
        <ele>99.9</ele>
        <time>2017-01-20T16:57:33Z</time>
      </trkpt>
      <trkpt lat="43.22926" lon="2.4123">
        <ele>99.9</ele>
        <time>2017-01-20T16:57:34Z</time>
      </trkpt>
      <trkpt lat="43.22926" lon="2.4123">
        <ele>100</ele>
        <time>2017-01-20T16:57:35Z</time>
      </trkpt>
      <trkpt lat="43.22926" lon="2.4123">
        <ele>100</ele>
        <time>2017-01-20T16:57:36Z</time>
      </trkpt>
      <trkpt lat="43.22926" lon="2.4123">
        <ele>100</ele>
        <time>2017-01-20T16:57:37Z</time>
      </trkpt>
      <trkpt lat="43.22926" lon="2.4123">
        <ele>100</ele>
        <time>2017-01-20T16:57:38Z</time>
      </trkpt>
      <trkpt lat="43.22926" lon="2.4123">
        <ele>100.1</ele>
        <time>2017-01-20T16:57:39Z</time>
      </trkpt>
      <trkpt lat="43.22926" lon="2.4123">
        <ele>99.9</ele>
        <time>2017-01-20T16:57:40Z</time>
      </trkpt>
      <trkpt lat="43.22926" lon="2.4123">
        <ele>99.7</ele>
        <time>2017-01-20T16:57:41Z</time>
      </trkpt>
      <trkpt lat="43.22926" lon="2.4123">
        <ele>99.6</ele>
        <time>2017-01-20T16:57:42Z</time>
      </trkpt>
      <trkpt lat="43.22926" lon="2.4123">
        <ele>99.5</ele>
        <time>2017-01-20T16:57:43Z</time>
      </trkpt>
      <trkpt lat="43.22926" lon="2.4123">
        <ele>99.5</ele>
        <time>2017-01-20T16:57:44Z</time>
      </trkpt>
      <trkpt lat="43.22926" lon="2.4123">
        <ele>99.4</ele>
        <time>2017-01-20T16:57:45Z</time>
      </trkpt>
      <trkpt lat="43.22926" lon="2.4123">
        <ele>99.2</ele>
        <time>2017-01-20T16:57:46Z</time>
      </trkpt>
      <trkpt lat="43.22926" lon="2.4123">
        <ele>99</ele>
        <time>2017-01-20T16:57:47Z</time>
      </trkpt>
      <trkpt lat="43.22926" lon="2.4123">
        <ele>98.8</ele>
        <time>2017-01-20T16:57:48Z</time>
      </trkpt>
      <trkpt lat="43.22926" lon="2.4123">
        <ele>98.9</ele>
        <time>2017-01-20T16:57:49Z</time>
      </trkpt>
      <trkpt lat="43.22926" lon="2.4123">
        <ele>99</ele>
        <time>2017-01-20T16:57:50Z</time>
      </trkpt>
      <trkpt lat="43.22926" lon="2.4123">
        <ele>99.1</ele>
        <time>2017-01-20T16:57:51Z</time>
      </trkpt>
      <trkpt lat="43.22926" lon="2.4123">
        <ele>98.9</ele>
        <time>2017-01-20T16:57:52Z</time>
      </trkpt>
      <trkpt lat="43.22926" lon="2.4123">
        <ele>98.8</ele>
        <time>2017-01-20T16:57:53Z</time>
      </trkpt>
      <trkpt lat="43.22926" lon="2.4123">
        <ele>98.7</ele>
        <time>2017-01-20T16:57:54Z</time>
      </trkpt>
      <trkpt lat="43.22926" lon="2.4123">
        <ele>98.4</ele>
        <time>2017-01-20T16:57:55Z</time>
      </trkpt>
      <trkpt lat="43.22926" lon="2.4123">
        <ele>98.2</ele>
        <time>2017-01-20T16:57:56Z</time>
      </trkpt>
      <trkpt lat="43.22926" lon="2.4123">
        <ele>98.1</ele>
        <time>2017-01-20T16:57:57Z</time>
      </trkpt>
      <trkpt lat="43.22926" lon="2.4123">
        <ele>98.2</ele>
        <time>2017-01-20T16:57:58Z</time>
      </trkpt>
      <trkpt lat="43.22926" lon="2.4123">
        <ele>98.2</ele>
        <time>2017-01-20T16:57:59Z</time>
      </trkpt>
      <trkpt lat="43.22926" lon="2.4123">
        <ele>98.3</ele>
        <time>2017-01-20T16:58:00Z</time>
      </trkpt>
      <trkpt lat="43.22926" lon="2.4123">
        <ele>98.1</ele>
        <time>2017-01-20T16:58:01Z</time>
      </trkpt>
      <trkpt lat="43.22926" lon="2.4123">
        <ele>98</ele>
        <time>2017-01-20T16:58:02Z</time>
      </trkpt>
      <trkpt lat="43.22926" lon="2.4123">
        <ele>97.9</ele>
        <time>2017-01-20T16:58:03Z</time>
      </trkpt>
      <trkpt lat="43.22926" lon="2.4123">
        <ele>97.8</ele>
        <time>2017-01-20T16:58:04Z</time>
      </trkpt>
      <trkpt lat="43.22926" lon="2.4123">
        <ele>97.8</ele>
        <time>2017-01-20T16:58:05Z</time>
      </trkpt>
      <trkpt lat="43.22926" lon="2.4123">
        <ele>97.7</ele>
        <time>2017-01-20T16:58:06Z</time>
      </trkpt>
      <trkpt lat="43.22926" lon="2.4123">
        <ele>97.7</ele>
        <time>2017-01-20T16:58:07Z</time>
      </trkpt>
      <trkpt lat="43.22926" lon="2.4123">
        <ele>97.7</ele>
        <time>2017-01-20T16:58:08Z</time>
      </trkpt>
      <trkpt lat="43.22926" lon="2.4123">
        <ele>97.7</ele>
        <time>2017-01-20T16:58:09Z</time>
      </trkpt>
      <trkpt lat="43.22926" lon="2.4123">
        <ele>97.4</ele>
        <time>2017-01-20T16:58:10Z</time>
      </trkpt>
      <trkpt lat="43.22926" lon="2.4123">
        <ele>97.3</ele>
        <time>2017-01-20T16:58:11Z</time>
      </trkpt>
      <trkpt lat="43.22926" lon="2.4123">
        <ele>97.1</ele>
        <time>2017-01-20T16:58:12Z</time>
      </trkpt>
      <trkpt lat="43.22926" lon="2.4123">
        <ele>97.5</ele>
        <time>2017-01-20T16:58:13Z</time>
      </trkpt>
      <trkpt lat="43.22926" lon="2.4123">
        <ele>97.7</ele>
        <time>2017-01-20T16:58:14Z</time>
      </trkpt>
      <trkpt lat="43.22926" lon="2.4123">
        <ele>97.9</ele>
        <time>2017-01-20T16:58:15Z</time>
      </trkpt>
      <trkpt lat="43.22926" lon="2.4123">
        <ele>97.8</ele>
        <time>2017-01-20T16:58:16Z</time>
      </trkpt>
      <trkpt lat="43.22926" lon="2.4123">
        <ele>97.8</ele>
        <time>2017-01-20T16:58:17Z</time>
      </trkpt>
      <trkpt lat="43.22926" lon="2.4123">
        <ele>97.7</ele>
        <time>2017-01-20T16:58:18Z</time>
      </trkpt>
      <trkpt lat="43.22926" lon="2.4123">
        <ele>97.7</ele>
        <time>2017-01-20T16:58:19Z</time>
      </trkpt>
      <trkpt lat="43.22926" lon="2.4123">
        <ele>97.7</ele>
        <time>2017-01-20T16:58:20Z</time>
      </trkpt>
      <trkpt lat="43.22926" lon="2.4123">
        <ele>97.7</ele>
        <time>2017-01-20T16:58:21Z</time>
      </trkpt>
      <trkpt lat="43.22926" lon="2.4123">
        <ele>97.8</ele>
        <time>2017-01-20T16:58:22Z</time>
      </trkpt>
      <trkpt lat="43.22926" lon="2.4123">
        <ele>98</ele>
        <time>2017-01-20T16:58:23Z</time>
      </trkpt>
      <trkpt lat="43.22926" lon="2.4123">
        <ele>98.1</ele>
        <time>2017-01-20T16:58:24Z</time>
      </trkpt>
      <trkpt lat="43.22926" lon="2.4123">
        <ele>98.2</ele>
        <time>2017-01-20T16:58:25Z</time>
      </trkpt>
      <trkpt lat="43.22926" lon="2.4123">
        <ele>98.2</ele>
        <time>2017-01-20T16:58:26Z</time>
      </trkpt>
      <trkpt lat="43.22926" lon="2.4123">
        <ele>98.3</ele>
        <time>2017-01-20T16:58:27Z</time>
      </trkpt>
      <trkpt lat="43.22926" lon="2.4123">
        <ele>98.1</ele>
        <time>2017-01-20T16:58:28Z</time>
      </trkpt>
      <trkpt lat="43.22926" lon="2.4123">
        <ele>98</ele>
        <time>2017-01-20T16:58:29Z</time>
      </trkpt>
      <trkpt lat="43.22926" lon="2.4123">
        <ele>97.9</ele>
        <time>2017-01-20T16:58:30Z</time>
      </trkpt>
      <trkpt lat="43.22926" lon="2.4123">
        <ele>97.8</ele>
        <time>2017-01-20T16:58:31Z</time>
      </trkpt>
      <trkpt lat="43.22926" lon="2.4123">
        <ele>97.8</ele>
        <time>2017-01-20T16:58:32Z</time>
      </trkpt>
      <trkpt lat="43.22926" lon="2.4123">
        <ele>97.7</ele>
        <time>2017-01-20T16:58:33Z</time>
      </trkpt>
      <trkpt lat="43.22926" lon="2.4123">
        <ele>97.5</ele>
        <time>2017-01-20T16:58:34Z</time>
      </trkpt>
      <trkpt lat="43.22926" lon="2.4123">
        <ele>97.3</ele>
        <time>2017-01-20T16:58:35Z</time>
      </trkpt>
      <trkpt lat="43.22926" lon="2.4123">
        <ele>97.2</ele>
        <time>2017-01-20T16:58:36Z</time>
      </trkpt>
      <trkpt lat="43.22926" lon="2.4123">
        <ele>97.7</ele>
        <time>2017-01-20T16:58:37Z</time>
      </trkpt>
      <trkpt lat="43.22926" lon="2.4123">
        <ele>98.1</ele>
        <time>2017-01-20T16:58:38Z</time>
      </trkpt>
      <trkpt lat="43.22926" lon="2.4123">
        <ele>98.4</ele>
        <time>2017-01-20T16:58:39Z</time>
      </trkpt>
      <trkpt lat="43.22926" lon="2.4123">
        <ele>98</ele>
        <time>2017-01-20T16:58:40Z</time>
      </trkpt>
      <trkpt lat="43.22926" lon="2.4123">
        <ele>97.7</ele>
        <time>2017-01-20T16:58:41Z</time>
      </trkpt>
      <trkpt lat="43.22926" lon="2.4123">
        <ele>97.4</ele>
        <time>2017-01-20T16:58:42Z</time>
      </trkpt>
      <trkpt lat="43.22926" lon="2.4123">
        <ele>97.5</ele>
        <time>2017-01-20T16:58:43Z</time>
      </trkpt>
      <trkpt lat="43.22926" lon="2.4123">
        <ele>97.5</ele>
        <time>2017-01-20T16:58:44Z</time>
      </trkpt>
      <trkpt lat="43.22926" lon="2.4123">
        <ele>97.5</ele>
        <time>2017-01-20T16:58:45Z</time>
      </trkpt>
      <trkpt lat="43.22926" lon="2.4123">
        <ele>97.3</ele>
        <time>2017-01-20T16:58:46Z</time>
      </trkpt>
      <trkpt lat="43.22926" lon="2.4123">
        <ele>97.2</ele>
        <time>2017-01-20T16:58:47Z</time>
      </trkpt>
      <trkpt lat="43.22926" lon="2.4123">
        <ele>97.1</ele>
        <time>2017-01-20T16:58:48Z</time>
      </trkpt>
      <trkpt lat="43.22926" lon="2.4123">
        <ele>97.2</ele>
        <time>2017-01-20T16:58:49Z</time>
      </trkpt>
      <trkpt lat="43.22926" lon="2.4123">
        <ele>97.3</ele>
        <time>2017-01-20T16:58:50Z</time>
      </trkpt>
      <trkpt lat="43.22926" lon="2.4123">
        <ele>97.4</ele>
        <time>2017-01-20T16:58:51Z</time>
      </trkpt>
      <trkpt lat="43.22926" lon="2.4123">
        <ele>97.2</ele>
        <time>2017-01-20T16:58:52Z</time>
      </trkpt>
      <trkpt lat="43.22926" lon="2.4123">
        <ele>97.1</ele>
        <time>2017-01-20T16:58:53Z</time>
      </trkpt>
      <trkpt lat="43.22926" lon="2.4123">
        <ele>97</ele>
        <time>2017-01-20T16:58:54Z</time>
      </trkpt>
      <trkpt lat="43.22926" lon="2.4123">
        <ele>97.2</ele>
        <time>2017-01-20T16:58:55Z</time>
      </trkpt>
      <trkpt lat="43.22926" lon="2.4123">
        <ele>97.3</ele>
        <time>2017-01-20T16:58:56Z</time>
      </trkpt>
      <trkpt lat="43.22926" lon="2.4123">
        <ele>97.4</ele>
        <time>2017-01-20T16:58:57Z</time>
      </trkpt>
      <trkpt lat="43.22926" lon="2.4123">
        <ele>97.6</ele>
        <time>2017-01-20T16:58:58Z</time>
      </trkpt>
      <trkpt lat="43.22926" lon="2.4123">
        <ele>97.8</ele>
        <time>2017-01-20T16:58:59Z</time>
      </trkpt>
      <trkpt lat="43.22926" lon="2.4123">
        <ele>98</ele>
        <time>2017-01-20T16:59:00Z</time>
      </trkpt>
      <trkpt lat="43.22926" lon="2.4123">
        <ele>99.1</ele>
        <time>2017-01-20T16:59:01Z</time>
      </trkpt>
      <trkpt lat="43.22926" lon="2.4123">
        <ele>100</ele>
        <time>2017-01-20T16:59:02Z</time>
      </trkpt>
      <trkpt lat="43.22926" lon="2.4123">
        <ele>100.6</ele>
        <time>2017-01-20T16:59:03Z</time>
      </trkpt>
      <trkpt lat="43.22926" lon="2.4123">
        <ele>100.5</ele>
        <time>2017-01-20T16:59:04Z</time>
      </trkpt>
      <trkpt lat="43.22926" lon="2.4123">
        <ele>100.4</ele>
        <time>2017-01-20T16:59:05Z</time>
      </trkpt>
      <trkpt lat="43.22926" lon="2.4123">
        <ele>100.3</ele>
        <time>2017-01-20T16:59:06Z</time>
      </trkpt>
      <trkpt lat="43.22926" lon="2.4123">
        <ele>100.3</ele>
        <time>2017-01-20T16:59:07Z</time>
      </trkpt>
      <trkpt lat="43.22926" lon="2.4123">
        <ele>100.2</ele>
        <time>2017-01-20T16:59:08Z</time>
      </trkpt>
      <trkpt lat="43.22926" lon="2.4123">
        <ele>100.2</ele>
        <time>2017-01-20T16:59:09Z</time>
      </trkpt>
      <trkpt lat="43.22926" lon="2.4123">
        <ele>100.2</ele>
        <time>2017-01-20T16:59:10Z</time>
      </trkpt>
      <trkpt lat="43.22926" lon="2.4123">
        <ele>100.1</ele>
        <time>2017-01-20T16:59:11Z</time>
      </trkpt>
      <trkpt lat="43.22926" lon="2.4123">
        <ele>100.1</ele>
        <time>2017-01-20T16:59:12Z</time>
      </trkpt>
      <trkpt lat="43.22926" lon="2.4123">
        <ele>100.1</ele>
        <time>2017-01-20T16:59:13Z</time>
      </trkpt>
      <trkpt lat="43.22926" lon="2.4123">
        <ele>100.1</ele>
        <time>2017-01-20T16:59:14Z</time>
      </trkpt>
      <trkpt lat="43.22926" lon="2.4123">
        <ele>100.1</ele>
        <time>2017-01-20T16:59:15Z</time>
      </trkpt>
      <trkpt lat="43.22931" lon="2.41229">
        <ele>99.7</ele>
        <time>2017-01-20T16:59:16Z</time>
      </trkpt>
      <trkpt lat="43.22933" lon="2.4123">
        <ele>99.4</ele>
        <time>2017-01-20T16:59:17Z</time>
      </trkpt>
      <trkpt lat="43.22933" lon="2.4123">
        <ele>99.1</ele>
        <time>2017-01-20T16:59:18Z</time>
      </trkpt>
      <trkpt lat="43.22934" lon="2.41233">
        <ele>99.4</ele>
        <time>2017-01-20T16:59:19Z</time>
      </trkpt>
      <trkpt lat="43.22949" lon="2.41251">
        <ele>99.5</ele>
        <time>2017-01-20T16:59:27Z</time>
      </trkpt>
      <trkpt lat="43.22949" lon="2.41251">
        <ele>99.7</ele>
        <time>2017-01-20T16:59:28Z</time>
      </trkpt>
      <trkpt lat="43.22949" lon="2.41251">
        <ele>99.8</ele>
        <time>2017-01-20T16:59:29Z</time>
      </trkpt>
      <trkpt lat="43.2295" lon="2.41247">
        <ele>99.9</ele>
        <time>2017-01-20T16:59:30Z</time>
      </trkpt>
      <trkpt lat="43.22948" lon="2.41245">
        <ele>99.7</ele>
        <time>2017-01-20T16:59:31Z</time>
      </trkpt>
      <trkpt lat="43.22938" lon="2.41235">
        <ele>99.4</ele>
        <time>2017-01-20T16:59:35Z</time>
      </trkpt>
      <trkpt lat="43.22936" lon="2.41233">
        <ele>99.4</ele>
        <time>2017-01-20T16:59:36Z</time>
      </trkpt>
      <trkpt lat="43.22936" lon="2.41233">
        <ele>99.3</ele>
        <time>2017-01-20T16:59:37Z</time>
      </trkpt>
      <trkpt lat="43.22936" lon="2.41233">
        <ele>99.3</ele>
        <time>2017-01-20T16:59:38Z</time>
      </trkpt>
      <trkpt lat="43.22936" lon="2.41233">
        <ele>99.3</ele>
        <time>2017-01-20T16:59:39Z</time>
      </trkpt>
      <trkpt lat="43.22936" lon="2.41233">
        <ele>99.5</ele>
        <time>2017-01-20T16:59:40Z</time>
      </trkpt>
      <trkpt lat="43.22936" lon="2.41233">
        <ele>99.7</ele>
        <time>2017-01-20T16:59:41Z</time>
      </trkpt>
      <trkpt lat="43.22936" lon="2.41233">
        <ele>99.8</ele>
        <time>2017-01-20T16:59:42Z</time>
      </trkpt>
      <trkpt lat="43.22936" lon="2.41233">
        <ele>99.6</ele>
        <time>2017-01-20T16:59:43Z</time>
      </trkpt>
      <trkpt lat="43.22936" lon="2.41233">
        <ele>99.5</ele>
        <time>2017-01-20T16:59:44Z</time>
      </trkpt>
      <trkpt lat="43.22936" lon="2.41233">
        <ele>99.5</ele>
        <time>2017-01-20T16:59:45Z</time>
      </trkpt>
      <trkpt lat="43.22936" lon="2.41233">
        <ele>99.2</ele>
        <time>2017-01-20T16:59:46Z</time>
      </trkpt>
      <trkpt lat="43.22935" lon="2.41232">
        <ele>99</ele>
        <time>2017-01-20T16:59:47Z</time>
      </trkpt>
      <trkpt lat="43.22935" lon="2.41232">
        <ele>98.9</ele>
        <time>2017-01-20T16:59:48Z</time>
      </trkpt>
      <trkpt lat="43.22935" lon="2.41236">
        <ele>99.8</ele>
        <time>2017-01-20T17:00:19Z</time>
      </trkpt>
      <trkpt lat="43.22934" lon="2.41236">
        <ele>99.7</ele>
        <time>2017-01-20T17:00:20Z</time>
      </trkpt>
      <trkpt lat="43.22934" lon="2.41237">
        <ele>99.6</ele>
        <time>2017-01-20T17:00:21Z</time>
      </trkpt>
      <trkpt lat="43.22934" lon="2.41238">
        <ele>99.9</ele>
        <time>2017-01-20T17:00:22Z</time>
      </trkpt>
      <trkpt lat="43.22934" lon="2.4124">
        <ele>100.2</ele>
        <time>2017-01-20T17:00:23Z</time>
      </trkpt>
      <trkpt lat="43.22936" lon="2.41242">
        <ele>100.4</ele>
        <time>2017-01-20T17:00:24Z</time>
      </trkpt>
      <trkpt lat="43.22944" lon="2.41251">
        <ele>100.2</ele>
        <time>2017-01-20T17:00:27Z</time>
      </trkpt>
      <trkpt lat="43.2295" lon="2.41258">
        <ele>100.2</ele>
        <time>2017-01-20T17:00:29Z</time>
      </trkpt>
      <trkpt lat="43.22953" lon="2.41262">
        <ele>100.1</ele>
        <time>2017-01-20T17:00:30Z</time>
      </trkpt>
      <trkpt lat="43.22967" lon="2.4129">
        <ele>100.5</ele>
        <time>2017-01-20T17:00:35Z</time>
      </trkpt>
      <trkpt lat="43.23082" lon="2.41515">
        <ele>101.5</ele>
        <time>2017-01-20T17:01:13Z</time>
      </trkpt>
      <trkpt lat="43.23086" lon="2.4152">
        <ele>101.6</ele>
        <time>2017-01-20T17:01:14Z</time>
      </trkpt>
      <trkpt lat="43.23102" lon="2.41536">
        <ele>101.7</ele>
        <time>2017-01-20T17:01:18Z</time>
      </trkpt>
      <trkpt lat="43.23111" lon="2.41542">
        <ele>101.4</ele>
        <time>2017-01-20T17:01:20Z</time>
      </trkpt>
      <trkpt lat="43.23116" lon="2.41544">
        <ele>101.2</ele>
        <time>2017-01-20T17:01:21Z</time>
      </trkpt>
      <trkpt lat="43.23151" lon="2.41552">
        <ele>101.5</ele>
        <time>2017-01-20T17:01:28Z</time>
      </trkpt>
      <trkpt lat="43.23179" lon="2.41553">
        <ele>101.2</ele>
        <time>2017-01-20T17:01:33Z</time>
      </trkpt>
      <trkpt lat="43.23185" lon="2.41552">
        <ele>101.4</ele>
        <time>2017-01-20T17:01:34Z</time>
      </trkpt>
      <trkpt lat="43.23243" lon="2.41542">
        <ele>101.5</ele>
        <time>2017-01-20T17:01:45Z</time>
      </trkpt>
      <trkpt lat="43.23264" lon="2.41535">
        <ele>101.3</ele>
        <time>2017-01-20T17:01:49Z</time>
      </trkpt>
      <trkpt lat="43.23306" lon="2.41516">
        <ele>101.6</ele>
        <time>2017-01-20T17:01:57Z</time>
      </trkpt>
      <trkpt lat="43.23326" lon="2.41504">
        <ele>101.7</ele>
        <time>2017-01-20T17:02:01Z</time>
      </trkpt>
      <trkpt lat="43.23379" lon="2.41465">
        <ele>101.8</ele>
        <time>2017-01-20T17:02:12Z</time>
      </trkpt>
      <trkpt lat="43.23461" lon="2.41392">
        <ele>102</ele>
        <time>2017-01-20T17:02:31Z</time>
      </trkpt>
      <trkpt lat="43.23465" lon="2.41388">
        <ele>101.9</ele>
        <time>2017-01-20T17:02:32Z</time>
      </trkpt>
      <trkpt lat="43.23836" lon="2.41093">
        <ele>103</ele>
        <time>2017-01-20T17:03:55Z</time>
      </trkpt>
      <trkpt lat="43.2384" lon="2.41088">
        <ele>102.9</ele>
        <time>2017-01-20T17:03:56Z</time>
      </trkpt>
      <trkpt lat="43.23865" lon="2.41058">
        <ele>102.6</ele>
        <time>2017-01-20T17:04:03Z</time>
      </trkpt>
      <trkpt lat="43.23879" lon="2.41035">
        <ele>102.6</ele>
        <time>2017-01-20T17:04:08Z</time>
      </trkpt>
      <trkpt lat="43.24044" lon="2.40766">
        <ele>103.2</ele>
        <time>2017-01-20T17:04:59Z</time>
      </trkpt>
      <trkpt lat="43.24048" lon="2.40761">
        <ele>103.5</ele>
        <time>2017-01-20T17:05:00Z</time>
      </trkpt>
      <trkpt lat="43.24107" lon="2.40707">
        <ele>102.8</ele>
        <time>2017-01-20T17:05:12Z</time>
      </trkpt>
      <trkpt lat="43.24221" lon="2.40617">
        <ele>101.9</ele>
        <time>2017-01-20T17:05:38Z</time>
      </trkpt>
      <trkpt lat="43.24224" lon="2.40612">
        <ele>101.9</ele>
        <time>2017-01-20T17:05:39Z</time>
      </trkpt>
      <trkpt lat="43.24235" lon="2.40592">
        <ele>102.2</ele>
        <time>2017-01-20T17:05:43Z</time>
      </trkpt>
      <trkpt lat="43.24242" lon="2.40575">
        <ele>101.9</ele>
        <time>2017-01-20T17:05:46Z</time>
      </trkpt>
      <trkpt lat="43.24248" lon="2.40555">
        <ele>102</ele>
        <time>2017-01-20T17:05:49Z</time>
      </trkpt>
      <trkpt lat="43.24253" lon="2.40535">
        <ele>102.8</ele>
        <time>2017-01-20T17:05:52Z</time>
      </trkpt>
      <trkpt lat="43.2426" lon="2.40488">
        <ele>103.1</ele>
        <time>2017-01-20T17:05:59Z</time>
      </trkpt>
      <trkpt lat="43.24262" lon="2.40468">
        <ele>102.9</ele>
        <time>2017-01-20T17:06:02Z</time>
      </trkpt>
      <trkpt lat="43.24262" lon="2.40461">
        <ele>102.9</ele>
        <time>2017-01-20T17:06:03Z</time>
      </trkpt>
      <trkpt lat="43.24269" lon="2.40297">
        <ele>102.8</ele>
        <time>2017-01-20T17:06:26Z</time>
      </trkpt>
      <trkpt lat="43.24273" lon="2.40275">
        <ele>102.7</ele>
        <time>2017-01-20T17:06:29Z</time>
      </trkpt>
      <trkpt lat="43.24381" lon="2.39694">
        <ele>103.2</ele>
        <time>2017-01-20T17:07:54Z</time>
      </trkpt>
      <trkpt lat="43.24382" lon="2.39687">
        <ele>103.5</ele>
        <time>2017-01-20T17:07:55Z</time>
      </trkpt>
      <trkpt lat="43.24381" lon="2.39638">
        <ele>103.8</ele>
        <time>2017-01-20T17:08:02Z</time>
      </trkpt>
      <trkpt lat="43.24379" lon="2.39624">
        <ele>103.4</ele>
        <time>2017-01-20T17:08:04Z</time>
      </trkpt>
      <trkpt lat="43.24375" lon="2.39596">
        <ele>103.6</ele>
        <time>2017-01-20T17:08:08Z</time>
      </trkpt>
      <trkpt lat="43.24373" lon="2.39589">
        <ele>103.7</ele>
        <time>2017-01-20T17:08:09Z</time>
      </trkpt>
      <trkpt lat="43.24371" lon="2.39583">
        <ele>103.2</ele>
        <time>2017-01-20T17:08:10Z</time>
      </trkpt>
      <trkpt lat="43.24368" lon="2.39577">
        <ele>102.9</ele>
        <time>2017-01-20T17:08:11Z</time>
      </trkpt>
      <trkpt lat="43.24365" lon="2.39571">
        <ele>102.6</ele>
        <time>2017-01-20T17:08:12Z</time>
      </trkpt>
      <trkpt lat="43.24357" lon="2.39557">
        <ele>102.6</ele>
        <time>2017-01-20T17:08:14Z</time>
      </trkpt>
      <trkpt lat="43.24344" lon="2.39538">
        <ele>103.3</ele>
        <time>2017-01-20T17:08:17Z</time>
      </trkpt>
      <trkpt lat="43.24263" lon="2.39422">
        <ele>102.8</ele>
        <time>2017-01-20T17:08:41Z</time>
      </trkpt>
      <trkpt lat="43.24261" lon="2.39416">
        <ele>102.8</ele>
        <time>2017-01-20T17:08:42Z</time>
      </trkpt>
      <trkpt lat="43.24258" lon="2.39403">
        <ele>103</ele>
        <time>2017-01-20T17:08:44Z</time>
      </trkpt>
      <trkpt lat="43.2422" lon="2.39156">
        <ele>102.8</ele>
        <time>2017-01-20T17:09:21Z</time>
      </trkpt>
      <trkpt lat="43.24219" lon="2.39149">
        <ele>102.8</ele>
        <time>2017-01-20T17:09:22Z</time>
      </trkpt>
      <trkpt lat="43.24222" lon="2.39107">
        <ele>102.4</ele>
        <time>2017-01-20T17:09:28Z</time>
      </trkpt>
      <trkpt lat="43.24246" lon="2.38957">
        <ele>102.9</ele>
        <time>2017-01-20T17:09:50Z</time>
      </trkpt>
      <trkpt lat="43.2425" lon="2.38944">
        <ele>102.9</ele>
        <time>2017-01-20T17:09:52Z</time>
      </trkpt>
      <trkpt lat="43.24258" lon="2.38926">
        <ele>102.7</ele>
        <time>2017-01-20T17:09:55Z</time>
      </trkpt>
      <trkpt lat="43.24347" lon="2.3874">
        <ele>102.2</ele>
        <time>2017-01-20T17:10:27Z</time>
      </trkpt>
      <trkpt lat="43.24349" lon="2.38733">
        <ele>102.3</ele>
        <time>2017-01-20T17:10:28Z</time>
      </trkpt>
      <trkpt lat="43.24354" lon="2.38706">
        <ele>102.5</ele>
        <time>2017-01-20T17:10:32Z</time>
      </trkpt>
      <trkpt lat="43.24355" lon="2.38688">
        <ele>102.2</ele>
        <time>2017-01-20T17:10:35Z</time>
      </trkpt>
      <trkpt lat="43.24352" lon="2.38631">
        <ele>103.3</ele>
        <time>2017-01-20T17:10:43Z</time>
      </trkpt>
      <trkpt lat="43.24344" lon="2.38454">
        <ele>102.1</ele>
        <time>2017-01-20T17:11:07Z</time>
      </trkpt>
      <trkpt lat="43.24342" lon="2.38447">
        <ele>102.2</ele>
        <time>2017-01-20T17:11:08Z</time>
      </trkpt>
      <trkpt lat="43.24335" lon="2.38419">
        <ele>102.5</ele>
        <time>2017-01-20T17:11:12Z</time>
      </trkpt>
      <trkpt lat="43.24327" lon="2.384">
        <ele>103.5</ele>
        <time>2017-01-20T17:11:15Z</time>
      </trkpt>
      <trkpt lat="43.24284" lon="2.38315">
        <ele>102.3</ele>
        <time>2017-01-20T17:11:29Z</time>
      </trkpt>
      <trkpt lat="43.24281" lon="2.38309">
        <ele>102.2</ele>
        <time>2017-01-20T17:11:30Z</time>
      </trkpt>
      <trkpt lat="43.24202" lon="2.38174">
        <ele>103</ele>
        <time>2017-01-20T17:12:02Z</time>
      </trkpt>
      <trkpt lat="43.24095" lon="2.3802">
        <ele>102.3</ele>
        <time>2017-01-20T17:12:34Z</time>
      </trkpt>
      <trkpt lat="43.24094" lon="2.38014">
        <ele>102.2</ele>
        <time>2017-01-20T17:12:35Z</time>
      </trkpt>
      <trkpt lat="43.24091" lon="2.38001">
        <ele>101.9</ele>
        <time>2017-01-20T17:12:38Z</time>
      </trkpt>
      <trkpt lat="43.24089" lon="2.37998">
        <ele>101.9</ele>
        <time>2017-01-20T17:12:39Z</time>
      </trkpt>
      <trkpt lat="43.24086" lon="2.37996">
        <ele>101.9</ele>
        <time>2017-01-20T17:12:40Z</time>
      </trkpt>
      <trkpt lat="43.2408" lon="2.37988">
        <ele>101.8</ele>
        <time>2017-01-20T17:12:42Z</time>
      </trkpt>
      <trkpt lat="43.2407" lon="2.37971">
        <ele>102.3</ele>
        <time>2017-01-20T17:12:46Z</time>
      </trkpt>
      <trkpt lat="43.23817" lon="2.37449">
        <ele>104.2</ele>
        <time>2017-01-20T17:14:13Z</time>
      </trkpt>
      <trkpt lat="43.23816" lon="2.37445">
        <ele>104.4</ele>
        <time>2017-01-20T17:14:14Z</time>
      </trkpt>
      <trkpt lat="43.23793" lon="2.37379">
        <ele>109.5</ele>
        <time>2017-01-20T17:14:37Z</time>
      </trkpt>
      <trkpt lat="43.23791" lon="2.37376">
        <ele>109.5</ele>
        <time>2017-01-20T17:14:38Z</time>
      </trkpt>
      <trkpt lat="43.23753" lon="2.37297">
        <ele>110.9</ele>
        <time>2017-01-20T17:14:59Z</time>
      </trkpt>
      <trkpt lat="43.2375" lon="2.37294">
        <ele>110.9</ele>
        <time>2017-01-20T17:15:00Z</time>
      </trkpt>
      <trkpt lat="43.2372" lon="2.37264">
        <ele>111.5</ele>
        <time>2017-01-20T17:15:11Z</time>
      </trkpt>
      <trkpt lat="43.23716" lon="2.37262">
        <ele>111.5</ele>
        <time>2017-01-20T17:15:12Z</time>
      </trkpt>
      <trkpt lat="43.23706" lon="2.37256">
        <ele>111.2</ele>
        <time>2017-01-20T17:15:15Z</time>
      </trkpt>
      <trkpt lat="43.23702" lon="2.37255">
        <ele>111.5</ele>
        <time>2017-01-20T17:15:16Z</time>
      </trkpt>
      <trkpt lat="43.23683" lon="2.37251">
        <ele>111.8</ele>
        <time>2017-01-20T17:15:21Z</time>
      </trkpt>
      <trkpt lat="43.23675" lon="2.37252">
        <ele>111.8</ele>
        <time>2017-01-20T17:15:23Z</time>
      </trkpt>
      <trkpt lat="43.2366" lon="2.37256">
        <ele>111.3</ele>
        <time>2017-01-20T17:15:27Z</time>
      </trkpt>
      <trkpt lat="43.23652" lon="2.37259">
        <ele>111.8</ele>
        <time>2017-01-20T17:15:29Z</time>
      </trkpt>
      <trkpt lat="43.2324" lon="2.37444">
        <ele>113.1</ele>
        <time>2017-01-20T17:17:11Z</time>
      </trkpt>
      <trkpt lat="43.2324" lon="2.37444">
        <ele>113.4</ele>
        <time>2017-01-20T17:17:12Z</time>
      </trkpt>
      <trkpt lat="43.2324" lon="2.37444">
        <ele>113.6</ele>
        <time>2017-01-20T17:17:13Z</time>
      </trkpt>
      <trkpt lat="43.2324" lon="2.37444">
        <ele>113.7</ele>
        <time>2017-01-20T17:17:14Z</time>
      </trkpt>
      <trkpt lat="43.2324" lon="2.37444">
        <ele>113.9</ele>
        <time>2017-01-20T17:17:15Z</time>
      </trkpt>
      <trkpt lat="43.2324" lon="2.37444">
        <ele>113.7</ele>
        <time>2017-01-20T17:17:16Z</time>
      </trkpt>
      <trkpt lat="43.2324" lon="2.37444">
        <ele>113.7</ele>
        <time>2017-01-20T17:17:17Z</time>
      </trkpt>
      <trkpt lat="43.2324" lon="2.37444">
        <ele>113.6</ele>
        <time>2017-01-20T17:17:18Z</time>
      </trkpt>
      <trkpt lat="43.2324" lon="2.37444">
        <ele>114</ele>
        <time>2017-01-20T17:17:19Z</time>
      </trkpt>
      <trkpt lat="43.2324" lon="2.37444">
        <ele>114.2</ele>
        <time>2017-01-20T17:17:20Z</time>
      </trkpt>
      <trkpt lat="43.2324" lon="2.37444">
        <ele>114.4</ele>
        <time>2017-01-20T17:17:21Z</time>
      </trkpt>
      <trkpt lat="43.23233" lon="2.37449">
        <ele>114.4</ele>
        <time>2017-01-20T17:17:22Z</time>
      </trkpt>
      <trkpt lat="43.23233" lon="2.37449">
        <ele>114.3</ele>
        <time>2017-01-20T17:17:23Z</time>
      </trkpt>
      <trkpt lat="43.23225" lon="2.37452">
        <ele>114.3</ele>
        <time>2017-01-20T17:17:24Z</time>
      </trkpt>
      <trkpt lat="43.23063" lon="2.37529">
        <ele>113.3</ele>
        <time>2017-01-20T17:18:01Z</time>
      </trkpt>
      <trkpt lat="43.23049" lon="2.37532">
        <ele>113.2</ele>
        <time>2017-01-20T17:18:04Z</time>
      </trkpt>
      <trkpt lat="43.23025" lon="2.37534">
        <ele>113.2</ele>
        <time>2017-01-20T17:18:09Z</time>
      </trkpt>
      <trkpt lat="43.22991" lon="2.37531">
        <ele>113.4</ele>
        <time>2017-01-20T17:18:16Z</time>
      </trkpt>
      <trkpt lat="43.22987" lon="2.3753">
        <ele>113.4</ele>
        <time>2017-01-20T17:18:17Z</time>
      </trkpt>
      <trkpt lat="43.22939" lon="2.37509">
        <ele>113.7</ele>
        <time>2017-01-20T17:18:29Z</time>
      </trkpt>
      <trkpt lat="43.22918" lon="2.37494">
        <ele>113.1</ele>
        <time>2017-01-20T17:18:34Z</time>
      </trkpt>
      <trkpt lat="43.22877" lon="2.37453">
        <ele>112.6</ele>
        <time>2017-01-20T17:18:45Z</time>
      </trkpt>
      <trkpt lat="43.22863" lon="2.37436">
        <ele>113.5</ele>
        <time>2017-01-20T17:18:49Z</time>
      </trkpt>
      <trkpt lat="43.22832" lon="2.37386">
        <ele>113</ele>
        <time>2017-01-20T17:18:58Z</time>
      </trkpt>
      <trkpt lat="43.22822" lon="2.37363">
        <ele>113.5</ele>
        <time>2017-01-20T17:19:02Z</time>
      </trkpt>
      <trkpt lat="43.2281" lon="2.37328">
        <ele>113</ele>
        <time>2017-01-20T17:19:08Z</time>
      </trkpt>
      <trkpt lat="43.22801" lon="2.3729">
        <ele>113.2</ele>
        <time>2017-01-20T17:19:14Z</time>
      </trkpt>
      <trkpt lat="43.22796" lon="2.37252">
        <ele>113.7</ele>
        <time>2017-01-20T17:19:20Z</time>
      </trkpt>
      <trkpt lat="43.22795" lon="2.37245">
        <ele>113.8</ele>
        <time>2017-01-20T17:19:21Z</time>
      </trkpt>
      <trkpt lat="43.2276" lon="2.36991">
        <ele>113.8</ele>
        <time>2017-01-20T17:19:59Z</time>
      </trkpt>
      <trkpt lat="43.22749" lon="2.36963">
        <ele>113.8</ele>
        <time>2017-01-20T17:20:04Z</time>
      </trkpt>
      <trkpt lat="43.22744" lon="2.36954">
        <ele>114</ele>
        <time>2017-01-20T17:20:06Z</time>
      </trkpt>
      <trkpt lat="43.22731" lon="2.36936">
        <ele>113.7</ele>
        <time>2017-01-20T17:20:10Z</time>
      </trkpt>
      <trkpt lat="43.22713" lon="2.36914">
        <ele>113.3</ele>
        <time>2017-01-20T17:20:15Z</time>
      </trkpt>
      <trkpt lat="43.22697" lon="2.36899">
        <ele>113.4</ele>
        <time>2017-01-20T17:20:19Z</time>
      </trkpt>
      <trkpt lat="43.22684" lon="2.3689">
        <ele>113.4</ele>
        <time>2017-01-20T17:20:22Z</time>
      </trkpt>
      <trkpt lat="43.2268" lon="2.36887">
        <ele>113.4</ele>
        <time>2017-01-20T17:20:23Z</time>
      </trkpt>
      <trkpt lat="43.22653" lon="2.36876">
        <ele>113.4</ele>
        <time>2017-01-20T17:20:29Z</time>
      </trkpt>
      <trkpt lat="43.22488" lon="2.36821">
        <ele>113</ele>
        <time>2017-01-20T17:21:04Z</time>
      </trkpt>
      <trkpt lat="43.22484" lon="2.36818">
        <ele>112.9</ele>
        <time>2017-01-20T17:21:05Z</time>
      </trkpt>
      <trkpt lat="43.2246" lon="2.36796">
        <ele>113.3</ele>
        <time>2017-01-20T17:21:11Z</time>
      </trkpt>
      <trkpt lat="43.22447" lon="2.36777">
        <ele>113.4</ele>
        <time>2017-01-20T17:21:15Z</time>
      </trkpt>
      <trkpt lat="43.22433" lon="2.36751">
        <ele>112.9</ele>
        <time>2017-01-20T17:21:20Z</time>
      </trkpt>
      <trkpt lat="43.22414" lon="2.36707">
        <ele>112.6</ele>
        <time>2017-01-20T17:21:28Z</time>
      </trkpt>
      <trkpt lat="43.22412" lon="2.36701">
        <ele>112.8</ele>
        <time>2017-01-20T17:21:29Z</time>
      </trkpt>
      <trkpt lat="43.22402" lon="2.36654">
        <ele>113.3</ele>
        <time>2017-01-20T17:21:36Z</time>
      </trkpt>
      <trkpt lat="43.22398" lon="2.36625">
        <ele>113.2</ele>
        <time>2017-01-20T17:21:40Z</time>
      </trkpt>
      <trkpt lat="43.22397" lon="2.36587">
        <ele>113.7</ele>
        <time>2017-01-20T17:21:45Z</time>
      </trkpt>
      <trkpt lat="43.22399" lon="2.36276">
        <ele>113</ele>
        <time>2017-01-20T17:22:32Z</time>
      </trkpt>
      <trkpt lat="43.22398" lon="2.3627">
        <ele>112.9</ele>
        <time>2017-01-20T17:22:33Z</time>
      </trkpt>
      <trkpt lat="43.22389" lon="2.36221">
        <ele>113.1</ele>
        <time>2017-01-20T17:22:41Z</time>
      </trkpt>
      <trkpt lat="43.22366" lon="2.36135">
        <ele>113.3</ele>
        <time>2017-01-20T17:22:54Z</time>
      </trkpt>
      <trkpt lat="43.22238" lon="2.35702">
        <ele>113</ele>
        <time>2017-01-20T17:24:01Z</time>
      </trkpt>
      <trkpt lat="43.22236" lon="2.35696">
        <ele>112.9</ele>
        <time>2017-01-20T17:24:02Z</time>
      </trkpt>
      <trkpt lat="43.22219" lon="2.35665">
        <ele>112.6</ele>
        <time>2017-01-20T17:24:08Z</time>
      </trkpt>
      <trkpt lat="43.22208" lon="2.3565">
        <ele>112.2</ele>
        <time>2017-01-20T17:24:11Z</time>
      </trkpt>
      <trkpt lat="43.22182" lon="2.35625">
        <ele>112.2</ele>
        <time>2017-01-20T17:24:18Z</time>
      </trkpt>
      <trkpt lat="43.22161" lon="2.35608">
        <ele>112.7</ele>
        <time>2017-01-20T17:24:24Z</time>
      </trkpt>
      <trkpt lat="43.21867" lon="2.35396">
        <ele>112.8</ele>
        <time>2017-01-20T17:25:57Z</time>
      </trkpt>
      <trkpt lat="43.21865" lon="2.35393">
        <ele>112.9</ele>
        <time>2017-01-20T17:25:58Z</time>
      </trkpt>
      <trkpt lat="43.21862" lon="2.35387">
        <ele>112.9</ele>
        <time>2017-01-20T17:26:02Z</time>
      </trkpt>
      <trkpt lat="43.21862" lon="2.35387">
        <ele>112.8</ele>
        <time>2017-01-20T17:26:03Z</time>
      </trkpt>
      <trkpt lat="43.21862" lon="2.35387">
        <ele>112.7</ele>
        <time>2017-01-20T17:26:04Z</time>
      </trkpt>
      <trkpt lat="43.21862" lon="2.35387">
        <ele>112.7</ele>
        <time>2017-01-20T17:26:05Z</time>
      </trkpt>
      <trkpt lat="43.21862" lon="2.35387">
        <ele>112.7</ele>
        <time>2017-01-20T17:26:06Z</time>
      </trkpt>
      <trkpt lat="43.21855" lon="2.35374">
        <ele>112.6</ele>
        <time>2017-01-20T17:26:07Z</time>
      </trkpt>
      <trkpt lat="43.21847" lon="2.35365">
        <ele>112.4</ele>
        <time>2017-01-20T17:26:10Z</time>
      </trkpt>
      <trkpt lat="43.21843" lon="2.35364">
        <ele>112.2</ele>
        <time>2017-01-20T17:26:11Z</time>
      </trkpt>
      <trkpt lat="43.21816" lon="2.35356">
        <ele>111.9</ele>
        <time>2017-01-20T17:26:15Z</time>
      </trkpt>
      <trkpt lat="43.21811" lon="2.35353">
        <ele>111.8</ele>
        <time>2017-01-20T17:26:16Z</time>
      </trkpt>
      <trkpt lat="43.21783" lon="2.35332">
        <ele>111.7</ele>
        <time>2017-01-20T17:26:24Z</time>
      </trkpt>
      <trkpt lat="43.21777" lon="2.35326">
        <ele>111.7</ele>
        <time>2017-01-20T17:26:26Z</time>
      </trkpt>
      <trkpt lat="43.21768" lon="2.35315">
        <ele>112.5</ele>
        <time>2017-01-20T17:26:29Z</time>
      </trkpt>
      <trkpt lat="43.2176" lon="2.35302">
        <ele>112.3</ele>
        <time>2017-01-20T17:26:32Z</time>
      </trkpt>
      <trkpt lat="43.21746" lon="2.35278">
        <ele>112.1</ele>
        <time>2017-01-20T17:26:38Z</time>
      </trkpt>
      <trkpt lat="43.21744" lon="2.35276">
        <ele>112</ele>
        <time>2017-01-20T17:26:39Z</time>
      </trkpt>
      <trkpt lat="43.21742" lon="2.35274">
        <ele>112.1</ele>
        <time>2017-01-20T17:26:40Z</time>
      </trkpt>
      <trkpt lat="43.21739" lon="2.3527">
        <ele>112.3</ele>
        <time>2017-01-20T17:26:42Z</time>
      </trkpt>
      <trkpt lat="43.21738" lon="2.35267">
        <ele>112.6</ele>
        <time>2017-01-20T17:26:43Z</time>
      </trkpt>
      <trkpt lat="43.21732" lon="2.35237">
        <ele>113.7</ele>
        <time>2017-01-20T17:26:52Z</time>
      </trkpt>
      <trkpt lat="43.21732" lon="2.35233">
        <ele>113.8</ele>
        <time>2017-01-20T17:26:53Z</time>
      </trkpt>
      <trkpt lat="43.21732" lon="2.35218">
        <ele>114.6</ele>
        <time>2017-01-20T17:26:57Z</time>
      </trkpt>
      <trkpt lat="43.21733" lon="2.35214">
        <ele>114.9</ele>
        <time>2017-01-20T17:26:58Z</time>
      </trkpt>
      <trkpt lat="43.21733" lon="2.35211">
        <ele>115.2</ele>
        <time>2017-01-20T17:26:59Z</time>
      </trkpt>
      <trkpt lat="43.21735" lon="2.35206">
        <ele>115.5</ele>
        <time>2017-01-20T17:27:01Z</time>
      </trkpt>
      <trkpt lat="43.21736" lon="2.35204">
        <ele>115.6</ele>
        <time>2017-01-20T17:27:02Z</time>
      </trkpt>
      <trkpt lat="43.2174" lon="2.35201">
        <ele>115.7</ele>
        <time>2017-01-20T17:27:04Z</time>
      </trkpt>
      <trkpt lat="43.21742" lon="2.35199">
        <ele>115.8</ele>
        <time>2017-01-20T17:27:05Z</time>
      </trkpt>
      <trkpt lat="43.21744" lon="2.35198">
        <ele>115.8</ele>
        <time>2017-01-20T17:27:06Z</time>
      </trkpt>
      <trkpt lat="43.21749" lon="2.35195">
        <ele>115.5</ele>
        <time>2017-01-20T17:27:08Z</time>
      </trkpt>
      <trkpt lat="43.21754" lon="2.35194">
        <ele>115.5</ele>
        <time>2017-01-20T17:27:10Z</time>
      </trkpt>
      <trkpt lat="43.21761" lon="2.35192">
        <ele>115.9</ele>
        <time>2017-01-20T17:27:13Z</time>
      </trkpt>
      <trkpt lat="43.21765" lon="2.35192">
        <ele>116.3</ele>
        <time>2017-01-20T17:27:15Z</time>
      </trkpt>
      <trkpt lat="43.21767" lon="2.35193">
        <ele>116.2</ele>
        <time>2017-01-20T17:27:16Z</time>
      </trkpt>
      <trkpt lat="43.21769" lon="2.35194">
        <ele>116</ele>
        <time>2017-01-20T17:27:19Z</time>
      </trkpt>
      <trkpt lat="43.21769" lon="2.35194">
        <ele>116</ele>
        <time>2017-01-20T17:27:20Z</time>
      </trkpt>
      <trkpt lat="43.21769" lon="2.35194">
        <ele>116</ele>
        <time>2017-01-20T17:27:21Z</time>
      </trkpt>
      <trkpt lat="43.21769" lon="2.35194">
        <ele>116.1</ele>
        <time>2017-01-20T17:27:22Z</time>
      </trkpt>
      <trkpt lat="43.21769" lon="2.35194">
        <ele>116.3</ele>
        <time>2017-01-20T17:27:23Z</time>
      </trkpt>
      <trkpt lat="43.21773" lon="2.35196">
        <ele>116.4</ele>
        <time>2017-01-20T17:27:24Z</time>
      </trkpt>
      <trkpt lat="43.21775" lon="2.35196">
        <ele>116.3</ele>
        <time>2017-01-20T17:27:25Z</time>
      </trkpt>
      <trkpt lat="43.21777" lon="2.35195">
        <ele>116.2</ele>
        <time>2017-01-20T17:27:26Z</time>
      </trkpt>
      <trkpt lat="43.21786" lon="2.35192">
        <ele>115.7</ele>
        <time>2017-01-20T17:27:31Z</time>
      </trkpt>
      <trkpt lat="43.21793" lon="2.35189">
        <ele>116.1</ele>
        <time>2017-01-20T17:27:38Z</time>
      </trkpt>
      <trkpt lat="43.21793" lon="2.35189">
        <ele>116.3</ele>
        <time>2017-01-20T17:27:39Z</time>
      </trkpt>
      <trkpt lat="43.21793" lon="2.35189">
        <ele>116.2</ele>
        <time>2017-01-20T17:27:40Z</time>
      </trkpt>
      <trkpt lat="43.21793" lon="2.35189">
        <ele>116.1</ele>
        <time>2017-01-20T17:27:41Z</time>
      </trkpt>
      <trkpt lat="43.21793" lon="2.35189">
        <ele>116.1</ele>
        <time>2017-01-20T17:27:42Z</time>
      </trkpt>
      <trkpt lat="43.21793" lon="2.35189">
        <ele>116</ele>
        <time>2017-01-20T17:27:43Z</time>
      </trkpt>
      <trkpt lat="43.21793" lon="2.35189">
        <ele>116</ele>
        <time>2017-01-20T17:27:44Z</time>
      </trkpt>
      <trkpt lat="43.21793" lon="2.35189">
        <ele>116</ele>
        <time>2017-01-20T17:27:45Z</time>
      </trkpt>
      <trkpt lat="43.21793" lon="2.35189">
        <ele>116.1</ele>
        <time>2017-01-20T17:27:46Z</time>
      </trkpt>
      <trkpt lat="43.21793" lon="2.35189">
        <ele>116.3</ele>
        <time>2017-01-20T17:27:47Z</time>
      </trkpt>
      <trkpt lat="43.21793" lon="2.35189">
        <ele>116.4</ele>
        <time>2017-01-20T17:27:48Z</time>
      </trkpt>
      <trkpt lat="43.21793" lon="2.35189">
        <ele>116.7</ele>
        <time>2017-01-20T17:27:49Z</time>
      </trkpt>
      <trkpt lat="43.21793" lon="2.35189">
        <ele>116.9</ele>
        <time>2017-01-20T17:27:50Z</time>
      </trkpt>
      <trkpt lat="43.21793" lon="2.35189">
        <ele>117.1</ele>
        <time>2017-01-20T17:27:51Z</time>
      </trkpt>
      <trkpt lat="43.21793" lon="2.35189">
        <ele>117.2</ele>
        <time>2017-01-20T17:27:52Z</time>
      </trkpt>
      <trkpt lat="43.21798" lon="2.3519">
        <ele>117.3</ele>
        <time>2017-01-20T17:27:53Z</time>
      </trkpt>
      <trkpt lat="43.21798" lon="2.3519">
        <ele>117.3</ele>
        <time>2017-01-20T17:27:54Z</time>
      </trkpt>
      <trkpt lat="43.21798" lon="2.3519">
        <ele>117.4</ele>
        <time>2017-01-20T17:27:55Z</time>
      </trkpt>
      <trkpt lat="43.21798" lon="2.3519">
        <ele>117.4</ele>
        <time>2017-01-20T17:27:56Z</time>
      </trkpt>
      <trkpt lat="43.21798" lon="2.3519">
        <ele>117.5</ele>
        <time>2017-01-20T17:27:57Z</time>
      </trkpt>
      <trkpt lat="43.21798" lon="2.3519">
        <ele>117.7</ele>
        <time>2017-01-20T17:27:58Z</time>
      </trkpt>
      <trkpt lat="43.21798" lon="2.3519">
        <ele>117.9</ele>
        <time>2017-01-20T17:27:59Z</time>
      </trkpt>
      <trkpt lat="43.21798" lon="2.3519">
        <ele>118</ele>
        <time>2017-01-20T17:28:00Z</time>
      </trkpt>
      <trkpt lat="43.21798" lon="2.3519">
        <ele>118.1</ele>
        <time>2017-01-20T17:28:01Z</time>
      </trkpt>
      <trkpt lat="43.21798" lon="2.3519">
        <ele>118.2</ele>
        <time>2017-01-20T17:28:02Z</time>
      </trkpt>
      <trkpt lat="43.21798" lon="2.3519">
        <ele>118.2</ele>
        <time>2017-01-20T17:28:03Z</time>
      </trkpt>
      <trkpt lat="43.21798" lon="2.3519">
        <ele>118.1</ele>
        <time>2017-01-20T17:28:04Z</time>
      </trkpt>
      <trkpt lat="43.21798" lon="2.3519">
        <ele>117.9</ele>
        <time>2017-01-20T17:28:05Z</time>
      </trkpt>
      <trkpt lat="43.21798" lon="2.3519">
        <ele>117.8</ele>
        <time>2017-01-20T17:28:06Z</time>
      </trkpt>
      <trkpt lat="43.21798" lon="2.3519">
        <ele>117.8</ele>
        <time>2017-01-20T17:28:07Z</time>
      </trkpt>
      <trkpt lat="43.21798" lon="2.3519">
        <ele>117.7</ele>
        <time>2017-01-20T17:28:08Z</time>
      </trkpt>
      <trkpt lat="43.21798" lon="2.3519">
        <ele>117.7</ele>
        <time>2017-01-20T17:28:09Z</time>
      </trkpt>
      <trkpt lat="43.21798" lon="2.3519">
        <ele>117.8</ele>
        <time>2017-01-20T17:28:10Z</time>
      </trkpt>
      <trkpt lat="43.21798" lon="2.3519">
        <ele>118</ele>
        <time>2017-01-20T17:28:11Z</time>
      </trkpt>
      <trkpt lat="43.21798" lon="2.3519">
        <ele>118.1</ele>
        <time>2017-01-20T17:28:12Z</time>
      </trkpt>
      <trkpt lat="43.21798" lon="2.3519">
        <ele>118.2</ele>
        <time>2017-01-20T17:28:13Z</time>
      </trkpt>
      <trkpt lat="43.21798" lon="2.3519">
        <ele>118.2</ele>
        <time>2017-01-20T17:28:14Z</time>
      </trkpt>
      <trkpt lat="43.21798" lon="2.3519">
        <ele>118.3</ele>
        <time>2017-01-20T17:28:15Z</time>
      </trkpt>
      <trkpt lat="43.21798" lon="2.3519">
        <ele>118.1</ele>
        <time>2017-01-20T17:28:16Z</time>
      </trkpt>
      <trkpt lat="43.21798" lon="2.3519">
        <ele>117.9</ele>
        <time>2017-01-20T17:28:17Z</time>
      </trkpt>
      <trkpt lat="43.21798" lon="2.3519">
        <ele>117.8</ele>
        <time>2017-01-20T17:28:18Z</time>
      </trkpt>
      <trkpt lat="43.21798" lon="2.3519">
        <ele>117.8</ele>
        <time>2017-01-20T17:28:19Z</time>
      </trkpt>
      <trkpt lat="43.21798" lon="2.3519">
        <ele>117.7</ele>
        <time>2017-01-20T17:28:20Z</time>
      </trkpt>
      <trkpt lat="43.21798" lon="2.3519">
        <ele>117.7</ele>
        <time>2017-01-20T17:28:21Z</time>
      </trkpt>
      <trkpt lat="43.21798" lon="2.3519">
        <ele>117.6</ele>
        <time>2017-01-20T17:28:22Z</time>
      </trkpt>
      <trkpt lat="43.21798" lon="2.3519">
        <ele>117.6</ele>
        <time>2017-01-20T17:28:23Z</time>
      </trkpt>
      <trkpt lat="43.21798" lon="2.3519">
        <ele>117.6</ele>
        <time>2017-01-20T17:28:24Z</time>
      </trkpt>
      <trkpt lat="43.21798" lon="2.3519">
        <ele>117.2</ele>
        <time>2017-01-20T17:28:25Z</time>
      </trkpt>
      <trkpt lat="43.21798" lon="2.3519">
        <ele>116.9</ele>
        <time>2017-01-20T17:28:26Z</time>
      </trkpt>
      <trkpt lat="43.21798" lon="2.3519">
        <ele>116.6</ele>
        <time>2017-01-20T17:28:27Z</time>
      </trkpt>
      <trkpt lat="43.21798" lon="2.3519">
        <ele>117.1</ele>
        <time>2017-01-20T17:28:28Z</time>
      </trkpt>
      <trkpt lat="43.21798" lon="2.3519">
        <ele>117.4</ele>
        <time>2017-01-20T17:28:29Z</time>
      </trkpt>
      <trkpt lat="43.21798" lon="2.3519">
        <ele>117.6</ele>
        <time>2017-01-20T17:28:30Z</time>
      </trkpt>
      <trkpt lat="43.21798" lon="2.3519">
        <ele>117.4</ele>
        <time>2017-01-20T17:28:31Z</time>
      </trkpt>
      <trkpt lat="43.21798" lon="2.3519">
        <ele>117.2</ele>
        <time>2017-01-20T17:28:32Z</time>
      </trkpt>
      <trkpt lat="43.21798" lon="2.3519">
        <ele>117.1</ele>
        <time>2017-01-20T17:28:33Z</time>
      </trkpt>
      <trkpt lat="43.21798" lon="2.3519">
        <ele>117.2</ele>
        <time>2017-01-20T17:28:34Z</time>
      </trkpt>
      <trkpt lat="43.21798" lon="2.3519">
        <ele>117.3</ele>
        <time>2017-01-20T17:28:35Z</time>
      </trkpt>
      <trkpt lat="43.21798" lon="2.3519">
        <ele>117.4</ele>
        <time>2017-01-20T17:28:36Z</time>
      </trkpt>
      <trkpt lat="43.21798" lon="2.3519">
        <ele>117.4</ele>
        <time>2017-01-20T17:28:37Z</time>
      </trkpt>
      <trkpt lat="43.21798" lon="2.3519">
        <ele>117.4</ele>
        <time>2017-01-20T17:28:38Z</time>
      </trkpt>
      <trkpt lat="43.21798" lon="2.3519">
        <ele>117.5</ele>
        <time>2017-01-20T17:28:39Z</time>
      </trkpt>
      <trkpt lat="43.21798" lon="2.3519">
        <ele>117.3</ele>
        <time>2017-01-20T17:28:40Z</time>
      </trkpt>
      <trkpt lat="43.21798" lon="2.3519">
        <ele>117.1</ele>
        <time>2017-01-20T17:28:41Z</time>
      </trkpt>
      <trkpt lat="43.21798" lon="2.3519">
        <ele>117</ele>
        <time>2017-01-20T17:28:42Z</time>
      </trkpt>
      <trkpt lat="43.21798" lon="2.3519">
        <ele>117.2</ele>
        <time>2017-01-20T17:28:43Z</time>
      </trkpt>
      <trkpt lat="43.21798" lon="2.3519">
        <ele>117.3</ele>
        <time>2017-01-20T17:28:44Z</time>
      </trkpt>
      <trkpt lat="43.21798" lon="2.3519">
        <ele>117.3</ele>
        <time>2017-01-20T17:28:45Z</time>
      </trkpt>
      <trkpt lat="43.21798" lon="2.3519">
        <ele>117.6</ele>
        <time>2017-01-20T17:28:46Z</time>
      </trkpt>
      <trkpt lat="43.21798" lon="2.3519">
        <ele>117.8</ele>
        <time>2017-01-20T17:28:47Z</time>
      </trkpt>
      <trkpt lat="43.21798" lon="2.3519">
        <ele>117.9</ele>
        <time>2017-01-20T17:28:48Z</time>
      </trkpt>
      <trkpt lat="43.21798" lon="2.3519">
        <ele>117.6</ele>
        <time>2017-01-20T17:28:49Z</time>
      </trkpt>
      <trkpt lat="43.21798" lon="2.3519">
        <ele>117.4</ele>
        <time>2017-01-20T17:28:50Z</time>
      </trkpt>
      <trkpt lat="43.21798" lon="2.3519">
        <ele>117.2</ele>
        <time>2017-01-20T17:28:51Z</time>
      </trkpt>
      <trkpt lat="43.21798" lon="2.3519">
        <ele>117.3</ele>
        <time>2017-01-20T17:28:52Z</time>
      </trkpt>
      <trkpt lat="43.21798" lon="2.3519">
        <ele>117.4</ele>
        <time>2017-01-20T17:28:53Z</time>
      </trkpt>
      <trkpt lat="43.21798" lon="2.3519">
        <ele>117.4</ele>
        <time>2017-01-20T17:28:54Z</time>
      </trkpt>
      <trkpt lat="43.21798" lon="2.3519">
        <ele>117.5</ele>
        <time>2017-01-20T17:28:55Z</time>
      </trkpt>
      <trkpt lat="43.21798" lon="2.3519">
        <ele>117.5</ele>
        <time>2017-01-20T17:28:56Z</time>
      </trkpt>
      <trkpt lat="43.21798" lon="2.3519">
        <ele>117.5</ele>
        <time>2017-01-20T17:28:57Z</time>
      </trkpt>
      <trkpt lat="43.21798" lon="2.3519">
        <ele>117.7</ele>
        <time>2017-01-20T17:28:58Z</time>
      </trkpt>
      <trkpt lat="43.21798" lon="2.3519">
        <ele>117.9</ele>
        <time>2017-01-20T17:28:59Z</time>
      </trkpt>
      <trkpt lat="43.21798" lon="2.3519">
        <ele>118</ele>
        <time>2017-01-20T17:29:00Z</time>
      </trkpt>
      <trkpt lat="43.21798" lon="2.3519">
        <ele>118.3</ele>
        <time>2017-01-20T17:29:01Z</time>
      </trkpt>
      <trkpt lat="43.21798" lon="2.3519">
        <ele>118.5</ele>
        <time>2017-01-20T17:29:02Z</time>
      </trkpt>
      <trkpt lat="43.21798" lon="2.3519">
        <ele>118.7</ele>
        <time>2017-01-20T17:29:03Z</time>
      </trkpt>
      <trkpt lat="43.21798" lon="2.3519">
        <ele>118.4</ele>
        <time>2017-01-20T17:29:04Z</time>
      </trkpt>
      <trkpt lat="43.21798" lon="2.3519">
        <ele>118.2</ele>
        <time>2017-01-20T17:29:05Z</time>
      </trkpt>
      <trkpt lat="43.21798" lon="2.3519">
        <ele>118</ele>
        <time>2017-01-20T17:29:06Z</time>
      </trkpt>
      <trkpt lat="43.21798" lon="2.3519">
        <ele>117.9</ele>
        <time>2017-01-20T17:29:07Z</time>
      </trkpt>
      <trkpt lat="43.21798" lon="2.3519">
        <ele>117.8</ele>
        <time>2017-01-20T17:29:08Z</time>
      </trkpt>
      <trkpt lat="43.21798" lon="2.3519">
        <ele>117.8</ele>
        <time>2017-01-20T17:29:09Z</time>
      </trkpt>
      <trkpt lat="43.21798" lon="2.3519">
        <ele>117.5</ele>
        <time>2017-01-20T17:29:10Z</time>
      </trkpt>
      <trkpt lat="43.21798" lon="2.3519">
        <ele>117.3</ele>
        <time>2017-01-20T17:29:11Z</time>
      </trkpt>
      <trkpt lat="43.21798" lon="2.3519">
        <ele>117.2</ele>
        <time>2017-01-20T17:29:12Z</time>
      </trkpt>
      <trkpt lat="43.21798" lon="2.3519">
        <ele>117.3</ele>
        <time>2017-01-20T17:29:13Z</time>
      </trkpt>
      <trkpt lat="43.21798" lon="2.3519">
        <ele>117.3</ele>
        <time>2017-01-20T17:29:14Z</time>
      </trkpt>
      <trkpt lat="43.21798" lon="2.3519">
        <ele>117.4</ele>
        <time>2017-01-20T17:29:15Z</time>
      </trkpt>
      <trkpt lat="43.21798" lon="2.3519">
        <ele>117</ele>
        <time>2017-01-20T17:29:16Z</time>
      </trkpt>
      <trkpt lat="43.21798" lon="2.3519">
        <ele>116.7</ele>
        <time>2017-01-20T17:29:17Z</time>
      </trkpt>
      <trkpt lat="43.21798" lon="2.3519">
        <ele>116.5</ele>
        <time>2017-01-20T17:29:18Z</time>
      </trkpt>
      <trkpt lat="43.21798" lon="2.3519">
        <ele>116.6</ele>
        <time>2017-01-20T17:29:19Z</time>
      </trkpt>
      <trkpt lat="43.21798" lon="2.3519">
        <ele>116.6</ele>
        <time>2017-01-20T17:29:20Z</time>
      </trkpt>
      <trkpt lat="43.21798" lon="2.3519">
        <ele>116.6</ele>
        <time>2017-01-20T17:29:21Z</time>
      </trkpt>
      <trkpt lat="43.21798" lon="2.3519">
        <ele>116.7</ele>
        <time>2017-01-20T17:29:22Z</time>
      </trkpt>
      <trkpt lat="43.21798" lon="2.3519">
        <ele>116.7</ele>
        <time>2017-01-20T17:29:23Z</time>
      </trkpt>
      <trkpt lat="43.21798" lon="2.3519">
        <ele>116.7</ele>
        <time>2017-01-20T17:29:24Z</time>
      </trkpt>
      <trkpt lat="43.21798" lon="2.3519">
        <ele>116.5</ele>
        <time>2017-01-20T17:29:25Z</time>
      </trkpt>
      <trkpt lat="43.21798" lon="2.3519">
        <ele>116.3</ele>
        <time>2017-01-20T17:29:26Z</time>
      </trkpt>
      <trkpt lat="43.21798" lon="2.3519">
        <ele>116.2</ele>
        <time>2017-01-20T17:29:27Z</time>
      </trkpt>
      <trkpt lat="43.21798" lon="2.3519">
        <ele>116.3</ele>
        <time>2017-01-20T17:29:28Z</time>
      </trkpt>
      <trkpt lat="43.21798" lon="2.3519">
        <ele>116.4</ele>
        <time>2017-01-20T17:29:29Z</time>
      </trkpt>
      <trkpt lat="43.21798" lon="2.3519">
        <ele>116.5</ele>
        <time>2017-01-20T17:29:30Z</time>
      </trkpt>
      <trkpt lat="43.21798" lon="2.3519">
        <ele>116.4</ele>
        <time>2017-01-20T17:29:31Z</time>
      </trkpt>
      <trkpt lat="43.21798" lon="2.3519">
        <ele>116.2</ele>
        <time>2017-01-20T17:29:32Z</time>
      </trkpt>
      <trkpt lat="43.21798" lon="2.3519">
        <ele>116.2</ele>
        <time>2017-01-20T17:29:33Z</time>
      </trkpt>
      <trkpt lat="43.21798" lon="2.3519">
        <ele>115.9</ele>
        <time>2017-01-20T17:29:34Z</time>
      </trkpt>
      <trkpt lat="43.21798" lon="2.3519">
        <ele>115.7</ele>
        <time>2017-01-20T17:29:35Z</time>
      </trkpt>
      <trkpt lat="43.21798" lon="2.3519">
        <ele>115.5</ele>
        <time>2017-01-20T17:29:36Z</time>
      </trkpt>
      <trkpt lat="43.21798" lon="2.3519">
        <ele>115.8</ele>
        <time>2017-01-20T17:29:37Z</time>
      </trkpt>
      <trkpt lat="43.21798" lon="2.3519">
        <ele>116</ele>
        <time>2017-01-20T17:29:38Z</time>
      </trkpt>
      <trkpt lat="43.21798" lon="2.3519">
        <ele>116.2</ele>
        <time>2017-01-20T17:29:39Z</time>
      </trkpt>
      <trkpt lat="43.21798" lon="2.35189">
        <ele>115.1</ele>
        <time>2017-01-20T17:29:40Z</time>
      </trkpt>
      <trkpt lat="43.21799" lon="2.35189">
        <ele>114.3</ele>
        <time>2017-01-20T17:29:41Z</time>
      </trkpt>
      <trkpt lat="43.21799" lon="2.35188">
        <ele>113.6</ele>
        <time>2017-01-20T17:29:42Z</time>
      </trkpt>
      <trkpt lat="43.21799" lon="2.35188">
        <ele>114.8</ele>
        <time>2017-01-20T17:29:43Z</time>
      </trkpt>
      <trkpt lat="43.218" lon="2.35187">
        <ele>115.7</ele>
        <time>2017-01-20T17:29:44Z</time>
      </trkpt>
      <trkpt lat="43.218" lon="2.35186">
        <ele>116.4</ele>
        <time>2017-01-20T17:29:45Z</time>
      </trkpt>
      <trkpt lat="43.218" lon="2.35186">
        <ele>116.9</ele>
        <time>2017-01-20T17:29:46Z</time>
      </trkpt>
      <trkpt lat="43.21801" lon="2.35186">
        <ele>117.3</ele>
        <time>2017-01-20T17:29:47Z</time>
      </trkpt>
      <trkpt lat="43.21801" lon="2.35186">
        <ele>117.5</ele>
        <time>2017-01-20T17:29:48Z</time>
      </trkpt>
      <trkpt lat="43.21801" lon="2.35185">
        <ele>117.7</ele>
        <time>2017-01-20T17:29:49Z</time>
      </trkpt>
      <trkpt lat="43.21801" lon="2.35185">
        <ele>117.9</ele>
        <time>2017-01-20T17:29:50Z</time>
      </trkpt>
      <trkpt lat="43.21801" lon="2.35185">
        <ele>118</ele>
        <time>2017-01-20T17:29:51Z</time>
      </trkpt>
      <trkpt lat="43.21802" lon="2.35185">
        <ele>117.9</ele>
        <time>2017-01-20T17:29:52Z</time>
      </trkpt>
      <trkpt lat="43.21802" lon="2.35185">
        <ele>117.8</ele>
        <time>2017-01-20T17:29:53Z</time>
      </trkpt>
      <trkpt lat="43.21802" lon="2.35185">
        <ele>117.8</ele>
        <time>2017-01-20T17:29:54Z</time>
      </trkpt>
      <trkpt lat="43.21802" lon="2.35184">
        <ele>117.5</ele>
        <time>2017-01-20T17:29:55Z</time>
      </trkpt>
      <trkpt lat="43.21802" lon="2.35184">
        <ele>117.3</ele>
        <time>2017-01-20T17:29:56Z</time>
      </trkpt>
      <trkpt lat="43.21802" lon="2.35184">
        <ele>117.2</ele>
        <time>2017-01-20T17:29:57Z</time>
      </trkpt>
      <trkpt lat="43.21802" lon="2.35183">
        <ele>117.3</ele>
        <time>2017-01-20T17:29:58Z</time>
      </trkpt>
      <trkpt lat="43.21802" lon="2.35183">
        <ele>117.3</ele>
        <time>2017-01-20T17:29:59Z</time>
      </trkpt>
      <trkpt lat="43.21802" lon="2.35183">
        <ele>117.4</ele>
        <time>2017-01-20T17:30:00Z</time>
      </trkpt>
      <trkpt lat="43.21802" lon="2.35182">
        <ele>117.2</ele>
        <time>2017-01-20T17:30:01Z</time>
      </trkpt>
      <trkpt lat="43.21801" lon="2.35182">
        <ele>117.1</ele>
        <time>2017-01-20T17:30:02Z</time>
      </trkpt>
      <trkpt lat="43.21801" lon="2.35181">
        <ele>117</ele>
        <time>2017-01-20T17:30:03Z</time>
      </trkpt>
      <trkpt lat="43.21801" lon="2.35181">
        <ele>117.1</ele>
        <time>2017-01-20T17:30:04Z</time>
      </trkpt>
      <trkpt lat="43.21801" lon="2.35181">
        <ele>117.2</ele>
        <time>2017-01-20T17:30:05Z</time>
      </trkpt>
      <trkpt lat="43.218" lon="2.3518">
        <ele>117.3</ele>
        <time>2017-01-20T17:30:06Z</time>
      </trkpt>
      <trkpt lat="43.218" lon="2.3518">
        <ele>117.2</ele>
        <time>2017-01-20T17:30:07Z</time>
      </trkpt>
      <trkpt lat="43.218" lon="2.3518">
        <ele>117.1</ele>
        <time>2017-01-20T17:30:08Z</time>
      </trkpt>
      <trkpt lat="43.218" lon="2.35179">
        <ele>117</ele>
        <time>2017-01-20T17:30:09Z</time>
      </trkpt>
      <trkpt lat="43.21799" lon="2.35179">
        <ele>117.1</ele>
        <time>2017-01-20T17:30:10Z</time>
      </trkpt>
      <trkpt lat="43.21799" lon="2.35179">
        <ele>117.2</ele>
        <time>2017-01-20T17:30:11Z</time>
      </trkpt>
      <trkpt lat="43.21799" lon="2.35179">
        <ele>117.3</ele>
        <time>2017-01-20T17:30:12Z</time>
      </trkpt>
      <trkpt lat="43.21799" lon="2.35179">
        <ele>117.2</ele>
        <time>2017-01-20T17:30:13Z</time>
      </trkpt>
      <trkpt lat="43.218" lon="2.35181">
        <ele>116.5</ele>
        <time>2017-01-20T17:30:26Z</time>
      </trkpt>
      <trkpt lat="43.218" lon="2.35181">
        <ele>116.4</ele>
        <time>2017-01-20T17:30:27Z</time>
      </trkpt>
      <trkpt lat="43.218" lon="2.35181">
        <ele>116.7</ele>
        <time>2017-01-20T17:30:28Z</time>
      </trkpt>
      <trkpt lat="43.218" lon="2.35181">
        <ele>116.9</ele>
        <time>2017-01-20T17:30:29Z</time>
      </trkpt>
      <trkpt lat="43.218" lon="2.35182">
        <ele>117.1</ele>
        <time>2017-01-20T17:30:30Z</time>
      </trkpt>
      <trkpt lat="43.21801" lon="2.35182">
        <ele>117.6</ele>
        <time>2017-01-20T17:30:31Z</time>
      </trkpt>
      <trkpt lat="43.21801" lon="2.35182">
        <ele>118</ele>
        <time>2017-01-20T17:30:32Z</time>
      </trkpt>
      <trkpt lat="43.21801" lon="2.35182">
        <ele>118.3</ele>
        <time>2017-01-20T17:30:33Z</time>
      </trkpt>
      <trkpt lat="43.21801" lon="2.35183">
        <ele>118.1</ele>
        <time>2017-01-20T17:30:34Z</time>
      </trkpt>
      <trkpt lat="43.21801" lon="2.35183">
        <ele>118</ele>
        <time>2017-01-20T17:30:35Z</time>
      </trkpt>
      <trkpt lat="43.21801" lon="2.35183">
        <ele>117.9</ele>
        <time>2017-01-20T17:30:36Z</time>
      </trkpt>
      <trkpt lat="43.21801" lon="2.35183">
        <ele>118</ele>
        <time>2017-01-20T17:30:37Z</time>
      </trkpt>
      <trkpt lat="43.21801" lon="2.35183">
        <ele>118.1</ele>
        <time>2017-01-20T17:30:38Z</time>
      </trkpt>
      <trkpt lat="43.21801" lon="2.35183">
        <ele>118.2</ele>
        <time>2017-01-20T17:30:39Z</time>
      </trkpt>
      <trkpt lat="43.218" lon="2.35182">
        <ele>117.2</ele>
        <time>2017-01-20T17:30:47Z</time>
      </trkpt>
      <trkpt lat="43.21799" lon="2.35182">
        <ele>117.3</ele>
        <time>2017-01-20T17:30:48Z</time>
      </trkpt>
      <trkpt lat="43.21799" lon="2.35182">
        <ele>117.2</ele>
        <time>2017-01-20T17:30:49Z</time>
      </trkpt>
      <trkpt lat="43.21799" lon="2.35181">
        <ele>117.1</ele>
        <time>2017-01-20T17:30:50Z</time>
      </trkpt>
      <trkpt lat="43.21798" lon="2.35181">
        <ele>116.9</ele>
        <time>2017-01-20T17:30:52Z</time>
      </trkpt>
      <trkpt lat="43.21798" lon="2.35181">
        <ele>116.9</ele>
        <time>2017-01-20T17:30:53Z</time>
      </trkpt>
      <trkpt lat="43.21797" lon="2.35181">
        <ele>116.8</ele>
        <time>2017-01-20T17:30:54Z</time>
      </trkpt>
      <trkpt lat="43.21797" lon="2.35181">
        <ele>117</ele>
        <time>2017-01-20T17:30:55Z</time>
      </trkpt>
      <trkpt lat="43.21797" lon="2.3518">
        <ele>117.1</ele>
        <time>2017-01-20T17:30:56Z</time>
      </trkpt>
      <trkpt lat="43.21797" lon="2.3518">
        <ele>117.2</ele>
        <time>2017-01-20T17:30:57Z</time>
      </trkpt>
      <trkpt lat="43.21797" lon="2.3518">
        <ele>116.1</ele>
        <time>2017-01-20T17:30:58Z</time>
      </trkpt>
      <trkpt lat="43.21796" lon="2.35179">
        <ele>115.2</ele>
        <time>2017-01-20T17:30:59Z</time>
      </trkpt>
      <trkpt lat="43.21796" lon="2.35179">
        <ele>115.5</ele>
        <time>2017-01-20T17:31:02Z</time>
      </trkpt>
      <trkpt lat="43.21796" lon="2.35179">
        <ele>115.8</ele>
        <time>2017-01-20T17:31:03Z</time>
      </trkpt>
      <trkpt lat="43.21796" lon="2.35179">
        <ele>116.2</ele>
        <time>2017-01-20T17:31:04Z</time>
      </trkpt>
      <trkpt lat="43.21796" lon="2.35179">
        <ele>116.6</ele>
        <time>2017-01-20T17:31:05Z</time>
      </trkpt>
      <trkpt lat="43.21796" lon="2.35179">
        <ele>116.8</ele>
        <time>2017-01-20T17:31:06Z</time>
      </trkpt>
      <trkpt lat="43.21796" lon="2.3518">
        <ele>117</ele>
        <time>2017-01-20T17:31:07Z</time>
      </trkpt>
      <trkpt lat="43.21796" lon="2.3518">
        <ele>117.1</ele>
        <time>2017-01-20T17:31:08Z</time>
      </trkpt>
      <trkpt lat="43.21797" lon="2.3518">
        <ele>117.2</ele>
        <time>2017-01-20T17:31:09Z</time>
      </trkpt>
      <trkpt lat="43.21797" lon="2.3518">
        <ele>117.1</ele>
        <time>2017-01-20T17:31:10Z</time>
      </trkpt>
      <trkpt lat="43.21797" lon="2.3518">
        <ele>117</ele>
        <time>2017-01-20T17:31:11Z</time>
      </trkpt>
      <trkpt lat="43.21798" lon="2.3518">
        <ele>116.9</ele>
        <time>2017-01-20T17:31:12Z</time>
      </trkpt>
      <trkpt lat="43.21798" lon="2.35179">
        <ele>116.7</ele>
        <time>2017-01-20T17:31:13Z</time>
      </trkpt>
      <trkpt lat="43.21798" lon="2.35179">
        <ele>116.5</ele>
        <time>2017-01-20T17:31:14Z</time>
      </trkpt>
      <trkpt lat="43.21799" lon="2.35179">
        <ele>116.3</ele>
        <time>2017-01-20T17:31:15Z</time>
      </trkpt>
      <trkpt lat="43.21799" lon="2.35179">
        <ele>116.8</ele>
        <time>2017-01-20T17:31:16Z</time>
      </trkpt>
      <trkpt lat="43.218" lon="2.35179">
        <ele>117.2</ele>
        <time>2017-01-20T17:31:17Z</time>
      </trkpt>
      <trkpt lat="43.218" lon="2.35179">
        <ele>117.5</ele>
        <time>2017-01-20T17:31:18Z</time>
      </trkpt>
      <trkpt lat="43.21801" lon="2.35178">
        <ele>117.3</ele>
        <time>2017-01-20T17:31:19Z</time>
      </trkpt>
      <trkpt lat="43.21801" lon="2.35178">
        <ele>117.2</ele>
        <time>2017-01-20T17:31:20Z</time>
      </trkpt>
      <trkpt lat="43.21802" lon="2.35178">
        <ele>117.1</ele>
        <time>2017-01-20T17:31:21Z</time>
      </trkpt>
      <trkpt lat="43.21802" lon="2.35178">
        <ele>117.2</ele>
        <time>2017-01-20T17:31:22Z</time>
      </trkpt>
      <trkpt lat="43.21803" lon="2.35178">
        <ele>117.3</ele>
        <time>2017-01-20T17:31:23Z</time>
      </trkpt>
      <trkpt lat="43.21803" lon="2.35178">
        <ele>117.3</ele>
        <time>2017-01-20T17:31:24Z</time>
      </trkpt>
      <trkpt lat="43.21803" lon="2.35178">
        <ele>117.2</ele>
        <time>2017-01-20T17:31:25Z</time>
      </trkpt>
      <trkpt lat="43.21804" lon="2.35178">
        <ele>117.1</ele>
        <time>2017-01-20T17:31:26Z</time>
      </trkpt>
      <trkpt lat="43.21804" lon="2.35178">
        <ele>117</ele>
        <time>2017-01-20T17:31:27Z</time>
      </trkpt>
      <trkpt lat="43.21805" lon="2.35178">
        <ele>116.7</ele>
        <time>2017-01-20T17:31:28Z</time>
      </trkpt>
      <trkpt lat="43.21805" lon="2.35178">
        <ele>116.5</ele>
        <time>2017-01-20T17:31:29Z</time>
      </trkpt>
      <trkpt lat="43.21806" lon="2.35179">
        <ele>116.3</ele>
        <time>2017-01-20T17:31:30Z</time>
      </trkpt>
      <trkpt lat="43.21806" lon="2.35179">
        <ele>116.2</ele>
        <time>2017-01-20T17:31:31Z</time>
      </trkpt>
      <trkpt lat="43.21807" lon="2.35179">
        <ele>116.1</ele>
        <time>2017-01-20T17:31:32Z</time>
      </trkpt>
      <trkpt lat="43.21807" lon="2.35179">
        <ele>116.1</ele>
        <time>2017-01-20T17:31:33Z</time>
      </trkpt>
      <trkpt lat="43.21808" lon="2.35179">
        <ele>115.6</ele>
        <time>2017-01-20T17:31:34Z</time>
      </trkpt>
      <trkpt lat="43.21808" lon="2.35179">
        <ele>115.3</ele>
        <time>2017-01-20T17:31:35Z</time>
      </trkpt>
      <trkpt lat="43.21809" lon="2.35179">
        <ele>115</ele>
        <time>2017-01-20T17:31:36Z</time>
      </trkpt>
      <trkpt lat="43.21809" lon="2.3518">
        <ele>114.8</ele>
        <time>2017-01-20T17:31:37Z</time>
      </trkpt>
      <trkpt lat="43.2181" lon="2.3518">
        <ele>114.7</ele>
        <time>2017-01-20T17:31:38Z</time>
      </trkpt>
      <trkpt lat="43.2181" lon="2.3518">
        <ele>114.6</ele>
        <time>2017-01-20T17:31:39Z</time>
      </trkpt>
      <trkpt lat="43.2181" lon="2.3518">
        <ele>114.7</ele>
        <time>2017-01-20T17:31:40Z</time>
      </trkpt>
      <trkpt lat="43.2181" lon="2.3518">
        <ele>114.8</ele>
        <time>2017-01-20T17:31:41Z</time>
      </trkpt>
      <trkpt lat="43.2181" lon="2.3518">
        <ele>114.8</ele>
        <time>2017-01-20T17:31:42Z</time>
      </trkpt>
      <trkpt lat="43.2181" lon="2.3518">
        <ele>114.5</ele>
        <time>2017-01-20T17:31:43Z</time>
      </trkpt>
      <trkpt lat="43.2181" lon="2.3518">
        <ele>114.2</ele>
        <time>2017-01-20T17:31:44Z</time>
      </trkpt>
      <trkpt lat="43.2181" lon="2.3518">
        <ele>114</ele>
        <time>2017-01-20T17:31:45Z</time>
      </trkpt>
      <trkpt lat="43.2181" lon="2.3518">
        <ele>114.1</ele>
        <time>2017-01-20T17:31:46Z</time>
      </trkpt>
      <trkpt lat="43.21811" lon="2.3518">
        <ele>114.1</ele>
        <time>2017-01-20T17:31:47Z</time>
      </trkpt>
      <trkpt lat="43.21811" lon="2.3518">
        <ele>114.1</ele>
        <time>2017-01-20T17:31:48Z</time>
      </trkpt>
      <trkpt lat="43.21811" lon="2.35181">
        <ele>114.2</ele>
        <time>2017-01-20T17:31:49Z</time>
      </trkpt>
      <trkpt lat="43.21811" lon="2.35181">
        <ele>114.2</ele>
        <time>2017-01-20T17:31:50Z</time>
      </trkpt>
      <trkpt lat="43.21811" lon="2.35181">
        <ele>114.2</ele>
        <time>2017-01-20T17:31:51Z</time>
      </trkpt>
      <trkpt lat="43.21811" lon="2.35181">
        <ele>114.6</ele>
        <time>2017-01-20T17:31:52Z</time>
      </trkpt>
      <trkpt lat="43.21811" lon="2.35181">
        <ele>114.9</ele>
        <time>2017-01-20T17:31:53Z</time>
      </trkpt>
      <trkpt lat="43.21811" lon="2.35182">
        <ele>115.6</ele>
        <time>2017-01-20T17:31:55Z</time>
      </trkpt>
      <trkpt lat="43.21811" lon="2.35183">
        <ele>115.8</ele>
        <time>2017-01-20T17:31:56Z</time>
      </trkpt>
      <trkpt lat="43.21811" lon="2.35184">
        <ele>116.1</ele>
        <time>2017-01-20T17:31:57Z</time>
      </trkpt>
      <trkpt lat="43.21811" lon="2.35184">
        <ele>116.2</ele>
        <time>2017-01-20T17:31:58Z</time>
      </trkpt>
      <trkpt lat="43.21811" lon="2.35185">
        <ele>116.4</ele>
        <time>2017-01-20T17:31:59Z</time>
      </trkpt>
      <trkpt lat="43.2181" lon="2.35185">
        <ele>116.4</ele>
        <time>2017-01-20T17:32:00Z</time>
      </trkpt>
      <trkpt lat="43.2181" lon="2.35186">
        <ele>116.7</ele>
        <time>2017-01-20T17:32:01Z</time>
      </trkpt>
      <trkpt lat="43.2181" lon="2.35186">
        <ele>116.9</ele>
        <time>2017-01-20T17:32:02Z</time>
      </trkpt>
      <trkpt lat="43.2181" lon="2.35186">
        <ele>117.1</ele>
        <time>2017-01-20T17:32:03Z</time>
      </trkpt>
      <trkpt lat="43.2181" lon="2.35187">
        <ele>117.4</ele>
        <time>2017-01-20T17:32:04Z</time>
      </trkpt>
      <trkpt lat="43.2181" lon="2.35186">
        <ele>117.6</ele>
        <time>2017-01-20T17:32:07Z</time>
      </trkpt>
      <trkpt lat="43.2181" lon="2.35186">
        <ele>117.3</ele>
        <time>2017-01-20T17:32:08Z</time>
      </trkpt>
      <trkpt lat="43.2181" lon="2.35186">
        <ele>117.2</ele>
        <time>2017-01-20T17:32:09Z</time>
      </trkpt>
      <trkpt lat="43.2181" lon="2.35186">
        <ele>117.9</ele>
        <time>2017-01-20T17:32:10Z</time>
      </trkpt>
      <trkpt lat="43.2181" lon="2.35186">
        <ele>118.4</ele>
        <time>2017-01-20T17:32:11Z</time>
      </trkpt>
      <trkpt lat="43.2181" lon="2.35185">
        <ele>118.8</ele>
        <time>2017-01-20T17:32:12Z</time>
      </trkpt>
      <trkpt lat="43.2181" lon="2.35185">
        <ele>118.7</ele>
        <time>2017-01-20T17:32:13Z</time>
      </trkpt>
      <trkpt lat="43.2181" lon="2.35184">
        <ele>118.6</ele>
        <time>2017-01-20T17:32:14Z</time>
      </trkpt>
      <trkpt lat="43.2181" lon="2.35183">
        <ele>118.6</ele>
        <time>2017-01-20T17:32:15Z</time>
      </trkpt>
      <trkpt lat="43.21811" lon="2.35182">
        <ele>118.3</ele>
        <time>2017-01-20T17:32:16Z</time>
      </trkpt>
      <trkpt lat="43.21811" lon="2.35182">
        <ele>118.1</ele>
        <time>2017-01-20T17:32:17Z</time>
      </trkpt>
      <trkpt lat="43.21811" lon="2.35182">
        <ele>118</ele>
        <time>2017-01-20T17:32:18Z</time>
      </trkpt>
      <trkpt lat="43.21811" lon="2.35181">
        <ele>118.1</ele>
        <time>2017-01-20T17:32:19Z</time>
      </trkpt>
      <trkpt lat="43.21812" lon="2.35181">
        <ele>118.2</ele>
        <time>2017-01-20T17:32:20Z</time>
      </trkpt>
      <trkpt lat="43.21812" lon="2.3518">
        <ele>118.2</ele>
        <time>2017-01-20T17:32:21Z</time>
      </trkpt>
      <trkpt lat="43.21812" lon="2.3518">
        <ele>118</ele>
        <time>2017-01-20T17:32:22Z</time>
      </trkpt>
      <trkpt lat="43.21813" lon="2.3518">
        <ele>117.9</ele>
        <time>2017-01-20T17:32:23Z</time>
      </trkpt>
      <trkpt lat="43.21813" lon="2.35179">
        <ele>117.8</ele>
        <time>2017-01-20T17:32:24Z</time>
      </trkpt>
      <trkpt lat="43.21812" lon="2.35179">
        <ele>118</ele>
        <time>2017-01-20T17:32:25Z</time>
      </trkpt>
      <trkpt lat="43.21812" lon="2.35178">
        <ele>118.1</ele>
        <time>2017-01-20T17:32:26Z</time>
      </trkpt>
      <trkpt lat="43.21812" lon="2.35177">
        <ele>118.2</ele>
        <time>2017-01-20T17:32:27Z</time>
      </trkpt>
      <trkpt lat="43.21812" lon="2.35176">
        <ele>118.2</ele>
        <time>2017-01-20T17:32:28Z</time>
      </trkpt>
      <trkpt lat="43.21811" lon="2.35175">
        <ele>118.3</ele>
        <time>2017-01-20T17:32:29Z</time>
      </trkpt>
      <trkpt lat="43.21812" lon="2.35175">
        <ele>118.3</ele>
        <time>2017-01-20T17:32:30Z</time>
      </trkpt>
      <trkpt lat="43.21812" lon="2.35174">
        <ele>118.3</ele>
        <time>2017-01-20T17:32:31Z</time>
      </trkpt>
      <trkpt lat="43.21812" lon="2.35173">
        <ele>118.3</ele>
        <time>2017-01-20T17:32:32Z</time>
      </trkpt>
      <trkpt lat="43.21812" lon="2.35172">
        <ele>118.3</ele>
        <time>2017-01-20T17:32:33Z</time>
      </trkpt>
      <trkpt lat="43.21813" lon="2.35172">
        <ele>118.4</ele>
        <time>2017-01-20T17:32:34Z</time>
      </trkpt>
      <trkpt lat="43.21813" lon="2.35171">
        <ele>118.4</ele>
        <time>2017-01-20T17:32:35Z</time>
      </trkpt>
      <trkpt lat="43.21813" lon="2.35171">
        <ele>118.4</ele>
        <time>2017-01-20T17:32:36Z</time>
      </trkpt>
      <trkpt lat="43.21813" lon="2.3517">
        <ele>118.4</ele>
        <time>2017-01-20T17:32:37Z</time>
      </trkpt>
      <trkpt lat="43.21814" lon="2.3517">
        <ele>118.4</ele>
        <time>2017-01-20T17:32:38Z</time>
      </trkpt>
      <trkpt lat="43.21814" lon="2.35169">
        <ele>118.4</ele>
        <time>2017-01-20T17:32:39Z</time>
      </trkpt>
      <trkpt lat="43.21814" lon="2.35169">
        <ele>118.4</ele>
        <time>2017-01-20T17:32:40Z</time>
      </trkpt>
      <trkpt lat="43.21814" lon="2.35168">
        <ele>118.4</ele>
        <time>2017-01-20T17:32:41Z</time>
      </trkpt>
      <trkpt lat="43.21815" lon="2.35168">
        <ele>118.4</ele>
        <time>2017-01-20T17:32:42Z</time>
      </trkpt>
      <trkpt lat="43.21815" lon="2.35168">
        <ele>118.4</ele>
        <time>2017-01-20T17:32:43Z</time>
      </trkpt>
      <trkpt lat="43.21816" lon="2.35167">
        <ele>118.4</ele>
        <time>2017-01-20T17:32:44Z</time>
      </trkpt>
      <trkpt lat="43.21817" lon="2.35167">
        <ele>118.4</ele>
        <time>2017-01-20T17:32:45Z</time>
      </trkpt>
      <trkpt lat="43.21817" lon="2.35167">
        <ele>118</ele>
        <time>2017-01-20T17:32:46Z</time>
      </trkpt>
      <trkpt lat="43.21818" lon="2.35167">
        <ele>117.7</ele>
        <time>2017-01-20T17:32:47Z</time>
      </trkpt>
      <trkpt lat="43.21819" lon="2.35167">
        <ele>117.4</ele>
        <time>2017-01-20T17:32:48Z</time>
      </trkpt>
      <trkpt lat="43.2182" lon="2.35166">
        <ele>117.9</ele>
        <time>2017-01-20T17:32:49Z</time>
      </trkpt>
      <trkpt lat="43.2182" lon="2.35166">
        <ele>118.2</ele>
        <time>2017-01-20T17:32:50Z</time>
      </trkpt>
      <trkpt lat="43.21821" lon="2.35166">
        <ele>118.5</ele>
        <time>2017-01-20T17:32:51Z</time>
      </trkpt>
      <trkpt lat="43.21821" lon="2.35166">
        <ele>117.6</ele>
        <time>2017-01-20T17:32:52Z</time>
      </trkpt>
      <trkpt lat="43.21821" lon="2.35166">
        <ele>117</ele>
        <time>2017-01-20T17:32:53Z</time>
      </trkpt>
      <trkpt lat="43.21821" lon="2.35166">
        <ele>116.5</ele>
        <time>2017-01-20T17:32:54Z</time>
      </trkpt>
      <trkpt lat="43.21822" lon="2.35166">
        <ele>116.5</ele>
        <time>2017-01-20T17:32:55Z</time>
      </trkpt>
      <trkpt lat="43.21822" lon="2.35167">
        <ele>116.6</ele>
        <time>2017-01-20T17:32:56Z</time>
      </trkpt>
      <trkpt lat="43.21822" lon="2.35167">
        <ele>116.6</ele>
        <time>2017-01-20T17:32:57Z</time>
      </trkpt>
      <trkpt lat="43.21823" lon="2.35168">
        <ele>116.9</ele>
        <time>2017-01-20T17:32:58Z</time>
      </trkpt>
      <trkpt lat="43.21824" lon="2.35168">
        <ele>117</ele>
        <time>2017-01-20T17:32:59Z</time>
      </trkpt>
      <trkpt lat="43.21825" lon="2.35169">
        <ele>117.2</ele>
        <time>2017-01-20T17:33:00Z</time>
      </trkpt>
      <trkpt lat="43.21825" lon="2.35169">
        <ele>117.3</ele>
        <time>2017-01-20T17:33:01Z</time>
      </trkpt>
      <trkpt lat="43.21825" lon="2.35169">
        <ele>117.3</ele>
        <time>2017-01-20T17:33:02Z</time>
      </trkpt>
      <trkpt lat="43.21825" lon="2.35169">
        <ele>117.4</ele>
        <time>2017-01-20T17:33:03Z</time>
      </trkpt>
      <trkpt lat="43.21826" lon="2.35169">
        <ele>117.2</ele>
        <time>2017-01-20T17:33:04Z</time>
      </trkpt>
      <trkpt lat="43.21826" lon="2.35169">
        <ele>117.1</ele>
        <time>2017-01-20T17:33:05Z</time>
      </trkpt>
      <trkpt lat="43.21826" lon="2.35169">
        <ele>117</ele>
        <time>2017-01-20T17:33:06Z</time>
      </trkpt>
      <trkpt lat="43.21826" lon="2.3517">
        <ele>117.1</ele>
        <time>2017-01-20T17:33:07Z</time>
      </trkpt>
      <trkpt lat="43.21826" lon="2.35169">
        <ele>117.2</ele>
        <time>2017-01-20T17:33:08Z</time>
      </trkpt>
      <trkpt lat="43.21826" lon="2.35169">
        <ele>117.3</ele>
        <time>2017-01-20T17:33:09Z</time>
      </trkpt>
      <trkpt lat="43.21826" lon="2.35168">
        <ele>117.4</ele>
        <time>2017-01-20T17:33:10Z</time>
      </trkpt>
      <trkpt lat="43.21826" lon="2.35167">
        <ele>117.4</ele>
        <time>2017-01-20T17:33:11Z</time>
      </trkpt>
      <trkpt lat="43.21826" lon="2.35167">
        <ele>117.5</ele>
        <time>2017-01-20T17:33:12Z</time>
      </trkpt>
      <trkpt lat="43.21826" lon="2.35166">
        <ele>117.5</ele>
        <time>2017-01-20T17:33:13Z</time>
      </trkpt>
      <trkpt lat="43.21826" lon="2.35165">
        <ele>117.5</ele>
        <time>2017-01-20T17:33:14Z</time>
      </trkpt>
      <trkpt lat="43.21826" lon="2.35165">
        <ele>117.5</ele>
        <time>2017-01-20T17:33:15Z</time>
      </trkpt>
      <trkpt lat="43.21827" lon="2.35163">
        <ele>116.7</ele>
        <time>2017-01-20T17:33:24Z</time>
      </trkpt>
      <trkpt lat="43.21827" lon="2.35163">
        <ele>117.1</ele>
        <time>2017-01-20T17:33:25Z</time>
      </trkpt>
      <trkpt lat="43.21827" lon="2.35163">
        <ele>117.4</ele>
        <time>2017-01-20T17:33:26Z</time>
      </trkpt>
      <trkpt lat="43.21827" lon="2.35163">
        <ele>117.7</ele>
        <time>2017-01-20T17:33:27Z</time>
      </trkpt>
      <trkpt lat="43.21827" lon="2.35163">
        <ele>117.8</ele>
        <time>2017-01-20T17:33:28Z</time>
      </trkpt>
      <trkpt lat="43.21827" lon="2.35163">
        <ele>118</ele>
        <time>2017-01-20T17:33:29Z</time>
      </trkpt>
      <trkpt lat="43.21827" lon="2.35163">
        <ele>118.1</ele>
        <time>2017-01-20T17:33:30Z</time>
      </trkpt>
      <trkpt lat="43.21827" lon="2.35163">
        <ele>117.5</ele>
        <time>2017-01-20T17:33:31Z</time>
      </trkpt>
      <trkpt lat="43.21827" lon="2.35163">
        <ele>117.1</ele>
        <time>2017-01-20T17:33:32Z</time>
      </trkpt>
      <trkpt lat="43.21827" lon="2.35163">
        <ele>116.8</ele>
        <time>2017-01-20T17:33:33Z</time>
      </trkpt>
      <trkpt lat="43.21826" lon="2.35163">
        <ele>117.4</ele>
        <time>2017-01-20T17:33:34Z</time>
      </trkpt>
      <trkpt lat="43.21826" lon="2.35163">
        <ele>117.9</ele>
        <time>2017-01-20T17:33:35Z</time>
      </trkpt>
      <trkpt lat="43.21826" lon="2.35164">
        <ele>118.2</ele>
        <time>2017-01-20T17:33:36Z</time>
      </trkpt>
      <trkpt lat="43.21826" lon="2.35164">
        <ele>118</ele>
        <time>2017-01-20T17:33:37Z</time>
      </trkpt>
      <trkpt lat="43.21826" lon="2.35164">
        <ele>117.9</ele>
        <time>2017-01-20T17:33:38Z</time>
      </trkpt>
      <trkpt lat="43.21825" lon="2.35164">
        <ele>117.8</ele>
        <time>2017-01-20T17:33:39Z</time>
      </trkpt>
      <trkpt lat="43.21825" lon="2.35165">
        <ele>118</ele>
        <time>2017-01-20T17:33:40Z</time>
      </trkpt>
      <trkpt lat="43.21825" lon="2.35165">
        <ele>118.1</ele>
        <time>2017-01-20T17:33:41Z</time>
      </trkpt>
      <trkpt lat="43.21825" lon="2.35166">
        <ele>118.1</ele>
        <time>2017-01-20T17:33:42Z</time>
      </trkpt>
      <trkpt lat="43.21826" lon="2.35167">
        <ele>118.2</ele>
        <time>2017-01-20T17:33:43Z</time>
      </trkpt>
      <trkpt lat="43.21826" lon="2.35167">
        <ele>118.3</ele>
        <time>2017-01-20T17:33:44Z</time>
      </trkpt>
      <trkpt lat="43.21826" lon="2.35168">
        <ele>118.3</ele>
        <time>2017-01-20T17:33:45Z</time>
      </trkpt>
      <trkpt lat="43.21826" lon="2.35168">
        <ele>118.5</ele>
        <time>2017-01-20T17:33:46Z</time>
      </trkpt>
      <trkpt lat="43.21828" lon="2.35172">
        <ele>119.5</ele>
        <time>2017-01-20T17:33:51Z</time>
      </trkpt>
      <trkpt lat="43.21828" lon="2.35176">
        <ele>118.4</ele>
        <time>2017-01-20T17:33:54Z</time>
      </trkpt>
      <trkpt lat="43.21828" lon="2.3518">
        <ele>118.2</ele>
        <time>2017-01-20T17:33:58Z</time>
      </trkpt>
      <trkpt lat="43.21828" lon="2.35181">
        <ele>118.5</ele>
        <time>2017-01-20T17:33:59Z</time>
      </trkpt>
      <trkpt lat="43.21827" lon="2.35182">
        <ele>118.7</ele>
        <time>2017-01-20T17:34:00Z</time>
      </trkpt>
      <trkpt lat="43.21827" lon="2.35183">
        <ele>118.8</ele>
        <time>2017-01-20T17:34:01Z</time>
      </trkpt>
      <trkpt lat="43.21826" lon="2.35184">
        <ele>118.9</ele>
        <time>2017-01-20T17:34:02Z</time>
      </trkpt>
      <trkpt lat="43.21826" lon="2.35185">
        <ele>119</ele>
        <time>2017-01-20T17:34:03Z</time>
      </trkpt>
      <trkpt lat="43.21826" lon="2.35186">
        <ele>118.2</ele>
        <time>2017-01-20T17:34:04Z</time>
      </trkpt>
      <trkpt lat="43.21825" lon="2.35187">
        <ele>117.6</ele>
        <time>2017-01-20T17:34:05Z</time>
      </trkpt>
      <trkpt lat="43.21825" lon="2.35189">
        <ele>117.2</ele>
        <time>2017-01-20T17:34:06Z</time>
      </trkpt>
      <trkpt lat="43.21825" lon="2.3519">
        <ele>117.5</ele>
        <time>2017-01-20T17:34:07Z</time>
      </trkpt>
      <trkpt lat="43.21825" lon="2.35191">
        <ele>117.7</ele>
        <time>2017-01-20T17:34:08Z</time>
      </trkpt>
      <trkpt lat="43.21825" lon="2.35198">
        <ele>118.6</ele>
        <time>2017-01-20T17:34:14Z</time>
      </trkpt>
      <trkpt lat="43.21825" lon="2.352">
        <ele>118.8</ele>
        <time>2017-01-20T17:34:15Z</time>
      </trkpt>
      <trkpt lat="43.21825" lon="2.35201">
        <ele>118.7</ele>
        <time>2017-01-20T17:34:16Z</time>
      </trkpt>
      <trkpt lat="43.21824" lon="2.35201">
        <ele>118.6</ele>
        <time>2017-01-20T17:34:17Z</time>
      </trkpt>
      <trkpt lat="43.21824" lon="2.35202">
        <ele>118.5</ele>
        <time>2017-01-20T17:34:18Z</time>
      </trkpt>
      <trkpt lat="43.21824" lon="2.35202">
        <ele>118.5</ele>
        <time>2017-01-20T17:34:19Z</time>
      </trkpt>
      <trkpt lat="43.21823" lon="2.35202">
        <ele>118.5</ele>
        <time>2017-01-20T17:34:20Z</time>
      </trkpt>
      <trkpt lat="43.21822" lon="2.35199">
        <ele>118.4</ele>
        <time>2017-01-20T17:34:23Z</time>
      </trkpt>
      <trkpt lat="43.21822" lon="2.35198">
        <ele>118.4</ele>
        <time>2017-01-20T17:34:24Z</time>
      </trkpt>
      <trkpt lat="43.21822" lon="2.35197">
        <ele>118.4</ele>
        <time>2017-01-20T17:34:25Z</time>
      </trkpt>
      <trkpt lat="43.21821" lon="2.35196">
        <ele>118.4</ele>
        <time>2017-01-20T17:34:26Z</time>
      </trkpt>
      <trkpt lat="43.21821" lon="2.35196">
        <ele>118.4</ele>
        <time>2017-01-20T17:34:27Z</time>
      </trkpt>
      <trkpt lat="43.21819" lon="2.35194">
        <ele>118.4</ele>
        <time>2017-01-20T17:34:31Z</time>
      </trkpt>
      <trkpt lat="43.21819" lon="2.35193">
        <ele>118.4</ele>
        <time>2017-01-20T17:34:32Z</time>
      </trkpt>
      <trkpt lat="43.21818" lon="2.3519">
        <ele>118.7</ele>
        <time>2017-01-20T17:34:35Z</time>
      </trkpt>
      <trkpt lat="43.21818" lon="2.35189">
        <ele>118.9</ele>
        <time>2017-01-20T17:34:36Z</time>
      </trkpt>
      <trkpt lat="43.21818" lon="2.35189">
        <ele>118.7</ele>
        <time>2017-01-20T17:34:37Z</time>
      </trkpt>
      <trkpt lat="43.21818" lon="2.35188">
        <ele>118.7</ele>
        <time>2017-01-20T17:34:38Z</time>
      </trkpt>
      <trkpt lat="43.21818" lon="2.35188">
        <ele>118.6</ele>
        <time>2017-01-20T17:34:39Z</time>
      </trkpt>
      <trkpt lat="43.21818" lon="2.35188">
        <ele>118.3</ele>
        <time>2017-01-20T17:34:40Z</time>
      </trkpt>
      <trkpt lat="43.21819" lon="2.35188">
        <ele>118.1</ele>
        <time>2017-01-20T17:34:41Z</time>
      </trkpt>
      <trkpt lat="43.21819" lon="2.35187">
        <ele>118</ele>
        <time>2017-01-20T17:34:42Z</time>
      </trkpt>
      <trkpt lat="43.21819" lon="2.35187">
        <ele>118.1</ele>
        <time>2017-01-20T17:34:43Z</time>
      </trkpt>
      <trkpt lat="43.21819" lon="2.35187">
        <ele>118.2</ele>
        <time>2017-01-20T17:34:44Z</time>
      </trkpt>
      <trkpt lat="43.21819" lon="2.35187">
        <ele>118.2</ele>
        <time>2017-01-20T17:34:45Z</time>
      </trkpt>
      <trkpt lat="43.21819" lon="2.35187">
        <ele>118.7</ele>
        <time>2017-01-20T17:34:46Z</time>
      </trkpt>
      <trkpt lat="43.21819" lon="2.35186">
        <ele>119</ele>
        <time>2017-01-20T17:34:47Z</time>
      </trkpt>
      <trkpt lat="43.21819" lon="2.35186">
        <ele>119.3</ele>
        <time>2017-01-20T17:34:48Z</time>
      </trkpt>
      <trkpt lat="43.21819" lon="2.35186">
        <ele>119.5</ele>
        <time>2017-01-20T17:34:49Z</time>
      </trkpt>
      <trkpt lat="43.21819" lon="2.35186">
        <ele>119.6</ele>
        <time>2017-01-20T17:34:50Z</time>
      </trkpt>
      <trkpt lat="43.21819" lon="2.35186">
        <ele>119.7</ele>
        <time>2017-01-20T17:34:51Z</time>
      </trkpt>
      <trkpt lat="43.21819" lon="2.35185">
        <ele>119.6</ele>
        <time>2017-01-20T17:34:52Z</time>
      </trkpt>
      <trkpt lat="43.21819" lon="2.35185">
        <ele>119.5</ele>
        <time>2017-01-20T17:34:53Z</time>
      </trkpt>
      <trkpt lat="43.21819" lon="2.35185">
        <ele>119.4</ele>
        <time>2017-01-20T17:34:54Z</time>
      </trkpt>
      <trkpt lat="43.21819" lon="2.35185">
        <ele>119.4</ele>
        <time>2017-01-20T17:34:55Z</time>
      </trkpt>
      <trkpt lat="43.21819" lon="2.35185">
        <ele>119.3</ele>
        <time>2017-01-20T17:34:56Z</time>
      </trkpt>
      <trkpt lat="43.21819" lon="2.35185">
        <ele>119.3</ele>
        <time>2017-01-20T17:34:57Z</time>
      </trkpt>
      <trkpt lat="43.21819" lon="2.35185">
        <ele>119.1</ele>
        <time>2017-01-20T17:34:58Z</time>
      </trkpt>
      <trkpt lat="43.21819" lon="2.35185">
        <ele>118.9</ele>
        <time>2017-01-20T17:34:59Z</time>
      </trkpt>
      <trkpt lat="43.2182" lon="2.35184">
        <ele>118.8</ele>
        <time>2017-01-20T17:35:00Z</time>
      </trkpt>
      <trkpt lat="43.2182" lon="2.35184">
        <ele>118.9</ele>
        <time>2017-01-20T17:35:01Z</time>
      </trkpt>
      <trkpt lat="43.21821" lon="2.35183">
        <ele>119</ele>
        <time>2017-01-20T17:35:02Z</time>
      </trkpt>
      <trkpt lat="43.21822" lon="2.35182">
        <ele>119.1</ele>
        <time>2017-01-20T17:35:06Z</time>
      </trkpt>
      <trkpt lat="43.21822" lon="2.35182">
        <ele>118.9</ele>
        <time>2017-01-20T17:35:07Z</time>
      </trkpt>
      <trkpt lat="43.21822" lon="2.35181">
        <ele>118.8</ele>
        <time>2017-01-20T17:35:08Z</time>
      </trkpt>
    </trkseg>
  </trk>
</gpx>